<?xml version='1.0' encoding='UTF-8'?><gpx version="1.1" creator="JPX - https://github.com/jenetics/jpx" xmlns="http://www.topografix.com/GPX/1/1"><trk><trkseg><trkpt lat="45.4883994" lon="12.6009349"><ele>3.0</ele><time>2026-04-25T07:31:03.807Z</time></trkpt><trkpt lat="45.4883478" lon="12.6010266"><ele>3.0</ele><time>2026-04-25T07:31:06.807Z</time></trkpt><trkpt lat="45.4883717" lon="12.60114"><ele>3.0</ele><time>2026-04-25T07:31:09.809Z</time></trkpt><trkpt lat="45.4883986" lon="12.6012424"><ele>3.0</ele><time>2026-04-25T07:31:12.814Z</time></trkpt><trkpt lat="45.4884402" lon="12.6013429"><ele>3.0</ele><time>2026-04-25T07:31:15.814Z</time></trkpt><trkpt lat="45.4885036" lon="12.6014034"><ele>3.0</ele><time>2026-04-25T07:31:19.81Z</time></trkpt><trkpt lat="45.4885817" lon="12.6013786"><ele>3.2</ele><time>2026-04-25T07:31:21.806Z</time></trkpt><trkpt lat="45.4886691" lon="12.601293"><ele>3.4</ele><time>2026-04-25T07:31:23.809Z</time></trkpt><trkpt lat="45.4887715" lon="12.6012182"><ele>3.6000000000000005</ele><time>2026-04-25T07:31:25.819Z</time></trkpt><trkpt lat="45.4888556" lon="12.6011374"><ele>3.8000000000000003</ele><time>2026-04-25T07:31:27.813Z</time></trkpt><trkpt lat="45.4889156" lon="12.6010848"><ele>4.0</ele><time>2026-04-25T07:31:30.815Z</time></trkpt><trkpt lat="45.4889807" lon="12.601041"><ele>4.166666666666666</ele><time>2026-04-25T07:31:39.8Z</time></trkpt><trkpt lat="45.4890592" lon="12.6009736"><ele>4.333333333333333</ele><time>2026-04-25T07:31:41.801Z</time></trkpt><trkpt lat="45.4891213" lon="12.6009197"><ele>4.5</ele><time>2026-04-25T07:31:42.798Z</time></trkpt><trkpt lat="45.4891865" lon="12.6008599"><ele>4.666666666666667</ele><time>2026-04-25T07:31:43.804Z</time></trkpt><trkpt lat="45.4892647" lon="12.6008071"><ele>4.833333333333334</ele><time>2026-04-25T07:31:44.805Z</time></trkpt><trkpt lat="45.4893383" lon="12.6007454"><ele>5.0</ele><time>2026-04-25T07:31:45.801Z</time></trkpt><trkpt lat="45.4894034" lon="12.6006933"><ele>5.0</ele><time>2026-04-25T07:31:46.806Z</time></trkpt><trkpt lat="45.4894858" lon="12.6006106"><ele>5.0</ele><time>2026-04-25T07:31:48.824Z</time></trkpt><trkpt lat="45.4895448" lon="12.6005429"><ele>5.0</ele><time>2026-04-25T07:31:52.805Z</time></trkpt><trkpt lat="45.4896239" lon="12.6006727"><ele>5.0</ele><time>2026-04-25T07:31:55.811Z</time></trkpt><trkpt lat="45.489649" lon="12.6007564"><ele>5.0</ele><time>2026-04-25T07:31:56.811Z</time></trkpt><trkpt lat="45.4896799" lon="12.6008408"><ele>5.0</ele><time>2026-04-25T07:31:57.823Z</time></trkpt><trkpt lat="45.4897242" lon="12.6009439"><ele>5.0</ele><time>2026-04-25T07:31:58.818Z</time></trkpt><trkpt lat="45.4897644" lon="12.6010443"><ele>5.0</ele><time>2026-04-25T07:31:59.815Z</time></trkpt><trkpt lat="45.4898091" lon="12.6011442"><ele>5.0</ele><time>2026-04-25T07:32:00.807Z</time></trkpt><trkpt lat="45.4898598" lon="12.6012625"><ele>5.0</ele><time>2026-04-25T07:32:01.819Z</time></trkpt><trkpt lat="45.4899082" lon="12.6013813"><ele>5.0</ele><time>2026-04-25T07:32:02.82Z</time></trkpt><trkpt lat="45.4899615" lon="12.6015005"><ele>5.0</ele><time>2026-04-25T07:32:03.812Z</time></trkpt><trkpt lat="45.4900192" lon="12.6016235"><ele>5.0</ele><time>2026-04-25T07:32:04.823Z</time></trkpt><trkpt lat="45.4900754" lon="12.6017529"><ele>5.0</ele><time>2026-04-25T07:32:05.814Z</time></trkpt><trkpt lat="45.4901379" lon="12.6018883"><ele>5.0</ele><time>2026-04-25T07:32:06.822Z</time></trkpt><trkpt lat="45.4902014" lon="12.602028"><ele>5.0</ele><time>2026-04-25T07:32:07.821Z</time></trkpt><trkpt lat="45.4902706" lon="12.6021832"><ele>4.75</ele><time>2026-04-25T07:32:08.823Z</time></trkpt><trkpt lat="45.4903469" lon="12.6023502"><ele>4.5</ele><time>2026-04-25T07:32:09.822Z</time></trkpt><trkpt lat="45.4904274" lon="12.6025337"><ele>4.25</ele><time>2026-04-25T07:32:10.814Z</time></trkpt><trkpt lat="45.4905002" lon="12.602701"><ele>4.0</ele><time>2026-04-25T07:32:11.82Z</time></trkpt><trkpt lat="45.490569" lon="12.6028554"><ele>3.75</ele><time>2026-04-25T07:32:12.82Z</time></trkpt><trkpt lat="45.490631" lon="12.6030086"><ele>3.5</ele><time>2026-04-25T07:32:13.817Z</time></trkpt><trkpt lat="45.4906942" lon="12.6031661"><ele>3.25</ele><time>2026-04-25T07:32:14.82Z</time></trkpt><trkpt lat="45.4907627" lon="12.6033158"><ele>3.0</ele><time>2026-04-25T07:32:15.816Z</time></trkpt><trkpt lat="45.4908308" lon="12.6034627"><ele>3.0</ele><time>2026-04-25T07:32:16.819Z</time></trkpt><trkpt lat="45.4908982" lon="12.6036064"><ele>3.0</ele><time>2026-04-25T07:32:17.82Z</time></trkpt><trkpt lat="45.490958" lon="12.6037427"><ele>3.0</ele><time>2026-04-25T07:32:18.815Z</time></trkpt><trkpt lat="45.4910132" lon="12.6038697"><ele>3.0</ele><time>2026-04-25T07:32:19.827Z</time></trkpt><trkpt lat="45.4910722" lon="12.6039967"><ele>3.0</ele><time>2026-04-25T07:32:20.818Z</time></trkpt><trkpt lat="45.4911356" lon="12.6041235"><ele>3.5</ele><time>2026-04-25T07:32:21.82Z</time></trkpt><trkpt lat="45.4911895" lon="12.6042587"><ele>4.0</ele><time>2026-04-25T07:32:22.819Z</time></trkpt><trkpt lat="45.491308" lon="12.6045207"><ele>4.5</ele><time>2026-04-25T07:32:24.821Z</time></trkpt><trkpt lat="45.4913629" lon="12.6046621"><ele>5.0</ele><time>2026-04-25T07:32:25.818Z</time></trkpt><trkpt lat="45.4914263" lon="12.6047983"><ele>5.0</ele><time>2026-04-25T07:32:26.814Z</time></trkpt><trkpt lat="45.4914919" lon="12.6049435"><ele>5.0</ele><time>2026-04-25T07:32:27.828Z</time></trkpt><trkpt lat="45.491563" lon="12.6050916"><ele>5.0</ele><time>2026-04-25T07:32:28.821Z</time></trkpt><trkpt lat="45.4916276" lon="12.6052358"><ele>5.0</ele><time>2026-04-25T07:32:29.817Z</time></trkpt><trkpt lat="45.4916804" lon="12.6053703"><ele>4.666666666666667</ele><time>2026-04-25T07:32:30.816Z</time></trkpt><trkpt lat="45.4917342" lon="12.6054817"><ele>4.333333333333334</ele><time>2026-04-25T07:32:31.839Z</time></trkpt><trkpt lat="45.4917753" lon="12.6055895"><ele>4.0</ele><time>2026-04-25T07:32:32.822Z</time></trkpt><trkpt lat="45.4918099" lon="12.6056788"><ele>3.666666666666667</ele><time>2026-04-25T07:32:33.815Z</time></trkpt><trkpt lat="45.4918692" lon="12.605816"><ele>3.3333333333333335</ele><time>2026-04-25T07:32:35.825Z</time></trkpt><trkpt lat="45.4919046" lon="12.6059007"><ele>3.0</ele><time>2026-04-25T07:32:38.823Z</time></trkpt><trkpt lat="45.4919632" lon="12.6060286"><ele>3.0</ele><time>2026-04-25T07:33:08.822Z</time></trkpt><trkpt lat="45.4920306" lon="12.6061784"><ele>3.0</ele><time>2026-04-25T07:33:10.827Z</time></trkpt><trkpt lat="45.4920776" lon="12.6062809"><ele>3.0</ele><time>2026-04-25T07:33:11.826Z</time></trkpt><trkpt lat="45.492131" lon="12.6063886"><ele>3.0</ele><time>2026-04-25T07:33:12.832Z</time></trkpt><trkpt lat="45.4921777" lon="12.6065043"><ele>3.0</ele><time>2026-04-25T07:33:13.824Z</time></trkpt><trkpt lat="45.492225" lon="12.6066198"><ele>3.0</ele><time>2026-04-25T07:33:14.82Z</time></trkpt><trkpt lat="45.4922836" lon="12.6067425"><ele>3.0</ele><time>2026-04-25T07:33:15.828Z</time></trkpt><trkpt lat="45.492341" lon="12.6068781"><ele>3.0</ele><time>2026-04-25T07:33:16.827Z</time></trkpt><trkpt lat="45.4924018" lon="12.6070126"><ele>3.0</ele><time>2026-04-25T07:33:17.835Z</time></trkpt><trkpt lat="45.492467" lon="12.6071619"><ele>3.0</ele><time>2026-04-25T07:33:18.83Z</time></trkpt><trkpt lat="45.4926196" lon="12.6074623"><ele>3.0</ele><time>2026-04-25T07:33:20.828Z</time></trkpt><trkpt lat="45.4926905" lon="12.6076209"><ele>3.0</ele><time>2026-04-25T07:33:21.853Z</time></trkpt><trkpt lat="45.4927608" lon="12.6077865"><ele>3.0</ele><time>2026-04-25T07:33:22.828Z</time></trkpt><trkpt lat="45.4928326" lon="12.6079581"><ele>3.0</ele><time>2026-04-25T07:33:23.821Z</time></trkpt><trkpt lat="45.4929006" lon="12.6081344"><ele>3.0</ele><time>2026-04-25T07:33:24.826Z</time></trkpt><trkpt lat="45.4929767" lon="12.608308"><ele>3.0</ele><time>2026-04-25T07:33:25.833Z</time></trkpt><trkpt lat="45.4930455" lon="12.6084689"><ele>3.0</ele><time>2026-04-25T07:33:26.822Z</time></trkpt><trkpt lat="45.4931159" lon="12.608614"><ele>3.0</ele><time>2026-04-25T07:33:27.826Z</time></trkpt><trkpt lat="45.4931785" lon="12.6087481"><ele>3.0</ele><time>2026-04-25T07:33:28.829Z</time></trkpt><trkpt lat="45.493247" lon="12.6089095"><ele>3.0</ele><time>2026-04-25T07:33:29.827Z</time></trkpt><trkpt lat="45.4933203" lon="12.6090795"><ele>3.333333333333333</ele><time>2026-04-25T07:33:30.829Z</time></trkpt><trkpt lat="45.4934025" lon="12.6092692"><ele>3.6666666666666665</ele><time>2026-04-25T07:33:31.823Z</time></trkpt><trkpt lat="45.4934856" lon="12.6094517"><ele>4.0</ele><time>2026-04-25T07:33:32.865Z</time></trkpt><trkpt lat="45.4935719" lon="12.6096302"><ele>4.0</ele><time>2026-04-25T07:33:33.828Z</time></trkpt><trkpt lat="45.4936539" lon="12.6098072"><ele>4.0</ele><time>2026-04-25T07:33:34.829Z</time></trkpt><trkpt lat="45.4937407" lon="12.6099985"><ele>4.0</ele><time>2026-04-25T07:33:35.824Z</time></trkpt><trkpt lat="45.4938229" lon="12.6101817"><ele>4.25</ele><time>2026-04-25T07:33:36.819Z</time></trkpt><trkpt lat="45.4938888" lon="12.6103484"><ele>4.5</ele><time>2026-04-25T07:33:37.829Z</time></trkpt><trkpt lat="45.4939489" lon="12.6104944"><ele>4.75</ele><time>2026-04-25T07:33:38.823Z</time></trkpt><trkpt lat="45.4940054" lon="12.6106348"><ele>5.0</ele><time>2026-04-25T07:33:39.817Z</time></trkpt><trkpt lat="45.494062" lon="12.6107669"><ele>5.0</ele><time>2026-04-25T07:33:40.819Z</time></trkpt><trkpt lat="45.494119" lon="12.6109001"><ele>5.0</ele><time>2026-04-25T07:33:41.818Z</time></trkpt><trkpt lat="45.4941667" lon="12.611021"><ele>5.0</ele><time>2026-04-25T07:33:42.832Z</time></trkpt><trkpt lat="45.4942109" lon="12.6111457"><ele>5.0</ele><time>2026-04-25T07:33:43.823Z</time></trkpt><trkpt lat="45.4942552" lon="12.6112564"><ele>5.0</ele><time>2026-04-25T07:33:44.819Z</time></trkpt><trkpt lat="45.4943028" lon="12.6113419"><ele>4.833333333333334</ele><time>2026-04-25T07:33:45.821Z</time></trkpt><trkpt lat="45.4943432" lon="12.6114301"><ele>4.666666666666667</ele><time>2026-04-25T07:33:46.822Z</time></trkpt><trkpt lat="45.4943864" lon="12.611524"><ele>4.5</ele><time>2026-04-25T07:33:48.828Z</time></trkpt><trkpt lat="45.4944242" lon="12.611601"><ele>4.333333333333333</ele><time>2026-04-25T07:34:38.821Z</time></trkpt><trkpt lat="45.4944531" lon="12.6116841"><ele>4.166666666666666</ele><time>2026-04-25T07:34:40.945Z</time></trkpt><trkpt lat="45.4945122" lon="12.6118085"><ele>4.0</ele><time>2026-04-25T07:34:42.837Z</time></trkpt><trkpt lat="45.4946204" lon="12.6118588"><ele>3.5</ele><time>2026-04-25T07:34:44.817Z</time></trkpt><trkpt lat="45.4947481" lon="12.6117785"><ele>3.0</ele><time>2026-04-25T07:34:46.828Z</time></trkpt><trkpt lat="45.4948353" lon="12.6117067"><ele>2.5</ele><time>2026-04-25T07:34:47.818Z</time></trkpt><trkpt lat="45.4949364" lon="12.6116268"><ele>2.0</ele><time>2026-04-25T07:34:48.824Z</time></trkpt><trkpt lat="45.4950386" lon="12.6115262"><ele>2.0</ele><time>2026-04-25T07:34:49.819Z</time></trkpt><trkpt lat="45.4951376" lon="12.6114399"><ele>2.0</ele><time>2026-04-25T07:34:50.821Z</time></trkpt><trkpt lat="45.4952227" lon="12.611363"><ele>2.0</ele><time>2026-04-25T07:34:51.822Z</time></trkpt><trkpt lat="45.4953164" lon="12.6112913"><ele>2.0</ele><time>2026-04-25T07:34:52.828Z</time></trkpt><trkpt lat="45.4954249" lon="12.6112296"><ele>2.0</ele><time>2026-04-25T07:34:53.822Z</time></trkpt><trkpt lat="45.4955309" lon="12.611158"><ele>2.0</ele><time>2026-04-25T07:34:54.819Z</time></trkpt><trkpt lat="45.4956198" lon="12.6110961"><ele>2.0</ele><time>2026-04-25T07:34:55.825Z</time></trkpt><trkpt lat="45.4956902" lon="12.6110269"><ele>2.0</ele><time>2026-04-25T07:34:56.859Z</time></trkpt><trkpt lat="45.4957548" lon="12.6109682"><ele>2.0</ele><time>2026-04-25T07:34:57.817Z</time></trkpt><trkpt lat="45.4958157" lon="12.6109208"><ele>2.0</ele><time>2026-04-25T07:34:58.829Z</time></trkpt><trkpt lat="45.4959252" lon="12.6108524"><ele>2.0</ele><time>2026-04-25T07:35:00.827Z</time></trkpt><trkpt lat="45.4959902" lon="12.6108326"><ele>2.0</ele><time>2026-04-25T07:35:01.823Z</time></trkpt><trkpt lat="45.4960761" lon="12.6108664"><ele>2.0</ele><time>2026-04-25T07:35:02.812Z</time></trkpt><trkpt lat="45.4961569" lon="12.6109537"><ele>2.0</ele><time>2026-04-25T07:35:03.823Z</time></trkpt><trkpt lat="45.4962294" lon="12.6110656"><ele>2.0</ele><time>2026-04-25T07:35:04.823Z</time></trkpt><trkpt lat="45.4962905" lon="12.611197"><ele>1.6</ele><time>2026-04-25T07:35:05.823Z</time></trkpt><trkpt lat="45.4963453" lon="12.6113536"><ele>1.2000000000000002</ele><time>2026-04-25T07:35:06.818Z</time></trkpt><trkpt lat="45.4963916" lon="12.611495"><ele>0.8</ele><time>2026-04-25T07:35:07.826Z</time></trkpt><trkpt lat="45.4964244" lon="12.6115966"><ele>0.4</ele><time>2026-04-25T07:35:08.821Z</time></trkpt><trkpt lat="45.4964637" lon="12.6116854"><ele>0.0</ele><time>2026-04-25T07:35:09.825Z</time></trkpt><trkpt lat="45.4965233" lon="12.6117382"><ele>0.0</ele><time>2026-04-25T07:35:10.836Z</time></trkpt><trkpt lat="45.4966009" lon="12.6117548"><ele>0.0</ele><time>2026-04-25T07:35:11.866Z</time></trkpt><trkpt lat="45.4966784" lon="12.6117262"><ele>0.0</ele><time>2026-04-25T07:35:12.816Z</time></trkpt><trkpt lat="45.4967701" lon="12.6116712"><ele>0.0</ele><time>2026-04-25T07:35:13.825Z</time></trkpt><trkpt lat="45.4968882" lon="12.611648"><ele>0.0</ele><time>2026-04-25T07:35:14.821Z</time></trkpt><trkpt lat="45.4970215" lon="12.6116557"><ele>0.0</ele><time>2026-04-25T07:35:15.835Z</time></trkpt><trkpt lat="45.4971625" lon="12.6116843"><ele>0.0</ele><time>2026-04-25T07:35:16.825Z</time></trkpt><trkpt lat="45.4973052" lon="12.6117206"><ele>0.0</ele><time>2026-04-25T07:35:17.832Z</time></trkpt><trkpt lat="45.4974438" lon="12.6117506"><ele>0.0</ele><time>2026-04-25T07:35:18.829Z</time></trkpt><trkpt lat="45.4975811" lon="12.6117825"><ele>0.0</ele><time>2026-04-25T07:35:19.824Z</time></trkpt><trkpt lat="45.49772" lon="12.6118091"><ele>0.0</ele><time>2026-04-25T07:35:20.826Z</time></trkpt><trkpt lat="45.4978618" lon="12.6118413"><ele>0.0</ele><time>2026-04-25T07:35:21.83Z</time></trkpt><trkpt lat="45.4979952" lon="12.611872"><ele>0.0</ele><time>2026-04-25T07:35:22.832Z</time></trkpt><trkpt lat="45.4981203" lon="12.6119127"><ele>-0.5</ele><time>2026-04-25T07:35:23.828Z</time></trkpt><trkpt lat="45.4982262" lon="12.6119759"><ele>-1.0</ele><time>2026-04-25T07:35:24.823Z</time></trkpt><trkpt lat="45.4983238" lon="12.6120494"><ele>-1.5</ele><time>2026-04-25T07:35:25.814Z</time></trkpt><trkpt lat="45.4984243" lon="12.61215"><ele>-2.0</ele><time>2026-04-25T07:35:26.811Z</time></trkpt><trkpt lat="45.4985241" lon="12.6122614"><ele>-2.0</ele><time>2026-04-25T07:35:27.82Z</time></trkpt><trkpt lat="45.4986237" lon="12.6123939"><ele>-2.0</ele><time>2026-04-25T07:35:28.824Z</time></trkpt><trkpt lat="45.4987174" lon="12.6125276"><ele>-2.0</ele><time>2026-04-25T07:35:29.829Z</time></trkpt><trkpt lat="45.4987904" lon="12.6127126"><ele>-2.0</ele><time>2026-04-25T07:35:30.81Z</time></trkpt><trkpt lat="45.4988402" lon="12.6129299"><ele>-0.6666666666666666</ele><time>2026-04-25T07:35:31.825Z</time></trkpt><trkpt lat="45.4989011" lon="12.6131528"><ele>0.6666666666666666</ele><time>2026-04-25T07:35:32.828Z</time></trkpt><trkpt lat="45.4989647" lon="12.6133904"><ele>2.0</ele><time>2026-04-25T07:35:33.822Z</time></trkpt><trkpt lat="45.4990323" lon="12.6136274"><ele>2.333333333333333</ele><time>2026-04-25T07:35:34.825Z</time></trkpt><trkpt lat="45.4991005" lon="12.6138389"><ele>2.6666666666666665</ele><time>2026-04-25T07:35:35.813Z</time></trkpt><trkpt lat="45.4991623" lon="12.6140347"><ele>3.0</ele><time>2026-04-25T07:35:36.828Z</time></trkpt><trkpt lat="45.4992199" lon="12.6142405"><ele>3.0</ele><time>2026-04-25T07:35:37.818Z</time></trkpt><trkpt lat="45.4992863" lon="12.6144512"><ele>3.0</ele><time>2026-04-25T07:35:38.827Z</time></trkpt><trkpt lat="45.4993544" lon="12.6146719"><ele>3.0</ele><time>2026-04-25T07:35:39.818Z</time></trkpt><trkpt lat="45.4994253" lon="12.6148962"><ele>2.6666666666666665</ele><time>2026-04-25T07:35:40.812Z</time></trkpt><trkpt lat="45.4994983" lon="12.6151229"><ele>2.333333333333333</ele><time>2026-04-25T07:35:41.825Z</time></trkpt><trkpt lat="45.4995643" lon="12.6153238"><ele>2.0</ele><time>2026-04-25T07:35:42.822Z</time></trkpt><trkpt lat="45.4996296" lon="12.6154997"><ele>1.75</ele><time>2026-04-25T07:35:43.815Z</time></trkpt><trkpt lat="45.4996916" lon="12.6156721"><ele>1.5</ele><time>2026-04-25T07:35:44.83Z</time></trkpt><trkpt lat="45.4997576" lon="12.6158522"><ele>1.25</ele><time>2026-04-25T07:35:45.819Z</time></trkpt><trkpt lat="45.4998237" lon="12.6160299"><ele>1.0</ele><time>2026-04-25T07:35:46.828Z</time></trkpt><trkpt lat="45.499891" lon="12.6162104"><ele>1.0</ele><time>2026-04-25T07:35:47.818Z</time></trkpt><trkpt lat="45.4999622" lon="12.6164013"><ele>1.0</ele><time>2026-04-25T07:35:48.817Z</time></trkpt><trkpt lat="45.5000255" lon="12.6165881"><ele>1.0</ele><time>2026-04-25T07:35:49.82Z</time></trkpt><trkpt lat="45.5000775" lon="12.6167644"><ele>1.0</ele><time>2026-04-25T07:35:50.822Z</time></trkpt><trkpt lat="45.5001244" lon="12.6169161"><ele>0.8</ele><time>2026-04-25T07:35:51.821Z</time></trkpt><trkpt lat="45.5001734" lon="12.6170522"><ele>0.6000000000000001</ele><time>2026-04-25T07:35:52.821Z</time></trkpt><trkpt lat="45.5002189" lon="12.6171795"><ele>0.4</ele><time>2026-04-25T07:35:53.82Z</time></trkpt><trkpt lat="45.50026" lon="12.6173044"><ele>0.2</ele><time>2026-04-25T07:35:54.832Z</time></trkpt><trkpt lat="45.5002914" lon="12.6174218"><ele>0.0</ele><time>2026-04-25T07:35:55.824Z</time></trkpt><trkpt lat="45.500319" lon="12.6175735"><ele>0.0</ele><time>2026-04-25T07:35:57.826Z</time></trkpt><trkpt lat="45.5003334" lon="12.6176881"><ele>0.0</ele><time>2026-04-25T07:36:00.82Z</time></trkpt><trkpt lat="45.5003122" lon="12.6178079"><ele>0.0</ele><time>2026-04-25T07:36:02.821Z</time></trkpt><trkpt lat="45.5003246" lon="12.6179559"><ele>0.0</ele><time>2026-04-25T07:36:04.818Z</time></trkpt><trkpt lat="45.5003966" lon="12.6180455"><ele>0.0</ele><time>2026-04-25T07:36:06.819Z</time></trkpt><trkpt lat="45.5005311" lon="12.6179935"><ele>-0.2</ele><time>2026-04-25T07:36:08.813Z</time></trkpt><trkpt lat="45.5006076" lon="12.6179256"><ele>-0.4</ele><time>2026-04-25T07:36:09.816Z</time></trkpt><trkpt lat="45.5006976" lon="12.6178526"><ele>-0.6000000000000001</ele><time>2026-04-25T07:36:10.822Z</time></trkpt><trkpt lat="45.5007938" lon="12.6177896"><ele>-0.8</ele><time>2026-04-25T07:36:11.822Z</time></trkpt><trkpt lat="45.5009149" lon="12.6177439"><ele>-1.0</ele><time>2026-04-25T07:36:12.815Z</time></trkpt><trkpt lat="45.5010526" lon="12.617705"><ele>-1.0</ele><time>2026-04-25T07:36:13.823Z</time></trkpt><trkpt lat="45.5011928" lon="12.6176703"><ele>-1.0</ele><time>2026-04-25T07:36:14.832Z</time></trkpt><trkpt lat="45.5013356" lon="12.6176276"><ele>-1.0</ele><time>2026-04-25T07:36:15.822Z</time></trkpt><trkpt lat="45.5014697" lon="12.6175927"><ele>-1.0</ele><time>2026-04-25T07:36:16.82Z</time></trkpt><trkpt lat="45.501589" lon="12.6175647"><ele>-0.8333333333333333</ele><time>2026-04-25T07:36:17.83Z</time></trkpt><trkpt lat="45.5016909" lon="12.6175454"><ele>-0.6666666666666666</ele><time>2026-04-25T07:36:18.822Z</time></trkpt><trkpt lat="45.5017735" lon="12.6175264"><ele>-0.5</ele><time>2026-04-25T07:36:19.828Z</time></trkpt><trkpt lat="45.5018392" lon="12.6175126"><ele>-0.3333333333333333</ele><time>2026-04-25T07:36:20.82Z</time></trkpt><trkpt lat="45.5019036" lon="12.6175031"><ele>-0.16666666666666666</ele><time>2026-04-25T07:36:21.82Z</time></trkpt><trkpt lat="45.5020157" lon="12.6174855"><ele>0.0</ele><time>2026-04-25T07:36:23.823Z</time></trkpt><trkpt lat="45.5020825" lon="12.6175096"><ele>0.2</ele><time>2026-04-25T07:36:24.817Z</time></trkpt><trkpt lat="45.5021618" lon="12.6175571"><ele>0.4</ele><time>2026-04-25T07:36:25.83Z</time></trkpt><trkpt lat="45.5022413" lon="12.6176435"><ele>0.6000000000000001</ele><time>2026-04-25T07:36:26.819Z</time></trkpt><trkpt lat="45.5023102" lon="12.6177442"><ele>0.8</ele><time>2026-04-25T07:36:27.842Z</time></trkpt><trkpt lat="45.5023679" lon="12.6178612"><ele>1.0</ele><time>2026-04-25T07:36:28.821Z</time></trkpt><trkpt lat="45.5024253" lon="12.6180079"><ele>0.5</ele><time>2026-04-25T07:36:29.824Z</time></trkpt><trkpt lat="45.5024772" lon="12.6181626"><ele>0.0</ele><time>2026-04-25T07:36:30.816Z</time></trkpt><trkpt lat="45.5025336" lon="12.6183271"><ele>-0.5</ele><time>2026-04-25T07:36:31.824Z</time></trkpt><trkpt lat="45.5025981" lon="12.6185069"><ele>-1.0</ele><time>2026-04-25T07:36:32.818Z</time></trkpt><trkpt lat="45.502666" lon="12.6186894"><ele>-1.0</ele><time>2026-04-25T07:36:33.819Z</time></trkpt><trkpt lat="45.5027311" lon="12.6188837"><ele>-1.0</ele><time>2026-04-25T07:36:34.823Z</time></trkpt><trkpt lat="45.5027937" lon="12.6190856"><ele>-1.0</ele><time>2026-04-25T07:36:35.824Z</time></trkpt><trkpt lat="45.5028578" lon="12.619305"><ele>-0.6666666666666666</ele><time>2026-04-25T07:36:36.821Z</time></trkpt><trkpt lat="45.5029248" lon="12.6195264"><ele>-0.3333333333333333</ele><time>2026-04-25T07:36:37.829Z</time></trkpt><trkpt lat="45.5029934" lon="12.6197485"><ele>0.0</ele><time>2026-04-25T07:36:38.818Z</time></trkpt><trkpt lat="45.5030659" lon="12.6199704"><ele>0.0</ele><time>2026-04-25T07:36:39.819Z</time></trkpt><trkpt lat="45.5031335" lon="12.62019"><ele>0.0</ele><time>2026-04-25T07:36:40.815Z</time></trkpt><trkpt lat="45.5032021" lon="12.6204099"><ele>0.0</ele><time>2026-04-25T07:36:41.819Z</time></trkpt><trkpt lat="45.503271" lon="12.6206376"><ele>0.0</ele><time>2026-04-25T07:36:42.819Z</time></trkpt><trkpt lat="45.5033437" lon="12.6208691"><ele>0.0</ele><time>2026-04-25T07:36:43.825Z</time></trkpt><trkpt lat="45.5034206" lon="12.6210991"><ele>0.0</ele><time>2026-04-25T07:36:44.833Z</time></trkpt><trkpt lat="45.5034956" lon="12.6213306"><ele>0.3333333333333333</ele><time>2026-04-25T07:36:45.824Z</time></trkpt><trkpt lat="45.5035671" lon="12.6215644"><ele>0.6666666666666666</ele><time>2026-04-25T07:36:46.817Z</time></trkpt><trkpt lat="45.503642" lon="12.621804"><ele>1.0</ele><time>2026-04-25T07:36:47.817Z</time></trkpt><trkpt lat="45.5037162" lon="12.6220435"><ele>0.6666666666666666</ele><time>2026-04-25T07:36:48.827Z</time></trkpt><trkpt lat="45.5037925" lon="12.6222875"><ele>0.3333333333333333</ele><time>2026-04-25T07:36:49.819Z</time></trkpt><trkpt lat="45.5038674" lon="12.6225336"><ele>0.0</ele><time>2026-04-25T07:36:50.817Z</time></trkpt><trkpt lat="45.5039422" lon="12.6227833"><ele>0.3333333333333333</ele><time>2026-04-25T07:36:51.818Z</time></trkpt><trkpt lat="45.5040209" lon="12.6230278"><ele>0.6666666666666666</ele><time>2026-04-25T07:36:52.821Z</time></trkpt><trkpt lat="45.5040986" lon="12.6232696"><ele>1.0</ele><time>2026-04-25T07:36:53.821Z</time></trkpt><trkpt lat="45.5041741" lon="12.623513"><ele>1.0</ele><time>2026-04-25T07:36:54.818Z</time></trkpt><trkpt lat="45.5042532" lon="12.6237501"><ele>1.0</ele><time>2026-04-25T07:36:55.818Z</time></trkpt><trkpt lat="45.5043326" lon="12.6239927"><ele>1.0</ele><time>2026-04-25T07:36:56.815Z</time></trkpt><trkpt lat="45.5044125" lon="12.6242388"><ele>1.0</ele><time>2026-04-25T07:36:57.815Z</time></trkpt><trkpt lat="45.5044886" lon="12.6244911"><ele>1.0</ele><time>2026-04-25T07:36:58.82Z</time></trkpt><trkpt lat="45.5045676" lon="12.6247327"><ele>1.0</ele><time>2026-04-25T07:36:59.812Z</time></trkpt><trkpt lat="45.5046436" lon="12.6249754"><ele>1.0</ele><time>2026-04-25T07:37:00.825Z</time></trkpt><trkpt lat="45.504718" lon="12.6252101"><ele>1.0</ele><time>2026-04-25T07:37:01.816Z</time></trkpt><trkpt lat="45.5047848" lon="12.6254224"><ele>1.0</ele><time>2026-04-25T07:37:02.822Z</time></trkpt><trkpt lat="45.5048501" lon="12.6256221"><ele>1.0</ele><time>2026-04-25T07:37:03.807Z</time></trkpt><trkpt lat="45.5049165" lon="12.6258282"><ele>1.0</ele><time>2026-04-25T07:37:04.825Z</time></trkpt><trkpt lat="45.5049841" lon="12.6260429"><ele>1.0</ele><time>2026-04-25T07:37:05.822Z</time></trkpt><trkpt lat="45.5050527" lon="12.6262606"><ele>1.0</ele><time>2026-04-25T07:37:06.82Z</time></trkpt><trkpt lat="45.5051273" lon="12.6264885"><ele>1.0</ele><time>2026-04-25T07:37:07.819Z</time></trkpt><trkpt lat="45.5052041" lon="12.6267147"><ele>1.0</ele><time>2026-04-25T07:37:08.822Z</time></trkpt><trkpt lat="45.5052749" lon="12.6269351"><ele>0.6666666666666666</ele><time>2026-04-25T07:37:09.831Z</time></trkpt><trkpt lat="45.5053421" lon="12.6271584"><ele>0.3333333333333333</ele><time>2026-04-25T07:37:10.822Z</time></trkpt><trkpt lat="45.5054106" lon="12.6273782"><ele>0.0</ele><time>2026-04-25T07:37:11.827Z</time></trkpt><trkpt lat="45.5054857" lon="12.6276109"><ele>-0.3333333333333333</ele><time>2026-04-25T07:37:12.822Z</time></trkpt><trkpt lat="45.505564" lon="12.6278485"><ele>-0.6666666666666666</ele><time>2026-04-25T07:37:13.814Z</time></trkpt><trkpt lat="45.5056429" lon="12.6281021"><ele>-1.0</ele><time>2026-04-25T07:37:14.821Z</time></trkpt><trkpt lat="45.5057204" lon="12.6283632"><ele>-1.0</ele><time>2026-04-25T07:37:15.817Z</time></trkpt><trkpt lat="45.5058012" lon="12.6286302"><ele>-1.0</ele><time>2026-04-25T07:37:16.819Z</time></trkpt><trkpt lat="45.5058831" lon="12.6288923"><ele>-1.0</ele><time>2026-04-25T07:37:17.828Z</time></trkpt><trkpt lat="45.5059613" lon="12.6291421"><ele>-0.6666666666666666</ele><time>2026-04-25T07:37:18.826Z</time></trkpt><trkpt lat="45.5060305" lon="12.6293822"><ele>-0.3333333333333333</ele><time>2026-04-25T07:37:19.829Z</time></trkpt><trkpt lat="45.5061015" lon="12.6296023"><ele>0.0</ele><time>2026-04-25T07:37:20.822Z</time></trkpt><trkpt lat="45.5061683" lon="12.6298105"><ele>-0.3333333333333333</ele><time>2026-04-25T07:37:21.817Z</time></trkpt><trkpt lat="45.5062316" lon="12.6300079"><ele>-0.6666666666666666</ele><time>2026-04-25T07:37:22.825Z</time></trkpt><trkpt lat="45.5062966" lon="12.6302196"><ele>-1.0</ele><time>2026-04-25T07:37:23.833Z</time></trkpt><trkpt lat="45.5063652" lon="12.6304331"><ele>-1.0</ele><time>2026-04-25T07:37:24.821Z</time></trkpt><trkpt lat="45.5064318" lon="12.6306467"><ele>-1.0</ele><time>2026-04-25T07:37:25.82Z</time></trkpt><trkpt lat="45.5065009" lon="12.6308595"><ele>-1.0</ele><time>2026-04-25T07:37:26.825Z</time></trkpt><trkpt lat="45.5065733" lon="12.6310667"><ele>-1.0</ele><time>2026-04-25T07:37:27.819Z</time></trkpt><trkpt lat="45.5066423" lon="12.6312656"><ele>-1.0</ele><time>2026-04-25T07:37:28.815Z</time></trkpt><trkpt lat="45.5067054" lon="12.6314683"><ele>-1.0</ele><time>2026-04-25T07:37:29.813Z</time></trkpt><trkpt lat="45.5067692" lon="12.631675"><ele>-1.0</ele><time>2026-04-25T07:37:30.823Z</time></trkpt><trkpt lat="45.5068336" lon="12.6318911"><ele>-1.0</ele><time>2026-04-25T07:37:31.819Z</time></trkpt><trkpt lat="45.5069108" lon="12.6321151"><ele>-1.0</ele><time>2026-04-25T07:37:32.822Z</time></trkpt><trkpt lat="45.5069915" lon="12.6323503"><ele>-1.3333333333333333</ele><time>2026-04-25T07:37:33.825Z</time></trkpt><trkpt lat="45.507076" lon="12.6325842"><ele>-1.6666666666666665</ele><time>2026-04-25T07:37:34.818Z</time></trkpt><trkpt lat="45.5071606" lon="12.6328197"><ele>-2.0</ele><time>2026-04-25T07:37:35.821Z</time></trkpt><trkpt lat="45.5072539" lon="12.6330398"><ele>-1.3333333333333333</ele><time>2026-04-25T07:37:36.815Z</time></trkpt><trkpt lat="45.5073532" lon="12.6332548"><ele>-0.6666666666666666</ele><time>2026-04-25T07:37:37.821Z</time></trkpt><trkpt lat="45.5074629" lon="12.6334627"><ele>0.0</ele><time>2026-04-25T07:37:38.818Z</time></trkpt><trkpt lat="45.5075854" lon="12.6336759"><ele>0.6666666666666666</ele><time>2026-04-25T07:37:39.81Z</time></trkpt><trkpt lat="45.507711" lon="12.633877"><ele>1.3333333333333333</ele><time>2026-04-25T07:37:40.826Z</time></trkpt><trkpt lat="45.5078477" lon="12.6340716"><ele>2.0</ele><time>2026-04-25T07:37:41.821Z</time></trkpt><trkpt lat="45.5079921" lon="12.6342481"><ele>0.6666666666666666</ele><time>2026-04-25T07:37:42.821Z</time></trkpt><trkpt lat="45.5081517" lon="12.6344151"><ele>-0.6666666666666666</ele><time>2026-04-25T07:37:43.834Z</time></trkpt><trkpt lat="45.5083242" lon="12.634575"><ele>-2.0</ele><time>2026-04-25T07:37:44.826Z</time></trkpt><trkpt lat="45.5085066" lon="12.6347189"><ele>-2.0</ele><time>2026-04-25T07:37:45.831Z</time></trkpt><trkpt lat="45.5087003" lon="12.6348404"><ele>-2.0</ele><time>2026-04-25T07:37:46.836Z</time></trkpt><trkpt lat="45.5089038" lon="12.6349373"><ele>-2.0</ele><time>2026-04-25T07:37:47.826Z</time></trkpt><trkpt lat="45.5091094" lon="12.6350107"><ele>-1.0</ele><time>2026-04-25T07:37:48.819Z</time></trkpt><trkpt lat="45.5094964" lon="12.635125"><ele>0.0</ele><time>2026-04-25T07:37:50.807Z</time></trkpt><trkpt lat="45.5097036" lon="12.6350934"><ele>0.0</ele><time>2026-04-25T07:37:51.806Z</time></trkpt><trkpt lat="45.5099011" lon="12.6350583"><ele>0.0</ele><time>2026-04-25T07:37:52.806Z</time></trkpt><trkpt lat="45.5100973" lon="12.6350099"><ele>0.0</ele><time>2026-04-25T07:37:53.815Z</time></trkpt><trkpt lat="45.5102899" lon="12.6349387"><ele>-0.6666666666666666</ele><time>2026-04-25T07:37:54.815Z</time></trkpt><trkpt lat="45.5104796" lon="12.6348523"><ele>-1.3333333333333333</ele><time>2026-04-25T07:37:55.803Z</time></trkpt><trkpt lat="45.5106734" lon="12.6347343"><ele>-2.0</ele><time>2026-04-25T07:37:56.802Z</time></trkpt><trkpt lat="45.5108658" lon="12.6346026"><ele>-2.0</ele><time>2026-04-25T07:37:57.801Z</time></trkpt><trkpt lat="45.511054" lon="12.6344846"><ele>-2.0</ele><time>2026-04-25T07:37:58.808Z</time></trkpt><trkpt lat="45.511236" lon="12.6343654"><ele>-2.0</ele><time>2026-04-25T07:37:59.812Z</time></trkpt><trkpt lat="45.5113916" lon="12.6342585"><ele>-1.6666666666666665</ele><time>2026-04-25T07:38:00.805Z</time></trkpt><trkpt lat="45.5115629" lon="12.6341739"><ele>-1.3333333333333333</ele><time>2026-04-25T07:38:01.814Z</time></trkpt><trkpt lat="45.5117279" lon="12.6340938"><ele>-1.0</ele><time>2026-04-25T07:38:02.809Z</time></trkpt><trkpt lat="45.5118988" lon="12.6340193"><ele>-1.0</ele><time>2026-04-25T07:38:03.816Z</time></trkpt><trkpt lat="45.5120719" lon="12.6339505"><ele>-1.0</ele><time>2026-04-25T07:38:04.81Z</time></trkpt><trkpt lat="45.5122538" lon="12.6338929"><ele>-1.0</ele><time>2026-04-25T07:38:05.82Z</time></trkpt><trkpt lat="45.512444" lon="12.6338427"><ele>-1.3333333333333333</ele><time>2026-04-25T07:38:06.816Z</time></trkpt><trkpt lat="45.5126429" lon="12.6338169"><ele>-1.6666666666666665</ele><time>2026-04-25T07:38:07.815Z</time></trkpt><trkpt lat="45.5128436" lon="12.6338027"><ele>-2.0</ele><time>2026-04-25T07:38:08.815Z</time></trkpt><trkpt lat="45.5130465" lon="12.6337982"><ele>-2.333333333333333</ele><time>2026-04-25T07:38:09.813Z</time></trkpt><trkpt lat="45.5132519" lon="12.6338101"><ele>-2.6666666666666665</ele><time>2026-04-25T07:38:10.811Z</time></trkpt><trkpt lat="45.51346" lon="12.6338448"><ele>-3.0</ele><time>2026-04-25T07:38:11.818Z</time></trkpt><trkpt lat="45.5136645" lon="12.6338992"><ele>-3.0</ele><time>2026-04-25T07:38:12.814Z</time></trkpt><trkpt lat="45.5138749" lon="12.6339565"><ele>-3.0</ele><time>2026-04-25T07:38:13.826Z</time></trkpt><trkpt lat="45.5140865" lon="12.6340229"><ele>-3.0</ele><time>2026-04-25T07:38:14.812Z</time></trkpt><trkpt lat="45.5142985" lon="12.6340889"><ele>-3.0</ele><time>2026-04-25T07:38:15.825Z</time></trkpt><trkpt lat="45.5145012" lon="12.6341545"><ele>-3.0</ele><time>2026-04-25T07:38:16.815Z</time></trkpt><trkpt lat="45.5147069" lon="12.6342171"><ele>-3.0</ele><time>2026-04-25T07:38:17.811Z</time></trkpt><trkpt lat="45.5149092" lon="12.634278"><ele>-3.0</ele><time>2026-04-25T07:38:18.812Z</time></trkpt><trkpt lat="45.5151115" lon="12.6343405"><ele>-3.0</ele><time>2026-04-25T07:38:19.818Z</time></trkpt><trkpt lat="45.5153155" lon="12.6343974"><ele>-3.0</ele><time>2026-04-25T07:38:20.814Z</time></trkpt><trkpt lat="45.5155111" lon="12.6344601"><ele>-2.6666666666666665</ele><time>2026-04-25T07:38:21.817Z</time></trkpt><trkpt lat="45.5157123" lon="12.6345218"><ele>-2.333333333333333</ele><time>2026-04-25T07:38:22.824Z</time></trkpt><trkpt lat="45.5159158" lon="12.6345799"><ele>-2.0</ele><time>2026-04-25T07:38:23.814Z</time></trkpt><trkpt lat="45.5161253" lon="12.6346398"><ele>-1.3333333333333333</ele><time>2026-04-25T07:38:24.818Z</time></trkpt><trkpt lat="45.516331" lon="12.6347061"><ele>-0.6666666666666666</ele><time>2026-04-25T07:38:25.817Z</time></trkpt><trkpt lat="45.5165397" lon="12.6347821"><ele>0.0</ele><time>2026-04-25T07:38:26.83Z</time></trkpt><trkpt lat="45.5167484" lon="12.6348518"><ele>0.0</ele><time>2026-04-25T07:38:27.816Z</time></trkpt><trkpt lat="45.5169608" lon="12.6349197"><ele>0.0</ele><time>2026-04-25T07:38:28.832Z</time></trkpt><trkpt lat="45.5171726" lon="12.6349813"><ele>0.0</ele><time>2026-04-25T07:38:29.818Z</time></trkpt><trkpt lat="45.5173835" lon="12.6350434"><ele>-0.6666666666666666</ele><time>2026-04-25T07:38:30.824Z</time></trkpt><trkpt lat="45.5175981" lon="12.6351053"><ele>-1.3333333333333333</ele><time>2026-04-25T07:38:31.824Z</time></trkpt><trkpt lat="45.5178066" lon="12.6351726"><ele>-2.0</ele><time>2026-04-25T07:38:32.816Z</time></trkpt><trkpt lat="45.5180136" lon="12.6352336"><ele>-2.0</ele><time>2026-04-25T07:38:33.825Z</time></trkpt><trkpt lat="45.5182205" lon="12.6352911"><ele>-2.0</ele><time>2026-04-25T07:38:34.817Z</time></trkpt><trkpt lat="45.5184249" lon="12.6353505"><ele>-2.0</ele><time>2026-04-25T07:38:35.813Z</time></trkpt><trkpt lat="45.5186244" lon="12.6354114"><ele>-1.0</ele><time>2026-04-25T07:38:36.816Z</time></trkpt><trkpt lat="45.5188213" lon="12.6354742"><ele>0.0</ele><time>2026-04-25T07:38:37.824Z</time></trkpt><trkpt lat="45.5190168" lon="12.6355311"><ele>1.0</ele><time>2026-04-25T07:38:38.826Z</time></trkpt><trkpt lat="45.519217" lon="12.6355813"><ele>1.0</ele><time>2026-04-25T07:38:39.81Z</time></trkpt><trkpt lat="45.519423" lon="12.6356291"><ele>1.0</ele><time>2026-04-25T07:38:40.824Z</time></trkpt><trkpt lat="45.5196286" lon="12.6356593"><ele>1.0</ele><time>2026-04-25T07:38:41.818Z</time></trkpt><trkpt lat="45.5198386" lon="12.6356858"><ele>0.6666666666666666</ele><time>2026-04-25T07:38:42.821Z</time></trkpt><trkpt lat="45.5200457" lon="12.6357099"><ele>0.3333333333333333</ele><time>2026-04-25T07:38:43.825Z</time></trkpt><trkpt lat="45.5202577" lon="12.6357329"><ele>0.0</ele><time>2026-04-25T07:38:44.832Z</time></trkpt><trkpt lat="45.5204692" lon="12.6357455"><ele>-0.3333333333333333</ele><time>2026-04-25T07:38:45.824Z</time></trkpt><trkpt lat="45.5206865" lon="12.6357473"><ele>-0.6666666666666666</ele><time>2026-04-25T07:38:46.822Z</time></trkpt><trkpt lat="45.5209018" lon="12.6357495"><ele>-1.0</ele><time>2026-04-25T07:38:47.83Z</time></trkpt><trkpt lat="45.5211141" lon="12.6357324"><ele>-0.6666666666666666</ele><time>2026-04-25T07:38:48.825Z</time></trkpt><trkpt lat="45.5213334" lon="12.6357064"><ele>-0.3333333333333333</ele><time>2026-04-25T07:38:49.823Z</time></trkpt><trkpt lat="45.521553" lon="12.6356801"><ele>0.0</ele><time>2026-04-25T07:38:50.834Z</time></trkpt><trkpt lat="45.5217677" lon="12.6356421"><ele>0.0</ele><time>2026-04-25T07:38:51.819Z</time></trkpt><trkpt lat="45.5219811" lon="12.6355915"><ele>0.0</ele><time>2026-04-25T07:38:52.822Z</time></trkpt><trkpt lat="45.522192" lon="12.6355319"><ele>0.0</ele><time>2026-04-25T07:38:53.827Z</time></trkpt><trkpt lat="45.5223933" lon="12.6354625"><ele>0.0</ele><time>2026-04-25T07:38:54.824Z</time></trkpt><trkpt lat="45.5225987" lon="12.6353922"><ele>0.0</ele><time>2026-04-25T07:38:55.818Z</time></trkpt><trkpt lat="45.5228049" lon="12.6353284"><ele>0.0</ele><time>2026-04-25T07:38:56.829Z</time></trkpt><trkpt lat="45.5230129" lon="12.6352667"><ele>0.0</ele><time>2026-04-25T07:38:57.82Z</time></trkpt><trkpt lat="45.5232175" lon="12.6351979"><ele>0.0</ele><time>2026-04-25T07:38:58.826Z</time></trkpt><trkpt lat="45.5234212" lon="12.6351365"><ele>0.0</ele><time>2026-04-25T07:38:59.824Z</time></trkpt><trkpt lat="45.52362" lon="12.6350757"><ele>0.6666666666666666</ele><time>2026-04-25T07:39:00.823Z</time></trkpt><trkpt lat="45.5238161" lon="12.6350132"><ele>1.3333333333333333</ele><time>2026-04-25T07:39:01.823Z</time></trkpt><trkpt lat="45.5240069" lon="12.6349546"><ele>2.0</ele><time>2026-04-25T07:39:02.817Z</time></trkpt><trkpt lat="45.5241943" lon="12.634889"><ele>2.0</ele><time>2026-04-25T07:39:03.821Z</time></trkpt><trkpt lat="45.5243813" lon="12.6348209"><ele>2.0</ele><time>2026-04-25T07:39:04.821Z</time></trkpt><trkpt lat="45.5245718" lon="12.6347506"><ele>2.0</ele><time>2026-04-25T07:39:05.824Z</time></trkpt><trkpt lat="45.5247689" lon="12.6346816"><ele>1.3333333333333333</ele><time>2026-04-25T07:39:06.822Z</time></trkpt><trkpt lat="45.5249728" lon="12.6346182"><ele>0.6666666666666666</ele><time>2026-04-25T07:39:07.826Z</time></trkpt><trkpt lat="45.5251868" lon="12.6345555"><ele>0.0</ele><time>2026-04-25T07:39:08.821Z</time></trkpt><trkpt lat="45.5254034" lon="12.6344859"><ele>-1.0</ele><time>2026-04-25T07:39:09.818Z</time></trkpt><trkpt lat="45.525624" lon="12.6344106"><ele>-2.0</ele><time>2026-04-25T07:39:10.82Z</time></trkpt><trkpt lat="45.5258475" lon="12.6343351"><ele>-2.0</ele><time>2026-04-25T07:39:11.824Z</time></trkpt><trkpt lat="45.5260699" lon="12.6342619"><ele>-2.0</ele><time>2026-04-25T07:39:12.828Z</time></trkpt><trkpt lat="45.5262921" lon="12.6341908"><ele>-2.5</ele><time>2026-04-25T07:39:13.82Z</time></trkpt><trkpt lat="45.5265121" lon="12.6341163"><ele>-3.0</ele><time>2026-04-25T07:39:14.817Z</time></trkpt><trkpt lat="45.5267307" lon="12.6340419"><ele>-3.0</ele><time>2026-04-25T07:39:15.817Z</time></trkpt><trkpt lat="45.5269453" lon="12.633978"><ele>-3.0</ele><time>2026-04-25T07:39:16.829Z</time></trkpt><trkpt lat="45.5271552" lon="12.6339114"><ele>-3.0</ele><time>2026-04-25T07:39:17.825Z</time></trkpt><trkpt lat="45.5273592" lon="12.6338456"><ele>-3.333333333333333</ele><time>2026-04-25T07:39:18.825Z</time></trkpt><trkpt lat="45.5275665" lon="12.6337761"><ele>-3.6666666666666665</ele><time>2026-04-25T07:39:19.823Z</time></trkpt><trkpt lat="45.5277729" lon="12.633706"><ele>-4.0</ele><time>2026-04-25T07:39:20.814Z</time></trkpt><trkpt lat="45.5279803" lon="12.633637"><ele>-3.0</ele><time>2026-04-25T07:39:21.818Z</time></trkpt><trkpt lat="45.5281869" lon="12.6335742"><ele>-2.0</ele><time>2026-04-25T07:39:22.818Z</time></trkpt><trkpt lat="45.5283917" lon="12.633506"><ele>-1.0</ele><time>2026-04-25T07:39:23.812Z</time></trkpt><trkpt lat="45.528598" lon="12.6334361"><ele>-1.3333333333333333</ele><time>2026-04-25T07:39:24.817Z</time></trkpt><trkpt lat="45.5288005" lon="12.633366"><ele>-1.6666666666666665</ele><time>2026-04-25T07:39:25.815Z</time></trkpt><trkpt lat="45.5290049" lon="12.6332922"><ele>-2.0</ele><time>2026-04-25T07:39:26.821Z</time></trkpt><trkpt lat="45.5292113" lon="12.6332225"><ele>-2.0</ele><time>2026-04-25T07:39:27.827Z</time></trkpt><trkpt lat="45.5294236" lon="12.6331586"><ele>-2.0</ele><time>2026-04-25T07:39:28.822Z</time></trkpt><trkpt lat="45.5296349" lon="12.633097"><ele>-2.0</ele><time>2026-04-25T07:39:29.825Z</time></trkpt><trkpt lat="45.5298513" lon="12.6330504"><ele>-2.0</ele><time>2026-04-25T07:39:30.818Z</time></trkpt><trkpt lat="45.5300669" lon="12.6330103"><ele>-2.0</ele><time>2026-04-25T07:39:31.825Z</time></trkpt><trkpt lat="45.5302863" lon="12.6329813"><ele>-2.0</ele><time>2026-04-25T07:39:32.824Z</time></trkpt><trkpt lat="45.5305116" lon="12.6329806"><ele>-2.0</ele><time>2026-04-25T07:39:33.829Z</time></trkpt><trkpt lat="45.5307363" lon="12.6329857"><ele>-2.0</ele><time>2026-04-25T07:39:34.812Z</time></trkpt><trkpt lat="45.5309653" lon="12.6330108"><ele>-2.0</ele><time>2026-04-25T07:39:35.83Z</time></trkpt><trkpt lat="45.5311856" lon="12.6330546"><ele>-2.0</ele><time>2026-04-25T07:39:36.825Z</time></trkpt><trkpt lat="45.5314036" lon="12.6330923"><ele>-2.0</ele><time>2026-04-25T07:39:37.834Z</time></trkpt><trkpt lat="45.531616" lon="12.6331417"><ele>-1.6666666666666665</ele><time>2026-04-25T07:39:38.822Z</time></trkpt><trkpt lat="45.5318322" lon="12.6331755"><ele>-1.3333333333333333</ele><time>2026-04-25T07:39:39.824Z</time></trkpt><trkpt lat="45.5320478" lon="12.633198"><ele>-1.0</ele><time>2026-04-25T07:39:40.823Z</time></trkpt><trkpt lat="45.5322597" lon="12.6332134"><ele>-0.6666666666666666</ele><time>2026-04-25T07:39:41.816Z</time></trkpt><trkpt lat="45.5324662" lon="12.6332087"><ele>-0.3333333333333333</ele><time>2026-04-25T07:39:42.814Z</time></trkpt><trkpt lat="45.5326663" lon="12.6331919"><ele>0.0</ele><time>2026-04-25T07:39:43.829Z</time></trkpt><trkpt lat="45.5328728" lon="12.6331532"><ele>0.3333333333333333</ele><time>2026-04-25T07:39:44.822Z</time></trkpt><trkpt lat="45.5330804" lon="12.6330994"><ele>0.6666666666666666</ele><time>2026-04-25T07:39:45.823Z</time></trkpt><trkpt lat="45.5332841" lon="12.6330305"><ele>1.0</ele><time>2026-04-25T07:39:46.819Z</time></trkpt><trkpt lat="45.5334824" lon="12.6329588"><ele>1.0</ele><time>2026-04-25T07:39:47.818Z</time></trkpt><trkpt lat="45.5336774" lon="12.6328681"><ele>1.0</ele><time>2026-04-25T07:39:48.818Z</time></trkpt><trkpt lat="45.5338682" lon="12.6327686"><ele>1.0</ele><time>2026-04-25T07:39:49.831Z</time></trkpt><trkpt lat="45.5340498" lon="12.6326493"><ele>0.6666666666666666</ele><time>2026-04-25T07:39:50.825Z</time></trkpt><trkpt lat="45.5342322" lon="12.6325163"><ele>0.3333333333333333</ele><time>2026-04-25T07:39:51.824Z</time></trkpt><trkpt lat="45.534407" lon="12.6323732"><ele>0.0</ele><time>2026-04-25T07:39:52.825Z</time></trkpt><trkpt lat="45.5345819" lon="12.6322178"><ele>0.0</ele><time>2026-04-25T07:39:53.822Z</time></trkpt><trkpt lat="45.5347607" lon="12.6320605"><ele>0.0</ele><time>2026-04-25T07:39:54.826Z</time></trkpt><trkpt lat="45.5349398" lon="12.6318964"><ele>0.0</ele><time>2026-04-25T07:39:55.826Z</time></trkpt><trkpt lat="45.5351193" lon="12.6317455"><ele>0.0</ele><time>2026-04-25T07:39:56.82Z</time></trkpt><trkpt lat="45.5352933" lon="12.6316016"><ele>0.0</ele><time>2026-04-25T07:39:57.82Z</time></trkpt><trkpt lat="45.5354542" lon="12.6314573"><ele>0.0</ele><time>2026-04-25T07:39:58.818Z</time></trkpt><trkpt lat="45.5356089" lon="12.6313125"><ele>0.0</ele><time>2026-04-25T07:39:59.823Z</time></trkpt><trkpt lat="45.5357625" lon="12.6311679"><ele>0.0</ele><time>2026-04-25T07:40:00.821Z</time></trkpt><trkpt lat="45.5359168" lon="12.6310238"><ele>0.0</ele><time>2026-04-25T07:40:01.821Z</time></trkpt><trkpt lat="45.5360691" lon="12.6308862"><ele>-0.3333333333333333</ele><time>2026-04-25T07:40:02.821Z</time></trkpt><trkpt lat="45.5362144" lon="12.6307575"><ele>-0.6666666666666666</ele><time>2026-04-25T07:40:03.82Z</time></trkpt><trkpt lat="45.5363601" lon="12.6306344"><ele>-1.0</ele><time>2026-04-25T07:40:04.83Z</time></trkpt><trkpt lat="45.5365042" lon="12.6305167"><ele>-0.3333333333333333</ele><time>2026-04-25T07:40:05.822Z</time></trkpt><trkpt lat="45.5366426" lon="12.6303996"><ele>0.3333333333333333</ele><time>2026-04-25T07:40:06.823Z</time></trkpt><trkpt lat="45.5367714" lon="12.6302858"><ele>1.0</ele><time>2026-04-25T07:40:07.831Z</time></trkpt><trkpt lat="45.5368995" lon="12.6301714"><ele>1.0</ele><time>2026-04-25T07:40:08.832Z</time></trkpt><trkpt lat="45.5370243" lon="12.6300514"><ele>1.0</ele><time>2026-04-25T07:40:09.824Z</time></trkpt><trkpt lat="45.537155" lon="12.6299271"><ele>1.0</ele><time>2026-04-25T07:40:10.82Z</time></trkpt><trkpt lat="45.5372911" lon="12.6298071"><ele>1.0</ele><time>2026-04-25T07:40:11.819Z</time></trkpt><trkpt lat="45.5374318" lon="12.6296888"><ele>1.0</ele><time>2026-04-25T07:40:12.817Z</time></trkpt><trkpt lat="45.5375719" lon="12.6295556"><ele>1.0</ele><time>2026-04-25T07:40:13.824Z</time></trkpt><trkpt lat="45.5377191" lon="12.6294178"><ele>1.0</ele><time>2026-04-25T07:40:14.828Z</time></trkpt><trkpt lat="45.5378628" lon="12.6292802"><ele>1.0</ele><time>2026-04-25T07:40:15.834Z</time></trkpt><trkpt lat="45.538003" lon="12.6291528"><ele>1.0</ele><time>2026-04-25T07:40:16.822Z</time></trkpt><trkpt lat="45.5381295" lon="12.6290428"><ele>1.0</ele><time>2026-04-25T07:40:17.824Z</time></trkpt><trkpt lat="45.5382543" lon="12.6289413"><ele>1.0</ele><time>2026-04-25T07:40:18.829Z</time></trkpt><trkpt lat="45.5383761" lon="12.6288469"><ele>1.0</ele><time>2026-04-25T07:40:19.825Z</time></trkpt><trkpt lat="45.5384966" lon="12.6287578"><ele>1.0</ele><time>2026-04-25T07:40:20.83Z</time></trkpt><trkpt lat="45.538611" lon="12.6286728"><ele>1.0</ele><time>2026-04-25T07:40:21.818Z</time></trkpt><trkpt lat="45.5387242" lon="12.6285934"><ele>1.0</ele><time>2026-04-25T07:40:22.827Z</time></trkpt><trkpt lat="45.5388375" lon="12.6285208"><ele>1.0</ele><time>2026-04-25T07:40:23.829Z</time></trkpt><trkpt lat="45.5389482" lon="12.6284543"><ele>1.0</ele><time>2026-04-25T07:40:24.826Z</time></trkpt><trkpt lat="45.5390541" lon="12.628391"><ele>1.0</ele><time>2026-04-25T07:40:25.837Z</time></trkpt><trkpt lat="45.5391574" lon="12.6283323"><ele>1.0</ele><time>2026-04-25T07:40:26.827Z</time></trkpt><trkpt lat="45.5392555" lon="12.628278"><ele>1.0</ele><time>2026-04-25T07:40:27.823Z</time></trkpt><trkpt lat="45.5393543" lon="12.6282259"><ele>1.0</ele><time>2026-04-25T07:40:28.833Z</time></trkpt><trkpt lat="45.5394499" lon="12.6281811"><ele>1.0</ele><time>2026-04-25T07:40:29.832Z</time></trkpt><trkpt lat="45.5395436" lon="12.628137"><ele>0.4</ele><time>2026-04-25T07:40:30.822Z</time></trkpt><trkpt lat="45.5396343" lon="12.6280911"><ele>-0.19999999999999996</ele><time>2026-04-25T07:40:31.83Z</time></trkpt><trkpt lat="45.5397228" lon="12.6280465"><ele>-0.8000000000000002</ele><time>2026-04-25T07:40:32.834Z</time></trkpt><trkpt lat="45.5398124" lon="12.628013"><ele>-1.4000000000000001</ele><time>2026-04-25T07:40:33.83Z</time></trkpt><trkpt lat="45.539896" lon="12.6279981"><ele>-2.0</ele><time>2026-04-25T07:40:34.822Z</time></trkpt><trkpt lat="45.539984" lon="12.6279981"><ele>-2.0</ele><time>2026-04-25T07:40:35.821Z</time></trkpt><trkpt lat="45.5400738" lon="12.6280135"><ele>-2.0</ele><time>2026-04-25T07:40:36.835Z</time></trkpt><trkpt lat="45.5401525" lon="12.6280663"><ele>-2.0</ele><time>2026-04-25T07:40:37.822Z</time></trkpt><trkpt lat="45.5402346" lon="12.6281482"><ele>-2.0</ele><time>2026-04-25T07:40:38.815Z</time></trkpt><trkpt lat="45.5403157" lon="12.628237"><ele>-2.0</ele><time>2026-04-25T07:40:39.82Z</time></trkpt><trkpt lat="45.5404048" lon="12.6283312"><ele>-1.75</ele><time>2026-04-25T07:40:40.83Z</time></trkpt><trkpt lat="45.5404972" lon="12.6284165"><ele>-1.5</ele><time>2026-04-25T07:40:41.825Z</time></trkpt><trkpt lat="45.540611" lon="12.6284925"><ele>-1.25</ele><time>2026-04-25T07:40:42.829Z</time></trkpt><trkpt lat="45.5407386" lon="12.6285493"><ele>-1.0</ele><time>2026-04-25T07:40:43.82Z</time></trkpt><trkpt lat="45.5408685" lon="12.6285714"><ele>-1.0</ele><time>2026-04-25T07:40:44.818Z</time></trkpt><trkpt lat="45.5409977" lon="12.6285554"><ele>-1.0</ele><time>2026-04-25T07:40:45.822Z</time></trkpt><trkpt lat="45.5411237" lon="12.6285405"><ele>-1.0</ele><time>2026-04-25T07:40:46.828Z</time></trkpt><trkpt lat="45.5412518" lon="12.6285324"><ele>-1.0</ele><time>2026-04-25T07:40:47.822Z</time></trkpt><trkpt lat="45.5413754" lon="12.6285554"><ele>-1.25</ele><time>2026-04-25T07:40:48.825Z</time></trkpt><trkpt lat="45.5414954" lon="12.6286332"><ele>-1.5</ele><time>2026-04-25T07:40:49.828Z</time></trkpt><trkpt lat="45.5416053" lon="12.6287512"><ele>-1.75</ele><time>2026-04-25T07:40:50.823Z</time></trkpt><trkpt lat="45.5416996" lon="12.6289022"><ele>-2.0</ele><time>2026-04-25T07:40:51.82Z</time></trkpt><trkpt lat="45.5417812" lon="12.6290731"><ele>-2.0</ele><time>2026-04-25T07:40:52.815Z</time></trkpt><trkpt lat="45.5418598" lon="12.629244"><ele>-2.0</ele><time>2026-04-25T07:40:53.824Z</time></trkpt><trkpt lat="45.5419446" lon="12.6294127"><ele>-2.0</ele><time>2026-04-25T07:40:54.82Z</time></trkpt><trkpt lat="45.5420274" lon="12.6295619"><ele>-2.0</ele><time>2026-04-25T07:40:55.829Z</time></trkpt><trkpt lat="45.5421018" lon="12.6297047"><ele>-2.0</ele><time>2026-04-25T07:40:56.825Z</time></trkpt><trkpt lat="45.5421653" lon="12.6298182"><ele>-2.0</ele><time>2026-04-25T07:40:57.824Z</time></trkpt><trkpt lat="45.5422136" lon="12.629927"><ele>-2.0</ele><time>2026-04-25T07:40:58.82Z</time></trkpt><trkpt lat="45.5422595" lon="12.6300364"><ele>-2.0</ele><time>2026-04-25T07:40:59.826Z</time></trkpt><trkpt lat="45.542289" lon="12.6301647"><ele>-2.0</ele><time>2026-04-25T07:41:00.829Z</time></trkpt><trkpt lat="45.5423" lon="12.6303087"><ele>-2.1666666666666665</ele><time>2026-04-25T07:41:01.823Z</time></trkpt><trkpt lat="45.542309" lon="12.6304515"><ele>-2.333333333333333</ele><time>2026-04-25T07:41:02.82Z</time></trkpt><trkpt lat="45.5423305" lon="12.6305848"><ele>-2.5</ele><time>2026-04-25T07:41:03.825Z</time></trkpt><trkpt lat="45.5423761" lon="12.6306924"><ele>-2.6666666666666665</ele><time>2026-04-25T07:41:04.824Z</time></trkpt><trkpt lat="45.5424432" lon="12.630757"><ele>-2.8333333333333335</ele><time>2026-04-25T07:41:05.819Z</time></trkpt><trkpt lat="45.5425187" lon="12.6307857"><ele>-3.0</ele><time>2026-04-25T07:41:06.823Z</time></trkpt><trkpt lat="45.542605" lon="12.6307738"><ele>-3.0</ele><time>2026-04-25T07:41:07.823Z</time></trkpt><trkpt lat="45.5426789" lon="12.6307142"><ele>-3.0</ele><time>2026-04-25T07:41:08.821Z</time></trkpt><trkpt lat="45.5427495" lon="12.6306341"><ele>-3.0</ele><time>2026-04-25T07:41:09.828Z</time></trkpt><trkpt lat="45.5428343" lon="12.6305482"><ele>-3.0</ele><time>2026-04-25T07:41:10.818Z</time></trkpt><trkpt lat="45.542939" lon="12.6304676"><ele>-3.0</ele><time>2026-04-25T07:41:11.824Z</time></trkpt><trkpt lat="45.5430708" lon="12.630412"><ele>-2.75</ele><time>2026-04-25T07:41:12.816Z</time></trkpt><trkpt lat="45.5432023" lon="12.6303706"><ele>-2.5</ele><time>2026-04-25T07:41:13.816Z</time></trkpt><trkpt lat="45.5433469" lon="12.6303528"><ele>-2.25</ele><time>2026-04-25T07:41:14.833Z</time></trkpt><trkpt lat="45.5434958" lon="12.630313"><ele>-2.0</ele><time>2026-04-25T07:41:15.826Z</time></trkpt><trkpt lat="45.543655" lon="12.6302659"><ele>-2.0</ele><time>2026-04-25T07:41:16.822Z</time></trkpt><trkpt lat="45.5438164" lon="12.6302186"><ele>-2.0</ele><time>2026-04-25T07:41:17.821Z</time></trkpt><trkpt lat="45.5439888" lon="12.6301683"><ele>-2.0</ele><time>2026-04-25T07:41:18.817Z</time></trkpt><trkpt lat="45.5441623" lon="12.6301233"><ele>-2.0</ele><time>2026-04-25T07:41:19.819Z</time></trkpt><trkpt lat="45.5443415" lon="12.6300839"><ele>-2.0</ele><time>2026-04-25T07:41:20.827Z</time></trkpt><trkpt lat="45.544522" lon="12.6300383"><ele>-2.0</ele><time>2026-04-25T07:41:21.82Z</time></trkpt><trkpt lat="45.5447046" lon="12.6299937"><ele>-2.0</ele><time>2026-04-25T07:41:22.821Z</time></trkpt><trkpt lat="45.5448868" lon="12.6299323"><ele>-2.0</ele><time>2026-04-25T07:41:23.812Z</time></trkpt><trkpt lat="45.5450766" lon="12.6298834"><ele>-2.0</ele><time>2026-04-25T07:41:24.823Z</time></trkpt><trkpt lat="45.545274" lon="12.6298145"><ele>-2.0</ele><time>2026-04-25T07:41:25.826Z</time></trkpt><trkpt lat="45.5454589" lon="12.6297597"><ele>-2.0</ele><time>2026-04-25T07:41:26.829Z</time></trkpt><trkpt lat="45.5456372" lon="12.6297074"><ele>-2.0</ele><time>2026-04-25T07:41:27.824Z</time></trkpt><trkpt lat="45.5458102" lon="12.6296575"><ele>-2.0</ele><time>2026-04-25T07:41:28.822Z</time></trkpt><trkpt lat="45.5459759" lon="12.6296214"><ele>-2.0</ele><time>2026-04-25T07:41:29.811Z</time></trkpt><trkpt lat="45.5461534" lon="12.6296045"><ele>-2.0</ele><time>2026-04-25T07:41:30.834Z</time></trkpt><trkpt lat="45.5463292" lon="12.629601"><ele>-2.0</ele><time>2026-04-25T07:41:31.816Z</time></trkpt><trkpt lat="45.546516" lon="12.6296093"><ele>-2.0</ele><time>2026-04-25T07:41:32.821Z</time></trkpt><trkpt lat="45.5467014" lon="12.6296309"><ele>-2.0</ele><time>2026-04-25T07:41:33.834Z</time></trkpt><trkpt lat="45.5468859" lon="12.6296719"><ele>-1.6666666666666665</ele><time>2026-04-25T07:41:34.82Z</time></trkpt><trkpt lat="45.5470658" lon="12.6297428"><ele>-1.3333333333333333</ele><time>2026-04-25T07:41:35.819Z</time></trkpt><trkpt lat="45.5472407" lon="12.6298259"><ele>-1.0</ele><time>2026-04-25T07:41:36.82Z</time></trkpt><trkpt lat="45.5474164" lon="12.6299291"><ele>-1.0</ele><time>2026-04-25T07:41:37.826Z</time></trkpt><trkpt lat="45.5475791" lon="12.630052"><ele>-1.0</ele><time>2026-04-25T07:41:38.826Z</time></trkpt><trkpt lat="45.547741" lon="12.6301784"><ele>-1.0</ele><time>2026-04-25T07:41:39.824Z</time></trkpt><trkpt lat="45.5479041" lon="12.6303176"><ele>-1.0</ele><time>2026-04-25T07:41:40.828Z</time></trkpt><trkpt lat="45.548068" lon="12.6304652"><ele>-1.0</ele><time>2026-04-25T07:41:41.822Z</time></trkpt><trkpt lat="45.5482331" lon="12.630613"><ele>-1.0</ele><time>2026-04-25T07:41:42.817Z</time></trkpt><trkpt lat="45.5483934" lon="12.6307672"><ele>-1.0</ele><time>2026-04-25T07:41:43.81Z</time></trkpt><trkpt lat="45.548557" lon="12.6309148"><ele>-1.0</ele><time>2026-04-25T07:41:44.826Z</time></trkpt><trkpt lat="45.5487176" lon="12.6310625"><ele>-1.0</ele><time>2026-04-25T07:41:45.818Z</time></trkpt><trkpt lat="45.5488759" lon="12.6312102"><ele>-1.0</ele><time>2026-04-25T07:41:46.824Z</time></trkpt><trkpt lat="45.5490353" lon="12.6313552"><ele>-1.0</ele><time>2026-04-25T07:41:47.813Z</time></trkpt><trkpt lat="45.5491939" lon="12.6315012"><ele>-1.0</ele><time>2026-04-25T07:41:48.807Z</time></trkpt><trkpt lat="45.5493516" lon="12.6316469"><ele>-1.0</ele><time>2026-04-25T07:41:49.82Z</time></trkpt><trkpt lat="45.5495091" lon="12.6317889"><ele>-1.0</ele><time>2026-04-25T07:41:50.822Z</time></trkpt><trkpt lat="45.5496722" lon="12.6319359"><ele>-1.0</ele><time>2026-04-25T07:41:51.826Z</time></trkpt><trkpt lat="45.5498344" lon="12.6320831"><ele>-0.6666666666666666</ele><time>2026-04-25T07:41:52.823Z</time></trkpt><trkpt lat="45.5499947" lon="12.632226"><ele>-0.3333333333333333</ele><time>2026-04-25T07:41:53.824Z</time></trkpt><trkpt lat="45.5501566" lon="12.6323684"><ele>0.0</ele><time>2026-04-25T07:41:54.818Z</time></trkpt><trkpt lat="45.5503149" lon="12.6325121"><ele>0.0</ele><time>2026-04-25T07:41:55.819Z</time></trkpt><trkpt lat="45.5504784" lon="12.6326526"><ele>0.0</ele><time>2026-04-25T07:41:56.819Z</time></trkpt><trkpt lat="45.5506363" lon="12.6327954"><ele>0.0</ele><time>2026-04-25T07:41:57.824Z</time></trkpt><trkpt lat="45.5507955" lon="12.6329405"><ele>0.0</ele><time>2026-04-25T07:41:58.822Z</time></trkpt><trkpt lat="45.5509511" lon="12.6330802"><ele>0.0</ele><time>2026-04-25T07:41:59.826Z</time></trkpt><trkpt lat="45.5511076" lon="12.6332211"><ele>0.0</ele><time>2026-04-25T07:42:00.827Z</time></trkpt><trkpt lat="45.5512662" lon="12.6333589"><ele>0.0</ele><time>2026-04-25T07:42:01.815Z</time></trkpt><trkpt lat="45.5514263" lon="12.633509"><ele>0.0</ele><time>2026-04-25T07:42:02.815Z</time></trkpt><trkpt lat="45.5515899" lon="12.633647"><ele>0.0</ele><time>2026-04-25T07:42:03.824Z</time></trkpt><trkpt lat="45.551748" lon="12.6337982"><ele>-0.3333333333333333</ele><time>2026-04-25T07:42:04.813Z</time></trkpt><trkpt lat="45.5519118" lon="12.6339473"><ele>-0.6666666666666666</ele><time>2026-04-25T07:42:05.81Z</time></trkpt><trkpt lat="45.5520753" lon="12.6340959"><ele>-1.0</ele><time>2026-04-25T07:42:06.813Z</time></trkpt><trkpt lat="45.5522403" lon="12.6342428"><ele>-1.0</ele><time>2026-04-25T07:42:07.816Z</time></trkpt><trkpt lat="45.5524092" lon="12.634392"><ele>-1.0</ele><time>2026-04-25T07:42:08.818Z</time></trkpt><trkpt lat="45.5525786" lon="12.6345404"><ele>-1.0</ele><time>2026-04-25T07:42:09.827Z</time></trkpt><trkpt lat="45.5527464" lon="12.6346908"><ele>-1.3333333333333333</ele><time>2026-04-25T07:42:10.825Z</time></trkpt><trkpt lat="45.5529125" lon="12.6348399"><ele>-1.6666666666666665</ele><time>2026-04-25T07:42:11.817Z</time></trkpt><trkpt lat="45.5530784" lon="12.6349895"><ele>-2.0</ele><time>2026-04-25T07:42:12.831Z</time></trkpt><trkpt lat="45.5532451" lon="12.6351427"><ele>-2.0</ele><time>2026-04-25T07:42:13.826Z</time></trkpt><trkpt lat="45.5534118" lon="12.6352952"><ele>-2.0</ele><time>2026-04-25T07:42:14.824Z</time></trkpt><trkpt lat="45.5535807" lon="12.6354481"><ele>-2.0</ele><time>2026-04-25T07:42:15.822Z</time></trkpt><trkpt lat="45.5537485" lon="12.6356003"><ele>-2.0</ele><time>2026-04-25T07:42:16.824Z</time></trkpt><trkpt lat="45.5539223" lon="12.6357557"><ele>-2.0</ele><time>2026-04-25T07:42:17.824Z</time></trkpt><trkpt lat="45.5540949" lon="12.6359046"><ele>-2.0</ele><time>2026-04-25T07:42:18.825Z</time></trkpt><trkpt lat="45.5542696" lon="12.6360556"><ele>-2.0</ele><time>2026-04-25T07:42:19.824Z</time></trkpt><trkpt lat="45.5544424" lon="12.636211"><ele>-2.0</ele><time>2026-04-25T07:42:20.824Z</time></trkpt><trkpt lat="45.5546169" lon="12.6363667"><ele>-2.0</ele><time>2026-04-25T07:42:21.823Z</time></trkpt><trkpt lat="45.5547877" lon="12.6365294"><ele>-2.0</ele><time>2026-04-25T07:42:22.821Z</time></trkpt><trkpt lat="45.5549594" lon="12.6366904"><ele>-2.0</ele><time>2026-04-25T07:42:23.833Z</time></trkpt><trkpt lat="45.555134" lon="12.6368558"><ele>-2.0</ele><time>2026-04-25T07:42:24.822Z</time></trkpt><trkpt lat="45.5553076" lon="12.6370107"><ele>-1.6666666666666665</ele><time>2026-04-25T07:42:25.812Z</time></trkpt><trkpt lat="45.5554833" lon="12.6371661"><ele>-1.3333333333333333</ele><time>2026-04-25T07:42:26.818Z</time></trkpt><trkpt lat="45.5556595" lon="12.6373168"><ele>-1.0</ele><time>2026-04-25T07:42:27.825Z</time></trkpt><trkpt lat="45.5558354" lon="12.6374717"><ele>-1.0</ele><time>2026-04-25T07:42:28.832Z</time></trkpt><trkpt lat="45.5560081" lon="12.6376309"><ele>-1.0</ele><time>2026-04-25T07:42:29.828Z</time></trkpt><trkpt lat="45.5561823" lon="12.6377845"><ele>-1.0</ele><time>2026-04-25T07:42:30.817Z</time></trkpt><trkpt lat="45.5563543" lon="12.6379381"><ele>-1.6666666666666665</ele><time>2026-04-25T07:42:31.833Z</time></trkpt><trkpt lat="45.5565199" lon="12.6380951"><ele>-2.3333333333333335</ele><time>2026-04-25T07:42:32.815Z</time></trkpt><trkpt lat="45.5566924" lon="12.6382522"><ele>-3.0</ele><time>2026-04-25T07:42:33.824Z</time></trkpt><trkpt lat="45.5568662" lon="12.6384033"><ele>-3.0</ele><time>2026-04-25T07:42:34.824Z</time></trkpt><trkpt lat="45.5570384" lon="12.6385571"><ele>-3.0</ele><time>2026-04-25T07:42:35.817Z</time></trkpt><trkpt lat="45.5572071" lon="12.638715"><ele>-3.0</ele><time>2026-04-25T07:42:36.821Z</time></trkpt><trkpt lat="45.5573774" lon="12.6388709"><ele>-3.0</ele><time>2026-04-25T07:42:37.817Z</time></trkpt><trkpt lat="45.5575489" lon="12.6390248"><ele>-3.0</ele><time>2026-04-25T07:42:38.828Z</time></trkpt><trkpt lat="45.5577192" lon="12.6391804"><ele>-3.0</ele><time>2026-04-25T07:42:39.824Z</time></trkpt><trkpt lat="45.5578884" lon="12.6393328"><ele>-2.6666666666666665</ele><time>2026-04-25T07:42:40.817Z</time></trkpt><trkpt lat="45.5580553" lon="12.6394857"><ele>-2.333333333333333</ele><time>2026-04-25T07:42:41.819Z</time></trkpt><trkpt lat="45.5582215" lon="12.6396366"><ele>-2.0</ele><time>2026-04-25T07:42:42.816Z</time></trkpt><trkpt lat="45.5583881" lon="12.639787"><ele>-2.0</ele><time>2026-04-25T07:42:43.825Z</time></trkpt><trkpt lat="45.5585439" lon="12.6399299"><ele>-2.0</ele><time>2026-04-25T07:42:44.816Z</time></trkpt><trkpt lat="45.5586897" lon="12.6400593"><ele>-2.0</ele><time>2026-04-25T07:42:45.821Z</time></trkpt><trkpt lat="45.5588284" lon="12.6401859"><ele>-1.5</ele><time>2026-04-25T07:42:46.816Z</time></trkpt><trkpt lat="45.558953" lon="12.6403003"><ele>-1.0</ele><time>2026-04-25T07:42:47.821Z</time></trkpt><trkpt lat="45.5590698" lon="12.6404082"><ele>-0.5</ele><time>2026-04-25T07:42:48.824Z</time></trkpt><trkpt lat="45.559176" lon="12.6405122"><ele>0.0</ele><time>2026-04-25T07:42:49.826Z</time></trkpt><trkpt lat="45.5592752" lon="12.6405969"><ele>0.0</ele><time>2026-04-25T07:42:50.817Z</time></trkpt><trkpt lat="45.559365" lon="12.6406692"><ele>0.0</ele><time>2026-04-25T07:42:51.834Z</time></trkpt><trkpt lat="45.5594441" lon="12.6407372"><ele>0.0</ele><time>2026-04-25T07:42:52.822Z</time></trkpt><trkpt lat="45.5595101" lon="12.6407935"><ele>0.0</ele><time>2026-04-25T07:42:53.829Z</time></trkpt><trkpt lat="45.5596041" lon="12.640873"><ele>0.0</ele><time>2026-04-25T07:42:55.828Z</time></trkpt><trkpt lat="45.5596847" lon="12.6409276"><ele>0.0</ele><time>2026-04-25T07:42:57.826Z</time></trkpt><trkpt lat="45.5597454" lon="12.6409678"><ele>0.0</ele><time>2026-04-25T07:42:58.827Z</time></trkpt><trkpt lat="45.5598118" lon="12.6409938"><ele>0.0</ele><time>2026-04-25T07:42:59.823Z</time></trkpt><trkpt lat="45.5598804" lon="12.6409714"><ele>0.0</ele><time>2026-04-25T07:43:00.813Z</time></trkpt><trkpt lat="45.5599498" lon="12.6409161"><ele>0.0</ele><time>2026-04-25T07:43:01.813Z</time></trkpt><trkpt lat="45.5600258" lon="12.640851"><ele>0.0</ele><time>2026-04-25T07:43:02.827Z</time></trkpt><trkpt lat="45.5601138" lon="12.6408089"><ele>0.0</ele><time>2026-04-25T07:43:03.829Z</time></trkpt><trkpt lat="45.5602171" lon="12.6407675"><ele>0.0</ele><time>2026-04-25T07:43:04.823Z</time></trkpt><trkpt lat="45.5603164" lon="12.6406989"><ele>0.0</ele><time>2026-04-25T07:43:05.825Z</time></trkpt><trkpt lat="45.5604122" lon="12.6406056"><ele>0.0</ele><time>2026-04-25T07:43:06.814Z</time></trkpt><trkpt lat="45.5604907" lon="12.6404931"><ele>0.0</ele><time>2026-04-25T07:43:07.829Z</time></trkpt><trkpt lat="45.5605646" lon="12.6403683"><ele>0.0</ele><time>2026-04-25T07:43:08.824Z</time></trkpt><trkpt lat="45.5606388" lon="12.6402371"><ele>0.0</ele><time>2026-04-25T07:43:09.819Z</time></trkpt><trkpt lat="45.560718" lon="12.6400927"><ele>0.0</ele><time>2026-04-25T07:43:10.819Z</time></trkpt><trkpt lat="45.5608055" lon="12.6399447"><ele>0.0</ele><time>2026-04-25T07:43:11.819Z</time></trkpt><trkpt lat="45.5608948" lon="12.6397924"><ele>0.0</ele><time>2026-04-25T07:43:12.816Z</time></trkpt><trkpt lat="45.5609842" lon="12.6396326"><ele>0.0</ele><time>2026-04-25T07:43:13.824Z</time></trkpt><trkpt lat="45.5610794" lon="12.6394718"><ele>0.0</ele><time>2026-04-25T07:43:14.816Z</time></trkpt><trkpt lat="45.5611759" lon="12.6393061"><ele>0.0</ele><time>2026-04-25T07:43:15.813Z</time></trkpt><trkpt lat="45.5612744" lon="12.6391357"><ele>-0.6666666666666666</ele><time>2026-04-25T07:43:16.82Z</time></trkpt><trkpt lat="45.5613718" lon="12.6389705"><ele>-1.3333333333333333</ele><time>2026-04-25T07:43:17.825Z</time></trkpt><trkpt lat="45.5614719" lon="12.6388001"><ele>-2.0</ele><time>2026-04-25T07:43:18.818Z</time></trkpt><trkpt lat="45.5615746" lon="12.6386172"><ele>-2.0</ele><time>2026-04-25T07:43:19.815Z</time></trkpt><trkpt lat="45.5616774" lon="12.6384222"><ele>-2.0</ele><time>2026-04-25T07:43:20.809Z</time></trkpt><trkpt lat="45.5617805" lon="12.6382221"><ele>-2.0</ele><time>2026-04-25T07:43:21.823Z</time></trkpt><trkpt lat="45.5618906" lon="12.6380313"><ele>-2.0</ele><time>2026-04-25T07:43:22.817Z</time></trkpt><trkpt lat="45.561993" lon="12.6378467"><ele>-2.0</ele><time>2026-04-25T07:43:23.822Z</time></trkpt><trkpt lat="45.562095" lon="12.6376739"><ele>-2.0</ele><time>2026-04-25T07:43:24.824Z</time></trkpt><trkpt lat="45.5621897" lon="12.6375123"><ele>-1.6666666666666665</ele><time>2026-04-25T07:43:25.822Z</time></trkpt><trkpt lat="45.562282" lon="12.6373461"><ele>-1.3333333333333333</ele><time>2026-04-25T07:43:26.81Z</time></trkpt><trkpt lat="45.562374" lon="12.637174"><ele>-1.0</ele><time>2026-04-25T07:43:27.829Z</time></trkpt><trkpt lat="45.5624719" lon="12.6370036"><ele>-1.6666666666666665</ele><time>2026-04-25T07:43:28.815Z</time></trkpt><trkpt lat="45.5625703" lon="12.6368281"><ele>-2.3333333333333335</ele><time>2026-04-25T07:43:29.821Z</time></trkpt><trkpt lat="45.562672" lon="12.6366558"><ele>-3.0</ele><time>2026-04-25T07:43:30.82Z</time></trkpt><trkpt lat="45.5627681" lon="12.6364761"><ele>-2.6666666666666665</ele><time>2026-04-25T07:43:31.826Z</time></trkpt><trkpt lat="45.5628683" lon="12.6363062"><ele>-2.333333333333333</ele><time>2026-04-25T07:43:32.821Z</time></trkpt><trkpt lat="45.5629687" lon="12.6361382"><ele>-2.0</ele><time>2026-04-25T07:43:33.822Z</time></trkpt><trkpt lat="45.5630629" lon="12.6359668"><ele>-1.6666666666666665</ele><time>2026-04-25T07:43:34.826Z</time></trkpt><trkpt lat="45.563154" lon="12.6358001"><ele>-1.3333333333333333</ele><time>2026-04-25T07:43:35.831Z</time></trkpt><trkpt lat="45.5632505" lon="12.6356341"><ele>-1.0</ele><time>2026-04-25T07:43:36.821Z</time></trkpt><trkpt lat="45.5633446" lon="12.6354631"><ele>-1.6666666666666665</ele><time>2026-04-25T07:43:37.827Z</time></trkpt><trkpt lat="45.5634403" lon="12.6352927"><ele>-2.3333333333333335</ele><time>2026-04-25T07:43:38.832Z</time></trkpt><trkpt lat="45.5635378" lon="12.6351198"><ele>-3.0</ele><time>2026-04-25T07:43:39.824Z</time></trkpt><trkpt lat="45.5636338" lon="12.6349442"><ele>-2.3333333333333335</ele><time>2026-04-25T07:43:40.827Z</time></trkpt><trkpt lat="45.5637311" lon="12.6347683"><ele>-1.6666666666666665</ele><time>2026-04-25T07:43:41.828Z</time></trkpt><trkpt lat="45.5638321" lon="12.6345968"><ele>-1.0</ele><time>2026-04-25T07:43:42.822Z</time></trkpt><trkpt lat="45.5640204" lon="12.6342561"><ele>-1.0</ele><time>2026-04-25T07:43:44.823Z</time></trkpt><trkpt lat="45.5641086" lon="12.634104"><ele>-1.0</ele><time>2026-04-25T07:43:45.825Z</time></trkpt><trkpt lat="45.564196" lon="12.6339457"><ele>-1.0</ele><time>2026-04-25T07:43:46.822Z</time></trkpt><trkpt lat="45.5642833" lon="12.6337861"><ele>-1.0</ele><time>2026-04-25T07:43:47.826Z</time></trkpt><trkpt lat="45.5643721" lon="12.6336236"><ele>-1.3333333333333333</ele><time>2026-04-25T07:43:48.819Z</time></trkpt><trkpt lat="45.5644638" lon="12.6334609"><ele>-1.6666666666666665</ele><time>2026-04-25T07:43:49.822Z</time></trkpt><trkpt lat="45.5645589" lon="12.6332903"><ele>-2.0</ele><time>2026-04-25T07:43:50.82Z</time></trkpt><trkpt lat="45.5646563" lon="12.6331146"><ele>-2.0</ele><time>2026-04-25T07:43:51.827Z</time></trkpt><trkpt lat="45.5647578" lon="12.6329298"><ele>-2.0</ele><time>2026-04-25T07:43:52.82Z</time></trkpt><trkpt lat="45.5648591" lon="12.6327448"><ele>-2.0</ele><time>2026-04-25T07:43:53.822Z</time></trkpt><trkpt lat="45.5649618" lon="12.6325596"><ele>-2.0</ele><time>2026-04-25T07:43:54.827Z</time></trkpt><trkpt lat="45.5650637" lon="12.6323749"><ele>-2.0</ele><time>2026-04-25T07:43:55.819Z</time></trkpt><trkpt lat="45.565165" lon="12.6321949"><ele>-2.0</ele><time>2026-04-25T07:43:56.817Z</time></trkpt><trkpt lat="45.565264" lon="12.6320205"><ele>-2.0</ele><time>2026-04-25T07:43:57.823Z</time></trkpt><trkpt lat="45.5653598" lon="12.631857"><ele>-2.0</ele><time>2026-04-25T07:43:58.827Z</time></trkpt><trkpt lat="45.565444" lon="12.6317084"><ele>-2.0</ele><time>2026-04-25T07:43:59.821Z</time></trkpt><trkpt lat="45.5655241" lon="12.6315647"><ele>-2.0</ele><time>2026-04-25T07:44:00.828Z</time></trkpt><trkpt lat="45.5656025" lon="12.631415"><ele>-2.0</ele><time>2026-04-25T07:44:01.829Z</time></trkpt><trkpt lat="45.565687" lon="12.6312648"><ele>-2.0</ele><time>2026-04-25T07:44:02.836Z</time></trkpt><trkpt lat="45.5657753" lon="12.6311154"><ele>-2.0</ele><time>2026-04-25T07:44:03.838Z</time></trkpt><trkpt lat="45.5658647" lon="12.6309602"><ele>-2.0</ele><time>2026-04-25T07:44:04.827Z</time></trkpt><trkpt lat="45.5659538" lon="12.6308059"><ele>-2.25</ele><time>2026-04-25T07:44:05.829Z</time></trkpt><trkpt lat="45.5660449" lon="12.6306492"><ele>-2.5</ele><time>2026-04-25T07:44:06.817Z</time></trkpt><trkpt lat="45.5661377" lon="12.6304846"><ele>-2.75</ele><time>2026-04-25T07:44:07.824Z</time></trkpt><trkpt lat="45.5662315" lon="12.6303165"><ele>-3.0</ele><time>2026-04-25T07:44:08.828Z</time></trkpt><trkpt lat="45.566323" lon="12.6301446"><ele>-2.3333333333333335</ele><time>2026-04-25T07:44:09.814Z</time></trkpt><trkpt lat="45.5664211" lon="12.629967"><ele>-1.6666666666666665</ele><time>2026-04-25T07:44:10.818Z</time></trkpt><trkpt lat="45.5665216" lon="12.6297828"><ele>-1.0</ele><time>2026-04-25T07:44:11.821Z</time></trkpt><trkpt lat="45.5666279" lon="12.6296003"><ele>-2.0</ele><time>2026-04-25T07:44:12.824Z</time></trkpt><trkpt lat="45.5673371" lon="12.6283467"><ele>-2.0</ele><time>2026-04-25T07:44:19.822Z</time></trkpt><trkpt lat="45.5674157" lon="12.6282166"><ele>-2.0</ele><time>2026-04-25T07:44:20.84Z</time></trkpt><trkpt lat="45.5674855" lon="12.6280941"><ele>-2.0</ele><time>2026-04-25T07:44:21.824Z</time></trkpt><trkpt lat="45.5675573" lon="12.6279697"><ele>-2.0</ele><time>2026-04-25T07:44:22.826Z</time></trkpt><trkpt lat="45.5676321" lon="12.6278369"><ele>-1.75</ele><time>2026-04-25T07:44:23.83Z</time></trkpt><trkpt lat="45.5677097" lon="12.6276976"><ele>-1.5</ele><time>2026-04-25T07:44:24.823Z</time></trkpt><trkpt lat="45.5677902" lon="12.6275531"><ele>-1.25</ele><time>2026-04-25T07:44:25.832Z</time></trkpt><trkpt lat="45.5678678" lon="12.6274148"><ele>-1.0</ele><time>2026-04-25T07:44:26.832Z</time></trkpt><trkpt lat="45.5679412" lon="12.6272893"><ele>-1.0</ele><time>2026-04-25T07:44:27.828Z</time></trkpt><trkpt lat="45.5679412" lon="12.6272893"><ele>-1.0</ele><time>2026-04-25T07:44:27.828Z</time></trkpt><trkpt lat="45.5687646" lon="12.6258134"><ele>-1.0</ele><time>2026-04-25T07:44:38.823Z</time></trkpt><trkpt lat="45.5688441" lon="12.6256702"><ele>-1.0</ele><time>2026-04-25T07:44:39.824Z</time></trkpt><trkpt lat="45.5689249" lon="12.6255237"><ele>-1.0</ele><time>2026-04-25T07:44:40.812Z</time></trkpt><trkpt lat="45.5690042" lon="12.6253813"><ele>-1.0</ele><time>2026-04-25T07:44:41.827Z</time></trkpt><trkpt lat="45.5690913" lon="12.6252339"><ele>-1.5</ele><time>2026-04-25T07:44:42.827Z</time></trkpt><trkpt lat="45.5691761" lon="12.6250857"><ele>-2.0</ele><time>2026-04-25T07:44:43.826Z</time></trkpt><trkpt lat="45.5692624" lon="12.6249397"><ele>-2.5</ele><time>2026-04-25T07:44:44.828Z</time></trkpt><trkpt lat="45.5693431" lon="12.6247885"><ele>-3.0</ele><time>2026-04-25T07:44:45.827Z</time></trkpt><trkpt lat="45.5694209" lon="12.6246398"><ele>-3.0</ele><time>2026-04-25T07:44:46.823Z</time></trkpt><trkpt lat="45.5694978" lon="12.6244998"><ele>-3.0</ele><time>2026-04-25T07:44:47.817Z</time></trkpt><trkpt lat="45.5695772" lon="12.62437"><ele>-3.0</ele><time>2026-04-25T07:44:48.819Z</time></trkpt><trkpt lat="45.5696509" lon="12.6242431"><ele>-3.0</ele><time>2026-04-25T07:44:49.827Z</time></trkpt><trkpt lat="45.5697223" lon="12.6241134"><ele>-2.75</ele><time>2026-04-25T07:44:50.834Z</time></trkpt><trkpt lat="45.5697921" lon="12.6239883"><ele>-2.5</ele><time>2026-04-25T07:44:51.824Z</time></trkpt><trkpt lat="45.5698612" lon="12.6238661"><ele>-2.25</ele><time>2026-04-25T07:44:52.818Z</time></trkpt><trkpt lat="45.569935" lon="12.6237364"><ele>-2.0</ele><time>2026-04-25T07:44:53.817Z</time></trkpt><trkpt lat="45.5700112" lon="12.6236108"><ele>-1.75</ele><time>2026-04-25T07:44:54.82Z</time></trkpt><trkpt lat="45.5700829" lon="12.6234767"><ele>-1.5</ele><time>2026-04-25T07:44:55.827Z</time></trkpt><trkpt lat="45.5701542" lon="12.6233427"><ele>-1.25</ele><time>2026-04-25T07:44:56.824Z</time></trkpt><trkpt lat="45.570224" lon="12.6232184"><ele>-1.0</ele><time>2026-04-25T07:44:57.83Z</time></trkpt><trkpt lat="45.570298" lon="12.6230875"><ele>-1.25</ele><time>2026-04-25T07:44:58.828Z</time></trkpt><trkpt lat="45.5703744" lon="12.6229508"><ele>-1.5</ele><time>2026-04-25T07:44:59.825Z</time></trkpt><trkpt lat="45.5704528" lon="12.6228018"><ele>-1.75</ele><time>2026-04-25T07:45:00.822Z</time></trkpt><trkpt lat="45.5705339" lon="12.6226526"><ele>-2.0</ele><time>2026-04-25T07:45:01.831Z</time></trkpt><trkpt lat="45.5706095" lon="12.6225125"><ele>-2.0</ele><time>2026-04-25T07:45:02.83Z</time></trkpt><trkpt lat="45.570691" lon="12.6223796"><ele>-2.0</ele><time>2026-04-25T07:45:03.83Z</time></trkpt><trkpt lat="45.5707668" lon="12.6222482"><ele>-2.0</ele><time>2026-04-25T07:45:04.817Z</time></trkpt><trkpt lat="45.5708398" lon="12.622116"><ele>-2.0</ele><time>2026-04-25T07:45:05.823Z</time></trkpt><trkpt lat="45.5709175" lon="12.6219812"><ele>-2.25</ele><time>2026-04-25T07:45:06.832Z</time></trkpt><trkpt lat="45.5709927" lon="12.6218429"><ele>-2.5</ele><time>2026-04-25T07:45:07.822Z</time></trkpt><trkpt lat="45.5710718" lon="12.6217005"><ele>-2.75</ele><time>2026-04-25T07:45:08.821Z</time></trkpt><trkpt lat="45.5711562" lon="12.6215527"><ele>-3.0</ele><time>2026-04-25T07:45:09.835Z</time></trkpt><trkpt lat="45.5712462" lon="12.6214009"><ele>-2.1999999999999997</ele><time>2026-04-25T07:45:10.823Z</time></trkpt><trkpt lat="45.5713267" lon="12.6212628"><ele>-1.4</ele><time>2026-04-25T07:45:11.832Z</time></trkpt><trkpt lat="45.571396" lon="12.621138"><ele>-0.5999999999999999</ele><time>2026-04-25T07:45:12.832Z</time></trkpt><trkpt lat="45.5714632" lon="12.6210225"><ele>0.20000000000000007</ele><time>2026-04-25T07:45:13.826Z</time></trkpt><trkpt lat="45.5715257" lon="12.6209049"><ele>1.0</ele><time>2026-04-25T07:45:14.841Z</time></trkpt><trkpt lat="45.5715949" lon="12.6207871"><ele>1.0</ele><time>2026-04-25T07:45:15.826Z</time></trkpt><trkpt lat="45.5716602" lon="12.6206746"><ele>1.0</ele><time>2026-04-25T07:45:16.832Z</time></trkpt><trkpt lat="45.5717245" lon="12.6205656"><ele>1.0</ele><time>2026-04-25T07:45:17.832Z</time></trkpt><trkpt lat="45.5717924" lon="12.6204483"><ele>1.0</ele><time>2026-04-25T07:45:18.822Z</time></trkpt><trkpt lat="45.5718593" lon="12.6203225"><ele>1.0</ele><time>2026-04-25T07:45:19.836Z</time></trkpt><trkpt lat="45.5719286" lon="12.6201928"><ele>1.0</ele><time>2026-04-25T07:45:20.82Z</time></trkpt><trkpt lat="45.5720035" lon="12.620051"><ele>1.0</ele><time>2026-04-25T07:45:21.825Z</time></trkpt><trkpt lat="45.5720773" lon="12.6199193"><ele>1.0</ele><time>2026-04-25T07:45:22.84Z</time></trkpt><trkpt lat="45.5721443" lon="12.6198009"><ele>1.0</ele><time>2026-04-25T07:45:23.825Z</time></trkpt><trkpt lat="45.5722092" lon="12.6196936"><ele>1.0</ele><time>2026-04-25T07:45:24.822Z</time></trkpt><trkpt lat="45.5722698" lon="12.61958"><ele>0.6000000000000001</ele><time>2026-04-25T07:45:25.838Z</time></trkpt><trkpt lat="45.5723372" lon="12.6194613"><ele>0.20000000000000007</ele><time>2026-04-25T07:45:26.837Z</time></trkpt><trkpt lat="45.5724016" lon="12.6193464"><ele>-0.20000000000000007</ele><time>2026-04-25T07:45:27.834Z</time></trkpt><trkpt lat="45.5724613" lon="12.6192285"><ele>-0.6000000000000001</ele><time>2026-04-25T07:45:28.829Z</time></trkpt><trkpt lat="45.5725205" lon="12.6191167"><ele>-1.0</ele><time>2026-04-25T07:45:29.84Z</time></trkpt><trkpt lat="45.5725779" lon="12.6190195"><ele>-0.9999999999999999</ele><time>2026-04-25T07:45:30.831Z</time></trkpt><trkpt lat="45.5726294" lon="12.6189231"><ele>-1.0</ele><time>2026-04-25T07:45:31.829Z</time></trkpt><trkpt lat="45.5726808" lon="12.6188316"><ele>-1.0</ele><time>2026-04-25T07:45:32.831Z</time></trkpt><trkpt lat="45.5727363" lon="12.6187334"><ele>-1.0</ele><time>2026-04-25T07:45:33.827Z</time></trkpt><trkpt lat="45.5727946" lon="12.6186377"><ele>-0.9999999999999999</ele><time>2026-04-25T07:45:34.836Z</time></trkpt><trkpt lat="45.5728465" lon="12.6185438"><ele>-1.0</ele><time>2026-04-25T07:45:35.833Z</time></trkpt><trkpt lat="45.5728938" lon="12.618458"><ele>-0.8571428571428571</ele><time>2026-04-25T07:45:36.841Z</time></trkpt><trkpt lat="45.5729388" lon="12.6183769"><ele>-0.7142857142857142</ele><time>2026-04-25T07:45:37.83Z</time></trkpt><trkpt lat="45.5729913" lon="12.6183045"><ele>-0.5714285714285714</ele><time>2026-04-25T07:45:38.835Z</time></trkpt><trkpt lat="45.5730377" lon="12.6182311"><ele>-0.42857142857142855</ele><time>2026-04-25T07:45:39.828Z</time></trkpt><trkpt lat="45.5730827" lon="12.6181449"><ele>-0.2857142857142857</ele><time>2026-04-25T07:45:40.845Z</time></trkpt><trkpt lat="45.5731296" lon="12.6180589"><ele>-0.14285714285714285</ele><time>2026-04-25T07:45:41.837Z</time></trkpt><trkpt lat="45.5731694" lon="12.6179816"><ele>0.0</ele><time>2026-04-25T07:45:42.837Z</time></trkpt><trkpt lat="45.5732065" lon="12.6179089"><ele>0.0</ele><time>2026-04-25T07:45:43.839Z</time></trkpt><trkpt lat="45.5732492" lon="12.6178282"><ele>0.0</ele><time>2026-04-25T07:45:44.852Z</time></trkpt><trkpt lat="45.5732994" lon="12.6177455"><ele>0.0</ele><time>2026-04-25T07:45:45.835Z</time></trkpt><trkpt lat="45.5733544" lon="12.617643"><ele>0.0</ele><time>2026-04-25T07:45:46.843Z</time></trkpt><trkpt lat="45.5734183" lon="12.6175335"><ele>0.0</ele><time>2026-04-25T07:45:47.828Z</time></trkpt><trkpt lat="45.5734703" lon="12.6174423"><ele>0.0</ele><time>2026-04-25T07:45:48.827Z</time></trkpt><trkpt lat="45.5735155" lon="12.6173551"><ele>0.0</ele><time>2026-04-25T07:45:49.834Z</time></trkpt><trkpt lat="45.5735598" lon="12.6172638"><ele>0.0</ele><time>2026-04-25T07:45:50.832Z</time></trkpt><trkpt lat="45.5736051" lon="12.6171696"><ele>0.0</ele><time>2026-04-25T07:45:51.824Z</time></trkpt><trkpt lat="45.5736492" lon="12.6170902"><ele>0.0</ele><time>2026-04-25T07:45:52.823Z</time></trkpt><trkpt lat="45.5736899" lon="12.6170167"><ele>0.0</ele><time>2026-04-25T07:45:53.826Z</time></trkpt><trkpt lat="45.5737361" lon="12.6169381"><ele>0.0</ele><time>2026-04-25T07:45:54.825Z</time></trkpt><trkpt lat="45.5737855" lon="12.6168451"><ele>0.0</ele><time>2026-04-25T07:45:55.834Z</time></trkpt><trkpt lat="45.5738427" lon="12.6167541"><ele>0.0</ele><time>2026-04-25T07:45:56.843Z</time></trkpt><trkpt lat="45.5738917" lon="12.6166672"><ele>0.0</ele><time>2026-04-25T07:45:57.828Z</time></trkpt><trkpt lat="45.5739376" lon="12.6165971"><ele>0.0</ele><time>2026-04-25T07:45:58.835Z</time></trkpt><trkpt lat="45.5739798" lon="12.6165212"><ele>0.0</ele><time>2026-04-25T07:46:00.821Z</time></trkpt><trkpt lat="45.5740231" lon="12.616455"><ele>0.0</ele><time>2026-04-25T07:46:05.83Z</time></trkpt><trkpt lat="45.5740761" lon="12.6163767"><ele>0.0</ele><time>2026-04-25T07:46:21.842Z</time></trkpt><trkpt lat="45.5741387" lon="12.6162525"><ele>0.0</ele><time>2026-04-25T07:46:23.832Z</time></trkpt><trkpt lat="45.5741781" lon="12.6161772"><ele>0.0</ele><time>2026-04-25T07:46:24.827Z</time></trkpt><trkpt lat="45.5742199" lon="12.6160983"><ele>0.0</ele><time>2026-04-25T07:46:25.846Z</time></trkpt><trkpt lat="45.5742686" lon="12.6160038"><ele>0.0</ele><time>2026-04-25T07:46:26.832Z</time></trkpt><trkpt lat="45.5743293" lon="12.6159013"><ele>0.0</ele><time>2026-04-25T07:46:27.834Z</time></trkpt><trkpt lat="45.5743913" lon="12.6157916"><ele>0.0</ele><time>2026-04-25T07:46:28.825Z</time></trkpt><trkpt lat="45.5744692" lon="12.6156686"><ele>-0.25</ele><time>2026-04-25T07:46:29.846Z</time></trkpt><trkpt lat="45.5745483" lon="12.6155345"><ele>-0.5</ele><time>2026-04-25T07:46:30.829Z</time></trkpt><trkpt lat="45.5746319" lon="12.6153877"><ele>-0.75</ele><time>2026-04-25T07:46:31.835Z</time></trkpt><trkpt lat="45.5747203" lon="12.6152332"><ele>-1.0</ele><time>2026-04-25T07:46:32.832Z</time></trkpt><trkpt lat="45.5748107" lon="12.6150809"><ele>-1.0</ele><time>2026-04-25T07:46:33.827Z</time></trkpt><trkpt lat="45.5749103" lon="12.6149261"><ele>-1.0</ele><time>2026-04-25T07:46:34.847Z</time></trkpt><trkpt lat="45.5750139" lon="12.6147773"><ele>-1.0</ele><time>2026-04-25T07:46:35.826Z</time></trkpt><trkpt lat="45.5751226" lon="12.6146286"><ele>-1.0</ele><time>2026-04-25T07:46:36.829Z</time></trkpt><trkpt lat="45.5752286" lon="12.6144806"><ele>-1.3333333333333333</ele><time>2026-04-25T07:46:37.824Z</time></trkpt><trkpt lat="45.5753363" lon="12.6143304"><ele>-1.6666666666666665</ele><time>2026-04-25T07:46:38.832Z</time></trkpt><trkpt lat="45.5754485" lon="12.6141717"><ele>-2.0</ele><time>2026-04-25T07:46:39.834Z</time></trkpt><trkpt lat="45.5755609" lon="12.6140086"><ele>-2.0</ele><time>2026-04-25T07:46:40.83Z</time></trkpt><trkpt lat="45.5756746" lon="12.6138416"><ele>-2.0</ele><time>2026-04-25T07:46:41.829Z</time></trkpt><trkpt lat="45.5757921" lon="12.6136765"><ele>-2.0</ele><time>2026-04-25T07:46:42.824Z</time></trkpt><trkpt lat="45.5759127" lon="12.6135175"><ele>-1.6666666666666665</ele><time>2026-04-25T07:46:43.829Z</time></trkpt><trkpt lat="45.5760302" lon="12.6133455"><ele>-1.3333333333333333</ele><time>2026-04-25T07:46:44.821Z</time></trkpt><trkpt lat="45.576149" lon="12.6131759"><ele>-1.0</ele><time>2026-04-25T07:46:45.829Z</time></trkpt><trkpt lat="45.5762681" lon="12.6130053"><ele>-1.0</ele><time>2026-04-25T07:46:46.827Z</time></trkpt><trkpt lat="45.5763909" lon="12.6128266"><ele>-1.0</ele><time>2026-04-25T07:46:47.828Z</time></trkpt><trkpt lat="45.5765091" lon="12.6126464"><ele>-1.0</ele><time>2026-04-25T07:46:48.826Z</time></trkpt><trkpt lat="45.5766301" lon="12.6124741"><ele>-1.0</ele><time>2026-04-25T07:46:49.841Z</time></trkpt><trkpt lat="45.5767424" lon="12.6123143"><ele>-1.0</ele><time>2026-04-25T07:46:50.827Z</time></trkpt><trkpt lat="45.5768584" lon="12.6121538"><ele>-1.0</ele><time>2026-04-25T07:46:51.835Z</time></trkpt><trkpt lat="45.5769746" lon="12.611992"><ele>-1.0</ele><time>2026-04-25T07:46:52.835Z</time></trkpt><trkpt lat="45.5770905" lon="12.6118221"><ele>-1.0</ele><time>2026-04-25T07:46:53.848Z</time></trkpt><trkpt lat="45.5772105" lon="12.6116513"><ele>-1.0</ele><time>2026-04-25T07:46:54.833Z</time></trkpt><trkpt lat="45.5773279" lon="12.6114828"><ele>-1.0</ele><time>2026-04-25T07:46:55.826Z</time></trkpt><trkpt lat="45.5774442" lon="12.6113156"><ele>-1.0</ele><time>2026-04-25T07:46:56.827Z</time></trkpt><trkpt lat="45.5775578" lon="12.6111539"><ele>-1.0</ele><time>2026-04-25T07:46:57.828Z</time></trkpt><trkpt lat="45.5776747" lon="12.610986"><ele>-1.0</ele><time>2026-04-25T07:46:58.822Z</time></trkpt><trkpt lat="45.5777925" lon="12.6108151"><ele>-1.0</ele><time>2026-04-25T07:46:59.832Z</time></trkpt><trkpt lat="45.5779136" lon="12.610644"><ele>-1.0</ele><time>2026-04-25T07:47:00.83Z</time></trkpt><trkpt lat="45.5780363" lon="12.6104655"><ele>-0.6666666666666666</ele><time>2026-04-25T07:47:01.828Z</time></trkpt><trkpt lat="45.5781618" lon="12.6102915"><ele>-0.3333333333333333</ele><time>2026-04-25T07:47:02.833Z</time></trkpt><trkpt lat="45.5782894" lon="12.6101072"><ele>0.0</ele><time>2026-04-25T07:47:03.833Z</time></trkpt><trkpt lat="45.5784204" lon="12.6099179"><ele>0.0</ele><time>2026-04-25T07:47:04.824Z</time></trkpt><trkpt lat="45.5785585" lon="12.6097233"><ele>0.0</ele><time>2026-04-25T07:47:05.83Z</time></trkpt><trkpt lat="45.5786936" lon="12.6095362"><ele>0.0</ele><time>2026-04-25T07:47:06.838Z</time></trkpt><trkpt lat="45.5788277" lon="12.609347"><ele>0.0</ele><time>2026-04-25T07:47:07.839Z</time></trkpt><trkpt lat="45.578957" lon="12.6091549"><ele>0.0</ele><time>2026-04-25T07:47:08.828Z</time></trkpt><trkpt lat="45.5790932" lon="12.6089659"><ele>0.0</ele><time>2026-04-25T07:47:09.835Z</time></trkpt><trkpt lat="45.5792304" lon="12.6087756"><ele>0.0</ele><time>2026-04-25T07:47:10.835Z</time></trkpt><trkpt lat="45.579364" lon="12.608591"><ele>0.0</ele><time>2026-04-25T07:47:11.828Z</time></trkpt><trkpt lat="45.5794928" lon="12.6084144"><ele>0.0</ele><time>2026-04-25T07:47:12.829Z</time></trkpt><trkpt lat="45.5796137" lon="12.6082433"><ele>0.0</ele><time>2026-04-25T07:47:13.823Z</time></trkpt><trkpt lat="45.5797223" lon="12.6080795"><ele>0.0</ele><time>2026-04-25T07:47:14.828Z</time></trkpt><trkpt lat="45.5798317" lon="12.6079231"><ele>0.0</ele><time>2026-04-25T07:47:15.833Z</time></trkpt><trkpt lat="45.5799393" lon="12.6077654"><ele>0.3333333333333333</ele><time>2026-04-25T07:47:16.836Z</time></trkpt><trkpt lat="45.5800478" lon="12.6076086"><ele>0.6666666666666666</ele><time>2026-04-25T07:47:17.822Z</time></trkpt><trkpt lat="45.5801595" lon="12.6074485"><ele>1.0</ele><time>2026-04-25T07:47:18.824Z</time></trkpt><trkpt lat="45.5802735" lon="12.6072935"><ele>0.5</ele><time>2026-04-25T07:47:19.828Z</time></trkpt><trkpt lat="45.580377" lon="12.6071496"><ele>0.0</ele><time>2026-04-25T07:47:20.836Z</time></trkpt><trkpt lat="45.580475" lon="12.6070107"><ele>-0.5</ele><time>2026-04-25T07:47:21.83Z</time></trkpt><trkpt lat="45.5805645" lon="12.6068839"><ele>-1.0</ele><time>2026-04-25T07:47:22.826Z</time></trkpt><trkpt lat="45.5806451" lon="12.6067688"><ele>-1.0</ele><time>2026-04-25T07:47:23.829Z</time></trkpt><trkpt lat="45.5807182" lon="12.6066627"><ele>-1.0</ele><time>2026-04-25T07:47:24.823Z</time></trkpt><trkpt lat="45.5807918" lon="12.6065617"><ele>-1.0</ele><time>2026-04-25T07:47:25.823Z</time></trkpt><trkpt lat="45.580857" lon="12.6064771"><ele>-1.0</ele><time>2026-04-25T07:47:26.834Z</time></trkpt><trkpt lat="45.5809244" lon="12.6063813"><ele>-1.0</ele><time>2026-04-25T07:47:27.815Z</time></trkpt><trkpt lat="45.5809995" lon="12.6062736"><ele>-0.75</ele><time>2026-04-25T07:47:28.86Z</time></trkpt><trkpt lat="45.5810799" lon="12.6061562"><ele>-0.5</ele><time>2026-04-25T07:47:29.828Z</time></trkpt><trkpt lat="45.5811676" lon="12.6060227"><ele>-0.25</ele><time>2026-04-25T07:47:30.828Z</time></trkpt><trkpt lat="45.5812574" lon="12.6058803"><ele>0.0</ele><time>2026-04-25T07:47:31.837Z</time></trkpt><trkpt lat="45.5813512" lon="12.6057369"><ele>0.0</ele><time>2026-04-25T07:47:32.828Z</time></trkpt><trkpt lat="45.5814572" lon="12.6055839"><ele>0.0</ele><time>2026-04-25T07:47:33.829Z</time></trkpt><trkpt lat="45.5815716" lon="12.6054273"><ele>0.0</ele><time>2026-04-25T07:47:34.832Z</time></trkpt><trkpt lat="45.5816887" lon="12.6052674"><ele>0.0</ele><time>2026-04-25T07:47:35.829Z</time></trkpt><trkpt lat="45.581805" lon="12.6050967"><ele>0.0</ele><time>2026-04-25T07:47:36.83Z</time></trkpt><trkpt lat="45.5819228" lon="12.6049255"><ele>0.0</ele><time>2026-04-25T07:47:37.837Z</time></trkpt><trkpt lat="45.5820428" lon="12.6047482"><ele>0.0</ele><time>2026-04-25T07:47:38.822Z</time></trkpt><trkpt lat="45.5821676" lon="12.6045749"><ele>0.0</ele><time>2026-04-25T07:47:39.833Z</time></trkpt><trkpt lat="45.5822935" lon="12.604404"><ele>0.0</ele><time>2026-04-25T07:47:40.818Z</time></trkpt><trkpt lat="45.5824174" lon="12.6042279"><ele>-0.6666666666666666</ele><time>2026-04-25T07:47:41.833Z</time></trkpt><trkpt lat="45.5825403" lon="12.604051"><ele>-1.3333333333333333</ele><time>2026-04-25T07:47:42.824Z</time></trkpt><trkpt lat="45.5826659" lon="12.6038784"><ele>-2.0</ele><time>2026-04-25T07:47:43.828Z</time></trkpt><trkpt lat="45.5827861" lon="12.6037013"><ele>-1.6666666666666665</ele><time>2026-04-25T07:47:44.838Z</time></trkpt><trkpt lat="45.5829072" lon="12.6035281"><ele>-1.3333333333333333</ele><time>2026-04-25T07:47:45.826Z</time></trkpt><trkpt lat="45.5830247" lon="12.6033633"><ele>-1.0</ele><time>2026-04-25T07:47:46.827Z</time></trkpt><trkpt lat="45.583134" lon="12.6032121"><ele>-1.0</ele><time>2026-04-25T07:47:47.826Z</time></trkpt><trkpt lat="45.5832374" lon="12.6030652"><ele>-1.0</ele><time>2026-04-25T07:47:48.824Z</time></trkpt><trkpt lat="45.5833451" lon="12.602917"><ele>-1.0</ele><time>2026-04-25T07:47:49.827Z</time></trkpt><trkpt lat="45.5834515" lon="12.6027583"><ele>-1.0</ele><time>2026-04-25T07:47:50.824Z</time></trkpt><trkpt lat="45.5835582" lon="12.6025981"><ele>-1.0</ele><time>2026-04-25T07:47:51.819Z</time></trkpt><trkpt lat="45.5836709" lon="12.6024425"><ele>-1.0</ele><time>2026-04-25T07:47:52.835Z</time></trkpt><trkpt lat="45.5837781" lon="12.6022945"><ele>-1.0</ele><time>2026-04-25T07:47:53.826Z</time></trkpt><trkpt lat="45.5838801" lon="12.6021504"><ele>-1.0</ele><time>2026-04-25T07:47:54.824Z</time></trkpt><trkpt lat="45.5839806" lon="12.6020117"><ele>-1.0</ele><time>2026-04-25T07:47:55.821Z</time></trkpt><trkpt lat="45.5840812" lon="12.6018716"><ele>-1.0</ele><time>2026-04-25T07:47:56.825Z</time></trkpt><trkpt lat="45.5841902" lon="12.6017427"><ele>-1.0</ele><time>2026-04-25T07:47:57.838Z</time></trkpt><trkpt lat="45.5843058" lon="12.6016147"><ele>-1.0</ele><time>2026-04-25T07:47:58.828Z</time></trkpt><trkpt lat="45.584431" lon="12.6014952"><ele>0.6666666666666666</ele><time>2026-04-25T07:47:59.839Z</time></trkpt><trkpt lat="45.5845562" lon="12.6013744"><ele>2.333333333333333</ele><time>2026-04-25T07:48:00.836Z</time></trkpt><trkpt lat="45.5846908" lon="12.6012617"><ele>4.0</ele><time>2026-04-25T07:48:01.836Z</time></trkpt><trkpt lat="45.5848319" lon="12.6011677"><ele>3.0</ele><time>2026-04-25T07:48:02.835Z</time></trkpt><trkpt lat="45.5849941" lon="12.6011042"><ele>2.0</ele><time>2026-04-25T07:48:03.845Z</time></trkpt><trkpt lat="45.5851675" lon="12.6010713"><ele>1.0</ele><time>2026-04-25T07:48:04.83Z</time></trkpt><trkpt lat="45.5853377" lon="12.6010345"><ele>1.0</ele><time>2026-04-25T07:48:05.822Z</time></trkpt><trkpt lat="45.5855016" lon="12.6010086"><ele>1.0</ele><time>2026-04-25T07:48:06.823Z</time></trkpt><trkpt lat="45.5856594" lon="12.6009746"><ele>1.0</ele><time>2026-04-25T07:48:07.826Z</time></trkpt><trkpt lat="45.5858126" lon="12.6009391"><ele>1.0</ele><time>2026-04-25T07:48:08.824Z</time></trkpt><trkpt lat="45.5859587" lon="12.6009042"><ele>1.0</ele><time>2026-04-25T07:48:09.835Z</time></trkpt><trkpt lat="45.586103" lon="12.6008835"><ele>1.0</ele><time>2026-04-25T07:48:10.829Z</time></trkpt><trkpt lat="45.5862447" lon="12.6008683"><ele>1.0</ele><time>2026-04-25T07:48:11.83Z</time></trkpt><trkpt lat="45.5863835" lon="12.6008501"><ele>1.0</ele><time>2026-04-25T07:48:12.838Z</time></trkpt><trkpt lat="45.5865277" lon="12.6008214"><ele>1.0</ele><time>2026-04-25T07:48:13.828Z</time></trkpt><trkpt lat="45.5866801" lon="12.6007857"><ele>1.0</ele><time>2026-04-25T07:48:14.827Z</time></trkpt><trkpt lat="45.5868347" lon="12.6007538"><ele>1.0</ele><time>2026-04-25T07:48:15.835Z</time></trkpt><trkpt lat="45.5869885" lon="12.6007228"><ele>1.0</ele><time>2026-04-25T07:48:16.829Z</time></trkpt><trkpt lat="45.5871402" lon="12.6007006"><ele>1.0</ele><time>2026-04-25T07:48:17.842Z</time></trkpt><trkpt lat="45.5872785" lon="12.6006778"><ele>1.0</ele><time>2026-04-25T07:48:18.832Z</time></trkpt><trkpt lat="45.5874109" lon="12.6006598"><ele>1.0</ele><time>2026-04-25T07:48:19.84Z</time></trkpt><trkpt lat="45.5875416" lon="12.6006171"><ele>1.0</ele><time>2026-04-25T07:48:20.831Z</time></trkpt><trkpt lat="45.5876715" lon="12.6005594"><ele>1.0</ele><time>2026-04-25T07:48:21.818Z</time></trkpt><trkpt lat="45.587793" lon="12.6004947"><ele>1.0</ele><time>2026-04-25T07:48:22.833Z</time></trkpt><trkpt lat="45.5879135" lon="12.6004223"><ele>1.0</ele><time>2026-04-25T07:48:23.825Z</time></trkpt><trkpt lat="45.5880403" lon="12.6003574"><ele>1.0</ele><time>2026-04-25T07:48:24.825Z</time></trkpt><trkpt lat="45.5881563" lon="12.6002935"><ele>1.0</ele><time>2026-04-25T07:48:25.821Z</time></trkpt><trkpt lat="45.5882648" lon="12.6002346"><ele>1.0</ele><time>2026-04-25T07:48:26.83Z</time></trkpt><trkpt lat="45.5883736" lon="12.6001764"><ele>0.75</ele><time>2026-04-25T07:48:27.822Z</time></trkpt><trkpt lat="45.5884824" lon="12.6001024"><ele>0.5</ele><time>2026-04-25T07:48:28.84Z</time></trkpt><trkpt lat="45.588595" lon="12.6000292"><ele>0.25</ele><time>2026-04-25T07:48:29.825Z</time></trkpt><trkpt lat="45.5887069" lon="12.5999637"><ele>0.0</ele><time>2026-04-25T07:48:30.823Z</time></trkpt><trkpt lat="45.58882" lon="12.5998932"><ele>0.0</ele><time>2026-04-25T07:48:31.829Z</time></trkpt><trkpt lat="45.5889365" lon="12.5998294"><ele>0.0</ele><time>2026-04-25T07:48:32.822Z</time></trkpt><trkpt lat="45.5890531" lon="12.5997603"><ele>0.0</ele><time>2026-04-25T07:48:33.829Z</time></trkpt><trkpt lat="45.5891795" lon="12.5996788"><ele>0.0</ele><time>2026-04-25T07:48:34.829Z</time></trkpt><trkpt lat="45.5893093" lon="12.5996017"><ele>0.0</ele><time>2026-04-25T07:48:35.824Z</time></trkpt><trkpt lat="45.5894372" lon="12.5995265"><ele>0.0</ele><time>2026-04-25T07:48:36.828Z</time></trkpt><trkpt lat="45.5895657" lon="12.5994527"><ele>0.0</ele><time>2026-04-25T07:48:37.827Z</time></trkpt><trkpt lat="45.5896908" lon="12.5993849"><ele>0.0</ele><time>2026-04-25T07:48:38.826Z</time></trkpt><trkpt lat="45.5898099" lon="12.5993204"><ele>0.25</ele><time>2026-04-25T07:48:39.834Z</time></trkpt><trkpt lat="45.589922" lon="12.5992484"><ele>0.5</ele><time>2026-04-25T07:48:40.818Z</time></trkpt><trkpt lat="45.5900359" lon="12.5991809"><ele>0.75</ele><time>2026-04-25T07:48:41.835Z</time></trkpt><trkpt lat="45.5901378" lon="12.5991251"><ele>1.0</ele><time>2026-04-25T07:48:42.83Z</time></trkpt><trkpt lat="45.590239" lon="12.5990739"><ele>1.0</ele><time>2026-04-25T07:48:43.822Z</time></trkpt><trkpt lat="45.5903394" lon="12.5990195"><ele>1.0</ele><time>2026-04-25T07:48:44.836Z</time></trkpt><trkpt lat="45.5904356" lon="12.598967"><ele>1.0</ele><time>2026-04-25T07:48:45.825Z</time></trkpt><trkpt lat="45.5905296" lon="12.5989221"><ele>1.0</ele><time>2026-04-25T07:48:46.838Z</time></trkpt><trkpt lat="45.5906234" lon="12.5988695"><ele>1.0</ele><time>2026-04-25T07:48:47.832Z</time></trkpt><trkpt lat="45.5907187" lon="12.5988157"><ele>1.0</ele><time>2026-04-25T07:48:48.826Z</time></trkpt><trkpt lat="45.5908238" lon="12.5987563"><ele>1.0</ele><time>2026-04-25T07:48:49.823Z</time></trkpt><trkpt lat="45.5909181" lon="12.5987055"><ele>1.0</ele><time>2026-04-25T07:48:50.831Z</time></trkpt><trkpt lat="45.5910029" lon="12.5986493"><ele>1.0</ele><time>2026-04-25T07:48:51.825Z</time></trkpt><trkpt lat="45.5910904" lon="12.5985942"><ele>1.0</ele><time>2026-04-25T07:48:52.816Z</time></trkpt><trkpt lat="45.5911787" lon="12.5985417"><ele>0.8333333333333333</ele><time>2026-04-25T07:48:53.826Z</time></trkpt><trkpt lat="45.5912513" lon="12.5984872"><ele>0.6666666666666666</ele><time>2026-04-25T07:48:54.821Z</time></trkpt><trkpt lat="45.5913171" lon="12.5984276"><ele>0.5</ele><time>2026-04-25T07:48:55.828Z</time></trkpt><trkpt lat="45.591374" lon="12.5983543"><ele>0.3333333333333333</ele><time>2026-04-25T07:48:56.825Z</time></trkpt><trkpt lat="45.5914141" lon="12.5982839"><ele>0.16666666666666666</ele><time>2026-04-25T07:48:57.827Z</time></trkpt><trkpt lat="45.5914481" lon="12.5982059"><ele>0.0</ele><time>2026-04-25T07:48:58.827Z</time></trkpt><trkpt lat="45.5915244" lon="12.5980617"><ele>0.0</ele><time>2026-04-25T07:49:00.836Z</time></trkpt><trkpt lat="45.5915906" lon="12.5979928"><ele>0.0</ele><time>2026-04-25T07:49:01.844Z</time></trkpt><trkpt lat="45.591668" lon="12.5979557"><ele>0.0</ele><time>2026-04-25T07:49:02.837Z</time></trkpt><trkpt lat="45.5917474" lon="12.5979492"><ele>0.0</ele><time>2026-04-25T07:49:03.821Z</time></trkpt><trkpt lat="45.5918157" lon="12.5979492"><ele>0.0</ele><time>2026-04-25T07:49:04.827Z</time></trkpt><trkpt lat="45.5918787" lon="12.5979457"><ele>0.0</ele><time>2026-04-25T07:49:05.834Z</time></trkpt><trkpt lat="45.5919983" lon="12.597916"><ele>0.16666666666666666</ele><time>2026-04-25T07:49:07.827Z</time></trkpt><trkpt lat="45.5920679" lon="12.597886"><ele>0.3333333333333333</ele><time>2026-04-25T07:49:08.817Z</time></trkpt><trkpt lat="45.5921337" lon="12.5978524"><ele>0.5</ele><time>2026-04-25T07:49:09.822Z</time></trkpt><trkpt lat="45.5922396" lon="12.5977835"><ele>0.6666666666666666</ele><time>2026-04-25T07:49:11.822Z</time></trkpt><trkpt lat="45.5923223" lon="12.5977237"><ele>0.8333333333333333</ele><time>2026-04-25T07:49:13.822Z</time></trkpt><trkpt lat="45.5923822" lon="12.5976764"><ele>1.0</ele><time>2026-04-25T07:49:15.832Z</time></trkpt><trkpt lat="45.5924666" lon="12.5976491"><ele>1.0</ele><time>2026-04-25T07:49:18.829Z</time></trkpt><trkpt lat="45.5925483" lon="12.5975958"><ele>1.0</ele><time>2026-04-25T07:49:20.819Z</time></trkpt><trkpt lat="45.5926623" lon="12.5975714"><ele>1.0</ele><time>2026-04-25T07:49:22.821Z</time></trkpt><trkpt lat="45.5927606" lon="12.5975597"><ele>1.0</ele><time>2026-04-25T07:49:24.819Z</time></trkpt><trkpt lat="45.592839" lon="12.5974225"><ele>1.0</ele><time>2026-04-25T07:49:26.822Z</time></trkpt><trkpt lat="45.5928323" lon="12.5973274"><ele>0.9999999999999999</ele><time>2026-04-25T07:49:27.823Z</time></trkpt><trkpt lat="45.592746" lon="12.5972148"><ele>1.0</ele><time>2026-04-25T07:49:29.83Z</time></trkpt><trkpt lat="45.5926879" lon="12.59718"><ele>1.0</ele><time>2026-04-25T07:49:30.821Z</time></trkpt><trkpt lat="45.5926268" lon="12.5971399"><ele>1.0</ele><time>2026-04-25T07:49:31.825Z</time></trkpt><trkpt lat="45.5925674" lon="12.5970436"><ele>0.9999999999999999</ele><time>2026-04-25T07:49:32.847Z</time></trkpt><trkpt lat="45.5925201" lon="12.596932"><ele>1.0</ele><time>2026-04-25T07:49:33.818Z</time></trkpt><trkpt lat="45.5924829" lon="12.5968091"><ele>0.8</ele><time>2026-04-25T07:49:34.835Z</time></trkpt><trkpt lat="45.5924398" lon="12.5966886"><ele>0.6000000000000001</ele><time>2026-04-25T07:49:35.819Z</time></trkpt><trkpt lat="45.5923949" lon="12.5965806"><ele>0.4</ele><time>2026-04-25T07:49:36.83Z</time></trkpt><trkpt lat="45.592346" lon="12.5964636"><ele>0.2</ele><time>2026-04-25T07:49:37.822Z</time></trkpt><trkpt lat="45.5923" lon="12.5963356"><ele>0.0</ele><time>2026-04-25T07:49:38.821Z</time></trkpt><trkpt lat="45.5922501" lon="12.5962044"><ele>0.0</ele><time>2026-04-25T07:49:39.819Z</time></trkpt><trkpt lat="45.5921933" lon="12.5960667"><ele>0.0</ele><time>2026-04-25T07:49:40.82Z</time></trkpt><trkpt lat="45.5921386" lon="12.5959394"><ele>0.0</ele><time>2026-04-25T07:49:41.831Z</time></trkpt><trkpt lat="45.5920923" lon="12.5958261"><ele>0.0</ele><time>2026-04-25T07:49:42.823Z</time></trkpt><trkpt lat="45.5920427" lon="12.5957057"><ele>0.0</ele><time>2026-04-25T07:49:43.83Z</time></trkpt><trkpt lat="45.59199" lon="12.5955887"><ele>0.16666666666666666</ele><time>2026-04-25T07:49:44.824Z</time></trkpt><trkpt lat="45.591956" lon="12.59548"><ele>0.3333333333333333</ele><time>2026-04-25T07:49:45.823Z</time></trkpt><trkpt lat="45.591929" lon="12.5953798"><ele>0.5</ele><time>2026-04-25T07:49:46.829Z</time></trkpt><trkpt lat="45.5919201" lon="12.5952859"><ele>0.6666666666666666</ele><time>2026-04-25T07:49:47.822Z</time></trkpt><trkpt lat="45.5919182" lon="12.595135"><ele>0.8333333333333333</ele><time>2026-04-25T07:49:49.826Z</time></trkpt><trkpt lat="45.5919293" lon="12.5950439"><ele>1.0</ele><time>2026-04-25T07:49:50.83Z</time></trkpt><trkpt lat="45.5919497" lon="12.5949346"><ele>1.0</ele><time>2026-04-25T07:49:51.816Z</time></trkpt><trkpt lat="45.5919933" lon="12.5948221"><ele>1.0</ele><time>2026-04-25T07:49:52.83Z</time></trkpt><trkpt lat="45.5920416" lon="12.5946919"><ele>1.0</ele><time>2026-04-25T07:49:53.818Z</time></trkpt><trkpt lat="45.592088" lon="12.5945524"><ele>1.0</ele><time>2026-04-25T07:49:54.831Z</time></trkpt><trkpt lat="45.5921228" lon="12.5944107"><ele>1.0</ele><time>2026-04-25T07:49:55.816Z</time></trkpt><trkpt lat="45.5921538" lon="12.5942736"><ele>0.20000000000000007</ele><time>2026-04-25T07:49:56.826Z</time></trkpt><trkpt lat="45.592201" lon="12.5941466"><ele>-0.5999999999999999</ele><time>2026-04-25T07:49:57.832Z</time></trkpt><trkpt lat="45.5922817" lon="12.5940432"><ele>-1.4</ele><time>2026-04-25T07:49:58.823Z</time></trkpt><trkpt lat="45.5923853" lon="12.5939721"><ele>-2.1999999999999997</ele><time>2026-04-25T07:49:59.828Z</time></trkpt><trkpt lat="45.5924948" lon="12.5939112"><ele>-3.0</ele><time>2026-04-25T07:50:00.819Z</time></trkpt><trkpt lat="45.5926233" lon="12.5938624"><ele>-3.0</ele><time>2026-04-25T07:50:01.824Z</time></trkpt><trkpt lat="45.5927694" lon="12.5938264"><ele>-3.0</ele><time>2026-04-25T07:50:02.83Z</time></trkpt><trkpt lat="45.5929142" lon="12.593796"><ele>-3.0</ele><time>2026-04-25T07:50:03.829Z</time></trkpt><trkpt lat="45.5930542" lon="12.5937633"><ele>-3.0</ele><time>2026-04-25T07:50:04.831Z</time></trkpt><trkpt lat="45.5931902" lon="12.5937201"><ele>-2.6666666666666665</ele><time>2026-04-25T07:50:05.823Z</time></trkpt><trkpt lat="45.5933451" lon="12.59368"><ele>-2.333333333333333</ele><time>2026-04-25T07:50:06.826Z</time></trkpt><trkpt lat="45.5935105" lon="12.5936405"><ele>-2.0</ele><time>2026-04-25T07:50:07.826Z</time></trkpt><trkpt lat="45.593678" lon="12.5936001"><ele>-1.6666666666666665</ele><time>2026-04-25T07:50:08.824Z</time></trkpt><trkpt lat="45.5938446" lon="12.593556"><ele>-1.3333333333333333</ele><time>2026-04-25T07:50:09.828Z</time></trkpt><trkpt lat="45.5940051" lon="12.5935087"><ele>-1.0</ele><time>2026-04-25T07:50:10.829Z</time></trkpt><trkpt lat="45.5941657" lon="12.5934607"><ele>-1.0</ele><time>2026-04-25T07:50:11.817Z</time></trkpt><trkpt lat="45.594333" lon="12.5934094"><ele>-1.0</ele><time>2026-04-25T07:50:12.821Z</time></trkpt><trkpt lat="45.5944979" lon="12.5933583"><ele>-1.0</ele><time>2026-04-25T07:50:13.824Z</time></trkpt><trkpt lat="45.5946617" lon="12.593317"><ele>-0.6666666666666666</ele><time>2026-04-25T07:50:14.832Z</time></trkpt><trkpt lat="45.5948213" lon="12.5932824"><ele>-0.3333333333333333</ele><time>2026-04-25T07:50:15.82Z</time></trkpt><trkpt lat="45.5949731" lon="12.5932432"><ele>0.0</ele><time>2026-04-25T07:50:16.834Z</time></trkpt><trkpt lat="45.5951263" lon="12.5932022"><ele>0.0</ele><time>2026-04-25T07:50:17.82Z</time></trkpt><trkpt lat="45.5952893" lon="12.5931587"><ele>0.0</ele><time>2026-04-25T07:50:18.827Z</time></trkpt><trkpt lat="45.5954521" lon="12.5931131"><ele>0.0</ele><time>2026-04-25T07:50:19.827Z</time></trkpt><trkpt lat="45.5956188" lon="12.5930856"><ele>-0.3333333333333333</ele><time>2026-04-25T07:50:20.825Z</time></trkpt><trkpt lat="45.5957764" lon="12.593066"><ele>-0.6666666666666666</ele><time>2026-04-25T07:50:21.818Z</time></trkpt><trkpt lat="45.5959405" lon="12.5930536"><ele>-1.0</ele><time>2026-04-25T07:50:22.823Z</time></trkpt><trkpt lat="45.5961068" lon="12.5930529"><ele>-0.6666666666666666</ele><time>2026-04-25T07:50:23.828Z</time></trkpt><trkpt lat="45.5962734" lon="12.5930593"><ele>-0.3333333333333333</ele><time>2026-04-25T07:50:24.833Z</time></trkpt><trkpt lat="45.596444" lon="12.5930679"><ele>0.0</ele><time>2026-04-25T07:50:25.838Z</time></trkpt><trkpt lat="45.5966143" lon="12.5930873"><ele>0.0</ele><time>2026-04-25T07:50:26.834Z</time></trkpt><trkpt lat="45.5967809" lon="12.5931173"><ele>0.0</ele><time>2026-04-25T07:50:27.828Z</time></trkpt><trkpt lat="45.5969407" lon="12.5931597"><ele>0.0</ele><time>2026-04-25T07:50:28.827Z</time></trkpt><trkpt lat="45.5971088" lon="12.5932027"><ele>0.0</ele><time>2026-04-25T07:50:29.822Z</time></trkpt><trkpt lat="45.5972752" lon="12.5932532"><ele>0.0</ele><time>2026-04-25T07:50:30.818Z</time></trkpt><trkpt lat="45.597445" lon="12.5932978"><ele>0.0</ele><time>2026-04-25T07:50:31.829Z</time></trkpt><trkpt lat="45.5976109" lon="12.5933497"><ele>0.0</ele><time>2026-04-25T07:50:32.83Z</time></trkpt><trkpt lat="45.5977721" lon="12.5933969"><ele>0.0</ele><time>2026-04-25T07:50:33.826Z</time></trkpt><trkpt lat="45.59793" lon="12.5934406"><ele>0.0</ele><time>2026-04-25T07:50:34.827Z</time></trkpt><trkpt lat="45.5980766" lon="12.5934809"><ele>0.0</ele><time>2026-04-25T07:50:35.845Z</time></trkpt><trkpt lat="45.5982181" lon="12.5935301"><ele>0.0</ele><time>2026-04-25T07:50:36.822Z</time></trkpt><trkpt lat="45.5983615" lon="12.5935774"><ele>0.0</ele><time>2026-04-25T07:50:37.823Z</time></trkpt><trkpt lat="45.59851" lon="12.5936241"><ele>0.0</ele><time>2026-04-25T07:50:38.821Z</time></trkpt><trkpt lat="45.5986594" lon="12.5936764"><ele>0.3333333333333333</ele><time>2026-04-25T07:50:39.824Z</time></trkpt><trkpt lat="45.598819" lon="12.5937269"><ele>0.6666666666666666</ele><time>2026-04-25T07:50:40.817Z</time></trkpt><trkpt lat="45.5989833" lon="12.5937715"><ele>1.0</ele><time>2026-04-25T07:50:41.833Z</time></trkpt><trkpt lat="45.5991463" lon="12.5938083"><ele>1.0</ele><time>2026-04-25T07:50:42.824Z</time></trkpt><trkpt lat="45.5993082" lon="12.5938398"><ele>1.0</ele><time>2026-04-25T07:50:43.822Z</time></trkpt><trkpt lat="45.5994588" lon="12.5938906"><ele>1.0</ele><time>2026-04-25T07:50:44.817Z</time></trkpt><trkpt lat="45.5995979" lon="12.5939334"><ele>0.75</ele><time>2026-04-25T07:50:45.82Z</time></trkpt><trkpt lat="45.5997298" lon="12.5939725"><ele>0.5</ele><time>2026-04-25T07:50:46.823Z</time></trkpt><trkpt lat="45.5998674" lon="12.5940102"><ele>0.25</ele><time>2026-04-25T07:50:47.824Z</time></trkpt><trkpt lat="45.6000048" lon="12.5940489"><ele>0.0</ele><time>2026-04-25T07:50:48.832Z</time></trkpt><trkpt lat="45.6001413" lon="12.594094"><ele>0.0</ele><time>2026-04-25T07:50:49.84Z</time></trkpt><trkpt lat="45.6002796" lon="12.5941362"><ele>0.0</ele><time>2026-04-25T07:50:50.811Z</time></trkpt><trkpt lat="45.6004241" lon="12.5941763"><ele>0.0</ele><time>2026-04-25T07:50:51.827Z</time></trkpt><trkpt lat="45.6005838" lon="12.5942154"><ele>0.6666666666666666</ele><time>2026-04-25T07:50:52.819Z</time></trkpt><trkpt lat="45.6007452" lon="12.5942595"><ele>1.3333333333333333</ele><time>2026-04-25T07:50:53.833Z</time></trkpt><trkpt lat="45.6009084" lon="12.5943152"><ele>2.0</ele><time>2026-04-25T07:50:54.819Z</time></trkpt><trkpt lat="45.6010716" lon="12.5943646"><ele>1.6666666666666665</ele><time>2026-04-25T07:50:55.817Z</time></trkpt><trkpt lat="45.6012396" lon="12.5944211"><ele>1.3333333333333333</ele><time>2026-04-25T07:50:56.825Z</time></trkpt><trkpt lat="45.6014085" lon="12.5944808"><ele>1.0</ele><time>2026-04-25T07:50:57.821Z</time></trkpt><trkpt lat="45.6015771" lon="12.5945291"><ele>1.0</ele><time>2026-04-25T07:50:58.82Z</time></trkpt><trkpt lat="45.601755" lon="12.5945715"><ele>1.0</ele><time>2026-04-25T07:50:59.816Z</time></trkpt><trkpt lat="45.6019383" lon="12.5946204"><ele>1.0</ele><time>2026-04-25T07:51:00.829Z</time></trkpt><trkpt lat="45.6021281" lon="12.5946671"><ele>1.0</ele><time>2026-04-25T07:51:01.834Z</time></trkpt><trkpt lat="45.6023229" lon="12.5947161"><ele>1.0</ele><time>2026-04-25T07:51:02.826Z</time></trkpt><trkpt lat="45.6025162" lon="12.5947695"><ele>1.0</ele><time>2026-04-25T07:51:03.821Z</time></trkpt><trkpt lat="45.6027051" lon="12.5948328"><ele>1.3333333333333333</ele><time>2026-04-25T07:51:04.821Z</time></trkpt><trkpt lat="45.602897" lon="12.594894"><ele>1.6666666666666665</ele><time>2026-04-25T07:51:05.825Z</time></trkpt><trkpt lat="45.6030919" lon="12.5949555"><ele>2.0</ele><time>2026-04-25T07:51:06.829Z</time></trkpt><trkpt lat="45.6032846" lon="12.5950139"><ele>2.0</ele><time>2026-04-25T07:51:07.833Z</time></trkpt><trkpt lat="45.6034827" lon="12.5950721"><ele>2.0</ele><time>2026-04-25T07:51:08.84Z</time></trkpt><trkpt lat="45.6036813" lon="12.5951213"><ele>2.0</ele><time>2026-04-25T07:51:09.827Z</time></trkpt><trkpt lat="45.6038733" lon="12.5951731"><ele>1.0</ele><time>2026-04-25T07:51:10.818Z</time></trkpt><trkpt lat="45.6040587" lon="12.5952206"><ele>0.0</ele><time>2026-04-25T07:51:11.827Z</time></trkpt><trkpt lat="45.6042317" lon="12.5952727"><ele>-1.0</ele><time>2026-04-25T07:51:12.834Z</time></trkpt><trkpt lat="45.6044044" lon="12.5953317"><ele>-0.6666666666666666</ele><time>2026-04-25T07:51:13.836Z</time></trkpt><trkpt lat="45.6045785" lon="12.5953887"><ele>-0.3333333333333333</ele><time>2026-04-25T07:51:14.837Z</time></trkpt><trkpt lat="45.6047492" lon="12.5954323"><ele>0.0</ele><time>2026-04-25T07:51:15.823Z</time></trkpt><trkpt lat="45.6049254" lon="12.5954757"><ele>0.0</ele><time>2026-04-25T07:51:16.83Z</time></trkpt><trkpt lat="45.605094" lon="12.5955192"><ele>0.0</ele><time>2026-04-25T07:51:17.823Z</time></trkpt><trkpt lat="45.6052566" lon="12.595569"><ele>0.0</ele><time>2026-04-25T07:51:18.83Z</time></trkpt><trkpt lat="45.6054279" lon="12.5956153"><ele>1.3333333333333333</ele><time>2026-04-25T07:51:19.834Z</time></trkpt><trkpt lat="45.605598" lon="12.5956672"><ele>2.6666666666666665</ele><time>2026-04-25T07:51:20.828Z</time></trkpt><trkpt lat="45.6057666" lon="12.5957198"><ele>4.0</ele><time>2026-04-25T07:51:21.836Z</time></trkpt><trkpt lat="45.6059371" lon="12.5957773"><ele>4.0</ele><time>2026-04-25T07:51:22.822Z</time></trkpt><trkpt lat="45.6061002" lon="12.5958244"><ele>4.0</ele><time>2026-04-25T07:51:23.838Z</time></trkpt><trkpt lat="45.6062635" lon="12.5958692"><ele>4.0</ele><time>2026-04-25T07:51:24.831Z</time></trkpt><trkpt lat="45.6064157" lon="12.5959182"><ele>3.6666666666666665</ele><time>2026-04-25T07:51:25.825Z</time></trkpt><trkpt lat="45.6065721" lon="12.595958"><ele>3.333333333333333</ele><time>2026-04-25T07:51:26.823Z</time></trkpt><trkpt lat="45.6067315" lon="12.5960052"><ele>3.0</ele><time>2026-04-25T07:51:27.839Z</time></trkpt><trkpt lat="45.6068927" lon="12.5960537"><ele>1.6666666666666667</ele><time>2026-04-25T07:51:28.834Z</time></trkpt><trkpt lat="45.6070558" lon="12.5960979"><ele>0.33333333333333337</ele><time>2026-04-25T07:51:29.824Z</time></trkpt><trkpt lat="45.6072139" lon="12.5961384"><ele>-1.0</ele><time>2026-04-25T07:51:30.832Z</time></trkpt><trkpt lat="45.6073605" lon="12.5961774"><ele>-1.3333333333333333</ele><time>2026-04-25T07:51:31.83Z</time></trkpt><trkpt lat="45.6075054" lon="12.5962189"><ele>-1.6666666666666665</ele><time>2026-04-25T07:51:32.823Z</time></trkpt><trkpt lat="45.6076607" lon="12.5962613"><ele>-2.0</ele><time>2026-04-25T07:51:33.837Z</time></trkpt><trkpt lat="45.607818" lon="12.5963077"><ele>-2.0</ele><time>2026-04-25T07:51:34.822Z</time></trkpt><trkpt lat="45.6079837" lon="12.5963499"><ele>-2.0</ele><time>2026-04-25T07:51:35.824Z</time></trkpt><trkpt lat="45.6081383" lon="12.5963969"><ele>-2.0</ele><time>2026-04-25T07:51:36.822Z</time></trkpt><trkpt lat="45.6082944" lon="12.5964353"><ele>-2.0</ele><time>2026-04-25T07:51:37.826Z</time></trkpt><trkpt lat="45.6084412" lon="12.5964797"><ele>-2.0</ele><time>2026-04-25T07:51:38.831Z</time></trkpt><trkpt lat="45.6085861" lon="12.5965267"><ele>-2.0</ele><time>2026-04-25T07:51:39.832Z</time></trkpt><trkpt lat="45.6087383" lon="12.5965714"><ele>-1.3333333333333333</ele><time>2026-04-25T07:51:40.831Z</time></trkpt><trkpt lat="45.6088985" lon="12.5966157"><ele>-0.6666666666666666</ele><time>2026-04-25T07:51:41.818Z</time></trkpt><trkpt lat="45.6090623" lon="12.5966653"><ele>0.0</ele><time>2026-04-25T07:51:42.827Z</time></trkpt><trkpt lat="45.6092232" lon="12.5967161"><ele>0.0</ele><time>2026-04-25T07:51:43.825Z</time></trkpt><trkpt lat="45.6093871" lon="12.5967625"><ele>0.0</ele><time>2026-04-25T07:51:44.827Z</time></trkpt><trkpt lat="45.6095512" lon="12.5968102"><ele>0.0</ele><time>2026-04-25T07:51:45.831Z</time></trkpt><trkpt lat="45.6097137" lon="12.5968552"><ele>-0.3333333333333333</ele><time>2026-04-25T07:51:46.834Z</time></trkpt><trkpt lat="45.6098784" lon="12.5969024"><ele>-0.6666666666666666</ele><time>2026-04-25T07:51:47.818Z</time></trkpt><trkpt lat="45.6100362" lon="12.5969505"><ele>-1.0</ele><time>2026-04-25T07:51:48.825Z</time></trkpt><trkpt lat="45.6101918" lon="12.5969981"><ele>-1.0</ele><time>2026-04-25T07:51:49.823Z</time></trkpt><trkpt lat="45.6103484" lon="12.5970476"><ele>-1.0</ele><time>2026-04-25T07:51:50.822Z</time></trkpt><trkpt lat="45.6105073" lon="12.5970973"><ele>-1.0</ele><time>2026-04-25T07:51:51.835Z</time></trkpt><trkpt lat="45.6106664" lon="12.5971372"><ele>-1.0</ele><time>2026-04-25T07:51:52.817Z</time></trkpt><trkpt lat="45.6108263" lon="12.5971829"><ele>-1.0</ele><time>2026-04-25T07:51:53.822Z</time></trkpt><trkpt lat="45.6109901" lon="12.5972303"><ele>-1.0</ele><time>2026-04-25T07:51:54.825Z</time></trkpt><trkpt lat="45.6111489" lon="12.5972748"><ele>-1.0</ele><time>2026-04-25T07:51:55.833Z</time></trkpt><trkpt lat="45.6113096" lon="12.5973173"><ele>-1.0</ele><time>2026-04-25T07:51:56.826Z</time></trkpt><trkpt lat="45.6114702" lon="12.5973611"><ele>-1.0</ele><time>2026-04-25T07:51:57.829Z</time></trkpt><trkpt lat="45.6116283" lon="12.5974154"><ele>-1.0</ele><time>2026-04-25T07:51:58.832Z</time></trkpt><trkpt lat="45.6117858" lon="12.5974663"><ele>-1.0</ele><time>2026-04-25T07:51:59.818Z</time></trkpt><trkpt lat="45.6119411" lon="12.5975223"><ele>-1.0</ele><time>2026-04-25T07:52:00.817Z</time></trkpt><trkpt lat="45.6121032" lon="12.5975785"><ele>-1.0</ele><time>2026-04-25T07:52:01.819Z</time></trkpt><trkpt lat="45.6122615" lon="12.5976424"><ele>-1.0</ele><time>2026-04-25T07:52:02.829Z</time></trkpt><trkpt lat="45.6124251" lon="12.5977098"><ele>-1.0</ele><time>2026-04-25T07:52:03.818Z</time></trkpt><trkpt lat="45.6125895" lon="12.5977721"><ele>-1.0</ele><time>2026-04-25T07:52:04.817Z</time></trkpt><trkpt lat="45.6127523" lon="12.5978365"><ele>-1.0</ele><time>2026-04-25T07:52:05.821Z</time></trkpt><trkpt lat="45.6129131" lon="12.5979005"><ele>-1.0</ele><time>2026-04-25T07:52:06.819Z</time></trkpt><trkpt lat="45.613069" lon="12.5979659"><ele>-1.0</ele><time>2026-04-25T07:52:07.817Z</time></trkpt><trkpt lat="45.6132231" lon="12.5980347"><ele>-1.0</ele><time>2026-04-25T07:52:08.816Z</time></trkpt><trkpt lat="45.6133785" lon="12.5981065"><ele>-1.0</ele><time>2026-04-25T07:52:09.838Z</time></trkpt><trkpt lat="45.6135347" lon="12.5981876"><ele>-1.0</ele><time>2026-04-25T07:52:10.826Z</time></trkpt><trkpt lat="45.6136983" lon="12.5982678"><ele>-1.0</ele><time>2026-04-25T07:52:11.82Z</time></trkpt><trkpt lat="45.6138535" lon="12.5983419"><ele>-1.0</ele><time>2026-04-25T07:52:12.823Z</time></trkpt><trkpt lat="45.6140136" lon="12.5984285"><ele>-1.0</ele><time>2026-04-25T07:52:13.816Z</time></trkpt><trkpt lat="45.6141797" lon="12.5985134"><ele>-1.0</ele><time>2026-04-25T07:52:14.834Z</time></trkpt><trkpt lat="45.6143417" lon="12.598612"><ele>-1.0</ele><time>2026-04-25T07:52:15.82Z</time></trkpt><trkpt lat="45.6145106" lon="12.5987071"><ele>-1.3333333333333333</ele><time>2026-04-25T07:52:16.83Z</time></trkpt><trkpt lat="45.6146786" lon="12.5988053"><ele>-1.6666666666666665</ele><time>2026-04-25T07:52:17.836Z</time></trkpt><trkpt lat="45.6148478" lon="12.5989055"><ele>-2.0</ele><time>2026-04-25T07:52:18.817Z</time></trkpt><trkpt lat="45.6150219" lon="12.5990048"><ele>-2.0</ele><time>2026-04-25T07:52:19.831Z</time></trkpt><trkpt lat="45.6152012" lon="12.5991012"><ele>-2.0</ele><time>2026-04-25T07:52:20.827Z</time></trkpt><trkpt lat="45.6153815" lon="12.5992018"><ele>-2.0</ele><time>2026-04-25T07:52:21.821Z</time></trkpt><trkpt lat="45.6155598" lon="12.599306"><ele>-2.0</ele><time>2026-04-25T07:52:22.823Z</time></trkpt><trkpt lat="45.6157406" lon="12.5994142"><ele>-2.0</ele><time>2026-04-25T07:52:23.822Z</time></trkpt><trkpt lat="45.61592" lon="12.5995206"><ele>-2.0</ele><time>2026-04-25T07:52:24.821Z</time></trkpt><trkpt lat="45.6160974" lon="12.5996217"><ele>-2.0</ele><time>2026-04-25T07:52:25.827Z</time></trkpt><trkpt lat="45.6162765" lon="12.5997311"><ele>-2.0</ele><time>2026-04-25T07:52:26.831Z</time></trkpt><trkpt lat="45.6164559" lon="12.5998372"><ele>-2.0</ele><time>2026-04-25T07:52:27.833Z</time></trkpt><trkpt lat="45.6166373" lon="12.5999402"><ele>-2.0</ele><time>2026-04-25T07:52:28.825Z</time></trkpt><trkpt lat="45.6168264" lon="12.6000464"><ele>-2.0</ele><time>2026-04-25T07:52:29.828Z</time></trkpt><trkpt lat="45.61702" lon="12.6001519"><ele>-2.0</ele><time>2026-04-25T07:52:30.823Z</time></trkpt><trkpt lat="45.617211" lon="12.6002595"><ele>-2.0</ele><time>2026-04-25T07:52:31.82Z</time></trkpt><trkpt lat="45.6174016" lon="12.60036"><ele>-2.0</ele><time>2026-04-25T07:52:32.817Z</time></trkpt><trkpt lat="45.6175927" lon="12.6004595"><ele>-2.0</ele><time>2026-04-25T07:52:33.833Z</time></trkpt><trkpt lat="45.6177831" lon="12.600545"><ele>-3.0</ele><time>2026-04-25T07:52:34.821Z</time></trkpt><trkpt lat="45.6179613" lon="12.6006205"><ele>-4.0</ele><time>2026-04-25T07:52:35.816Z</time></trkpt><trkpt lat="45.6181449" lon="12.6006967"><ele>-5.0</ele><time>2026-04-25T07:52:36.818Z</time></trkpt><trkpt lat="45.6183294" lon="12.600768"><ele>-5.0</ele><time>2026-04-25T07:52:37.832Z</time></trkpt><trkpt lat="45.6185068" lon="12.6008331"><ele>-5.0</ele><time>2026-04-25T07:52:38.824Z</time></trkpt><trkpt lat="45.6186911" lon="12.6008984"><ele>-5.0</ele><time>2026-04-25T07:52:39.82Z</time></trkpt><trkpt lat="45.6188777" lon="12.6009552"><ele>-4.333333333333334</ele><time>2026-04-25T07:52:40.825Z</time></trkpt><trkpt lat="45.6190679" lon="12.6010084"><ele>-3.666666666666667</ele><time>2026-04-25T07:52:41.833Z</time></trkpt><trkpt lat="45.6192644" lon="12.6010566"><ele>-3.0</ele><time>2026-04-25T07:52:42.829Z</time></trkpt><trkpt lat="45.6194615" lon="12.6010982"><ele>-2.6666666666666665</ele><time>2026-04-25T07:52:43.829Z</time></trkpt><trkpt lat="45.6196617" lon="12.6011309"><ele>-2.333333333333333</ele><time>2026-04-25T07:52:44.826Z</time></trkpt><trkpt lat="45.6198585" lon="12.601152"><ele>-2.0</ele><time>2026-04-25T07:52:45.823Z</time></trkpt><trkpt lat="45.6200539" lon="12.6011628"><ele>-1.6666666666666665</ele><time>2026-04-25T07:52:46.833Z</time></trkpt><trkpt lat="45.6202435" lon="12.601177"><ele>-1.3333333333333333</ele><time>2026-04-25T07:52:47.825Z</time></trkpt><trkpt lat="45.6204211" lon="12.6011916"><ele>-1.0</ele><time>2026-04-25T07:52:48.824Z</time></trkpt><trkpt lat="45.6205874" lon="12.6011962"><ele>0.0</ele><time>2026-04-25T07:52:49.839Z</time></trkpt><trkpt lat="45.620759" lon="12.601196"><ele>1.0</ele><time>2026-04-25T07:52:50.828Z</time></trkpt><trkpt lat="45.6209298" lon="12.6011897"><ele>2.0</ele><time>2026-04-25T07:52:51.825Z</time></trkpt><trkpt lat="45.6210944" lon="12.6011941"><ele>1.3333333333333333</ele><time>2026-04-25T07:52:52.824Z</time></trkpt><trkpt lat="45.6212587" lon="12.6011939"><ele>0.6666666666666666</ele><time>2026-04-25T07:52:53.825Z</time></trkpt><trkpt lat="45.6214262" lon="12.6012008"><ele>0.0</ele><time>2026-04-25T07:52:54.826Z</time></trkpt><trkpt lat="45.6216006" lon="12.6012052"><ele>0.0</ele><time>2026-04-25T07:52:55.82Z</time></trkpt><trkpt lat="45.6217813" lon="12.6012066"><ele>0.0</ele><time>2026-04-25T07:52:56.828Z</time></trkpt><trkpt lat="45.6219617" lon="12.6012048"><ele>0.0</ele><time>2026-04-25T07:52:57.822Z</time></trkpt><trkpt lat="45.6221453" lon="12.6012081"><ele>0.0</ele><time>2026-04-25T07:52:58.826Z</time></trkpt><trkpt lat="45.6223213" lon="12.6012021"><ele>0.0</ele><time>2026-04-25T07:52:59.82Z</time></trkpt><trkpt lat="45.6224946" lon="12.6012051"><ele>0.0</ele><time>2026-04-25T07:53:00.825Z</time></trkpt><trkpt lat="45.6226586" lon="12.6011976"><ele>0.0</ele><time>2026-04-25T07:53:01.827Z</time></trkpt><trkpt lat="45.6228246" lon="12.6011954"><ele>0.0</ele><time>2026-04-25T07:53:02.824Z</time></trkpt><trkpt lat="45.6229928" lon="12.6012008"><ele>0.0</ele><time>2026-04-25T07:53:03.821Z</time></trkpt><trkpt lat="45.6231609" lon="12.6012195"><ele>0.0</ele><time>2026-04-25T07:53:04.818Z</time></trkpt><trkpt lat="45.6233337" lon="12.6012432"><ele>0.0</ele><time>2026-04-25T07:53:05.828Z</time></trkpt><trkpt lat="45.6235144" lon="12.6012685"><ele>0.0</ele><time>2026-04-25T07:53:06.817Z</time></trkpt><trkpt lat="45.6237012" lon="12.6012993"><ele>-0.3333333333333333</ele><time>2026-04-25T07:53:07.824Z</time></trkpt><trkpt lat="45.623892" lon="12.6013206"><ele>-0.6666666666666666</ele><time>2026-04-25T07:53:08.825Z</time></trkpt><trkpt lat="45.6240836" lon="12.6013597"><ele>-1.0</ele><time>2026-04-25T07:53:09.836Z</time></trkpt><trkpt lat="45.624274" lon="12.6014062"><ele>-1.0</ele><time>2026-04-25T07:53:10.824Z</time></trkpt><trkpt lat="45.6244697" lon="12.6014606"><ele>-1.0</ele><time>2026-04-25T07:53:11.824Z</time></trkpt><trkpt lat="45.624662" lon="12.6015264"><ele>-1.0</ele><time>2026-04-25T07:53:12.825Z</time></trkpt><trkpt lat="45.6248503" lon="12.6015893"><ele>-0.6666666666666666</ele><time>2026-04-25T07:53:13.836Z</time></trkpt><trkpt lat="45.6250326" lon="12.6016591"><ele>-0.3333333333333333</ele><time>2026-04-25T07:53:14.822Z</time></trkpt><trkpt lat="45.6252124" lon="12.6017329"><ele>0.0</ele><time>2026-04-25T07:53:15.823Z</time></trkpt><trkpt lat="45.6253844" lon="12.6018095"><ele>0.0</ele><time>2026-04-25T07:53:16.832Z</time></trkpt><trkpt lat="45.6255545" lon="12.6018912"><ele>0.0</ele><time>2026-04-25T07:53:17.833Z</time></trkpt><trkpt lat="45.6257201" lon="12.6019809"><ele>0.0</ele><time>2026-04-25T07:53:18.83Z</time></trkpt><trkpt lat="45.6258882" lon="12.6020653"><ele>-0.3333333333333333</ele><time>2026-04-25T07:53:19.825Z</time></trkpt><trkpt lat="45.6260545" lon="12.6021561"><ele>-0.6666666666666666</ele><time>2026-04-25T07:53:20.82Z</time></trkpt><trkpt lat="45.6262243" lon="12.6022375"><ele>-1.0</ele><time>2026-04-25T07:53:21.822Z</time></trkpt><trkpt lat="45.6263947" lon="12.602312"><ele>-1.3333333333333333</ele><time>2026-04-25T07:53:22.829Z</time></trkpt><trkpt lat="45.6265647" lon="12.6023913"><ele>-1.6666666666666665</ele><time>2026-04-25T07:53:23.828Z</time></trkpt><trkpt lat="45.6267391" lon="12.6024828"><ele>-2.0</ele><time>2026-04-25T07:53:24.818Z</time></trkpt><trkpt lat="45.6269103" lon="12.6025675"><ele>-1.6666666666666665</ele><time>2026-04-25T07:53:25.829Z</time></trkpt><trkpt lat="45.6270805" lon="12.6026368"><ele>-1.3333333333333333</ele><time>2026-04-25T07:53:26.824Z</time></trkpt><trkpt lat="45.6272456" lon="12.6027022"><ele>-1.0</ele><time>2026-04-25T07:53:27.823Z</time></trkpt><trkpt lat="45.6274186" lon="12.6027546"><ele>-1.0</ele><time>2026-04-25T07:53:28.829Z</time></trkpt><trkpt lat="45.6275795" lon="12.6027999"><ele>-1.0</ele><time>2026-04-25T07:53:29.818Z</time></trkpt><trkpt lat="45.627739" lon="12.6028213"><ele>-1.0</ele><time>2026-04-25T07:53:30.818Z</time></trkpt><trkpt lat="45.6278965" lon="12.6028388"><ele>-0.6666666666666666</ele><time>2026-04-25T07:53:31.833Z</time></trkpt><trkpt lat="45.6280559" lon="12.6028506"><ele>-0.3333333333333333</ele><time>2026-04-25T07:53:32.82Z</time></trkpt><trkpt lat="45.6282187" lon="12.6028569"><ele>0.0</ele><time>2026-04-25T07:53:33.829Z</time></trkpt><trkpt lat="45.6283882" lon="12.6028524"><ele>0.0</ele><time>2026-04-25T07:53:34.823Z</time></trkpt><trkpt lat="45.628556" lon="12.6028403"><ele>0.0</ele><time>2026-04-25T07:53:35.824Z</time></trkpt><trkpt lat="45.6287293" lon="12.6028172"><ele>0.0</ele><time>2026-04-25T07:53:36.823Z</time></trkpt><trkpt lat="45.6289026" lon="12.6027855"><ele>0.6666666666666666</ele><time>2026-04-25T07:53:37.823Z</time></trkpt><trkpt lat="45.6290788" lon="12.6027419"><ele>1.3333333333333333</ele><time>2026-04-25T07:53:38.819Z</time></trkpt><trkpt lat="45.6292557" lon="12.6026881"><ele>2.0</ele><time>2026-04-25T07:53:39.819Z</time></trkpt><trkpt lat="45.6294275" lon="12.6026299"><ele>1.0</ele><time>2026-04-25T07:53:40.824Z</time></trkpt><trkpt lat="45.6295907" lon="12.6025575"><ele>0.0</ele><time>2026-04-25T07:53:41.825Z</time></trkpt><trkpt lat="45.629756" lon="12.6024903"><ele>-1.0</ele><time>2026-04-25T07:53:42.824Z</time></trkpt><trkpt lat="45.6299179" lon="12.6024001"><ele>-1.0</ele><time>2026-04-25T07:53:43.829Z</time></trkpt><trkpt lat="45.6300738" lon="12.6023099"><ele>-1.0</ele><time>2026-04-25T07:53:44.825Z</time></trkpt><trkpt lat="45.6302252" lon="12.6022191"><ele>-1.0</ele><time>2026-04-25T07:53:45.818Z</time></trkpt><trkpt lat="45.6303768" lon="12.6021207"><ele>-1.0</ele><time>2026-04-25T07:53:46.833Z</time></trkpt><trkpt lat="45.6305245" lon="12.602013"><ele>-1.0</ele><time>2026-04-25T07:53:47.815Z</time></trkpt><trkpt lat="45.6306727" lon="12.6018891"><ele>-1.0</ele><time>2026-04-25T07:53:48.82Z</time></trkpt><trkpt lat="45.6308302" lon="12.6017629"><ele>-1.0</ele><time>2026-04-25T07:53:49.832Z</time></trkpt><trkpt lat="45.6309924" lon="12.6016474"><ele>-1.0</ele><time>2026-04-25T07:53:50.823Z</time></trkpt><trkpt lat="45.631154" lon="12.6015297"><ele>-1.0</ele><time>2026-04-25T07:53:51.825Z</time></trkpt><trkpt lat="45.6313193" lon="12.601414"><ele>-1.0</ele><time>2026-04-25T07:53:52.827Z</time></trkpt><trkpt lat="45.631482" lon="12.6012914"><ele>-1.0</ele><time>2026-04-25T07:53:53.825Z</time></trkpt><trkpt lat="45.6316422" lon="12.6011734"><ele>-1.0</ele><time>2026-04-25T07:53:54.822Z</time></trkpt><trkpt lat="45.6317937" lon="12.6010589"><ele>-1.0</ele><time>2026-04-25T07:53:55.816Z</time></trkpt><trkpt lat="45.6319364" lon="12.600955"><ele>-1.0</ele><time>2026-04-25T07:53:56.812Z</time></trkpt><trkpt lat="45.632077" lon="12.6008512"><ele>-1.0</ele><time>2026-04-25T07:53:57.826Z</time></trkpt><trkpt lat="45.6322211" lon="12.6007408"><ele>-0.6666666666666666</ele><time>2026-04-25T07:53:58.824Z</time></trkpt><trkpt lat="45.6323627" lon="12.6006309"><ele>-0.3333333333333333</ele><time>2026-04-25T07:53:59.823Z</time></trkpt><trkpt lat="45.632504" lon="12.6005142"><ele>0.0</ele><time>2026-04-25T07:54:00.821Z</time></trkpt><trkpt lat="45.6326553" lon="12.6004049"><ele>0.0</ele><time>2026-04-25T07:54:01.822Z</time></trkpt><trkpt lat="45.6328073" lon="12.6002873"><ele>0.0</ele><time>2026-04-25T07:54:02.814Z</time></trkpt><trkpt lat="45.6329452" lon="12.600184"><ele>0.0</ele><time>2026-04-25T07:54:03.822Z</time></trkpt><trkpt lat="45.6330747" lon="12.6000977"><ele>0.0</ele><time>2026-04-25T07:54:04.814Z</time></trkpt><trkpt lat="45.6332017" lon="12.6000255"><ele>0.0</ele><time>2026-04-25T07:54:05.824Z</time></trkpt><trkpt lat="45.6333228" lon="12.5999591"><ele>0.0</ele><time>2026-04-25T07:54:06.819Z</time></trkpt><trkpt lat="45.6334547" lon="12.5999017"><ele>0.0</ele><time>2026-04-25T07:54:07.816Z</time></trkpt><trkpt lat="45.6335922" lon="12.5998548"><ele>0.3333333333333333</ele><time>2026-04-25T07:54:08.814Z</time></trkpt><trkpt lat="45.6337407" lon="12.59981"><ele>0.6666666666666666</ele><time>2026-04-25T07:54:09.816Z</time></trkpt><trkpt lat="45.6338942" lon="12.5997672"><ele>1.0</ele><time>2026-04-25T07:54:10.825Z</time></trkpt><trkpt lat="45.6340485" lon="12.5997247"><ele>1.0</ele><time>2026-04-25T07:54:11.822Z</time></trkpt><trkpt lat="45.6342134" lon="12.5996955"><ele>1.0</ele><time>2026-04-25T07:54:12.823Z</time></trkpt><trkpt lat="45.634377" lon="12.5996818"><ele>1.0</ele><time>2026-04-25T07:54:13.815Z</time></trkpt><trkpt lat="45.6345405" lon="12.5996768"><ele>0.6666666666666666</ele><time>2026-04-25T07:54:14.824Z</time></trkpt><trkpt lat="45.634706" lon="12.5996872"><ele>0.3333333333333333</ele><time>2026-04-25T07:54:15.82Z</time></trkpt><trkpt lat="45.6348765" lon="12.5997112"><ele>0.0</ele><time>2026-04-25T07:54:16.816Z</time></trkpt><trkpt lat="45.6350442" lon="12.5997466"><ele>0.0</ele><time>2026-04-25T07:54:17.822Z</time></trkpt><trkpt lat="45.635199" lon="12.5997851"><ele>0.0</ele><time>2026-04-25T07:54:18.828Z</time></trkpt><trkpt lat="45.6353427" lon="12.5998268"><ele>0.0</ele><time>2026-04-25T07:54:19.826Z</time></trkpt><trkpt lat="45.6354778" lon="12.5998775"><ele>0.0</ele><time>2026-04-25T07:54:20.844Z</time></trkpt><trkpt lat="45.6356104" lon="12.5999393"><ele>0.3333333333333333</ele><time>2026-04-25T07:54:21.821Z</time></trkpt><trkpt lat="45.6357445" lon="12.6000129"><ele>0.6666666666666666</ele><time>2026-04-25T07:54:22.824Z</time></trkpt><trkpt lat="45.6358862" lon="12.6001015"><ele>1.0</ele><time>2026-04-25T07:54:23.823Z</time></trkpt><trkpt lat="45.6360378" lon="12.6001931"><ele>0.6666666666666666</ele><time>2026-04-25T07:54:24.82Z</time></trkpt><trkpt lat="45.6361947" lon="12.6002815"><ele>0.3333333333333333</ele><time>2026-04-25T07:54:25.828Z</time></trkpt><trkpt lat="45.6363544" lon="12.6003786"><ele>0.0</ele><time>2026-04-25T07:54:26.827Z</time></trkpt><trkpt lat="45.6365126" lon="12.6004841"><ele>0.0</ele><time>2026-04-25T07:54:27.822Z</time></trkpt><trkpt lat="45.6366594" lon="12.6005959"><ele>0.0</ele><time>2026-04-25T07:54:28.823Z</time></trkpt><trkpt lat="45.6368012" lon="12.6007176"><ele>0.0</ele><time>2026-04-25T07:54:29.819Z</time></trkpt><trkpt lat="45.6369423" lon="12.6008516"><ele>0.0</ele><time>2026-04-25T07:54:30.82Z</time></trkpt><trkpt lat="45.6370765" lon="12.6009989"><ele>0.0</ele><time>2026-04-25T07:54:31.822Z</time></trkpt><trkpt lat="45.6372128" lon="12.6011564"><ele>0.0</ele><time>2026-04-25T07:54:32.819Z</time></trkpt><trkpt lat="45.6373467" lon="12.6013211"><ele>0.0</ele><time>2026-04-25T07:54:33.822Z</time></trkpt><trkpt lat="45.6374755" lon="12.6014873"><ele>0.0</ele><time>2026-04-25T07:54:34.827Z</time></trkpt><trkpt lat="45.6376022" lon="12.6016421"><ele>0.0</ele><time>2026-04-25T07:54:35.814Z</time></trkpt><trkpt lat="45.6377374" lon="12.6017861"><ele>-0.3333333333333333</ele><time>2026-04-25T07:54:36.817Z</time></trkpt><trkpt lat="45.6378802" lon="12.6019074"><ele>-0.6666666666666666</ele><time>2026-04-25T07:54:37.818Z</time></trkpt><trkpt lat="45.6380287" lon="12.6020133"><ele>-1.0</ele><time>2026-04-25T07:54:38.81Z</time></trkpt><trkpt lat="45.6381836" lon="12.6020941"><ele>-1.0</ele><time>2026-04-25T07:54:39.825Z</time></trkpt><trkpt lat="45.6383394" lon="12.6021545"><ele>-1.0</ele><time>2026-04-25T07:54:40.825Z</time></trkpt><trkpt lat="45.6384965" lon="12.6021881"><ele>-1.0</ele><time>2026-04-25T07:54:41.817Z</time></trkpt><trkpt lat="45.6386571" lon="12.6022066"><ele>-0.6666666666666666</ele><time>2026-04-25T07:54:42.827Z</time></trkpt><trkpt lat="45.6388285" lon="12.602202"><ele>-0.3333333333333333</ele><time>2026-04-25T07:54:43.823Z</time></trkpt><trkpt lat="45.6389952" lon="12.6021804"><ele>0.0</ele><time>2026-04-25T07:54:44.815Z</time></trkpt><trkpt lat="45.6391596" lon="12.6021455"><ele>0.0</ele><time>2026-04-25T07:54:45.818Z</time></trkpt><trkpt lat="45.6393162" lon="12.6020862"><ele>0.0</ele><time>2026-04-25T07:54:46.825Z</time></trkpt><trkpt lat="45.6394565" lon="12.6020152"><ele>0.0</ele><time>2026-04-25T07:54:47.825Z</time></trkpt><trkpt lat="45.6395831" lon="12.6019165"><ele>0.0</ele><time>2026-04-25T07:54:48.828Z</time></trkpt><trkpt lat="45.639712" lon="12.6018069"><ele>0.0</ele><time>2026-04-25T07:54:49.828Z</time></trkpt><trkpt lat="45.6398412" lon="12.6016853"><ele>0.0</ele><time>2026-04-25T07:54:50.82Z</time></trkpt><trkpt lat="45.6399688" lon="12.6015504"><ele>0.0</ele><time>2026-04-25T07:54:51.829Z</time></trkpt><trkpt lat="45.6401032" lon="12.6013958"><ele>0.0</ele><time>2026-04-25T07:54:52.822Z</time></trkpt><trkpt lat="45.6402316" lon="12.6012341"><ele>0.0</ele><time>2026-04-25T07:54:53.824Z</time></trkpt><trkpt lat="45.6403542" lon="12.6010704"><ele>-0.6666666666666666</ele><time>2026-04-25T07:54:54.831Z</time></trkpt><trkpt lat="45.6404719" lon="12.6009009"><ele>-1.3333333333333333</ele><time>2026-04-25T07:54:55.83Z</time></trkpt><trkpt lat="45.6405827" lon="12.6007356"><ele>-2.0</ele><time>2026-04-25T07:54:56.827Z</time></trkpt><trkpt lat="45.6406916" lon="12.6005877"><ele>-2.0</ele><time>2026-04-25T07:54:57.82Z</time></trkpt><trkpt lat="45.6408007" lon="12.6004383"><ele>-2.0</ele><time>2026-04-25T07:54:58.826Z</time></trkpt><trkpt lat="45.6409125" lon="12.6002891"><ele>-2.0</ele><time>2026-04-25T07:54:59.821Z</time></trkpt><trkpt lat="45.6410219" lon="12.6001382"><ele>-1.25</ele><time>2026-04-25T07:55:00.823Z</time></trkpt><trkpt lat="45.6411344" lon="12.5999845"><ele>-0.5</ele><time>2026-04-25T07:55:01.82Z</time></trkpt><trkpt lat="45.6412442" lon="12.5998436"><ele>0.25</ele><time>2026-04-25T07:55:02.844Z</time></trkpt><trkpt lat="45.6413513" lon="12.5997023"><ele>1.0</ele><time>2026-04-25T07:55:03.825Z</time></trkpt><trkpt lat="45.6414548" lon="12.5995538"><ele>1.0</ele><time>2026-04-25T07:55:04.815Z</time></trkpt><trkpt lat="45.6415623" lon="12.5994093"><ele>1.0</ele><time>2026-04-25T07:55:05.81Z</time></trkpt><trkpt lat="45.641669" lon="12.5992633"><ele>1.0</ele><time>2026-04-25T07:55:06.821Z</time></trkpt><trkpt lat="45.6417701" lon="12.5991219"><ele>1.0</ele><time>2026-04-25T07:55:07.821Z</time></trkpt><trkpt lat="45.6418724" lon="12.5989739"><ele>0.75</ele><time>2026-04-25T07:55:08.812Z</time></trkpt><trkpt lat="45.641975" lon="12.598829"><ele>0.5</ele><time>2026-04-25T07:55:09.812Z</time></trkpt><trkpt lat="45.6420694" lon="12.5986823"><ele>0.25</ele><time>2026-04-25T07:55:10.818Z</time></trkpt><trkpt lat="45.6421621" lon="12.5985492"><ele>0.0</ele><time>2026-04-25T07:55:11.823Z</time></trkpt><trkpt lat="45.6422524" lon="12.5984177"><ele>0.0</ele><time>2026-04-25T07:55:12.813Z</time></trkpt><trkpt lat="45.6423368" lon="12.5982891"><ele>0.0</ele><time>2026-04-25T07:55:13.829Z</time></trkpt><trkpt lat="45.6424214" lon="12.5981597"><ele>0.0</ele><time>2026-04-25T07:55:14.831Z</time></trkpt><trkpt lat="45.6425125" lon="12.598018"><ele>0.0</ele><time>2026-04-25T07:55:15.821Z</time></trkpt><trkpt lat="45.642605" lon="12.5978752"><ele>0.25</ele><time>2026-04-25T07:55:16.828Z</time></trkpt><trkpt lat="45.6427012" lon="12.59773"><ele>0.5</ele><time>2026-04-25T07:55:17.827Z</time></trkpt><trkpt lat="45.6427907" lon="12.5975928"><ele>0.75</ele><time>2026-04-25T07:55:18.816Z</time></trkpt><trkpt lat="45.6428741" lon="12.5974602"><ele>1.0</ele><time>2026-04-25T07:55:19.822Z</time></trkpt><trkpt lat="45.6429553" lon="12.5973244"><ele>0.75</ele><time>2026-04-25T07:55:20.828Z</time></trkpt><trkpt lat="45.6430365" lon="12.5971935"><ele>0.5</ele><time>2026-04-25T07:55:21.819Z</time></trkpt><trkpt lat="45.643119" lon="12.5970746"><ele>0.25</ele><time>2026-04-25T07:55:22.818Z</time></trkpt><trkpt lat="45.6431955" lon="12.5969484"><ele>0.0</ele><time>2026-04-25T07:55:23.825Z</time></trkpt><trkpt lat="45.6432731" lon="12.5968167"><ele>0.0</ele><time>2026-04-25T07:55:24.821Z</time></trkpt><trkpt lat="45.6433503" lon="12.5966795"><ele>0.0</ele><time>2026-04-25T07:55:25.819Z</time></trkpt><trkpt lat="45.6434224" lon="12.5965505"><ele>0.0</ele><time>2026-04-25T07:55:26.824Z</time></trkpt><trkpt lat="45.6434937" lon="12.5964402"><ele>0.0</ele><time>2026-04-25T07:55:27.817Z</time></trkpt><trkpt lat="45.6435603" lon="12.5963293"><ele>0.0</ele><time>2026-04-25T07:55:28.821Z</time></trkpt><trkpt lat="45.6436238" lon="12.596223"><ele>0.0</ele><time>2026-04-25T07:55:29.827Z</time></trkpt><trkpt lat="45.6436833" lon="12.5961238"><ele>0.0</ele><time>2026-04-25T07:55:30.816Z</time></trkpt><trkpt lat="45.6437356" lon="12.5960316"><ele>0.0</ele><time>2026-04-25T07:55:31.816Z</time></trkpt><trkpt lat="45.6437782" lon="12.59595"><ele>0.0</ele><time>2026-04-25T07:55:32.828Z</time></trkpt><trkpt lat="45.6438512" lon="12.5958339"><ele>0.0</ele><time>2026-04-25T07:55:34.821Z</time></trkpt><trkpt lat="45.6438997" lon="12.5957591"><ele>0.0</ele><time>2026-04-25T07:55:36.816Z</time></trkpt><trkpt lat="45.6439554" lon="12.5956808"><ele>0.0</ele><time>2026-04-25T07:55:39.819Z</time></trkpt><trkpt lat="45.6440116" lon="12.5956274"><ele>0.0</ele><time>2026-04-25T07:55:43.818Z</time></trkpt><trkpt lat="45.6440794" lon="12.5955754"><ele>0.0</ele><time>2026-04-25T07:55:45.823Z</time></trkpt><trkpt lat="45.6442104" lon="12.5955198"><ele>0.0</ele><time>2026-04-25T07:55:47.817Z</time></trkpt><trkpt lat="45.6442921" lon="12.5954749"><ele>0.0</ele><time>2026-04-25T07:55:48.822Z</time></trkpt><trkpt lat="45.6443641" lon="12.5954069"><ele>0.0</ele><time>2026-04-25T07:55:49.816Z</time></trkpt><trkpt lat="45.6444324" lon="12.5953038"><ele>0.0</ele><time>2026-04-25T07:55:50.817Z</time></trkpt><trkpt lat="45.6444842" lon="12.5951724"><ele>0.0</ele><time>2026-04-25T07:55:51.821Z</time></trkpt><trkpt lat="45.6445168" lon="12.5950292"><ele>0.0</ele><time>2026-04-25T07:55:52.823Z</time></trkpt><trkpt lat="45.6445273" lon="12.5948691"><ele>0.0</ele><time>2026-04-25T07:55:53.821Z</time></trkpt><trkpt lat="45.6445422" lon="12.5947058"><ele>-0.25</ele><time>2026-04-25T07:55:54.818Z</time></trkpt><trkpt lat="45.644589" lon="12.5945364"><ele>-0.5</ele><time>2026-04-25T07:55:55.824Z</time></trkpt><trkpt lat="45.6446684" lon="12.5943783"><ele>-0.75</ele><time>2026-04-25T07:55:56.817Z</time></trkpt><trkpt lat="45.6447556" lon="12.5942228"><ele>-1.0</ele><time>2026-04-25T07:55:57.827Z</time></trkpt><trkpt lat="45.6448508" lon="12.5940569"><ele>-1.0</ele><time>2026-04-25T07:55:58.817Z</time></trkpt><trkpt lat="45.6449483" lon="12.5938752"><ele>-1.0</ele><time>2026-04-25T07:55:59.838Z</time></trkpt><trkpt lat="45.6450478" lon="12.5936827"><ele>-1.0</ele><time>2026-04-25T07:56:00.82Z</time></trkpt><trkpt lat="45.6451537" lon="12.5934904"><ele>-1.3333333333333333</ele><time>2026-04-25T07:56:01.816Z</time></trkpt><trkpt lat="45.645254" lon="12.5933038"><ele>-1.6666666666666665</ele><time>2026-04-25T07:56:02.822Z</time></trkpt><trkpt lat="45.6453489" lon="12.5931261"><ele>-2.0</ele><time>2026-04-25T07:56:03.817Z</time></trkpt><trkpt lat="45.6454311" lon="12.59297"><ele>-2.0</ele><time>2026-04-25T07:56:04.814Z</time></trkpt><trkpt lat="45.645509" lon="12.5928218"><ele>-2.0</ele><time>2026-04-25T07:56:05.815Z</time></trkpt><trkpt lat="45.6455828" lon="12.5926776"><ele>-2.0</ele><time>2026-04-25T07:56:06.811Z</time></trkpt><trkpt lat="45.6456588" lon="12.5925205"><ele>-2.0</ele><time>2026-04-25T07:56:07.815Z</time></trkpt><trkpt lat="45.6457393" lon="12.592362"><ele>-2.0</ele><time>2026-04-25T07:56:08.813Z</time></trkpt><trkpt lat="45.6458175" lon="12.592204"><ele>-2.0</ele><time>2026-04-25T07:56:09.821Z</time></trkpt><trkpt lat="45.6458924" lon="12.59205"><ele>-2.0</ele><time>2026-04-25T07:56:10.829Z</time></trkpt><trkpt lat="45.6459671" lon="12.5918994"><ele>-2.0</ele><time>2026-04-25T07:56:11.823Z</time></trkpt><trkpt lat="45.6460421" lon="12.5917485"><ele>-2.0</ele><time>2026-04-25T07:56:12.819Z</time></trkpt><trkpt lat="45.646116" lon="12.5915926"><ele>-2.0</ele><time>2026-04-25T07:56:13.812Z</time></trkpt><trkpt lat="45.6461925" lon="12.5914328"><ele>-2.0</ele><time>2026-04-25T07:56:14.829Z</time></trkpt><trkpt lat="45.6462737" lon="12.5912711"><ele>-2.0</ele><time>2026-04-25T07:56:15.816Z</time></trkpt><trkpt lat="45.6463549" lon="12.5911054"><ele>-1.75</ele><time>2026-04-25T07:56:16.817Z</time></trkpt><trkpt lat="45.646436" lon="12.5909413"><ele>-1.5</ele><time>2026-04-25T07:56:17.828Z</time></trkpt><trkpt lat="45.6465244" lon="12.5907729"><ele>-1.25</ele><time>2026-04-25T07:56:18.824Z</time></trkpt><trkpt lat="45.646613" lon="12.5905946"><ele>-1.0</ele><time>2026-04-25T07:56:19.81Z</time></trkpt><trkpt lat="45.6467005" lon="12.5904117"><ele>-1.0</ele><time>2026-04-25T07:56:20.823Z</time></trkpt><trkpt lat="45.6467924" lon="12.5902284"><ele>-1.0</ele><time>2026-04-25T07:56:21.823Z</time></trkpt><trkpt lat="45.6468904" lon="12.590041"><ele>-1.0</ele><time>2026-04-25T07:56:22.825Z</time></trkpt><trkpt lat="45.6469931" lon="12.5898545"><ele>-1.0</ele><time>2026-04-25T07:56:23.828Z</time></trkpt><trkpt lat="45.6470996" lon="12.5896668"><ele>-1.0</ele><time>2026-04-25T07:56:24.821Z</time></trkpt><trkpt lat="45.6472087" lon="12.5894777"><ele>-1.0</ele><time>2026-04-25T07:56:25.848Z</time></trkpt><trkpt lat="45.6473171" lon="12.5892763"><ele>-1.0</ele><time>2026-04-25T07:56:26.819Z</time></trkpt><trkpt lat="45.6474307" lon="12.5890782"><ele>-1.0</ele><time>2026-04-25T07:56:27.825Z</time></trkpt><trkpt lat="45.6475391" lon="12.5888867"><ele>-1.0</ele><time>2026-04-25T07:56:28.829Z</time></trkpt><trkpt lat="45.6476434" lon="12.5887087"><ele>-1.3333333333333333</ele><time>2026-04-25T07:56:29.829Z</time></trkpt><trkpt lat="45.6477443" lon="12.5885334"><ele>-1.6666666666666665</ele><time>2026-04-25T07:56:30.816Z</time></trkpt><trkpt lat="45.6478427" lon="12.5883529"><ele>-2.0</ele><time>2026-04-25T07:56:31.825Z</time></trkpt><trkpt lat="45.6479451" lon="12.5881641"><ele>-2.6666666666666665</ele><time>2026-04-25T07:56:32.831Z</time></trkpt><trkpt lat="45.648051" lon="12.587973"><ele>-3.333333333333333</ele><time>2026-04-25T07:56:33.83Z</time></trkpt><trkpt lat="45.6481582" lon="12.5877833"><ele>-4.0</ele><time>2026-04-25T07:56:34.814Z</time></trkpt><trkpt lat="45.6482648" lon="12.5875899"><ele>-4.0</ele><time>2026-04-25T07:56:35.809Z</time></trkpt><trkpt lat="45.6483703" lon="12.5873974"><ele>-4.0</ele><time>2026-04-25T07:56:36.825Z</time></trkpt><trkpt lat="45.648477" lon="12.5872008"><ele>-4.0</ele><time>2026-04-25T07:56:37.818Z</time></trkpt><trkpt lat="45.6485845" lon="12.5870015"><ele>-3.6666666666666665</ele><time>2026-04-25T07:56:38.82Z</time></trkpt><trkpt lat="45.6486897" lon="12.5868087"><ele>-3.333333333333333</ele><time>2026-04-25T07:56:39.82Z</time></trkpt><trkpt lat="45.6487999" lon="12.5866164"><ele>-3.0</ele><time>2026-04-25T07:56:40.821Z</time></trkpt><trkpt lat="45.6489132" lon="12.5864185"><ele>-3.0</ele><time>2026-04-25T07:56:41.818Z</time></trkpt><trkpt lat="45.649026" lon="12.5862177"><ele>-3.0</ele><time>2026-04-25T07:56:42.828Z</time></trkpt><trkpt lat="45.6491425" lon="12.5860252"><ele>-3.0</ele><time>2026-04-25T07:56:43.821Z</time></trkpt><trkpt lat="45.6492599" lon="12.5858211"><ele>-3.0</ele><time>2026-04-25T07:56:44.819Z</time></trkpt><trkpt lat="45.6493773" lon="12.5856102"><ele>-3.0</ele><time>2026-04-25T07:56:45.815Z</time></trkpt><trkpt lat="45.6494937" lon="12.5853992"><ele>-3.0</ele><time>2026-04-25T07:56:46.836Z</time></trkpt><trkpt lat="45.6496086" lon="12.585185"><ele>-3.0</ele><time>2026-04-25T07:56:47.819Z</time></trkpt><trkpt lat="45.6497252" lon="12.5849663"><ele>-3.0</ele><time>2026-04-25T07:56:48.818Z</time></trkpt><trkpt lat="45.6498414" lon="12.5847476"><ele>-3.0</ele><time>2026-04-25T07:56:49.816Z</time></trkpt><trkpt lat="45.6499635" lon="12.5845274"><ele>-3.0</ele><time>2026-04-25T07:56:50.834Z</time></trkpt><trkpt lat="45.6500853" lon="12.5843052"><ele>-3.0</ele><time>2026-04-25T07:56:51.821Z</time></trkpt><trkpt lat="45.6502105" lon="12.5840837"><ele>-3.0</ele><time>2026-04-25T07:56:52.827Z</time></trkpt><trkpt lat="45.6503343" lon="12.5838664"><ele>-2.6666666666666665</ele><time>2026-04-25T07:56:53.829Z</time></trkpt><trkpt lat="45.6504564" lon="12.5836501"><ele>-2.333333333333333</ele><time>2026-04-25T07:56:54.828Z</time></trkpt><trkpt lat="45.6505756" lon="12.5834336"><ele>-2.0</ele><time>2026-04-25T07:56:55.823Z</time></trkpt><trkpt lat="45.6506955" lon="12.5832246"><ele>-2.0</ele><time>2026-04-25T07:56:56.817Z</time></trkpt><trkpt lat="45.6508122" lon="12.5830182"><ele>-2.0</ele><time>2026-04-25T07:56:57.822Z</time></trkpt><trkpt lat="45.6509241" lon="12.5828234"><ele>-2.0</ele><time>2026-04-25T07:56:58.812Z</time></trkpt><trkpt lat="45.6510323" lon="12.582629"><ele>-2.0</ele><time>2026-04-25T07:56:59.813Z</time></trkpt><trkpt lat="45.6511401" lon="12.5824337"><ele>-2.0</ele><time>2026-04-25T07:57:00.818Z</time></trkpt><trkpt lat="45.6512412" lon="12.5822413"><ele>-2.0</ele><time>2026-04-25T07:57:01.821Z</time></trkpt><trkpt lat="45.6513358" lon="12.5820572"><ele>-2.333333333333333</ele><time>2026-04-25T07:57:02.827Z</time></trkpt><trkpt lat="45.6514277" lon="12.5818777"><ele>-2.6666666666666665</ele><time>2026-04-25T07:57:03.819Z</time></trkpt><trkpt lat="45.6515234" lon="12.5816984"><ele>-3.0</ele><time>2026-04-25T07:57:04.832Z</time></trkpt><trkpt lat="45.6516273" lon="12.5815182"><ele>-3.0</ele><time>2026-04-25T07:57:05.817Z</time></trkpt><trkpt lat="45.6517363" lon="12.5813375"><ele>-3.0</ele><time>2026-04-25T07:57:06.82Z</time></trkpt><trkpt lat="45.6518406" lon="12.5811543"><ele>-3.0</ele><time>2026-04-25T07:57:07.82Z</time></trkpt><trkpt lat="45.6519412" lon="12.5809798"><ele>-2.6666666666666665</ele><time>2026-04-25T07:57:08.816Z</time></trkpt><trkpt lat="45.6520418" lon="12.5808"><ele>-2.333333333333333</ele><time>2026-04-25T07:57:09.812Z</time></trkpt><trkpt lat="45.6521426" lon="12.58062"><ele>-2.0</ele><time>2026-04-25T07:57:10.82Z</time></trkpt><trkpt lat="45.652242" lon="12.5804405"><ele>-1.5</ele><time>2026-04-25T07:57:11.819Z</time></trkpt><trkpt lat="45.6523414" lon="12.580275"><ele>-1.0</ele><time>2026-04-25T07:57:12.823Z</time></trkpt><trkpt lat="45.6524368" lon="12.5801117"><ele>-0.5</ele><time>2026-04-25T07:57:13.83Z</time></trkpt><trkpt lat="45.6525308" lon="12.5799482"><ele>0.0</ele><time>2026-04-25T07:57:14.813Z</time></trkpt><trkpt lat="45.6526298" lon="12.579792"><ele>0.0</ele><time>2026-04-25T07:57:15.802Z</time></trkpt><trkpt lat="45.6527237" lon="12.579636"><ele>0.0</ele><time>2026-04-25T07:57:16.809Z</time></trkpt><trkpt lat="45.6528129" lon="12.5794801"><ele>0.0</ele><time>2026-04-25T07:57:17.826Z</time></trkpt><trkpt lat="45.6529031" lon="12.5793185"><ele>0.0</ele><time>2026-04-25T07:57:18.817Z</time></trkpt><trkpt lat="45.6529915" lon="12.5791556"><ele>0.5</ele><time>2026-04-25T07:57:19.82Z</time></trkpt><trkpt lat="45.6530686" lon="12.5789906"><ele>1.0</ele><time>2026-04-25T07:57:20.817Z</time></trkpt><trkpt lat="45.6531448" lon="12.578837"><ele>1.5</ele><time>2026-04-25T07:57:21.829Z</time></trkpt><trkpt lat="45.6532256" lon="12.5786945"><ele>2.0</ele><time>2026-04-25T07:57:22.823Z</time></trkpt><trkpt lat="45.6533016" lon="12.5785417"><ele>0.75</ele><time>2026-04-25T07:57:23.819Z</time></trkpt><trkpt lat="45.6533774" lon="12.5783917"><ele>-0.5</ele><time>2026-04-25T07:57:24.815Z</time></trkpt><trkpt lat="45.6534614" lon="12.5782385"><ele>-1.75</ele><time>2026-04-25T07:57:25.835Z</time></trkpt><trkpt lat="45.6535476" lon="12.5780839"><ele>-3.0</ele><time>2026-04-25T07:57:26.827Z</time></trkpt><trkpt lat="45.6536334" lon="12.5779269"><ele>-3.5</ele><time>2026-04-25T07:57:27.829Z</time></trkpt><trkpt lat="45.6537169" lon="12.5777648"><ele>-4.0</ele><time>2026-04-25T07:57:28.823Z</time></trkpt><trkpt lat="45.653797" lon="12.5776145"><ele>-4.5</ele><time>2026-04-25T07:57:29.825Z</time></trkpt><trkpt lat="45.6538728" lon="12.5774655"><ele>-5.0</ele><time>2026-04-25T07:57:30.819Z</time></trkpt><trkpt lat="45.6539457" lon="12.5773281"><ele>-5.0</ele><time>2026-04-25T07:57:31.814Z</time></trkpt><trkpt lat="45.6540174" lon="12.577203"><ele>-5.0</ele><time>2026-04-25T07:57:32.816Z</time></trkpt><trkpt lat="45.6540879" lon="12.5770678"><ele>-5.0</ele><time>2026-04-25T07:57:33.827Z</time></trkpt><trkpt lat="45.6541684" lon="12.5769266"><ele>-5.0</ele><time>2026-04-25T07:57:34.823Z</time></trkpt><trkpt lat="45.6542509" lon="12.5767777"><ele>-4.5</ele><time>2026-04-25T07:57:35.84Z</time></trkpt><trkpt lat="45.6543355" lon="12.5766241"><ele>-4.0</ele><time>2026-04-25T07:57:36.813Z</time></trkpt><trkpt lat="45.6544228" lon="12.5764761"><ele>-3.5</ele><time>2026-04-25T07:57:37.815Z</time></trkpt><trkpt lat="45.6545046" lon="12.5763309"><ele>-3.0</ele><time>2026-04-25T07:57:38.823Z</time></trkpt><trkpt lat="45.6545795" lon="12.5761952"><ele>-2.75</ele><time>2026-04-25T07:57:39.822Z</time></trkpt><trkpt lat="45.6546575" lon="12.5760571"><ele>-2.5</ele><time>2026-04-25T07:57:40.823Z</time></trkpt><trkpt lat="45.6547397" lon="12.575908"><ele>-2.25</ele><time>2026-04-25T07:57:41.827Z</time></trkpt><trkpt lat="45.6548238" lon="12.575752"><ele>-2.0</ele><time>2026-04-25T07:57:42.822Z</time></trkpt><trkpt lat="45.6549128" lon="12.5755876"><ele>-2.0</ele><time>2026-04-25T07:57:43.826Z</time></trkpt><trkpt lat="45.6550062" lon="12.5754159"><ele>-2.0</ele><time>2026-04-25T07:57:44.823Z</time></trkpt><trkpt lat="45.6551052" lon="12.5752417"><ele>-2.0</ele><time>2026-04-25T07:57:45.812Z</time></trkpt><trkpt lat="45.6552122" lon="12.5750563"><ele>-1.3333333333333333</ele><time>2026-04-25T07:57:46.814Z</time></trkpt><trkpt lat="45.6553211" lon="12.5748666"><ele>-0.6666666666666666</ele><time>2026-04-25T07:57:47.822Z</time></trkpt><trkpt lat="45.655432" lon="12.5746658"><ele>0.0</ele><time>2026-04-25T07:57:48.822Z</time></trkpt><trkpt lat="45.6555441" lon="12.5744615"><ele>0.0</ele><time>2026-04-25T07:57:49.82Z</time></trkpt><trkpt lat="45.6556609" lon="12.5742437"><ele>0.0</ele><time>2026-04-25T07:57:50.822Z</time></trkpt><trkpt lat="45.6557794" lon="12.5740279"><ele>0.0</ele><time>2026-04-25T07:57:51.821Z</time></trkpt><trkpt lat="45.6558958" lon="12.5738178"><ele>-0.3333333333333333</ele><time>2026-04-25T07:57:52.826Z</time></trkpt><trkpt lat="45.6560119" lon="12.5736131"><ele>-0.6666666666666666</ele><time>2026-04-25T07:57:53.825Z</time></trkpt><trkpt lat="45.656126" lon="12.5734053"><ele>-1.0</ele><time>2026-04-25T07:57:54.817Z</time></trkpt><trkpt lat="45.6562359" lon="12.5732106"><ele>-1.3333333333333333</ele><time>2026-04-25T07:57:55.82Z</time></trkpt><trkpt lat="45.6563459" lon="12.573015"><ele>-1.6666666666666665</ele><time>2026-04-25T07:57:56.821Z</time></trkpt><trkpt lat="45.6564593" lon="12.5728146"><ele>-2.0</ele><time>2026-04-25T07:57:57.824Z</time></trkpt><trkpt lat="45.6565702" lon="12.5725989"><ele>-2.0</ele><time>2026-04-25T07:57:58.827Z</time></trkpt><trkpt lat="45.6566843" lon="12.5723774"><ele>-2.0</ele><time>2026-04-25T07:57:59.823Z</time></trkpt><trkpt lat="45.656797" lon="12.5721524"><ele>-2.0</ele><time>2026-04-25T07:58:00.815Z</time></trkpt><trkpt lat="45.6569076" lon="12.5719234"><ele>-2.0</ele><time>2026-04-25T07:58:01.814Z</time></trkpt><trkpt lat="45.6570185" lon="12.5716823"><ele>-2.0</ele><time>2026-04-25T07:58:02.83Z</time></trkpt><trkpt lat="45.657128" lon="12.5714335"><ele>-2.0</ele><time>2026-04-25T07:58:03.826Z</time></trkpt><trkpt lat="45.6572317" lon="12.5711773"><ele>-2.0</ele><time>2026-04-25T07:58:04.819Z</time></trkpt><trkpt lat="45.6573371" lon="12.5709174"><ele>-2.0</ele><time>2026-04-25T07:58:05.822Z</time></trkpt><trkpt lat="45.6574366" lon="12.5706593"><ele>-2.0</ele><time>2026-04-25T07:58:06.835Z</time></trkpt><trkpt lat="45.6575335" lon="12.5704067"><ele>-2.0</ele><time>2026-04-25T07:58:07.823Z</time></trkpt><trkpt lat="45.6576257" lon="12.5701564"><ele>-2.0</ele><time>2026-04-25T07:58:08.822Z</time></trkpt><trkpt lat="45.6577187" lon="12.5699078"><ele>-2.0</ele><time>2026-04-25T07:58:09.825Z</time></trkpt><trkpt lat="45.6578079" lon="12.569667"><ele>-2.333333333333333</ele><time>2026-04-25T07:58:10.819Z</time></trkpt><trkpt lat="45.6578991" lon="12.5694241"><ele>-2.6666666666666665</ele><time>2026-04-25T07:58:11.816Z</time></trkpt><trkpt lat="45.6579918" lon="12.5691785"><ele>-3.0</ele><time>2026-04-25T07:58:12.817Z</time></trkpt><trkpt lat="45.6580879" lon="12.5689383"><ele>-3.0</ele><time>2026-04-25T07:58:13.817Z</time></trkpt><trkpt lat="45.65819" lon="12.5686996"><ele>-3.0</ele><time>2026-04-25T07:58:14.826Z</time></trkpt><trkpt lat="45.6582938" lon="12.5684655"><ele>-3.0</ele><time>2026-04-25T07:58:15.827Z</time></trkpt><trkpt lat="45.6583992" lon="12.5682408"><ele>-3.0</ele><time>2026-04-25T07:58:16.818Z</time></trkpt><trkpt lat="45.6585074" lon="12.5680124"><ele>-3.0</ele><time>2026-04-25T07:58:17.821Z</time></trkpt><trkpt lat="45.6586187" lon="12.5677897"><ele>-3.0</ele><time>2026-04-25T07:58:18.823Z</time></trkpt><trkpt lat="45.6587343" lon="12.5675741"><ele>-3.0</ele><time>2026-04-25T07:58:19.828Z</time></trkpt><trkpt lat="45.6588509" lon="12.5673631"><ele>-3.0</ele><time>2026-04-25T07:58:20.822Z</time></trkpt><trkpt lat="45.6589695" lon="12.567165"><ele>-3.0</ele><time>2026-04-25T07:58:21.833Z</time></trkpt><trkpt lat="45.6590827" lon="12.5669877"><ele>-2.6666666666666665</ele><time>2026-04-25T07:58:22.824Z</time></trkpt><trkpt lat="45.6591915" lon="12.5668169"><ele>-2.333333333333333</ele><time>2026-04-25T07:58:23.817Z</time></trkpt><trkpt lat="45.659302" lon="12.566641"><ele>-2.0</ele><time>2026-04-25T07:58:24.814Z</time></trkpt><trkpt lat="45.6594232" lon="12.5664667"><ele>-2.0</ele><time>2026-04-25T07:58:25.813Z</time></trkpt><trkpt lat="45.6595491" lon="12.5662913"><ele>-2.0</ele><time>2026-04-25T07:58:26.821Z</time></trkpt><trkpt lat="45.65968" lon="12.5661207"><ele>-2.0</ele><time>2026-04-25T07:58:27.839Z</time></trkpt><trkpt lat="45.6598077" lon="12.5659531"><ele>-1.6666666666666665</ele><time>2026-04-25T07:58:28.822Z</time></trkpt><trkpt lat="45.6599375" lon="12.5657827"><ele>-1.3333333333333333</ele><time>2026-04-25T07:58:29.81Z</time></trkpt><trkpt lat="45.66007" lon="12.5656102"><ele>-1.0</ele><time>2026-04-25T07:58:30.833Z</time></trkpt><trkpt lat="45.6602031" lon="12.5654399"><ele>-1.3333333333333333</ele><time>2026-04-25T07:58:31.822Z</time></trkpt><trkpt lat="45.660337" lon="12.5652689"><ele>-1.6666666666666665</ele><time>2026-04-25T07:58:32.816Z</time></trkpt><trkpt lat="45.6604677" lon="12.5650968"><ele>-2.0</ele><time>2026-04-25T07:58:33.817Z</time></trkpt><trkpt lat="45.6605971" lon="12.5649225"><ele>-2.0</ele><time>2026-04-25T07:58:34.818Z</time></trkpt><trkpt lat="45.6607255" lon="12.564743"><ele>-2.0</ele><time>2026-04-25T07:58:35.81Z</time></trkpt><trkpt lat="45.6608547" lon="12.5645546"><ele>-2.0</ele><time>2026-04-25T07:58:36.822Z</time></trkpt><trkpt lat="45.6609843" lon="12.5643611"><ele>-1.6666666666666665</ele><time>2026-04-25T07:58:37.832Z</time></trkpt><trkpt lat="45.6611109" lon="12.5641623"><ele>-1.3333333333333333</ele><time>2026-04-25T07:58:38.817Z</time></trkpt><trkpt lat="45.6612383" lon="12.5639544"><ele>-1.0</ele><time>2026-04-25T07:58:39.822Z</time></trkpt><trkpt lat="45.661363" lon="12.563745"><ele>-0.6666666666666666</ele><time>2026-04-25T07:58:40.826Z</time></trkpt><trkpt lat="45.6614858" lon="12.5635332"><ele>-0.3333333333333333</ele><time>2026-04-25T07:58:41.812Z</time></trkpt><trkpt lat="45.6616086" lon="12.5633166"><ele>0.0</ele><time>2026-04-25T07:58:42.819Z</time></trkpt><trkpt lat="45.6617301" lon="12.563099"><ele>0.0</ele><time>2026-04-25T07:58:43.82Z</time></trkpt><trkpt lat="45.66185" lon="12.5628778"><ele>0.0</ele><time>2026-04-25T07:58:44.821Z</time></trkpt><trkpt lat="45.6619608" lon="12.5626454"><ele>0.0</ele><time>2026-04-25T07:58:45.839Z</time></trkpt><trkpt lat="45.6620629" lon="12.5624084"><ele>-0.3333333333333333</ele><time>2026-04-25T07:58:46.825Z</time></trkpt><trkpt lat="45.6621664" lon="12.5621683"><ele>-0.6666666666666666</ele><time>2026-04-25T07:58:47.828Z</time></trkpt><trkpt lat="45.6622649" lon="12.561923"><ele>-1.0</ele><time>2026-04-25T07:58:48.823Z</time></trkpt><trkpt lat="45.6623581" lon="12.5616719"><ele>-0.6666666666666666</ele><time>2026-04-25T07:58:49.831Z</time></trkpt><trkpt lat="45.6624497" lon="12.5614185"><ele>-0.3333333333333333</ele><time>2026-04-25T07:58:50.826Z</time></trkpt><trkpt lat="45.6625406" lon="12.5611609"><ele>0.0</ele><time>2026-04-25T07:58:51.833Z</time></trkpt><trkpt lat="45.6626262" lon="12.5609001"><ele>0.0</ele><time>2026-04-25T07:58:52.82Z</time></trkpt><trkpt lat="45.6627134" lon="12.5606349"><ele>0.0</ele><time>2026-04-25T07:58:53.817Z</time></trkpt><trkpt lat="45.6627966" lon="12.5603713"><ele>0.0</ele><time>2026-04-25T07:58:54.821Z</time></trkpt><trkpt lat="45.6628746" lon="12.5600981"><ele>0.0</ele><time>2026-04-25T07:58:55.82Z</time></trkpt><trkpt lat="45.6629478" lon="12.5598146"><ele>0.0</ele><time>2026-04-25T07:58:56.818Z</time></trkpt><trkpt lat="45.6630186" lon="12.5595247"><ele>0.0</ele><time>2026-04-25T07:58:57.83Z</time></trkpt><trkpt lat="45.6630914" lon="12.5592371"><ele>0.0</ele><time>2026-04-25T07:58:58.819Z</time></trkpt><trkpt lat="45.6631649" lon="12.5589473"><ele>0.0</ele><time>2026-04-25T07:58:59.81Z</time></trkpt><trkpt lat="45.6632428" lon="12.5586626"><ele>0.0</ele><time>2026-04-25T07:59:00.827Z</time></trkpt><trkpt lat="45.663321" lon="12.558387"><ele>0.0</ele><time>2026-04-25T07:59:01.82Z</time></trkpt><trkpt lat="45.6633986" lon="12.5581191"><ele>0.0</ele><time>2026-04-25T07:59:02.818Z</time></trkpt><trkpt lat="45.6634784" lon="12.5578631"><ele>0.0</ele><time>2026-04-25T07:59:03.815Z</time></trkpt><trkpt lat="45.6635607" lon="12.5576149"><ele>0.0</ele><time>2026-04-25T07:59:04.825Z</time></trkpt><trkpt lat="45.6636454" lon="12.5573721"><ele>0.0</ele><time>2026-04-25T07:59:05.828Z</time></trkpt><trkpt lat="45.6637312" lon="12.5571393"><ele>0.0</ele><time>2026-04-25T07:59:06.821Z</time></trkpt><trkpt lat="45.6638107" lon="12.5569189"><ele>0.0</ele><time>2026-04-25T07:59:07.822Z</time></trkpt><trkpt lat="45.6638893" lon="12.5567024"><ele>0.0</ele><time>2026-04-25T07:59:08.827Z</time></trkpt><trkpt lat="45.6639663" lon="12.5564947"><ele>0.0</ele><time>2026-04-25T07:59:09.818Z</time></trkpt><trkpt lat="45.6640486" lon="12.556288"><ele>0.0</ele><time>2026-04-25T07:59:10.819Z</time></trkpt><trkpt lat="45.6641343" lon="12.5560919"><ele>0.0</ele><time>2026-04-25T07:59:11.819Z</time></trkpt><trkpt lat="45.6642202" lon="12.5558967"><ele>0.0</ele><time>2026-04-25T07:59:12.806Z</time></trkpt><trkpt lat="45.6643085" lon="12.5556964"><ele>0.0</ele><time>2026-04-25T07:59:13.824Z</time></trkpt><trkpt lat="45.6643976" lon="12.5554888"><ele>0.0</ele><time>2026-04-25T07:59:14.811Z</time></trkpt><trkpt lat="45.6644928" lon="12.5552685"><ele>0.0</ele><time>2026-04-25T07:59:15.819Z</time></trkpt><trkpt lat="45.6645955" lon="12.555034"><ele>0.3333333333333333</ele><time>2026-04-25T07:59:16.818Z</time></trkpt><trkpt lat="45.6646984" lon="12.5547932"><ele>0.6666666666666666</ele><time>2026-04-25T07:59:17.813Z</time></trkpt><trkpt lat="45.6648017" lon="12.5545483"><ele>1.0</ele><time>2026-04-25T07:59:18.816Z</time></trkpt><trkpt lat="45.6649048" lon="12.5542981"><ele>0.3333333333333333</ele><time>2026-04-25T07:59:19.813Z</time></trkpt><trkpt lat="45.6650069" lon="12.5540433"><ele>-0.3333333333333333</ele><time>2026-04-25T07:59:20.813Z</time></trkpt><trkpt lat="45.6651071" lon="12.553782"><ele>-1.0</ele><time>2026-04-25T07:59:21.826Z</time></trkpt><trkpt lat="45.6652031" lon="12.5535229"><ele>-1.3333333333333333</ele><time>2026-04-25T07:59:22.822Z</time></trkpt><trkpt lat="45.6652958" lon="12.5532589"><ele>-1.6666666666666665</ele><time>2026-04-25T07:59:23.827Z</time></trkpt><trkpt lat="45.6653925" lon="12.5529929"><ele>-2.0</ele><time>2026-04-25T07:59:24.825Z</time></trkpt><trkpt lat="45.6654934" lon="12.5527304"><ele>-1.0</ele><time>2026-04-25T07:59:25.826Z</time></trkpt><trkpt lat="45.6655938" lon="12.5524666"><ele>0.0</ele><time>2026-04-25T07:59:26.833Z</time></trkpt><trkpt lat="45.6656912" lon="12.5522042"><ele>1.0</ele><time>2026-04-25T07:59:27.83Z</time></trkpt><trkpt lat="45.6657873" lon="12.5519344"><ele>1.3333333333333333</ele><time>2026-04-25T07:59:28.818Z</time></trkpt><trkpt lat="45.6658848" lon="12.5516545"><ele>1.6666666666666665</ele><time>2026-04-25T07:59:29.83Z</time></trkpt><trkpt lat="45.6659781" lon="12.5513755"><ele>2.0</ele><time>2026-04-25T07:59:30.825Z</time></trkpt><trkpt lat="45.6660676" lon="12.5510985"><ele>1.0</ele><time>2026-04-25T07:59:31.831Z</time></trkpt><trkpt lat="45.6661551" lon="12.5508253"><ele>0.0</ele><time>2026-04-25T07:59:32.821Z</time></trkpt><trkpt lat="45.6662403" lon="12.5505493"><ele>-1.0</ele><time>2026-04-25T07:59:33.821Z</time></trkpt><trkpt lat="45.666318" lon="12.5502824"><ele>-1.0</ele><time>2026-04-25T07:59:34.821Z</time></trkpt><trkpt lat="45.666393" lon="12.5500238"><ele>-1.0</ele><time>2026-04-25T07:59:35.82Z</time></trkpt><trkpt lat="45.6664679" lon="12.5497688"><ele>-1.0</ele><time>2026-04-25T07:59:36.821Z</time></trkpt><trkpt lat="45.6665418" lon="12.5495155"><ele>-0.6666666666666666</ele><time>2026-04-25T07:59:37.827Z</time></trkpt><trkpt lat="45.6666179" lon="12.5492645"><ele>-0.3333333333333333</ele><time>2026-04-25T07:59:38.822Z</time></trkpt><trkpt lat="45.6666949" lon="12.5490073"><ele>0.0</ele><time>2026-04-25T07:59:39.829Z</time></trkpt><trkpt lat="45.6667686" lon="12.5487503"><ele>-0.3333333333333333</ele><time>2026-04-25T07:59:40.812Z</time></trkpt><trkpt lat="45.6668399" lon="12.5484865"><ele>-0.6666666666666666</ele><time>2026-04-25T07:59:41.812Z</time></trkpt><trkpt lat="45.6669096" lon="12.5482205"><ele>-1.0</ele><time>2026-04-25T07:59:42.821Z</time></trkpt><trkpt lat="45.6669785" lon="12.5479559"><ele>-0.6666666666666666</ele><time>2026-04-25T07:59:43.82Z</time></trkpt><trkpt lat="45.6670472" lon="12.5476894"><ele>-0.3333333333333333</ele><time>2026-04-25T07:59:44.818Z</time></trkpt><trkpt lat="45.6671158" lon="12.5474213"><ele>0.0</ele><time>2026-04-25T07:59:45.835Z</time></trkpt><trkpt lat="45.6671805" lon="12.5471569"><ele>-0.3333333333333333</ele><time>2026-04-25T07:59:46.818Z</time></trkpt><trkpt lat="45.6672396" lon="12.5468835"><ele>-0.6666666666666666</ele><time>2026-04-25T07:59:47.82Z</time></trkpt><trkpt lat="45.6672952" lon="12.5466109"><ele>-1.0</ele><time>2026-04-25T07:59:48.805Z</time></trkpt><trkpt lat="45.6673492" lon="12.5463374"><ele>-1.0</ele><time>2026-04-25T07:59:49.826Z</time></trkpt><trkpt lat="45.6674085" lon="12.5460671"><ele>-1.0</ele><time>2026-04-25T07:59:50.822Z</time></trkpt><trkpt lat="45.6674695" lon="12.5457942"><ele>-1.0</ele><time>2026-04-25T07:59:51.827Z</time></trkpt><trkpt lat="45.6675252" lon="12.5455179"><ele>-0.3333333333333333</ele><time>2026-04-25T07:59:52.829Z</time></trkpt><trkpt lat="45.6675788" lon="12.5452415"><ele>0.3333333333333333</ele><time>2026-04-25T07:59:53.834Z</time></trkpt><trkpt lat="45.6676318" lon="12.5449701"><ele>1.0</ele><time>2026-04-25T07:59:54.818Z</time></trkpt><trkpt lat="45.6676839" lon="12.5447049"><ele>1.0</ele><time>2026-04-25T07:59:55.83Z</time></trkpt><trkpt lat="45.667731" lon="12.5444561"><ele>1.0</ele><time>2026-04-25T07:59:56.822Z</time></trkpt><trkpt lat="45.6677832" lon="12.54421"><ele>1.0</ele><time>2026-04-25T07:59:57.828Z</time></trkpt><trkpt lat="45.6678393" lon="12.5439598"><ele>1.6666666666666665</ele><time>2026-04-25T07:59:58.82Z</time></trkpt><trkpt lat="45.6678966" lon="12.5437059"><ele>2.3333333333333335</ele><time>2026-04-25T07:59:59.825Z</time></trkpt><trkpt lat="45.6679548" lon="12.5434546"><ele>3.0</ele><time>2026-04-25T08:00:00.819Z</time></trkpt><trkpt lat="45.6680119" lon="12.5432038"><ele>3.0</ele><time>2026-04-25T08:00:01.823Z</time></trkpt><trkpt lat="45.6680718" lon="12.542958"><ele>3.0</ele><time>2026-04-25T08:00:02.817Z</time></trkpt><trkpt lat="45.6681369" lon="12.5427254"><ele>3.0</ele><time>2026-04-25T08:00:03.825Z</time></trkpt><trkpt lat="45.668199" lon="12.542502"><ele>3.0</ele><time>2026-04-25T08:00:04.817Z</time></trkpt><trkpt lat="45.6682647" lon="12.5422758"><ele>3.0</ele><time>2026-04-25T08:00:05.82Z</time></trkpt><trkpt lat="45.6683281" lon="12.5420528"><ele>3.0</ele><time>2026-04-25T08:00:06.816Z</time></trkpt><trkpt lat="45.6683893" lon="12.5418323"><ele>3.0</ele><time>2026-04-25T08:00:07.828Z</time></trkpt><trkpt lat="45.6684492" lon="12.5416231"><ele>3.0</ele><time>2026-04-25T08:00:08.818Z</time></trkpt><trkpt lat="45.6685077" lon="12.541425"><ele>3.0</ele><time>2026-04-25T08:00:09.826Z</time></trkpt><trkpt lat="45.668571" lon="12.5412214"><ele>3.5</ele><time>2026-04-25T08:00:10.821Z</time></trkpt><trkpt lat="45.668632" lon="12.54102"><ele>4.0</ele><time>2026-04-25T08:00:11.824Z</time></trkpt><trkpt lat="45.6686858" lon="12.540824"><ele>4.5</ele><time>2026-04-25T08:00:12.814Z</time></trkpt><trkpt lat="45.6687363" lon="12.5406304"><ele>5.0</ele><time>2026-04-25T08:00:13.818Z</time></trkpt><trkpt lat="45.668786" lon="12.5404305"><ele>4.25</ele><time>2026-04-25T08:00:14.828Z</time></trkpt><trkpt lat="45.6688375" lon="12.5402305"><ele>3.5</ele><time>2026-04-25T08:00:15.839Z</time></trkpt><trkpt lat="45.668887" lon="12.5400446"><ele>2.75</ele><time>2026-04-25T08:00:16.816Z</time></trkpt><trkpt lat="45.6689317" lon="12.5398646"><ele>2.0</ele><time>2026-04-25T08:00:17.816Z</time></trkpt><trkpt lat="45.6689697" lon="12.5396757"><ele>2.75</ele><time>2026-04-25T08:00:18.821Z</time></trkpt><trkpt lat="45.6690056" lon="12.5394918"><ele>3.5</ele><time>2026-04-25T08:00:19.817Z</time></trkpt><trkpt lat="45.6690384" lon="12.5393193"><ele>4.25</ele><time>2026-04-25T08:00:20.82Z</time></trkpt><trkpt lat="45.6690634" lon="12.5391587"><ele>5.0</ele><time>2026-04-25T08:00:21.822Z</time></trkpt><trkpt lat="45.6690878" lon="12.5390144"><ele>5.0</ele><time>2026-04-25T08:00:22.821Z</time></trkpt><trkpt lat="45.6691093" lon="12.5388735"><ele>5.0</ele><time>2026-04-25T08:00:23.818Z</time></trkpt><trkpt lat="45.6691267" lon="12.538738"><ele>5.0</ele><time>2026-04-25T08:00:24.821Z</time></trkpt><trkpt lat="45.669139" lon="12.5386137"><ele>5.0</ele><time>2026-04-25T08:00:25.822Z</time></trkpt><trkpt lat="45.6691563" lon="12.5385046"><ele>5.0</ele><time>2026-04-25T08:00:26.822Z</time></trkpt><trkpt lat="45.6692011" lon="12.5383568"><ele>5.166666666666667</ele><time>2026-04-25T08:00:28.815Z</time></trkpt><trkpt lat="45.6692371" lon="12.5382643"><ele>5.333333333333334</ele><time>2026-04-25T08:00:30.818Z</time></trkpt><trkpt lat="45.6692696" lon="12.5381785"><ele>5.5</ele><time>2026-04-25T08:00:34.826Z</time></trkpt><trkpt lat="45.6693388" lon="12.5380745"><ele>5.666666666666667</ele><time>2026-04-25T08:00:36.819Z</time></trkpt><trkpt lat="45.6693998" lon="12.538012"><ele>5.833333333333333</ele><time>2026-04-25T08:00:37.819Z</time></trkpt><trkpt lat="45.6694754" lon="12.5379423"><ele>6.0</ele><time>2026-04-25T08:00:38.815Z</time></trkpt><trkpt lat="45.6695592" lon="12.5378684"><ele>6.4</ele><time>2026-04-25T08:00:39.824Z</time></trkpt><trkpt lat="45.6696381" lon="12.5377819"><ele>6.8</ele><time>2026-04-25T08:00:40.824Z</time></trkpt><trkpt lat="45.6697011" lon="12.5376578"><ele>7.200000000000001</ele><time>2026-04-25T08:00:41.824Z</time></trkpt><trkpt lat="45.6697388" lon="12.5375057"><ele>7.6000000000000005</ele><time>2026-04-25T08:00:42.819Z</time></trkpt><trkpt lat="45.6697571" lon="12.5373505"><ele>8.0</ele><time>2026-04-25T08:00:43.82Z</time></trkpt><trkpt lat="45.669755" lon="12.5371979"><ele>8.0</ele><time>2026-04-25T08:00:44.817Z</time></trkpt><trkpt lat="45.6697263" lon="12.5370601"><ele>8.0</ele><time>2026-04-25T08:00:45.814Z</time></trkpt><trkpt lat="45.6696728" lon="12.5369216"><ele>8.0</ele><time>2026-04-25T08:00:46.821Z</time></trkpt><trkpt lat="45.6696004" lon="12.536795"><ele>8.0</ele><time>2026-04-25T08:00:47.815Z</time></trkpt><trkpt lat="45.669517" lon="12.5366759"><ele>8.0</ele><time>2026-04-25T08:00:48.814Z</time></trkpt><trkpt lat="45.6694241" lon="12.5365615"><ele>7.2</ele><time>2026-04-25T08:00:49.827Z</time></trkpt><trkpt lat="45.6693267" lon="12.5364641"><ele>6.4</ele><time>2026-04-25T08:00:50.82Z</time></trkpt><trkpt lat="45.6692399" lon="12.5363762"><ele>5.6000000000000005</ele><time>2026-04-25T08:00:51.819Z</time></trkpt><trkpt lat="45.66917" lon="12.5362916"><ele>4.800000000000001</ele><time>2026-04-25T08:00:52.824Z</time></trkpt><trkpt lat="45.6691071" lon="12.5361863"><ele>4.0</ele><time>2026-04-25T08:00:53.816Z</time></trkpt><trkpt lat="45.6690429" lon="12.5360568"><ele>4.0</ele><time>2026-04-25T08:00:54.825Z</time></trkpt><trkpt lat="45.6689838" lon="12.5359183"><ele>4.0</ele><time>2026-04-25T08:00:55.832Z</time></trkpt><trkpt lat="45.6689091" lon="12.5357752"><ele>4.0</ele><time>2026-04-25T08:00:56.817Z</time></trkpt><trkpt lat="45.66882" lon="12.5356508"><ele>4.0</ele><time>2026-04-25T08:00:57.845Z</time></trkpt><trkpt lat="45.668722" lon="12.535565"><ele>4.0</ele><time>2026-04-25T08:00:58.829Z</time></trkpt><trkpt lat="45.6686306" lon="12.5354771"><ele>4.0</ele><time>2026-04-25T08:00:59.831Z</time></trkpt><trkpt lat="45.6685455" lon="12.5353907"><ele>4.0</ele><time>2026-04-25T08:01:00.825Z</time></trkpt><trkpt lat="45.6684771" lon="12.5353023"><ele>4.0</ele><time>2026-04-25T08:01:01.821Z</time></trkpt><trkpt lat="45.6684196" lon="12.53521"><ele>4.0</ele><time>2026-04-25T08:01:02.826Z</time></trkpt><trkpt lat="45.668374" lon="12.5351067"><ele>3.6666666666666665</ele><time>2026-04-25T08:01:03.821Z</time></trkpt><trkpt lat="45.6683352" lon="12.5349901"><ele>3.333333333333333</ele><time>2026-04-25T08:01:04.827Z</time></trkpt><trkpt lat="45.6682992" lon="12.5348844"><ele>3.0</ele><time>2026-04-25T08:01:05.811Z</time></trkpt><trkpt lat="45.6682722" lon="12.5347792"><ele>2.6666666666666665</ele><time>2026-04-25T08:01:06.817Z</time></trkpt><trkpt lat="45.6682469" lon="12.5346728"><ele>2.333333333333333</ele><time>2026-04-25T08:01:07.823Z</time></trkpt><trkpt lat="45.668221" lon="12.5345572"><ele>2.0</ele><time>2026-04-25T08:01:08.82Z</time></trkpt><trkpt lat="45.668191" lon="12.5344445"><ele>1.8333333333333333</ele><time>2026-04-25T08:01:09.822Z</time></trkpt><trkpt lat="45.6681642" lon="12.5343342"><ele>1.6666666666666665</ele><time>2026-04-25T08:01:10.817Z</time></trkpt><trkpt lat="45.6681463" lon="12.5342361"><ele>1.5</ele><time>2026-04-25T08:01:11.827Z</time></trkpt><trkpt lat="45.6681316" lon="12.5341443"><ele>1.3333333333333333</ele><time>2026-04-25T08:01:12.822Z</time></trkpt><trkpt lat="45.66812" lon="12.5339823"><ele>1.1666666666666665</ele><time>2026-04-25T08:01:14.821Z</time></trkpt><trkpt lat="45.6681422" lon="12.5338343"><ele>1.0</ele><time>2026-04-25T08:01:16.817Z</time></trkpt><trkpt lat="45.6681535" lon="12.5337306"><ele>1.4</ele><time>2026-04-25T08:01:18.82Z</time></trkpt><trkpt lat="45.6681765" lon="12.5336425"><ele>1.8</ele><time>2026-04-25T08:01:37.814Z</time></trkpt><trkpt lat="45.6681964" lon="12.533505"><ele>2.1999999999999997</ele><time>2026-04-25T08:01:39.82Z</time></trkpt><trkpt lat="45.6682163" lon="12.5333878"><ele>2.6</ele><time>2026-04-25T08:01:40.828Z</time></trkpt><trkpt lat="45.6682458" lon="12.5332394"><ele>3.0</ele><time>2026-04-25T08:01:41.822Z</time></trkpt><trkpt lat="45.6682824" lon="12.5330844"><ele>3.0</ele><time>2026-04-25T08:01:42.824Z</time></trkpt><trkpt lat="45.6683274" lon="12.5329069"><ele>3.0</ele><time>2026-04-25T08:01:43.82Z</time></trkpt><trkpt lat="45.6683765" lon="12.5327124"><ele>3.0</ele><time>2026-04-25T08:01:44.819Z</time></trkpt><trkpt lat="45.6684269" lon="12.5325086"><ele>3.0</ele><time>2026-04-25T08:01:45.819Z</time></trkpt><trkpt lat="45.6684763" lon="12.5322953"><ele>3.0</ele><time>2026-04-25T08:01:46.82Z</time></trkpt><trkpt lat="45.6685361" lon="12.5320871"><ele>3.0</ele><time>2026-04-25T08:01:47.819Z</time></trkpt><trkpt lat="45.6686063" lon="12.5318828"><ele>3.0</ele><time>2026-04-25T08:01:48.819Z</time></trkpt><trkpt lat="45.6686998" lon="12.5316756"><ele>2.6666666666666665</ele><time>2026-04-25T08:01:49.823Z</time></trkpt><trkpt lat="45.6688046" lon="12.5314702"><ele>2.333333333333333</ele><time>2026-04-25T08:01:50.828Z</time></trkpt><trkpt lat="45.6689167" lon="12.5312788"><ele>2.0</ele><time>2026-04-25T08:01:51.826Z</time></trkpt><trkpt lat="45.6690391" lon="12.5311116"><ele>2.0</ele><time>2026-04-25T08:01:52.813Z</time></trkpt><trkpt lat="45.6691592" lon="12.5309704"><ele>2.0</ele><time>2026-04-25T08:01:53.814Z</time></trkpt><trkpt lat="45.6692789" lon="12.5308571"><ele>2.0</ele><time>2026-04-25T08:01:54.813Z</time></trkpt><trkpt lat="45.6694043" lon="12.5307597"><ele>2.0</ele><time>2026-04-25T08:01:55.816Z</time></trkpt><trkpt lat="45.6695479" lon="12.5306759"><ele>2.0</ele><time>2026-04-25T08:01:56.822Z</time></trkpt><trkpt lat="45.6696994" lon="12.5306111"><ele>2.0</ele><time>2026-04-25T08:01:57.818Z</time></trkpt><trkpt lat="45.6698591" lon="12.5305647"><ele>2.0</ele><time>2026-04-25T08:01:58.825Z</time></trkpt><trkpt lat="45.6700264" lon="12.5305499"><ele>2.0</ele><time>2026-04-25T08:01:59.832Z</time></trkpt><trkpt lat="45.6701887" lon="12.530569"><ele>2.0</ele><time>2026-04-25T08:02:00.819Z</time></trkpt><trkpt lat="45.6703594" lon="12.5306068"><ele>2.0</ele><time>2026-04-25T08:02:01.821Z</time></trkpt><trkpt lat="45.6705202" lon="12.5306824"><ele>2.0</ele><time>2026-04-25T08:02:02.816Z</time></trkpt><trkpt lat="45.6706871" lon="12.530784"><ele>2.0</ele><time>2026-04-25T08:02:03.822Z</time></trkpt><trkpt lat="45.6708346" lon="12.5309156"><ele>2.0</ele><time>2026-04-25T08:02:04.825Z</time></trkpt><trkpt lat="45.6709762" lon="12.5310611"><ele>2.0</ele><time>2026-04-25T08:02:05.819Z</time></trkpt><trkpt lat="45.6711035" lon="12.5312332"><ele>2.0</ele><time>2026-04-25T08:02:06.818Z</time></trkpt><trkpt lat="45.6712134" lon="12.5314294"><ele>2.0</ele><time>2026-04-25T08:02:07.83Z</time></trkpt><trkpt lat="45.671318" lon="12.5316405"><ele>1.6666666666666665</ele><time>2026-04-25T08:02:08.817Z</time></trkpt><trkpt lat="45.6714176" lon="12.5318611"><ele>1.3333333333333333</ele><time>2026-04-25T08:02:09.814Z</time></trkpt><trkpt lat="45.6715228" lon="12.5320904"><ele>1.0</ele><time>2026-04-25T08:02:10.825Z</time></trkpt><trkpt lat="45.6716406" lon="12.5323272"><ele>0.6666666666666666</ele><time>2026-04-25T08:02:11.83Z</time></trkpt><trkpt lat="45.6717603" lon="12.5325807"><ele>0.3333333333333333</ele><time>2026-04-25T08:02:12.83Z</time></trkpt><trkpt lat="45.6718806" lon="12.5328372"><ele>0.0</ele><time>2026-04-25T08:02:13.821Z</time></trkpt><trkpt lat="45.6720075" lon="12.5330917"><ele>0.0</ele><time>2026-04-25T08:02:14.82Z</time></trkpt><trkpt lat="45.6721263" lon="12.5333331"><ele>0.0</ele><time>2026-04-25T08:02:15.818Z</time></trkpt><trkpt lat="45.6722369" lon="12.533556"><ele>0.0</ele><time>2026-04-25T08:02:16.826Z</time></trkpt><trkpt lat="45.6723476" lon="12.5337823"><ele>0.0</ele><time>2026-04-25T08:02:17.814Z</time></trkpt><trkpt lat="45.6724725" lon="12.5340144"><ele>0.0</ele><time>2026-04-25T08:02:18.822Z</time></trkpt><trkpt lat="45.6725996" lon="12.5342594"><ele>0.0</ele><time>2026-04-25T08:02:19.814Z</time></trkpt><trkpt lat="45.6727274" lon="12.5345111"><ele>0.5</ele><time>2026-04-25T08:02:20.827Z</time></trkpt><trkpt lat="45.6728542" lon="12.5347784"><ele>1.0</ele><time>2026-04-25T08:02:21.816Z</time></trkpt><trkpt lat="45.6729794" lon="12.5350531"><ele>1.0</ele><time>2026-04-25T08:02:22.82Z</time></trkpt><trkpt lat="45.6731097" lon="12.5353276"><ele>1.0</ele><time>2026-04-25T08:02:23.809Z</time></trkpt><trkpt lat="45.6732388" lon="12.5356016"><ele>1.0</ele><time>2026-04-25T08:02:24.818Z</time></trkpt><trkpt lat="45.6733762" lon="12.5358791"><ele>1.0</ele><time>2026-04-25T08:02:25.824Z</time></trkpt><trkpt lat="45.6735096" lon="12.5361619"><ele>2.5</ele><time>2026-04-25T08:02:26.811Z</time></trkpt><trkpt lat="45.6736471" lon="12.5364483"><ele>4.0</ele><time>2026-04-25T08:02:27.827Z</time></trkpt><trkpt lat="45.6737821" lon="12.5367314"><ele>4.0</ele><time>2026-04-25T08:02:28.819Z</time></trkpt><trkpt lat="45.6739147" lon="12.5370119"><ele>4.0</ele><time>2026-04-25T08:02:29.823Z</time></trkpt><trkpt lat="45.6740498" lon="12.5372924"><ele>3.5</ele><time>2026-04-25T08:02:30.824Z</time></trkpt><trkpt lat="45.6741853" lon="12.5375726"><ele>3.0</ele><time>2026-04-25T08:02:31.823Z</time></trkpt><trkpt lat="45.6743225" lon="12.5378501"><ele>2.5</ele><time>2026-04-25T08:02:32.83Z</time></trkpt><trkpt lat="45.6744622" lon="12.5381274"><ele>2.0</ele><time>2026-04-25T08:02:33.824Z</time></trkpt><trkpt lat="45.6746015" lon="12.5383998"><ele>2.0</ele><time>2026-04-25T08:02:34.82Z</time></trkpt><trkpt lat="45.6747406" lon="12.5386794"><ele>2.0</ele><time>2026-04-25T08:02:35.824Z</time></trkpt><trkpt lat="45.6748796" lon="12.53896"><ele>1.5</ele><time>2026-04-25T08:02:36.821Z</time></trkpt><trkpt lat="45.6750206" lon="12.539242"><ele>1.0</ele><time>2026-04-25T08:02:37.821Z</time></trkpt><trkpt lat="45.6751597" lon="12.5395264"><ele>0.5</ele><time>2026-04-25T08:02:38.822Z</time></trkpt><trkpt lat="45.675302" lon="12.5398142"><ele>0.0</ele><time>2026-04-25T08:02:39.823Z</time></trkpt><trkpt lat="45.6754417" lon="12.5401072"><ele>1.0</ele><time>2026-04-25T08:02:40.822Z</time></trkpt><trkpt lat="45.6755811" lon="12.5404008"><ele>2.0</ele><time>2026-04-25T08:02:41.822Z</time></trkpt><trkpt lat="45.6757232" lon="12.5407009"><ele>2.0</ele><time>2026-04-25T08:02:42.83Z</time></trkpt><trkpt lat="45.6758634" lon="12.5409946"><ele>2.0</ele><time>2026-04-25T08:02:43.816Z</time></trkpt><trkpt lat="45.6760049" lon="12.5412906"><ele>1.0</ele><time>2026-04-25T08:02:44.822Z</time></trkpt><trkpt lat="45.6761477" lon="12.541587"><ele>0.0</ele><time>2026-04-25T08:02:45.815Z</time></trkpt><trkpt lat="45.676288" lon="12.5418794"><ele>-0.5</ele><time>2026-04-25T08:02:46.827Z</time></trkpt><trkpt lat="45.6764311" lon="12.5421752"><ele>-1.0</ele><time>2026-04-25T08:02:47.815Z</time></trkpt><trkpt lat="45.6765722" lon="12.5424704"><ele>-1.0</ele><time>2026-04-25T08:02:48.815Z</time></trkpt><trkpt lat="45.6767215" lon="12.5427671"><ele>-1.0</ele><time>2026-04-25T08:02:49.813Z</time></trkpt><trkpt lat="45.6768647" lon="12.5430579"><ele>-0.5</ele><time>2026-04-25T08:02:50.818Z</time></trkpt><trkpt lat="45.6770094" lon="12.5433486"><ele>0.0</ele><time>2026-04-25T08:02:51.825Z</time></trkpt><trkpt lat="45.6771543" lon="12.5436432"><ele>0.5</ele><time>2026-04-25T08:02:52.815Z</time></trkpt><trkpt lat="45.6772985" lon="12.5439431"><ele>1.0</ele><time>2026-04-25T08:02:53.817Z</time></trkpt><trkpt lat="45.6774407" lon="12.5442387"><ele>1.0</ele><time>2026-04-25T08:02:54.815Z</time></trkpt><trkpt lat="45.6775783" lon="12.5445361"><ele>1.0</ele><time>2026-04-25T08:02:55.821Z</time></trkpt><trkpt lat="45.6777174" lon="12.5448297"><ele>1.5</ele><time>2026-04-25T08:02:56.815Z</time></trkpt><trkpt lat="45.6778578" lon="12.5451305"><ele>2.0</ele><time>2026-04-25T08:02:57.815Z</time></trkpt><trkpt lat="45.6779964" lon="12.5454322"><ele>2.0</ele><time>2026-04-25T08:02:58.824Z</time></trkpt><trkpt lat="45.6781406" lon="12.5457367"><ele>2.0</ele><time>2026-04-25T08:02:59.812Z</time></trkpt><trkpt lat="45.6782818" lon="12.5460359"><ele>3.0</ele><time>2026-04-25T08:03:00.813Z</time></trkpt><trkpt lat="45.6784241" lon="12.5463347"><ele>4.0</ele><time>2026-04-25T08:03:01.826Z</time></trkpt><trkpt lat="45.6785682" lon="12.5466382"><ele>3.0</ele><time>2026-04-25T08:03:02.819Z</time></trkpt><trkpt lat="45.6787092" lon="12.5469369"><ele>2.0</ele><time>2026-04-25T08:03:03.813Z</time></trkpt><trkpt lat="45.6788511" lon="12.5472353"><ele>2.0</ele><time>2026-04-25T08:03:04.816Z</time></trkpt><trkpt lat="45.6789944" lon="12.547536"><ele>2.0</ele><time>2026-04-25T08:03:05.824Z</time></trkpt><trkpt lat="45.6791379" lon="12.547837"><ele>1.5</ele><time>2026-04-25T08:03:06.813Z</time></trkpt><trkpt lat="45.6792785" lon="12.5481429"><ele>1.0</ele><time>2026-04-25T08:03:07.812Z</time></trkpt><trkpt lat="45.6794227" lon="12.5484451"><ele>0.5</ele><time>2026-04-25T08:03:08.823Z</time></trkpt><trkpt lat="45.6795682" lon="12.5487515"><ele>0.0</ele><time>2026-04-25T08:03:09.824Z</time></trkpt><trkpt lat="45.6797115" lon="12.5490569"><ele>0.0</ele><time>2026-04-25T08:03:10.816Z</time></trkpt><trkpt lat="45.679859" lon="12.5493617"><ele>0.0</ele><time>2026-04-25T08:03:11.819Z</time></trkpt><trkpt lat="45.6800067" lon="12.549663"><ele>0.0</ele><time>2026-04-25T08:03:12.818Z</time></trkpt><trkpt lat="45.680157" lon="12.5499721"><ele>0.0</ele><time>2026-04-25T08:03:13.816Z</time></trkpt><trkpt lat="45.6803066" lon="12.550277"><ele>0.0</ele><time>2026-04-25T08:03:14.815Z</time></trkpt><trkpt lat="45.6804541" lon="12.5505783"><ele>0.0</ele><time>2026-04-25T08:03:15.815Z</time></trkpt><trkpt lat="45.6805996" lon="12.5508851"><ele>0.0</ele><time>2026-04-25T08:03:16.833Z</time></trkpt><trkpt lat="45.6807477" lon="12.5511931"><ele>0.0</ele><time>2026-04-25T08:03:17.812Z</time></trkpt><trkpt lat="45.6808936" lon="12.5514969"><ele>0.0</ele><time>2026-04-25T08:03:18.812Z</time></trkpt><trkpt lat="45.6810368" lon="12.5518065"><ele>0.0</ele><time>2026-04-25T08:03:19.811Z</time></trkpt><trkpt lat="45.681184" lon="12.5521108"><ele>-1.0</ele><time>2026-04-25T08:03:20.825Z</time></trkpt><trkpt lat="45.6813255" lon="12.5524189"><ele>-2.0</ele><time>2026-04-25T08:03:21.823Z</time></trkpt><trkpt lat="45.6814699" lon="12.5527217"><ele>-2.0</ele><time>2026-04-25T08:03:22.811Z</time></trkpt><trkpt lat="45.6816161" lon="12.553028"><ele>-2.0</ele><time>2026-04-25T08:03:23.831Z</time></trkpt><trkpt lat="45.6817676" lon="12.553337"><ele>-2.0</ele><time>2026-04-25T08:03:24.807Z</time></trkpt><trkpt lat="45.6819214" lon="12.5536475"><ele>-2.0</ele><time>2026-04-25T08:03:25.82Z</time></trkpt><trkpt lat="45.6820659" lon="12.5539521"><ele>0.0</ele><time>2026-04-25T08:03:26.822Z</time></trkpt><trkpt lat="45.6822083" lon="12.5542593"><ele>2.0</ele><time>2026-04-25T08:03:27.818Z</time></trkpt><trkpt lat="45.682349" lon="12.5545675"><ele>2.5</ele><time>2026-04-25T08:03:28.822Z</time></trkpt><trkpt lat="45.6824924" lon="12.5548706"><ele>3.0</ele><time>2026-04-25T08:03:29.816Z</time></trkpt><trkpt lat="45.682636" lon="12.5551723"><ele>2.0</ele><time>2026-04-25T08:03:30.815Z</time></trkpt><trkpt lat="45.6827829" lon="12.555475"><ele>1.0</ele><time>2026-04-25T08:03:31.826Z</time></trkpt><trkpt lat="45.682929" lon="12.5557818"><ele>1.0</ele><time>2026-04-25T08:03:32.821Z</time></trkpt><trkpt lat="45.6830749" lon="12.5560889"><ele>1.0</ele><time>2026-04-25T08:03:33.814Z</time></trkpt><trkpt lat="45.6832202" lon="12.5563923"><ele>1.0</ele><time>2026-04-25T08:03:34.815Z</time></trkpt><trkpt lat="45.6833629" lon="12.5566975"><ele>1.0</ele><time>2026-04-25T08:03:35.822Z</time></trkpt><trkpt lat="45.6835033" lon="12.5569929"><ele>1.0</ele><time>2026-04-25T08:03:36.816Z</time></trkpt><trkpt lat="45.6836498" lon="12.5572954"><ele>1.0</ele><time>2026-04-25T08:03:37.814Z</time></trkpt><trkpt lat="45.6837918" lon="12.5575927"><ele>0.5</ele><time>2026-04-25T08:03:38.825Z</time></trkpt><trkpt lat="45.6839381" lon="12.5578819"><ele>0.0</ele><time>2026-04-25T08:03:39.819Z</time></trkpt><trkpt lat="45.6840817" lon="12.5581754"><ele>0.0</ele><time>2026-04-25T08:03:40.832Z</time></trkpt><trkpt lat="45.6842225" lon="12.5584786"><ele>0.0</ele><time>2026-04-25T08:03:41.816Z</time></trkpt><trkpt lat="45.6843599" lon="12.5587753"><ele>1.0</ele><time>2026-04-25T08:03:42.82Z</time></trkpt><trkpt lat="45.6845018" lon="12.5590752"><ele>2.0</ele><time>2026-04-25T08:03:43.817Z</time></trkpt><trkpt lat="45.6846376" lon="12.5593753"><ele>1.5</ele><time>2026-04-25T08:03:44.83Z</time></trkpt><trkpt lat="45.6847803" lon="12.5596802"><ele>1.0</ele><time>2026-04-25T08:03:45.821Z</time></trkpt><trkpt lat="45.6849294" lon="12.559989"><ele>1.0</ele><time>2026-04-25T08:03:46.817Z</time></trkpt><trkpt lat="45.685078" lon="12.560297"><ele>1.0</ele><time>2026-04-25T08:03:47.828Z</time></trkpt><trkpt lat="45.6852271" lon="12.5606107"><ele>0.0</ele><time>2026-04-25T08:03:48.817Z</time></trkpt><trkpt lat="45.6853806" lon="12.5609211"><ele>-1.0</ele><time>2026-04-25T08:03:49.821Z</time></trkpt><trkpt lat="45.6855323" lon="12.5612355"><ele>-1.0</ele><time>2026-04-25T08:03:50.82Z</time></trkpt><trkpt lat="45.6856807" lon="12.5615527"><ele>-1.0</ele><time>2026-04-25T08:03:51.813Z</time></trkpt><trkpt lat="45.6858315" lon="12.5618621"><ele>-1.0</ele><time>2026-04-25T08:03:52.804Z</time></trkpt><trkpt lat="45.6859809" lon="12.5621703"><ele>-1.0</ele><time>2026-04-25T08:03:53.809Z</time></trkpt><trkpt lat="45.6867095" lon="12.5636995"><ele>0.0</ele><time>2026-04-25T08:03:55.098Z</time></trkpt><trkpt lat="45.6868521" lon="12.5640009"><ele>1.0</ele><time>2026-04-25T08:03:56.089Z</time></trkpt><trkpt lat="45.6869985" lon="12.564303"><ele>1.0</ele><time>2026-04-25T08:03:57.093Z</time></trkpt><trkpt lat="45.6871394" lon="12.5646"><ele>1.0</ele><time>2026-04-25T08:03:58.094Z</time></trkpt><trkpt lat="45.6872824" lon="12.5648968"><ele>1.0</ele><time>2026-04-25T08:03:59.108Z</time></trkpt><trkpt lat="45.6874265" lon="12.565192"><ele>1.0</ele><time>2026-04-25T08:04:00.09Z</time></trkpt><trkpt lat="45.6875684" lon="12.5654902"><ele>1.0</ele><time>2026-04-25T08:04:01.091Z</time></trkpt><trkpt lat="45.6877085" lon="12.5657873"><ele>1.0</ele><time>2026-04-25T08:04:02.094Z</time></trkpt><trkpt lat="45.6878489" lon="12.5660891"><ele>1.0</ele><time>2026-04-25T08:04:03.106Z</time></trkpt><trkpt lat="45.6879908" lon="12.5663896"><ele>1.0</ele><time>2026-04-25T08:04:04.1Z</time></trkpt><trkpt lat="45.6881337" lon="12.566687"><ele>1.0</ele><time>2026-04-25T08:04:05.099Z</time></trkpt><trkpt lat="45.6882759" lon="12.5669863"><ele>1.0</ele><time>2026-04-25T08:04:06.095Z</time></trkpt><trkpt lat="45.6884173" lon="12.5672832"><ele>1.5</ele><time>2026-04-25T08:04:07.096Z</time></trkpt><trkpt lat="45.6885606" lon="12.5675738"><ele>2.0</ele><time>2026-04-25T08:04:08.098Z</time></trkpt><trkpt lat="45.6887025" lon="12.567877"><ele>0.5</ele><time>2026-04-25T08:04:09.1Z</time></trkpt><trkpt lat="45.6888442" lon="12.568175"><ele>-1.0</ele><time>2026-04-25T08:04:10.099Z</time></trkpt><trkpt lat="45.6889882" lon="12.5684763"><ele>0.5</ele><time>2026-04-25T08:04:11.109Z</time></trkpt><trkpt lat="45.6891329" lon="12.5687752"><ele>2.0</ele><time>2026-04-25T08:04:12.108Z</time></trkpt><trkpt lat="45.6892744" lon="12.5690759"><ele>2.0</ele><time>2026-04-25T08:04:13.103Z</time></trkpt><trkpt lat="45.6894124" lon="12.5693692"><ele>2.0</ele><time>2026-04-25T08:04:14.119Z</time></trkpt><trkpt lat="45.6895548" lon="12.5696675"><ele>1.5</ele><time>2026-04-25T08:04:15.102Z</time></trkpt><trkpt lat="45.6896957" lon="12.5699709"><ele>1.0</ele><time>2026-04-25T08:04:16.101Z</time></trkpt><trkpt lat="45.6898386" lon="12.5702769"><ele>0.5</ele><time>2026-04-25T08:04:17.099Z</time></trkpt><trkpt lat="45.6899795" lon="12.5705753"><ele>0.0</ele><time>2026-04-25T08:04:18.099Z</time></trkpt><trkpt lat="45.6901236" lon="12.5708802"><ele>0.0</ele><time>2026-04-25T08:04:19.107Z</time></trkpt><trkpt lat="45.6902659" lon="12.5711811"><ele>0.0</ele><time>2026-04-25T08:04:20.099Z</time></trkpt><trkpt lat="45.6904125" lon="12.5714787"><ele>-0.5</ele><time>2026-04-25T08:04:21.105Z</time></trkpt><trkpt lat="45.6905548" lon="12.5717753"><ele>-1.0</ele><time>2026-04-25T08:04:22.122Z</time></trkpt><trkpt lat="45.6906974" lon="12.5720727"><ele>-1.5</ele><time>2026-04-25T08:04:23.105Z</time></trkpt><trkpt lat="45.6908399" lon="12.572372"><ele>-2.0</ele><time>2026-04-25T08:04:24.108Z</time></trkpt><trkpt lat="45.6909842" lon="12.5726672"><ele>-0.5</ele><time>2026-04-25T08:04:25.112Z</time></trkpt><trkpt lat="45.6911264" lon="12.5729608"><ele>1.0</ele><time>2026-04-25T08:04:26.101Z</time></trkpt><trkpt lat="45.6912662" lon="12.5732591"><ele>1.0</ele><time>2026-04-25T08:04:27.104Z</time></trkpt><trkpt lat="45.6914074" lon="12.5735551"><ele>1.0</ele><time>2026-04-25T08:04:28.109Z</time></trkpt><trkpt lat="45.69155" lon="12.5738495"><ele>0.0</ele><time>2026-04-25T08:04:29.109Z</time></trkpt><trkpt lat="45.6916946" lon="12.5741525"><ele>-1.0</ele><time>2026-04-25T08:04:30.119Z</time></trkpt><trkpt lat="45.691836" lon="12.5744478"><ele>-2.0</ele><time>2026-04-25T08:04:31.105Z</time></trkpt><trkpt lat="45.6919756" lon="12.5747423"><ele>-3.0</ele><time>2026-04-25T08:04:32.112Z</time></trkpt><trkpt lat="45.6921185" lon="12.5750366"><ele>-3.0</ele><time>2026-04-25T08:04:33.099Z</time></trkpt><trkpt lat="45.692263" lon="12.5753334"><ele>-3.0</ele><time>2026-04-25T08:04:34.101Z</time></trkpt><trkpt lat="45.6924039" lon="12.575628"><ele>-2.5</ele><time>2026-04-25T08:04:35.111Z</time></trkpt><trkpt lat="45.6925412" lon="12.575921"><ele>-2.0</ele><time>2026-04-25T08:04:36.106Z</time></trkpt><trkpt lat="45.6926811" lon="12.5762193"><ele>-1.5</ele><time>2026-04-25T08:04:37.115Z</time></trkpt><trkpt lat="45.6928203" lon="12.5765161"><ele>-1.0</ele><time>2026-04-25T08:04:38.105Z</time></trkpt><trkpt lat="45.6929602" lon="12.5768093"><ele>-1.0</ele><time>2026-04-25T08:04:39.099Z</time></trkpt><trkpt lat="45.6930983" lon="12.5771026"><ele>-1.0</ele><time>2026-04-25T08:04:40.096Z</time></trkpt><trkpt lat="45.6932402" lon="12.5774002"><ele>-1.0</ele><time>2026-04-25T08:04:41.113Z</time></trkpt><trkpt lat="45.6933814" lon="12.577695"><ele>-1.0</ele><time>2026-04-25T08:04:42.108Z</time></trkpt><trkpt lat="45.6935233" lon="12.5779891"><ele>0.0</ele><time>2026-04-25T08:04:43.104Z</time></trkpt><trkpt lat="45.6936635" lon="12.5782877"><ele>1.0</ele><time>2026-04-25T08:04:44.112Z</time></trkpt><trkpt lat="45.6938049" lon="12.5785866"><ele>0.5</ele><time>2026-04-25T08:04:45.111Z</time></trkpt><trkpt lat="45.693945" lon="12.578887"><ele>0.0</ele><time>2026-04-25T08:04:46.105Z</time></trkpt><trkpt lat="45.6940887" lon="12.5791848"><ele>0.0</ele><time>2026-04-25T08:04:47.113Z</time></trkpt><trkpt lat="45.6942318" lon="12.5794805"><ele>0.0</ele><time>2026-04-25T08:04:48.105Z</time></trkpt><trkpt lat="45.6943747" lon="12.5797835"><ele>0.0</ele><time>2026-04-25T08:04:49.107Z</time></trkpt><trkpt lat="45.6945175" lon="12.5800825"><ele>0.0</ele><time>2026-04-25T08:04:50.108Z</time></trkpt><trkpt lat="45.6946616" lon="12.5803765"><ele>0.0</ele><time>2026-04-25T08:04:51.109Z</time></trkpt><trkpt lat="45.6948063" lon="12.5806747"><ele>0.0</ele><time>2026-04-25T08:04:52.103Z</time></trkpt><trkpt lat="45.6949512" lon="12.5809659"><ele>0.0</ele><time>2026-04-25T08:04:53.112Z</time></trkpt><trkpt lat="45.695098" lon="12.5812654"><ele>0.0</ele><time>2026-04-25T08:04:54.106Z</time></trkpt><trkpt lat="45.695241" lon="12.5815636"><ele>1.0</ele><time>2026-04-25T08:04:55.103Z</time></trkpt><trkpt lat="45.6953826" lon="12.5818636"><ele>2.0</ele><time>2026-04-25T08:04:56.103Z</time></trkpt><trkpt lat="45.6955261" lon="12.5821665"><ele>2.0</ele><time>2026-04-25T08:04:57.101Z</time></trkpt><trkpt lat="45.6956687" lon="12.582471"><ele>2.0</ele><time>2026-04-25T08:04:58.112Z</time></trkpt><trkpt lat="45.6958096" lon="12.5827713"><ele>1.5</ele><time>2026-04-25T08:04:59.105Z</time></trkpt><trkpt lat="45.695947" lon="12.5830719"><ele>1.0</ele><time>2026-04-25T08:05:00.109Z</time></trkpt><trkpt lat="45.6960929" lon="12.5833771"><ele>0.5</ele><time>2026-04-25T08:05:01.112Z</time></trkpt><trkpt lat="45.6962388" lon="12.5836905"><ele>0.0</ele><time>2026-04-25T08:05:02.103Z</time></trkpt><trkpt lat="45.6963857" lon="12.5839987"><ele>0.0</ele><time>2026-04-25T08:05:03.108Z</time></trkpt><trkpt lat="45.6965274" lon="12.5843104"><ele>0.0</ele><time>2026-04-25T08:05:04.106Z</time></trkpt><trkpt lat="45.6966649" lon="12.584619"><ele>0.5</ele><time>2026-04-25T08:05:05.117Z</time></trkpt><trkpt lat="45.6968019" lon="12.5849325"><ele>1.0</ele><time>2026-04-25T08:05:06.103Z</time></trkpt><trkpt lat="45.6969366" lon="12.5852427"><ele>0.5</ele><time>2026-04-25T08:05:07.105Z</time></trkpt><trkpt lat="45.6970721" lon="12.5855548"><ele>0.0</ele><time>2026-04-25T08:05:08.104Z</time></trkpt><trkpt lat="45.6972083" lon="12.5858749"><ele>0.5</ele><time>2026-04-25T08:05:09.097Z</time></trkpt><trkpt lat="45.6973463" lon="12.5861872"><ele>1.0</ele><time>2026-04-25T08:05:10.101Z</time></trkpt><trkpt lat="45.6974809" lon="12.5865055"><ele>1.0</ele><time>2026-04-25T08:05:11.11Z</time></trkpt><trkpt lat="45.6976154" lon="12.5868243"><ele>1.0</ele><time>2026-04-25T08:05:12.11Z</time></trkpt><trkpt lat="45.6977522" lon="12.5871348"><ele>0.5</ele><time>2026-04-25T08:05:13.111Z</time></trkpt><trkpt lat="45.6978834" lon="12.587456"><ele>0.0</ele><time>2026-04-25T08:05:14.109Z</time></trkpt><trkpt lat="45.6980125" lon="12.5877732"><ele>0.0</ele><time>2026-04-25T08:05:15.121Z</time></trkpt><trkpt lat="45.698142" lon="12.588088"><ele>0.0</ele><time>2026-04-25T08:05:16.112Z</time></trkpt><trkpt lat="45.6982705" lon="12.5884045"><ele>0.0</ele><time>2026-04-25T08:05:17.105Z</time></trkpt><trkpt lat="45.6984014" lon="12.588718"><ele>0.0</ele><time>2026-04-25T08:05:18.102Z</time></trkpt><trkpt lat="45.698531" lon="12.5890322"><ele>0.0</ele><time>2026-04-25T08:05:19.106Z</time></trkpt><trkpt lat="45.6986559" lon="12.5893523"><ele>0.0</ele><time>2026-04-25T08:05:20.106Z</time></trkpt><trkpt lat="45.698774" lon="12.5896618"><ele>0.0</ele><time>2026-04-25T08:05:21.11Z</time></trkpt><trkpt lat="45.6988959" lon="12.5899787"><ele>0.0</ele><time>2026-04-25T08:05:22.106Z</time></trkpt><trkpt lat="45.6990175" lon="12.5902973"><ele>0.0</ele><time>2026-04-25T08:05:23.101Z</time></trkpt><trkpt lat="45.6991403" lon="12.5906081"><ele>0.0</ele><time>2026-04-25T08:05:24.11Z</time></trkpt><trkpt lat="45.6992617" lon="12.5909302"><ele>-0.5</ele><time>2026-04-25T08:05:25.113Z</time></trkpt><trkpt lat="45.6993833" lon="12.5912571"><ele>-1.0</ele><time>2026-04-25T08:05:26.101Z</time></trkpt><trkpt lat="45.699507" lon="12.5915927"><ele>0.5</ele><time>2026-04-25T08:05:27.12Z</time></trkpt><trkpt lat="45.6996247" lon="12.591929"><ele>2.0</ele><time>2026-04-25T08:05:28.107Z</time></trkpt><trkpt lat="45.6997458" lon="12.5922651"><ele>2.0</ele><time>2026-04-25T08:05:29.105Z</time></trkpt><trkpt lat="45.6998663" lon="12.5926003"><ele>2.0</ele><time>2026-04-25T08:05:30.12Z</time></trkpt><trkpt lat="45.699983" lon="12.5929359"><ele>2.0</ele><time>2026-04-25T08:05:31.108Z</time></trkpt><trkpt lat="45.7001065" lon="12.5932678"><ele>2.0</ele><time>2026-04-25T08:05:32.111Z</time></trkpt><trkpt lat="45.7002238" lon="12.5936058"><ele>1.5</ele><time>2026-04-25T08:05:33.106Z</time></trkpt><trkpt lat="45.7003396" lon="12.5939374"><ele>1.0</ele><time>2026-04-25T08:05:34.107Z</time></trkpt><trkpt lat="45.7004575" lon="12.5942648"><ele>0.0</ele><time>2026-04-25T08:05:35.106Z</time></trkpt><trkpt lat="45.7005726" lon="12.5945916"><ele>-1.0</ele><time>2026-04-25T08:05:36.105Z</time></trkpt><trkpt lat="45.7006903" lon="12.5949209"><ele>-1.0</ele><time>2026-04-25T08:05:37.101Z</time></trkpt><trkpt lat="45.7008095" lon="12.5952475"><ele>-1.0</ele><time>2026-04-25T08:05:38.106Z</time></trkpt><trkpt lat="45.7009255" lon="12.59557"><ele>-0.5</ele><time>2026-04-25T08:05:39.112Z</time></trkpt><trkpt lat="45.7010431" lon="12.5958979"><ele>0.0</ele><time>2026-04-25T08:05:40.108Z</time></trkpt><trkpt lat="45.7011582" lon="12.5962192"><ele>1.0</ele><time>2026-04-25T08:05:41.107Z</time></trkpt><trkpt lat="45.7012725" lon="12.5965395"><ele>2.0</ele><time>2026-04-25T08:05:42.112Z</time></trkpt><trkpt lat="45.7013867" lon="12.5968627"><ele>1.0</ele><time>2026-04-25T08:05:43.102Z</time></trkpt><trkpt lat="45.7015045" lon="12.5971831"><ele>0.0</ele><time>2026-04-25T08:05:44.11Z</time></trkpt><trkpt lat="45.7016197" lon="12.5975074"><ele>0.0</ele><time>2026-04-25T08:05:45.116Z</time></trkpt><trkpt lat="45.7017369" lon="12.5978272"><ele>0.0</ele><time>2026-04-25T08:05:46.111Z</time></trkpt><trkpt lat="45.7018569" lon="12.5981425"><ele>1.0</ele><time>2026-04-25T08:05:47.107Z</time></trkpt><trkpt lat="45.7019712" lon="12.598462"><ele>2.0</ele><time>2026-04-25T08:05:48.109Z</time></trkpt><trkpt lat="45.7020898" lon="12.5987768"><ele>2.5</ele><time>2026-04-25T08:05:49.106Z</time></trkpt><trkpt lat="45.7022019" lon="12.5990945"><ele>3.0</ele><time>2026-04-25T08:05:50.099Z</time></trkpt><trkpt lat="45.7023198" lon="12.599416"><ele>2.5</ele><time>2026-04-25T08:05:51.106Z</time></trkpt><trkpt lat="45.7024306" lon="12.5997371"><ele>2.0</ele><time>2026-04-25T08:05:52.106Z</time></trkpt><trkpt lat="45.7025427" lon="12.6000542"><ele>2.0</ele><time>2026-04-25T08:05:53.105Z</time></trkpt><trkpt lat="45.7026578" lon="12.6003786"><ele>2.0</ele><time>2026-04-25T08:05:54.11Z</time></trkpt><trkpt lat="45.7027756" lon="12.6006977"><ele>2.0</ele><time>2026-04-25T08:05:55.104Z</time></trkpt><trkpt lat="45.7028903" lon="12.6010197"><ele>2.0</ele><time>2026-04-25T08:05:56.11Z</time></trkpt><trkpt lat="45.7030089" lon="12.6013381"><ele>1.5</ele><time>2026-04-25T08:05:57.096Z</time></trkpt><trkpt lat="45.7031249" lon="12.6016557"><ele>1.0</ele><time>2026-04-25T08:05:58.104Z</time></trkpt><trkpt lat="45.7032416" lon="12.6019737"><ele>1.0</ele><time>2026-04-25T08:05:59.103Z</time></trkpt><trkpt lat="45.7033553" lon="12.6022894"><ele>1.0</ele><time>2026-04-25T08:06:00.106Z</time></trkpt><trkpt lat="45.7034653" lon="12.6026083"><ele>2.0</ele><time>2026-04-25T08:06:01.103Z</time></trkpt><trkpt lat="45.7035762" lon="12.6029223"><ele>3.0</ele><time>2026-04-25T08:06:02.104Z</time></trkpt><trkpt lat="45.7036918" lon="12.6032472"><ele>3.0</ele><time>2026-04-25T08:06:03.097Z</time></trkpt><trkpt lat="45.7038057" lon="12.6035763"><ele>3.0</ele><time>2026-04-25T08:06:04.123Z</time></trkpt><trkpt lat="45.7039216" lon="12.6038997"><ele>3.0</ele><time>2026-04-25T08:06:05.101Z</time></trkpt><trkpt lat="45.7040393" lon="12.6042199"><ele>3.0</ele><time>2026-04-25T08:06:06.105Z</time></trkpt><trkpt lat="45.7041571" lon="12.604543"><ele>3.0</ele><time>2026-04-25T08:06:07.106Z</time></trkpt><trkpt lat="45.7042771" lon="12.6048678"><ele>3.0</ele><time>2026-04-25T08:06:08.11Z</time></trkpt><trkpt lat="45.7043911" lon="12.6051926"><ele>2.5</ele><time>2026-04-25T08:06:09.1Z</time></trkpt><trkpt lat="45.7045082" lon="12.6055117"><ele>2.0</ele><time>2026-04-25T08:06:10.1Z</time></trkpt><trkpt lat="45.7046265" lon="12.6058357"><ele>2.0</ele><time>2026-04-25T08:06:11.1Z</time></trkpt><trkpt lat="45.7047413" lon="12.6061596"><ele>2.0</ele><time>2026-04-25T08:06:12.107Z</time></trkpt><trkpt lat="45.7048552" lon="12.6064841"><ele>1.5</ele><time>2026-04-25T08:06:13.104Z</time></trkpt><trkpt lat="45.7049728" lon="12.6068082"><ele>1.0</ele><time>2026-04-25T08:06:14.095Z</time></trkpt><trkpt lat="45.7050891" lon="12.6071292"><ele>1.5</ele><time>2026-04-25T08:06:15.103Z</time></trkpt><trkpt lat="45.7052075" lon="12.6074504"><ele>2.0</ele><time>2026-04-25T08:06:16.105Z</time></trkpt><trkpt lat="45.7053271" lon="12.6077703"><ele>1.5</ele><time>2026-04-25T08:06:17.104Z</time></trkpt><trkpt lat="45.7054454" lon="12.6080856"><ele>1.0</ele><time>2026-04-25T08:06:18.112Z</time></trkpt><trkpt lat="45.7055628" lon="12.6083936"><ele>0.5</ele><time>2026-04-25T08:06:19.102Z</time></trkpt><trkpt lat="45.7056806" lon="12.6087016"><ele>0.0</ele><time>2026-04-25T08:06:20.092Z</time></trkpt><trkpt lat="45.705801" lon="12.6090051"><ele>0.0</ele><time>2026-04-25T08:06:21.099Z</time></trkpt><trkpt lat="45.7059223" lon="12.609313"><ele>0.0</ele><time>2026-04-25T08:06:22.112Z</time></trkpt><trkpt lat="45.7060406" lon="12.6096229"><ele>0.5</ele><time>2026-04-25T08:06:23.111Z</time></trkpt><trkpt lat="45.7061639" lon="12.6099321"><ele>1.0</ele><time>2026-04-25T08:06:24.115Z</time></trkpt><trkpt lat="45.706287" lon="12.6102422"><ele>1.0</ele><time>2026-04-25T08:06:25.122Z</time></trkpt><trkpt lat="45.7064154" lon="12.610552"><ele>1.0</ele><time>2026-04-25T08:06:26.112Z</time></trkpt><trkpt lat="45.7065455" lon="12.6108664"><ele>1.0</ele><time>2026-04-25T08:06:27.11Z</time></trkpt><trkpt lat="45.7066759" lon="12.6111872"><ele>1.0</ele><time>2026-04-25T08:06:28.102Z</time></trkpt><trkpt lat="45.7068121" lon="12.6115074"><ele>1.5</ele><time>2026-04-25T08:06:29.1Z</time></trkpt><trkpt lat="45.706943" lon="12.6118219"><ele>2.0</ele><time>2026-04-25T08:06:30.103Z</time></trkpt><trkpt lat="45.7070807" lon="12.6121303"><ele>2.0</ele><time>2026-04-25T08:06:31.097Z</time></trkpt><trkpt lat="45.7072196" lon="12.6124472"><ele>2.0</ele><time>2026-04-25T08:06:32.111Z</time></trkpt><trkpt lat="45.7073597" lon="12.6127628"><ele>1.5</ele><time>2026-04-25T08:06:33.101Z</time></trkpt><trkpt lat="45.7074997" lon="12.6130817"><ele>1.0</ele><time>2026-04-25T08:06:34.118Z</time></trkpt><trkpt lat="45.7076412" lon="12.6134"><ele>1.5</ele><time>2026-04-25T08:06:35.105Z</time></trkpt><trkpt lat="45.7077886" lon="12.6137097"><ele>2.0</ele><time>2026-04-25T08:06:36.109Z</time></trkpt><trkpt lat="45.707929" lon="12.6140179"><ele>2.0</ele><time>2026-04-25T08:06:37.106Z</time></trkpt><trkpt lat="45.7080741" lon="12.6143208"><ele>2.0</ele><time>2026-04-25T08:06:38.103Z</time></trkpt><trkpt lat="45.7082209" lon="12.6146238"><ele>2.5</ele><time>2026-04-25T08:06:39.103Z</time></trkpt><trkpt lat="45.7083656" lon="12.6149243"><ele>3.0</ele><time>2026-04-25T08:06:40.101Z</time></trkpt><trkpt lat="45.708513" lon="12.6152239"><ele>1.5</ele><time>2026-04-25T08:06:41.104Z</time></trkpt><trkpt lat="45.708663" lon="12.6155216"><ele>0.0</ele><time>2026-04-25T08:06:42.101Z</time></trkpt><trkpt lat="45.7088098" lon="12.615816"><ele>0.0</ele><time>2026-04-25T08:06:43.117Z</time></trkpt><trkpt lat="45.7089541" lon="12.6161144"><ele>0.0</ele><time>2026-04-25T08:06:44.1Z</time></trkpt><trkpt lat="45.7091" lon="12.6164135"><ele>1.0</ele><time>2026-04-25T08:06:45.097Z</time></trkpt><trkpt lat="45.7092467" lon="12.6167058"><ele>2.0</ele><time>2026-04-25T08:06:46.096Z</time></trkpt><trkpt lat="45.7093947" lon="12.616996"><ele>2.0</ele><time>2026-04-25T08:06:47.1Z</time></trkpt><trkpt lat="45.7095427" lon="12.6172812"><ele>2.0</ele><time>2026-04-25T08:06:48.1Z</time></trkpt><trkpt lat="45.7096906" lon="12.6175669"><ele>2.0</ele><time>2026-04-25T08:06:49.1Z</time></trkpt><trkpt lat="45.7098361" lon="12.6178531"><ele>2.0</ele><time>2026-04-25T08:06:50.095Z</time></trkpt><trkpt lat="45.709983" lon="12.618135"><ele>2.0</ele><time>2026-04-25T08:06:51.107Z</time></trkpt><trkpt lat="45.7101348" lon="12.6184223"><ele>2.0</ele><time>2026-04-25T08:06:52.095Z</time></trkpt><trkpt lat="45.7102804" lon="12.6186969"><ele>2.5</ele><time>2026-04-25T08:06:53.102Z</time></trkpt><trkpt lat="45.7104327" lon="12.6189693"><ele>3.0</ele><time>2026-04-25T08:06:54.105Z</time></trkpt><trkpt lat="45.7105878" lon="12.6192395"><ele>2.0</ele><time>2026-04-25T08:06:55.1Z</time></trkpt><trkpt lat="45.7107406" lon="12.619512"><ele>1.0</ele><time>2026-04-25T08:06:56.105Z</time></trkpt><trkpt lat="45.7108936" lon="12.6197809"><ele>1.0</ele><time>2026-04-25T08:06:57.099Z</time></trkpt><trkpt lat="45.7110489" lon="12.6200464"><ele>1.0</ele><time>2026-04-25T08:06:58.101Z</time></trkpt><trkpt lat="45.7112006" lon="12.6203188"><ele>1.5</ele><time>2026-04-25T08:06:59.1Z</time></trkpt><trkpt lat="45.7113534" lon="12.6205967"><ele>2.0</ele><time>2026-04-25T08:07:00.101Z</time></trkpt><trkpt lat="45.7115098" lon="12.6208653"><ele>2.0</ele><time>2026-04-25T08:07:01.102Z</time></trkpt><trkpt lat="45.7116609" lon="12.6211336"><ele>2.0</ele><time>2026-04-25T08:07:02.097Z</time></trkpt><trkpt lat="45.7118171" lon="12.6214038"><ele>2.0</ele><time>2026-04-25T08:07:03.096Z</time></trkpt><trkpt lat="45.7119755" lon="12.6216788"><ele>2.0</ele><time>2026-04-25T08:07:04.113Z</time></trkpt><trkpt lat="45.712136" lon="12.6219534"><ele>1.5</ele><time>2026-04-25T08:07:05.098Z</time></trkpt><trkpt lat="45.7122987" lon="12.6222317"><ele>1.0</ele><time>2026-04-25T08:07:06.099Z</time></trkpt><trkpt lat="45.7124651" lon="12.6225186"><ele>1.0</ele><time>2026-04-25T08:07:07.102Z</time></trkpt><trkpt lat="45.7126279" lon="12.6228022"><ele>1.0</ele><time>2026-04-25T08:07:08.1Z</time></trkpt><trkpt lat="45.7127952" lon="12.6230883"><ele>0.5</ele><time>2026-04-25T08:07:09.106Z</time></trkpt><trkpt lat="45.7129647" lon="12.6233836"><ele>0.0</ele><time>2026-04-25T08:07:10.102Z</time></trkpt><trkpt lat="45.7131319" lon="12.6236722"><ele>0.0</ele><time>2026-04-25T08:07:11.1Z</time></trkpt><trkpt lat="45.7133034" lon="12.6239666"><ele>0.0</ele><time>2026-04-25T08:07:12.104Z</time></trkpt><trkpt lat="45.713472" lon="12.6242641"><ele>1.0</ele><time>2026-04-25T08:07:13.102Z</time></trkpt><trkpt lat="45.7136423" lon="12.6245547"><ele>2.0</ele><time>2026-04-25T08:07:14.099Z</time></trkpt><trkpt lat="45.7138131" lon="12.6248475"><ele>2.0</ele><time>2026-04-25T08:07:15.095Z</time></trkpt><trkpt lat="45.7139804" lon="12.6251395"><ele>2.0</ele><time>2026-04-25T08:07:16.104Z</time></trkpt><trkpt lat="45.7141484" lon="12.6254229"><ele>2.5</ele><time>2026-04-25T08:07:17.104Z</time></trkpt><trkpt lat="45.7143133" lon="12.6257025"><ele>3.0</ele><time>2026-04-25T08:07:18.104Z</time></trkpt><trkpt lat="45.7144784" lon="12.6259835"><ele>1.5</ele><time>2026-04-25T08:07:19.106Z</time></trkpt><trkpt lat="45.7146408" lon="12.6262655"><ele>0.0</ele><time>2026-04-25T08:07:20.103Z</time></trkpt><trkpt lat="45.7148046" lon="12.6265528"><ele>0.0</ele><time>2026-04-25T08:07:21.098Z</time></trkpt><trkpt lat="45.714969" lon="12.6268336"><ele>0.0</ele><time>2026-04-25T08:07:22.113Z</time></trkpt><trkpt lat="45.7151343" lon="12.627116"><ele>0.5</ele><time>2026-04-25T08:07:23.099Z</time></trkpt><trkpt lat="45.715297" lon="12.6274017"><ele>1.0</ele><time>2026-04-25T08:07:24.1Z</time></trkpt><trkpt lat="45.715462" lon="12.6276848"><ele>1.5</ele><time>2026-04-25T08:07:25.102Z</time></trkpt><trkpt lat="45.7156297" lon="12.627972"><ele>2.0</ele><time>2026-04-25T08:07:26.108Z</time></trkpt><trkpt lat="45.7157942" lon="12.6282659"><ele>2.0</ele><time>2026-04-25T08:07:27.106Z</time></trkpt><trkpt lat="45.7159591" lon="12.6285505"><ele>2.0</ele><time>2026-04-25T08:07:28.107Z</time></trkpt><trkpt lat="45.7161251" lon="12.6288383"><ele>1.0</ele><time>2026-04-25T08:07:29.102Z</time></trkpt><trkpt lat="45.7162892" lon="12.6291215"><ele>0.0</ele><time>2026-04-25T08:07:30.105Z</time></trkpt><trkpt lat="45.7164547" lon="12.6294067"><ele>0.0</ele><time>2026-04-25T08:07:31.097Z</time></trkpt><trkpt lat="45.7166197" lon="12.6296891"><ele>0.0</ele><time>2026-04-25T08:07:32.113Z</time></trkpt><trkpt lat="45.7167873" lon="12.6299697"><ele>0.0</ele><time>2026-04-25T08:07:33.101Z</time></trkpt><trkpt lat="45.7169499" lon="12.6302508"><ele>0.0</ele><time>2026-04-25T08:07:34.102Z</time></trkpt><trkpt lat="45.7171104" lon="12.6305344"><ele>0.0</ele><time>2026-04-25T08:07:35.097Z</time></trkpt><trkpt lat="45.7172765" lon="12.6308147"><ele>0.0</ele><time>2026-04-25T08:07:36.112Z</time></trkpt><trkpt lat="45.7174388" lon="12.6310972"><ele>0.0</ele><time>2026-04-25T08:07:37.098Z</time></trkpt><trkpt lat="45.7176006" lon="12.6313753"><ele>0.0</ele><time>2026-04-25T08:07:38.093Z</time></trkpt><trkpt lat="45.7177632" lon="12.631657"><ele>-1.0</ele><time>2026-04-25T08:07:39.108Z</time></trkpt><trkpt lat="45.7179246" lon="12.6319385"><ele>-2.0</ele><time>2026-04-25T08:07:40.105Z</time></trkpt><trkpt lat="45.7180878" lon="12.6322182"><ele>-2.0</ele><time>2026-04-25T08:07:41.098Z</time></trkpt><trkpt lat="45.7182553" lon="12.632501"><ele>-2.0</ele><time>2026-04-25T08:07:42.094Z</time></trkpt><trkpt lat="45.7184205" lon="12.6327865"><ele>-1.0</ele><time>2026-04-25T08:07:43.099Z</time></trkpt><trkpt lat="45.7185857" lon="12.6330746"><ele>0.0</ele><time>2026-04-25T08:07:44.094Z</time></trkpt><trkpt lat="45.7187486" lon="12.6333587"><ele>0.0</ele><time>2026-04-25T08:07:45.102Z</time></trkpt><trkpt lat="45.718915" lon="12.6336458"><ele>0.0</ele><time>2026-04-25T08:07:46.11Z</time></trkpt><trkpt lat="45.7190818" lon="12.6339345"><ele>0.0</ele><time>2026-04-25T08:07:47.101Z</time></trkpt><trkpt lat="45.7192481" lon="12.6342299"><ele>0.0</ele><time>2026-04-25T08:07:48.088Z</time></trkpt><trkpt lat="45.719415" lon="12.6345193"><ele>-1.0</ele><time>2026-04-25T08:07:49.111Z</time></trkpt><trkpt lat="45.7195874" lon="12.6348108"><ele>-2.0</ele><time>2026-04-25T08:07:50.098Z</time></trkpt><trkpt lat="45.7197592" lon="12.6350942"><ele>-2.0</ele><time>2026-04-25T08:07:51.103Z</time></trkpt><trkpt lat="45.7199235" lon="12.6353846"><ele>-2.0</ele><time>2026-04-25T08:07:52.111Z</time></trkpt><trkpt lat="45.720088" lon="12.635671"><ele>-1.0</ele><time>2026-04-25T08:07:53.107Z</time></trkpt><trkpt lat="45.7202552" lon="12.635954"><ele>0.0</ele><time>2026-04-25T08:07:54.106Z</time></trkpt><trkpt lat="45.7204175" lon="12.6362303"><ele>0.5</ele><time>2026-04-25T08:07:55.107Z</time></trkpt><trkpt lat="45.720582" lon="12.6365021"><ele>1.0</ele><time>2026-04-25T08:07:56.101Z</time></trkpt><trkpt lat="45.720748" lon="12.6367845"><ele>1.0</ele><time>2026-04-25T08:07:57.115Z</time></trkpt><trkpt lat="45.7209117" lon="12.6370659"><ele>1.0</ele><time>2026-04-25T08:07:58.099Z</time></trkpt><trkpt lat="45.7210735" lon="12.6373538"><ele>-0.5</ele><time>2026-04-25T08:07:59.102Z</time></trkpt><trkpt lat="45.7212307" lon="12.637638"><ele>-2.0</ele><time>2026-04-25T08:08:00.099Z</time></trkpt><trkpt lat="45.7213886" lon="12.6379229"><ele>-2.0</ele><time>2026-04-25T08:08:01.106Z</time></trkpt><trkpt lat="45.72155" lon="12.6382038"><ele>-2.0</ele><time>2026-04-25T08:08:02.107Z</time></trkpt><trkpt lat="45.7217149" lon="12.6384865"><ele>-1.5</ele><time>2026-04-25T08:08:03.098Z</time></trkpt><trkpt lat="45.7218736" lon="12.6387739"><ele>-1.0</ele><time>2026-04-25T08:08:04.103Z</time></trkpt><trkpt lat="45.7220301" lon="12.6390617"><ele>-0.5</ele><time>2026-04-25T08:08:05.103Z</time></trkpt><trkpt lat="45.7221868" lon="12.6393494"><ele>0.0</ele><time>2026-04-25T08:08:06.108Z</time></trkpt><trkpt lat="45.7223455" lon="12.6396424"><ele>0.0</ele><time>2026-04-25T08:08:07.094Z</time></trkpt><trkpt lat="45.7224999" lon="12.6399338"><ele>0.0</ele><time>2026-04-25T08:08:08.097Z</time></trkpt><trkpt lat="45.722655" lon="12.6402209"><ele>0.0</ele><time>2026-04-25T08:08:09.095Z</time></trkpt><trkpt lat="45.7228109" lon="12.6405121"><ele>0.0</ele><time>2026-04-25T08:08:10.116Z</time></trkpt><trkpt lat="45.7229641" lon="12.6408054"><ele>0.0</ele><time>2026-04-25T08:08:11.106Z</time></trkpt><trkpt lat="45.7231112" lon="12.6410998"><ele>0.0</ele><time>2026-04-25T08:08:12.098Z</time></trkpt><trkpt lat="45.7232569" lon="12.6414009"><ele>-0.5</ele><time>2026-04-25T08:08:13.116Z</time></trkpt><trkpt lat="45.7234041" lon="12.6417021"><ele>-1.0</ele><time>2026-04-25T08:08:14.101Z</time></trkpt><trkpt lat="45.723554" lon="12.6419936"><ele>-1.5</ele><time>2026-04-25T08:08:15.102Z</time></trkpt><trkpt lat="45.7237062" lon="12.6422943"><ele>-2.0</ele><time>2026-04-25T08:08:16.105Z</time></trkpt><trkpt lat="45.7238558" lon="12.6425955"><ele>-2.5</ele><time>2026-04-25T08:08:17.099Z</time></trkpt><trkpt lat="45.7240002" lon="12.6428918"><ele>-3.0</ele><time>2026-04-25T08:08:18.102Z</time></trkpt><trkpt lat="45.7241425" lon="12.6431944"><ele>-3.0</ele><time>2026-04-25T08:08:19.097Z</time></trkpt><trkpt lat="45.724288" lon="12.6435021"><ele>-3.0</ele><time>2026-04-25T08:08:20.108Z</time></trkpt><trkpt lat="45.7244303" lon="12.6438151"><ele>-3.0</ele><time>2026-04-25T08:08:21.098Z</time></trkpt><trkpt lat="45.7245745" lon="12.6441271"><ele>-3.0</ele><time>2026-04-25T08:08:22.107Z</time></trkpt><trkpt lat="45.7247181" lon="12.6444393"><ele>-3.0</ele><time>2026-04-25T08:08:23.105Z</time></trkpt><trkpt lat="45.7248603" lon="12.6447511"><ele>-3.0</ele><time>2026-04-25T08:08:24.106Z</time></trkpt><trkpt lat="45.7250025" lon="12.6450597"><ele>-3.0</ele><time>2026-04-25T08:08:25.108Z</time></trkpt><trkpt lat="45.7251446" lon="12.6453737"><ele>-3.0</ele><time>2026-04-25T08:08:26.102Z</time></trkpt><trkpt lat="45.7252854" lon="12.6456879"><ele>-2.0</ele><time>2026-04-25T08:08:27.105Z</time></trkpt><trkpt lat="45.7254258" lon="12.646005"><ele>-1.0</ele><time>2026-04-25T08:08:28.104Z</time></trkpt><trkpt lat="45.7255644" lon="12.6463222"><ele>-1.0</ele><time>2026-04-25T08:08:29.101Z</time></trkpt><trkpt lat="45.7256998" lon="12.6466376"><ele>-1.0</ele><time>2026-04-25T08:08:30.106Z</time></trkpt><trkpt lat="45.7258349" lon="12.6469597"><ele>-1.0</ele><time>2026-04-25T08:08:31.103Z</time></trkpt><trkpt lat="45.7259686" lon="12.6472845"><ele>-1.0</ele><time>2026-04-25T08:08:32.103Z</time></trkpt><trkpt lat="45.7261045" lon="12.6475995"><ele>0.0</ele><time>2026-04-25T08:08:33.097Z</time></trkpt><trkpt lat="45.7262388" lon="12.6479248"><ele>1.0</ele><time>2026-04-25T08:08:34.103Z</time></trkpt><trkpt lat="45.7263673" lon="12.6482462"><ele>1.0</ele><time>2026-04-25T08:08:35.104Z</time></trkpt><trkpt lat="45.7264946" lon="12.6485713"><ele>1.0</ele><time>2026-04-25T08:08:36.1Z</time></trkpt><trkpt lat="45.7266215" lon="12.6488956"><ele>0.5</ele><time>2026-04-25T08:08:37.095Z</time></trkpt><trkpt lat="45.7267476" lon="12.6492211"><ele>0.0</ele><time>2026-04-25T08:08:38.097Z</time></trkpt><trkpt lat="45.7268714" lon="12.6495433"><ele>0.0</ele><time>2026-04-25T08:08:39.108Z</time></trkpt><trkpt lat="45.7269932" lon="12.6498701"><ele>0.0</ele><time>2026-04-25T08:08:40.1Z</time></trkpt><trkpt lat="45.7271115" lon="12.6501923"><ele>0.0</ele><time>2026-04-25T08:08:41.103Z</time></trkpt><trkpt lat="45.727228" lon="12.650508"><ele>0.0</ele><time>2026-04-25T08:08:42.107Z</time></trkpt><trkpt lat="45.7273392" lon="12.6508106"><ele>0.0</ele><time>2026-04-25T08:08:43.107Z</time></trkpt><trkpt lat="45.7274395" lon="12.6511033"><ele>0.0</ele><time>2026-04-25T08:08:44.101Z</time></trkpt><trkpt lat="45.7275381" lon="12.6513749"><ele>0.0</ele><time>2026-04-25T08:08:45.095Z</time></trkpt><trkpt lat="45.7276369" lon="12.6516556"><ele>0.0</ele><time>2026-04-25T08:08:46.103Z</time></trkpt><trkpt lat="45.727742" lon="12.6519496"><ele>0.0</ele><time>2026-04-25T08:08:47.097Z</time></trkpt><trkpt lat="45.7278528" lon="12.6522522"><ele>-1.5</ele><time>2026-04-25T08:08:48.103Z</time></trkpt><trkpt lat="45.7279658" lon="12.6525553"><ele>-3.0</ele><time>2026-04-25T08:08:49.098Z</time></trkpt><trkpt lat="45.7280811" lon="12.6528554"><ele>-3.0</ele><time>2026-04-25T08:08:50.098Z</time></trkpt><trkpt lat="45.7281936" lon="12.653164"><ele>-3.0</ele><time>2026-04-25T08:08:51.095Z</time></trkpt><trkpt lat="45.7283062" lon="12.6534886"><ele>-2.5</ele><time>2026-04-25T08:08:52.108Z</time></trkpt><trkpt lat="45.7284153" lon="12.6538208"><ele>-2.0</ele><time>2026-04-25T08:08:53.1Z</time></trkpt><trkpt lat="45.7285276" lon="12.6541569"><ele>-2.0</ele><time>2026-04-25T08:08:54.109Z</time></trkpt><trkpt lat="45.7286433" lon="12.6544973"><ele>-2.0</ele><time>2026-04-25T08:08:55.102Z</time></trkpt><trkpt lat="45.7287545" lon="12.654842"><ele>-2.0</ele><time>2026-04-25T08:08:56.101Z</time></trkpt><trkpt lat="45.7288664" lon="12.6551889"><ele>-2.0</ele><time>2026-04-25T08:08:57.1Z</time></trkpt><trkpt lat="45.7289764" lon="12.6555341"><ele>-1.5</ele><time>2026-04-25T08:08:58.095Z</time></trkpt><trkpt lat="45.7290869" lon="12.655891"><ele>-1.0</ele><time>2026-04-25T08:08:59.101Z</time></trkpt><trkpt lat="45.7292001" lon="12.6562446"><ele>-1.0</ele><time>2026-04-25T08:09:00.098Z</time></trkpt><trkpt lat="45.7293141" lon="12.6566028"><ele>-1.0</ele><time>2026-04-25T08:09:01.107Z</time></trkpt><trkpt lat="45.7294232" lon="12.6569597"><ele>-1.0</ele><time>2026-04-25T08:09:02.11Z</time></trkpt><trkpt lat="45.7295337" lon="12.6573127"><ele>-1.0</ele><time>2026-04-25T08:09:03.106Z</time></trkpt><trkpt lat="45.7296474" lon="12.6576677"><ele>-0.5</ele><time>2026-04-25T08:09:04.105Z</time></trkpt><trkpt lat="45.729762" lon="12.65802"><ele>0.0</ele><time>2026-04-25T08:09:05.116Z</time></trkpt><trkpt lat="45.7298719" lon="12.6583681"><ele>0.0</ele><time>2026-04-25T08:09:06.101Z</time></trkpt><trkpt lat="45.7299808" lon="12.6587148"><ele>0.0</ele><time>2026-04-25T08:09:07.096Z</time></trkpt><trkpt lat="45.7300833" lon="12.6590691"><ele>0.0</ele><time>2026-04-25T08:09:08.104Z</time></trkpt><trkpt lat="45.730183" lon="12.6594197"><ele>0.0</ele><time>2026-04-25T08:09:09.099Z</time></trkpt><trkpt lat="45.7302845" lon="12.6597698"><ele>0.5</ele><time>2026-04-25T08:09:10.097Z</time></trkpt><trkpt lat="45.7303923" lon="12.6601111"><ele>1.0</ele><time>2026-04-25T08:09:11.105Z</time></trkpt><trkpt lat="45.7305022" lon="12.6604512"><ele>1.0</ele><time>2026-04-25T08:09:12.1Z</time></trkpt><trkpt lat="45.7306133" lon="12.660792"><ele>1.0</ele><time>2026-04-25T08:09:13.104Z</time></trkpt><trkpt lat="45.7307214" lon="12.6611328"><ele>1.5</ele><time>2026-04-25T08:09:14.118Z</time></trkpt><trkpt lat="45.730829" lon="12.661471"><ele>2.0</ele><time>2026-04-25T08:09:15.103Z</time></trkpt><trkpt lat="45.7309371" lon="12.6618072"><ele>1.0</ele><time>2026-04-25T08:09:16.105Z</time></trkpt><trkpt lat="45.7310423" lon="12.6621448"><ele>0.0</ele><time>2026-04-25T08:09:17.1Z</time></trkpt><trkpt lat="45.7311495" lon="12.6624851"><ele>0.0</ele><time>2026-04-25T08:09:18.105Z</time></trkpt><trkpt lat="45.7312563" lon="12.6628284"><ele>0.0</ele><time>2026-04-25T08:09:19.101Z</time></trkpt><trkpt lat="45.7313663" lon="12.6631703"><ele>0.0</ele><time>2026-04-25T08:09:20.116Z</time></trkpt><trkpt lat="45.7314729" lon="12.66351"><ele>0.0</ele><time>2026-04-25T08:09:21.098Z</time></trkpt><trkpt lat="45.7315852" lon="12.6638564"><ele>-0.5</ele><time>2026-04-25T08:09:22.11Z</time></trkpt><trkpt lat="45.7316952" lon="12.6641973"><ele>-1.0</ele><time>2026-04-25T08:09:23.095Z</time></trkpt><trkpt lat="45.7318058" lon="12.6645434"><ele>0.5</ele><time>2026-04-25T08:09:24.114Z</time></trkpt><trkpt lat="45.7319161" lon="12.6648827"><ele>2.0</ele><time>2026-04-25T08:09:25.103Z</time></trkpt><trkpt lat="45.7320266" lon="12.6652252"><ele>1.5</ele><time>2026-04-25T08:09:26.103Z</time></trkpt><trkpt lat="45.7321377" lon="12.6655697"><ele>1.0</ele><time>2026-04-25T08:09:27.101Z</time></trkpt><trkpt lat="45.7322491" lon="12.6659126"><ele>0.0</ele><time>2026-04-25T08:09:28.119Z</time></trkpt><trkpt lat="45.7323566" lon="12.6662508"><ele>-1.0</ele><time>2026-04-25T08:09:29.107Z</time></trkpt><trkpt lat="45.7324669" lon="12.6665893"><ele>-1.0</ele><time>2026-04-25T08:09:30.105Z</time></trkpt><trkpt lat="45.7325778" lon="12.6669283"><ele>-1.0</ele><time>2026-04-25T08:09:31.106Z</time></trkpt><trkpt lat="45.73269" lon="12.6672663"><ele>0.0</ele><time>2026-04-25T08:09:32.102Z</time></trkpt><trkpt lat="45.7328002" lon="12.6676078"><ele>1.0</ele><time>2026-04-25T08:09:33.112Z</time></trkpt><trkpt lat="45.7329088" lon="12.6679462"><ele>1.5</ele><time>2026-04-25T08:09:34.099Z</time></trkpt><trkpt lat="45.7330169" lon="12.6682923"><ele>2.0</ele><time>2026-04-25T08:09:35.116Z</time></trkpt><trkpt lat="45.7331206" lon="12.668632"><ele>0.5</ele><time>2026-04-25T08:09:36.096Z</time></trkpt><trkpt lat="45.7332266" lon="12.6689747"><ele>-1.0</ele><time>2026-04-25T08:09:37.099Z</time></trkpt><trkpt lat="45.7333351" lon="12.6693144"><ele>-0.5</ele><time>2026-04-25T08:09:38.111Z</time></trkpt><trkpt lat="45.7334413" lon="12.6696518"><ele>0.0</ele><time>2026-04-25T08:09:39.106Z</time></trkpt><trkpt lat="45.7335475" lon="12.6699844"><ele>0.0</ele><time>2026-04-25T08:09:40.099Z</time></trkpt><trkpt lat="45.7336536" lon="12.6703162"><ele>0.0</ele><time>2026-04-25T08:09:41.106Z</time></trkpt><trkpt lat="45.7337586" lon="12.6706443"><ele>0.0</ele><time>2026-04-25T08:09:42.106Z</time></trkpt><trkpt lat="45.7338646" lon="12.6709728"><ele>0.0</ele><time>2026-04-25T08:09:43.094Z</time></trkpt><trkpt lat="45.7339737" lon="12.6712979"><ele>1.0</ele><time>2026-04-25T08:09:44.099Z</time></trkpt><trkpt lat="45.7340789" lon="12.6716182"><ele>2.0</ele><time>2026-04-25T08:09:45.101Z</time></trkpt><trkpt lat="45.7341804" lon="12.6719334"><ele>2.5</ele><time>2026-04-25T08:09:46.1Z</time></trkpt><trkpt lat="45.734281" lon="12.6722473"><ele>3.0</ele><time>2026-04-25T08:09:47.101Z</time></trkpt><trkpt lat="45.7343795" lon="12.6725584"><ele>2.0</ele><time>2026-04-25T08:09:48.098Z</time></trkpt><trkpt lat="45.7344797" lon="12.6728673"><ele>1.0</ele><time>2026-04-25T08:09:49.1Z</time></trkpt><trkpt lat="45.7345763" lon="12.673174"><ele>1.0</ele><time>2026-04-25T08:09:50.106Z</time></trkpt><trkpt lat="45.7346723" lon="12.6734761"><ele>1.0</ele><time>2026-04-25T08:09:51.102Z</time></trkpt><trkpt lat="45.7347675" lon="12.6737796"><ele>0.5</ele><time>2026-04-25T08:09:52.106Z</time></trkpt><trkpt lat="45.7348623" lon="12.6740821"><ele>0.0</ele><time>2026-04-25T08:09:53.1Z</time></trkpt><trkpt lat="45.7349593" lon="12.6743829"><ele>1.5</ele><time>2026-04-25T08:09:54.101Z</time></trkpt><trkpt lat="45.7350579" lon="12.674688"><ele>3.0</ele><time>2026-04-25T08:09:55.11Z</time></trkpt><trkpt lat="45.7351558" lon="12.6749912"><ele>3.5</ele><time>2026-04-25T08:09:56.103Z</time></trkpt><trkpt lat="45.735255" lon="12.6752953"><ele>4.0</ele><time>2026-04-25T08:09:57.107Z</time></trkpt><trkpt lat="45.7353546" lon="12.6756062"><ele>4.0</ele><time>2026-04-25T08:09:58.105Z</time></trkpt><trkpt lat="45.7354554" lon="12.6759273"><ele>4.0</ele><time>2026-04-25T08:09:59.104Z</time></trkpt><trkpt lat="45.7355587" lon="12.6762489"><ele>3.5</ele><time>2026-04-25T08:10:00.099Z</time></trkpt><trkpt lat="45.7356653" lon="12.6765693"><ele>3.0</ele><time>2026-04-25T08:10:01.1Z</time></trkpt><trkpt lat="45.7357761" lon="12.6768931"><ele>2.0</ele><time>2026-04-25T08:10:02.104Z</time></trkpt><trkpt lat="45.7358856" lon="12.6772203"><ele>1.0</ele><time>2026-04-25T08:10:03.101Z</time></trkpt><trkpt lat="45.7359953" lon="12.6775503"><ele>1.5</ele><time>2026-04-25T08:10:04.11Z</time></trkpt><trkpt lat="45.7361031" lon="12.6778781"><ele>2.0</ele><time>2026-04-25T08:10:05.097Z</time></trkpt><trkpt lat="45.7362129" lon="12.678212"><ele>2.0</ele><time>2026-04-25T08:10:06.111Z</time></trkpt><trkpt lat="45.7363188" lon="12.6785421"><ele>2.0</ele><time>2026-04-25T08:10:07.101Z</time></trkpt><trkpt lat="45.7364253" lon="12.6788758"><ele>2.0</ele><time>2026-04-25T08:10:08.106Z</time></trkpt><trkpt lat="45.7365301" lon="12.6792082"><ele>2.0</ele><time>2026-04-25T08:10:09.102Z</time></trkpt><trkpt lat="45.7366341" lon="12.679544"><ele>1.5</ele><time>2026-04-25T08:10:10.112Z</time></trkpt><trkpt lat="45.736738" lon="12.6798768"><ele>1.0</ele><time>2026-04-25T08:10:11.099Z</time></trkpt><trkpt lat="45.7368454" lon="12.6802133"><ele>1.5</ele><time>2026-04-25T08:10:12.114Z</time></trkpt><trkpt lat="45.7369497" lon="12.6805506"><ele>2.0</ele><time>2026-04-25T08:10:13.1Z</time></trkpt><trkpt lat="45.7370541" lon="12.6809045"><ele>3.0</ele><time>2026-04-25T08:10:14.103Z</time></trkpt><trkpt lat="45.7371597" lon="12.681257"><ele>4.0</ele><time>2026-04-25T08:10:15.094Z</time></trkpt><trkpt lat="45.7372678" lon="12.6816122"><ele>4.0</ele><time>2026-04-25T08:10:16.098Z</time></trkpt><trkpt lat="45.7373764" lon="12.681964"><ele>4.0</ele><time>2026-04-25T08:10:17.099Z</time></trkpt><trkpt lat="45.7374844" lon="12.682312"><ele>4.0</ele><time>2026-04-25T08:10:18.099Z</time></trkpt><trkpt lat="45.7375926" lon="12.6826614"><ele>4.0</ele><time>2026-04-25T08:10:19.1Z</time></trkpt><trkpt lat="45.7377027" lon="12.68301"><ele>4.5</ele><time>2026-04-25T08:10:20.1Z</time></trkpt><trkpt lat="45.7378148" lon="12.6833576"><ele>5.0</ele><time>2026-04-25T08:10:21.105Z</time></trkpt><trkpt lat="45.7379278" lon="12.6837029"><ele>5.0</ele><time>2026-04-25T08:10:22.106Z</time></trkpt><trkpt lat="45.7380401" lon="12.684047"><ele>5.0</ele><time>2026-04-25T08:10:23.106Z</time></trkpt><trkpt lat="45.7381515" lon="12.6843939"><ele>5.0</ele><time>2026-04-25T08:10:24.117Z</time></trkpt><trkpt lat="45.73826" lon="12.6847367"><ele>5.0</ele><time>2026-04-25T08:10:25.105Z</time></trkpt><trkpt lat="45.7383675" lon="12.6850791"><ele>4.0</ele><time>2026-04-25T08:10:26.102Z</time></trkpt><trkpt lat="45.7384739" lon="12.6854201"><ele>3.0</ele><time>2026-04-25T08:10:27.116Z</time></trkpt><trkpt lat="45.7385785" lon="12.6857609"><ele>1.5</ele><time>2026-04-25T08:10:28.113Z</time></trkpt><trkpt lat="45.7386887" lon="12.6860986"><ele>0.0</ele><time>2026-04-25T08:10:29.109Z</time></trkpt><trkpt lat="45.7387973" lon="12.6864359"><ele>0.0</ele><time>2026-04-25T08:10:30.111Z</time></trkpt><trkpt lat="45.7389037" lon="12.6867724"><ele>0.0</ele><time>2026-04-25T08:10:31.104Z</time></trkpt><trkpt lat="45.7390102" lon="12.6871148"><ele>-0.5</ele><time>2026-04-25T08:10:32.103Z</time></trkpt><trkpt lat="45.7391152" lon="12.6874565"><ele>-1.0</ele><time>2026-04-25T08:10:33.104Z</time></trkpt><trkpt lat="45.7392212" lon="12.687796"><ele>-1.5</ele><time>2026-04-25T08:10:34.106Z</time></trkpt><trkpt lat="45.739328" lon="12.6881361"><ele>-2.0</ele><time>2026-04-25T08:10:35.116Z</time></trkpt><trkpt lat="45.739436" lon="12.6884731"><ele>-3.0</ele><time>2026-04-25T08:10:36.104Z</time></trkpt><trkpt lat="45.7395459" lon="12.6888121"><ele>-4.0</ele><time>2026-04-25T08:10:37.099Z</time></trkpt><trkpt lat="45.7396579" lon="12.6891551"><ele>-3.0</ele><time>2026-04-25T08:10:38.101Z</time></trkpt><trkpt lat="45.7397679" lon="12.6894976"><ele>-2.0</ele><time>2026-04-25T08:10:39.103Z</time></trkpt><trkpt lat="45.7398781" lon="12.6898422"><ele>-2.0</ele><time>2026-04-25T08:10:40.099Z</time></trkpt><trkpt lat="45.7399947" lon="12.6901826"><ele>-2.0</ele><time>2026-04-25T08:10:41.115Z</time></trkpt><trkpt lat="45.7401061" lon="12.6905296"><ele>-1.5</ele><time>2026-04-25T08:10:42.111Z</time></trkpt><trkpt lat="45.7402182" lon="12.6908772"><ele>-1.0</ele><time>2026-04-25T08:10:43.105Z</time></trkpt><trkpt lat="45.7403266" lon="12.6912224"><ele>-1.0</ele><time>2026-04-25T08:10:44.109Z</time></trkpt><trkpt lat="45.7404306" lon="12.6915713"><ele>-1.0</ele><time>2026-04-25T08:10:45.104Z</time></trkpt><trkpt lat="45.7405356" lon="12.6919107"><ele>-1.0</ele><time>2026-04-25T08:10:46.106Z</time></trkpt><trkpt lat="45.7406406" lon="12.6922523"><ele>-1.0</ele><time>2026-04-25T08:10:47.096Z</time></trkpt><trkpt lat="45.7407461" lon="12.6925975"><ele>0.0</ele><time>2026-04-25T08:10:48.111Z</time></trkpt><trkpt lat="45.7408575" lon="12.6929393"><ele>1.0</ele><time>2026-04-25T08:10:49.096Z</time></trkpt><trkpt lat="45.7409713" lon="12.6932874"><ele>0.0</ele><time>2026-04-25T08:10:50.11Z</time></trkpt><trkpt lat="45.7410862" lon="12.6936235"><ele>-1.0</ele><time>2026-04-25T08:10:51.102Z</time></trkpt><trkpt lat="45.7411969" lon="12.6939767"><ele>-1.0</ele><time>2026-04-25T08:10:52.099Z</time></trkpt><trkpt lat="45.741307" lon="12.694325"><ele>-1.0</ele><time>2026-04-25T08:10:53.101Z</time></trkpt><trkpt lat="45.7414172" lon="12.6946717"><ele>-1.5</ele><time>2026-04-25T08:10:54.107Z</time></trkpt><trkpt lat="45.7415269" lon="12.6950169"><ele>-2.0</ele><time>2026-04-25T08:10:55.108Z</time></trkpt><trkpt lat="45.7416372" lon="12.6953631"><ele>-2.0</ele><time>2026-04-25T08:10:56.117Z</time></trkpt><trkpt lat="45.7417482" lon="12.6957197"><ele>-2.0</ele><time>2026-04-25T08:10:57.101Z</time></trkpt><trkpt lat="45.7418596" lon="12.6960734"><ele>-1.0</ele><time>2026-04-25T08:10:58.102Z</time></trkpt><trkpt lat="45.7419677" lon="12.6964297"><ele>0.0</ele><time>2026-04-25T08:10:59.105Z</time></trkpt><trkpt lat="45.7420805" lon="12.6967723"><ele>0.0</ele><time>2026-04-25T08:11:00.108Z</time></trkpt><trkpt lat="45.7421887" lon="12.6971203"><ele>0.0</ele><time>2026-04-25T08:11:01.102Z</time></trkpt><trkpt lat="45.7423061" lon="12.6974671"><ele>0.5</ele><time>2026-04-25T08:11:02.102Z</time></trkpt><trkpt lat="45.7424222" lon="12.6978132"><ele>1.0</ele><time>2026-04-25T08:11:03.125Z</time></trkpt><trkpt lat="45.7425298" lon="12.6981563"><ele>1.0</ele><time>2026-04-25T08:11:04.099Z</time></trkpt><trkpt lat="45.7426427" lon="12.6984988"><ele>1.0</ele><time>2026-04-25T08:11:05.12Z</time></trkpt><trkpt lat="45.7427531" lon="12.6988498"><ele>0.5</ele><time>2026-04-25T08:11:06.108Z</time></trkpt><trkpt lat="45.7428599" lon="12.699198"><ele>0.0</ele><time>2026-04-25T08:11:07.106Z</time></trkpt><trkpt lat="45.7429714" lon="12.6995532"><ele>0.0</ele><time>2026-04-25T08:11:08.112Z</time></trkpt><trkpt lat="45.74308" lon="12.6999009"><ele>0.0</ele><time>2026-04-25T08:11:09.108Z</time></trkpt><trkpt lat="45.743188" lon="12.7002433"><ele>0.0</ele><time>2026-04-25T08:11:10.105Z</time></trkpt><trkpt lat="45.7432974" lon="12.7005849"><ele>0.0</ele><time>2026-04-25T08:11:11.12Z</time></trkpt><trkpt lat="45.7434028" lon="12.7009245"><ele>0.5</ele><time>2026-04-25T08:11:12.113Z</time></trkpt><trkpt lat="45.7435118" lon="12.7012623"><ele>1.0</ele><time>2026-04-25T08:11:13.11Z</time></trkpt><trkpt lat="45.7436215" lon="12.7016054"><ele>-0.5</ele><time>2026-04-25T08:11:14.106Z</time></trkpt><trkpt lat="45.7437365" lon="12.7019451"><ele>-2.0</ele><time>2026-04-25T08:11:15.094Z</time></trkpt><trkpt lat="45.7438396" lon="12.7022949"><ele>-2.0</ele><time>2026-04-25T08:11:16.098Z</time></trkpt><trkpt lat="45.743948" lon="12.7026404"><ele>-2.0</ele><time>2026-04-25T08:11:17.114Z</time></trkpt><trkpt lat="45.7440531" lon="12.7029717"><ele>-1.5</ele><time>2026-04-25T08:11:18.096Z</time></trkpt><trkpt lat="45.7441619" lon="12.7033144"><ele>-1.0</ele><time>2026-04-25T08:11:19.11Z</time></trkpt><trkpt lat="45.7442723" lon="12.7036541"><ele>0.0</ele><time>2026-04-25T08:11:20.1Z</time></trkpt><trkpt lat="45.7443833" lon="12.7039962"><ele>1.0</ele><time>2026-04-25T08:11:21.105Z</time></trkpt><trkpt lat="45.7444884" lon="12.7043388"><ele>0.0</ele><time>2026-04-25T08:11:22.101Z</time></trkpt><trkpt lat="45.7445952" lon="12.7046715"><ele>-1.0</ele><time>2026-04-25T08:11:23.101Z</time></trkpt><trkpt lat="45.7446987" lon="12.7050073"><ele>-1.0</ele><time>2026-04-25T08:11:24.116Z</time></trkpt><trkpt lat="45.7448047" lon="12.705341"><ele>-1.0</ele><time>2026-04-25T08:11:25.109Z</time></trkpt><trkpt lat="45.7449149" lon="12.7056744"><ele>-1.0</ele><time>2026-04-25T08:11:26.098Z</time></trkpt><trkpt lat="45.7450248" lon="12.7060073"><ele>-1.0</ele><time>2026-04-25T08:11:27.102Z</time></trkpt><trkpt lat="45.7451297" lon="12.7063435"><ele>-1.0</ele><time>2026-04-25T08:11:28.098Z</time></trkpt><trkpt lat="45.7452378" lon="12.7066802"><ele>-1.0</ele><time>2026-04-25T08:11:29.114Z</time></trkpt><trkpt lat="45.7453443" lon="12.7070064"><ele>-1.0</ele><time>2026-04-25T08:11:30.097Z</time></trkpt><trkpt lat="45.7454495" lon="12.7073382"><ele>-1.0</ele><time>2026-04-25T08:11:31.098Z</time></trkpt><trkpt lat="45.7455562" lon="12.7076657"><ele>-0.5</ele><time>2026-04-25T08:11:32.101Z</time></trkpt><trkpt lat="45.7456596" lon="12.7079983"><ele>0.0</ele><time>2026-04-25T08:11:33.108Z</time></trkpt><trkpt lat="45.7457639" lon="12.7083285"><ele>0.0</ele><time>2026-04-25T08:11:34.101Z</time></trkpt><trkpt lat="45.7458717" lon="12.7086645"><ele>0.0</ele><time>2026-04-25T08:11:35.112Z</time></trkpt><trkpt lat="45.7459758" lon="12.708997"><ele>0.0</ele><time>2026-04-25T08:11:36.118Z</time></trkpt><trkpt lat="45.7460809" lon="12.7093338"><ele>0.0</ele><time>2026-04-25T08:11:37.106Z</time></trkpt><trkpt lat="45.7461874" lon="12.7096781"><ele>0.0</ele><time>2026-04-25T08:11:38.106Z</time></trkpt><trkpt lat="45.7462947" lon="12.7100189"><ele>0.0</ele><time>2026-04-25T08:11:39.104Z</time></trkpt><trkpt lat="45.746403" lon="12.7103636"><ele>0.0</ele><time>2026-04-25T08:11:40.105Z</time></trkpt><trkpt lat="45.7465124" lon="12.7107098"><ele>0.0</ele><time>2026-04-25T08:11:41.098Z</time></trkpt><trkpt lat="45.7466252" lon="12.7110599"><ele>-0.5</ele><time>2026-04-25T08:11:42.105Z</time></trkpt><trkpt lat="45.7467382" lon="12.7114092"><ele>-1.0</ele><time>2026-04-25T08:11:43.104Z</time></trkpt><trkpt lat="45.7468493" lon="12.7117611"><ele>0.0</ele><time>2026-04-25T08:11:44.107Z</time></trkpt><trkpt lat="45.7469615" lon="12.7121102"><ele>1.0</ele><time>2026-04-25T08:11:45.095Z</time></trkpt><trkpt lat="45.7470756" lon="12.7124611"><ele>1.5</ele><time>2026-04-25T08:11:46.094Z</time></trkpt><trkpt lat="45.7471881" lon="12.7128129"><ele>2.0</ele><time>2026-04-25T08:11:47.096Z</time></trkpt><trkpt lat="45.7473014" lon="12.7131593"><ele>2.0</ele><time>2026-04-25T08:11:48.102Z</time></trkpt><trkpt lat="45.747415" lon="12.7135036"><ele>2.0</ele><time>2026-04-25T08:11:49.117Z</time></trkpt><trkpt lat="45.7475213" lon="12.7138412"><ele>1.5</ele><time>2026-04-25T08:11:50.103Z</time></trkpt><trkpt lat="45.7476282" lon="12.7141707"><ele>1.0</ele><time>2026-04-25T08:11:51.101Z</time></trkpt><trkpt lat="45.7477373" lon="12.7144991"><ele>0.5</ele><time>2026-04-25T08:11:52.108Z</time></trkpt><trkpt lat="45.7478533" lon="12.7148333"><ele>0.0</ele><time>2026-04-25T08:11:53.111Z</time></trkpt><trkpt lat="45.7479692" lon="12.7151772"><ele>0.5</ele><time>2026-04-25T08:11:54.1Z</time></trkpt><trkpt lat="45.7480865" lon="12.7155322"><ele>1.0</ele><time>2026-04-25T08:11:55.112Z</time></trkpt><trkpt lat="45.7481962" lon="12.7158905"><ele>1.0</ele><time>2026-04-25T08:11:56.103Z</time></trkpt><trkpt lat="45.7483108" lon="12.7162492"><ele>1.0</ele><time>2026-04-25T08:11:57.119Z</time></trkpt><trkpt lat="45.7484224" lon="12.7166"><ele>0.5</ele><time>2026-04-25T08:11:58.094Z</time></trkpt><trkpt lat="45.7485344" lon="12.7169627"><ele>0.0</ele><time>2026-04-25T08:11:59.101Z</time></trkpt><trkpt lat="45.7486453" lon="12.717322"><ele>0.0</ele><time>2026-04-25T08:12:00.104Z</time></trkpt><trkpt lat="45.7487527" lon="12.7176838"><ele>0.0</ele><time>2026-04-25T08:12:01.107Z</time></trkpt><trkpt lat="45.748863" lon="12.7180531"><ele>0.5</ele><time>2026-04-25T08:12:02.123Z</time></trkpt><trkpt lat="45.7489722" lon="12.7184163"><ele>1.0</ele><time>2026-04-25T08:12:03.107Z</time></trkpt><trkpt lat="45.7490826" lon="12.7187779"><ele>1.5</ele><time>2026-04-25T08:12:04.119Z</time></trkpt><trkpt lat="45.7491916" lon="12.7191348"><ele>2.0</ele><time>2026-04-25T08:12:05.093Z</time></trkpt><trkpt lat="45.7493037" lon="12.7194952"><ele>1.0</ele><time>2026-04-25T08:12:06.104Z</time></trkpt><trkpt lat="45.7494148" lon="12.7198473"><ele>0.0</ele><time>2026-04-25T08:12:07.102Z</time></trkpt><trkpt lat="45.7495252" lon="12.7201961"><ele>-1.0</ele><time>2026-04-25T08:12:08.106Z</time></trkpt><trkpt lat="45.7496359" lon="12.7205425"><ele>-2.0</ele><time>2026-04-25T08:12:09.113Z</time></trkpt><trkpt lat="45.7497466" lon="12.7208832"><ele>-2.5</ele><time>2026-04-25T08:12:10.109Z</time></trkpt><trkpt lat="45.749863" lon="12.7212223"><ele>-3.0</ele><time>2026-04-25T08:12:11.117Z</time></trkpt><trkpt lat="45.7499827" lon="12.7215553"><ele>-3.0</ele><time>2026-04-25T08:12:12.1Z</time></trkpt><trkpt lat="45.7501037" lon="12.7218969"><ele>-3.0</ele><time>2026-04-25T08:12:13.116Z</time></trkpt><trkpt lat="45.7502224" lon="12.7222341"><ele>-2.5</ele><time>2026-04-25T08:12:14.107Z</time></trkpt><trkpt lat="45.7503425" lon="12.722576"><ele>-2.0</ele><time>2026-04-25T08:12:15.121Z</time></trkpt><trkpt lat="45.7504626" lon="12.7229088"><ele>-2.0</ele><time>2026-04-25T08:12:16.099Z</time></trkpt><trkpt lat="45.7505852" lon="12.7232447"><ele>-2.0</ele><time>2026-04-25T08:12:17.11Z</time></trkpt><trkpt lat="45.7507074" lon="12.7235734"><ele>-1.5</ele><time>2026-04-25T08:12:18.101Z</time></trkpt><trkpt lat="45.7508353" lon="12.7238998"><ele>-1.0</ele><time>2026-04-25T08:12:19.112Z</time></trkpt><trkpt lat="45.7509622" lon="12.724226"><ele>-1.0</ele><time>2026-04-25T08:12:20.105Z</time></trkpt><trkpt lat="45.751089" lon="12.7245525"><ele>-1.0</ele><time>2026-04-25T08:12:21.105Z</time></trkpt><trkpt lat="45.7512172" lon="12.7248721"><ele>-1.0</ele><time>2026-04-25T08:12:22.113Z</time></trkpt><trkpt lat="45.7513477" lon="12.7251879"><ele>-1.0</ele><time>2026-04-25T08:12:23.112Z</time></trkpt><trkpt lat="45.7514788" lon="12.7255016"><ele>-0.5</ele><time>2026-04-25T08:12:24.098Z</time></trkpt><trkpt lat="45.7516087" lon="12.7258159"><ele>0.0</ele><time>2026-04-25T08:12:25.104Z</time></trkpt><trkpt lat="45.7517385" lon="12.7261321"><ele>0.5</ele><time>2026-04-25T08:12:26.104Z</time></trkpt><trkpt lat="45.7518692" lon="12.7264468"><ele>1.0</ele><time>2026-04-25T08:12:27.119Z</time></trkpt><trkpt lat="45.7520021" lon="12.7267557"><ele>0.5</ele><time>2026-04-25T08:12:28.109Z</time></trkpt><trkpt lat="45.7521356" lon="12.7270681"><ele>0.0</ele><time>2026-04-25T08:12:29.104Z</time></trkpt><trkpt lat="45.7522724" lon="12.7273826"><ele>0.0</ele><time>2026-04-25T08:12:30.116Z</time></trkpt><trkpt lat="45.7524123" lon="12.7276912"><ele>0.0</ele><time>2026-04-25T08:12:31.105Z</time></trkpt><trkpt lat="45.7525568" lon="12.7280036"><ele>0.0</ele><time>2026-04-25T08:12:32.103Z</time></trkpt><trkpt lat="45.7527031" lon="12.7283138"><ele>0.0</ele><time>2026-04-25T08:12:33.107Z</time></trkpt><trkpt lat="45.7528498" lon="12.728628"><ele>-0.5</ele><time>2026-04-25T08:12:34.103Z</time></trkpt><trkpt lat="45.7529966" lon="12.7289487"><ele>-1.0</ele><time>2026-04-25T08:12:35.103Z</time></trkpt><trkpt lat="45.7531458" lon="12.7292657"><ele>-1.0</ele><time>2026-04-25T08:12:36.095Z</time></trkpt><trkpt lat="45.7532972" lon="12.7295821"><ele>-1.0</ele><time>2026-04-25T08:12:37.107Z</time></trkpt><trkpt lat="45.7534478" lon="12.7298922"><ele>-1.0</ele><time>2026-04-25T08:12:38.104Z</time></trkpt><trkpt lat="45.7535969" lon="12.7302004"><ele>-1.0</ele><time>2026-04-25T08:12:39.101Z</time></trkpt><trkpt lat="45.7537482" lon="12.7305086"><ele>-1.0</ele><time>2026-04-25T08:12:40.105Z</time></trkpt><trkpt lat="45.7539029" lon="12.7308162"><ele>-1.0</ele><time>2026-04-25T08:12:41.1Z</time></trkpt><trkpt lat="45.7540615" lon="12.7311238"><ele>-1.5</ele><time>2026-04-25T08:12:42.126Z</time></trkpt><trkpt lat="45.75422" lon="12.7314245"><ele>-2.0</ele><time>2026-04-25T08:12:43.097Z</time></trkpt><trkpt lat="45.7543812" lon="12.7317265"><ele>-2.0</ele><time>2026-04-25T08:12:44.109Z</time></trkpt><trkpt lat="45.7545439" lon="12.7320263"><ele>-2.0</ele><time>2026-04-25T08:12:45.103Z</time></trkpt><trkpt lat="45.7547089" lon="12.7323277"><ele>-2.0</ele><time>2026-04-25T08:12:46.101Z</time></trkpt><trkpt lat="45.7548751" lon="12.7326339"><ele>-2.0</ele><time>2026-04-25T08:12:47.101Z</time></trkpt><trkpt lat="45.7550479" lon="12.7329383"><ele>-0.5</ele><time>2026-04-25T08:12:48.102Z</time></trkpt><trkpt lat="45.7552206" lon="12.7332408"><ele>1.0</ele><time>2026-04-25T08:12:49.1Z</time></trkpt><trkpt lat="45.7553915" lon="12.7335448"><ele>1.0</ele><time>2026-04-25T08:12:50.1Z</time></trkpt><trkpt lat="45.7555613" lon="12.7338418"><ele>1.0</ele><time>2026-04-25T08:12:51.102Z</time></trkpt><trkpt lat="45.7557332" lon="12.7341385"><ele>1.0</ele><time>2026-04-25T08:12:52.107Z</time></trkpt><trkpt lat="45.7559048" lon="12.7344335"><ele>1.0</ele><time>2026-04-25T08:12:53.116Z</time></trkpt><trkpt lat="45.7560768" lon="12.7347218"><ele>1.0</ele><time>2026-04-25T08:12:54.101Z</time></trkpt><trkpt lat="45.7562504" lon="12.7350127"><ele>1.0</ele><time>2026-04-25T08:12:55.101Z</time></trkpt><trkpt lat="45.756422" lon="12.7353044"><ele>1.0</ele><time>2026-04-25T08:12:56.101Z</time></trkpt><trkpt lat="45.7565972" lon="12.7355892"><ele>1.0</ele><time>2026-04-25T08:12:57.102Z</time></trkpt><trkpt lat="45.7567741" lon="12.7358722"><ele>1.0</ele><time>2026-04-25T08:12:58.102Z</time></trkpt><trkpt lat="45.7569493" lon="12.7361533"><ele>1.0</ele><time>2026-04-25T08:12:59.092Z</time></trkpt><trkpt lat="45.757128" lon="12.7364315"><ele>1.0</ele><time>2026-04-25T08:13:00.098Z</time></trkpt><trkpt lat="45.7573064" lon="12.7367054"><ele>1.0</ele><time>2026-04-25T08:13:01.11Z</time></trkpt><trkpt lat="45.7574836" lon="12.7369763"><ele>1.0</ele><time>2026-04-25T08:13:02.108Z</time></trkpt><trkpt lat="45.7576577" lon="12.7372461"><ele>1.0</ele><time>2026-04-25T08:13:03.11Z</time></trkpt><trkpt lat="45.7578383" lon="12.7375139"><ele>1.5</ele><time>2026-04-25T08:13:04.112Z</time></trkpt><trkpt lat="45.758024" lon="12.7377856"><ele>2.0</ele><time>2026-04-25T08:13:05.103Z</time></trkpt><trkpt lat="45.7582186" lon="12.7380705"><ele>2.0</ele><time>2026-04-25T08:13:06.115Z</time></trkpt><trkpt lat="45.7584149" lon="12.7383548"><ele>2.0</ele><time>2026-04-25T08:13:07.108Z</time></trkpt><trkpt lat="45.7586107" lon="12.7386333"><ele>2.0</ele><time>2026-04-25T08:13:08.104Z</time></trkpt><trkpt lat="45.7587998" lon="12.7389248"><ele>2.0</ele><time>2026-04-25T08:13:09.113Z</time></trkpt><trkpt lat="45.7589863" lon="12.7392153"><ele>2.5</ele><time>2026-04-25T08:13:10.111Z</time></trkpt><trkpt lat="45.759175" lon="12.7395077"><ele>3.0</ele><time>2026-04-25T08:13:11.107Z</time></trkpt><trkpt lat="45.7593623" lon="12.7397973"><ele>3.0</ele><time>2026-04-25T08:13:12.109Z</time></trkpt><trkpt lat="45.7595503" lon="12.7400886"><ele>3.0</ele><time>2026-04-25T08:13:13.1Z</time></trkpt><trkpt lat="45.7597368" lon="12.7403736"><ele>3.0</ele><time>2026-04-25T08:13:14.108Z</time></trkpt><trkpt lat="45.7599292" lon="12.740659"><ele>3.0</ele><time>2026-04-25T08:13:15.109Z</time></trkpt><trkpt lat="45.7601143" lon="12.7409496"><ele>2.5</ele><time>2026-04-25T08:13:16.097Z</time></trkpt><trkpt lat="45.7603001" lon="12.7412332"><ele>2.0</ele><time>2026-04-25T08:13:17.106Z</time></trkpt><trkpt lat="45.760488" lon="12.7415172"><ele>2.0</ele><time>2026-04-25T08:13:18.1Z</time></trkpt><trkpt lat="45.7606793" lon="12.7418047"><ele>2.0</ele><time>2026-04-25T08:13:19.109Z</time></trkpt><trkpt lat="45.760871" lon="12.7420876"><ele>0.5</ele><time>2026-04-25T08:13:20.096Z</time></trkpt><trkpt lat="45.7610609" lon="12.7423679"><ele>-1.0</ele><time>2026-04-25T08:13:21.101Z</time></trkpt><trkpt lat="45.7612485" lon="12.7426563"><ele>0.0</ele><time>2026-04-25T08:13:22.104Z</time></trkpt><trkpt lat="45.7614332" lon="12.7429382"><ele>1.0</ele><time>2026-04-25T08:13:23.117Z</time></trkpt><trkpt lat="45.7616177" lon="12.7432246"><ele>1.0</ele><time>2026-04-25T08:13:24.104Z</time></trkpt><trkpt lat="45.7618013" lon="12.7435068"><ele>1.0</ele><time>2026-04-25T08:13:25.117Z</time></trkpt><trkpt lat="45.7619847" lon="12.7437899"><ele>1.0</ele><time>2026-04-25T08:13:26.108Z</time></trkpt><trkpt lat="45.7621619" lon="12.7440806"><ele>1.0</ele><time>2026-04-25T08:13:27.107Z</time></trkpt><trkpt lat="45.7623406" lon="12.7443737"><ele>1.5</ele><time>2026-04-25T08:13:28.111Z</time></trkpt><trkpt lat="45.7625153" lon="12.7446708"><ele>2.0</ele><time>2026-04-25T08:13:29.1Z</time></trkpt><trkpt lat="45.7626888" lon="12.7449593"><ele>1.5</ele><time>2026-04-25T08:13:30.107Z</time></trkpt><trkpt lat="45.7628671" lon="12.7452496"><ele>1.0</ele><time>2026-04-25T08:13:31.114Z</time></trkpt><trkpt lat="45.7630465" lon="12.7455342"><ele>1.0</ele><time>2026-04-25T08:13:32.11Z</time></trkpt><trkpt lat="45.7632278" lon="12.7458199"><ele>1.0</ele><time>2026-04-25T08:13:33.101Z</time></trkpt><trkpt lat="45.7634046" lon="12.746094"><ele>1.5</ele><time>2026-04-25T08:13:34.105Z</time></trkpt><trkpt lat="45.7635844" lon="12.7463747"><ele>2.0</ele><time>2026-04-25T08:13:35.114Z</time></trkpt><trkpt lat="45.7637643" lon="12.746657"><ele>2.0</ele><time>2026-04-25T08:13:36.114Z</time></trkpt><trkpt lat="45.7639474" lon="12.7469346"><ele>2.0</ele><time>2026-04-25T08:13:37.099Z</time></trkpt><trkpt lat="45.7641242" lon="12.747218"><ele>2.0</ele><time>2026-04-25T08:13:38.111Z</time></trkpt><trkpt lat="45.7642994" lon="12.7475104"><ele>2.0</ele><time>2026-04-25T08:13:39.098Z</time></trkpt><trkpt lat="45.7644676" lon="12.7477925"><ele>2.0</ele><time>2026-04-25T08:13:40.099Z</time></trkpt><trkpt lat="45.7646356" lon="12.7480815"><ele>2.0</ele><time>2026-04-25T08:13:41.107Z</time></trkpt><trkpt lat="45.7648077" lon="12.7483622"><ele>2.0</ele><time>2026-04-25T08:13:42.113Z</time></trkpt><trkpt lat="45.7649787" lon="12.7486452"><ele>2.0</ele><time>2026-04-25T08:13:43.103Z</time></trkpt><trkpt lat="45.7651474" lon="12.7489303"><ele>1.5</ele><time>2026-04-25T08:13:44.097Z</time></trkpt><trkpt lat="45.7653174" lon="12.7492155"><ele>1.0</ele><time>2026-04-25T08:13:45.097Z</time></trkpt><trkpt lat="45.765478" lon="12.7494985"><ele>0.0</ele><time>2026-04-25T08:13:46.099Z</time></trkpt><trkpt lat="45.7656423" lon="12.7497821"><ele>-1.0</ele><time>2026-04-25T08:13:47.096Z</time></trkpt><trkpt lat="45.7658039" lon="12.7500661"><ele>-1.0</ele><time>2026-04-25T08:13:48.116Z</time></trkpt><trkpt lat="45.7659664" lon="12.7503549"><ele>-1.0</ele><time>2026-04-25T08:13:49.106Z</time></trkpt><trkpt lat="45.7661322" lon="12.7506475"><ele>0.0</ele><time>2026-04-25T08:13:50.102Z</time></trkpt><trkpt lat="45.7662957" lon="12.7509331"><ele>1.0</ele><time>2026-04-25T08:13:51.099Z</time></trkpt><trkpt lat="45.7664598" lon="12.7512226"><ele>2.0</ele><time>2026-04-25T08:13:52.097Z</time></trkpt><trkpt lat="45.7666184" lon="12.7515107"><ele>3.0</ele><time>2026-04-25T08:13:53.098Z</time></trkpt><trkpt lat="45.7667738" lon="12.7517957"><ele>2.5</ele><time>2026-04-25T08:13:54.101Z</time></trkpt><trkpt lat="45.7669284" lon="12.7520785"><ele>2.0</ele><time>2026-04-25T08:13:55.11Z</time></trkpt><trkpt lat="45.7670819" lon="12.7523547"><ele>2.0</ele><time>2026-04-25T08:13:56.091Z</time></trkpt><trkpt lat="45.7672263" lon="12.7526332"><ele>2.0</ele><time>2026-04-25T08:13:57.104Z</time></trkpt><trkpt lat="45.7673735" lon="12.7529053"><ele>3.0</ele><time>2026-04-25T08:13:58.099Z</time></trkpt><trkpt lat="45.7675162" lon="12.7531827"><ele>4.0</ele><time>2026-04-25T08:13:59.099Z</time></trkpt><trkpt lat="45.7676661" lon="12.7534548"><ele>2.0</ele><time>2026-04-25T08:14:00.099Z</time></trkpt><trkpt lat="45.76782" lon="12.7537292"><ele>0.0</ele><time>2026-04-25T08:14:01.099Z</time></trkpt><trkpt lat="45.7679677" lon="12.754006"><ele>0.0</ele><time>2026-04-25T08:14:02.108Z</time></trkpt><trkpt lat="45.76812" lon="12.7542795"><ele>0.0</ele><time>2026-04-25T08:14:03.126Z</time></trkpt><trkpt lat="45.7682715" lon="12.7545532"><ele>-0.5</ele><time>2026-04-25T08:14:04.109Z</time></trkpt><trkpt lat="45.7684207" lon="12.7548298"><ele>-1.0</ele><time>2026-04-25T08:14:05.105Z</time></trkpt><trkpt lat="45.7685716" lon="12.7551066"><ele>-0.5</ele><time>2026-04-25T08:14:06.105Z</time></trkpt><trkpt lat="45.7687237" lon="12.7553872"><ele>0.0</ele><time>2026-04-25T08:14:07.108Z</time></trkpt><trkpt lat="45.7688782" lon="12.7556653"><ele>0.0</ele><time>2026-04-25T08:14:08.115Z</time></trkpt><trkpt lat="45.7690345" lon="12.7559449"><ele>0.0</ele><time>2026-04-25T08:14:09.104Z</time></trkpt><trkpt lat="45.7691904" lon="12.7562283"><ele>0.5</ele><time>2026-04-25T08:14:10.102Z</time></trkpt><trkpt lat="45.7693474" lon="12.7565129"><ele>1.0</ele><time>2026-04-25T08:14:11.102Z</time></trkpt><trkpt lat="45.7695044" lon="12.7568007"><ele>0.5</ele><time>2026-04-25T08:14:12.098Z</time></trkpt><trkpt lat="45.7696593" lon="12.7570875"><ele>0.0</ele><time>2026-04-25T08:14:13.109Z</time></trkpt><trkpt lat="45.7698172" lon="12.7573766"><ele>0.0</ele><time>2026-04-25T08:14:14.102Z</time></trkpt><trkpt lat="45.7699746" lon="12.7576668"><ele>0.0</ele><time>2026-04-25T08:14:15.1Z</time></trkpt><trkpt lat="45.7701314" lon="12.7579521"><ele>0.0</ele><time>2026-04-25T08:14:16.106Z</time></trkpt><trkpt lat="45.7702879" lon="12.7582343"><ele>0.0</ele><time>2026-04-25T08:14:17.093Z</time></trkpt><trkpt lat="45.7704466" lon="12.7585173"><ele>0.5</ele><time>2026-04-25T08:14:18.094Z</time></trkpt><trkpt lat="45.7706001" lon="12.7587994"><ele>1.0</ele><time>2026-04-25T08:14:19.112Z</time></trkpt><trkpt lat="45.7707556" lon="12.7590817"><ele>1.0</ele><time>2026-04-25T08:14:20.102Z</time></trkpt><trkpt lat="45.7709094" lon="12.759365"><ele>1.0</ele><time>2026-04-25T08:14:21.1Z</time></trkpt><trkpt lat="45.7710602" lon="12.7596475"><ele>1.0</ele><time>2026-04-25T08:14:22.107Z</time></trkpt><trkpt lat="45.7712161" lon="12.759926"><ele>1.0</ele><time>2026-04-25T08:14:23.102Z</time></trkpt><trkpt lat="45.7713669" lon="12.7602102"><ele>1.0</ele><time>2026-04-25T08:14:24.111Z</time></trkpt><trkpt lat="45.7715196" lon="12.7604899"><ele>1.0</ele><time>2026-04-25T08:14:25.097Z</time></trkpt><trkpt lat="45.7716753" lon="12.7607672"><ele>1.0</ele><time>2026-04-25T08:14:26.104Z</time></trkpt><trkpt lat="45.7718282" lon="12.7610493"><ele>1.0</ele><time>2026-04-25T08:14:27.099Z</time></trkpt><trkpt lat="45.771978" lon="12.7613305"><ele>1.5</ele><time>2026-04-25T08:14:28.104Z</time></trkpt><trkpt lat="45.7721297" lon="12.7616125"><ele>2.0</ele><time>2026-04-25T08:14:29.1Z</time></trkpt><trkpt lat="45.7722795" lon="12.7618922"><ele>2.5</ele><time>2026-04-25T08:14:30.115Z</time></trkpt><trkpt lat="45.7724272" lon="12.7621719"><ele>3.0</ele><time>2026-04-25T08:14:31.102Z</time></trkpt><trkpt lat="45.7725785" lon="12.7624465"><ele>3.5</ele><time>2026-04-25T08:14:32.102Z</time></trkpt><trkpt lat="45.7727323" lon="12.7627187"><ele>4.0</ele><time>2026-04-25T08:14:33.104Z</time></trkpt><trkpt lat="45.7728836" lon="12.7629878"><ele>4.0</ele><time>2026-04-25T08:14:34.105Z</time></trkpt><trkpt lat="45.7730382" lon="12.7632585"><ele>4.0</ele><time>2026-04-25T08:14:35.108Z</time></trkpt><trkpt lat="45.7731875" lon="12.7635244"><ele>4.0</ele><time>2026-04-25T08:14:36.116Z</time></trkpt><trkpt lat="45.7733348" lon="12.7637957"><ele>4.0</ele><time>2026-04-25T08:14:37.1Z</time></trkpt><trkpt lat="45.7734824" lon="12.7640713"><ele>4.0</ele><time>2026-04-25T08:14:38.108Z</time></trkpt><trkpt lat="45.7736332" lon="12.7643479"><ele>4.0</ele><time>2026-04-25T08:14:39.108Z</time></trkpt><trkpt lat="45.7737847" lon="12.7646244"><ele>4.0</ele><time>2026-04-25T08:14:40.112Z</time></trkpt><trkpt lat="45.7739388" lon="12.7648956"><ele>4.0</ele><time>2026-04-25T08:14:41.105Z</time></trkpt><trkpt lat="45.77409" lon="12.7651694"><ele>4.0</ele><time>2026-04-25T08:14:42.126Z</time></trkpt><trkpt lat="45.7742394" lon="12.7654437"><ele>4.0</ele><time>2026-04-25T08:14:43.095Z</time></trkpt><trkpt lat="45.7743901" lon="12.7657196"><ele>3.5</ele><time>2026-04-25T08:14:44.098Z</time></trkpt><trkpt lat="45.7745375" lon="12.7659896"><ele>3.0</ele><time>2026-04-25T08:14:45.094Z</time></trkpt><trkpt lat="45.7746853" lon="12.7662645"><ele>3.0</ele><time>2026-04-25T08:14:46.111Z</time></trkpt><trkpt lat="45.774834" lon="12.7665377"><ele>3.0</ele><time>2026-04-25T08:14:47.108Z</time></trkpt><trkpt lat="45.7749841" lon="12.766806"><ele>3.0</ele><time>2026-04-25T08:14:48.097Z</time></trkpt><trkpt lat="45.7751326" lon="12.767087"><ele>3.0</ele><time>2026-04-25T08:14:49.101Z</time></trkpt><trkpt lat="45.7752862" lon="12.7673714"><ele>2.5</ele><time>2026-04-25T08:14:50.096Z</time></trkpt><trkpt lat="45.7754415" lon="12.7676524"><ele>2.0</ele><time>2026-04-25T08:14:51.102Z</time></trkpt><trkpt lat="45.7755933" lon="12.7679332"><ele>2.0</ele><time>2026-04-25T08:14:52.093Z</time></trkpt><trkpt lat="45.7757483" lon="12.7682109"><ele>2.0</ele><time>2026-04-25T08:14:53.111Z</time></trkpt><trkpt lat="45.7759013" lon="12.768487"><ele>1.5</ele><time>2026-04-25T08:14:54.11Z</time></trkpt><trkpt lat="45.7760565" lon="12.7687675"><ele>1.0</ele><time>2026-04-25T08:14:55.101Z</time></trkpt><trkpt lat="45.7762106" lon="12.769048"><ele>1.0</ele><time>2026-04-25T08:14:56.101Z</time></trkpt><trkpt lat="45.7763641" lon="12.7693309"><ele>1.0</ele><time>2026-04-25T08:14:57.105Z</time></trkpt><trkpt lat="45.7765168" lon="12.7696159"><ele>1.5</ele><time>2026-04-25T08:14:58.103Z</time></trkpt><trkpt lat="45.7766728" lon="12.7699047"><ele>2.0</ele><time>2026-04-25T08:14:59.115Z</time></trkpt><trkpt lat="45.7768302" lon="12.7701901"><ele>1.0</ele><time>2026-04-25T08:15:00.1Z</time></trkpt><trkpt lat="45.7769852" lon="12.7704811"><ele>0.0</ele><time>2026-04-25T08:15:01.114Z</time></trkpt><trkpt lat="45.7771447" lon="12.7707697"><ele>0.0</ele><time>2026-04-25T08:15:02.093Z</time></trkpt><trkpt lat="45.7773002" lon="12.7710577"><ele>0.0</ele><time>2026-04-25T08:15:03.104Z</time></trkpt><trkpt lat="45.7774583" lon="12.771346"><ele>0.0</ele><time>2026-04-25T08:15:04.103Z</time></trkpt><trkpt lat="45.7776135" lon="12.7716277"><ele>0.0</ele><time>2026-04-25T08:15:05.1Z</time></trkpt><trkpt lat="45.7777651" lon="12.7719012"><ele>0.5</ele><time>2026-04-25T08:15:06.11Z</time></trkpt><trkpt lat="45.7779141" lon="12.7721705"><ele>1.0</ele><time>2026-04-25T08:15:07.109Z</time></trkpt><trkpt lat="45.7780596" lon="12.7724375"><ele>1.0</ele><time>2026-04-25T08:15:08.111Z</time></trkpt><trkpt lat="45.7782072" lon="12.7727081"><ele>1.0</ele><time>2026-04-25T08:15:09.095Z</time></trkpt><trkpt lat="45.7783507" lon="12.7729801"><ele>1.0</ele><time>2026-04-25T08:15:10.097Z</time></trkpt><trkpt lat="45.7784953" lon="12.7732556"><ele>1.0</ele><time>2026-04-25T08:15:11.105Z</time></trkpt><trkpt lat="45.7786375" lon="12.7735339"><ele>2.0</ele><time>2026-04-25T08:15:12.096Z</time></trkpt><trkpt lat="45.7787799" lon="12.7738111"><ele>3.0</ele><time>2026-04-25T08:15:13.1Z</time></trkpt><trkpt lat="45.7789201" lon="12.7740909"><ele>2.5</ele><time>2026-04-25T08:15:14.113Z</time></trkpt><trkpt lat="45.7790633" lon="12.7743681"><ele>2.0</ele><time>2026-04-25T08:15:15.098Z</time></trkpt><trkpt lat="45.7792026" lon="12.7746466"><ele>2.0</ele><time>2026-04-25T08:15:16.103Z</time></trkpt><trkpt lat="45.7793481" lon="12.7749261"><ele>2.0</ele><time>2026-04-25T08:15:17.106Z</time></trkpt><trkpt lat="45.7794902" lon="12.7752118"><ele>1.5</ele><time>2026-04-25T08:15:18.105Z</time></trkpt><trkpt lat="45.7796304" lon="12.775497"><ele>1.0</ele><time>2026-04-25T08:15:19.114Z</time></trkpt><trkpt lat="45.7797702" lon="12.7757883"><ele>2.0</ele><time>2026-04-25T08:15:20.097Z</time></trkpt><trkpt lat="45.7799091" lon="12.7760824"><ele>3.0</ele><time>2026-04-25T08:15:21.103Z</time></trkpt><trkpt lat="45.7800486" lon="12.776384"><ele>3.0</ele><time>2026-04-25T08:15:22.112Z</time></trkpt><trkpt lat="45.7801846" lon="12.7766833"><ele>3.0</ele><time>2026-04-25T08:15:23.112Z</time></trkpt><trkpt lat="45.780321" lon="12.7769782"><ele>3.5</ele><time>2026-04-25T08:15:24.107Z</time></trkpt><trkpt lat="45.7804562" lon="12.7772699"><ele>4.0</ele><time>2026-04-25T08:15:25.098Z</time></trkpt><trkpt lat="45.7805908" lon="12.7775687"><ele>4.0</ele><time>2026-04-25T08:15:26.104Z</time></trkpt><trkpt lat="45.7807216" lon="12.7778604"><ele>4.0</ele><time>2026-04-25T08:15:27.097Z</time></trkpt><trkpt lat="45.7808495" lon="12.7781499"><ele>4.0</ele><time>2026-04-25T08:15:28.103Z</time></trkpt><trkpt lat="45.7809777" lon="12.7784385"><ele>4.0</ele><time>2026-04-25T08:15:29.108Z</time></trkpt><trkpt lat="45.7811013" lon="12.7787351"><ele>5.5</ele><time>2026-04-25T08:15:30.092Z</time></trkpt><trkpt lat="45.7812221" lon="12.7790328"><ele>7.0</ele><time>2026-04-25T08:15:31.119Z</time></trkpt><trkpt lat="45.7813484" lon="12.7793332"><ele>6.0</ele><time>2026-04-25T08:15:32.118Z</time></trkpt><trkpt lat="45.7814818" lon="12.7796338"><ele>5.0</ele><time>2026-04-25T08:15:33.105Z</time></trkpt><trkpt lat="45.781618" lon="12.7799341"><ele>4.5</ele><time>2026-04-25T08:15:34.106Z</time></trkpt><trkpt lat="45.7817578" lon="12.7802354"><ele>4.0</ele><time>2026-04-25T08:15:35.101Z</time></trkpt><trkpt lat="45.7818889" lon="12.7805451"><ele>4.0</ele><time>2026-04-25T08:15:36.103Z</time></trkpt><trkpt lat="45.7820174" lon="12.7808621"><ele>4.0</ele><time>2026-04-25T08:15:37.122Z</time></trkpt><trkpt lat="45.7821466" lon="12.7811834"><ele>4.0</ele><time>2026-04-25T08:15:38.108Z</time></trkpt><trkpt lat="45.7822764" lon="12.7815084"><ele>4.0</ele><time>2026-04-25T08:15:39.099Z</time></trkpt><trkpt lat="45.7824048" lon="12.7818356"><ele>4.0</ele><time>2026-04-25T08:15:40.102Z</time></trkpt><trkpt lat="45.7825356" lon="12.7821663"><ele>4.0</ele><time>2026-04-25T08:15:41.099Z</time></trkpt><trkpt lat="45.7826638" lon="12.782504"><ele>4.5</ele><time>2026-04-25T08:15:42.103Z</time></trkpt><trkpt lat="45.7827926" lon="12.7828373"><ele>5.0</ele><time>2026-04-25T08:15:43.107Z</time></trkpt><trkpt lat="45.7829173" lon="12.7831815"><ele>4.5</ele><time>2026-04-25T08:15:44.108Z</time></trkpt><trkpt lat="45.7830457" lon="12.783529"><ele>4.0</ele><time>2026-04-25T08:15:45.102Z</time></trkpt><trkpt lat="45.7831751" lon="12.783874"><ele>4.0</ele><time>2026-04-25T08:15:46.1Z</time></trkpt><trkpt lat="45.7832999" lon="12.7842158"><ele>4.0</ele><time>2026-04-25T08:15:47.102Z</time></trkpt><trkpt lat="45.7834233" lon="12.7845577"><ele>4.5</ele><time>2026-04-25T08:15:48.105Z</time></trkpt><trkpt lat="45.7835395" lon="12.7849008"><ele>5.0</ele><time>2026-04-25T08:15:49.104Z</time></trkpt><trkpt lat="45.7836577" lon="12.7852475"><ele>6.0</ele><time>2026-04-25T08:15:50.115Z</time></trkpt><trkpt lat="45.7837737" lon="12.7855899"><ele>7.0</ele><time>2026-04-25T08:15:51.113Z</time></trkpt><trkpt lat="45.7838897" lon="12.7859355"><ele>6.0</ele><time>2026-04-25T08:15:52.097Z</time></trkpt><trkpt lat="45.784008" lon="12.7862721"><ele>5.0</ele><time>2026-04-25T08:15:53.107Z</time></trkpt><trkpt lat="45.7841209" lon="12.7866069"><ele>4.0</ele><time>2026-04-25T08:15:54.106Z</time></trkpt><trkpt lat="45.7842329" lon="12.786941"><ele>3.0</ele><time>2026-04-25T08:15:55.103Z</time></trkpt><trkpt lat="45.7843447" lon="12.7872833"><ele>2.5</ele><time>2026-04-25T08:15:56.102Z</time></trkpt><trkpt lat="45.7844522" lon="12.7876342"><ele>2.0</ele><time>2026-04-25T08:15:57.106Z</time></trkpt><trkpt lat="45.7845645" lon="12.7879828"><ele>3.0</ele><time>2026-04-25T08:15:58.101Z</time></trkpt><trkpt lat="45.784673" lon="12.7883342"><ele>4.0</ele><time>2026-04-25T08:15:59.098Z</time></trkpt><trkpt lat="45.7847802" lon="12.7886938"><ele>4.5</ele><time>2026-04-25T08:16:00.096Z</time></trkpt><trkpt lat="45.784884" lon="12.7890568"><ele>5.0</ele><time>2026-04-25T08:16:01.106Z</time></trkpt><trkpt lat="45.7849869" lon="12.7894199"><ele>5.0</ele><time>2026-04-25T08:16:02.104Z</time></trkpt><trkpt lat="45.7850838" lon="12.7897862"><ele>5.0</ele><time>2026-04-25T08:16:03.105Z</time></trkpt><trkpt lat="45.785177" lon="12.7901478"><ele>5.0</ele><time>2026-04-25T08:16:04.104Z</time></trkpt><trkpt lat="45.7852761" lon="12.7905038"><ele>5.0</ele><time>2026-04-25T08:16:05.108Z</time></trkpt><trkpt lat="45.7853742" lon="12.7908691"><ele>4.5</ele><time>2026-04-25T08:16:06.103Z</time></trkpt><trkpt lat="45.7854719" lon="12.7912312"><ele>4.0</ele><time>2026-04-25T08:16:07.109Z</time></trkpt><trkpt lat="45.7855682" lon="12.7915945"><ele>5.0</ele><time>2026-04-25T08:16:08.1Z</time></trkpt><trkpt lat="45.7856632" lon="12.7919542"><ele>6.0</ele><time>2026-04-25T08:16:09.119Z</time></trkpt><trkpt lat="45.7857561" lon="12.7923126"><ele>6.0</ele><time>2026-04-25T08:16:10.103Z</time></trkpt><trkpt lat="45.7858527" lon="12.7926689"><ele>6.0</ele><time>2026-04-25T08:16:11.116Z</time></trkpt><trkpt lat="45.7859432" lon="12.7930284"><ele>6.0</ele><time>2026-04-25T08:16:12.108Z</time></trkpt><trkpt lat="45.7860365" lon="12.7933847"><ele>6.0</ele><time>2026-04-25T08:16:13.099Z</time></trkpt><trkpt lat="45.786127" lon="12.7937474"><ele>6.0</ele><time>2026-04-25T08:16:14.105Z</time></trkpt><trkpt lat="45.7862156" lon="12.7941105"><ele>6.0</ele><time>2026-04-25T08:16:15.107Z</time></trkpt><trkpt lat="45.7862995" lon="12.7944722"><ele>5.5</ele><time>2026-04-25T08:16:16.109Z</time></trkpt><trkpt lat="45.7863833" lon="12.7948404"><ele>5.0</ele><time>2026-04-25T08:16:17.102Z</time></trkpt><trkpt lat="45.7864665" lon="12.7952065"><ele>5.0</ele><time>2026-04-25T08:16:18.109Z</time></trkpt><trkpt lat="45.7865497" lon="12.7955707"><ele>5.0</ele><time>2026-04-25T08:16:19.096Z</time></trkpt><trkpt lat="45.7866349" lon="12.7959366"><ele>4.0</ele><time>2026-04-25T08:16:20.113Z</time></trkpt><trkpt lat="45.7867146" lon="12.7963023"><ele>3.0</ele><time>2026-04-25T08:16:21.099Z</time></trkpt><trkpt lat="45.7867923" lon="12.7966727"><ele>2.5</ele><time>2026-04-25T08:16:22.106Z</time></trkpt><trkpt lat="45.7868674" lon="12.7970377"><ele>2.0</ele><time>2026-04-25T08:16:23.103Z</time></trkpt><trkpt lat="45.7869448" lon="12.7974033"><ele>2.0</ele><time>2026-04-25T08:16:24.105Z</time></trkpt><trkpt lat="45.7870221" lon="12.7977681"><ele>2.0</ele><time>2026-04-25T08:16:25.102Z</time></trkpt><trkpt lat="45.7870967" lon="12.7981354"><ele>2.5</ele><time>2026-04-25T08:16:26.111Z</time></trkpt><trkpt lat="45.7871673" lon="12.7985067"><ele>3.0</ele><time>2026-04-25T08:16:27.111Z</time></trkpt><trkpt lat="45.7872367" lon="12.798875"><ele>3.0</ele><time>2026-04-25T08:16:28.108Z</time></trkpt><trkpt lat="45.7873048" lon="12.7992428"><ele>3.0</ele><time>2026-04-25T08:16:29.118Z</time></trkpt><trkpt lat="45.7873744" lon="12.7996066"><ele>3.0</ele><time>2026-04-25T08:16:30.102Z</time></trkpt><trkpt lat="45.7874393" lon="12.7999707"><ele>3.0</ele><time>2026-04-25T08:16:31.098Z</time></trkpt><trkpt lat="45.7875061" lon="12.8003347"><ele>2.5</ele><time>2026-04-25T08:16:32.099Z</time></trkpt><trkpt lat="45.7875703" lon="12.8006983"><ele>2.0</ele><time>2026-04-25T08:16:33.099Z</time></trkpt><trkpt lat="45.7876344" lon="12.8010651"><ele>2.0</ele><time>2026-04-25T08:16:34.117Z</time></trkpt><trkpt lat="45.7876959" lon="12.8014278"><ele>2.0</ele><time>2026-04-25T08:16:35.105Z</time></trkpt><trkpt lat="45.7877575" lon="12.8017975"><ele>1.5</ele><time>2026-04-25T08:16:36.111Z</time></trkpt><trkpt lat="45.7878157" lon="12.802165"><ele>1.0</ele><time>2026-04-25T08:16:37.105Z</time></trkpt><trkpt lat="45.7878742" lon="12.8025376"><ele>0.0</ele><time>2026-04-25T08:16:38.103Z</time></trkpt><trkpt lat="45.787931" lon="12.8029111"><ele>-1.0</ele><time>2026-04-25T08:16:39.109Z</time></trkpt><trkpt lat="45.7879883" lon="12.8032845"><ele>-1.5</ele><time>2026-04-25T08:16:40.126Z</time></trkpt><trkpt lat="45.7880416" lon="12.8036521"><ele>-2.0</ele><time>2026-04-25T08:16:41.105Z</time></trkpt><trkpt lat="45.7880974" lon="12.8040248"><ele>-0.5</ele><time>2026-04-25T08:16:42.114Z</time></trkpt><trkpt lat="45.7881517" lon="12.8043977"><ele>1.0</ele><time>2026-04-25T08:16:43.117Z</time></trkpt><trkpt lat="45.7882032" lon="12.8047639"><ele>1.0</ele><time>2026-04-25T08:16:44.109Z</time></trkpt><trkpt lat="45.788251" lon="12.8051321"><ele>1.0</ele><time>2026-04-25T08:16:45.106Z</time></trkpt><trkpt lat="45.7882981" lon="12.8054997"><ele>1.0</ele><time>2026-04-25T08:16:46.099Z</time></trkpt><trkpt lat="45.7883446" lon="12.8058706"><ele>1.0</ele><time>2026-04-25T08:16:47.109Z</time></trkpt><trkpt lat="45.7883913" lon="12.8062389"><ele>1.0</ele><time>2026-04-25T08:16:48.095Z</time></trkpt><trkpt lat="45.7884397" lon="12.8066059"><ele>1.0</ele><time>2026-04-25T08:16:49.1Z</time></trkpt><trkpt lat="45.7884862" lon="12.8069711"><ele>-0.5</ele><time>2026-04-25T08:16:50.114Z</time></trkpt><trkpt lat="45.7885313" lon="12.8073349"><ele>-2.0</ele><time>2026-04-25T08:16:51.113Z</time></trkpt><trkpt lat="45.7885775" lon="12.8077052"><ele>-2.0</ele><time>2026-04-25T08:16:52.117Z</time></trkpt><trkpt lat="45.7886232" lon="12.8080717"><ele>-2.0</ele><time>2026-04-25T08:16:53.11Z</time></trkpt><trkpt lat="45.7886681" lon="12.8084381"><ele>-1.0</ele><time>2026-04-25T08:16:54.108Z</time></trkpt><trkpt lat="45.7887141" lon="12.8088023"><ele>0.0</ele><time>2026-04-25T08:16:55.109Z</time></trkpt><trkpt lat="45.7887626" lon="12.8091685"><ele>-0.5</ele><time>2026-04-25T08:16:56.133Z</time></trkpt><trkpt lat="45.7888114" lon="12.809528"><ele>-1.0</ele><time>2026-04-25T08:16:57.1Z</time></trkpt><trkpt lat="45.7888594" lon="12.8098944"><ele>-1.0</ele><time>2026-04-25T08:16:58.113Z</time></trkpt><trkpt lat="45.7889044" lon="12.8102561"><ele>-1.0</ele><time>2026-04-25T08:16:59.099Z</time></trkpt><trkpt lat="45.7889504" lon="12.8106245"><ele>0.0</ele><time>2026-04-25T08:17:00.103Z</time></trkpt><trkpt lat="45.7889991" lon="12.810991"><ele>1.0</ele><time>2026-04-25T08:17:01.114Z</time></trkpt><trkpt lat="45.7890432" lon="12.8113496"><ele>1.0</ele><time>2026-04-25T08:17:02.118Z</time></trkpt><trkpt lat="45.7890911" lon="12.8117117"><ele>1.0</ele><time>2026-04-25T08:17:03.109Z</time></trkpt><trkpt lat="45.7891437" lon="12.8120791"><ele>2.5</ele><time>2026-04-25T08:17:04.112Z</time></trkpt><trkpt lat="45.7891992" lon="12.8124425"><ele>4.0</ele><time>2026-04-25T08:17:05.096Z</time></trkpt><trkpt lat="45.789252" lon="12.8128017"><ele>4.5</ele><time>2026-04-25T08:17:06.111Z</time></trkpt><trkpt lat="45.7893061" lon="12.8131598"><ele>5.0</ele><time>2026-04-25T08:17:07.112Z</time></trkpt><trkpt lat="45.7893621" lon="12.8135171"><ele>5.0</ele><time>2026-04-25T08:17:08.102Z</time></trkpt><trkpt lat="45.7894194" lon="12.8138752"><ele>5.0</ele><time>2026-04-25T08:17:09.114Z</time></trkpt><trkpt lat="45.7894749" lon="12.814234"><ele>5.0</ele><time>2026-04-25T08:17:10.106Z</time></trkpt><trkpt lat="45.7895328" lon="12.8145908"><ele>5.0</ele><time>2026-04-25T08:17:11.101Z</time></trkpt><trkpt lat="45.7895951" lon="12.8149481"><ele>5.5</ele><time>2026-04-25T08:17:12.107Z</time></trkpt><trkpt lat="45.7896588" lon="12.8153063"><ele>6.0</ele><time>2026-04-25T08:17:13.102Z</time></trkpt><trkpt lat="45.7897283" lon="12.8156624"><ele>6.0</ele><time>2026-04-25T08:17:14.106Z</time></trkpt><trkpt lat="45.7897949" lon="12.8160135"><ele>6.0</ele><time>2026-04-25T08:17:15.099Z</time></trkpt><trkpt lat="45.7898606" lon="12.8163617"><ele>6.0</ele><time>2026-04-25T08:17:16.099Z</time></trkpt><trkpt lat="45.7899271" lon="12.8167095"><ele>6.0</ele><time>2026-04-25T08:17:17.102Z</time></trkpt><trkpt lat="45.7899916" lon="12.8170532"><ele>6.0</ele><time>2026-04-25T08:17:18.117Z</time></trkpt><trkpt lat="45.7900605" lon="12.8173995"><ele>6.0</ele><time>2026-04-25T08:17:19.097Z</time></trkpt><trkpt lat="45.7901305" lon="12.8177446"><ele>7.5</ele><time>2026-04-25T08:17:20.121Z</time></trkpt><trkpt lat="45.7902024" lon="12.8180887"><ele>9.0</ele><time>2026-04-25T08:17:21.104Z</time></trkpt><trkpt lat="45.7902768" lon="12.8184293"><ele>6.5</ele><time>2026-04-25T08:17:22.103Z</time></trkpt><trkpt lat="45.7903553" lon="12.818766"><ele>4.0</ele><time>2026-04-25T08:17:23.103Z</time></trkpt><trkpt lat="45.7904356" lon="12.8191082"><ele>4.5</ele><time>2026-04-25T08:17:24.114Z</time></trkpt><trkpt lat="45.7905148" lon="12.8194492"><ele>5.0</ele><time>2026-04-25T08:17:25.112Z</time></trkpt><trkpt lat="45.790592" lon="12.8197898"><ele>5.0</ele><time>2026-04-25T08:17:26.115Z</time></trkpt><trkpt lat="45.7906699" lon="12.8201289"><ele>5.0</ele><time>2026-04-25T08:17:27.109Z</time></trkpt><trkpt lat="45.790748" lon="12.8204748"><ele>6.5</ele><time>2026-04-25T08:17:28.106Z</time></trkpt><trkpt lat="45.790831" lon="12.8208174"><ele>8.0</ele><time>2026-04-25T08:17:29.108Z</time></trkpt><trkpt lat="45.7909164" lon="12.8211621"><ele>8.0</ele><time>2026-04-25T08:17:30.123Z</time></trkpt><trkpt lat="45.7910007" lon="12.8215111"><ele>8.0</ele><time>2026-04-25T08:17:31.104Z</time></trkpt><trkpt lat="45.7910831" lon="12.8218625"><ele>8.5</ele><time>2026-04-25T08:17:32.103Z</time></trkpt><trkpt lat="45.7911757" lon="12.8222122"><ele>9.0</ele><time>2026-04-25T08:17:33.107Z</time></trkpt><trkpt lat="45.7912679" lon="12.8225598"><ele>8.0</ele><time>2026-04-25T08:17:34.107Z</time></trkpt><trkpt lat="45.7913653" lon="12.8229068"><ele>7.0</ele><time>2026-04-25T08:17:35.111Z</time></trkpt><trkpt lat="45.7914617" lon="12.8232588"><ele>8.0</ele><time>2026-04-25T08:17:36.097Z</time></trkpt><trkpt lat="45.7915566" lon="12.8236025"><ele>9.0</ele><time>2026-04-25T08:17:37.107Z</time></trkpt><trkpt lat="45.7916591" lon="12.8239565"><ele>9.0</ele><time>2026-04-25T08:17:38.104Z</time></trkpt><trkpt lat="45.7917604" lon="12.8243061"><ele>9.0</ele><time>2026-04-25T08:17:39.104Z</time></trkpt><trkpt lat="45.7918601" lon="12.8246579"><ele>7.0</ele><time>2026-04-25T08:17:40.117Z</time></trkpt><trkpt lat="45.7919651" lon="12.82501"><ele>5.0</ele><time>2026-04-25T08:17:41.109Z</time></trkpt><trkpt lat="45.7920722" lon="12.8253571"><ele>5.0</ele><time>2026-04-25T08:17:42.112Z</time></trkpt><trkpt lat="45.7921784" lon="12.8256991"><ele>5.0</ele><time>2026-04-25T08:17:43.101Z</time></trkpt><trkpt lat="45.7922878" lon="12.8260398"><ele>5.0</ele><time>2026-04-25T08:17:44.1Z</time></trkpt><trkpt lat="45.7923914" lon="12.8263814"><ele>5.0</ele><time>2026-04-25T08:17:45.099Z</time></trkpt><trkpt lat="45.7925009" lon="12.8267195"><ele>5.0</ele><time>2026-04-25T08:17:46.1Z</time></trkpt><trkpt lat="45.7926101" lon="12.8270628"><ele>5.0</ele><time>2026-04-25T08:17:47.099Z</time></trkpt><trkpt lat="45.7927174" lon="12.8274005"><ele>6.0</ele><time>2026-04-25T08:17:48.109Z</time></trkpt><trkpt lat="45.7928196" lon="12.8277348"><ele>7.0</ele><time>2026-04-25T08:17:49.105Z</time></trkpt><trkpt lat="45.7929192" lon="12.8280696"><ele>7.0</ele><time>2026-04-25T08:17:50.099Z</time></trkpt><trkpt lat="45.7930206" lon="12.8284118"><ele>7.0</ele><time>2026-04-25T08:17:51.108Z</time></trkpt><trkpt lat="45.7931251" lon="12.828748"><ele>6.5</ele><time>2026-04-25T08:17:52.124Z</time></trkpt><trkpt lat="45.7932313" lon="12.8290848"><ele>6.0</ele><time>2026-04-25T08:17:53.116Z</time></trkpt><trkpt lat="45.7933369" lon="12.8294162"><ele>5.5</ele><time>2026-04-25T08:17:54.098Z</time></trkpt><trkpt lat="45.7934416" lon="12.8297522"><ele>5.0</ele><time>2026-04-25T08:17:55.104Z</time></trkpt><trkpt lat="45.7935457" lon="12.8300866"><ele>4.5</ele><time>2026-04-25T08:17:56.105Z</time></trkpt><trkpt lat="45.7936538" lon="12.8304088"><ele>4.0</ele><time>2026-04-25T08:17:57.103Z</time></trkpt><trkpt lat="45.79376" lon="12.8307393"><ele>4.0</ele><time>2026-04-25T08:17:58.103Z</time></trkpt><trkpt lat="45.7938677" lon="12.831072"><ele>4.0</ele><time>2026-04-25T08:17:59.098Z</time></trkpt><trkpt lat="45.7939773" lon="12.8314044"><ele>4.0</ele><time>2026-04-25T08:18:00.109Z</time></trkpt><trkpt lat="45.794086" lon="12.831739"><ele>4.0</ele><time>2026-04-25T08:18:01.111Z</time></trkpt><trkpt lat="45.7941918" lon="12.8320736"><ele>4.0</ele><time>2026-04-25T08:18:02.104Z</time></trkpt><trkpt lat="45.7942955" lon="12.8324058"><ele>4.0</ele><time>2026-04-25T08:18:03.112Z</time></trkpt><trkpt lat="45.7944041" lon="12.8327434"><ele>3.0</ele><time>2026-04-25T08:18:04.118Z</time></trkpt><trkpt lat="45.794511" lon="12.8330759"><ele>2.0</ele><time>2026-04-25T08:18:05.102Z</time></trkpt><trkpt lat="45.7946167" lon="12.8334167"><ele>1.0</ele><time>2026-04-25T08:18:06.098Z</time></trkpt><trkpt lat="45.7947236" lon="12.8337527"><ele>0.0</ele><time>2026-04-25T08:18:07.105Z</time></trkpt><trkpt lat="45.7948294" lon="12.8340961"><ele>0.0</ele><time>2026-04-25T08:18:08.098Z</time></trkpt><trkpt lat="45.7949382" lon="12.8344356"><ele>0.0</ele><time>2026-04-25T08:18:09.104Z</time></trkpt><trkpt lat="45.7950454" lon="12.834771"><ele>0.0</ele><time>2026-04-25T08:18:10.109Z</time></trkpt><trkpt lat="45.7951541" lon="12.8351144"><ele>0.0</ele><time>2026-04-25T08:18:11.103Z</time></trkpt><trkpt lat="45.795259" lon="12.8354634"><ele>0.5</ele><time>2026-04-25T08:18:12.099Z</time></trkpt><trkpt lat="45.7953606" lon="12.8358169"><ele>1.0</ele><time>2026-04-25T08:18:13.105Z</time></trkpt><trkpt lat="45.7954611" lon="12.8361673"><ele>1.0</ele><time>2026-04-25T08:18:14.1Z</time></trkpt><trkpt lat="45.7955598" lon="12.8365131"><ele>1.0</ele><time>2026-04-25T08:18:15.108Z</time></trkpt><trkpt lat="45.7956618" lon="12.8368631"><ele>1.0</ele><time>2026-04-25T08:18:16.103Z</time></trkpt><trkpt lat="45.7957569" lon="12.8372168"><ele>1.0</ele><time>2026-04-25T08:18:17.1Z</time></trkpt><trkpt lat="45.7958467" lon="12.8375693"><ele>1.5</ele><time>2026-04-25T08:18:18.114Z</time></trkpt><trkpt lat="45.7959357" lon="12.8379283"><ele>2.0</ele><time>2026-04-25T08:18:19.102Z</time></trkpt><trkpt lat="45.7960271" lon="12.8382831"><ele>2.5</ele><time>2026-04-25T08:18:20.104Z</time></trkpt><trkpt lat="45.7961151" lon="12.8386365"><ele>3.0</ele><time>2026-04-25T08:18:21.101Z</time></trkpt><trkpt lat="45.7962021" lon="12.8389904"><ele>3.5</ele><time>2026-04-25T08:18:22.11Z</time></trkpt><trkpt lat="45.7962928" lon="12.8393495"><ele>4.0</ele><time>2026-04-25T08:18:23.104Z</time></trkpt><trkpt lat="45.796377" lon="12.8397022"><ele>4.0</ele><time>2026-04-25T08:18:24.104Z</time></trkpt><trkpt lat="45.7964612" lon="12.8400527"><ele>4.0</ele><time>2026-04-25T08:18:25.103Z</time></trkpt><trkpt lat="45.796545" lon="12.8404026"><ele>4.0</ele><time>2026-04-25T08:18:26.11Z</time></trkpt><trkpt lat="45.7966258" lon="12.8407535"><ele>4.0</ele><time>2026-04-25T08:18:27.101Z</time></trkpt><trkpt lat="45.7967029" lon="12.8411094"><ele>4.0</ele><time>2026-04-25T08:18:28.101Z</time></trkpt><trkpt lat="45.79678" lon="12.8414677"><ele>4.0</ele><time>2026-04-25T08:18:29.106Z</time></trkpt><trkpt lat="45.7968572" lon="12.8418211"><ele>3.0</ele><time>2026-04-25T08:18:30.107Z</time></trkpt><trkpt lat="45.7969294" lon="12.8421837"><ele>2.0</ele><time>2026-04-25T08:18:31.101Z</time></trkpt><trkpt lat="45.7970068" lon="12.8425443"><ele>3.0</ele><time>2026-04-25T08:18:32.097Z</time></trkpt><trkpt lat="45.7970782" lon="12.8429089"><ele>4.0</ele><time>2026-04-25T08:18:33.097Z</time></trkpt><trkpt lat="45.7971474" lon="12.8432676"><ele>4.0</ele><time>2026-04-25T08:18:34.094Z</time></trkpt><trkpt lat="45.797221" lon="12.8436263"><ele>4.0</ele><time>2026-04-25T08:18:35.099Z</time></trkpt><trkpt lat="45.7972899" lon="12.8439873"><ele>3.5</ele><time>2026-04-25T08:18:36.109Z</time></trkpt><trkpt lat="45.7973542" lon="12.8443452"><ele>3.0</ele><time>2026-04-25T08:18:37.097Z</time></trkpt><trkpt lat="45.7974195" lon="12.844708"><ele>3.0</ele><time>2026-04-25T08:18:38.097Z</time></trkpt><trkpt lat="45.7974893" lon="12.8450711"><ele>3.0</ele><time>2026-04-25T08:18:39.1Z</time></trkpt><trkpt lat="45.7975563" lon="12.8454341"><ele>3.5</ele><time>2026-04-25T08:18:40.106Z</time></trkpt><trkpt lat="45.7976199" lon="12.8457985"><ele>4.0</ele><time>2026-04-25T08:18:41.102Z</time></trkpt><trkpt lat="45.7976857" lon="12.8461646"><ele>4.0</ele><time>2026-04-25T08:18:42.102Z</time></trkpt><trkpt lat="45.7977571" lon="12.8465214"><ele>4.0</ele><time>2026-04-25T08:18:43.106Z</time></trkpt><trkpt lat="45.7978264" lon="12.8468881"><ele>4.5</ele><time>2026-04-25T08:18:44.096Z</time></trkpt><trkpt lat="45.7978991" lon="12.8472478"><ele>5.0</ele><time>2026-04-25T08:18:45.1Z</time></trkpt><trkpt lat="45.7979677" lon="12.8476127"><ele>5.5</ele><time>2026-04-25T08:18:46.105Z</time></trkpt><trkpt lat="45.7980309" lon="12.8479699"><ele>6.0</ele><time>2026-04-25T08:18:47.1Z</time></trkpt><trkpt lat="45.7980956" lon="12.8483205"><ele>6.0</ele><time>2026-04-25T08:18:48.103Z</time></trkpt><trkpt lat="45.7981632" lon="12.8486684"><ele>6.0</ele><time>2026-04-25T08:18:49.104Z</time></trkpt><trkpt lat="45.7982303" lon="12.8490163"><ele>6.5</ele><time>2026-04-25T08:18:50.102Z</time></trkpt><trkpt lat="45.7982916" lon="12.8493646"><ele>7.0</ele><time>2026-04-25T08:18:51.102Z</time></trkpt><trkpt lat="45.7983567" lon="12.8497142"><ele>7.0</ele><time>2026-04-25T08:18:52.109Z</time></trkpt><trkpt lat="45.7984186" lon="12.8500647"><ele>7.0</ele><time>2026-04-25T08:18:53.103Z</time></trkpt><trkpt lat="45.7984786" lon="12.8504156"><ele>6.5</ele><time>2026-04-25T08:18:54.102Z</time></trkpt><trkpt lat="45.7985416" lon="12.8507653"><ele>6.0</ele><time>2026-04-25T08:18:55.102Z</time></trkpt><trkpt lat="45.7986077" lon="12.8511191"><ele>6.0</ele><time>2026-04-25T08:18:56.101Z</time></trkpt><trkpt lat="45.7986676" lon="12.8514729"><ele>6.0</ele><time>2026-04-25T08:18:57.105Z</time></trkpt><trkpt lat="45.7987296" lon="12.8518296"><ele>7.0</ele><time>2026-04-25T08:18:58.095Z</time></trkpt><trkpt lat="45.7987993" lon="12.8521856"><ele>8.0</ele><time>2026-04-25T08:18:59.101Z</time></trkpt><trkpt lat="45.7988672" lon="12.8525441"><ele>7.5</ele><time>2026-04-25T08:19:00.096Z</time></trkpt><trkpt lat="45.7989317" lon="12.8529067"><ele>7.0</ele><time>2026-04-25T08:19:01.1Z</time></trkpt><trkpt lat="45.7989959" lon="12.8532652"><ele>6.5</ele><time>2026-04-25T08:19:02.095Z</time></trkpt><trkpt lat="45.7990602" lon="12.8536288"><ele>6.0</ele><time>2026-04-25T08:19:03.09Z</time></trkpt><trkpt lat="45.799127" lon="12.8539905"><ele>6.5</ele><time>2026-04-25T08:19:04.107Z</time></trkpt><trkpt lat="45.7991947" lon="12.8543528"><ele>7.0</ele><time>2026-04-25T08:19:05.104Z</time></trkpt><trkpt lat="45.7992675" lon="12.8547192"><ele>6.0</ele><time>2026-04-25T08:19:06.098Z</time></trkpt><trkpt lat="45.7993359" lon="12.8550888"><ele>5.0</ele><time>2026-04-25T08:19:07.099Z</time></trkpt><trkpt lat="45.799405" lon="12.8554615"><ele>5.0</ele><time>2026-04-25T08:19:08.109Z</time></trkpt><trkpt lat="45.7994693" lon="12.855825"><ele>5.0</ele><time>2026-04-25T08:19:09.103Z</time></trkpt><trkpt lat="45.7995341" lon="12.85619"><ele>5.0</ele><time>2026-04-25T08:19:10.106Z</time></trkpt><trkpt lat="45.799602" lon="12.8565587"><ele>5.0</ele><time>2026-04-25T08:19:11.101Z</time></trkpt><trkpt lat="45.799669" lon="12.8569238"><ele>5.0</ele><time>2026-04-25T08:19:12.103Z</time></trkpt><trkpt lat="45.7997307" lon="12.8572906"><ele>5.0</ele><time>2026-04-25T08:19:13.107Z</time></trkpt><trkpt lat="45.7997981" lon="12.857651"><ele>5.0</ele><time>2026-04-25T08:19:14.114Z</time></trkpt><trkpt lat="45.79986" lon="12.8580123"><ele>5.0</ele><time>2026-04-25T08:19:15.097Z</time></trkpt><trkpt lat="45.7999244" lon="12.8583705"><ele>6.0</ele><time>2026-04-25T08:19:16.1Z</time></trkpt><trkpt lat="45.7999926" lon="12.8587261"><ele>7.0</ele><time>2026-04-25T08:19:17.103Z</time></trkpt><trkpt lat="45.8000633" lon="12.859077"><ele>6.5</ele><time>2026-04-25T08:19:18.093Z</time></trkpt><trkpt lat="45.8001286" lon="12.859432"><ele>6.0</ele><time>2026-04-25T08:19:19.105Z</time></trkpt><trkpt lat="45.8001962" lon="12.859783"><ele>5.5</ele><time>2026-04-25T08:19:20.103Z</time></trkpt><trkpt lat="45.8002586" lon="12.8601354"><ele>5.0</ele><time>2026-04-25T08:19:21.101Z</time></trkpt><trkpt lat="45.8003296" lon="12.8604903"><ele>5.0</ele><time>2026-04-25T08:19:22.1Z</time></trkpt><trkpt lat="45.8003954" lon="12.8608478"><ele>5.0</ele><time>2026-04-25T08:19:23.097Z</time></trkpt><trkpt lat="45.8004619" lon="12.8612071"><ele>5.0</ele><time>2026-04-25T08:19:24.102Z</time></trkpt><trkpt lat="45.8005269" lon="12.8615601"><ele>5.0</ele><time>2026-04-25T08:19:25.103Z</time></trkpt><trkpt lat="45.8005951" lon="12.8619132"><ele>4.5</ele><time>2026-04-25T08:19:26.101Z</time></trkpt><trkpt lat="45.8006564" lon="12.862271"><ele>4.0</ele><time>2026-04-25T08:19:27.103Z</time></trkpt><trkpt lat="45.8007211" lon="12.862622"><ele>4.0</ele><time>2026-04-25T08:19:28.106Z</time></trkpt><trkpt lat="45.8007843" lon="12.8629744"><ele>4.0</ele><time>2026-04-25T08:19:29.101Z</time></trkpt><trkpt lat="45.8008477" lon="12.8633234"><ele>3.5</ele><time>2026-04-25T08:19:30.1Z</time></trkpt><trkpt lat="45.80091" lon="12.8636724"><ele>3.0</ele><time>2026-04-25T08:19:31.097Z</time></trkpt><trkpt lat="45.8009748" lon="12.8640171"><ele>5.0</ele><time>2026-04-25T08:19:32.094Z</time></trkpt><trkpt lat="45.80104" lon="12.8643639"><ele>7.0</ele><time>2026-04-25T08:19:33.098Z</time></trkpt><trkpt lat="45.8011056" lon="12.8647107"><ele>7.0</ele><time>2026-04-25T08:19:34.102Z</time></trkpt><trkpt lat="45.8011702" lon="12.8650626"><ele>7.0</ele><time>2026-04-25T08:19:35.1Z</time></trkpt><trkpt lat="45.8012335" lon="12.8654124"><ele>6.0</ele><time>2026-04-25T08:19:36.098Z</time></trkpt><trkpt lat="45.8012952" lon="12.86576"><ele>5.0</ele><time>2026-04-25T08:19:37.1Z</time></trkpt><trkpt lat="45.8013592" lon="12.8661172"><ele>5.0</ele><time>2026-04-25T08:19:38.098Z</time></trkpt><trkpt lat="45.8014235" lon="12.8664749"><ele>5.0</ele><time>2026-04-25T08:19:39.094Z</time></trkpt><trkpt lat="45.8014857" lon="12.8668296"><ele>5.5</ele><time>2026-04-25T08:19:40.1Z</time></trkpt><trkpt lat="45.8015536" lon="12.8671813"><ele>6.0</ele><time>2026-04-25T08:19:41.103Z</time></trkpt><trkpt lat="45.8016211" lon="12.8675326"><ele>6.5</ele><time>2026-04-25T08:19:42.105Z</time></trkpt><trkpt lat="45.8016862" lon="12.8678894"><ele>7.0</ele><time>2026-04-25T08:19:43.106Z</time></trkpt><trkpt lat="45.8017517" lon="12.8682479"><ele>7.5</ele><time>2026-04-25T08:19:44.106Z</time></trkpt><trkpt lat="45.8018172" lon="12.8686045"><ele>8.0</ele><time>2026-04-25T08:19:45.102Z</time></trkpt><trkpt lat="45.8018846" lon="12.8689602"><ele>7.5</ele><time>2026-04-25T08:19:46.103Z</time></trkpt><trkpt lat="45.8019477" lon="12.8693134"><ele>7.0</ele><time>2026-04-25T08:19:47.098Z</time></trkpt><trkpt lat="45.8020103" lon="12.8696749"><ele>7.0</ele><time>2026-04-25T08:19:48.099Z</time></trkpt><trkpt lat="45.8020761" lon="12.8700348"><ele>7.0</ele><time>2026-04-25T08:19:49.097Z</time></trkpt><trkpt lat="45.8021469" lon="12.8703935"><ele>7.0</ele><time>2026-04-25T08:19:50.102Z</time></trkpt><trkpt lat="45.8022115" lon="12.8707538"><ele>7.0</ele><time>2026-04-25T08:19:51.1Z</time></trkpt><trkpt lat="45.8022766" lon="12.8711085"><ele>7.0</ele><time>2026-04-25T08:19:52.099Z</time></trkpt><trkpt lat="45.8023372" lon="12.8714656"><ele>7.0</ele><time>2026-04-25T08:19:53.103Z</time></trkpt><trkpt lat="45.8023998" lon="12.8718206"><ele>6.5</ele><time>2026-04-25T08:19:54.104Z</time></trkpt><trkpt lat="45.8024664" lon="12.8721707"><ele>6.0</ele><time>2026-04-25T08:19:55.102Z</time></trkpt><trkpt lat="45.8025309" lon="12.8725179"><ele>6.5</ele><time>2026-04-25T08:19:56.109Z</time></trkpt><trkpt lat="45.8025968" lon="12.8728749"><ele>7.0</ele><time>2026-04-25T08:19:57.095Z</time></trkpt><trkpt lat="45.8026599" lon="12.873237"><ele>7.0</ele><time>2026-04-25T08:19:58.099Z</time></trkpt><trkpt lat="45.8027267" lon="12.8735993"><ele>7.0</ele><time>2026-04-25T08:19:59.106Z</time></trkpt><trkpt lat="45.8027948" lon="12.8739652"><ele>6.0</ele><time>2026-04-25T08:20:00.116Z</time></trkpt><trkpt lat="45.8028658" lon="12.8743353"><ele>5.0</ele><time>2026-04-25T08:20:01.106Z</time></trkpt><trkpt lat="45.8029342" lon="12.8747018"><ele>5.0</ele><time>2026-04-25T08:20:02.094Z</time></trkpt><trkpt lat="45.8030014" lon="12.8750779"><ele>5.0</ele><time>2026-04-25T08:20:03.101Z</time></trkpt><trkpt lat="45.8030706" lon="12.8754545"><ele>5.0</ele><time>2026-04-25T08:20:04.106Z</time></trkpt><trkpt lat="45.8031389" lon="12.8758211"><ele>5.0</ele><time>2026-04-25T08:20:05.107Z</time></trkpt><trkpt lat="45.8032045" lon="12.8761932"><ele>5.5</ele><time>2026-04-25T08:20:06.121Z</time></trkpt><trkpt lat="45.8032716" lon="12.8765656"><ele>6.0</ele><time>2026-04-25T08:20:07.095Z</time></trkpt><trkpt lat="45.8033359" lon="12.8769337"><ele>6.0</ele><time>2026-04-25T08:20:08.107Z</time></trkpt><trkpt lat="45.8034037" lon="12.8772986"><ele>6.0</ele><time>2026-04-25T08:20:09.104Z</time></trkpt><trkpt lat="45.80347" lon="12.8776569"><ele>6.0</ele><time>2026-04-25T08:20:10.108Z</time></trkpt><trkpt lat="45.8035404" lon="12.8780323"><ele>6.0</ele><time>2026-04-25T08:20:11.103Z</time></trkpt><trkpt lat="45.8036081" lon="12.8783963"><ele>5.5</ele><time>2026-04-25T08:20:12.111Z</time></trkpt><trkpt lat="45.80367" lon="12.878762"><ele>5.0</ele><time>2026-04-25T08:20:13.107Z</time></trkpt><trkpt lat="45.8037329" lon="12.8791273"><ele>5.5</ele><time>2026-04-25T08:20:14.098Z</time></trkpt><trkpt lat="45.803801" lon="12.8794975"><ele>6.0</ele><time>2026-04-25T08:20:15.111Z</time></trkpt><trkpt lat="45.8038665" lon="12.879857"><ele>6.0</ele><time>2026-04-25T08:20:16.095Z</time></trkpt><trkpt lat="45.8039292" lon="12.8802169"><ele>6.0</ele><time>2026-04-25T08:20:17.114Z</time></trkpt><trkpt lat="45.8039892" lon="12.8805777"><ele>7.0</ele><time>2026-04-25T08:20:18.103Z</time></trkpt><trkpt lat="45.8040466" lon="12.8809351"><ele>8.0</ele><time>2026-04-25T08:20:19.111Z</time></trkpt><trkpt lat="45.8040951" lon="12.8812984"><ele>8.0</ele><time>2026-04-25T08:20:20.108Z</time></trkpt><trkpt lat="45.8041433" lon="12.8816649"><ele>8.0</ele><time>2026-04-25T08:20:21.096Z</time></trkpt><trkpt lat="45.8041921" lon="12.8820288"><ele>7.5</ele><time>2026-04-25T08:20:22.106Z</time></trkpt><trkpt lat="45.8042365" lon="12.8823854"><ele>7.0</ele><time>2026-04-25T08:20:23.114Z</time></trkpt><trkpt lat="45.8042791" lon="12.882751"><ele>7.0</ele><time>2026-04-25T08:20:24.102Z</time></trkpt><trkpt lat="45.8043248" lon="12.8831084"><ele>7.0</ele><time>2026-04-25T08:20:25.11Z</time></trkpt><trkpt lat="45.8043709" lon="12.8834632"><ele>8.0</ele><time>2026-04-25T08:20:26.106Z</time></trkpt><trkpt lat="45.8044157" lon="12.8838194"><ele>9.0</ele><time>2026-04-25T08:20:27.111Z</time></trkpt><trkpt lat="45.8044588" lon="12.8841845"><ele>7.5</ele><time>2026-04-25T08:20:28.101Z</time></trkpt><trkpt lat="45.8045011" lon="12.8845519"><ele>6.0</ele><time>2026-04-25T08:20:29.1Z</time></trkpt><trkpt lat="45.8045376" lon="12.8849218"><ele>6.0</ele><time>2026-04-25T08:20:30.105Z</time></trkpt><trkpt lat="45.8045718" lon="12.8852863"><ele>6.0</ele><time>2026-04-25T08:20:31.101Z</time></trkpt><trkpt lat="45.8046104" lon="12.8856531"><ele>7.0</ele><time>2026-04-25T08:20:32.095Z</time></trkpt><trkpt lat="45.8046432" lon="12.8860229"><ele>8.0</ele><time>2026-04-25T08:20:33.094Z</time></trkpt><trkpt lat="45.8046745" lon="12.8863962"><ele>7.5</ele><time>2026-04-25T08:20:34.113Z</time></trkpt><trkpt lat="45.8047023" lon="12.8867689"><ele>7.0</ele><time>2026-04-25T08:20:35.104Z</time></trkpt><trkpt lat="45.8047283" lon="12.8871416"><ele>7.0</ele><time>2026-04-25T08:20:36.103Z</time></trkpt><trkpt lat="45.8047564" lon="12.8875036"><ele>7.0</ele><time>2026-04-25T08:20:37.105Z</time></trkpt><trkpt lat="45.8047819" lon="12.8878689"><ele>7.0</ele><time>2026-04-25T08:20:38.125Z</time></trkpt><trkpt lat="45.8048065" lon="12.8882325"><ele>7.0</ele><time>2026-04-25T08:20:39.104Z</time></trkpt><trkpt lat="45.8048306" lon="12.8885949"><ele>7.0</ele><time>2026-04-25T08:20:40.103Z</time></trkpt><trkpt lat="45.804854" lon="12.8889481"><ele>7.0</ele><time>2026-04-25T08:20:41.108Z</time></trkpt><trkpt lat="45.8048772" lon="12.889303"><ele>5.5</ele><time>2026-04-25T08:20:42.097Z</time></trkpt><trkpt lat="45.8048995" lon="12.8896587"><ele>4.0</ele><time>2026-04-25T08:20:43.098Z</time></trkpt><trkpt lat="45.8049188" lon="12.8900122"><ele>5.0</ele><time>2026-04-25T08:20:44.101Z</time></trkpt><trkpt lat="45.8049368" lon="12.8903671"><ele>6.0</ele><time>2026-04-25T08:20:45.102Z</time></trkpt><trkpt lat="45.8049513" lon="12.8907233"><ele>7.0</ele><time>2026-04-25T08:20:46.097Z</time></trkpt><trkpt lat="45.8049656" lon="12.891093"><ele>8.0</ele><time>2026-04-25T08:20:47.113Z</time></trkpt><trkpt lat="45.8049741" lon="12.8914555"><ele>8.0</ele><time>2026-04-25T08:20:48.103Z</time></trkpt><trkpt lat="45.80498" lon="12.8918172"><ele>8.0</ele><time>2026-04-25T08:20:49.105Z</time></trkpt><trkpt lat="45.8049841" lon="12.892177"><ele>8.0</ele><time>2026-04-25T08:20:50.107Z</time></trkpt><trkpt lat="45.8049937" lon="12.8925546"><ele>8.0</ele><time>2026-04-25T08:20:51.113Z</time></trkpt><trkpt lat="45.8049985" lon="12.8929191"><ele>6.5</ele><time>2026-04-25T08:20:52.112Z</time></trkpt><trkpt lat="45.8050043" lon="12.893282"><ele>5.0</ele><time>2026-04-25T08:20:53.112Z</time></trkpt><trkpt lat="45.8050075" lon="12.8936506"><ele>5.0</ele><time>2026-04-25T08:20:54.11Z</time></trkpt><trkpt lat="45.8050076" lon="12.8940213"><ele>5.0</ele><time>2026-04-25T08:20:55.107Z</time></trkpt><trkpt lat="45.8050073" lon="12.8943893"><ele>5.0</ele><time>2026-04-25T08:20:56.098Z</time></trkpt><trkpt lat="45.8050055" lon="12.8947628"><ele>5.0</ele><time>2026-04-25T08:20:57.104Z</time></trkpt><trkpt lat="45.8050028" lon="12.8951302"><ele>5.5</ele><time>2026-04-25T08:20:58.103Z</time></trkpt><trkpt lat="45.8049968" lon="12.8954992"><ele>6.0</ele><time>2026-04-25T08:20:59.117Z</time></trkpt><trkpt lat="45.8049899" lon="12.8958698"><ele>6.0</ele><time>2026-04-25T08:21:00.105Z</time></trkpt><trkpt lat="45.804982" lon="12.896235"><ele>6.0</ele><time>2026-04-25T08:21:01.111Z</time></trkpt><trkpt lat="45.8049742" lon="12.8966052"><ele>5.5</ele><time>2026-04-25T08:21:02.107Z</time></trkpt><trkpt lat="45.8049665" lon="12.896972"><ele>5.0</ele><time>2026-04-25T08:21:03.098Z</time></trkpt><trkpt lat="45.8049552" lon="12.8973383"><ele>5.0</ele><time>2026-04-25T08:21:04.107Z</time></trkpt><trkpt lat="45.8049446" lon="12.89771"><ele>5.0</ele><time>2026-04-25T08:21:05.108Z</time></trkpt><trkpt lat="45.8049318" lon="12.8980842"><ele>5.5</ele><time>2026-04-25T08:21:06.116Z</time></trkpt><trkpt lat="45.8049147" lon="12.898458"><ele>6.0</ele><time>2026-04-25T08:21:07.098Z</time></trkpt><trkpt lat="45.8048975" lon="12.89883"><ele>6.0</ele><time>2026-04-25T08:21:08.102Z</time></trkpt><trkpt lat="45.804882" lon="12.8992043"><ele>6.0</ele><time>2026-04-25T08:21:09.105Z</time></trkpt><trkpt lat="45.8048614" lon="12.8995736"><ele>6.0</ele><time>2026-04-25T08:21:10.105Z</time></trkpt><trkpt lat="45.8048447" lon="12.8999442"><ele>6.0</ele><time>2026-04-25T08:21:11.102Z</time></trkpt><trkpt lat="45.8048287" lon="12.9003182"><ele>5.5</ele><time>2026-04-25T08:21:12.113Z</time></trkpt><trkpt lat="45.8048176" lon="12.9006973"><ele>5.0</ele><time>2026-04-25T08:21:13.103Z</time></trkpt><trkpt lat="45.8048046" lon="12.9010668"><ele>5.0</ele><time>2026-04-25T08:21:14.105Z</time></trkpt><trkpt lat="45.8047915" lon="12.9014347"><ele>5.0</ele><time>2026-04-25T08:21:15.095Z</time></trkpt><trkpt lat="45.8047813" lon="12.9018045"><ele>4.5</ele><time>2026-04-25T08:21:16.103Z</time></trkpt><trkpt lat="45.8047723" lon="12.9021748"><ele>4.0</ele><time>2026-04-25T08:21:17.101Z</time></trkpt><trkpt lat="45.8047681" lon="12.9025376"><ele>3.5</ele><time>2026-04-25T08:21:18.11Z</time></trkpt><trkpt lat="45.8047627" lon="12.9028986"><ele>3.0</ele><time>2026-04-25T08:21:19.104Z</time></trkpt><trkpt lat="45.8047546" lon="12.9032614"><ele>4.0</ele><time>2026-04-25T08:21:20.108Z</time></trkpt><trkpt lat="45.8047482" lon="12.9036195"><ele>5.0</ele><time>2026-04-25T08:21:21.096Z</time></trkpt><trkpt lat="45.8047424" lon="12.9039763"><ele>5.0</ele><time>2026-04-25T08:21:22.104Z</time></trkpt><trkpt lat="45.8047422" lon="12.9043393"><ele>5.0</ele><time>2026-04-25T08:21:23.112Z</time></trkpt><trkpt lat="45.8047477" lon="12.9047015"><ele>5.0</ele><time>2026-04-25T08:21:24.11Z</time></trkpt><trkpt lat="45.8047504" lon="12.9050639"><ele>5.0</ele><time>2026-04-25T08:21:25.103Z</time></trkpt><trkpt lat="45.8047526" lon="12.9054289"><ele>4.5</ele><time>2026-04-25T08:21:26.097Z</time></trkpt><trkpt lat="45.8047535" lon="12.9057946"><ele>4.0</ele><time>2026-04-25T08:21:27.102Z</time></trkpt><trkpt lat="45.8047555" lon="12.9061584"><ele>4.0</ele><time>2026-04-25T08:21:28.103Z</time></trkpt><trkpt lat="45.8047627" lon="12.9065287"><ele>4.0</ele><time>2026-04-25T08:21:29.094Z</time></trkpt><trkpt lat="45.8047746" lon="12.9068967"><ele>4.5</ele><time>2026-04-25T08:21:30.1Z</time></trkpt><trkpt lat="45.8047834" lon="12.9072683"><ele>5.0</ele><time>2026-04-25T08:21:31.1Z</time></trkpt><trkpt lat="45.8047938" lon="12.9076365"><ele>5.0</ele><time>2026-04-25T08:21:32.093Z</time></trkpt><trkpt lat="45.8048009" lon="12.9080058"><ele>5.0</ele><time>2026-04-25T08:21:33.099Z</time></trkpt><trkpt lat="45.804813" lon="12.9083726"><ele>5.0</ele><time>2026-04-25T08:21:34.102Z</time></trkpt><trkpt lat="45.8048292" lon="12.9087399"><ele>5.0</ele><time>2026-04-25T08:21:35.109Z</time></trkpt><trkpt lat="45.8048443" lon="12.909109"><ele>4.5</ele><time>2026-04-25T08:21:36.102Z</time></trkpt><trkpt lat="45.804861" lon="12.9094778"><ele>4.0</ele><time>2026-04-25T08:21:37.098Z</time></trkpt><trkpt lat="45.8048761" lon="12.9098404"><ele>4.5</ele><time>2026-04-25T08:21:38.098Z</time></trkpt><trkpt lat="45.8048951" lon="12.9102113"><ele>5.0</ele><time>2026-04-25T08:21:39.107Z</time></trkpt><trkpt lat="45.8049146" lon="12.9105771"><ele>5.0</ele><time>2026-04-25T08:21:40.102Z</time></trkpt><trkpt lat="45.8049329" lon="12.9109392"><ele>5.0</ele><time>2026-04-25T08:21:41.102Z</time></trkpt><trkpt lat="45.8049528" lon="12.9112989"><ele>5.0</ele><time>2026-04-25T08:21:42.107Z</time></trkpt><trkpt lat="45.8049768" lon="12.9116639"><ele>5.0</ele><time>2026-04-25T08:21:43.1Z</time></trkpt><trkpt lat="45.8049984" lon="12.9120269"><ele>5.0</ele><time>2026-04-25T08:21:44.1Z</time></trkpt><trkpt lat="45.8050248" lon="12.9123843"><ele>5.0</ele><time>2026-04-25T08:21:45.113Z</time></trkpt><trkpt lat="45.8050502" lon="12.9127398"><ele>5.0</ele><time>2026-04-25T08:21:46.112Z</time></trkpt><trkpt lat="45.8050757" lon="12.9130936"><ele>5.0</ele><time>2026-04-25T08:21:47.115Z</time></trkpt><trkpt lat="45.8051066" lon="12.9134521"><ele>5.0</ele><time>2026-04-25T08:21:48.099Z</time></trkpt><trkpt lat="45.805137" lon="12.9138092"><ele>5.0</ele><time>2026-04-25T08:21:49.105Z</time></trkpt><trkpt lat="45.8051712" lon="12.9141685"><ele>5.5</ele><time>2026-04-25T08:21:50.102Z</time></trkpt><trkpt lat="45.8052047" lon="12.9145299"><ele>6.0</ele><time>2026-04-25T08:21:51.104Z</time></trkpt><trkpt lat="45.8052359" lon="12.9148821"><ele>6.0</ele><time>2026-04-25T08:21:52.112Z</time></trkpt><trkpt lat="45.8052697" lon="12.9152434"><ele>6.0</ele><time>2026-04-25T08:21:53.111Z</time></trkpt><trkpt lat="45.805303" lon="12.9156013"><ele>6.0</ele><time>2026-04-25T08:21:54.115Z</time></trkpt><trkpt lat="45.8053399" lon="12.9159665"><ele>6.0</ele><time>2026-04-25T08:21:55.109Z</time></trkpt><trkpt lat="45.8053817" lon="12.9163299"><ele>6.0</ele><time>2026-04-25T08:21:56.111Z</time></trkpt><trkpt lat="45.8054213" lon="12.9166888"><ele>6.0</ele><time>2026-04-25T08:21:57.106Z</time></trkpt><trkpt lat="45.8054667" lon="12.9170594"><ele>5.5</ele><time>2026-04-25T08:21:58.103Z</time></trkpt><trkpt lat="45.8055115" lon="12.9174263"><ele>5.0</ele><time>2026-04-25T08:21:59.105Z</time></trkpt><trkpt lat="45.8055515" lon="12.9177942"><ele>5.0</ele><time>2026-04-25T08:22:00.099Z</time></trkpt><trkpt lat="45.805592" lon="12.918161"><ele>5.0</ele><time>2026-04-25T08:22:01.118Z</time></trkpt><trkpt lat="45.8056304" lon="12.9185242"><ele>5.5</ele><time>2026-04-25T08:22:02.103Z</time></trkpt><trkpt lat="45.8056619" lon="12.9188859"><ele>6.0</ele><time>2026-04-25T08:22:03.1Z</time></trkpt><trkpt lat="45.8056916" lon="12.9192431"><ele>6.0</ele><time>2026-04-25T08:22:04.102Z</time></trkpt><trkpt lat="45.8057232" lon="12.9196074"><ele>6.0</ele><time>2026-04-25T08:22:05.1Z</time></trkpt><trkpt lat="45.8057547" lon="12.9199775"><ele>6.5</ele><time>2026-04-25T08:22:06.115Z</time></trkpt><trkpt lat="45.8057859" lon="12.9203452"><ele>7.0</ele><time>2026-04-25T08:22:07.093Z</time></trkpt><trkpt lat="45.8058135" lon="12.9207149"><ele>7.5</ele><time>2026-04-25T08:22:08.095Z</time></trkpt><trkpt lat="45.8058416" lon="12.9210847"><ele>8.0</ele><time>2026-04-25T08:22:09.098Z</time></trkpt><trkpt lat="45.8058729" lon="12.9214483"><ele>8.0</ele><time>2026-04-25T08:22:10.093Z</time></trkpt><trkpt lat="45.8059028" lon="12.9218172"><ele>8.0</ele><time>2026-04-25T08:22:11.101Z</time></trkpt><trkpt lat="45.8059299" lon="12.9221841"><ele>8.0</ele><time>2026-04-25T08:22:12.094Z</time></trkpt><trkpt lat="45.8059582" lon="12.9225519"><ele>8.0</ele><time>2026-04-25T08:22:13.111Z</time></trkpt><trkpt lat="45.8059912" lon="12.9229243"><ele>6.0</ele><time>2026-04-25T08:22:14.102Z</time></trkpt><trkpt lat="45.8060193" lon="12.9233009"><ele>4.0</ele><time>2026-04-25T08:22:15.101Z</time></trkpt><trkpt lat="45.8060495" lon="12.9236719"><ele>4.0</ele><time>2026-04-25T08:22:16.094Z</time></trkpt><trkpt lat="45.806081" lon="12.9240398"><ele>4.0</ele><time>2026-04-25T08:22:17.102Z</time></trkpt><trkpt lat="45.8061091" lon="12.9244111"><ele>3.5</ele><time>2026-04-25T08:22:18.099Z</time></trkpt><trkpt lat="45.8061362" lon="12.9247804"><ele>3.0</ele><time>2026-04-25T08:22:19.111Z</time></trkpt><trkpt lat="45.8061613" lon="12.9251528"><ele>3.0</ele><time>2026-04-25T08:22:20.105Z</time></trkpt><trkpt lat="45.8061811" lon="12.9255232"><ele>3.0</ele><time>2026-04-25T08:22:21.108Z</time></trkpt><trkpt lat="45.8062046" lon="12.9258901"><ele>3.0</ele><time>2026-04-25T08:22:22.112Z</time></trkpt><trkpt lat="45.806231" lon="12.9262588"><ele>3.0</ele><time>2026-04-25T08:22:23.112Z</time></trkpt><trkpt lat="45.8062528" lon="12.9266282"><ele>3.5</ele><time>2026-04-25T08:22:24.114Z</time></trkpt><trkpt lat="45.806273" lon="12.9269936"><ele>4.0</ele><time>2026-04-25T08:22:25.113Z</time></trkpt><trkpt lat="45.8062961" lon="12.927359"><ele>4.5</ele><time>2026-04-25T08:22:26.113Z</time></trkpt><trkpt lat="45.8063184" lon="12.9277234"><ele>5.0</ele><time>2026-04-25T08:22:27.103Z</time></trkpt><trkpt lat="45.8063435" lon="12.9280889"><ele>4.5</ele><time>2026-04-25T08:22:28.098Z</time></trkpt><trkpt lat="45.8063694" lon="12.928455"><ele>4.0</ele><time>2026-04-25T08:22:29.111Z</time></trkpt><trkpt lat="45.8063961" lon="12.9288307"><ele>4.0</ele><time>2026-04-25T08:22:30.1Z</time></trkpt><trkpt lat="45.8064231" lon="12.9292089"><ele>4.0</ele><time>2026-04-25T08:22:31.1Z</time></trkpt><trkpt lat="45.8064494" lon="12.9295904"><ele>4.0</ele><time>2026-04-25T08:22:32.101Z</time></trkpt><trkpt lat="45.8064797" lon="12.9299721"><ele>4.0</ele><time>2026-04-25T08:22:33.099Z</time></trkpt><trkpt lat="45.8065097" lon="12.9303536"><ele>4.0</ele><time>2026-04-25T08:22:34.097Z</time></trkpt><trkpt lat="45.8065415" lon="12.9307367"><ele>4.0</ele><time>2026-04-25T08:22:35.102Z</time></trkpt><trkpt lat="45.8065699" lon="12.9311253"><ele>4.0</ele><time>2026-04-25T08:22:36.1Z</time></trkpt><trkpt lat="45.8066027" lon="12.9315159"><ele>4.0</ele><time>2026-04-25T08:22:37.1Z</time></trkpt><trkpt lat="45.8066327" lon="12.9319036"><ele>3.5</ele><time>2026-04-25T08:22:38.113Z</time></trkpt><trkpt lat="45.8066619" lon="12.9322937"><ele>3.0</ele><time>2026-04-25T08:22:39.101Z</time></trkpt><trkpt lat="45.8066922" lon="12.9326806"><ele>2.5</ele><time>2026-04-25T08:22:40.116Z</time></trkpt><trkpt lat="45.8067242" lon="12.9330694"><ele>2.0</ele><time>2026-04-25T08:22:41.097Z</time></trkpt><trkpt lat="45.8067559" lon="12.9334578"><ele>2.0</ele><time>2026-04-25T08:22:42.108Z</time></trkpt><trkpt lat="45.8067834" lon="12.9338431"><ele>2.0</ele><time>2026-04-25T08:22:43.101Z</time></trkpt><trkpt lat="45.806812" lon="12.934227"><ele>3.0</ele><time>2026-04-25T08:22:44.098Z</time></trkpt><trkpt lat="45.8068398" lon="12.9346045"><ele>4.0</ele><time>2026-04-25T08:22:45.106Z</time></trkpt><trkpt lat="45.8068687" lon="12.9349837"><ele>3.5</ele><time>2026-04-25T08:22:46.096Z</time></trkpt><trkpt lat="45.8068977" lon="12.935361"><ele>3.0</ele><time>2026-04-25T08:22:47.1Z</time></trkpt><trkpt lat="45.8069284" lon="12.9357429"><ele>2.5</ele><time>2026-04-25T08:22:48.104Z</time></trkpt><trkpt lat="45.8069598" lon="12.9361164"><ele>2.0</ele><time>2026-04-25T08:22:49.11Z</time></trkpt><trkpt lat="45.8069903" lon="12.9364916"><ele>2.5</ele><time>2026-04-25T08:22:50.123Z</time></trkpt><trkpt lat="45.8070188" lon="12.9368601"><ele>3.0</ele><time>2026-04-25T08:22:51.106Z</time></trkpt><trkpt lat="45.8070494" lon="12.9372344"><ele>3.5</ele><time>2026-04-25T08:22:52.11Z</time></trkpt><trkpt lat="45.8070793" lon="12.937607"><ele>4.0</ele><time>2026-04-25T08:22:53.119Z</time></trkpt><trkpt lat="45.8071098" lon="12.9379805"><ele>4.0</ele><time>2026-04-25T08:22:54.118Z</time></trkpt><trkpt lat="45.8071416" lon="12.9383596"><ele>4.0</ele><time>2026-04-25T08:22:55.114Z</time></trkpt><trkpt lat="45.8071733" lon="12.9387345"><ele>4.5</ele><time>2026-04-25T08:22:56.111Z</time></trkpt><trkpt lat="45.8072031" lon="12.9391101"><ele>5.0</ele><time>2026-04-25T08:22:57.104Z</time></trkpt><trkpt lat="45.8072339" lon="12.9394869"><ele>3.5</ele><time>2026-04-25T08:22:58.112Z</time></trkpt><trkpt lat="45.8072604" lon="12.9398618"><ele>2.0</ele><time>2026-04-25T08:22:59.102Z</time></trkpt><trkpt lat="45.8072885" lon="12.9402415"><ele>2.0</ele><time>2026-04-25T08:23:00.101Z</time></trkpt><trkpt lat="45.8073224" lon="12.9406166"><ele>2.0</ele><time>2026-04-25T08:23:01.101Z</time></trkpt><trkpt lat="45.8073507" lon="12.9409914"><ele>2.5</ele><time>2026-04-25T08:23:02.099Z</time></trkpt><trkpt lat="45.8073789" lon="12.9413736"><ele>3.0</ele><time>2026-04-25T08:23:03.117Z</time></trkpt><trkpt lat="45.8074072" lon="12.9417561"><ele>3.0</ele><time>2026-04-25T08:23:04.103Z</time></trkpt><trkpt lat="45.807437" lon="12.9421342"><ele>3.0</ele><time>2026-04-25T08:23:05.095Z</time></trkpt><trkpt lat="45.807469" lon="12.9425124"><ele>3.5</ele><time>2026-04-25T08:23:06.099Z</time></trkpt><trkpt lat="45.8074989" lon="12.9428919"><ele>4.0</ele><time>2026-04-25T08:23:07.101Z</time></trkpt><trkpt lat="45.8075304" lon="12.9432629"><ele>4.0</ele><time>2026-04-25T08:23:08.095Z</time></trkpt><trkpt lat="45.8075596" lon="12.9436338"><ele>4.0</ele><time>2026-04-25T08:23:09.111Z</time></trkpt><trkpt lat="45.807589" lon="12.9440096"><ele>3.5</ele><time>2026-04-25T08:23:10.107Z</time></trkpt><trkpt lat="45.8076175" lon="12.944385"><ele>3.0</ele><time>2026-04-25T08:23:11.1Z</time></trkpt><trkpt lat="45.8076479" lon="12.944763"><ele>3.5</ele><time>2026-04-25T08:23:12.104Z</time></trkpt><trkpt lat="45.8076762" lon="12.9451414"><ele>4.0</ele><time>2026-04-25T08:23:13.102Z</time></trkpt><trkpt lat="45.807705" lon="12.9455194"><ele>4.0</ele><time>2026-04-25T08:23:14.108Z</time></trkpt><trkpt lat="45.8077371" lon="12.9458913"><ele>4.0</ele><time>2026-04-25T08:23:15.111Z</time></trkpt><trkpt lat="45.8077671" lon="12.9462623"><ele>4.0</ele><time>2026-04-25T08:23:16.098Z</time></trkpt><trkpt lat="45.807799" lon="12.9466363"><ele>4.0</ele><time>2026-04-25T08:23:17.117Z</time></trkpt><trkpt lat="45.8078304" lon="12.9470058"><ele>4.0</ele><time>2026-04-25T08:23:18.114Z</time></trkpt><trkpt lat="45.8078605" lon="12.9473817"><ele>4.0</ele><time>2026-04-25T08:23:19.099Z</time></trkpt><trkpt lat="45.8078886" lon="12.9477562"><ele>4.0</ele><time>2026-04-25T08:23:20.105Z</time></trkpt><trkpt lat="45.8079155" lon="12.9481276"><ele>4.0</ele><time>2026-04-25T08:23:21.106Z</time></trkpt><trkpt lat="45.8079443" lon="12.9484967"><ele>4.0</ele><time>2026-04-25T08:23:22.111Z</time></trkpt><trkpt lat="45.8079738" lon="12.9488651"><ele>4.0</ele><time>2026-04-25T08:23:23.105Z</time></trkpt><trkpt lat="45.8080058" lon="12.9492377"><ele>4.0</ele><time>2026-04-25T08:23:24.105Z</time></trkpt><trkpt lat="45.8080358" lon="12.9496032"><ele>4.0</ele><time>2026-04-25T08:23:25.103Z</time></trkpt><trkpt lat="45.8080653" lon="12.9499733"><ele>4.5</ele><time>2026-04-25T08:23:26.109Z</time></trkpt><trkpt lat="45.8080951" lon="12.950338"><ele>5.0</ele><time>2026-04-25T08:23:27.106Z</time></trkpt><trkpt lat="45.8081223" lon="12.9507098"><ele>4.5</ele><time>2026-04-25T08:23:28.114Z</time></trkpt><trkpt lat="45.8081524" lon="12.9510794"><ele>4.0</ele><time>2026-04-25T08:23:29.11Z</time></trkpt><trkpt lat="45.8081802" lon="12.9514491"><ele>4.0</ele><time>2026-04-25T08:23:30.102Z</time></trkpt><trkpt lat="45.8082066" lon="12.9518175"><ele>4.0</ele><time>2026-04-25T08:23:31.1Z</time></trkpt><trkpt lat="45.8082343" lon="12.9521849"><ele>4.5</ele><time>2026-04-25T08:23:32.117Z</time></trkpt><trkpt lat="45.8082653" lon="12.9525531"><ele>5.0</ele><time>2026-04-25T08:23:33.098Z</time></trkpt><trkpt lat="45.8082927" lon="12.9529265"><ele>5.0</ele><time>2026-04-25T08:23:34.098Z</time></trkpt><trkpt lat="45.8083215" lon="12.9533015"><ele>5.0</ele><time>2026-04-25T08:23:35.112Z</time></trkpt><trkpt lat="45.8083517" lon="12.9536709"><ele>5.0</ele><time>2026-04-25T08:23:36.104Z</time></trkpt><trkpt lat="45.8083791" lon="12.9540433"><ele>5.0</ele><time>2026-04-25T08:23:37.12Z</time></trkpt><trkpt lat="45.8084067" lon="12.954415"><ele>5.0</ele><time>2026-04-25T08:23:38.096Z</time></trkpt><trkpt lat="45.8084353" lon="12.9547884"><ele>5.0</ele><time>2026-04-25T08:23:39.105Z</time></trkpt><trkpt lat="45.8084676" lon="12.9551581"><ele>5.0</ele><time>2026-04-25T08:23:40.102Z</time></trkpt><trkpt lat="45.8084963" lon="12.955524"><ele>5.0</ele><time>2026-04-25T08:23:41.105Z</time></trkpt><trkpt lat="45.8085275" lon="12.9558898"><ele>5.0</ele><time>2026-04-25T08:23:42.098Z</time></trkpt><trkpt lat="45.8085578" lon="12.9562582"><ele>5.0</ele><time>2026-04-25T08:23:43.106Z</time></trkpt><trkpt lat="45.8085891" lon="12.9566263"><ele>5.0</ele><time>2026-04-25T08:23:44.105Z</time></trkpt><trkpt lat="45.808614" lon="12.9570009"><ele>5.0</ele><time>2026-04-25T08:23:45.102Z</time></trkpt><trkpt lat="45.8086407" lon="12.9573688"><ele>4.5</ele><time>2026-04-25T08:23:46.105Z</time></trkpt><trkpt lat="45.8086688" lon="12.9577323"><ele>4.0</ele><time>2026-04-25T08:23:47.108Z</time></trkpt><trkpt lat="45.8086955" lon="12.9581049"><ele>4.0</ele><time>2026-04-25T08:23:48.104Z</time></trkpt><trkpt lat="45.8087231" lon="12.9584775"><ele>4.0</ele><time>2026-04-25T08:23:49.106Z</time></trkpt><trkpt lat="45.8087544" lon="12.9588517"><ele>4.5</ele><time>2026-04-25T08:23:50.105Z</time></trkpt><trkpt lat="45.8087863" lon="12.9592223"><ele>5.0</ele><time>2026-04-25T08:23:51.104Z</time></trkpt><trkpt lat="45.8088201" lon="12.9595928"><ele>5.0</ele><time>2026-04-25T08:23:52.121Z</time></trkpt><trkpt lat="45.8088496" lon="12.9599647"><ele>5.0</ele><time>2026-04-25T08:23:53.112Z</time></trkpt><trkpt lat="45.8088779" lon="12.9603357"><ele>5.5</ele><time>2026-04-25T08:23:54.101Z</time></trkpt><trkpt lat="45.8089086" lon="12.960706"><ele>6.0</ele><time>2026-04-25T08:23:55.118Z</time></trkpt><trkpt lat="45.8089352" lon="12.9610693"><ele>6.0</ele><time>2026-04-25T08:23:56.104Z</time></trkpt><trkpt lat="45.8089626" lon="12.9614342"><ele>6.0</ele><time>2026-04-25T08:23:57.113Z</time></trkpt><trkpt lat="45.8089928" lon="12.961801"><ele>5.5</ele><time>2026-04-25T08:23:58.102Z</time></trkpt><trkpt lat="45.8090259" lon="12.9621737"><ele>5.0</ele><time>2026-04-25T08:23:59.104Z</time></trkpt><trkpt lat="45.8090591" lon="12.9625451"><ele>5.0</ele><time>2026-04-25T08:24:00.102Z</time></trkpt><trkpt lat="45.8090906" lon="12.962915"><ele>5.0</ele><time>2026-04-25T08:24:01.105Z</time></trkpt><trkpt lat="45.8091261" lon="12.9632946"><ele>5.5</ele><time>2026-04-25T08:24:02.107Z</time></trkpt><trkpt lat="45.8091622" lon="12.9636814"><ele>6.0</ele><time>2026-04-25T08:24:03.101Z</time></trkpt><trkpt lat="45.8092048" lon="12.9640746"><ele>6.5</ele><time>2026-04-25T08:24:04.12Z</time></trkpt><trkpt lat="45.8092502" lon="12.9644631"><ele>7.0</ele><time>2026-04-25T08:24:05.103Z</time></trkpt><trkpt lat="45.8092882" lon="12.9648344"><ele>6.0</ele><time>2026-04-25T08:24:06.099Z</time></trkpt><trkpt lat="45.8093324" lon="12.9652018"><ele>5.0</ele><time>2026-04-25T08:24:07.109Z</time></trkpt><trkpt lat="45.8093846" lon="12.9655737"><ele>6.0</ele><time>2026-04-25T08:24:08.116Z</time></trkpt><trkpt lat="45.8094366" lon="12.9659456"><ele>7.0</ele><time>2026-04-25T08:24:09.106Z</time></trkpt><trkpt lat="45.8094936" lon="12.9663213"><ele>7.0</ele><time>2026-04-25T08:24:10.112Z</time></trkpt><trkpt lat="45.8095499" lon="12.966693"><ele>7.0</ele><time>2026-04-25T08:24:11.107Z</time></trkpt><trkpt lat="45.8096105" lon="12.9670689"><ele>7.0</ele><time>2026-04-25T08:24:12.11Z</time></trkpt><trkpt lat="45.8096729" lon="12.9674373"><ele>7.0</ele><time>2026-04-25T08:24:13.097Z</time></trkpt><trkpt lat="45.80974" lon="12.9678068"><ele>7.0</ele><time>2026-04-25T08:24:14.098Z</time></trkpt><trkpt lat="45.8098047" lon="12.9681741"><ele>7.0</ele><time>2026-04-25T08:24:15.099Z</time></trkpt><trkpt lat="45.8098731" lon="12.9685354"><ele>7.0</ele><time>2026-04-25T08:24:16.11Z</time></trkpt><trkpt lat="45.8099395" lon="12.9688955"><ele>7.0</ele><time>2026-04-25T08:24:17.113Z</time></trkpt><trkpt lat="45.8100103" lon="12.9692505"><ele>7.5</ele><time>2026-04-25T08:24:18.113Z</time></trkpt><trkpt lat="45.8100825" lon="12.9696084"><ele>8.0</ele><time>2026-04-25T08:24:19.111Z</time></trkpt><trkpt lat="45.8101565" lon="12.9699674"><ele>7.0</ele><time>2026-04-25T08:24:20.105Z</time></trkpt><trkpt lat="45.8102282" lon="12.9703272"><ele>6.0</ele><time>2026-04-25T08:24:21.11Z</time></trkpt><trkpt lat="45.8102961" lon="12.9706892"><ele>6.5</ele><time>2026-04-25T08:24:22.112Z</time></trkpt><trkpt lat="45.8103719" lon="12.9710475"><ele>7.0</ele><time>2026-04-25T08:24:23.103Z</time></trkpt><trkpt lat="45.8104481" lon="12.9714066"><ele>7.5</ele><time>2026-04-25T08:24:24.123Z</time></trkpt><trkpt lat="45.8105193" lon="12.9717661"><ele>8.0</ele><time>2026-04-25T08:24:25.114Z</time></trkpt><trkpt lat="45.8105877" lon="12.9721271"><ele>8.0</ele><time>2026-04-25T08:24:26.109Z</time></trkpt><trkpt lat="45.8106578" lon="12.9724828"><ele>8.0</ele><time>2026-04-25T08:24:27.114Z</time></trkpt><trkpt lat="45.810731" lon="12.9728364"><ele>7.5</ele><time>2026-04-25T08:24:28.113Z</time></trkpt><trkpt lat="45.8107975" lon="12.9732008"><ele>7.0</ele><time>2026-04-25T08:24:29.106Z</time></trkpt><trkpt lat="45.8108638" lon="12.9735637"><ele>6.5</ele><time>2026-04-25T08:24:30.108Z</time></trkpt><trkpt lat="45.8109361" lon="12.9739178"><ele>6.0</ele><time>2026-04-25T08:24:31.11Z</time></trkpt><trkpt lat="45.8110037" lon="12.9742739"><ele>6.0</ele><time>2026-04-25T08:24:32.112Z</time></trkpt><trkpt lat="45.8110757" lon="12.9746284"><ele>6.0</ele><time>2026-04-25T08:24:33.105Z</time></trkpt><trkpt lat="45.811143" lon="12.97498"><ele>7.0</ele><time>2026-04-25T08:24:34.106Z</time></trkpt><trkpt lat="45.8112106" lon="12.9753335"><ele>8.0</ele><time>2026-04-25T08:24:35.102Z</time></trkpt><trkpt lat="45.8112781" lon="12.9756981"><ele>8.5</ele><time>2026-04-25T08:24:36.104Z</time></trkpt><trkpt lat="45.8113473" lon="12.9760602"><ele>9.0</ele><time>2026-04-25T08:24:37.107Z</time></trkpt><trkpt lat="45.8114151" lon="12.9764254"><ele>9.5</ele><time>2026-04-25T08:24:38.097Z</time></trkpt><trkpt lat="45.8114831" lon="12.9767911"><ele>10.0</ele><time>2026-04-25T08:24:39.105Z</time></trkpt><trkpt lat="45.8115499" lon="12.977155"><ele>9.5</ele><time>2026-04-25T08:24:40.092Z</time></trkpt><trkpt lat="45.811614" lon="12.977519"><ele>9.0</ele><time>2026-04-25T08:24:41.111Z</time></trkpt><trkpt lat="45.8116817" lon="12.9778925"><ele>9.0</ele><time>2026-04-25T08:24:42.106Z</time></trkpt><trkpt lat="45.8117509" lon="12.9782631"><ele>9.0</ele><time>2026-04-25T08:24:43.097Z</time></trkpt><trkpt lat="45.8118186" lon="12.9786322"><ele>10.0</ele><time>2026-04-25T08:24:44.112Z</time></trkpt><trkpt lat="45.8118861" lon="12.9789983"><ele>11.0</ele><time>2026-04-25T08:24:45.1Z</time></trkpt><trkpt lat="45.8119502" lon="12.9793679"><ele>6.5</ele><time>2026-04-25T08:24:46.115Z</time></trkpt><trkpt lat="45.8120167" lon="12.979738"><ele>2.0</ele><time>2026-04-25T08:24:47.11Z</time></trkpt><trkpt lat="45.8120809" lon="12.9801006"><ele>2.0</ele><time>2026-04-25T08:24:48.098Z</time></trkpt><trkpt lat="45.8121476" lon="12.9804652"><ele>2.0</ele><time>2026-04-25T08:24:49.109Z</time></trkpt><trkpt lat="45.8122156" lon="12.9808316"><ele>4.0</ele><time>2026-04-25T08:24:50.111Z</time></trkpt><trkpt lat="45.8122824" lon="12.9811951"><ele>6.0</ele><time>2026-04-25T08:24:51.106Z</time></trkpt><trkpt lat="45.8123495" lon="12.9815608"><ele>6.5</ele><time>2026-04-25T08:24:52.118Z</time></trkpt><trkpt lat="45.8124129" lon="12.9819251"><ele>7.0</ele><time>2026-04-25T08:24:53.105Z</time></trkpt><trkpt lat="45.8124751" lon="12.9822966"><ele>7.0</ele><time>2026-04-25T08:24:54.102Z</time></trkpt><trkpt lat="45.812542" lon="12.9826657"><ele>7.0</ele><time>2026-04-25T08:24:55.118Z</time></trkpt><trkpt lat="45.8126063" lon="12.9830239"><ele>6.5</ele><time>2026-04-25T08:24:56.109Z</time></trkpt><trkpt lat="45.8126692" lon="12.9833844"><ele>6.0</ele><time>2026-04-25T08:24:57.111Z</time></trkpt><trkpt lat="45.812736" lon="12.9837469"><ele>6.0</ele><time>2026-04-25T08:24:58.114Z</time></trkpt><trkpt lat="45.8128027" lon="12.9841076"><ele>6.0</ele><time>2026-04-25T08:24:59.12Z</time></trkpt><trkpt lat="45.812868" lon="12.9844667"><ele>6.0</ele><time>2026-04-25T08:25:00.109Z</time></trkpt><trkpt lat="45.8129369" lon="12.9848243"><ele>6.0</ele><time>2026-04-25T08:25:01.109Z</time></trkpt><trkpt lat="45.8130047" lon="12.9851864"><ele>6.5</ele><time>2026-04-25T08:25:02.104Z</time></trkpt><trkpt lat="45.8130708" lon="12.9855502"><ele>7.0</ele><time>2026-04-25T08:25:03.105Z</time></trkpt><trkpt lat="45.8131342" lon="12.9859158"><ele>7.0</ele><time>2026-04-25T08:25:04.115Z</time></trkpt><trkpt lat="45.813193" lon="12.9862768"><ele>7.0</ele><time>2026-04-25T08:25:05.105Z</time></trkpt><trkpt lat="45.8132554" lon="12.9866428"><ele>7.5</ele><time>2026-04-25T08:25:06.112Z</time></trkpt><trkpt lat="45.8133189" lon="12.9870055"><ele>8.0</ele><time>2026-04-25T08:25:07.1Z</time></trkpt><trkpt lat="45.8133876" lon="12.9873724"><ele>8.5</ele><time>2026-04-25T08:25:08.098Z</time></trkpt><trkpt lat="45.8134563" lon="12.9877364"><ele>9.0</ele><time>2026-04-25T08:25:09.103Z</time></trkpt><trkpt lat="45.813524" lon="12.9881015"><ele>9.5</ele><time>2026-04-25T08:25:10.102Z</time></trkpt><trkpt lat="45.8135892" lon="12.9884658"><ele>10.0</ele><time>2026-04-25T08:25:11.117Z</time></trkpt><trkpt lat="45.8136562" lon="12.9888294"><ele>10.5</ele><time>2026-04-25T08:25:12.1Z</time></trkpt><trkpt lat="45.8137238" lon="12.9891959"><ele>11.0</ele><time>2026-04-25T08:25:13.102Z</time></trkpt><trkpt lat="45.8137945" lon="12.9895649"><ele>11.0</ele><time>2026-04-25T08:25:14.105Z</time></trkpt><trkpt lat="45.8138636" lon="12.9899337"><ele>11.0</ele><time>2026-04-25T08:25:15.107Z</time></trkpt><trkpt lat="45.8139311" lon="12.9902981"><ele>10.0</ele><time>2026-04-25T08:25:16.102Z</time></trkpt><trkpt lat="45.8139961" lon="12.9906688"><ele>9.0</ele><time>2026-04-25T08:25:17.112Z</time></trkpt><trkpt lat="45.8140616" lon="12.9910365"><ele>9.0</ele><time>2026-04-25T08:25:18.113Z</time></trkpt><trkpt lat="45.8141248" lon="12.9914066"><ele>9.0</ele><time>2026-04-25T08:25:19.103Z</time></trkpt><trkpt lat="45.814192" lon="12.9917759"><ele>9.0</ele><time>2026-04-25T08:25:20.116Z</time></trkpt><trkpt lat="45.8142597" lon="12.9921368"><ele>9.0</ele><time>2026-04-25T08:25:21.111Z</time></trkpt><trkpt lat="45.814326" lon="12.9924976"><ele>9.0</ele><time>2026-04-25T08:25:22.102Z</time></trkpt><trkpt lat="45.8143901" lon="12.9928611"><ele>9.0</ele><time>2026-04-25T08:25:23.099Z</time></trkpt><trkpt lat="45.8144539" lon="12.9932246"><ele>10.0</ele><time>2026-04-25T08:25:24.103Z</time></trkpt><trkpt lat="45.8145202" lon="12.9935841"><ele>11.0</ele><time>2026-04-25T08:25:25.108Z</time></trkpt><trkpt lat="45.8145865" lon="12.993947"><ele>10.0</ele><time>2026-04-25T08:25:26.103Z</time></trkpt><trkpt lat="45.8146537" lon="12.9943086"><ele>9.0</ele><time>2026-04-25T08:25:27.107Z</time></trkpt><trkpt lat="45.8147183" lon="12.9946672"><ele>8.5</ele><time>2026-04-25T08:25:28.11Z</time></trkpt><trkpt lat="45.8147824" lon="12.9950281"><ele>8.0</ele><time>2026-04-25T08:25:29.109Z</time></trkpt><trkpt lat="45.8148452" lon="12.9953877"><ele>8.0</ele><time>2026-04-25T08:25:30.107Z</time></trkpt><trkpt lat="45.8149061" lon="12.9957494"><ele>8.0</ele><time>2026-04-25T08:25:31.116Z</time></trkpt><trkpt lat="45.8149673" lon="12.9961113"><ele>9.0</ele><time>2026-04-25T08:25:32.11Z</time></trkpt><trkpt lat="45.8150294" lon="12.9964743"><ele>10.0</ele><time>2026-04-25T08:25:33.108Z</time></trkpt><trkpt lat="45.8150877" lon="12.9968391"><ele>10.0</ele><time>2026-04-25T08:25:34.099Z</time></trkpt><trkpt lat="45.8151417" lon="12.9972049"><ele>10.0</ele><time>2026-04-25T08:25:35.1Z</time></trkpt><trkpt lat="45.8151993" lon="12.9975714"><ele>10.0</ele><time>2026-04-25T08:25:36.115Z</time></trkpt><trkpt lat="45.815258" lon="12.9979379"><ele>10.0</ele><time>2026-04-25T08:25:37.099Z</time></trkpt><trkpt lat="45.8153088" lon="12.9983068"><ele>9.0</ele><time>2026-04-25T08:25:38.112Z</time></trkpt><trkpt lat="45.8153596" lon="12.9986726"><ele>8.0</ele><time>2026-04-25T08:25:39.1Z</time></trkpt><trkpt lat="45.81541" lon="12.9990393"><ele>8.0</ele><time>2026-04-25T08:25:40.103Z</time></trkpt><trkpt lat="45.8154656" lon="12.9994055"><ele>8.0</ele><time>2026-04-25T08:25:41.103Z</time></trkpt><trkpt lat="45.8155187" lon="12.9997744"><ele>8.0</ele><time>2026-04-25T08:25:42.112Z</time></trkpt><trkpt lat="45.8155722" lon="13.0001478"><ele>8.0</ele><time>2026-04-25T08:25:43.105Z</time></trkpt><trkpt lat="45.8156259" lon="13.0005241"><ele>8.5</ele><time>2026-04-25T08:25:44.112Z</time></trkpt><trkpt lat="45.8156741" lon="13.0008993"><ele>9.0</ele><time>2026-04-25T08:25:45.099Z</time></trkpt><trkpt lat="45.8157259" lon="13.0012765"><ele>9.0</ele><time>2026-04-25T08:25:46.108Z</time></trkpt><trkpt lat="45.8157804" lon="13.0016548"><ele>9.0</ele><time>2026-04-25T08:25:47.099Z</time></trkpt><trkpt lat="45.8158417" lon="13.0020365"><ele>8.0</ele><time>2026-04-25T08:25:48.111Z</time></trkpt><trkpt lat="45.8159042" lon="13.0024175"><ele>7.0</ele><time>2026-04-25T08:25:49.116Z</time></trkpt><trkpt lat="45.8159647" lon="13.0027922"><ele>7.5</ele><time>2026-04-25T08:25:50.088Z</time></trkpt><trkpt lat="45.8160297" lon="13.0031694"><ele>8.0</ele><time>2026-04-25T08:25:51.101Z</time></trkpt><trkpt lat="45.8160995" lon="13.0035473"><ele>7.0</ele><time>2026-04-25T08:25:52.112Z</time></trkpt><trkpt lat="45.8161659" lon="13.0039167"><ele>6.0</ele><time>2026-04-25T08:25:53.104Z</time></trkpt><trkpt lat="45.8162272" lon="13.0042894"><ele>6.0</ele><time>2026-04-25T08:25:54.107Z</time></trkpt><trkpt lat="45.8162867" lon="13.00466"><ele>6.0</ele><time>2026-04-25T08:25:55.101Z</time></trkpt><trkpt lat="45.8163409" lon="13.0050408"><ele>6.5</ele><time>2026-04-25T08:25:56.11Z</time></trkpt><trkpt lat="45.8163975" lon="13.005421"><ele>7.0</ele><time>2026-04-25T08:25:57.099Z</time></trkpt><trkpt lat="45.8164521" lon="13.0058013"><ele>6.5</ele><time>2026-04-25T08:25:58.114Z</time></trkpt><trkpt lat="45.8165074" lon="13.0061803"><ele>6.0</ele><time>2026-04-25T08:25:59.103Z</time></trkpt><trkpt lat="45.8165547" lon="13.0065592"><ele>5.0</ele><time>2026-04-25T08:26:00.115Z</time></trkpt><trkpt lat="45.8166021" lon="13.0069415"><ele>4.0</ele><time>2026-04-25T08:26:01.103Z</time></trkpt><trkpt lat="45.816647" lon="13.0073218"><ele>4.5</ele><time>2026-04-25T08:26:02.102Z</time></trkpt><trkpt lat="45.8166868" lon="13.0077106"><ele>5.0</ele><time>2026-04-25T08:26:03.107Z</time></trkpt><trkpt lat="45.8167264" lon="13.0080939"><ele>5.0</ele><time>2026-04-25T08:26:04.101Z</time></trkpt><trkpt lat="45.8167671" lon="13.0084778"><ele>5.0</ele><time>2026-04-25T08:26:05.109Z</time></trkpt><trkpt lat="45.8168036" lon="13.0088578"><ele>5.0</ele><time>2026-04-25T08:26:06.104Z</time></trkpt><trkpt lat="45.8168384" lon="13.0092365"><ele>5.0</ele><time>2026-04-25T08:26:07.105Z</time></trkpt><trkpt lat="45.8168687" lon="13.0096168"><ele>5.0</ele><time>2026-04-25T08:26:08.097Z</time></trkpt><trkpt lat="45.8168998" lon="13.0099995"><ele>5.0</ele><time>2026-04-25T08:26:09.109Z</time></trkpt><trkpt lat="45.8169315" lon="13.0103812"><ele>5.0</ele><time>2026-04-25T08:26:10.098Z</time></trkpt><trkpt lat="45.8169634" lon="13.0107588"><ele>5.0</ele><time>2026-04-25T08:26:11.095Z</time></trkpt><trkpt lat="45.8169893" lon="13.0111363"><ele>5.0</ele><time>2026-04-25T08:26:12.105Z</time></trkpt><trkpt lat="45.8170202" lon="13.011516"><ele>5.0</ele><time>2026-04-25T08:26:13.1Z</time></trkpt><trkpt lat="45.8170512" lon="13.0118935"><ele>5.5</ele><time>2026-04-25T08:26:14.112Z</time></trkpt><trkpt lat="45.8170841" lon="13.0122628"><ele>6.0</ele><time>2026-04-25T08:26:15.094Z</time></trkpt><trkpt lat="45.8171165" lon="13.012638"><ele>6.5</ele><time>2026-04-25T08:26:16.104Z</time></trkpt><trkpt lat="45.8171468" lon="13.0130107"><ele>7.0</ele><time>2026-04-25T08:26:17.112Z</time></trkpt><trkpt lat="45.8171804" lon="13.0133801"><ele>7.0</ele><time>2026-04-25T08:26:18.108Z</time></trkpt><trkpt lat="45.8172127" lon="13.0137531"><ele>7.0</ele><time>2026-04-25T08:26:19.11Z</time></trkpt><trkpt lat="45.8172444" lon="13.0141292"><ele>7.5</ele><time>2026-04-25T08:26:20.121Z</time></trkpt><trkpt lat="45.8172732" lon="13.0145"><ele>8.0</ele><time>2026-04-25T08:26:21.101Z</time></trkpt><trkpt lat="45.8173065" lon="13.0148734"><ele>7.0</ele><time>2026-04-25T08:26:22.112Z</time></trkpt><trkpt lat="45.817337" lon="13.0152491"><ele>6.0</ele><time>2026-04-25T08:26:23.113Z</time></trkpt><trkpt lat="45.8173672" lon="13.0156291"><ele>5.0</ele><time>2026-04-25T08:26:24.111Z</time></trkpt><trkpt lat="45.8173966" lon="13.0160038"><ele>4.0</ele><time>2026-04-25T08:26:25.104Z</time></trkpt><trkpt lat="45.8174258" lon="13.0163815"><ele>4.5</ele><time>2026-04-25T08:26:26.105Z</time></trkpt><trkpt lat="45.817455" lon="13.016758"><ele>5.0</ele><time>2026-04-25T08:26:27.105Z</time></trkpt><trkpt lat="45.8174807" lon="13.0171317"><ele>6.0</ele><time>2026-04-25T08:26:28.109Z</time></trkpt><trkpt lat="45.8175093" lon="13.0175148"><ele>7.0</ele><time>2026-04-25T08:26:29.118Z</time></trkpt><trkpt lat="45.8175393" lon="13.0179014"><ele>7.0</ele><time>2026-04-25T08:26:30.117Z</time></trkpt><trkpt lat="45.8175646" lon="13.0182807"><ele>7.0</ele><time>2026-04-25T08:26:31.108Z</time></trkpt><trkpt lat="45.8175894" lon="13.0186417"><ele>7.0</ele><time>2026-04-25T08:26:32.102Z</time></trkpt><trkpt lat="45.8176171" lon="13.0190059"><ele>7.0</ele><time>2026-04-25T08:26:33.112Z</time></trkpt><trkpt lat="45.8176463" lon="13.0193703"><ele>6.0</ele><time>2026-04-25T08:26:34.105Z</time></trkpt><trkpt lat="45.8176745" lon="13.019734"><ele>5.0</ele><time>2026-04-25T08:26:35.093Z</time></trkpt><trkpt lat="45.8177068" lon="13.0200953"><ele>5.0</ele><time>2026-04-25T08:26:36.099Z</time></trkpt><trkpt lat="45.8177387" lon="13.0204572"><ele>5.0</ele><time>2026-04-25T08:26:37.112Z</time></trkpt><trkpt lat="45.8177702" lon="13.0208135"><ele>5.0</ele><time>2026-04-25T08:26:38.101Z</time></trkpt><trkpt lat="45.8177975" lon="13.0211755"><ele>5.0</ele><time>2026-04-25T08:26:39.11Z</time></trkpt><trkpt lat="45.8178265" lon="13.0215338"><ele>4.0</ele><time>2026-04-25T08:26:40.1Z</time></trkpt><trkpt lat="45.8178574" lon="13.0218896"><ele>3.0</ele><time>2026-04-25T08:26:41.103Z</time></trkpt><trkpt lat="45.8178855" lon="13.0222456"><ele>3.0</ele><time>2026-04-25T08:26:42.099Z</time></trkpt><trkpt lat="45.8179132" lon="13.0226014"><ele>3.0</ele><time>2026-04-25T08:26:43.103Z</time></trkpt><trkpt lat="45.8179447" lon="13.0229645"><ele>4.0</ele><time>2026-04-25T08:26:44.105Z</time></trkpt><trkpt lat="45.8179725" lon="13.0233256"><ele>5.0</ele><time>2026-04-25T08:26:45.107Z</time></trkpt><trkpt lat="45.8180045" lon="13.0236935"><ele>5.0</ele><time>2026-04-25T08:26:46.093Z</time></trkpt><trkpt lat="45.8180344" lon="13.0240626"><ele>5.0</ele><time>2026-04-25T08:26:47.092Z</time></trkpt><trkpt lat="45.81807" lon="13.0244318"><ele>5.0</ele><time>2026-04-25T08:26:48.101Z</time></trkpt><trkpt lat="45.8181008" lon="13.0248113"><ele>5.0</ele><time>2026-04-25T08:26:49.101Z</time></trkpt><trkpt lat="45.8181333" lon="13.0251803"><ele>5.0</ele><time>2026-04-25T08:26:50.1Z</time></trkpt><trkpt lat="45.8181636" lon="13.0255445"><ele>5.0</ele><time>2026-04-25T08:26:51.09Z</time></trkpt><trkpt lat="45.8181943" lon="13.0259176"><ele>5.0</ele><time>2026-04-25T08:26:52.102Z</time></trkpt><trkpt lat="45.8182245" lon="13.0262858"><ele>5.0</ele><time>2026-04-25T08:26:53.097Z</time></trkpt><trkpt lat="45.8182589" lon="13.0266579"><ele>5.5</ele><time>2026-04-25T08:26:54.1Z</time></trkpt><trkpt lat="45.8182874" lon="13.0270297"><ele>6.0</ele><time>2026-04-25T08:26:55.098Z</time></trkpt><trkpt lat="45.818316" lon="13.0273988"><ele>5.0</ele><time>2026-04-25T08:26:56.111Z</time></trkpt><trkpt lat="45.8183453" lon="13.027773"><ele>4.0</ele><time>2026-04-25T08:26:57.104Z</time></trkpt><trkpt lat="45.8183747" lon="13.0281413"><ele>4.0</ele><time>2026-04-25T08:26:58.099Z</time></trkpt><trkpt lat="45.8184052" lon="13.0285155"><ele>4.0</ele><time>2026-04-25T08:26:59.101Z</time></trkpt><trkpt lat="45.8184411" lon="13.0288845"><ele>4.5</ele><time>2026-04-25T08:27:00.097Z</time></trkpt><trkpt lat="45.8184779" lon="13.0292522"><ele>5.0</ele><time>2026-04-25T08:27:01.095Z</time></trkpt><trkpt lat="45.8185169" lon="13.0296207"><ele>5.5</ele><time>2026-04-25T08:27:02.102Z</time></trkpt><trkpt lat="45.8185551" lon="13.0299897"><ele>6.0</ele><time>2026-04-25T08:27:03.1Z</time></trkpt><trkpt lat="45.818598" lon="13.0303603"><ele>6.0</ele><time>2026-04-25T08:27:04.091Z</time></trkpt><trkpt lat="45.8186449" lon="13.0307253"><ele>6.0</ele><time>2026-04-25T08:27:05.099Z</time></trkpt><trkpt lat="45.8186959" lon="13.0310922"><ele>5.0</ele><time>2026-04-25T08:27:06.094Z</time></trkpt><trkpt lat="45.8187472" lon="13.0314594"><ele>4.0</ele><time>2026-04-25T08:27:07.111Z</time></trkpt><trkpt lat="45.8188102" lon="13.0318244"><ele>4.0</ele><time>2026-04-25T08:27:08.105Z</time></trkpt><trkpt lat="45.8188742" lon="13.0321841"><ele>4.0</ele><time>2026-04-25T08:27:09.095Z</time></trkpt><trkpt lat="45.8189413" lon="13.0325403"><ele>4.5</ele><time>2026-04-25T08:27:10.102Z</time></trkpt><trkpt lat="45.8190132" lon="13.0328986"><ele>5.0</ele><time>2026-04-25T08:27:11.101Z</time></trkpt><trkpt lat="45.8190886" lon="13.0332554"><ele>5.5</ele><time>2026-04-25T08:27:12.102Z</time></trkpt><trkpt lat="45.8191648" lon="13.0336079"><ele>6.0</ele><time>2026-04-25T08:27:13.096Z</time></trkpt><trkpt lat="45.8192477" lon="13.0339603"><ele>6.0</ele><time>2026-04-25T08:27:14.094Z</time></trkpt><trkpt lat="45.8193335" lon="13.0343101"><ele>6.0</ele><time>2026-04-25T08:27:15.097Z</time></trkpt><trkpt lat="45.8194202" lon="13.0346577"><ele>6.0</ele><time>2026-04-25T08:27:16.118Z</time></trkpt><trkpt lat="45.8195099" lon="13.0350084"><ele>6.0</ele><time>2026-04-25T08:27:17.095Z</time></trkpt><trkpt lat="45.8196035" lon="13.035358"><ele>6.0</ele><time>2026-04-25T08:27:18.087Z</time></trkpt><trkpt lat="45.8196987" lon="13.0357033"><ele>6.0</ele><time>2026-04-25T08:27:19.091Z</time></trkpt><trkpt lat="45.819797" lon="13.0360503"><ele>6.0</ele><time>2026-04-25T08:27:20.105Z</time></trkpt><trkpt lat="45.8198941" lon="13.0363949"><ele>6.0</ele><time>2026-04-25T08:27:21.096Z</time></trkpt><trkpt lat="45.8199897" lon="13.0367462"><ele>6.0</ele><time>2026-04-25T08:27:22.108Z</time></trkpt><trkpt lat="45.8200882" lon="13.0370951"><ele>6.0</ele><time>2026-04-25T08:27:23.099Z</time></trkpt><trkpt lat="45.82019" lon="13.0374445"><ele>6.0</ele><time>2026-04-25T08:27:24.109Z</time></trkpt><trkpt lat="45.8202932" lon="13.037798"><ele>6.0</ele><time>2026-04-25T08:27:25.096Z</time></trkpt><trkpt lat="45.820395" lon="13.0381485"><ele>5.0</ele><time>2026-04-25T08:27:26.097Z</time></trkpt><trkpt lat="45.820503" lon="13.0384966"><ele>4.0</ele><time>2026-04-25T08:27:27.093Z</time></trkpt><trkpt lat="45.8206137" lon="13.0388524"><ele>4.0</ele><time>2026-04-25T08:27:28.102Z</time></trkpt><trkpt lat="45.8207274" lon="13.0392093"><ele>4.0</ele><time>2026-04-25T08:27:29.104Z</time></trkpt><trkpt lat="45.8208405" lon="13.0395601"><ele>4.0</ele><time>2026-04-25T08:27:30.103Z</time></trkpt><trkpt lat="45.8209462" lon="13.039909"><ele>4.0</ele><time>2026-04-25T08:27:31.107Z</time></trkpt><trkpt lat="45.8210497" lon="13.0402584"><ele>3.5</ele><time>2026-04-25T08:27:32.099Z</time></trkpt><trkpt lat="45.821152" lon="13.0406108"><ele>3.0</ele><time>2026-04-25T08:27:33.106Z</time></trkpt><trkpt lat="45.8212543" lon="13.0409635"><ele>3.0</ele><time>2026-04-25T08:27:34.113Z</time></trkpt><trkpt lat="45.8213553" lon="13.0413172"><ele>3.0</ele><time>2026-04-25T08:27:35.1Z</time></trkpt><trkpt lat="45.8214565" lon="13.0416743"><ele>3.5</ele><time>2026-04-25T08:27:36.12Z</time></trkpt><trkpt lat="45.8215591" lon="13.0420239"><ele>4.0</ele><time>2026-04-25T08:27:37.107Z</time></trkpt><trkpt lat="45.8216597" lon="13.0423766"><ele>3.5</ele><time>2026-04-25T08:27:38.092Z</time></trkpt><trkpt lat="45.8217539" lon="13.0427303"><ele>3.0</ele><time>2026-04-25T08:27:39.109Z</time></trkpt><trkpt lat="45.8218524" lon="13.043071"><ele>3.5</ele><time>2026-04-25T08:27:40.1Z</time></trkpt><trkpt lat="45.8219514" lon="13.0434037"><ele>4.0</ele><time>2026-04-25T08:27:41.101Z</time></trkpt><trkpt lat="45.8220482" lon="13.043741"><ele>4.0</ele><time>2026-04-25T08:27:42.101Z</time></trkpt><trkpt lat="45.8221462" lon="13.0440738"><ele>4.0</ele><time>2026-04-25T08:27:43.1Z</time></trkpt><trkpt lat="45.8222388" lon="13.0444135"><ele>4.5</ele><time>2026-04-25T08:27:44.097Z</time></trkpt><trkpt lat="45.8223275" lon="13.0447534"><ele>5.0</ele><time>2026-04-25T08:27:45.102Z</time></trkpt><trkpt lat="45.8224108" lon="13.0450959"><ele>5.5</ele><time>2026-04-25T08:27:46.099Z</time></trkpt><trkpt lat="45.8224981" lon="13.0454408"><ele>6.0</ele><time>2026-04-25T08:27:47.095Z</time></trkpt><trkpt lat="45.8225838" lon="13.045787"><ele>5.5</ele><time>2026-04-25T08:27:48.098Z</time></trkpt><trkpt lat="45.8226722" lon="13.0461306"><ele>5.0</ele><time>2026-04-25T08:27:49.096Z</time></trkpt><trkpt lat="45.8227619" lon="13.0464698"><ele>4.5</ele><time>2026-04-25T08:27:50.11Z</time></trkpt><trkpt lat="45.822858" lon="13.046807"><ele>4.0</ele><time>2026-04-25T08:27:51.115Z</time></trkpt><trkpt lat="45.8229467" lon="13.047147"><ele>4.0</ele><time>2026-04-25T08:27:52.104Z</time></trkpt><trkpt lat="45.8230346" lon="13.0474812"><ele>4.0</ele><time>2026-04-25T08:27:53.093Z</time></trkpt><trkpt lat="45.8231198" lon="13.0478113"><ele>4.0</ele><time>2026-04-25T08:27:54.094Z</time></trkpt><trkpt lat="45.8232062" lon="13.0481507"><ele>4.0</ele><time>2026-04-25T08:27:55.095Z</time></trkpt><trkpt lat="45.8232842" lon="13.0484867"><ele>4.0</ele><time>2026-04-25T08:27:56.092Z</time></trkpt><trkpt lat="45.8233622" lon="13.0488314"><ele>4.0</ele><time>2026-04-25T08:27:57.1Z</time></trkpt><trkpt lat="45.8234399" lon="13.0491694"><ele>4.0</ele><time>2026-04-25T08:27:58.091Z</time></trkpt><trkpt lat="45.8235178" lon="13.0495121"><ele>4.0</ele><time>2026-04-25T08:27:59.098Z</time></trkpt><trkpt lat="45.8235905" lon="13.0498683"><ele>4.5</ele><time>2026-04-25T08:28:00.098Z</time></trkpt><trkpt lat="45.8236655" lon="13.0502313"><ele>5.0</ele><time>2026-04-25T08:28:01.109Z</time></trkpt><trkpt lat="45.8237343" lon="13.0505866"><ele>4.0</ele><time>2026-04-25T08:28:02.102Z</time></trkpt><trkpt lat="45.8238045" lon="13.0509443"><ele>3.0</ele><time>2026-04-25T08:28:03.094Z</time></trkpt><trkpt lat="45.8238746" lon="13.0513028"><ele>3.5</ele><time>2026-04-25T08:28:04.106Z</time></trkpt><trkpt lat="45.8239451" lon="13.0516623"><ele>4.0</ele><time>2026-04-25T08:28:05.108Z</time></trkpt><trkpt lat="45.8240126" lon="13.052023"><ele>4.0</ele><time>2026-04-25T08:28:06.099Z</time></trkpt><trkpt lat="45.8240811" lon="13.0523883"><ele>4.0</ele><time>2026-04-25T08:28:07.1Z</time></trkpt><trkpt lat="45.8241437" lon="13.0527487"><ele>4.0</ele><time>2026-04-25T08:28:08.109Z</time></trkpt><trkpt lat="45.8242112" lon="13.0531176"><ele>4.0</ele><time>2026-04-25T08:28:09.097Z</time></trkpt><trkpt lat="45.8242708" lon="13.0534847"><ele>3.5</ele><time>2026-04-25T08:28:10.1Z</time></trkpt><trkpt lat="45.8243298" lon="13.0538557"><ele>3.0</ele><time>2026-04-25T08:28:11.1Z</time></trkpt><trkpt lat="45.8243844" lon="13.0542316"><ele>3.0</ele><time>2026-04-25T08:28:12.101Z</time></trkpt><trkpt lat="45.8244406" lon="13.0545962"><ele>3.0</ele><time>2026-04-25T08:28:13.095Z</time></trkpt><trkpt lat="45.8244985" lon="13.0549644"><ele>3.0</ele><time>2026-04-25T08:28:14.099Z</time></trkpt><trkpt lat="45.8245533" lon="13.0553297"><ele>3.0</ele><time>2026-04-25T08:28:15.099Z</time></trkpt><trkpt lat="45.8246067" lon="13.0556995"><ele>3.0</ele><time>2026-04-25T08:28:16.09Z</time></trkpt><trkpt lat="45.8246587" lon="13.0560636"><ele>3.0</ele><time>2026-04-25T08:28:17.108Z</time></trkpt><trkpt lat="45.824713" lon="13.0564276"><ele>3.5</ele><time>2026-04-25T08:28:18.096Z</time></trkpt><trkpt lat="45.8247683" lon="13.0567928"><ele>4.0</ele><time>2026-04-25T08:28:19.097Z</time></trkpt><trkpt lat="45.824823" lon="13.0571626"><ele>5.0</ele><time>2026-04-25T08:28:20.091Z</time></trkpt><trkpt lat="45.8248825" lon="13.0575291"><ele>6.0</ele><time>2026-04-25T08:28:21.103Z</time></trkpt><trkpt lat="45.8249382" lon="13.0578994"><ele>6.0</ele><time>2026-04-25T08:28:22.095Z</time></trkpt><trkpt lat="45.8249946" lon="13.0582761"><ele>6.0</ele><time>2026-04-25T08:28:23.094Z</time></trkpt><trkpt lat="45.8250496" lon="13.0586457"><ele>5.5</ele><time>2026-04-25T08:28:24.106Z</time></trkpt><trkpt lat="45.825102" lon="13.0590248"><ele>5.0</ele><time>2026-04-25T08:28:25.102Z</time></trkpt><trkpt lat="45.8251541" lon="13.0594044"><ele>4.5</ele><time>2026-04-25T08:28:26.099Z</time></trkpt><trkpt lat="45.8252044" lon="13.0597845"><ele>4.0</ele><time>2026-04-25T08:28:27.1Z</time></trkpt><trkpt lat="45.8252582" lon="13.0601647"><ele>3.5</ele><time>2026-04-25T08:28:28.094Z</time></trkpt><trkpt lat="45.825314" lon="13.0605446"><ele>3.0</ele><time>2026-04-25T08:28:29.094Z</time></trkpt><trkpt lat="45.8253682" lon="13.060916"><ele>4.0</ele><time>2026-04-25T08:28:30.1Z</time></trkpt><trkpt lat="45.8254241" lon="13.0612916"><ele>5.0</ele><time>2026-04-25T08:28:31.095Z</time></trkpt><trkpt lat="45.8254806" lon="13.061662"><ele>5.0</ele><time>2026-04-25T08:28:32.115Z</time></trkpt><trkpt lat="45.8255333" lon="13.0620339"><ele>5.0</ele><time>2026-04-25T08:28:33.09Z</time></trkpt><trkpt lat="45.8255856" lon="13.0623953"><ele>5.5</ele><time>2026-04-25T08:28:34.104Z</time></trkpt><trkpt lat="45.8256382" lon="13.0627627"><ele>6.0</ele><time>2026-04-25T08:28:35.098Z</time></trkpt><trkpt lat="45.8256892" lon="13.0631277"><ele>5.5</ele><time>2026-04-25T08:28:36.096Z</time></trkpt><trkpt lat="45.8257403" lon="13.0634949"><ele>5.0</ele><time>2026-04-25T08:28:37.104Z</time></trkpt><trkpt lat="45.8257906" lon="13.0638584"><ele>4.5</ele><time>2026-04-25T08:28:38.096Z</time></trkpt><trkpt lat="45.8258409" lon="13.0642286"><ele>4.0</ele><time>2026-04-25T08:28:39.117Z</time></trkpt><trkpt lat="45.8258936" lon="13.0645966"><ele>4.0</ele><time>2026-04-25T08:28:40.101Z</time></trkpt><trkpt lat="45.8259465" lon="13.0649617"><ele>4.0</ele><time>2026-04-25T08:28:41.102Z</time></trkpt><trkpt lat="45.8260018" lon="13.0653341"><ele>4.0</ele><time>2026-04-25T08:28:42.109Z</time></trkpt><trkpt lat="45.8260557" lon="13.0657045"><ele>4.0</ele><time>2026-04-25T08:28:43.099Z</time></trkpt><trkpt lat="45.8261111" lon="13.066076"><ele>4.0</ele><time>2026-04-25T08:28:44.096Z</time></trkpt><trkpt lat="45.8261745" lon="13.0664436"><ele>4.0</ele><time>2026-04-25T08:28:45.1Z</time></trkpt><trkpt lat="45.826238" lon="13.0668208"><ele>4.0</ele><time>2026-04-25T08:28:46.093Z</time></trkpt><trkpt lat="45.8262968" lon="13.0671994"><ele>4.0</ele><time>2026-04-25T08:28:47.101Z</time></trkpt><trkpt lat="45.8263567" lon="13.0675854"><ele>5.0</ele><time>2026-04-25T08:28:48.098Z</time></trkpt><trkpt lat="45.8264134" lon="13.0679682"><ele>6.0</ele><time>2026-04-25T08:28:49.104Z</time></trkpt><trkpt lat="45.8264664" lon="13.0683492"><ele>6.0</ele><time>2026-04-25T08:28:50.091Z</time></trkpt><trkpt lat="45.8265228" lon="13.0687233"><ele>6.0</ele><time>2026-04-25T08:28:51.113Z</time></trkpt><trkpt lat="45.8265809" lon="13.0690999"><ele>5.0</ele><time>2026-04-25T08:28:52.108Z</time></trkpt><trkpt lat="45.8266357" lon="13.0694807"><ele>4.0</ele><time>2026-04-25T08:28:53.105Z</time></trkpt><trkpt lat="45.8266895" lon="13.0698547"><ele>4.0</ele><time>2026-04-25T08:28:54.102Z</time></trkpt><trkpt lat="45.8267447" lon="13.0702259"><ele>4.0</ele><time>2026-04-25T08:28:55.102Z</time></trkpt><trkpt lat="45.8267968" lon="13.0705952"><ele>4.0</ele><time>2026-04-25T08:28:56.097Z</time></trkpt><trkpt lat="45.8268472" lon="13.0709582"><ele>4.0</ele><time>2026-04-25T08:28:57.112Z</time></trkpt><trkpt lat="45.8269006" lon="13.0713223"><ele>4.0</ele><time>2026-04-25T08:28:58.09Z</time></trkpt><trkpt lat="45.8269494" lon="13.0716915"><ele>4.0</ele><time>2026-04-25T08:28:59.106Z</time></trkpt><trkpt lat="45.8269967" lon="13.0720642"><ele>4.0</ele><time>2026-04-25T08:29:00.095Z</time></trkpt><trkpt lat="45.8270412" lon="13.0724396"><ele>4.0</ele><time>2026-04-25T08:29:01.096Z</time></trkpt><trkpt lat="45.827087" lon="13.0728202"><ele>4.0</ele><time>2026-04-25T08:29:02.109Z</time></trkpt><trkpt lat="45.8271381" lon="13.0731971"><ele>4.0</ele><time>2026-04-25T08:29:03.109Z</time></trkpt><trkpt lat="45.8271892" lon="13.0735673"><ele>4.0</ele><time>2026-04-25T08:29:04.104Z</time></trkpt><trkpt lat="45.8272433" lon="13.0739378"><ele>4.0</ele><time>2026-04-25T08:29:05.106Z</time></trkpt><trkpt lat="45.8272958" lon="13.0743094"><ele>4.0</ele><time>2026-04-25T08:29:06.097Z</time></trkpt><trkpt lat="45.8273446" lon="13.0746806"><ele>4.0</ele><time>2026-04-25T08:29:07.105Z</time></trkpt><trkpt lat="45.8273971" lon="13.0750511"><ele>4.0</ele><time>2026-04-25T08:29:08.109Z</time></trkpt><trkpt lat="45.82745" lon="13.0754183"><ele>4.0</ele><time>2026-04-25T08:29:09.11Z</time></trkpt><trkpt lat="45.8275053" lon="13.0757961"><ele>4.5</ele><time>2026-04-25T08:29:10.095Z</time></trkpt><trkpt lat="45.8275611" lon="13.0761699"><ele>5.0</ele><time>2026-04-25T08:29:11.102Z</time></trkpt><trkpt lat="45.8276162" lon="13.0765513"><ele>4.0</ele><time>2026-04-25T08:29:12.1Z</time></trkpt><trkpt lat="45.827668" lon="13.0769303"><ele>3.0</ele><time>2026-04-25T08:29:13.109Z</time></trkpt><trkpt lat="45.8277194" lon="13.0773085"><ele>2.0</ele><time>2026-04-25T08:29:14.119Z</time></trkpt><trkpt lat="45.8277719" lon="13.0776902"><ele>1.0</ele><time>2026-04-25T08:29:15.104Z</time></trkpt><trkpt lat="45.827826" lon="13.078072"><ele>0.5</ele><time>2026-04-25T08:29:16.097Z</time></trkpt><trkpt lat="45.827883" lon="13.0784585"><ele>0.0</ele><time>2026-04-25T08:29:17.101Z</time></trkpt><trkpt lat="45.8279409" lon="13.0788423"><ele>0.0</ele><time>2026-04-25T08:29:18.111Z</time></trkpt><trkpt lat="45.8279988" lon="13.0792303"><ele>0.0</ele><time>2026-04-25T08:29:19.112Z</time></trkpt><trkpt lat="45.8280526" lon="13.0796121"><ele>1.0</ele><time>2026-04-25T08:29:20.1Z</time></trkpt><trkpt lat="45.8281076" lon="13.0799894"><ele>2.0</ele><time>2026-04-25T08:29:21.103Z</time></trkpt><trkpt lat="45.8281632" lon="13.0803648"><ele>2.0</ele><time>2026-04-25T08:29:22.103Z</time></trkpt><trkpt lat="45.8282206" lon="13.080747"><ele>2.0</ele><time>2026-04-25T08:29:23.109Z</time></trkpt><trkpt lat="45.8282778" lon="13.0811271"><ele>2.5</ele><time>2026-04-25T08:29:24.114Z</time></trkpt><trkpt lat="45.8283358" lon="13.0814993"><ele>3.0</ele><time>2026-04-25T08:29:25.102Z</time></trkpt><trkpt lat="45.8283948" lon="13.081866"><ele>3.5</ele><time>2026-04-25T08:29:26.108Z</time></trkpt><trkpt lat="45.8284531" lon="13.082237"><ele>4.0</ele><time>2026-04-25T08:29:27.099Z</time></trkpt><trkpt lat="45.8285091" lon="13.0826165"><ele>3.0</ele><time>2026-04-25T08:29:28.11Z</time></trkpt><trkpt lat="45.8285601" lon="13.0829867"><ele>2.0</ele><time>2026-04-25T08:29:29.099Z</time></trkpt><trkpt lat="45.8286107" lon="13.0833583"><ele>2.0</ele><time>2026-04-25T08:29:30.102Z</time></trkpt><trkpt lat="45.8286612" lon="13.0837313"><ele>2.0</ele><time>2026-04-25T08:29:31.098Z</time></trkpt><trkpt lat="45.8287123" lon="13.0840943"><ele>2.0</ele><time>2026-04-25T08:29:32.101Z</time></trkpt><trkpt lat="45.8287666" lon="13.0844573"><ele>2.0</ele><time>2026-04-25T08:29:33.12Z</time></trkpt><trkpt lat="45.8288215" lon="13.0848213"><ele>2.0</ele><time>2026-04-25T08:29:34.113Z</time></trkpt><trkpt lat="45.828874" lon="13.0851786"><ele>2.0</ele><time>2026-04-25T08:29:35.104Z</time></trkpt><trkpt lat="45.8289266" lon="13.085537"><ele>3.0</ele><time>2026-04-25T08:29:36.105Z</time></trkpt><trkpt lat="45.828982" lon="13.0858946"><ele>4.0</ele><time>2026-04-25T08:29:37.111Z</time></trkpt><trkpt lat="45.8290389" lon="13.0862617"><ele>3.5</ele><time>2026-04-25T08:29:38.1Z</time></trkpt><trkpt lat="45.8290939" lon="13.0866295"><ele>3.0</ele><time>2026-04-25T08:29:39.104Z</time></trkpt><trkpt lat="45.8291485" lon="13.0870037"><ele>3.0</ele><time>2026-04-25T08:29:40.103Z</time></trkpt><trkpt lat="45.8291961" lon="13.0873708"><ele>3.0</ele><time>2026-04-25T08:29:41.107Z</time></trkpt><trkpt lat="45.8292459" lon="13.0877401"><ele>2.5</ele><time>2026-04-25T08:29:42.11Z</time></trkpt><trkpt lat="45.8292979" lon="13.0881017"><ele>2.0</ele><time>2026-04-25T08:29:43.099Z</time></trkpt><trkpt lat="45.829349" lon="13.0884646"><ele>2.0</ele><time>2026-04-25T08:29:44.101Z</time></trkpt><trkpt lat="45.8294037" lon="13.0888283"><ele>2.0</ele><time>2026-04-25T08:29:45.11Z</time></trkpt><trkpt lat="45.8294561" lon="13.0891874"><ele>2.0</ele><time>2026-04-25T08:29:46.105Z</time></trkpt><trkpt lat="45.8295117" lon="13.0895537"><ele>2.0</ele><time>2026-04-25T08:29:47.106Z</time></trkpt><trkpt lat="45.829565" lon="13.0899163"><ele>2.0</ele><time>2026-04-25T08:29:48.107Z</time></trkpt><trkpt lat="45.8296176" lon="13.0902789"><ele>2.0</ele><time>2026-04-25T08:29:49.097Z</time></trkpt><trkpt lat="45.8296671" lon="13.0906359"><ele>2.0</ele><time>2026-04-25T08:29:50.112Z</time></trkpt><trkpt lat="45.8297163" lon="13.0909994"><ele>2.0</ele><time>2026-04-25T08:29:51.105Z</time></trkpt><trkpt lat="45.8297651" lon="13.0913574"><ele>2.0</ele><time>2026-04-25T08:29:52.107Z</time></trkpt><trkpt lat="45.8298181" lon="13.0917106"><ele>2.0</ele><time>2026-04-25T08:29:53.116Z</time></trkpt><trkpt lat="45.8298732" lon="13.0920722"><ele>2.0</ele><time>2026-04-25T08:29:54.11Z</time></trkpt><trkpt lat="45.8299227" lon="13.0924265"><ele>2.0</ele><time>2026-04-25T08:29:55.107Z</time></trkpt><trkpt lat="45.8299712" lon="13.0927898"><ele>2.0</ele><time>2026-04-25T08:29:56.103Z</time></trkpt><trkpt lat="45.8300211" lon="13.0931556"><ele>2.0</ele><time>2026-04-25T08:29:57.119Z</time></trkpt><trkpt lat="45.8300688" lon="13.0935115"><ele>2.0</ele><time>2026-04-25T08:29:58.11Z</time></trkpt><trkpt lat="45.830119" lon="13.0938727"><ele>2.0</ele><time>2026-04-25T08:29:59.107Z</time></trkpt><trkpt lat="45.830176" lon="13.094236"><ele>2.0</ele><time>2026-04-25T08:30:00.121Z</time></trkpt><trkpt lat="45.8302308" lon="13.0945971"><ele>2.0</ele><time>2026-04-25T08:30:01.116Z</time></trkpt><trkpt lat="45.8302841" lon="13.0949558"><ele>2.0</ele><time>2026-04-25T08:30:02.116Z</time></trkpt><trkpt lat="45.8303373" lon="13.0953199"><ele>2.0</ele><time>2026-04-25T08:30:03.125Z</time></trkpt><trkpt lat="45.8303907" lon="13.0956851"><ele>2.5</ele><time>2026-04-25T08:30:04.126Z</time></trkpt><trkpt lat="45.8304432" lon="13.0960528"><ele>3.0</ele><time>2026-04-25T08:30:05.121Z</time></trkpt><trkpt lat="45.8304941" lon="13.0964199"><ele>3.0</ele><time>2026-04-25T08:30:06.115Z</time></trkpt><trkpt lat="45.8305491" lon="13.0967811"><ele>3.0</ele><time>2026-04-25T08:30:07.107Z</time></trkpt><trkpt lat="45.8306026" lon="13.0971416"><ele>4.0</ele><time>2026-04-25T08:30:08.123Z</time></trkpt><trkpt lat="45.8306593" lon="13.097504"><ele>5.0</ele><time>2026-04-25T08:30:09.122Z</time></trkpt><trkpt lat="45.830716" lon="13.0978674"><ele>5.0</ele><time>2026-04-25T08:30:10.119Z</time></trkpt><trkpt lat="45.8307709" lon="13.0982321"><ele>5.0</ele><time>2026-04-25T08:30:11.114Z</time></trkpt><trkpt lat="45.830826" lon="13.0986004"><ele>5.5</ele><time>2026-04-25T08:30:12.11Z</time></trkpt><trkpt lat="45.8308809" lon="13.0989748"><ele>6.0</ele><time>2026-04-25T08:30:13.108Z</time></trkpt><trkpt lat="45.8309361" lon="13.0993456"><ele>6.0</ele><time>2026-04-25T08:30:14.122Z</time></trkpt><trkpt lat="45.8309902" lon="13.0997197"><ele>6.0</ele><time>2026-04-25T08:30:15.112Z</time></trkpt><trkpt lat="45.8310377" lon="13.1000944"><ele>6.0</ele><time>2026-04-25T08:30:16.103Z</time></trkpt><trkpt lat="45.8310906" lon="13.1004684"><ele>6.0</ele><time>2026-04-25T08:30:17.109Z</time></trkpt><trkpt lat="45.8311462" lon="13.1008444"><ele>6.0</ele><time>2026-04-25T08:30:18.113Z</time></trkpt><trkpt lat="45.8312029" lon="13.1012211"><ele>6.0</ele><time>2026-04-25T08:30:19.122Z</time></trkpt><trkpt lat="45.8312556" lon="13.1015946"><ele>6.0</ele><time>2026-04-25T08:30:20.096Z</time></trkpt><trkpt lat="45.8313097" lon="13.1019752"><ele>6.0</ele><time>2026-04-25T08:30:21.111Z</time></trkpt><trkpt lat="45.8313699" lon="13.1023494"><ele>6.0</ele><time>2026-04-25T08:30:22.112Z</time></trkpt><trkpt lat="45.831428" lon="13.1027245"><ele>6.0</ele><time>2026-04-25T08:30:23.107Z</time></trkpt><trkpt lat="45.8314804" lon="13.1030989"><ele>6.0</ele><time>2026-04-25T08:30:24.111Z</time></trkpt><trkpt lat="45.8315326" lon="13.10347"><ele>6.0</ele><time>2026-04-25T08:30:25.106Z</time></trkpt><trkpt lat="45.8315832" lon="13.1038401"><ele>6.0</ele><time>2026-04-25T08:30:26.114Z</time></trkpt><trkpt lat="45.8316357" lon="13.1042066"><ele>6.0</ele><time>2026-04-25T08:30:27.113Z</time></trkpt><trkpt lat="45.8316951" lon="13.1045732"><ele>6.0</ele><time>2026-04-25T08:30:28.122Z</time></trkpt><trkpt lat="45.8317583" lon="13.1049345"><ele>6.0</ele><time>2026-04-25T08:30:29.112Z</time></trkpt><trkpt lat="45.8318308" lon="13.1053002"><ele>6.0</ele><time>2026-04-25T08:30:30.119Z</time></trkpt><trkpt lat="45.8319056" lon="13.1056606"><ele>6.0</ele><time>2026-04-25T08:30:31.101Z</time></trkpt><trkpt lat="45.8319779" lon="13.1060319"><ele>6.0</ele><time>2026-04-25T08:30:32.111Z</time></trkpt><trkpt lat="45.8320498" lon="13.1064071"><ele>6.0</ele><time>2026-04-25T08:30:33.116Z</time></trkpt><trkpt lat="45.8321199" lon="13.1067796"><ele>6.5</ele><time>2026-04-25T08:30:34.106Z</time></trkpt><trkpt lat="45.8321895" lon="13.1071546"><ele>7.0</ele><time>2026-04-25T08:30:35.109Z</time></trkpt><trkpt lat="45.8322607" lon="13.1075268"><ele>6.0</ele><time>2026-04-25T08:30:36.112Z</time></trkpt><trkpt lat="45.8323322" lon="13.1079004"><ele>5.0</ele><time>2026-04-25T08:30:37.109Z</time></trkpt><trkpt lat="45.8324041" lon="13.1082728"><ele>4.5</ele><time>2026-04-25T08:30:38.109Z</time></trkpt><trkpt lat="45.8324769" lon="13.1086451"><ele>4.0</ele><time>2026-04-25T08:30:39.115Z</time></trkpt><trkpt lat="45.8325466" lon="13.1090165"><ele>4.0</ele><time>2026-04-25T08:30:40.116Z</time></trkpt><trkpt lat="45.8326197" lon="13.109385"><ele>4.0</ele><time>2026-04-25T08:30:41.111Z</time></trkpt><trkpt lat="45.8326941" lon="13.1097536"><ele>4.5</ele><time>2026-04-25T08:30:42.105Z</time></trkpt><trkpt lat="45.8327704" lon="13.1101168"><ele>5.0</ele><time>2026-04-25T08:30:43.109Z</time></trkpt><trkpt lat="45.8328483" lon="13.1104743"><ele>5.0</ele><time>2026-04-25T08:30:44.106Z</time></trkpt><trkpt lat="45.8329309" lon="13.1108244"><ele>5.0</ele><time>2026-04-25T08:30:45.101Z</time></trkpt><trkpt lat="45.8330158" lon="13.1111771"><ele>5.0</ele><time>2026-04-25T08:30:46.116Z</time></trkpt><trkpt lat="45.8330991" lon="13.1115263"><ele>5.0</ele><time>2026-04-25T08:30:47.109Z</time></trkpt><trkpt lat="45.8331853" lon="13.1118763"><ele>5.5</ele><time>2026-04-25T08:30:48.117Z</time></trkpt><trkpt lat="45.8332716" lon="13.1122216"><ele>6.0</ele><time>2026-04-25T08:30:49.109Z</time></trkpt><trkpt lat="45.8333622" lon="13.1125641"><ele>6.5</ele><time>2026-04-25T08:30:50.112Z</time></trkpt><trkpt lat="45.8334537" lon="13.1129074"><ele>7.0</ele><time>2026-04-25T08:30:51.113Z</time></trkpt><trkpt lat="45.8335451" lon="13.1132476"><ele>6.0</ele><time>2026-04-25T08:30:52.121Z</time></trkpt><trkpt lat="45.8336378" lon="13.1135827"><ele>5.0</ele><time>2026-04-25T08:30:53.104Z</time></trkpt><trkpt lat="45.8337342" lon="13.113927"><ele>6.0</ele><time>2026-04-25T08:30:54.121Z</time></trkpt><trkpt lat="45.8338279" lon="13.1142663"><ele>7.0</ele><time>2026-04-25T08:30:55.103Z</time></trkpt><trkpt lat="45.8339206" lon="13.11461"><ele>7.0</ele><time>2026-04-25T08:30:56.114Z</time></trkpt><trkpt lat="45.8340155" lon="13.1149453"><ele>7.0</ele><time>2026-04-25T08:30:57.11Z</time></trkpt><trkpt lat="45.8341111" lon="13.1152809"><ele>7.0</ele><time>2026-04-25T08:30:58.117Z</time></trkpt><trkpt lat="45.8342108" lon="13.1156158"><ele>7.0</ele><time>2026-04-25T08:30:59.116Z</time></trkpt><trkpt lat="45.8343151" lon="13.1159499"><ele>6.5</ele><time>2026-04-25T08:31:00.113Z</time></trkpt><trkpt lat="45.8344206" lon="13.1162785"><ele>6.0</ele><time>2026-04-25T08:31:01.104Z</time></trkpt><trkpt lat="45.8345234" lon="13.1166075"><ele>7.0</ele><time>2026-04-25T08:31:02.109Z</time></trkpt><trkpt lat="45.8346289" lon="13.1169365"><ele>8.0</ele><time>2026-04-25T08:31:03.114Z</time></trkpt><trkpt lat="45.8347376" lon="13.1172662"><ele>8.0</ele><time>2026-04-25T08:31:04.113Z</time></trkpt><trkpt lat="45.8348441" lon="13.1175987"><ele>8.0</ele><time>2026-04-25T08:31:05.12Z</time></trkpt><trkpt lat="45.8349471" lon="13.1179366"><ele>7.5</ele><time>2026-04-25T08:31:06.102Z</time></trkpt><trkpt lat="45.8350566" lon="13.1182637"><ele>7.0</ele><time>2026-04-25T08:31:07.111Z</time></trkpt><trkpt lat="45.8351633" lon="13.118592"><ele>6.5</ele><time>2026-04-25T08:31:08.097Z</time></trkpt><trkpt lat="45.835271" lon="13.1189185"><ele>6.0</ele><time>2026-04-25T08:31:09.11Z</time></trkpt><trkpt lat="45.8353743" lon="13.1192422"><ele>6.0</ele><time>2026-04-25T08:31:10.126Z</time></trkpt><trkpt lat="45.8354791" lon="13.11957"><ele>6.0</ele><time>2026-04-25T08:31:11.107Z</time></trkpt><trkpt lat="45.8355853" lon="13.1199028"><ele>6.0</ele><time>2026-04-25T08:31:12.108Z</time></trkpt><trkpt lat="45.8356929" lon="13.1202279"><ele>6.0</ele><time>2026-04-25T08:31:13.116Z</time></trkpt><trkpt lat="45.8358013" lon="13.1205526"><ele>6.0</ele><time>2026-04-25T08:31:14.104Z</time></trkpt><trkpt lat="45.8359082" lon="13.120879"><ele>6.0</ele><time>2026-04-25T08:31:15.117Z</time></trkpt><trkpt lat="45.8360139" lon="13.1212062"><ele>6.0</ele><time>2026-04-25T08:31:16.103Z</time></trkpt><trkpt lat="45.8361197" lon="13.1215336"><ele>6.0</ele><time>2026-04-25T08:31:17.107Z</time></trkpt><trkpt lat="45.8362265" lon="13.121864"><ele>6.5</ele><time>2026-04-25T08:31:18.097Z</time></trkpt><trkpt lat="45.8363313" lon="13.1221888"><ele>7.0</ele><time>2026-04-25T08:31:19.1Z</time></trkpt><trkpt lat="45.8364372" lon="13.1225136"><ele>7.0</ele><time>2026-04-25T08:31:20.105Z</time></trkpt><trkpt lat="45.8365445" lon="13.1228354"><ele>7.0</ele><time>2026-04-25T08:31:21.104Z</time></trkpt><trkpt lat="45.8366552" lon="13.1231544"><ele>7.0</ele><time>2026-04-25T08:31:22.111Z</time></trkpt><trkpt lat="45.8367648" lon="13.123482"><ele>7.0</ele><time>2026-04-25T08:31:23.106Z</time></trkpt><trkpt lat="45.8368741" lon="13.1238133"><ele>7.5</ele><time>2026-04-25T08:31:24.115Z</time></trkpt><trkpt lat="45.8369821" lon="13.1241508"><ele>8.0</ele><time>2026-04-25T08:31:25.103Z</time></trkpt><trkpt lat="45.8370903" lon="13.1244848"><ele>8.0</ele><time>2026-04-25T08:31:26.108Z</time></trkpt><trkpt lat="45.837202" lon="13.1248208"><ele>8.0</ele><time>2026-04-25T08:31:27.115Z</time></trkpt><trkpt lat="45.8373051" lon="13.1251514"><ele>7.5</ele><time>2026-04-25T08:31:28.118Z</time></trkpt><trkpt lat="45.8374141" lon="13.1254885"><ele>7.0</ele><time>2026-04-25T08:31:29.117Z</time></trkpt><trkpt lat="45.8375245" lon="13.1258171"><ele>7.0</ele><time>2026-04-25T08:31:30.104Z</time></trkpt><trkpt lat="45.8376335" lon="13.126154"><ele>7.0</ele><time>2026-04-25T08:31:31.115Z</time></trkpt><trkpt lat="45.8377445" lon="13.1264874"><ele>8.0</ele><time>2026-04-25T08:31:32.107Z</time></trkpt><trkpt lat="45.8378547" lon="13.1268173"><ele>9.0</ele><time>2026-04-25T08:31:33.11Z</time></trkpt><trkpt lat="45.8379632" lon="13.1271488"><ele>8.0</ele><time>2026-04-25T08:31:34.098Z</time></trkpt><trkpt lat="45.8380707" lon="13.1274758"><ele>7.0</ele><time>2026-04-25T08:31:35.107Z</time></trkpt><trkpt lat="45.838178" lon="13.1278004"><ele>7.0</ele><time>2026-04-25T08:31:36.113Z</time></trkpt><trkpt lat="45.8382857" lon="13.128125"><ele>7.0</ele><time>2026-04-25T08:31:37.1Z</time></trkpt><trkpt lat="45.8383922" lon="13.1284482"><ele>8.0</ele><time>2026-04-25T08:31:38.105Z</time></trkpt><trkpt lat="45.838493" lon="13.1287684"><ele>9.0</ele><time>2026-04-25T08:31:39.098Z</time></trkpt><trkpt lat="45.8385989" lon="13.1290893"><ele>9.0</ele><time>2026-04-25T08:31:40.105Z</time></trkpt><trkpt lat="45.8387025" lon="13.1294052"><ele>9.0</ele><time>2026-04-25T08:31:41.11Z</time></trkpt><trkpt lat="45.8388104" lon="13.1297245"><ele>8.0</ele><time>2026-04-25T08:31:42.098Z</time></trkpt><trkpt lat="45.8389138" lon="13.1300445"><ele>7.0</ele><time>2026-04-25T08:31:43.098Z</time></trkpt><trkpt lat="45.8390136" lon="13.1303675"><ele>7.0</ele><time>2026-04-25T08:31:44.102Z</time></trkpt><trkpt lat="45.8391169" lon="13.1306901"><ele>7.0</ele><time>2026-04-25T08:31:45.103Z</time></trkpt><trkpt lat="45.839225" lon="13.131016"><ele>7.5</ele><time>2026-04-25T08:31:46.098Z</time></trkpt><trkpt lat="45.8393319" lon="13.1313416"><ele>8.0</ele><time>2026-04-25T08:31:47.096Z</time></trkpt><trkpt lat="45.8394414" lon="13.1316633"><ele>8.0</ele><time>2026-04-25T08:31:48.101Z</time></trkpt><trkpt lat="45.8395457" lon="13.131992"><ele>8.0</ele><time>2026-04-25T08:31:49.109Z</time></trkpt><trkpt lat="45.8396469" lon="13.1323164"><ele>8.0</ele><time>2026-04-25T08:31:50.104Z</time></trkpt><trkpt lat="45.8397544" lon="13.1326381"><ele>8.0</ele><time>2026-04-25T08:31:51.104Z</time></trkpt><trkpt lat="45.83986" lon="13.132964"><ele>8.0</ele><time>2026-04-25T08:31:52.096Z</time></trkpt><trkpt lat="45.8399669" lon="13.1332921"><ele>8.0</ele><time>2026-04-25T08:31:53.106Z</time></trkpt><trkpt lat="45.840073" lon="13.1336222"><ele>9.0</ele><time>2026-04-25T08:31:54.114Z</time></trkpt><trkpt lat="45.8401801" lon="13.133951"><ele>10.0</ele><time>2026-04-25T08:31:55.106Z</time></trkpt><trkpt lat="45.8402852" lon="13.1342823"><ele>10.0</ele><time>2026-04-25T08:31:56.106Z</time></trkpt><trkpt lat="45.840394" lon="13.1346091"><ele>10.0</ele><time>2026-04-25T08:31:57.104Z</time></trkpt><trkpt lat="45.8405008" lon="13.1349429"><ele>10.0</ele><time>2026-04-25T08:31:58.116Z</time></trkpt><trkpt lat="45.84061" lon="13.1352729"><ele>10.0</ele><time>2026-04-25T08:31:59.116Z</time></trkpt><trkpt lat="45.8407218" lon="13.1356074"><ele>9.0</ele><time>2026-04-25T08:32:00.101Z</time></trkpt><trkpt lat="45.8408323" lon="13.1359465"><ele>8.0</ele><time>2026-04-25T08:32:01.111Z</time></trkpt><trkpt lat="45.8409398" lon="13.1362775"><ele>7.5</ele><time>2026-04-25T08:32:02.103Z</time></trkpt><trkpt lat="45.8410463" lon="13.1366135"><ele>7.0</ele><time>2026-04-25T08:32:03.107Z</time></trkpt><trkpt lat="45.8411557" lon="13.1369499"><ele>7.0</ele><time>2026-04-25T08:32:04.115Z</time></trkpt><trkpt lat="45.8412675" lon="13.1372854"><ele>7.0</ele><time>2026-04-25T08:32:05.109Z</time></trkpt><trkpt lat="45.8413765" lon="13.1376198"><ele>7.5</ele><time>2026-04-25T08:32:06.111Z</time></trkpt><trkpt lat="45.8414907" lon="13.1379566"><ele>8.0</ele><time>2026-04-25T08:32:07.108Z</time></trkpt><trkpt lat="45.841599" lon="13.1382912"><ele>8.0</ele><time>2026-04-25T08:32:08.105Z</time></trkpt><trkpt lat="45.8417095" lon="13.1386238"><ele>8.0</ele><time>2026-04-25T08:32:09.111Z</time></trkpt><trkpt lat="45.8418175" lon="13.1389558"><ele>8.0</ele><time>2026-04-25T08:32:10.093Z</time></trkpt><trkpt lat="45.8419265" lon="13.1392846"><ele>8.0</ele><time>2026-04-25T08:32:11.11Z</time></trkpt><trkpt lat="45.8420335" lon="13.1396212"><ele>7.0</ele><time>2026-04-25T08:32:12.099Z</time></trkpt><trkpt lat="45.8421379" lon="13.1399545"><ele>6.0</ele><time>2026-04-25T08:32:13.102Z</time></trkpt><trkpt lat="45.8422444" lon="13.1402828"><ele>6.0</ele><time>2026-04-25T08:32:14.102Z</time></trkpt><trkpt lat="45.8423549" lon="13.1406132"><ele>6.0</ele><time>2026-04-25T08:32:15.1Z</time></trkpt><trkpt lat="45.8424664" lon="13.1409383"><ele>6.0</ele><time>2026-04-25T08:32:16.098Z</time></trkpt><trkpt lat="45.8425788" lon="13.1412682"><ele>6.0</ele><time>2026-04-25T08:32:17.092Z</time></trkpt><trkpt lat="45.8426877" lon="13.1415963"><ele>6.5</ele><time>2026-04-25T08:32:18.112Z</time></trkpt><trkpt lat="45.8427965" lon="13.1419261"><ele>7.0</ele><time>2026-04-25T08:32:19.105Z</time></trkpt><trkpt lat="45.8429018" lon="13.142248"><ele>7.0</ele><time>2026-04-25T08:32:20.107Z</time></trkpt><trkpt lat="45.8430076" lon="13.1425751"><ele>7.0</ele><time>2026-04-25T08:32:21.103Z</time></trkpt><trkpt lat="45.8431155" lon="13.1429035"><ele>6.0</ele><time>2026-04-25T08:32:22.108Z</time></trkpt><trkpt lat="45.8432249" lon="13.1432343"><ele>5.0</ele><time>2026-04-25T08:32:23.104Z</time></trkpt><trkpt lat="45.8433335" lon="13.1435618"><ele>5.0</ele><time>2026-04-25T08:32:24.104Z</time></trkpt><trkpt lat="45.8434402" lon="13.1438932"><ele>5.0</ele><time>2026-04-25T08:32:25.113Z</time></trkpt><trkpt lat="45.8435448" lon="13.1442255"><ele>5.5</ele><time>2026-04-25T08:32:26.103Z</time></trkpt><trkpt lat="45.8436531" lon="13.1445566"><ele>6.0</ele><time>2026-04-25T08:32:27.115Z</time></trkpt><trkpt lat="45.8437613" lon="13.144889"><ele>6.0</ele><time>2026-04-25T08:32:28.103Z</time></trkpt><trkpt lat="45.8438719" lon="13.145218"><ele>6.0</ele><time>2026-04-25T08:32:29.103Z</time></trkpt><trkpt lat="45.8439778" lon="13.1455495"><ele>6.5</ele><time>2026-04-25T08:32:30.112Z</time></trkpt><trkpt lat="45.8440805" lon="13.1458775"><ele>7.0</ele><time>2026-04-25T08:32:31.108Z</time></trkpt><trkpt lat="45.8441883" lon="13.1462067"><ele>7.5</ele><time>2026-04-25T08:32:32.103Z</time></trkpt><trkpt lat="45.8442985" lon="13.1465312"><ele>8.0</ele><time>2026-04-25T08:32:33.105Z</time></trkpt><trkpt lat="45.844409" lon="13.1468566"><ele>8.0</ele><time>2026-04-25T08:32:34.11Z</time></trkpt><trkpt lat="45.8445217" lon="13.147189"><ele>8.0</ele><time>2026-04-25T08:32:35.118Z</time></trkpt><trkpt lat="45.8446292" lon="13.1475225"><ele>7.5</ele><time>2026-04-25T08:32:36.104Z</time></trkpt><trkpt lat="45.8447381" lon="13.1478552"><ele>7.0</ele><time>2026-04-25T08:32:37.113Z</time></trkpt><trkpt lat="45.8448452" lon="13.1481872"><ele>7.0</ele><time>2026-04-25T08:32:38.113Z</time></trkpt><trkpt lat="45.8449527" lon="13.1485158"><ele>7.0</ele><time>2026-04-25T08:32:39.112Z</time></trkpt><trkpt lat="45.8450605" lon="13.1488495"><ele>7.0</ele><time>2026-04-25T08:32:40.108Z</time></trkpt><trkpt lat="45.8451695" lon="13.1491832"><ele>7.0</ele><time>2026-04-25T08:32:41.1Z</time></trkpt><trkpt lat="45.8452725" lon="13.1495108"><ele>7.0</ele><time>2026-04-25T08:32:42.108Z</time></trkpt><trkpt lat="45.8453755" lon="13.1498367"><ele>7.0</ele><time>2026-04-25T08:32:43.105Z</time></trkpt><trkpt lat="45.8454822" lon="13.1501644"><ele>7.0</ele><time>2026-04-25T08:32:44.108Z</time></trkpt><trkpt lat="45.8455865" lon="13.1504874"><ele>7.0</ele><time>2026-04-25T08:32:45.098Z</time></trkpt><trkpt lat="45.8456908" lon="13.1508157"><ele>8.5</ele><time>2026-04-25T08:32:46.105Z</time></trkpt><trkpt lat="45.845796" lon="13.151142"><ele>10.0</ele><time>2026-04-25T08:32:47.103Z</time></trkpt><trkpt lat="45.8459064" lon="13.1514718"><ele>8.5</ele><time>2026-04-25T08:32:48.101Z</time></trkpt><trkpt lat="45.8460144" lon="13.1517982"><ele>7.0</ele><time>2026-04-25T08:32:49.104Z</time></trkpt><trkpt lat="45.8461236" lon="13.1521291"><ele>6.5</ele><time>2026-04-25T08:32:50.105Z</time></trkpt><trkpt lat="45.8462355" lon="13.1524586"><ele>6.0</ele><time>2026-04-25T08:32:51.113Z</time></trkpt><trkpt lat="45.8463443" lon="13.1527915"><ele>6.0</ele><time>2026-04-25T08:32:52.107Z</time></trkpt><trkpt lat="45.8464545" lon="13.1531293"><ele>6.0</ele><time>2026-04-25T08:32:53.105Z</time></trkpt><trkpt lat="45.846564" lon="13.1534656"><ele>6.0</ele><time>2026-04-25T08:32:54.105Z</time></trkpt><trkpt lat="45.846674" lon="13.1537983"><ele>6.0</ele><time>2026-04-25T08:32:55.105Z</time></trkpt><trkpt lat="45.8467847" lon="13.1541368"><ele>6.5</ele><time>2026-04-25T08:32:56.099Z</time></trkpt><trkpt lat="45.8468988" lon="13.1544723"><ele>7.0</ele><time>2026-04-25T08:32:57.114Z</time></trkpt><trkpt lat="45.8470124" lon="13.1548156"><ele>7.5</ele><time>2026-04-25T08:32:58.094Z</time></trkpt><trkpt lat="45.8471241" lon="13.1551542"><ele>8.0</ele><time>2026-04-25T08:32:59.101Z</time></trkpt><trkpt lat="45.8472369" lon="13.1554953"><ele>7.5</ele><time>2026-04-25T08:33:00.1Z</time></trkpt><trkpt lat="45.8473489" lon="13.1558393"><ele>7.0</ele><time>2026-04-25T08:33:01.103Z</time></trkpt><trkpt lat="45.847457" lon="13.1561848"><ele>7.0</ele><time>2026-04-25T08:33:02.104Z</time></trkpt><trkpt lat="45.8475681" lon="13.1565275"><ele>7.0</ele><time>2026-04-25T08:33:03.106Z</time></trkpt><trkpt lat="45.8476779" lon="13.1568734"><ele>6.5</ele><time>2026-04-25T08:33:04.107Z</time></trkpt><trkpt lat="45.8477907" lon="13.1572101"><ele>6.0</ele><time>2026-04-25T08:33:05.097Z</time></trkpt><trkpt lat="45.8479022" lon="13.1575422"><ele>6.0</ele><time>2026-04-25T08:33:06.106Z</time></trkpt><trkpt lat="45.8480159" lon="13.1578839"><ele>6.0</ele><time>2026-04-25T08:33:07.103Z</time></trkpt><trkpt lat="45.8481265" lon="13.1582144"><ele>6.0</ele><time>2026-04-25T08:33:08.11Z</time></trkpt><trkpt lat="45.8482401" lon="13.1585521"><ele>6.0</ele><time>2026-04-25T08:33:09.112Z</time></trkpt><trkpt lat="45.8483494" lon="13.1588894"><ele>6.0</ele><time>2026-04-25T08:33:10.11Z</time></trkpt><trkpt lat="45.8484596" lon="13.1592248"><ele>6.0</ele><time>2026-04-25T08:33:11.099Z</time></trkpt><trkpt lat="45.8485684" lon="13.1595674"><ele>7.0</ele><time>2026-04-25T08:33:12.101Z</time></trkpt><trkpt lat="45.848675" lon="13.1599021"><ele>8.0</ele><time>2026-04-25T08:33:13.103Z</time></trkpt><trkpt lat="45.8487809" lon="13.160239"><ele>8.0</ele><time>2026-04-25T08:33:14.115Z</time></trkpt><trkpt lat="45.8488903" lon="13.1605706"><ele>8.0</ele><time>2026-04-25T08:33:15.103Z</time></trkpt><trkpt lat="45.8490004" lon="13.1609054"><ele>8.5</ele><time>2026-04-25T08:33:16.105Z</time></trkpt><trkpt lat="45.8491107" lon="13.1612411"><ele>9.0</ele><time>2026-04-25T08:33:17.111Z</time></trkpt><trkpt lat="45.8492217" lon="13.1615721"><ele>8.0</ele><time>2026-04-25T08:33:18.108Z</time></trkpt><trkpt lat="45.8493304" lon="13.1619059"><ele>7.0</ele><time>2026-04-25T08:33:19.114Z</time></trkpt><trkpt lat="45.8494364" lon="13.1622377"><ele>8.0</ele><time>2026-04-25T08:33:20.096Z</time></trkpt><trkpt lat="45.849542" lon="13.1625709"><ele>9.0</ele><time>2026-04-25T08:33:21.104Z</time></trkpt><trkpt lat="45.8496457" lon="13.1628949"><ele>9.0</ele><time>2026-04-25T08:33:22.101Z</time></trkpt><trkpt lat="45.8497507" lon="13.1632166"><ele>9.0</ele><time>2026-04-25T08:33:23.101Z</time></trkpt><trkpt lat="45.8498558" lon="13.1635348"><ele>9.0</ele><time>2026-04-25T08:33:24.105Z</time></trkpt><trkpt lat="45.8499633" lon="13.1638605"><ele>9.0</ele><time>2026-04-25T08:33:25.117Z</time></trkpt><trkpt lat="45.8500709" lon="13.1641845"><ele>9.0</ele><time>2026-04-25T08:33:26.105Z</time></trkpt><trkpt lat="45.8501784" lon="13.1645082"><ele>9.0</ele><time>2026-04-25T08:33:27.101Z</time></trkpt><trkpt lat="45.8502878" lon="13.1648389"><ele>9.5</ele><time>2026-04-25T08:33:28.104Z</time></trkpt><trkpt lat="45.8503938" lon="13.1651707"><ele>10.0</ele><time>2026-04-25T08:33:29.102Z</time></trkpt><trkpt lat="45.8505056" lon="13.1655066"><ele>10.5</ele><time>2026-04-25T08:33:30.105Z</time></trkpt><trkpt lat="45.8506172" lon="13.1658368"><ele>11.0</ele><time>2026-04-25T08:33:31.104Z</time></trkpt><trkpt lat="45.8507273" lon="13.1661758"><ele>11.0</ele><time>2026-04-25T08:33:32.104Z</time></trkpt><trkpt lat="45.8508363" lon="13.1665056"><ele>11.0</ele><time>2026-04-25T08:33:33.104Z</time></trkpt><trkpt lat="45.8509463" lon="13.1668426"><ele>9.5</ele><time>2026-04-25T08:33:34.103Z</time></trkpt><trkpt lat="45.8510516" lon="13.1671699"><ele>8.0</ele><time>2026-04-25T08:33:35.105Z</time></trkpt><trkpt lat="45.8511601" lon="13.1674941"><ele>7.5</ele><time>2026-04-25T08:33:36.107Z</time></trkpt><trkpt lat="45.8512627" lon="13.1678154"><ele>7.0</ele><time>2026-04-25T08:33:37.106Z</time></trkpt><trkpt lat="45.8513626" lon="13.1681319"><ele>8.0</ele><time>2026-04-25T08:33:38.109Z</time></trkpt><trkpt lat="45.8514635" lon="13.1684363"><ele>9.0</ele><time>2026-04-25T08:33:39.105Z</time></trkpt><trkpt lat="45.8515593" lon="13.168745"><ele>8.5</ele><time>2026-04-25T08:33:40.1Z</time></trkpt><trkpt lat="45.8516626" lon="13.1690522"><ele>8.0</ele><time>2026-04-25T08:33:41.106Z</time></trkpt><trkpt lat="45.8517553" lon="13.1693647"><ele>9.0</ele><time>2026-04-25T08:33:42.1Z</time></trkpt><trkpt lat="45.8518547" lon="13.169676"><ele>10.0</ele><time>2026-04-25T08:33:43.106Z</time></trkpt><trkpt lat="45.8519516" lon="13.1699838"><ele>10.0</ele><time>2026-04-25T08:33:44.112Z</time></trkpt><trkpt lat="45.8520539" lon="13.1702914"><ele>10.0</ele><time>2026-04-25T08:33:45.112Z</time></trkpt><trkpt lat="45.8521591" lon="13.1706017"><ele>8.5</ele><time>2026-04-25T08:33:46.097Z</time></trkpt><trkpt lat="45.8522608" lon="13.1709082"><ele>7.0</ele><time>2026-04-25T08:33:47.099Z</time></trkpt><trkpt lat="45.8523633" lon="13.171208"><ele>7.0</ele><time>2026-04-25T08:33:48.117Z</time></trkpt><trkpt lat="45.8524674" lon="13.1715143"><ele>7.0</ele><time>2026-04-25T08:33:49.106Z</time></trkpt><trkpt lat="45.8525726" lon="13.1718199"><ele>8.0</ele><time>2026-04-25T08:33:50.109Z</time></trkpt><trkpt lat="45.8526729" lon="13.1721338"><ele>9.0</ele><time>2026-04-25T08:33:51.104Z</time></trkpt><trkpt lat="45.8527746" lon="13.1724604"><ele>9.0</ele><time>2026-04-25T08:33:52.108Z</time></trkpt><trkpt lat="45.8528835" lon="13.1727919"><ele>9.0</ele><time>2026-04-25T08:33:53.111Z</time></trkpt><trkpt lat="45.852987" lon="13.1731304"><ele>8.5</ele><time>2026-04-25T08:33:54.115Z</time></trkpt><trkpt lat="45.8530918" lon="13.1734714"><ele>8.0</ele><time>2026-04-25T08:33:55.108Z</time></trkpt><trkpt lat="45.8531995" lon="13.1738106"><ele>7.0</ele><time>2026-04-25T08:33:56.1Z</time></trkpt><trkpt lat="45.8533051" lon="13.1741504"><ele>6.0</ele><time>2026-04-25T08:33:57.103Z</time></trkpt><trkpt lat="45.85341" lon="13.1744925"><ele>6.0</ele><time>2026-04-25T08:33:58.106Z</time></trkpt><trkpt lat="45.8535162" lon="13.1748328"><ele>6.0</ele><time>2026-04-25T08:33:59.097Z</time></trkpt><trkpt lat="45.8536238" lon="13.1751658"><ele>6.0</ele><time>2026-04-25T08:34:00.107Z</time></trkpt><trkpt lat="45.8537358" lon="13.1755007"><ele>6.0</ele><time>2026-04-25T08:34:01.111Z</time></trkpt><trkpt lat="45.85384" lon="13.1758377"><ele>6.5</ele><time>2026-04-25T08:34:02.097Z</time></trkpt><trkpt lat="45.8539442" lon="13.1761727"><ele>7.0</ele><time>2026-04-25T08:34:03.096Z</time></trkpt><trkpt lat="45.8540475" lon="13.1765141"><ele>7.5</ele><time>2026-04-25T08:34:04.096Z</time></trkpt><trkpt lat="45.8541487" lon="13.1768562"><ele>8.0</ele><time>2026-04-25T08:34:05.103Z</time></trkpt><trkpt lat="45.8542564" lon="13.1771921"><ele>9.0</ele><time>2026-04-25T08:34:06.099Z</time></trkpt><trkpt lat="45.8543564" lon="13.1775333"><ele>10.0</ele><time>2026-04-25T08:34:07.101Z</time></trkpt><trkpt lat="45.8544557" lon="13.1778753"><ele>9.5</ele><time>2026-04-25T08:34:08.109Z</time></trkpt><trkpt lat="45.8545562" lon="13.1782175"><ele>9.0</ele><time>2026-04-25T08:34:09.114Z</time></trkpt><trkpt lat="45.8546588" lon="13.178557"><ele>9.0</ele><time>2026-04-25T08:34:10.102Z</time></trkpt><trkpt lat="45.8547602" lon="13.1788929"><ele>9.0</ele><time>2026-04-25T08:34:11.103Z</time></trkpt><trkpt lat="45.8548629" lon="13.1792241"><ele>8.5</ele><time>2026-04-25T08:34:12.101Z</time></trkpt><trkpt lat="45.8549651" lon="13.1795592"><ele>8.0</ele><time>2026-04-25T08:34:13.102Z</time></trkpt><trkpt lat="45.8550615" lon="13.179901"><ele>7.0</ele><time>2026-04-25T08:34:14.107Z</time></trkpt><trkpt lat="45.8551628" lon="13.1802403"><ele>6.0</ele><time>2026-04-25T08:34:15.109Z</time></trkpt><trkpt lat="45.8552611" lon="13.1805774"><ele>6.0</ele><time>2026-04-25T08:34:16.109Z</time></trkpt><trkpt lat="45.8553618" lon="13.1809136"><ele>6.0</ele><time>2026-04-25T08:34:17.112Z</time></trkpt><trkpt lat="45.8554649" lon="13.1812508"><ele>6.5</ele><time>2026-04-25T08:34:18.115Z</time></trkpt><trkpt lat="45.8555663" lon="13.18159"><ele>7.0</ele><time>2026-04-25T08:34:19.104Z</time></trkpt><trkpt lat="45.8556656" lon="13.1819211"><ele>7.0</ele><time>2026-04-25T08:34:20.108Z</time></trkpt><trkpt lat="45.8557657" lon="13.1822551"><ele>7.0</ele><time>2026-04-25T08:34:21.119Z</time></trkpt><trkpt lat="45.8558681" lon="13.1825933"><ele>8.0</ele><time>2026-04-25T08:34:22.112Z</time></trkpt><trkpt lat="45.855971" lon="13.1829331"><ele>9.0</ele><time>2026-04-25T08:34:23.11Z</time></trkpt><trkpt lat="45.8560793" lon="13.1832739"><ele>9.0</ele><time>2026-04-25T08:34:24.106Z</time></trkpt><trkpt lat="45.8561845" lon="13.183616"><ele>9.0</ele><time>2026-04-25T08:34:25.115Z</time></trkpt><trkpt lat="45.8562937" lon="13.1839605"><ele>8.5</ele><time>2026-04-25T08:34:26.103Z</time></trkpt><trkpt lat="45.8564006" lon="13.1843077"><ele>8.0</ele><time>2026-04-25T08:34:27.108Z</time></trkpt><trkpt lat="45.8565018" lon="13.1846624"><ele>8.0</ele><time>2026-04-25T08:34:28.102Z</time></trkpt><trkpt lat="45.8566064" lon="13.1850121"><ele>8.0</ele><time>2026-04-25T08:34:29.106Z</time></trkpt><trkpt lat="45.8567095" lon="13.185364"><ele>8.0</ele><time>2026-04-25T08:34:30.102Z</time></trkpt><trkpt lat="45.8568112" lon="13.185719"><ele>8.0</ele><time>2026-04-25T08:34:31.103Z</time></trkpt><trkpt lat="45.8569163" lon="13.1860667"><ele>8.0</ele><time>2026-04-25T08:34:32.103Z</time></trkpt><trkpt lat="45.8570214" lon="13.1864149"><ele>8.0</ele><time>2026-04-25T08:34:33.114Z</time></trkpt><trkpt lat="45.8571287" lon="13.1867675"><ele>8.0</ele><time>2026-04-25T08:34:34.107Z</time></trkpt><trkpt lat="45.857234" lon="13.1871183"><ele>8.0</ele><time>2026-04-25T08:34:35.109Z</time></trkpt><trkpt lat="45.8573422" lon="13.1874664"><ele>8.0</ele><time>2026-04-25T08:34:36.108Z</time></trkpt><trkpt lat="45.8574504" lon="13.187819"><ele>8.0</ele><time>2026-04-25T08:34:37.116Z</time></trkpt><trkpt lat="45.857557" lon="13.1881676"><ele>8.5</ele><time>2026-04-25T08:34:38.106Z</time></trkpt><trkpt lat="45.8576573" lon="13.1885144"><ele>9.0</ele><time>2026-04-25T08:34:39.107Z</time></trkpt><trkpt lat="45.8577624" lon="13.1888639"><ele>9.5</ele><time>2026-04-25T08:34:40.1Z</time></trkpt><trkpt lat="45.857868" lon="13.1892104"><ele>10.0</ele><time>2026-04-25T08:34:41.112Z</time></trkpt><trkpt lat="45.8579746" lon="13.1895648"><ele>9.0</ele><time>2026-04-25T08:34:42.101Z</time></trkpt><trkpt lat="45.8580815" lon="13.189915"><ele>8.0</ele><time>2026-04-25T08:34:43.109Z</time></trkpt><trkpt lat="45.8581877" lon="13.1902613"><ele>8.0</ele><time>2026-04-25T08:34:44.104Z</time></trkpt><trkpt lat="45.8582924" lon="13.1906106"><ele>8.0</ele><time>2026-04-25T08:34:45.114Z</time></trkpt><trkpt lat="45.8583965" lon="13.1909614"><ele>8.0</ele><time>2026-04-25T08:34:46.106Z</time></trkpt><trkpt lat="45.8585011" lon="13.1913117"><ele>8.0</ele><time>2026-04-25T08:34:47.105Z</time></trkpt><trkpt lat="45.8586054" lon="13.1916592"><ele>8.0</ele><time>2026-04-25T08:34:48.106Z</time></trkpt><trkpt lat="45.8587108" lon="13.1920088"><ele>8.0</ele><time>2026-04-25T08:34:49.105Z</time></trkpt><trkpt lat="45.858814" lon="13.1923565"><ele>8.0</ele><time>2026-04-25T08:34:50.105Z</time></trkpt><trkpt lat="45.8589198" lon="13.1927046"><ele>8.0</ele><time>2026-04-25T08:34:51.107Z</time></trkpt><trkpt lat="45.8590229" lon="13.1930533"><ele>8.5</ele><time>2026-04-25T08:34:52.113Z</time></trkpt><trkpt lat="45.8591238" lon="13.1933988"><ele>9.0</ele><time>2026-04-25T08:34:53.105Z</time></trkpt><trkpt lat="45.8592253" lon="13.193744"><ele>8.5</ele><time>2026-04-25T08:34:54.108Z</time></trkpt><trkpt lat="45.8593326" lon="13.1940909"><ele>8.0</ele><time>2026-04-25T08:34:55.109Z</time></trkpt><trkpt lat="45.8594387" lon="13.1944383"><ele>8.0</ele><time>2026-04-25T08:34:56.117Z</time></trkpt><trkpt lat="45.8595459" lon="13.1947796"><ele>8.0</ele><time>2026-04-25T08:34:57.102Z</time></trkpt><trkpt lat="45.8596515" lon="13.195126"><ele>8.0</ele><time>2026-04-25T08:34:58.114Z</time></trkpt><trkpt lat="45.8597551" lon="13.1954697"><ele>8.0</ele><time>2026-04-25T08:34:59.107Z</time></trkpt><trkpt lat="45.8598596" lon="13.1958159"><ele>8.0</ele><time>2026-04-25T08:35:00.1Z</time></trkpt><trkpt lat="45.8599645" lon="13.1961649"><ele>8.0</ele><time>2026-04-25T08:35:01.105Z</time></trkpt><trkpt lat="45.8600682" lon="13.1965195"><ele>8.0</ele><time>2026-04-25T08:35:02.106Z</time></trkpt><trkpt lat="45.860171" lon="13.1968743"><ele>8.0</ele><time>2026-04-25T08:35:03.114Z</time></trkpt><trkpt lat="45.8602753" lon="13.1972268"><ele>8.0</ele><time>2026-04-25T08:35:04.098Z</time></trkpt><trkpt lat="45.8603824" lon="13.1975829"><ele>8.0</ele><time>2026-04-25T08:35:05.1Z</time></trkpt><trkpt lat="45.860489" lon="13.1979329"><ele>8.0</ele><time>2026-04-25T08:35:06.123Z</time></trkpt><trkpt lat="45.8605919" lon="13.1982801"><ele>8.0</ele><time>2026-04-25T08:35:07.104Z</time></trkpt><trkpt lat="45.8606969" lon="13.1986289"><ele>8.0</ele><time>2026-04-25T08:35:08.105Z</time></trkpt><trkpt lat="45.8608006" lon="13.1989719"><ele>8.0</ele><time>2026-04-25T08:35:09.109Z</time></trkpt><trkpt lat="45.8609051" lon="13.1993116"><ele>8.5</ele><time>2026-04-25T08:35:10.108Z</time></trkpt><trkpt lat="45.8610092" lon="13.1996511"><ele>9.0</ele><time>2026-04-25T08:35:11.11Z</time></trkpt><trkpt lat="45.8611096" lon="13.1999963"><ele>9.0</ele><time>2026-04-25T08:35:12.104Z</time></trkpt><trkpt lat="45.8612122" lon="13.2003411"><ele>9.0</ele><time>2026-04-25T08:35:13.106Z</time></trkpt><trkpt lat="45.8613126" lon="13.2006824"><ele>9.5</ele><time>2026-04-25T08:35:14.105Z</time></trkpt><trkpt lat="45.8614158" lon="13.2010226"><ele>10.0</ele><time>2026-04-25T08:35:15.103Z</time></trkpt><trkpt lat="45.8615199" lon="13.201364"><ele>10.5</ele><time>2026-04-25T08:35:16.103Z</time></trkpt><trkpt lat="45.8616239" lon="13.2017016"><ele>11.0</ele><time>2026-04-25T08:35:17.1Z</time></trkpt><trkpt lat="45.8617307" lon="13.2020445"><ele>9.5</ele><time>2026-04-25T08:35:18.116Z</time></trkpt><trkpt lat="45.8618336" lon="13.2023902"><ele>8.0</ele><time>2026-04-25T08:35:19.105Z</time></trkpt><trkpt lat="45.8619381" lon="13.202738"><ele>8.0</ele><time>2026-04-25T08:35:20.103Z</time></trkpt><trkpt lat="45.8620447" lon="13.2030909"><ele>8.0</ele><time>2026-04-25T08:35:21.107Z</time></trkpt><trkpt lat="45.8621543" lon="13.2034416"><ele>8.5</ele><time>2026-04-25T08:35:22.115Z</time></trkpt><trkpt lat="45.8622622" lon="13.2037915"><ele>9.0</ele><time>2026-04-25T08:35:23.111Z</time></trkpt><trkpt lat="45.8623655" lon="13.2041411"><ele>9.0</ele><time>2026-04-25T08:35:24.106Z</time></trkpt><trkpt lat="45.8624704" lon="13.2044871"><ele>9.0</ele><time>2026-04-25T08:35:25.1Z</time></trkpt><trkpt lat="45.8625732" lon="13.204835"><ele>10.5</ele><time>2026-04-25T08:35:26.104Z</time></trkpt><trkpt lat="45.8626724" lon="13.2051818"><ele>12.0</ele><time>2026-04-25T08:35:27.097Z</time></trkpt><trkpt lat="45.8627733" lon="13.2055297"><ele>11.0</ele><time>2026-04-25T08:35:28.106Z</time></trkpt><trkpt lat="45.8628749" lon="13.2058737"><ele>10.0</ele><time>2026-04-25T08:35:29.095Z</time></trkpt><trkpt lat="45.862977" lon="13.2062192"><ele>9.5</ele><time>2026-04-25T08:35:30.103Z</time></trkpt><trkpt lat="45.8630755" lon="13.206557"><ele>9.0</ele><time>2026-04-25T08:35:31.098Z</time></trkpt><trkpt lat="45.8631746" lon="13.2068994"><ele>9.0</ele><time>2026-04-25T08:35:32.104Z</time></trkpt><trkpt lat="45.8632754" lon="13.207234"><ele>9.0</ele><time>2026-04-25T08:35:33.101Z</time></trkpt><trkpt lat="45.8633775" lon="13.2075665"><ele>8.5</ele><time>2026-04-25T08:35:34.098Z</time></trkpt><trkpt lat="45.8634766" lon="13.2079027"><ele>8.0</ele><time>2026-04-25T08:35:35.109Z</time></trkpt><trkpt lat="45.8635794" lon="13.2082386"><ele>9.5</ele><time>2026-04-25T08:35:36.106Z</time></trkpt><trkpt lat="45.8636849" lon="13.2085682"><ele>11.0</ele><time>2026-04-25T08:35:37.097Z</time></trkpt><trkpt lat="45.8637859" lon="13.2088971"><ele>10.0</ele><time>2026-04-25T08:35:38.093Z</time></trkpt><trkpt lat="45.8638889" lon="13.2092295"><ele>9.0</ele><time>2026-04-25T08:35:39.1Z</time></trkpt><trkpt lat="45.8639878" lon="13.2095641"><ele>8.5</ele><time>2026-04-25T08:35:40.105Z</time></trkpt><trkpt lat="45.8640884" lon="13.2099003"><ele>8.0</ele><time>2026-04-25T08:35:41.106Z</time></trkpt><trkpt lat="45.8641902" lon="13.2102356"><ele>8.5</ele><time>2026-04-25T08:35:42.105Z</time></trkpt><trkpt lat="45.8642907" lon="13.2105786"><ele>9.0</ele><time>2026-04-25T08:35:43.126Z</time></trkpt><trkpt lat="45.8643926" lon="13.2109213"><ele>9.0</ele><time>2026-04-25T08:35:44.114Z</time></trkpt><trkpt lat="45.8644933" lon="13.2112726"><ele>9.0</ele><time>2026-04-25T08:35:45.109Z</time></trkpt><trkpt lat="45.86459" lon="13.2116207"><ele>8.5</ele><time>2026-04-25T08:35:46.105Z</time></trkpt><trkpt lat="45.8646976" lon="13.2119671"><ele>8.0</ele><time>2026-04-25T08:35:47.11Z</time></trkpt><trkpt lat="45.8648046" lon="13.212311"><ele>8.5</ele><time>2026-04-25T08:35:48.101Z</time></trkpt><trkpt lat="45.8649131" lon="13.2126545"><ele>9.0</ele><time>2026-04-25T08:35:49.09Z</time></trkpt><trkpt lat="45.8650168" lon="13.2129984"><ele>9.0</ele><time>2026-04-25T08:35:50.102Z</time></trkpt><trkpt lat="45.8651174" lon="13.213338"><ele>9.0</ele><time>2026-04-25T08:35:51.101Z</time></trkpt><trkpt lat="45.865226" lon="13.2136767"><ele>9.0</ele><time>2026-04-25T08:35:52.11Z</time></trkpt><trkpt lat="45.8653282" lon="13.2140188"><ele>9.0</ele><time>2026-04-25T08:35:53.108Z</time></trkpt><trkpt lat="45.8654302" lon="13.2143574"><ele>9.0</ele><time>2026-04-25T08:35:54.114Z</time></trkpt><trkpt lat="45.8655365" lon="13.2146863"><ele>9.0</ele><time>2026-04-25T08:35:55.107Z</time></trkpt><trkpt lat="45.8656421" lon="13.2150138"><ele>9.0</ele><time>2026-04-25T08:35:56.112Z</time></trkpt><trkpt lat="45.865752" lon="13.2153359"><ele>9.0</ele><time>2026-04-25T08:35:57.103Z</time></trkpt><trkpt lat="45.8658617" lon="13.215664"><ele>9.0</ele><time>2026-04-25T08:35:58.109Z</time></trkpt><trkpt lat="45.8659715" lon="13.215988"><ele>9.0</ele><time>2026-04-25T08:35:59.108Z</time></trkpt><trkpt lat="45.8660807" lon="13.2163044"><ele>8.5</ele><time>2026-04-25T08:36:00.107Z</time></trkpt><trkpt lat="45.8661931" lon="13.2166189"><ele>8.0</ele><time>2026-04-25T08:36:01.109Z</time></trkpt><trkpt lat="45.866309" lon="13.2169421"><ele>8.0</ele><time>2026-04-25T08:36:02.099Z</time></trkpt><trkpt lat="45.8664262" lon="13.2172638"><ele>8.0</ele><time>2026-04-25T08:36:03.104Z</time></trkpt><trkpt lat="45.8665451" lon="13.2175841"><ele>8.0</ele><time>2026-04-25T08:36:04.106Z</time></trkpt><trkpt lat="45.8666631" lon="13.2179065"><ele>8.0</ele><time>2026-04-25T08:36:05.116Z</time></trkpt><trkpt lat="45.866784" lon="13.2182269"><ele>9.0</ele><time>2026-04-25T08:36:06.102Z</time></trkpt><trkpt lat="45.8669048" lon="13.2185511"><ele>10.0</ele><time>2026-04-25T08:36:07.106Z</time></trkpt><trkpt lat="45.8670234" lon="13.2188765"><ele>10.5</ele><time>2026-04-25T08:36:08.097Z</time></trkpt><trkpt lat="45.8671438" lon="13.2191996"><ele>11.0</ele><time>2026-04-25T08:36:09.106Z</time></trkpt><trkpt lat="45.867262" lon="13.2195213"><ele>9.5</ele><time>2026-04-25T08:36:10.106Z</time></trkpt><trkpt lat="45.8673779" lon="13.219843"><ele>8.0</ele><time>2026-04-25T08:36:11.102Z</time></trkpt><trkpt lat="45.8674936" lon="13.2201622"><ele>8.0</ele><time>2026-04-25T08:36:12.108Z</time></trkpt><trkpt lat="45.8676103" lon="13.2204819"><ele>8.0</ele><time>2026-04-25T08:36:13.107Z</time></trkpt><trkpt lat="45.8677302" lon="13.2208004"><ele>7.5</ele><time>2026-04-25T08:36:14.101Z</time></trkpt><trkpt lat="45.8678478" lon="13.2211176"><ele>7.0</ele><time>2026-04-25T08:36:15.099Z</time></trkpt><trkpt lat="45.8679671" lon="13.221437"><ele>7.0</ele><time>2026-04-25T08:36:16.101Z</time></trkpt><trkpt lat="45.8680852" lon="13.2217571"><ele>7.0</ele><time>2026-04-25T08:36:17.117Z</time></trkpt><trkpt lat="45.868206" lon="13.2220819"><ele>8.0</ele><time>2026-04-25T08:36:18.106Z</time></trkpt><trkpt lat="45.8683271" lon="13.2224051"><ele>9.0</ele><time>2026-04-25T08:36:19.104Z</time></trkpt><trkpt lat="45.8684443" lon="13.222734"><ele>9.0</ele><time>2026-04-25T08:36:20.093Z</time></trkpt><trkpt lat="45.8685638" lon="13.2230604"><ele>9.0</ele><time>2026-04-25T08:36:21.099Z</time></trkpt><trkpt lat="45.8686814" lon="13.2233831"><ele>9.0</ele><time>2026-04-25T08:36:22.101Z</time></trkpt><trkpt lat="45.8687983" lon="13.2237092"><ele>9.0</ele><time>2026-04-25T08:36:23.107Z</time></trkpt><trkpt lat="45.8689176" lon="13.2240348"><ele>9.0</ele><time>2026-04-25T08:36:24.111Z</time></trkpt><trkpt lat="45.8690376" lon="13.2243619"><ele>9.0</ele><time>2026-04-25T08:36:25.103Z</time></trkpt><trkpt lat="45.8691568" lon="13.2246883"><ele>10.0</ele><time>2026-04-25T08:36:26.101Z</time></trkpt><trkpt lat="45.8692769" lon="13.2250107"><ele>11.0</ele><time>2026-04-25T08:36:27.106Z</time></trkpt><trkpt lat="45.8693927" lon="13.2253369"><ele>10.5</ele><time>2026-04-25T08:36:28.1Z</time></trkpt><trkpt lat="45.869512" lon="13.2256621"><ele>10.0</ele><time>2026-04-25T08:36:29.108Z</time></trkpt><trkpt lat="45.8696309" lon="13.2259835"><ele>10.0</ele><time>2026-04-25T08:36:30.115Z</time></trkpt><trkpt lat="45.8697493" lon="13.2263094"><ele>10.0</ele><time>2026-04-25T08:36:31.105Z</time></trkpt><trkpt lat="45.8698709" lon="13.2266297"><ele>9.5</ele><time>2026-04-25T08:36:32.11Z</time></trkpt><trkpt lat="45.8699931" lon="13.2269499"><ele>9.0</ele><time>2026-04-25T08:36:33.099Z</time></trkpt><trkpt lat="45.8701103" lon="13.2272741"><ele>9.5</ele><time>2026-04-25T08:36:34.1Z</time></trkpt><trkpt lat="45.8702301" lon="13.2275974"><ele>10.0</ele><time>2026-04-25T08:36:35.095Z</time></trkpt><trkpt lat="45.8703473" lon="13.2279179"><ele>9.5</ele><time>2026-04-25T08:36:36.1Z</time></trkpt><trkpt lat="45.8704641" lon="13.2282373"><ele>9.0</ele><time>2026-04-25T08:36:37.099Z</time></trkpt><trkpt lat="45.8705812" lon="13.2285542"><ele>9.0</ele><time>2026-04-25T08:36:38.099Z</time></trkpt><trkpt lat="45.8706973" lon="13.2288683"><ele>9.0</ele><time>2026-04-25T08:36:39.101Z</time></trkpt><trkpt lat="45.8708141" lon="13.2291833"><ele>9.5</ele><time>2026-04-25T08:36:40.1Z</time></trkpt><trkpt lat="45.8709297" lon="13.229499"><ele>10.0</ele><time>2026-04-25T08:36:41.101Z</time></trkpt><trkpt lat="45.8710413" lon="13.2298129"><ele>11.0</ele><time>2026-04-25T08:36:42.106Z</time></trkpt><trkpt lat="45.8711582" lon="13.2301288"><ele>12.0</ele><time>2026-04-25T08:36:43.102Z</time></trkpt><trkpt lat="45.8712752" lon="13.2304483"><ele>11.0</ele><time>2026-04-25T08:36:44.107Z</time></trkpt><trkpt lat="45.8713913" lon="13.2307664"><ele>10.0</ele><time>2026-04-25T08:36:45.101Z</time></trkpt><trkpt lat="45.8715098" lon="13.2310806"><ele>10.0</ele><time>2026-04-25T08:36:46.103Z</time></trkpt><trkpt lat="45.8716256" lon="13.2313944"><ele>10.0</ele><time>2026-04-25T08:36:47.108Z</time></trkpt><trkpt lat="45.8717395" lon="13.2317139"><ele>10.5</ele><time>2026-04-25T08:36:48.11Z</time></trkpt><trkpt lat="45.8718541" lon="13.2320249"><ele>11.0</ele><time>2026-04-25T08:36:49.104Z</time></trkpt><trkpt lat="45.8719667" lon="13.2323355"><ele>11.0</ele><time>2026-04-25T08:36:50.107Z</time></trkpt><trkpt lat="45.8720819" lon="13.2326508"><ele>11.0</ele><time>2026-04-25T08:36:51.104Z</time></trkpt><trkpt lat="45.8721961" lon="13.2329622"><ele>11.0</ele><time>2026-04-25T08:36:52.099Z</time></trkpt><trkpt lat="45.8723093" lon="13.2332775"><ele>11.0</ele><time>2026-04-25T08:36:53.112Z</time></trkpt><trkpt lat="45.8724265" lon="13.2335935"><ele>11.0</ele><time>2026-04-25T08:36:54.109Z</time></trkpt><trkpt lat="45.8725459" lon="13.2339132"><ele>11.0</ele><time>2026-04-25T08:36:55.102Z</time></trkpt><trkpt lat="45.8726646" lon="13.234235"><ele>11.5</ele><time>2026-04-25T08:36:56.103Z</time></trkpt><trkpt lat="45.8727849" lon="13.234554"><ele>12.0</ele><time>2026-04-25T08:36:57.105Z</time></trkpt><trkpt lat="45.8729044" lon="13.234878"><ele>12.0</ele><time>2026-04-25T08:36:58.1Z</time></trkpt><trkpt lat="45.8730233" lon="13.2351945"><ele>12.0</ele><time>2026-04-25T08:36:59.106Z</time></trkpt><trkpt lat="45.8731467" lon="13.2355118"><ele>12.0</ele><time>2026-04-25T08:37:00.105Z</time></trkpt><trkpt lat="45.8732654" lon="13.2358356"><ele>12.0</ele><time>2026-04-25T08:37:01.103Z</time></trkpt><trkpt lat="45.8733796" lon="13.2361564"><ele>12.0</ele><time>2026-04-25T08:37:02.101Z</time></trkpt><trkpt lat="45.8734927" lon="13.2364738"><ele>12.0</ele><time>2026-04-25T08:37:03.101Z</time></trkpt><trkpt lat="45.8736066" lon="13.2367907"><ele>12.0</ele><time>2026-04-25T08:37:04.102Z</time></trkpt><trkpt lat="45.8737272" lon="13.2371086"><ele>12.0</ele><time>2026-04-25T08:37:05.103Z</time></trkpt><trkpt lat="45.8738412" lon="13.2374307"><ele>11.0</ele><time>2026-04-25T08:37:06.097Z</time></trkpt><trkpt lat="45.8739521" lon="13.2377444"><ele>10.0</ele><time>2026-04-25T08:37:07.097Z</time></trkpt><trkpt lat="45.8740652" lon="13.2380593"><ele>10.0</ele><time>2026-04-25T08:37:08.114Z</time></trkpt><trkpt lat="45.8741776" lon="13.2383702"><ele>10.0</ele><time>2026-04-25T08:37:09.095Z</time></trkpt><trkpt lat="45.8742907" lon="13.2386819"><ele>10.5</ele><time>2026-04-25T08:37:10.088Z</time></trkpt><trkpt lat="45.8744063" lon="13.2389874"><ele>11.0</ele><time>2026-04-25T08:37:11.117Z</time></trkpt><trkpt lat="45.8745184" lon="13.2392968"><ele>11.0</ele><time>2026-04-25T08:37:12.101Z</time></trkpt><trkpt lat="45.8746314" lon="13.2396022"><ele>11.0</ele><time>2026-04-25T08:37:13.095Z</time></trkpt><trkpt lat="45.8747483" lon="13.239917"><ele>11.0</ele><time>2026-04-25T08:37:14.103Z</time></trkpt><trkpt lat="45.8748665" lon="13.2402278"><ele>11.0</ele><time>2026-04-25T08:37:15.102Z</time></trkpt><trkpt lat="45.8749848" lon="13.2405432"><ele>11.0</ele><time>2026-04-25T08:37:16.105Z</time></trkpt><trkpt lat="45.8750972" lon="13.2408639"><ele>11.0</ele><time>2026-04-25T08:37:17.095Z</time></trkpt><trkpt lat="45.8752144" lon="13.2411843"><ele>13.5</ele><time>2026-04-25T08:37:18.113Z</time></trkpt><trkpt lat="45.8753306" lon="13.2415055"><ele>16.0</ele><time>2026-04-25T08:37:19.108Z</time></trkpt><trkpt lat="45.8754449" lon="13.2418282"><ele>16.0</ele><time>2026-04-25T08:37:20.101Z</time></trkpt><trkpt lat="45.8755602" lon="13.2421487"><ele>16.0</ele><time>2026-04-25T08:37:21.1Z</time></trkpt><trkpt lat="45.8756782" lon="13.2424664"><ele>16.0</ele><time>2026-04-25T08:37:22.108Z</time></trkpt><trkpt lat="45.8757952" lon="13.2427857"><ele>16.0</ele><time>2026-04-25T08:37:23.112Z</time></trkpt><trkpt lat="45.8759132" lon="13.2431069"><ele>15.0</ele><time>2026-04-25T08:37:24.099Z</time></trkpt><trkpt lat="45.8760345" lon="13.2434255"><ele>14.0</ele><time>2026-04-25T08:37:25.106Z</time></trkpt><trkpt lat="45.8761546" lon="13.2437429"><ele>14.0</ele><time>2026-04-25T08:37:26.093Z</time></trkpt><trkpt lat="45.8762771" lon="13.244062"><ele>14.0</ele><time>2026-04-25T08:37:27.102Z</time></trkpt><trkpt lat="45.8763961" lon="13.244388"><ele>14.0</ele><time>2026-04-25T08:37:28.095Z</time></trkpt><trkpt lat="45.8765109" lon="13.244705"><ele>14.0</ele><time>2026-04-25T08:37:29.092Z</time></trkpt><trkpt lat="45.876628" lon="13.2450291"><ele>14.0</ele><time>2026-04-25T08:37:30.097Z</time></trkpt><trkpt lat="45.8767486" lon="13.2453535"><ele>14.0</ele><time>2026-04-25T08:37:31.096Z</time></trkpt><trkpt lat="45.8768674" lon="13.2456707"><ele>13.5</ele><time>2026-04-25T08:37:32.096Z</time></trkpt><trkpt lat="45.8769861" lon="13.2459921"><ele>13.0</ele><time>2026-04-25T08:37:33.1Z</time></trkpt><trkpt lat="45.8771018" lon="13.2463142"><ele>13.0</ele><time>2026-04-25T08:37:34.102Z</time></trkpt><trkpt lat="45.8772204" lon="13.2466342"><ele>13.0</ele><time>2026-04-25T08:37:35.098Z</time></trkpt><trkpt lat="45.877334" lon="13.2469513"><ele>13.0</ele><time>2026-04-25T08:37:36.106Z</time></trkpt><trkpt lat="45.877446" lon="13.2472764"><ele>13.0</ele><time>2026-04-25T08:37:37.102Z</time></trkpt><trkpt lat="45.8775567" lon="13.2476001"><ele>12.5</ele><time>2026-04-25T08:37:38.094Z</time></trkpt><trkpt lat="45.8776706" lon="13.2479206"><ele>12.0</ele><time>2026-04-25T08:37:39.106Z</time></trkpt><trkpt lat="45.8777922" lon="13.2482351"><ele>11.5</ele><time>2026-04-25T08:37:40.1Z</time></trkpt><trkpt lat="45.8779084" lon="13.2485519"><ele>11.0</ele><time>2026-04-25T08:37:41.112Z</time></trkpt><trkpt lat="45.878028" lon="13.2488688"><ele>11.5</ele><time>2026-04-25T08:37:42.104Z</time></trkpt><trkpt lat="45.8781421" lon="13.2491844"><ele>12.0</ele><time>2026-04-25T08:37:43.106Z</time></trkpt><trkpt lat="45.8782573" lon="13.249501"><ele>12.5</ele><time>2026-04-25T08:37:44.095Z</time></trkpt><trkpt lat="45.8783723" lon="13.2498176"><ele>13.0</ele><time>2026-04-25T08:37:45.101Z</time></trkpt><trkpt lat="45.8784857" lon="13.2501355"><ele>13.0</ele><time>2026-04-25T08:37:46.105Z</time></trkpt><trkpt lat="45.8786026" lon="13.2504472"><ele>13.0</ele><time>2026-04-25T08:37:47.115Z</time></trkpt><trkpt lat="45.878722" lon="13.2507564"><ele>13.5</ele><time>2026-04-25T08:37:48.109Z</time></trkpt><trkpt lat="45.8788409" lon="13.2510704"><ele>14.0</ele><time>2026-04-25T08:37:49.102Z</time></trkpt><trkpt lat="45.8789587" lon="13.2513855"><ele>15.0</ele><time>2026-04-25T08:37:50.108Z</time></trkpt><trkpt lat="45.8790754" lon="13.2516983"><ele>16.0</ele><time>2026-04-25T08:37:51.106Z</time></trkpt><trkpt lat="45.8791888" lon="13.2520168"><ele>14.0</ele><time>2026-04-25T08:37:52.106Z</time></trkpt><trkpt lat="45.8793041" lon="13.2523347"><ele>12.0</ele><time>2026-04-25T08:37:53.101Z</time></trkpt><trkpt lat="45.8794174" lon="13.2526544"><ele>12.0</ele><time>2026-04-25T08:37:54.113Z</time></trkpt><trkpt lat="45.8795334" lon="13.2529653"><ele>12.0</ele><time>2026-04-25T08:37:55.106Z</time></trkpt><trkpt lat="45.8796459" lon="13.2532831"><ele>13.0</ele><time>2026-04-25T08:37:56.103Z</time></trkpt><trkpt lat="45.8797599" lon="13.2536001"><ele>14.0</ele><time>2026-04-25T08:37:57.104Z</time></trkpt><trkpt lat="45.8798789" lon="13.2539146"><ele>14.5</ele><time>2026-04-25T08:37:58.104Z</time></trkpt><trkpt lat="45.8799948" lon="13.2542317"><ele>15.0</ele><time>2026-04-25T08:37:59.103Z</time></trkpt><trkpt lat="45.8801107" lon="13.2545375"><ele>14.0</ele><time>2026-04-25T08:38:00.098Z</time></trkpt><trkpt lat="45.8802278" lon="13.2548448"><ele>13.0</ele><time>2026-04-25T08:38:01.11Z</time></trkpt><trkpt lat="45.880343" lon="13.2551617"><ele>13.0</ele><time>2026-04-25T08:38:02.098Z</time></trkpt><trkpt lat="45.8804564" lon="13.2554765"><ele>13.0</ele><time>2026-04-25T08:38:03.099Z</time></trkpt><trkpt lat="45.8805764" lon="13.2557966"><ele>12.5</ele><time>2026-04-25T08:38:04.104Z</time></trkpt><trkpt lat="45.8806951" lon="13.2561204"><ele>12.0</ele><time>2026-04-25T08:38:05.095Z</time></trkpt><trkpt lat="45.8808123" lon="13.2564395"><ele>13.0</ele><time>2026-04-25T08:38:06.112Z</time></trkpt><trkpt lat="45.880928" lon="13.25675"><ele>14.0</ele><time>2026-04-25T08:38:07.102Z</time></trkpt><trkpt lat="45.8810485" lon="13.2570596"><ele>14.5</ele><time>2026-04-25T08:38:08.1Z</time></trkpt><trkpt lat="45.8811721" lon="13.2573707"><ele>15.0</ele><time>2026-04-25T08:38:09.101Z</time></trkpt><trkpt lat="45.8812959" lon="13.2576829"><ele>15.0</ele><time>2026-04-25T08:38:10.098Z</time></trkpt><trkpt lat="45.88142" lon="13.2579989"><ele>15.0</ele><time>2026-04-25T08:38:11.112Z</time></trkpt><trkpt lat="45.881551" lon="13.2583098"><ele>14.5</ele><time>2026-04-25T08:38:12.103Z</time></trkpt><trkpt lat="45.8816772" lon="13.2586194"><ele>14.0</ele><time>2026-04-25T08:38:13.108Z</time></trkpt><trkpt lat="45.8818032" lon="13.2589256"><ele>14.5</ele><time>2026-04-25T08:38:14.123Z</time></trkpt><trkpt lat="45.881931" lon="13.2592358"><ele>15.0</ele><time>2026-04-25T08:38:15.105Z</time></trkpt><trkpt lat="45.8820615" lon="13.259532"><ele>15.5</ele><time>2026-04-25T08:38:16.106Z</time></trkpt><trkpt lat="45.8821912" lon="13.259827"><ele>16.0</ele><time>2026-04-25T08:38:17.102Z</time></trkpt><trkpt lat="45.8823243" lon="13.2601225"><ele>16.0</ele><time>2026-04-25T08:38:18.116Z</time></trkpt><trkpt lat="45.8824586" lon="13.2604147"><ele>16.0</ele><time>2026-04-25T08:38:19.107Z</time></trkpt><trkpt lat="45.8825931" lon="13.26071"><ele>15.5</ele><time>2026-04-25T08:38:20.11Z</time></trkpt><trkpt lat="45.8827234" lon="13.2610034"><ele>15.0</ele><time>2026-04-25T08:38:21.114Z</time></trkpt><trkpt lat="45.8828592" lon="13.261294"><ele>16.0</ele><time>2026-04-25T08:38:22.108Z</time></trkpt><trkpt lat="45.8829927" lon="13.2615786"><ele>17.0</ele><time>2026-04-25T08:38:23.1Z</time></trkpt><trkpt lat="45.8831261" lon="13.26187"><ele>17.0</ele><time>2026-04-25T08:38:24.114Z</time></trkpt><trkpt lat="45.8832641" lon="13.2621593"><ele>17.0</ele><time>2026-04-25T08:38:25.109Z</time></trkpt><trkpt lat="45.8834064" lon="13.262453"><ele>16.5</ele><time>2026-04-25T08:38:26.104Z</time></trkpt><trkpt lat="45.8835562" lon="13.2627511"><ele>16.0</ele><time>2026-04-25T08:38:27.103Z</time></trkpt><trkpt lat="45.8837072" lon="13.2630423"><ele>16.5</ele><time>2026-04-25T08:38:28.112Z</time></trkpt><trkpt lat="45.8838558" lon="13.263334"><ele>17.0</ele><time>2026-04-25T08:38:29.103Z</time></trkpt><trkpt lat="45.8840066" lon="13.2636255"><ele>17.0</ele><time>2026-04-25T08:38:30.116Z</time></trkpt><trkpt lat="45.8841585" lon="13.2639198"><ele>17.0</ele><time>2026-04-25T08:38:31.1Z</time></trkpt><trkpt lat="45.8843096" lon="13.2642188"><ele>17.0</ele><time>2026-04-25T08:38:32.104Z</time></trkpt><trkpt lat="45.8844654" lon="13.2645146"><ele>17.0</ele><time>2026-04-25T08:38:33.107Z</time></trkpt><trkpt lat="45.8846232" lon="13.2648134"><ele>17.0</ele><time>2026-04-25T08:38:34.1Z</time></trkpt><trkpt lat="45.8847798" lon="13.2651094"><ele>17.0</ele><time>2026-04-25T08:38:35.106Z</time></trkpt><trkpt lat="45.8849356" lon="13.2654038"><ele>17.0</ele><time>2026-04-25T08:38:36.097Z</time></trkpt><trkpt lat="45.885091" lon="13.2656948"><ele>17.0</ele><time>2026-04-25T08:38:37.109Z</time></trkpt><trkpt lat="45.8852472" lon="13.2659871"><ele>16.5</ele><time>2026-04-25T08:38:38.105Z</time></trkpt><trkpt lat="45.8854063" lon="13.2662809"><ele>16.0</ele><time>2026-04-25T08:38:39.101Z</time></trkpt><trkpt lat="45.8855635" lon="13.2665734"><ele>16.0</ele><time>2026-04-25T08:38:40.099Z</time></trkpt><trkpt lat="45.8857163" lon="13.2668649"><ele>16.0</ele><time>2026-04-25T08:38:41.108Z</time></trkpt><trkpt lat="45.8858714" lon="13.2671524"><ele>17.0</ele><time>2026-04-25T08:38:42.1Z</time></trkpt><trkpt lat="45.8860219" lon="13.2674402"><ele>18.0</ele><time>2026-04-25T08:38:43.097Z</time></trkpt><trkpt lat="45.8861746" lon="13.2677303"><ele>18.0</ele><time>2026-04-25T08:38:44.11Z</time></trkpt><trkpt lat="45.8863275" lon="13.2680188"><ele>18.0</ele><time>2026-04-25T08:38:45.096Z</time></trkpt><trkpt lat="45.8864809" lon="13.2683022"><ele>18.0</ele><time>2026-04-25T08:38:46.106Z</time></trkpt><trkpt lat="45.8866375" lon="13.2685877"><ele>18.0</ele><time>2026-04-25T08:38:47.098Z</time></trkpt><trkpt lat="45.8867967" lon="13.2688766"><ele>17.5</ele><time>2026-04-25T08:38:48.099Z</time></trkpt><trkpt lat="45.8869587" lon="13.2691682"><ele>17.0</ele><time>2026-04-25T08:38:49.113Z</time></trkpt><trkpt lat="45.8871194" lon="13.269465"><ele>17.0</ele><time>2026-04-25T08:38:50.103Z</time></trkpt><trkpt lat="45.88728" lon="13.2697643"><ele>17.0</ele><time>2026-04-25T08:38:51.098Z</time></trkpt><trkpt lat="45.8874403" lon="13.270061"><ele>17.0</ele><time>2026-04-25T08:38:52.1Z</time></trkpt><trkpt lat="45.8875996" lon="13.2703558"><ele>17.0</ele><time>2026-04-25T08:38:53.101Z</time></trkpt><trkpt lat="45.8877596" lon="13.2706524"><ele>17.5</ele><time>2026-04-25T08:38:54.114Z</time></trkpt><trkpt lat="45.8879164" lon="13.2709433"><ele>18.0</ele><time>2026-04-25T08:38:55.103Z</time></trkpt><trkpt lat="45.888075" lon="13.2712377"><ele>18.5</ele><time>2026-04-25T08:38:56.103Z</time></trkpt><trkpt lat="45.8882289" lon="13.2715245"><ele>19.0</ele><time>2026-04-25T08:38:57.105Z</time></trkpt><trkpt lat="45.8883828" lon="13.2718113"><ele>18.5</ele><time>2026-04-25T08:38:58.1Z</time></trkpt><trkpt lat="45.8885361" lon="13.2720972"><ele>18.0</ele><time>2026-04-25T08:38:59.102Z</time></trkpt><trkpt lat="45.8886889" lon="13.2723838"><ele>18.0</ele><time>2026-04-25T08:39:00.098Z</time></trkpt><trkpt lat="45.8888414" lon="13.2726656"><ele>18.0</ele><time>2026-04-25T08:39:01.099Z</time></trkpt><trkpt lat="45.8889909" lon="13.2729455"><ele>18.0</ele><time>2026-04-25T08:39:02.106Z</time></trkpt><trkpt lat="45.8891432" lon="13.2732209"><ele>18.0</ele><time>2026-04-25T08:39:03.121Z</time></trkpt><trkpt lat="45.8892958" lon="13.2734985"><ele>18.0</ele><time>2026-04-25T08:39:04.101Z</time></trkpt><trkpt lat="45.8894399" lon="13.2737804"><ele>18.0</ele><time>2026-04-25T08:39:05.1Z</time></trkpt><trkpt lat="45.8895866" lon="13.2740554"><ele>18.0</ele><time>2026-04-25T08:39:06.101Z</time></trkpt><trkpt lat="45.8897337" lon="13.274333"><ele>18.0</ele><time>2026-04-25T08:39:07.115Z</time></trkpt><trkpt lat="45.8898792" lon="13.2746014"><ele>18.0</ele><time>2026-04-25T08:39:08.09Z</time></trkpt><trkpt lat="45.8900242" lon="13.2748684"><ele>18.0</ele><time>2026-04-25T08:39:09.106Z</time></trkpt><trkpt lat="45.8901716" lon="13.2751386"><ele>18.0</ele><time>2026-04-25T08:39:10.107Z</time></trkpt><trkpt lat="45.89032" lon="13.2754139"><ele>18.0</ele><time>2026-04-25T08:39:11.098Z</time></trkpt><trkpt lat="45.8904675" lon="13.2756925"><ele>17.5</ele><time>2026-04-25T08:39:12.109Z</time></trkpt><trkpt lat="45.8906227" lon="13.275977"><ele>17.0</ele><time>2026-04-25T08:39:13.107Z</time></trkpt><trkpt lat="45.8907796" lon="13.2762645"><ele>17.5</ele><time>2026-04-25T08:39:14.106Z</time></trkpt><trkpt lat="45.890933" lon="13.2765495"><ele>18.0</ele><time>2026-04-25T08:39:15.1Z</time></trkpt><trkpt lat="45.8910837" lon="13.2768361"><ele>18.0</ele><time>2026-04-25T08:39:16.102Z</time></trkpt><trkpt lat="45.891235" lon="13.2771236"><ele>18.0</ele><time>2026-04-25T08:39:17.093Z</time></trkpt><trkpt lat="45.891385" lon="13.2774074"><ele>18.5</ele><time>2026-04-25T08:39:18.105Z</time></trkpt><trkpt lat="45.8915348" lon="13.2776932"><ele>19.0</ele><time>2026-04-25T08:39:19.104Z</time></trkpt><trkpt lat="45.8916832" lon="13.2779748"><ele>18.5</ele><time>2026-04-25T08:39:20.101Z</time></trkpt><trkpt lat="45.8918332" lon="13.27825"><ele>18.0</ele><time>2026-04-25T08:39:21.109Z</time></trkpt><trkpt lat="45.8919826" lon="13.2785284"><ele>18.0</ele><time>2026-04-25T08:39:22.1Z</time></trkpt><trkpt lat="45.8921316" lon="13.2788017"><ele>18.0</ele><time>2026-04-25T08:39:23.11Z</time></trkpt><trkpt lat="45.8922788" lon="13.2790697"><ele>18.0</ele><time>2026-04-25T08:39:24.093Z</time></trkpt><trkpt lat="45.8924286" lon="13.2793421"><ele>18.0</ele><time>2026-04-25T08:39:25.099Z</time></trkpt><trkpt lat="45.8925778" lon="13.2796148"><ele>19.5</ele><time>2026-04-25T08:39:26.096Z</time></trkpt><trkpt lat="45.8927297" lon="13.2798827"><ele>21.0</ele><time>2026-04-25T08:39:27.088Z</time></trkpt><trkpt lat="45.8928831" lon="13.2801596"><ele>21.0</ele><time>2026-04-25T08:39:28.09Z</time></trkpt><trkpt lat="45.8930357" lon="13.2804311"><ele>21.0</ele><time>2026-04-25T08:39:29.092Z</time></trkpt><trkpt lat="45.893189" lon="13.280704"><ele>21.0</ele><time>2026-04-25T08:39:30.102Z</time></trkpt><trkpt lat="45.8933484" lon="13.2809734"><ele>21.0</ele><time>2026-04-25T08:39:31.096Z</time></trkpt><trkpt lat="45.8935033" lon="13.2812454"><ele>22.0</ele><time>2026-04-25T08:39:32.107Z</time></trkpt><trkpt lat="45.8936618" lon="13.2815158"><ele>23.0</ele><time>2026-04-25T08:39:33.102Z</time></trkpt><trkpt lat="45.8938199" lon="13.2817904"><ele>23.0</ele><time>2026-04-25T08:39:34.097Z</time></trkpt><trkpt lat="45.8939727" lon="13.2820667"><ele>23.0</ele><time>2026-04-25T08:39:35.092Z</time></trkpt><trkpt lat="45.8941195" lon="13.2823505"><ele>23.5</ele><time>2026-04-25T08:39:36.103Z</time></trkpt><trkpt lat="45.8942644" lon="13.2826331"><ele>24.0</ele><time>2026-04-25T08:39:37.103Z</time></trkpt><trkpt lat="45.8944066" lon="13.2829165"><ele>23.0</ele><time>2026-04-25T08:39:38.09Z</time></trkpt><trkpt lat="45.8945531" lon="13.2832001"><ele>22.0</ele><time>2026-04-25T08:39:39.113Z</time></trkpt><trkpt lat="45.8947027" lon="13.2834772"><ele>22.0</ele><time>2026-04-25T08:39:40.107Z</time></trkpt><trkpt lat="45.8948542" lon="13.2837628"><ele>22.0</ele><time>2026-04-25T08:39:41.094Z</time></trkpt><trkpt lat="45.8950029" lon="13.2840484"><ele>24.5</ele><time>2026-04-25T08:39:42.107Z</time></trkpt><trkpt lat="45.8951487" lon="13.2843286"><ele>27.0</ele><time>2026-04-25T08:39:43.098Z</time></trkpt><trkpt lat="45.8952855" lon="13.2846221"><ele>25.0</ele><time>2026-04-25T08:39:44.103Z</time></trkpt><trkpt lat="45.8954119" lon="13.2849197"><ele>23.0</ele><time>2026-04-25T08:39:45.104Z</time></trkpt><trkpt lat="45.8955268" lon="13.2852138"><ele>23.0</ele><time>2026-04-25T08:39:46.102Z</time></trkpt><trkpt lat="45.89563" lon="13.2855284"><ele>23.0</ele><time>2026-04-25T08:39:47.103Z</time></trkpt><trkpt lat="45.8957292" lon="13.2858205"><ele>23.333333333333336</ele><time>2026-04-25T08:39:48.103Z</time></trkpt><trkpt lat="45.8958145" lon="13.2861201"><ele>23.666666666666668</ele><time>2026-04-25T08:39:49.095Z</time></trkpt><trkpt lat="45.8958906" lon="13.286421"><ele>24.0</ele><time>2026-04-25T08:39:50.099Z</time></trkpt><trkpt lat="45.8959534" lon="13.2867337"><ele>24.0</ele><time>2026-04-25T08:39:51.116Z</time></trkpt><trkpt lat="45.8960092" lon="13.287048"><ele>24.0</ele><time>2026-04-25T08:39:52.105Z</time></trkpt><trkpt lat="45.8960625" lon="13.2873688"><ele>23.5</ele><time>2026-04-25T08:39:53.101Z</time></trkpt><trkpt lat="45.8961061" lon="13.2876962"><ele>23.0</ele><time>2026-04-25T08:39:54.097Z</time></trkpt><trkpt lat="45.8961391" lon="13.2880233"><ele>23.0</ele><time>2026-04-25T08:39:55.106Z</time></trkpt><trkpt lat="45.8961689" lon="13.2883536"><ele>23.0</ele><time>2026-04-25T08:39:56.093Z</time></trkpt><trkpt lat="45.896185" lon="13.2886777"><ele>22.666666666666668</ele><time>2026-04-25T08:39:57.117Z</time></trkpt><trkpt lat="45.8961919" lon="13.2889917"><ele>22.333333333333332</ele><time>2026-04-25T08:39:58.098Z</time></trkpt><trkpt lat="45.896184" lon="13.2893046"><ele>22.0</ele><time>2026-04-25T08:39:59.108Z</time></trkpt><trkpt lat="45.8961678" lon="13.2896134"><ele>22.666666666666664</ele><time>2026-04-25T08:40:00.09Z</time></trkpt><trkpt lat="45.8961441" lon="13.2899195"><ele>23.333333333333332</ele><time>2026-04-25T08:40:01.11Z</time></trkpt><trkpt lat="45.8961149" lon="13.2902305"><ele>24.0</ele><time>2026-04-25T08:40:02.098Z</time></trkpt><trkpt lat="45.8960873" lon="13.2905456"><ele>24.0</ele><time>2026-04-25T08:40:03.101Z</time></trkpt><trkpt lat="45.8960591" lon="13.29087"><ele>24.0</ele><time>2026-04-25T08:40:04.092Z</time></trkpt><trkpt lat="45.8960236" lon="13.2911929"><ele>22.0</ele><time>2026-04-25T08:40:05.096Z</time></trkpt><trkpt lat="45.8959835" lon="13.2915162"><ele>20.0</ele><time>2026-04-25T08:40:06.101Z</time></trkpt><trkpt lat="45.8959383" lon="13.2918353"><ele>20.666666666666668</ele><time>2026-04-25T08:40:07.096Z</time></trkpt><trkpt lat="45.8958879" lon="13.2921527"><ele>21.333333333333332</ele><time>2026-04-25T08:40:08.093Z</time></trkpt><trkpt lat="45.8958313" lon="13.292462"><ele>22.0</ele><time>2026-04-25T08:40:09.107Z</time></trkpt><trkpt lat="45.8957724" lon="13.2927778"><ele>21.5</ele><time>2026-04-25T08:40:10.1Z</time></trkpt><trkpt lat="45.8957092" lon="13.2930924"><ele>21.0</ele><time>2026-04-25T08:40:11.097Z</time></trkpt><trkpt lat="45.8956441" lon="13.2934071"><ele>21.0</ele><time>2026-04-25T08:40:12.109Z</time></trkpt><trkpt lat="45.8955773" lon="13.2937284"><ele>21.0</ele><time>2026-04-25T08:40:13.108Z</time></trkpt><trkpt lat="45.8955077" lon="13.2940498"><ele>21.5</ele><time>2026-04-25T08:40:14.102Z</time></trkpt><trkpt lat="45.8954372" lon="13.2943756"><ele>22.0</ele><time>2026-04-25T08:40:15.112Z</time></trkpt><trkpt lat="45.8953662" lon="13.2947038"><ele>22.5</ele><time>2026-04-25T08:40:16.103Z</time></trkpt><trkpt lat="45.8952912" lon="13.2950296"><ele>23.0</ele><time>2026-04-25T08:40:17.1Z</time></trkpt><trkpt lat="45.8952204" lon="13.2953614"><ele>22.0</ele><time>2026-04-25T08:40:18.101Z</time></trkpt><trkpt lat="45.8951503" lon="13.2956911"><ele>21.0</ele><time>2026-04-25T08:40:19.108Z</time></trkpt><trkpt lat="45.8950782" lon="13.2960139"><ele>21.0</ele><time>2026-04-25T08:40:20.105Z</time></trkpt><trkpt lat="45.8950076" lon="13.2963227"><ele>21.0</ele><time>2026-04-25T08:40:21.103Z</time></trkpt><trkpt lat="45.8949366" lon="13.2966262"><ele>21.0</ele><time>2026-04-25T08:40:22.106Z</time></trkpt><trkpt lat="45.8948703" lon="13.296929"><ele>21.0</ele><time>2026-04-25T08:40:23.102Z</time></trkpt><trkpt lat="45.8948042" lon="13.2972372"><ele>21.0</ele><time>2026-04-25T08:40:24.103Z</time></trkpt><trkpt lat="45.8947379" lon="13.2975442"><ele>21.0</ele><time>2026-04-25T08:40:25.1Z</time></trkpt><trkpt lat="45.8946687" lon="13.297846"><ele>20.666666666666668</ele><time>2026-04-25T08:40:26.108Z</time></trkpt><trkpt lat="45.8946025" lon="13.2981524"><ele>20.333333333333336</ele><time>2026-04-25T08:40:27.104Z</time></trkpt><trkpt lat="45.8945389" lon="13.2984595"><ele>20.0</ele><time>2026-04-25T08:40:28.107Z</time></trkpt><trkpt lat="45.8944717" lon="13.2987759"><ele>20.5</ele><time>2026-04-25T08:40:29.103Z</time></trkpt><trkpt lat="45.894403" lon="13.2990856"><ele>21.0</ele><time>2026-04-25T08:40:30.093Z</time></trkpt><trkpt lat="45.8943328" lon="13.2994027"><ele>21.0</ele><time>2026-04-25T08:40:31.113Z</time></trkpt><trkpt lat="45.8942652" lon="13.2997232"><ele>21.0</ele><time>2026-04-25T08:40:32.1Z</time></trkpt><trkpt lat="45.8942008" lon="13.3000435"><ele>21.5</ele><time>2026-04-25T08:40:33.102Z</time></trkpt><trkpt lat="45.8941306" lon="13.3003513"><ele>22.0</ele><time>2026-04-25T08:40:34.101Z</time></trkpt><trkpt lat="45.8940626" lon="13.3006598"><ele>22.0</ele><time>2026-04-25T08:40:35.103Z</time></trkpt><trkpt lat="45.8939956" lon="13.3009656"><ele>22.0</ele><time>2026-04-25T08:40:36.098Z</time></trkpt><trkpt lat="45.8939309" lon="13.3012603"><ele>22.0</ele><time>2026-04-25T08:40:37.101Z</time></trkpt><trkpt lat="45.8938668" lon="13.3015556"><ele>22.333333333333332</ele><time>2026-04-25T08:40:38.094Z</time></trkpt><trkpt lat="45.8938021" lon="13.301853"><ele>22.666666666666668</ele><time>2026-04-25T08:40:39.1Z</time></trkpt><trkpt lat="45.8937374" lon="13.3021481"><ele>23.0</ele><time>2026-04-25T08:40:40.089Z</time></trkpt><trkpt lat="45.8936689" lon="13.3024422"><ele>22.333333333333336</ele><time>2026-04-25T08:40:41.118Z</time></trkpt><trkpt lat="45.8936107" lon="13.3027335"><ele>21.666666666666668</ele><time>2026-04-25T08:40:42.112Z</time></trkpt><trkpt lat="45.893552" lon="13.3030139"><ele>21.0</ele><time>2026-04-25T08:40:43.11Z</time></trkpt><trkpt lat="45.8934899" lon="13.303286"><ele>21.0</ele><time>2026-04-25T08:40:44.118Z</time></trkpt><trkpt lat="45.8934312" lon="13.3035671"><ele>21.0</ele><time>2026-04-25T08:40:45.112Z</time></trkpt><trkpt lat="45.8933693" lon="13.3038526"><ele>21.0</ele><time>2026-04-25T08:40:46.102Z</time></trkpt><trkpt lat="45.893305" lon="13.3041435"><ele>21.0</ele><time>2026-04-25T08:40:47.101Z</time></trkpt><trkpt lat="45.893238" lon="13.3044315"><ele>21.0</ele><time>2026-04-25T08:40:48.106Z</time></trkpt><trkpt lat="45.8931689" lon="13.3047232"><ele>21.0</ele><time>2026-04-25T08:40:49.113Z</time></trkpt><trkpt lat="45.8931057" lon="13.3050216"><ele>21.0</ele><time>2026-04-25T08:40:50.104Z</time></trkpt><trkpt lat="45.8930376" lon="13.3053287"><ele>21.0</ele><time>2026-04-25T08:40:51.097Z</time></trkpt><trkpt lat="45.8929706" lon="13.3056385"><ele>21.0</ele><time>2026-04-25T08:40:52.099Z</time></trkpt><trkpt lat="45.8928993" lon="13.305951"><ele>21.0</ele><time>2026-04-25T08:40:53.104Z</time></trkpt><trkpt lat="45.8928338" lon="13.3062626"><ele>21.0</ele><time>2026-04-25T08:40:54.102Z</time></trkpt><trkpt lat="45.8927695" lon="13.3065708"><ele>21.0</ele><time>2026-04-25T08:40:55.102Z</time></trkpt><trkpt lat="45.8927033" lon="13.3068759"><ele>21.0</ele><time>2026-04-25T08:40:56.108Z</time></trkpt><trkpt lat="45.8926373" lon="13.3071834"><ele>21.333333333333332</ele><time>2026-04-25T08:40:57.099Z</time></trkpt><trkpt lat="45.8925722" lon="13.3074923"><ele>21.666666666666664</ele><time>2026-04-25T08:40:58.111Z</time></trkpt><trkpt lat="45.8925089" lon="13.3078003"><ele>22.0</ele><time>2026-04-25T08:40:59.101Z</time></trkpt><trkpt lat="45.8924393" lon="13.3081035"><ele>22.0</ele><time>2026-04-25T08:41:00.1Z</time></trkpt><trkpt lat="45.8923698" lon="13.3084106"><ele>22.0</ele><time>2026-04-25T08:41:01.103Z</time></trkpt><trkpt lat="45.8923015" lon="13.3087185"><ele>21.666666666666664</ele><time>2026-04-25T08:41:02.099Z</time></trkpt><trkpt lat="45.8922324" lon="13.3090208"><ele>21.333333333333332</ele><time>2026-04-25T08:41:03.103Z</time></trkpt><trkpt lat="45.892167" lon="13.3093292"><ele>21.0</ele><time>2026-04-25T08:41:04.095Z</time></trkpt><trkpt lat="45.8921019" lon="13.309634"><ele>21.333333333333332</ele><time>2026-04-25T08:41:05.099Z</time></trkpt><trkpt lat="45.8920412" lon="13.309939"><ele>21.666666666666664</ele><time>2026-04-25T08:41:06.1Z</time></trkpt><trkpt lat="45.891978" lon="13.3102495"><ele>22.0</ele><time>2026-04-25T08:41:07.094Z</time></trkpt><trkpt lat="45.8919071" lon="13.3105564"><ele>22.0</ele><time>2026-04-25T08:41:08.111Z</time></trkpt><trkpt lat="45.8918398" lon="13.3108641"><ele>22.0</ele><time>2026-04-25T08:41:09.096Z</time></trkpt><trkpt lat="45.8917716" lon="13.3111677"><ele>22.0</ele><time>2026-04-25T08:41:10.107Z</time></trkpt><trkpt lat="45.8917024" lon="13.3114692"><ele>22.0</ele><time>2026-04-25T08:41:11.106Z</time></trkpt><trkpt lat="45.8916372" lon="13.3117712"><ele>22.0</ele><time>2026-04-25T08:41:12.109Z</time></trkpt><trkpt lat="45.8915729" lon="13.3120706"><ele>22.0</ele><time>2026-04-25T08:41:13.103Z</time></trkpt><trkpt lat="45.8915072" lon="13.3123746"><ele>22.5</ele><time>2026-04-25T08:41:14.095Z</time></trkpt><trkpt lat="45.8914377" lon="13.3126843"><ele>23.0</ele><time>2026-04-25T08:41:15.104Z</time></trkpt><trkpt lat="45.8913714" lon="13.3129984"><ele>21.0</ele><time>2026-04-25T08:41:16.103Z</time></trkpt><trkpt lat="45.8913009" lon="13.313312"><ele>19.0</ele><time>2026-04-25T08:41:17.099Z</time></trkpt><trkpt lat="45.8912359" lon="13.3136283"><ele>18.0</ele><time>2026-04-25T08:41:18.104Z</time></trkpt><trkpt lat="45.891165" lon="13.3139527"><ele>17.0</ele><time>2026-04-25T08:41:19.102Z</time></trkpt><trkpt lat="45.8910904" lon="13.3142936"><ele>17.0</ele><time>2026-04-25T08:41:20.114Z</time></trkpt><trkpt lat="45.8910159" lon="13.3146549"><ele>17.0</ele><time>2026-04-25T08:41:21.11Z</time></trkpt><trkpt lat="45.8909419" lon="13.3150348"><ele>18.5</ele><time>2026-04-25T08:41:22.101Z</time></trkpt><trkpt lat="45.8908615" lon="13.3154246"><ele>20.0</ele><time>2026-04-25T08:41:23.108Z</time></trkpt><trkpt lat="45.8907802" lon="13.3158114"><ele>21.0</ele><time>2026-04-25T08:41:24.105Z</time></trkpt><trkpt lat="45.8906948" lon="13.3162032"><ele>22.0</ele><time>2026-04-25T08:41:25.117Z</time></trkpt><trkpt lat="45.8906032" lon="13.3165957"><ele>22.0</ele><time>2026-04-25T08:41:26.099Z</time></trkpt><trkpt lat="45.8905096" lon="13.316986"><ele>22.0</ele><time>2026-04-25T08:41:27.107Z</time></trkpt><trkpt lat="45.8904164" lon="13.3173803"><ele>22.0</ele><time>2026-04-25T08:41:28.109Z</time></trkpt><trkpt lat="45.8903209" lon="13.3177617"><ele>22.0</ele><time>2026-04-25T08:41:29.106Z</time></trkpt><trkpt lat="45.8902246" lon="13.3181466"><ele>20.5</ele><time>2026-04-25T08:41:30.101Z</time></trkpt><trkpt lat="45.8901284" lon="13.3185287"><ele>19.0</ele><time>2026-04-25T08:41:31.096Z</time></trkpt><trkpt lat="45.8900299" lon="13.3189075"><ele>18.5</ele><time>2026-04-25T08:41:32.104Z</time></trkpt><trkpt lat="45.8899349" lon="13.3192849"><ele>18.0</ele><time>2026-04-25T08:41:33.095Z</time></trkpt><trkpt lat="45.8898363" lon="13.3196574"><ele>18.0</ele><time>2026-04-25T08:41:34.097Z</time></trkpt><trkpt lat="45.8897408" lon="13.3200264"><ele>18.0</ele><time>2026-04-25T08:41:35.085Z</time></trkpt><trkpt lat="45.8896436" lon="13.3203872"><ele>18.0</ele><time>2026-04-25T08:41:36.1Z</time></trkpt><trkpt lat="45.8895459" lon="13.3207534"><ele>18.0</ele><time>2026-04-25T08:41:37.097Z</time></trkpt><trkpt lat="45.8894495" lon="13.321118"><ele>17.5</ele><time>2026-04-25T08:41:38.101Z</time></trkpt><trkpt lat="45.8893561" lon="13.3214813"><ele>17.0</ele><time>2026-04-25T08:41:39.101Z</time></trkpt><trkpt lat="45.8892636" lon="13.3218425"><ele>17.5</ele><time>2026-04-25T08:41:40.105Z</time></trkpt><trkpt lat="45.8891728" lon="13.3222001"><ele>18.0</ele><time>2026-04-25T08:41:41.105Z</time></trkpt><trkpt lat="45.8890811" lon="13.3225535"><ele>18.0</ele><time>2026-04-25T08:41:42.105Z</time></trkpt><trkpt lat="45.8889923" lon="13.3229136"><ele>18.0</ele><time>2026-04-25T08:41:43.099Z</time></trkpt><trkpt lat="45.888902" lon="13.3232734"><ele>19.0</ele><time>2026-04-25T08:41:44.106Z</time></trkpt><trkpt lat="45.8888124" lon="13.3236394"><ele>20.0</ele><time>2026-04-25T08:41:45.098Z</time></trkpt><trkpt lat="45.8887228" lon="13.3239996"><ele>20.0</ele><time>2026-04-25T08:41:46.112Z</time></trkpt><trkpt lat="45.8886305" lon="13.3243557"><ele>20.0</ele><time>2026-04-25T08:41:47.106Z</time></trkpt><trkpt lat="45.8885421" lon="13.3247137"><ele>20.5</ele><time>2026-04-25T08:41:48.1Z</time></trkpt><trkpt lat="45.8884534" lon="13.325065"><ele>21.0</ele><time>2026-04-25T08:41:49.101Z</time></trkpt><trkpt lat="45.8883676" lon="13.3254171"><ele>22.0</ele><time>2026-04-25T08:41:50.111Z</time></trkpt><trkpt lat="45.888285" lon="13.3257707"><ele>23.0</ele><time>2026-04-25T08:41:51.101Z</time></trkpt><trkpt lat="45.8881974" lon="13.3261252"><ele>22.0</ele><time>2026-04-25T08:41:52.091Z</time></trkpt><trkpt lat="45.8881097" lon="13.3264779"><ele>21.0</ele><time>2026-04-25T08:41:53.098Z</time></trkpt><trkpt lat="45.8880224" lon="13.3268293"><ele>21.0</ele><time>2026-04-25T08:41:54.105Z</time></trkpt><trkpt lat="45.8879367" lon="13.3271794"><ele>21.0</ele><time>2026-04-25T08:41:55.106Z</time></trkpt><trkpt lat="45.8878518" lon="13.3275278"><ele>20.0</ele><time>2026-04-25T08:41:56.108Z</time></trkpt><trkpt lat="45.8877625" lon="13.3278718"><ele>19.0</ele><time>2026-04-25T08:41:57.103Z</time></trkpt><trkpt lat="45.8876756" lon="13.3282188"><ele>18.5</ele><time>2026-04-25T08:41:58.101Z</time></trkpt><trkpt lat="45.8875884" lon="13.328571"><ele>18.0</ele><time>2026-04-25T08:41:59.104Z</time></trkpt><trkpt lat="45.887501" lon="13.3289219"><ele>17.0</ele><time>2026-04-25T08:42:00.114Z</time></trkpt><trkpt lat="45.8874157" lon="13.3292671"><ele>16.0</ele><time>2026-04-25T08:42:01.104Z</time></trkpt><trkpt lat="45.8873319" lon="13.3296138"><ele>15.0</ele><time>2026-04-25T08:42:02.092Z</time></trkpt><trkpt lat="45.8872472" lon="13.3299617"><ele>14.0</ele><time>2026-04-25T08:42:03.089Z</time></trkpt><trkpt lat="45.8871581" lon="13.3303125"><ele>15.0</ele><time>2026-04-25T08:42:04.099Z</time></trkpt><trkpt lat="45.8870708" lon="13.3306599"><ele>16.0</ele><time>2026-04-25T08:42:05.099Z</time></trkpt><trkpt lat="45.8869821" lon="13.3310058"><ele>16.0</ele><time>2026-04-25T08:42:06.1Z</time></trkpt><trkpt lat="45.8868928" lon="13.3313573"><ele>16.0</ele><time>2026-04-25T08:42:07.103Z</time></trkpt><trkpt lat="45.8868062" lon="13.3317077"><ele>17.5</ele><time>2026-04-25T08:42:08.1Z</time></trkpt><trkpt lat="45.8867218" lon="13.3320581"><ele>19.0</ele><time>2026-04-25T08:42:09.101Z</time></trkpt><trkpt lat="45.8866355" lon="13.332408"><ele>19.0</ele><time>2026-04-25T08:42:10.096Z</time></trkpt><trkpt lat="45.8865482" lon="13.3327621"><ele>19.0</ele><time>2026-04-25T08:42:11.123Z</time></trkpt><trkpt lat="45.8864636" lon="13.3331092"><ele>18.5</ele><time>2026-04-25T08:42:12.104Z</time></trkpt><trkpt lat="45.8863791" lon="13.3334591"><ele>18.0</ele><time>2026-04-25T08:42:13.093Z</time></trkpt><trkpt lat="45.8862929" lon="13.3338103"><ele>18.0</ele><time>2026-04-25T08:42:14.101Z</time></trkpt><trkpt lat="45.8862071" lon="13.3341597"><ele>18.0</ele><time>2026-04-25T08:42:15.098Z</time></trkpt><trkpt lat="45.8861201" lon="13.3345057"><ele>17.5</ele><time>2026-04-25T08:42:16.092Z</time></trkpt><trkpt lat="45.8860353" lon="13.3348549"><ele>17.0</ele><time>2026-04-25T08:42:17.099Z</time></trkpt><trkpt lat="45.8859474" lon="13.3352066"><ele>17.5</ele><time>2026-04-25T08:42:18.109Z</time></trkpt><trkpt lat="45.8858534" lon="13.3355542"><ele>18.0</ele><time>2026-04-25T08:42:19.101Z</time></trkpt><trkpt lat="45.8857615" lon="13.3359059"><ele>18.0</ele><time>2026-04-25T08:42:20.109Z</time></trkpt><trkpt lat="45.8856764" lon="13.3362577"><ele>18.0</ele><time>2026-04-25T08:42:21.1Z</time></trkpt><trkpt lat="45.8855921" lon="13.3366146"><ele>18.0</ele><time>2026-04-25T08:42:22.103Z</time></trkpt><trkpt lat="45.8855066" lon="13.3369694"><ele>18.0</ele><time>2026-04-25T08:42:23.11Z</time></trkpt><trkpt lat="45.8854235" lon="13.3373229"><ele>18.0</ele><time>2026-04-25T08:42:24.102Z</time></trkpt><trkpt lat="45.8853408" lon="13.3376815"><ele>18.0</ele><time>2026-04-25T08:42:25.104Z</time></trkpt><trkpt lat="45.8852536" lon="13.338033"><ele>17.5</ele><time>2026-04-25T08:42:26.097Z</time></trkpt><trkpt lat="45.8851666" lon="13.3383835"><ele>17.0</ele><time>2026-04-25T08:42:27.102Z</time></trkpt><trkpt lat="45.8850773" lon="13.3387282"><ele>17.0</ele><time>2026-04-25T08:42:28.107Z</time></trkpt><trkpt lat="45.88499" lon="13.3390779"><ele>17.0</ele><time>2026-04-25T08:42:29.1Z</time></trkpt><trkpt lat="45.884902" lon="13.3394255"><ele>17.0</ele><time>2026-04-25T08:42:30.103Z</time></trkpt><trkpt lat="45.8848147" lon="13.3397735"><ele>17.0</ele><time>2026-04-25T08:42:31.105Z</time></trkpt><trkpt lat="45.8847275" lon="13.340118"><ele>17.0</ele><time>2026-04-25T08:42:32.097Z</time></trkpt><trkpt lat="45.8846406" lon="13.3404661"><ele>17.0</ele><time>2026-04-25T08:42:33.1Z</time></trkpt><trkpt lat="45.8845521" lon="13.3408147"><ele>18.0</ele><time>2026-04-25T08:42:34.105Z</time></trkpt><trkpt lat="45.884465" lon="13.3411615"><ele>19.0</ele><time>2026-04-25T08:42:35.104Z</time></trkpt><trkpt lat="45.8843777" lon="13.3415117"><ele>19.5</ele><time>2026-04-25T08:42:36.107Z</time></trkpt><trkpt lat="45.8842899" lon="13.34186"><ele>20.0</ele><time>2026-04-25T08:42:37.107Z</time></trkpt><trkpt lat="45.8842052" lon="13.3422043"><ele>20.5</ele><time>2026-04-25T08:42:38.105Z</time></trkpt><trkpt lat="45.8841192" lon="13.3425518"><ele>21.0</ele><time>2026-04-25T08:42:39.104Z</time></trkpt><trkpt lat="45.8840287" lon="13.3429016"><ele>19.5</ele><time>2026-04-25T08:42:40.104Z</time></trkpt><trkpt lat="45.8839431" lon="13.3432438"><ele>18.0</ele><time>2026-04-25T08:42:41.101Z</time></trkpt><trkpt lat="45.8838595" lon="13.3435858"><ele>17.0</ele><time>2026-04-25T08:42:42.102Z</time></trkpt><trkpt lat="45.8837792" lon="13.3439342"><ele>16.0</ele><time>2026-04-25T08:42:43.095Z</time></trkpt><trkpt lat="45.8836973" lon="13.3442779"><ele>16.0</ele><time>2026-04-25T08:42:44.092Z</time></trkpt><trkpt lat="45.8836145" lon="13.3446221"><ele>16.0</ele><time>2026-04-25T08:42:45.098Z</time></trkpt><trkpt lat="45.8835264" lon="13.3449606"><ele>17.0</ele><time>2026-04-25T08:42:46.104Z</time></trkpt><trkpt lat="45.8834401" lon="13.3453071"><ele>18.0</ele><time>2026-04-25T08:42:47.106Z</time></trkpt><trkpt lat="45.8833519" lon="13.3456561"><ele>19.0</ele><time>2026-04-25T08:42:48.106Z</time></trkpt><trkpt lat="45.8832605" lon="13.3460027"><ele>20.0</ele><time>2026-04-25T08:42:49.106Z</time></trkpt><trkpt lat="45.8831716" lon="13.3463542"><ele>20.0</ele><time>2026-04-25T08:42:50.104Z</time></trkpt><trkpt lat="45.8830864" lon="13.3467149"><ele>20.0</ele><time>2026-04-25T08:42:51.107Z</time></trkpt><trkpt lat="45.883004" lon="13.3470747"><ele>19.5</ele><time>2026-04-25T08:42:52.104Z</time></trkpt><trkpt lat="45.8829195" lon="13.3474335"><ele>19.0</ele><time>2026-04-25T08:42:53.101Z</time></trkpt><trkpt lat="45.8828381" lon="13.3477958"><ele>18.5</ele><time>2026-04-25T08:42:54.098Z</time></trkpt><trkpt lat="45.8827539" lon="13.3481552"><ele>18.0</ele><time>2026-04-25T08:42:55.106Z</time></trkpt><trkpt lat="45.8826683" lon="13.348516"><ele>18.0</ele><time>2026-04-25T08:42:56.101Z</time></trkpt><trkpt lat="45.8825766" lon="13.3488768"><ele>18.0</ele><time>2026-04-25T08:42:57.104Z</time></trkpt><trkpt lat="45.8824878" lon="13.3492326"><ele>18.0</ele><time>2026-04-25T08:42:58.098Z</time></trkpt><trkpt lat="45.8824028" lon="13.3495982"><ele>18.0</ele><time>2026-04-25T08:42:59.106Z</time></trkpt><trkpt lat="45.8823141" lon="13.3499578"><ele>18.0</ele><time>2026-04-25T08:43:00.108Z</time></trkpt><trkpt lat="45.8822238" lon="13.3503103"><ele>18.0</ele><time>2026-04-25T08:43:01.116Z</time></trkpt><trkpt lat="45.882136" lon="13.3506679"><ele>17.5</ele><time>2026-04-25T08:43:02.105Z</time></trkpt><trkpt lat="45.8820441" lon="13.3510337"><ele>17.0</ele><time>2026-04-25T08:43:03.1Z</time></trkpt><trkpt lat="45.8819537" lon="13.3513913"><ele>17.0</ele><time>2026-04-25T08:43:04.102Z</time></trkpt><trkpt lat="45.8818677" lon="13.3517504"><ele>17.0</ele><time>2026-04-25T08:43:05.105Z</time></trkpt><trkpt lat="45.8817779" lon="13.3521085"><ele>18.0</ele><time>2026-04-25T08:43:06.098Z</time></trkpt><trkpt lat="45.8816888" lon="13.3524646"><ele>19.0</ele><time>2026-04-25T08:43:07.108Z</time></trkpt><trkpt lat="45.8816025" lon="13.3528163"><ele>19.0</ele><time>2026-04-25T08:43:08.1Z</time></trkpt><trkpt lat="45.8815128" lon="13.3531659"><ele>19.0</ele><time>2026-04-25T08:43:09.102Z</time></trkpt><trkpt lat="45.8814233" lon="13.3535145"><ele>19.0</ele><time>2026-04-25T08:43:10.102Z</time></trkpt><trkpt lat="45.8813382" lon="13.3538678"><ele>19.0</ele><time>2026-04-25T08:43:11.106Z</time></trkpt><trkpt lat="45.8812509" lon="13.3542173"><ele>18.0</ele><time>2026-04-25T08:43:12.104Z</time></trkpt><trkpt lat="45.8811627" lon="13.354563"><ele>17.0</ele><time>2026-04-25T08:43:13.103Z</time></trkpt><trkpt lat="45.8810762" lon="13.3549199"><ele>16.5</ele><time>2026-04-25T08:43:14.1Z</time></trkpt><trkpt lat="45.8809847" lon="13.3552776"><ele>16.0</ele><time>2026-04-25T08:43:15.1Z</time></trkpt><trkpt lat="45.8808948" lon="13.3556364"><ele>16.0</ele><time>2026-04-25T08:43:16.11Z</time></trkpt><trkpt lat="45.8808046" lon="13.3559962"><ele>16.0</ele><time>2026-04-25T08:43:17.103Z</time></trkpt><trkpt lat="45.8807198" lon="13.3563543"><ele>16.5</ele><time>2026-04-25T08:43:18.103Z</time></trkpt><trkpt lat="45.8806317" lon="13.3567119"><ele>17.0</ele><time>2026-04-25T08:43:19.116Z</time></trkpt><trkpt lat="45.8805453" lon="13.3570687"><ele>16.0</ele><time>2026-04-25T08:43:20.103Z</time></trkpt><trkpt lat="45.8804569" lon="13.3574284"><ele>15.0</ele><time>2026-04-25T08:43:21.108Z</time></trkpt><trkpt lat="45.8803691" lon="13.3577841"><ele>15.0</ele><time>2026-04-25T08:43:22.105Z</time></trkpt><trkpt lat="45.8802812" lon="13.3581373"><ele>15.0</ele><time>2026-04-25T08:43:23.106Z</time></trkpt><trkpt lat="45.8801931" lon="13.3584916"><ele>15.0</ele><time>2026-04-25T08:43:24.098Z</time></trkpt><trkpt lat="45.8801101" lon="13.3588459"><ele>15.0</ele><time>2026-04-25T08:43:25.104Z</time></trkpt><trkpt lat="45.8800248" lon="13.359195"><ele>15.5</ele><time>2026-04-25T08:43:26.106Z</time></trkpt><trkpt lat="45.8799361" lon="13.3595409"><ele>16.0</ele><time>2026-04-25T08:43:27.095Z</time></trkpt><trkpt lat="45.8798402" lon="13.3598823"><ele>16.0</ele><time>2026-04-25T08:43:28.114Z</time></trkpt><trkpt lat="45.8797471" lon="13.3602182"><ele>16.0</ele><time>2026-04-25T08:43:29.105Z</time></trkpt><trkpt lat="45.8796525" lon="13.3605594"><ele>16.0</ele><time>2026-04-25T08:43:30.112Z</time></trkpt><trkpt lat="45.8795646" lon="13.3608998"><ele>16.0</ele><time>2026-04-25T08:43:31.103Z</time></trkpt><trkpt lat="45.8794773" lon="13.3612469"><ele>16.0</ele><time>2026-04-25T08:43:32.1Z</time></trkpt><trkpt lat="45.8793917" lon="13.3615892"><ele>16.0</ele><time>2026-04-25T08:43:33.096Z</time></trkpt><trkpt lat="45.879306" lon="13.3619296"><ele>16.5</ele><time>2026-04-25T08:43:34.092Z</time></trkpt><trkpt lat="45.8792194" lon="13.3622723"><ele>17.0</ele><time>2026-04-25T08:43:35.109Z</time></trkpt><trkpt lat="45.8791329" lon="13.3626045"><ele>17.0</ele><time>2026-04-25T08:43:36.103Z</time></trkpt><trkpt lat="45.8790461" lon="13.3629434"><ele>17.0</ele><time>2026-04-25T08:43:37.101Z</time></trkpt><trkpt lat="45.8789644" lon="13.3632814"><ele>17.0</ele><time>2026-04-25T08:43:38.097Z</time></trkpt><trkpt lat="45.8788839" lon="13.3636221"><ele>17.0</ele><time>2026-04-25T08:43:39.1Z</time></trkpt><trkpt lat="45.8788036" lon="13.3639594"><ele>17.0</ele><time>2026-04-25T08:43:40.101Z</time></trkpt><trkpt lat="45.8787191" lon="13.3643016"><ele>17.0</ele><time>2026-04-25T08:43:41.109Z</time></trkpt><trkpt lat="45.8786333" lon="13.3646405"><ele>18.0</ele><time>2026-04-25T08:43:42.108Z</time></trkpt><trkpt lat="45.8785497" lon="13.3649783"><ele>19.0</ele><time>2026-04-25T08:43:43.105Z</time></trkpt><trkpt lat="45.8784689" lon="13.3653187"><ele>15.5</ele><time>2026-04-25T08:43:44.091Z</time></trkpt><trkpt lat="45.8783833" lon="13.365664"><ele>12.0</ele><time>2026-04-25T08:43:45.105Z</time></trkpt><trkpt lat="45.8782994" lon="13.3660015"><ele>12.0</ele><time>2026-04-25T08:43:46.103Z</time></trkpt><trkpt lat="45.8782119" lon="13.3663464"><ele>12.0</ele><time>2026-04-25T08:43:47.115Z</time></trkpt><trkpt lat="45.8781267" lon="13.3666834"><ele>13.5</ele><time>2026-04-25T08:43:48.094Z</time></trkpt><trkpt lat="45.8780399" lon="13.3670284"><ele>15.0</ele><time>2026-04-25T08:43:49.102Z</time></trkpt><trkpt lat="45.8779548" lon="13.3673718"><ele>16.0</ele><time>2026-04-25T08:43:50.107Z</time></trkpt><trkpt lat="45.8778685" lon="13.3677102"><ele>17.0</ele><time>2026-04-25T08:43:51.099Z</time></trkpt><trkpt lat="45.877784" lon="13.3680508"><ele>18.0</ele><time>2026-04-25T08:43:52.103Z</time></trkpt><trkpt lat="45.8777012" lon="13.3683887"><ele>19.0</ele><time>2026-04-25T08:43:53.098Z</time></trkpt><trkpt lat="45.8776183" lon="13.36873"><ele>18.0</ele><time>2026-04-25T08:43:54.106Z</time></trkpt><trkpt lat="45.8775337" lon="13.3690718"><ele>17.0</ele><time>2026-04-25T08:43:55.105Z</time></trkpt><trkpt lat="45.8774483" lon="13.3694124"><ele>16.5</ele><time>2026-04-25T08:43:56.103Z</time></trkpt><trkpt lat="45.8773604" lon="13.3697528"><ele>16.0</ele><time>2026-04-25T08:43:57.106Z</time></trkpt><trkpt lat="45.8772746" lon="13.370091"><ele>16.0</ele><time>2026-04-25T08:43:58.103Z</time></trkpt><trkpt lat="45.8771869" lon="13.3704314"><ele>16.0</ele><time>2026-04-25T08:43:59.11Z</time></trkpt><trkpt lat="45.8771027" lon="13.3707704"><ele>15.5</ele><time>2026-04-25T08:44:00.106Z</time></trkpt><trkpt lat="45.8770191" lon="13.3711122"><ele>15.0</ele><time>2026-04-25T08:44:01.101Z</time></trkpt><trkpt lat="45.8769344" lon="13.3714538"><ele>14.5</ele><time>2026-04-25T08:44:02.103Z</time></trkpt><trkpt lat="45.8768517" lon="13.371797"><ele>14.0</ele><time>2026-04-25T08:44:03.097Z</time></trkpt><trkpt lat="45.8767707" lon="13.3721415"><ele>13.5</ele><time>2026-04-25T08:44:04.106Z</time></trkpt><trkpt lat="45.87669" lon="13.3724828"><ele>13.0</ele><time>2026-04-25T08:44:05.097Z</time></trkpt><trkpt lat="45.8766055" lon="13.3728263"><ele>13.0</ele><time>2026-04-25T08:44:06.112Z</time></trkpt><trkpt lat="45.8765216" lon="13.3731717"><ele>13.0</ele><time>2026-04-25T08:44:07.101Z</time></trkpt><trkpt lat="45.8764352" lon="13.3735132"><ele>13.5</ele><time>2026-04-25T08:44:08.097Z</time></trkpt><trkpt lat="45.8763447" lon="13.3738624"><ele>14.0</ele><time>2026-04-25T08:44:09.108Z</time></trkpt><trkpt lat="45.8762547" lon="13.3742165"><ele>14.0</ele><time>2026-04-25T08:44:10.099Z</time></trkpt><trkpt lat="45.8761676" lon="13.3745701"><ele>14.0</ele><time>2026-04-25T08:44:11.097Z</time></trkpt><trkpt lat="45.8760779" lon="13.3749254"><ele>14.5</ele><time>2026-04-25T08:44:12.1Z</time></trkpt><trkpt lat="45.8759867" lon="13.3752782"><ele>15.0</ele><time>2026-04-25T08:44:13.103Z</time></trkpt><trkpt lat="45.8758968" lon="13.3756221"><ele>15.0</ele><time>2026-04-25T08:44:14.106Z</time></trkpt><trkpt lat="45.8758117" lon="13.3759683"><ele>15.0</ele><time>2026-04-25T08:44:15.092Z</time></trkpt><trkpt lat="45.8757289" lon="13.3763169"><ele>15.5</ele><time>2026-04-25T08:44:16.104Z</time></trkpt><trkpt lat="45.8756464" lon="13.3766565"><ele>16.0</ele><time>2026-04-25T08:44:17.101Z</time></trkpt><trkpt lat="45.8755604" lon="13.3770016"><ele>15.5</ele><time>2026-04-25T08:44:18.098Z</time></trkpt><trkpt lat="45.8754786" lon="13.3773442"><ele>15.0</ele><time>2026-04-25T08:44:19.102Z</time></trkpt><trkpt lat="45.8753987" lon="13.3776667"><ele>15.0</ele><time>2026-04-25T08:44:20.104Z</time></trkpt><trkpt lat="45.8753257" lon="13.3779629"><ele>15.0</ele><time>2026-04-25T08:44:21.106Z</time></trkpt><trkpt lat="45.8752555" lon="13.3782801"><ele>15.0</ele><time>2026-04-25T08:44:22.11Z</time></trkpt><trkpt lat="45.8751832" lon="13.378612"><ele>15.0</ele><time>2026-04-25T08:44:23.103Z</time></trkpt><trkpt lat="45.8751064" lon="13.3789457"><ele>16.0</ele><time>2026-04-25T08:44:24.1Z</time></trkpt><trkpt lat="45.8750249" lon="13.3792944"><ele>17.0</ele><time>2026-04-25T08:44:25.11Z</time></trkpt><trkpt lat="45.874939" lon="13.3796468"><ele>17.0</ele><time>2026-04-25T08:44:26.105Z</time></trkpt><trkpt lat="45.8748508" lon="13.3799959"><ele>17.0</ele><time>2026-04-25T08:44:27.108Z</time></trkpt><trkpt lat="45.8747608" lon="13.3803398"><ele>17.0</ele><time>2026-04-25T08:44:28.103Z</time></trkpt><trkpt lat="45.8746637" lon="13.3806821"><ele>17.0</ele><time>2026-04-25T08:44:29.112Z</time></trkpt><trkpt lat="45.8745667" lon="13.3810199"><ele>17.5</ele><time>2026-04-25T08:44:30.104Z</time></trkpt><trkpt lat="45.8744757" lon="13.3813521"><ele>18.0</ele><time>2026-04-25T08:44:31.114Z</time></trkpt><trkpt lat="45.8743853" lon="13.3816945"><ele>18.0</ele><time>2026-04-25T08:44:32.109Z</time></trkpt><trkpt lat="45.8742983" lon="13.3820407"><ele>18.0</ele><time>2026-04-25T08:44:33.108Z</time></trkpt><trkpt lat="45.8742121" lon="13.3823912"><ele>16.5</ele><time>2026-04-25T08:44:34.104Z</time></trkpt><trkpt lat="45.8741232" lon="13.3827357"><ele>15.0</ele><time>2026-04-25T08:44:35.1Z</time></trkpt><trkpt lat="45.874037" lon="13.383083"><ele>15.0</ele><time>2026-04-25T08:44:36.103Z</time></trkpt><trkpt lat="45.8739495" lon="13.3834425"><ele>15.0</ele><time>2026-04-25T08:44:37.102Z</time></trkpt><trkpt lat="45.8738557" lon="13.3837993"><ele>15.5</ele><time>2026-04-25T08:44:38.102Z</time></trkpt><trkpt lat="45.8737725" lon="13.3841561"><ele>16.0</ele><time>2026-04-25T08:44:39.102Z</time></trkpt><trkpt lat="45.8736881" lon="13.3845077"><ele>14.5</ele><time>2026-04-25T08:44:40.113Z</time></trkpt><trkpt lat="45.8736034" lon="13.3848561"><ele>13.0</ele><time>2026-04-25T08:44:41.111Z</time></trkpt><trkpt lat="45.8735201" lon="13.3852078"><ele>13.5</ele><time>2026-04-25T08:44:42.099Z</time></trkpt><trkpt lat="45.8734327" lon="13.3855576"><ele>14.0</ele><time>2026-04-25T08:44:43.107Z</time></trkpt><trkpt lat="45.8733462" lon="13.3858985"><ele>14.0</ele><time>2026-04-25T08:44:44.105Z</time></trkpt><trkpt lat="45.8732606" lon="13.386243"><ele>14.0</ele><time>2026-04-25T08:44:45.119Z</time></trkpt><trkpt lat="45.8731746" lon="13.386587"><ele>14.5</ele><time>2026-04-25T08:44:46.108Z</time></trkpt><trkpt lat="45.8730923" lon="13.3869211"><ele>15.0</ele><time>2026-04-25T08:44:47.116Z</time></trkpt><trkpt lat="45.8730086" lon="13.3872561"><ele>15.5</ele><time>2026-04-25T08:44:48.118Z</time></trkpt><trkpt lat="45.872926" lon="13.3875887"><ele>16.0</ele><time>2026-04-25T08:44:49.108Z</time></trkpt><trkpt lat="45.87284" lon="13.3879202"><ele>17.0</ele><time>2026-04-25T08:44:50.104Z</time></trkpt><trkpt lat="45.8727536" lon="13.3882559"><ele>18.0</ele><time>2026-04-25T08:44:51.104Z</time></trkpt><trkpt lat="45.8726705" lon="13.3885871"><ele>16.5</ele><time>2026-04-25T08:44:52.11Z</time></trkpt><trkpt lat="45.8725895" lon="13.3889258"><ele>15.0</ele><time>2026-04-25T08:44:53.112Z</time></trkpt><trkpt lat="45.8725033" lon="13.3892696"><ele>15.0</ele><time>2026-04-25T08:44:54.104Z</time></trkpt><trkpt lat="45.8724148" lon="13.3896165"><ele>15.0</ele><time>2026-04-25T08:44:55.101Z</time></trkpt><trkpt lat="45.8723296" lon="13.3899688"><ele>15.0</ele><time>2026-04-25T08:44:56.108Z</time></trkpt><trkpt lat="45.8722434" lon="13.3903256"><ele>15.0</ele><time>2026-04-25T08:44:57.108Z</time></trkpt><trkpt lat="45.8721561" lon="13.3906819"><ele>16.0</ele><time>2026-04-25T08:44:58.106Z</time></trkpt><trkpt lat="45.8720699" lon="13.391039"><ele>17.0</ele><time>2026-04-25T08:44:59.112Z</time></trkpt><trkpt lat="45.8719799" lon="13.3913852"><ele>17.0</ele><time>2026-04-25T08:45:00.108Z</time></trkpt><trkpt lat="45.8718928" lon="13.3917328"><ele>17.0</ele><time>2026-04-25T08:45:01.112Z</time></trkpt><trkpt lat="45.8718059" lon="13.3920868"><ele>16.5</ele><time>2026-04-25T08:45:02.097Z</time></trkpt><trkpt lat="45.8717186" lon="13.3924273"><ele>16.0</ele><time>2026-04-25T08:45:03.103Z</time></trkpt><trkpt lat="45.8716317" lon="13.3927731"><ele>15.0</ele><time>2026-04-25T08:45:04.11Z</time></trkpt><trkpt lat="45.8715444" lon="13.3931158"><ele>14.0</ele><time>2026-04-25T08:45:05.112Z</time></trkpt><trkpt lat="45.8714584" lon="13.3934594"><ele>14.0</ele><time>2026-04-25T08:45:06.106Z</time></trkpt><trkpt lat="45.8713751" lon="13.3937999"><ele>14.0</ele><time>2026-04-25T08:45:07.099Z</time></trkpt><trkpt lat="45.8712905" lon="13.3941406"><ele>14.0</ele><time>2026-04-25T08:45:08.1Z</time></trkpt><trkpt lat="45.8712098" lon="13.3944839"><ele>14.0</ele><time>2026-04-25T08:45:09.112Z</time></trkpt><trkpt lat="45.871125" lon="13.3948269"><ele>14.0</ele><time>2026-04-25T08:45:10.118Z</time></trkpt><trkpt lat="45.87104" lon="13.3951681"><ele>14.0</ele><time>2026-04-25T08:45:11.1Z</time></trkpt><trkpt lat="45.8709535" lon="13.3955016"><ele>14.5</ele><time>2026-04-25T08:45:12.101Z</time></trkpt><trkpt lat="45.8708704" lon="13.3958416"><ele>15.0</ele><time>2026-04-25T08:45:13.099Z</time></trkpt><trkpt lat="45.8707869" lon="13.3961774"><ele>14.5</ele><time>2026-04-25T08:45:14.113Z</time></trkpt><trkpt lat="45.8706986" lon="13.3965198"><ele>14.0</ele><time>2026-04-25T08:45:15.093Z</time></trkpt><trkpt lat="45.8706146" lon="13.3968621"><ele>14.5</ele><time>2026-04-25T08:45:16.105Z</time></trkpt><trkpt lat="45.8705302" lon="13.3972049"><ele>15.0</ele><time>2026-04-25T08:45:17.113Z</time></trkpt><trkpt lat="45.8704443" lon="13.3975516"><ele>15.0</ele><time>2026-04-25T08:45:18.103Z</time></trkpt><trkpt lat="45.8703596" lon="13.3978991"><ele>15.0</ele><time>2026-04-25T08:45:19.107Z</time></trkpt><trkpt lat="45.870272" lon="13.3982368"><ele>15.0</ele><time>2026-04-25T08:45:20.106Z</time></trkpt><trkpt lat="45.8701806" lon="13.3985739"><ele>15.0</ele><time>2026-04-25T08:45:21.1Z</time></trkpt><trkpt lat="45.8700871" lon="13.3989098"><ele>15.0</ele><time>2026-04-25T08:45:22.103Z</time></trkpt><trkpt lat="45.8699964" lon="13.399245"><ele>15.0</ele><time>2026-04-25T08:45:23.098Z</time></trkpt><trkpt lat="45.8698981" lon="13.3995684"><ele>16.0</ele><time>2026-04-25T08:45:24.109Z</time></trkpt><trkpt lat="45.869797" lon="13.3998956"><ele>17.0</ele><time>2026-04-25T08:45:25.109Z</time></trkpt><trkpt lat="45.8696943" lon="13.4002212"><ele>16.5</ele><time>2026-04-25T08:45:26.101Z</time></trkpt><trkpt lat="45.8695849" lon="13.4005488"><ele>16.0</ele><time>2026-04-25T08:45:27.102Z</time></trkpt><trkpt lat="45.8694762" lon="13.400872"><ele>16.0</ele><time>2026-04-25T08:45:28.119Z</time></trkpt><trkpt lat="45.8693613" lon="13.4011999"><ele>16.0</ele><time>2026-04-25T08:45:29.097Z</time></trkpt><trkpt lat="45.8692427" lon="13.4015228"><ele>16.0</ele><time>2026-04-25T08:45:30.107Z</time></trkpt><trkpt lat="45.8691196" lon="13.4018371"><ele>16.0</ele><time>2026-04-25T08:45:31.099Z</time></trkpt><trkpt lat="45.8689917" lon="13.4021523"><ele>15.0</ele><time>2026-04-25T08:45:32.099Z</time></trkpt><trkpt lat="45.868867" lon="13.402467"><ele>14.0</ele><time>2026-04-25T08:45:33.097Z</time></trkpt><trkpt lat="45.8687384" lon="13.4027847"><ele>14.0</ele><time>2026-04-25T08:45:34.099Z</time></trkpt><trkpt lat="45.8686069" lon="13.4031032"><ele>14.0</ele><time>2026-04-25T08:45:35.113Z</time></trkpt><trkpt lat="45.8684693" lon="13.4034234"><ele>14.0</ele><time>2026-04-25T08:45:36.116Z</time></trkpt><trkpt lat="45.8683394" lon="13.4037423"><ele>14.0</ele><time>2026-04-25T08:45:37.1Z</time></trkpt><trkpt lat="45.8682088" lon="13.4040505"><ele>14.0</ele><time>2026-04-25T08:45:38.101Z</time></trkpt><trkpt lat="45.8680775" lon="13.4043692"><ele>14.0</ele><time>2026-04-25T08:45:39.093Z</time></trkpt><trkpt lat="45.8679456" lon="13.4046823"><ele>14.0</ele><time>2026-04-25T08:45:40.105Z</time></trkpt><trkpt lat="45.8678125" lon="13.4049982"><ele>14.0</ele><time>2026-04-25T08:45:41.108Z</time></trkpt><trkpt lat="45.8676841" lon="13.4053144"><ele>14.0</ele><time>2026-04-25T08:45:42.108Z</time></trkpt><trkpt lat="45.8675537" lon="13.4056258"><ele>14.0</ele><time>2026-04-25T08:45:43.093Z</time></trkpt><trkpt lat="45.8674321" lon="13.4059371"><ele>14.0</ele><time>2026-04-25T08:45:44.101Z</time></trkpt><trkpt lat="45.867313" lon="13.4062525"><ele>14.0</ele><time>2026-04-25T08:45:45.096Z</time></trkpt><trkpt lat="45.8671946" lon="13.4065626"><ele>14.5</ele><time>2026-04-25T08:45:46.093Z</time></trkpt><trkpt lat="45.8670739" lon="13.4068711"><ele>15.0</ele><time>2026-04-25T08:45:47.098Z</time></trkpt><trkpt lat="45.8669503" lon="13.4071887"><ele>15.0</ele><time>2026-04-25T08:45:48.103Z</time></trkpt><trkpt lat="45.8668235" lon="13.4075106"><ele>15.0</ele><time>2026-04-25T08:45:49.114Z</time></trkpt><trkpt lat="45.8666992" lon="13.4078277"><ele>16.0</ele><time>2026-04-25T08:45:50.102Z</time></trkpt><trkpt lat="45.8665719" lon="13.4081439"><ele>17.0</ele><time>2026-04-25T08:45:51.106Z</time></trkpt><trkpt lat="45.8664481" lon="13.4084572"><ele>17.0</ele><time>2026-04-25T08:45:52.1Z</time></trkpt><trkpt lat="45.8663251" lon="13.4087763"><ele>17.0</ele><time>2026-04-25T08:45:53.108Z</time></trkpt><trkpt lat="45.8661981" lon="13.4090882"><ele>16.0</ele><time>2026-04-25T08:45:54.102Z</time></trkpt><trkpt lat="45.8660723" lon="13.4094011"><ele>15.0</ele><time>2026-04-25T08:45:55.11Z</time></trkpt><trkpt lat="45.8659469" lon="13.4097084"><ele>15.5</ele><time>2026-04-25T08:45:56.112Z</time></trkpt><trkpt lat="45.8658216" lon="13.4100249"><ele>16.0</ele><time>2026-04-25T08:45:57.107Z</time></trkpt><trkpt lat="45.8656927" lon="13.4103348"><ele>17.0</ele><time>2026-04-25T08:45:58.099Z</time></trkpt><trkpt lat="45.8655641" lon="13.4106408"><ele>18.0</ele><time>2026-04-25T08:45:59.103Z</time></trkpt><trkpt lat="45.8654372" lon="13.410949"><ele>18.0</ele><time>2026-04-25T08:46:00.111Z</time></trkpt><trkpt lat="45.8653095" lon="13.4112559"><ele>18.0</ele><time>2026-04-25T08:46:01.104Z</time></trkpt><trkpt lat="45.8651821" lon="13.4115622"><ele>17.5</ele><time>2026-04-25T08:46:02.103Z</time></trkpt><trkpt lat="45.8650545" lon="13.41187"><ele>17.0</ele><time>2026-04-25T08:46:03.117Z</time></trkpt><trkpt lat="45.8649275" lon="13.4121813"><ele>16.0</ele><time>2026-04-25T08:46:04.11Z</time></trkpt><trkpt lat="45.8648032" lon="13.412496"><ele>15.0</ele><time>2026-04-25T08:46:05.103Z</time></trkpt><trkpt lat="45.8646767" lon="13.412801"><ele>13.0</ele><time>2026-04-25T08:46:06.097Z</time></trkpt><trkpt lat="45.8645506" lon="13.4131089"><ele>11.0</ele><time>2026-04-25T08:46:07.111Z</time></trkpt><trkpt lat="45.8644222" lon="13.4134186"><ele>11.0</ele><time>2026-04-25T08:46:08.103Z</time></trkpt><trkpt lat="45.8642962" lon="13.4137308"><ele>11.0</ele><time>2026-04-25T08:46:09.102Z</time></trkpt><trkpt lat="45.8641704" lon="13.4140362"><ele>12.5</ele><time>2026-04-25T08:46:10.108Z</time></trkpt><trkpt lat="45.8640426" lon="13.4143406"><ele>14.0</ele><time>2026-04-25T08:46:11.11Z</time></trkpt><trkpt lat="45.8639111" lon="13.4146453"><ele>14.0</ele><time>2026-04-25T08:46:12.118Z</time></trkpt><trkpt lat="45.8637832" lon="13.4149538"><ele>14.0</ele><time>2026-04-25T08:46:13.109Z</time></trkpt><trkpt lat="45.863659" lon="13.415265"><ele>15.0</ele><time>2026-04-25T08:46:14.105Z</time></trkpt><trkpt lat="45.863529" lon="13.4155824"><ele>16.0</ele><time>2026-04-25T08:46:15.105Z</time></trkpt><trkpt lat="45.8634006" lon="13.4158992"><ele>16.0</ele><time>2026-04-25T08:46:16.108Z</time></trkpt><trkpt lat="45.8632714" lon="13.4162136"><ele>16.0</ele><time>2026-04-25T08:46:17.102Z</time></trkpt><trkpt lat="45.8631415" lon="13.4165256"><ele>15.5</ele><time>2026-04-25T08:46:18.113Z</time></trkpt><trkpt lat="45.863014" lon="13.4168392"><ele>15.0</ele><time>2026-04-25T08:46:19.103Z</time></trkpt><trkpt lat="45.8628831" lon="13.4171539"><ele>14.5</ele><time>2026-04-25T08:46:20.112Z</time></trkpt><trkpt lat="45.8627537" lon="13.417466"><ele>14.0</ele><time>2026-04-25T08:46:21.106Z</time></trkpt><trkpt lat="45.8626195" lon="13.4177697"><ele>14.5</ele><time>2026-04-25T08:46:22.112Z</time></trkpt><trkpt lat="45.8624827" lon="13.4180767"><ele>15.0</ele><time>2026-04-25T08:46:23.109Z</time></trkpt><trkpt lat="45.8623563" lon="13.4183855"><ele>15.0</ele><time>2026-04-25T08:46:24.111Z</time></trkpt><trkpt lat="45.8622294" lon="13.4186959"><ele>15.0</ele><time>2026-04-25T08:46:25.102Z</time></trkpt><trkpt lat="45.8621046" lon="13.4189964"><ele>15.5</ele><time>2026-04-25T08:46:26.113Z</time></trkpt><trkpt lat="45.8619823" lon="13.4192997"><ele>16.0</ele><time>2026-04-25T08:46:27.102Z</time></trkpt><trkpt lat="45.8618555" lon="13.4195994"><ele>16.0</ele><time>2026-04-25T08:46:28.103Z</time></trkpt><trkpt lat="45.8617301" lon="13.4199048"><ele>16.0</ele><time>2026-04-25T08:46:29.1Z</time></trkpt><trkpt lat="45.8616024" lon="13.4202109"><ele>16.0</ele><time>2026-04-25T08:46:30.103Z</time></trkpt><trkpt lat="45.8614747" lon="13.4205058"><ele>16.0</ele><time>2026-04-25T08:46:31.112Z</time></trkpt><trkpt lat="45.861351" lon="13.4207908"><ele>16.0</ele><time>2026-04-25T08:46:32.112Z</time></trkpt><trkpt lat="45.8612304" lon="13.421071"><ele>16.0</ele><time>2026-04-25T08:46:33.116Z</time></trkpt><trkpt lat="45.861108" lon="13.4213564"><ele>16.5</ele><time>2026-04-25T08:46:34.106Z</time></trkpt><trkpt lat="45.8609893" lon="13.4216439"><ele>17.0</ele><time>2026-04-25T08:46:35.101Z</time></trkpt><trkpt lat="45.8608629" lon="13.4219251"><ele>18.0</ele><time>2026-04-25T08:46:36.108Z</time></trkpt><trkpt lat="45.8607413" lon="13.4222096"><ele>19.0</ele><time>2026-04-25T08:46:37.106Z</time></trkpt><trkpt lat="45.8606134" lon="13.4225043"><ele>19.0</ele><time>2026-04-25T08:46:38.113Z</time></trkpt><trkpt lat="45.8604848" lon="13.4228"><ele>19.0</ele><time>2026-04-25T08:46:39.099Z</time></trkpt><trkpt lat="45.8603597" lon="13.4230939"><ele>17.0</ele><time>2026-04-25T08:46:40.099Z</time></trkpt><trkpt lat="45.8602341" lon="13.4233932"><ele>15.0</ele><time>2026-04-25T08:46:41.097Z</time></trkpt><trkpt lat="45.8601108" lon="13.4236892"><ele>15.0</ele><time>2026-04-25T08:46:42.108Z</time></trkpt><trkpt lat="45.8599887" lon="13.423991"><ele>15.0</ele><time>2026-04-25T08:46:43.105Z</time></trkpt><trkpt lat="45.8598676" lon="13.4242964"><ele>15.0</ele><time>2026-04-25T08:46:44.096Z</time></trkpt><trkpt lat="45.8597448" lon="13.4245988"><ele>15.0</ele><time>2026-04-25T08:46:45.109Z</time></trkpt><trkpt lat="45.8596242" lon="13.4248962"><ele>15.0</ele><time>2026-04-25T08:46:46.104Z</time></trkpt><trkpt lat="45.8594991" lon="13.4251843"><ele>15.0</ele><time>2026-04-25T08:46:47.101Z</time></trkpt><trkpt lat="45.8593764" lon="13.4254723"><ele>15.0</ele><time>2026-04-25T08:46:48.102Z</time></trkpt><trkpt lat="45.8592562" lon="13.4257548"><ele>15.0</ele><time>2026-04-25T08:46:49.116Z</time></trkpt><trkpt lat="45.8591374" lon="13.426045"><ele>15.0</ele><time>2026-04-25T08:46:50.11Z</time></trkpt><trkpt lat="45.859017" lon="13.4263358"><ele>15.0</ele><time>2026-04-25T08:46:51.104Z</time></trkpt><trkpt lat="45.8588932" lon="13.4266244"><ele>15.0</ele><time>2026-04-25T08:46:52.095Z</time></trkpt><trkpt lat="45.8587739" lon="13.4269118"><ele>15.0</ele><time>2026-04-25T08:46:53.105Z</time></trkpt><trkpt lat="45.8586566" lon="13.4272032"><ele>15.0</ele><time>2026-04-25T08:46:54.1Z</time></trkpt><trkpt lat="45.8585365" lon="13.4274981"><ele>15.0</ele><time>2026-04-25T08:46:55.111Z</time></trkpt><trkpt lat="45.8584199" lon="13.4277902"><ele>14.5</ele><time>2026-04-25T08:46:56.098Z</time></trkpt><trkpt lat="45.858298" lon="13.4280816"><ele>14.0</ele><time>2026-04-25T08:46:57.099Z</time></trkpt><trkpt lat="45.8581736" lon="13.4283715"><ele>14.0</ele><time>2026-04-25T08:46:58.11Z</time></trkpt><trkpt lat="45.8580502" lon="13.4286675"><ele>14.0</ele><time>2026-04-25T08:46:59.107Z</time></trkpt><trkpt lat="45.8579295" lon="13.4289623"><ele>14.5</ele><time>2026-04-25T08:47:00.12Z</time></trkpt><trkpt lat="45.8578106" lon="13.4292581"><ele>15.0</ele><time>2026-04-25T08:47:01.105Z</time></trkpt><trkpt lat="45.8576856" lon="13.4295578"><ele>15.0</ele><time>2026-04-25T08:47:02.1Z</time></trkpt><trkpt lat="45.8575591" lon="13.4298575"><ele>15.0</ele><time>2026-04-25T08:47:03.107Z</time></trkpt><trkpt lat="45.8574331" lon="13.4301599"><ele>15.0</ele><time>2026-04-25T08:47:04.111Z</time></trkpt><trkpt lat="45.8573035" lon="13.4304559"><ele>15.0</ele><time>2026-04-25T08:47:05.1Z</time></trkpt><trkpt lat="45.8571812" lon="13.4307541"><ele>15.0</ele><time>2026-04-25T08:47:06.102Z</time></trkpt><trkpt lat="45.8570611" lon="13.4310482"><ele>15.0</ele><time>2026-04-25T08:47:07.119Z</time></trkpt><trkpt lat="45.8569413" lon="13.4313505"><ele>15.0</ele><time>2026-04-25T08:47:08.106Z</time></trkpt><trkpt lat="45.856824" lon="13.4316387"><ele>15.0</ele><time>2026-04-25T08:47:09.104Z</time></trkpt><trkpt lat="45.856709" lon="13.4319287"><ele>14.0</ele><time>2026-04-25T08:47:10.107Z</time></trkpt><trkpt lat="45.8565939" lon="13.4322199"><ele>13.0</ele><time>2026-04-25T08:47:11.105Z</time></trkpt><trkpt lat="45.8564828" lon="13.4325208"><ele>13.0</ele><time>2026-04-25T08:47:12.106Z</time></trkpt><trkpt lat="45.8563731" lon="13.4328312"><ele>13.0</ele><time>2026-04-25T08:47:13.103Z</time></trkpt><trkpt lat="45.856275" lon="13.433151"><ele>13.0</ele><time>2026-04-25T08:47:14.096Z</time></trkpt><trkpt lat="45.8561763" lon="13.4334807"><ele>13.0</ele><time>2026-04-25T08:47:15.111Z</time></trkpt><trkpt lat="45.8560816" lon="13.4338092"><ele>13.0</ele><time>2026-04-25T08:47:16.108Z</time></trkpt><trkpt lat="45.8559906" lon="13.4341387"><ele>13.0</ele><time>2026-04-25T08:47:17.096Z</time></trkpt><trkpt lat="45.8558974" lon="13.4344722"><ele>13.0</ele><time>2026-04-25T08:47:18.106Z</time></trkpt><trkpt lat="45.8558134" lon="13.4348011"><ele>13.0</ele><time>2026-04-25T08:47:19.101Z</time></trkpt><trkpt lat="45.8557327" lon="13.4351456"><ele>13.5</ele><time>2026-04-25T08:47:20.105Z</time></trkpt><trkpt lat="45.855655" lon="13.4354868"><ele>14.0</ele><time>2026-04-25T08:47:21.106Z</time></trkpt><trkpt lat="45.8555848" lon="13.4358308"><ele>14.0</ele><time>2026-04-25T08:47:22.11Z</time></trkpt><trkpt lat="45.8555103" lon="13.4361749"><ele>14.0</ele><time>2026-04-25T08:47:23.1Z</time></trkpt><trkpt lat="45.8554444" lon="13.4365213"><ele>13.5</ele><time>2026-04-25T08:47:24.111Z</time></trkpt><trkpt lat="45.8553805" lon="13.4368574"><ele>13.0</ele><time>2026-04-25T08:47:25.107Z</time></trkpt><trkpt lat="45.8553258" lon="13.4372037"><ele>13.0</ele><time>2026-04-25T08:47:26.109Z</time></trkpt><trkpt lat="45.8552726" lon="13.4375487"><ele>13.0</ele><time>2026-04-25T08:47:27.111Z</time></trkpt><trkpt lat="45.8552228" lon="13.4378925"><ele>13.0</ele><time>2026-04-25T08:47:28.108Z</time></trkpt><trkpt lat="45.8551717" lon="13.4382337"><ele>13.0</ele><time>2026-04-25T08:47:29.112Z</time></trkpt><trkpt lat="45.8551215" lon="13.4385683"><ele>13.0</ele><time>2026-04-25T08:47:30.105Z</time></trkpt><trkpt lat="45.85507" lon="13.4389126"><ele>13.0</ele><time>2026-04-25T08:47:31.112Z</time></trkpt><trkpt lat="45.8550134" lon="13.439253"><ele>13.0</ele><time>2026-04-25T08:47:32.106Z</time></trkpt><trkpt lat="45.854959" lon="13.439588"><ele>13.0</ele><time>2026-04-25T08:47:33.112Z</time></trkpt><trkpt lat="45.8549088" lon="13.4399154"><ele>13.0</ele><time>2026-04-25T08:47:34.109Z</time></trkpt><trkpt lat="45.8548578" lon="13.4402433"><ele>13.0</ele><time>2026-04-25T08:47:35.115Z</time></trkpt><trkpt lat="45.854808" lon="13.4405653"><ele>13.0</ele><time>2026-04-25T08:47:36.117Z</time></trkpt><trkpt lat="45.8547592" lon="13.4408878"><ele>13.0</ele><time>2026-04-25T08:47:37.108Z</time></trkpt><trkpt lat="45.854712" lon="13.4412058"><ele>12.5</ele><time>2026-04-25T08:47:38.106Z</time></trkpt><trkpt lat="45.8546649" lon="13.4415243"><ele>12.0</ele><time>2026-04-25T08:47:39.114Z</time></trkpt><trkpt lat="45.8546154" lon="13.4418427"><ele>12.5</ele><time>2026-04-25T08:47:40.112Z</time></trkpt><trkpt lat="45.8545699" lon="13.4421644"><ele>13.0</ele><time>2026-04-25T08:47:41.104Z</time></trkpt><trkpt lat="45.8545299" lon="13.4424929"><ele>13.0</ele><time>2026-04-25T08:47:42.107Z</time></trkpt><trkpt lat="45.854488" lon="13.4428267"><ele>13.0</ele><time>2026-04-25T08:47:43.115Z</time></trkpt><trkpt lat="45.8544401" lon="13.4431654"><ele>13.0</ele><time>2026-04-25T08:47:44.113Z</time></trkpt><trkpt lat="45.8543922" lon="13.4435141"><ele>13.0</ele><time>2026-04-25T08:47:45.106Z</time></trkpt><trkpt lat="45.8543469" lon="13.4438679"><ele>13.5</ele><time>2026-04-25T08:47:46.105Z</time></trkpt><trkpt lat="45.854302" lon="13.4442186"><ele>14.0</ele><time>2026-04-25T08:47:47.106Z</time></trkpt><trkpt lat="45.8542553" lon="13.4445646"><ele>14.5</ele><time>2026-04-25T08:47:48.104Z</time></trkpt><trkpt lat="45.8542066" lon="13.444903"><ele>15.0</ele><time>2026-04-25T08:47:49.106Z</time></trkpt><trkpt lat="45.8541575" lon="13.4452536"><ele>15.0</ele><time>2026-04-25T08:47:50.116Z</time></trkpt><trkpt lat="45.8541133" lon="13.4456098"><ele>15.0</ele><time>2026-04-25T08:47:51.106Z</time></trkpt><trkpt lat="45.8540658" lon="13.4459404"><ele>15.0</ele><time>2026-04-25T08:47:52.108Z</time></trkpt><trkpt lat="45.854015" lon="13.4462574"><ele>15.0</ele><time>2026-04-25T08:47:53.11Z</time></trkpt><trkpt lat="45.8539667" lon="13.4465836"><ele>15.0</ele><time>2026-04-25T08:47:54.104Z</time></trkpt><trkpt lat="45.8539222" lon="13.4469088"><ele>15.0</ele><time>2026-04-25T08:47:55.122Z</time></trkpt><trkpt lat="45.8538765" lon="13.4472352"><ele>14.5</ele><time>2026-04-25T08:47:56.104Z</time></trkpt><trkpt lat="45.8538283" lon="13.4475586"><ele>14.0</ele><time>2026-04-25T08:47:57.109Z</time></trkpt><trkpt lat="45.8537793" lon="13.4478783"><ele>14.5</ele><time>2026-04-25T08:47:58.097Z</time></trkpt><trkpt lat="45.8537297" lon="13.4482052"><ele>15.0</ele><time>2026-04-25T08:47:59.109Z</time></trkpt><trkpt lat="45.8536827" lon="13.4485479"><ele>15.0</ele><time>2026-04-25T08:48:00.104Z</time></trkpt><trkpt lat="45.8536388" lon="13.4488964"><ele>15.0</ele><time>2026-04-25T08:48:01.108Z</time></trkpt><trkpt lat="45.8535881" lon="13.4492485"><ele>15.0</ele><time>2026-04-25T08:48:02.116Z</time></trkpt><trkpt lat="45.8535426" lon="13.4496079"><ele>15.0</ele><time>2026-04-25T08:48:03.109Z</time></trkpt><trkpt lat="45.8534913" lon="13.4499677"><ele>15.0</ele><time>2026-04-25T08:48:04.105Z</time></trkpt><trkpt lat="45.8534348" lon="13.4503276"><ele>15.0</ele><time>2026-04-25T08:48:05.102Z</time></trkpt><trkpt lat="45.8533813" lon="13.4506951"><ele>15.0</ele><time>2026-04-25T08:48:06.11Z</time></trkpt><trkpt lat="45.8533276" lon="13.4510698"><ele>15.0</ele><time>2026-04-25T08:48:07.104Z</time></trkpt><trkpt lat="45.8532713" lon="13.4514473"><ele>15.0</ele><time>2026-04-25T08:48:08.114Z</time></trkpt><trkpt lat="45.8532138" lon="13.4518326"><ele>15.0</ele><time>2026-04-25T08:48:09.098Z</time></trkpt><trkpt lat="45.8531518" lon="13.4522126"><ele>14.5</ele><time>2026-04-25T08:48:10.114Z</time></trkpt><trkpt lat="45.8530956" lon="13.4525891"><ele>14.0</ele><time>2026-04-25T08:48:11.104Z</time></trkpt><trkpt lat="45.8530386" lon="13.4529707"><ele>13.0</ele><time>2026-04-25T08:48:12.102Z</time></trkpt><trkpt lat="45.8529848" lon="13.4533534"><ele>12.0</ele><time>2026-04-25T08:48:13.104Z</time></trkpt><trkpt lat="45.8529255" lon="13.4537294"><ele>12.5</ele><time>2026-04-25T08:48:14.109Z</time></trkpt><trkpt lat="45.8528673" lon="13.4541045"><ele>13.0</ele><time>2026-04-25T08:48:15.109Z</time></trkpt><trkpt lat="45.8528094" lon="13.4544787"><ele>13.5</ele><time>2026-04-25T08:48:16.104Z</time></trkpt><trkpt lat="45.8527492" lon="13.4548518"><ele>14.0</ele><time>2026-04-25T08:48:17.11Z</time></trkpt><trkpt lat="45.8526925" lon="13.455218"><ele>14.5</ele><time>2026-04-25T08:48:18.109Z</time></trkpt><trkpt lat="45.8526384" lon="13.4555868"><ele>15.0</ele><time>2026-04-25T08:48:19.099Z</time></trkpt><trkpt lat="45.8525831" lon="13.4559546"><ele>15.0</ele><time>2026-04-25T08:48:20.101Z</time></trkpt><trkpt lat="45.8525277" lon="13.4563209"><ele>15.0</ele><time>2026-04-25T08:48:21.107Z</time></trkpt><trkpt lat="45.8524697" lon="13.4566846"><ele>15.0</ele><time>2026-04-25T08:48:22.113Z</time></trkpt><trkpt lat="45.8524207" lon="13.4570434"><ele>15.0</ele><time>2026-04-25T08:48:23.117Z</time></trkpt><trkpt lat="45.8523678" lon="13.4574038"><ele>15.5</ele><time>2026-04-25T08:48:24.113Z</time></trkpt><trkpt lat="45.852308" lon="13.4577645"><ele>16.0</ele><time>2026-04-25T08:48:25.111Z</time></trkpt><trkpt lat="45.8522446" lon="13.4581235"><ele>16.0</ele><time>2026-04-25T08:48:26.098Z</time></trkpt><trkpt lat="45.8521775" lon="13.4584871"><ele>16.0</ele><time>2026-04-25T08:48:27.1Z</time></trkpt><trkpt lat="45.8521073" lon="13.4588438"><ele>16.0</ele><time>2026-04-25T08:48:28.106Z</time></trkpt><trkpt lat="45.8520346" lon="13.4592077"><ele>16.0</ele><time>2026-04-25T08:48:29.106Z</time></trkpt><trkpt lat="45.8519533" lon="13.459573"><ele>17.0</ele><time>2026-04-25T08:48:30.106Z</time></trkpt><trkpt lat="45.8518664" lon="13.459936"><ele>18.0</ele><time>2026-04-25T08:48:31.108Z</time></trkpt><trkpt lat="45.8517772" lon="13.4602879"><ele>17.0</ele><time>2026-04-25T08:48:32.108Z</time></trkpt><trkpt lat="45.8516796" lon="13.4606346"><ele>16.0</ele><time>2026-04-25T08:48:33.1Z</time></trkpt><trkpt lat="45.8515747" lon="13.4609788"><ele>16.5</ele><time>2026-04-25T08:48:34.111Z</time></trkpt><trkpt lat="45.8514675" lon="13.461311"><ele>17.0</ele><time>2026-04-25T08:48:35.112Z</time></trkpt><trkpt lat="45.8513557" lon="13.4616447"><ele>17.0</ele><time>2026-04-25T08:48:36.109Z</time></trkpt><trkpt lat="45.8512437" lon="13.4619806"><ele>17.0</ele><time>2026-04-25T08:48:37.107Z</time></trkpt><trkpt lat="45.8511288" lon="13.4623137"><ele>16.5</ele><time>2026-04-25T08:48:38.109Z</time></trkpt><trkpt lat="45.8510095" lon="13.4626416"><ele>16.0</ele><time>2026-04-25T08:48:39.102Z</time></trkpt><trkpt lat="45.8508864" lon="13.4629638"><ele>16.0</ele><time>2026-04-25T08:48:40.117Z</time></trkpt><trkpt lat="45.8507594" lon="13.4632907"><ele>16.0</ele><time>2026-04-25T08:48:41.105Z</time></trkpt><trkpt lat="45.8506312" lon="13.4636198"><ele>16.0</ele><time>2026-04-25T08:48:42.105Z</time></trkpt><trkpt lat="45.8504978" lon="13.4639494"><ele>16.0</ele><time>2026-04-25T08:48:43.119Z</time></trkpt><trkpt lat="45.8503645" lon="13.4642795"><ele>16.0</ele><time>2026-04-25T08:48:44.111Z</time></trkpt><trkpt lat="45.8502367" lon="13.464609"><ele>16.0</ele><time>2026-04-25T08:48:45.115Z</time></trkpt><trkpt lat="45.8501043" lon="13.4649339"><ele>15.5</ele><time>2026-04-25T08:48:46.1Z</time></trkpt><trkpt lat="45.8499685" lon="13.4652561"><ele>15.0</ele><time>2026-04-25T08:48:47.099Z</time></trkpt><trkpt lat="45.8498312" lon="13.4655787"><ele>14.5</ele><time>2026-04-25T08:48:48.105Z</time></trkpt><trkpt lat="45.8496945" lon="13.4659052"><ele>14.0</ele><time>2026-04-25T08:48:49.106Z</time></trkpt><trkpt lat="45.8495584" lon="13.4662247"><ele>15.0</ele><time>2026-04-25T08:48:50.098Z</time></trkpt><trkpt lat="45.8494297" lon="13.4665497"><ele>16.0</ele><time>2026-04-25T08:48:51.121Z</time></trkpt><trkpt lat="45.8492986" lon="13.4668835"><ele>16.0</ele><time>2026-04-25T08:48:52.108Z</time></trkpt><trkpt lat="45.8491659" lon="13.4672089"><ele>16.0</ele><time>2026-04-25T08:48:53.1Z</time></trkpt><trkpt lat="45.8490353" lon="13.4675399"><ele>16.0</ele><time>2026-04-25T08:48:54.098Z</time></trkpt><trkpt lat="45.8488996" lon="13.4678704"><ele>16.0</ele><time>2026-04-25T08:48:55.103Z</time></trkpt><trkpt lat="45.8487652" lon="13.4681998"><ele>16.0</ele><time>2026-04-25T08:48:56.124Z</time></trkpt><trkpt lat="45.8486288" lon="13.4685264"><ele>16.0</ele><time>2026-04-25T08:48:57.099Z</time></trkpt><trkpt lat="45.8484946" lon="13.468857"><ele>15.0</ele><time>2026-04-25T08:48:58.102Z</time></trkpt><trkpt lat="45.848361" lon="13.4691892"><ele>14.0</ele><time>2026-04-25T08:48:59.107Z</time></trkpt><trkpt lat="45.8482259" lon="13.4695196"><ele>15.0</ele><time>2026-04-25T08:49:00.096Z</time></trkpt><trkpt lat="45.8480903" lon="13.4698481"><ele>16.0</ele><time>2026-04-25T08:49:01.107Z</time></trkpt><trkpt lat="45.8479502" lon="13.4701826"><ele>15.5</ele><time>2026-04-25T08:49:02.118Z</time></trkpt><trkpt lat="45.8478152" lon="13.4705133"><ele>15.0</ele><time>2026-04-25T08:49:03.098Z</time></trkpt><trkpt lat="45.8476782" lon="13.4708427"><ele>15.5</ele><time>2026-04-25T08:49:04.113Z</time></trkpt><trkpt lat="45.8475423" lon="13.4711717"><ele>16.0</ele><time>2026-04-25T08:49:05.11Z</time></trkpt><trkpt lat="45.8474094" lon="13.471507"><ele>16.0</ele><time>2026-04-25T08:49:06.105Z</time></trkpt><trkpt lat="45.8472741" lon="13.471834"><ele>16.0</ele><time>2026-04-25T08:49:07.103Z</time></trkpt><trkpt lat="45.847144" lon="13.472155"><ele>16.5</ele><time>2026-04-25T08:49:08.103Z</time></trkpt><trkpt lat="45.8470134" lon="13.472479"><ele>17.0</ele><time>2026-04-25T08:49:09.113Z</time></trkpt><trkpt lat="45.846879" lon="13.4728061"><ele>15.0</ele><time>2026-04-25T08:49:10.098Z</time></trkpt><trkpt lat="45.8467468" lon="13.4731308"><ele>13.0</ele><time>2026-04-25T08:49:11.102Z</time></trkpt><trkpt lat="45.8466133" lon="13.4734514"><ele>13.0</ele><time>2026-04-25T08:49:12.102Z</time></trkpt><trkpt lat="45.8464817" lon="13.4737679"><ele>13.0</ele><time>2026-04-25T08:49:13.1Z</time></trkpt><trkpt lat="45.8463559" lon="13.4740819"><ele>13.5</ele><time>2026-04-25T08:49:14.119Z</time></trkpt><trkpt lat="45.8462264" lon="13.4743983"><ele>14.0</ele><time>2026-04-25T08:49:15.11Z</time></trkpt><trkpt lat="45.8460979" lon="13.4747115"><ele>14.5</ele><time>2026-04-25T08:49:16.11Z</time></trkpt><trkpt lat="45.845969" lon="13.4750262"><ele>15.0</ele><time>2026-04-25T08:49:17.102Z</time></trkpt><trkpt lat="45.8458394" lon="13.4753389"><ele>14.5</ele><time>2026-04-25T08:49:18.104Z</time></trkpt><trkpt lat="45.8457111" lon="13.4756529"><ele>14.0</ele><time>2026-04-25T08:49:19.107Z</time></trkpt><trkpt lat="45.8455842" lon="13.4759639"><ele>13.5</ele><time>2026-04-25T08:49:20.099Z</time></trkpt><trkpt lat="45.84546" lon="13.4762806"><ele>13.0</ele><time>2026-04-25T08:49:21.105Z</time></trkpt><trkpt lat="45.8453292" lon="13.4765968"><ele>13.0</ele><time>2026-04-25T08:49:22.109Z</time></trkpt><trkpt lat="45.8452034" lon="13.4769095"><ele>13.0</ele><time>2026-04-25T08:49:23.105Z</time></trkpt><trkpt lat="45.8450785" lon="13.4772166"><ele>13.5</ele><time>2026-04-25T08:49:24.107Z</time></trkpt><trkpt lat="45.8449531" lon="13.4775208"><ele>14.0</ele><time>2026-04-25T08:49:25.105Z</time></trkpt><trkpt lat="45.8448235" lon="13.4778268"><ele>15.0</ele><time>2026-04-25T08:49:26.115Z</time></trkpt><trkpt lat="45.8446992" lon="13.4781345"><ele>16.0</ele><time>2026-04-25T08:49:27.115Z</time></trkpt><trkpt lat="45.8445698" lon="13.4784384"><ele>16.0</ele><time>2026-04-25T08:49:28.108Z</time></trkpt><trkpt lat="45.8444434" lon="13.4787465"><ele>16.0</ele><time>2026-04-25T08:49:29.106Z</time></trkpt><trkpt lat="45.8443144" lon="13.4790522"><ele>15.0</ele><time>2026-04-25T08:49:30.111Z</time></trkpt><trkpt lat="45.8441879" lon="13.4793621"><ele>14.0</ele><time>2026-04-25T08:49:31.11Z</time></trkpt><trkpt lat="45.8440558" lon="13.4796706"><ele>13.0</ele><time>2026-04-25T08:49:32.118Z</time></trkpt><trkpt lat="45.8439269" lon="13.4799797"><ele>12.0</ele><time>2026-04-25T08:49:33.106Z</time></trkpt><trkpt lat="45.8437921" lon="13.4802933"><ele>12.0</ele><time>2026-04-25T08:49:34.122Z</time></trkpt><trkpt lat="45.8436605" lon="13.480612"><ele>12.0</ele><time>2026-04-25T08:49:35.106Z</time></trkpt><trkpt lat="45.8435298" lon="13.4809323"><ele>11.5</ele><time>2026-04-25T08:49:36.108Z</time></trkpt><trkpt lat="45.8434029" lon="13.4812528"><ele>11.0</ele><time>2026-04-25T08:49:37.107Z</time></trkpt><trkpt lat="45.8432757" lon="13.4815728"><ele>10.5</ele><time>2026-04-25T08:49:38.104Z</time></trkpt><trkpt lat="45.8431512" lon="13.4818967"><ele>10.0</ele><time>2026-04-25T08:49:39.105Z</time></trkpt><trkpt lat="45.8430286" lon="13.482223"><ele>11.0</ele><time>2026-04-25T08:49:40.104Z</time></trkpt><trkpt lat="45.8429135" lon="13.4825546"><ele>12.0</ele><time>2026-04-25T08:49:41.101Z</time></trkpt><trkpt lat="45.8428074" lon="13.4828824"><ele>12.0</ele><time>2026-04-25T08:49:42.117Z</time></trkpt><trkpt lat="45.842714" lon="13.4832105"><ele>12.0</ele><time>2026-04-25T08:49:43.108Z</time></trkpt><trkpt lat="45.842621" lon="13.4835487"><ele>13.0</ele><time>2026-04-25T08:49:44.107Z</time></trkpt><trkpt lat="45.8425364" lon="13.483891"><ele>14.0</ele><time>2026-04-25T08:49:45.107Z</time></trkpt><trkpt lat="45.8424608" lon="13.4842312"><ele>14.0</ele><time>2026-04-25T08:49:46.107Z</time></trkpt><trkpt lat="45.8423972" lon="13.4845758"><ele>14.0</ele><time>2026-04-25T08:49:47.106Z</time></trkpt><trkpt lat="45.8423404" lon="13.4849176"><ele>13.0</ele><time>2026-04-25T08:49:48.106Z</time></trkpt><trkpt lat="45.8422903" lon="13.485263"><ele>12.0</ele><time>2026-04-25T08:49:49.108Z</time></trkpt><trkpt lat="45.842244" lon="13.4856069"><ele>11.5</ele><time>2026-04-25T08:49:50.105Z</time></trkpt><trkpt lat="45.8422032" lon="13.485954"><ele>11.0</ele><time>2026-04-25T08:49:51.111Z</time></trkpt><trkpt lat="45.8421736" lon="13.4863055"><ele>12.0</ele><time>2026-04-25T08:49:52.097Z</time></trkpt><trkpt lat="45.8421451" lon="13.4866519"><ele>13.0</ele><time>2026-04-25T08:49:53.115Z</time></trkpt><trkpt lat="45.8421254" lon="13.4870082"><ele>12.5</ele><time>2026-04-25T08:49:54.114Z</time></trkpt><trkpt lat="45.842117" lon="13.4873662"><ele>12.0</ele><time>2026-04-25T08:49:55.101Z</time></trkpt><trkpt lat="45.8421129" lon="13.4877257"><ele>12.5</ele><time>2026-04-25T08:49:56.122Z</time></trkpt><trkpt lat="45.8421181" lon="13.4880785"><ele>13.0</ele><time>2026-04-25T08:49:57.118Z</time></trkpt><trkpt lat="45.8421314" lon="13.4884266"><ele>14.0</ele><time>2026-04-25T08:49:58.119Z</time></trkpt><trkpt lat="45.8421573" lon="13.4887747"><ele>15.0</ele><time>2026-04-25T08:49:59.107Z</time></trkpt><trkpt lat="45.8421857" lon="13.4891199"><ele>15.0</ele><time>2026-04-25T08:50:00.109Z</time></trkpt><trkpt lat="45.8422195" lon="13.4894606"><ele>15.0</ele><time>2026-04-25T08:50:01.113Z</time></trkpt><trkpt lat="45.8422617" lon="13.4898073"><ele>15.5</ele><time>2026-04-25T08:50:02.102Z</time></trkpt><trkpt lat="45.8423086" lon="13.4901582"><ele>16.0</ele><time>2026-04-25T08:50:03.104Z</time></trkpt><trkpt lat="45.8423682" lon="13.4905096"><ele>13.5</ele><time>2026-04-25T08:50:04.107Z</time></trkpt><trkpt lat="45.8424278" lon="13.4908599"><ele>11.0</ele><time>2026-04-25T08:50:05.109Z</time></trkpt><trkpt lat="45.8424908" lon="13.4912072"><ele>11.5</ele><time>2026-04-25T08:50:06.109Z</time></trkpt><trkpt lat="45.8425586" lon="13.4915492"><ele>12.0</ele><time>2026-04-25T08:50:07.108Z</time></trkpt><trkpt lat="45.8426198" lon="13.4918864"><ele>11.5</ele><time>2026-04-25T08:50:08.116Z</time></trkpt><trkpt lat="45.8426798" lon="13.4922257"><ele>11.0</ele><time>2026-04-25T08:50:09.103Z</time></trkpt><trkpt lat="45.8427351" lon="13.4925504"><ele>11.0</ele><time>2026-04-25T08:50:10.112Z</time></trkpt><trkpt lat="45.8427917" lon="13.4928746"><ele>11.0</ele><time>2026-04-25T08:50:11.104Z</time></trkpt><trkpt lat="45.8428467" lon="13.4932063"><ele>12.5</ele><time>2026-04-25T08:50:12.122Z</time></trkpt><trkpt lat="45.8428971" lon="13.4935378"><ele>14.0</ele><time>2026-04-25T08:50:13.106Z</time></trkpt><trkpt lat="45.8429444" lon="13.4938756"><ele>14.0</ele><time>2026-04-25T08:50:14.118Z</time></trkpt><trkpt lat="45.8429842" lon="13.4942194"><ele>14.0</ele><time>2026-04-25T08:50:15.099Z</time></trkpt><trkpt lat="45.8430237" lon="13.4945541"><ele>14.5</ele><time>2026-04-25T08:50:16.097Z</time></trkpt><trkpt lat="45.8430594" lon="13.4948907"><ele>15.0</ele><time>2026-04-25T08:50:17.121Z</time></trkpt><trkpt lat="45.8430882" lon="13.4952323"><ele>15.0</ele><time>2026-04-25T08:50:18.109Z</time></trkpt><trkpt lat="45.8431105" lon="13.4955696"><ele>15.0</ele><time>2026-04-25T08:50:19.106Z</time></trkpt><trkpt lat="45.8431289" lon="13.4959129"><ele>15.0</ele><time>2026-04-25T08:50:20.101Z</time></trkpt><trkpt lat="45.8431415" lon="13.4962507"><ele>15.0</ele><time>2026-04-25T08:50:21.122Z</time></trkpt><trkpt lat="45.8431482" lon="13.4965926"><ele>13.5</ele><time>2026-04-25T08:50:22.104Z</time></trkpt><trkpt lat="45.843149" lon="13.4969311"><ele>12.0</ele><time>2026-04-25T08:50:23.101Z</time></trkpt><trkpt lat="45.8431447" lon="13.4972714"><ele>12.0</ele><time>2026-04-25T08:50:24.104Z</time></trkpt><trkpt lat="45.8431335" lon="13.4976011"><ele>12.0</ele><time>2026-04-25T08:50:25.12Z</time></trkpt><trkpt lat="45.8431158" lon="13.4979316"><ele>12.0</ele><time>2026-04-25T08:50:26.094Z</time></trkpt><trkpt lat="45.8430926" lon="13.4982657"><ele>12.0</ele><time>2026-04-25T08:50:27.101Z</time></trkpt><trkpt lat="45.8430601" lon="13.4985954"><ele>14.0</ele><time>2026-04-25T08:50:28.11Z</time></trkpt><trkpt lat="45.8430195" lon="13.4989224"><ele>16.0</ele><time>2026-04-25T08:50:29.1Z</time></trkpt><trkpt lat="45.8429762" lon="13.4992455"><ele>16.0</ele><time>2026-04-25T08:50:30.11Z</time></trkpt><trkpt lat="45.842923" lon="13.4995713"><ele>16.0</ele><time>2026-04-25T08:50:31.098Z</time></trkpt><trkpt lat="45.84287" lon="13.4998908"><ele>17.5</ele><time>2026-04-25T08:50:32.105Z</time></trkpt><trkpt lat="45.8428149" lon="13.500205"><ele>19.0</ele><time>2026-04-25T08:50:33.098Z</time></trkpt><trkpt lat="45.8427526" lon="13.500516"><ele>18.666666666666664</ele><time>2026-04-25T08:50:34.119Z</time></trkpt><trkpt lat="45.8426884" lon="13.5008273"><ele>18.333333333333332</ele><time>2026-04-25T08:50:35.096Z</time></trkpt><trkpt lat="45.8426213" lon="13.5011317"><ele>18.0</ele><time>2026-04-25T08:50:36.1Z</time></trkpt><trkpt lat="45.842554" lon="13.5014329"><ele>18.0</ele><time>2026-04-25T08:50:37.089Z</time></trkpt><trkpt lat="45.8424839" lon="13.5017242"><ele>18.0</ele><time>2026-04-25T08:50:38.12Z</time></trkpt><trkpt lat="45.8424199" lon="13.5019942"><ele>18.0</ele><time>2026-04-25T08:50:39.101Z</time></trkpt><trkpt lat="45.8423531" lon="13.5022753"><ele>22.333333333333336</ele><time>2026-04-25T08:50:40.092Z</time></trkpt><trkpt lat="45.8422867" lon="13.5025641"><ele>26.666666666666668</ele><time>2026-04-25T08:50:41.11Z</time></trkpt><trkpt lat="45.8422193" lon="13.5028515"><ele>31.0</ele><time>2026-04-25T08:50:42.095Z</time></trkpt><trkpt lat="45.8421627" lon="13.5031248"><ele>33.66666666666667</ele><time>2026-04-25T08:50:43.097Z</time></trkpt><trkpt lat="45.8421028" lon="13.5033764"><ele>36.333333333333336</ele><time>2026-04-25T08:50:44.1Z</time></trkpt><trkpt lat="45.8420434" lon="13.5036259"><ele>39.0</ele><time>2026-04-25T08:50:45.089Z</time></trkpt><trkpt lat="45.8419848" lon="13.5038722"><ele>40.0</ele><time>2026-04-25T08:50:46.104Z</time></trkpt><trkpt lat="45.841923" lon="13.5041057"><ele>41.0</ele><time>2026-04-25T08:50:47.094Z</time></trkpt><trkpt lat="45.8418615" lon="13.5043275"><ele>42.0</ele><time>2026-04-25T08:50:48.096Z</time></trkpt><trkpt lat="45.8418009" lon="13.5045486"><ele>35.333333333333336</ele><time>2026-04-25T08:50:49.092Z</time></trkpt><trkpt lat="45.8417429" lon="13.5047632"><ele>28.666666666666664</ele><time>2026-04-25T08:50:50.099Z</time></trkpt><trkpt lat="45.841686" lon="13.5049741"><ele>22.0</ele><time>2026-04-25T08:50:51.102Z</time></trkpt><trkpt lat="45.8416252" lon="13.5051825"><ele>22.0</ele><time>2026-04-25T08:50:52.101Z</time></trkpt><trkpt lat="45.8415597" lon="13.5053996"><ele>22.0</ele><time>2026-04-25T08:50:53.109Z</time></trkpt><trkpt lat="45.8414901" lon="13.5056208"><ele>22.0</ele><time>2026-04-25T08:50:54.093Z</time></trkpt><trkpt lat="45.8414119" lon="13.5058561"><ele>25.333333333333332</ele><time>2026-04-25T08:50:55.098Z</time></trkpt><trkpt lat="45.8413286" lon="13.5060954"><ele>28.666666666666664</ele><time>2026-04-25T08:50:56.103Z</time></trkpt><trkpt lat="45.8412388" lon="13.506348"><ele>32.0</ele><time>2026-04-25T08:50:57.092Z</time></trkpt><trkpt lat="45.8411358" lon="13.5066111"><ele>32.33333333333333</ele><time>2026-04-25T08:50:58.099Z</time></trkpt><trkpt lat="45.8410331" lon="13.5068703"><ele>32.666666666666664</ele><time>2026-04-25T08:50:59.095Z</time></trkpt><trkpt lat="45.8409252" lon="13.5071226"><ele>33.0</ele><time>2026-04-25T08:51:00.103Z</time></trkpt><trkpt lat="45.8408064" lon="13.507375"><ele>33.0</ele><time>2026-04-25T08:51:01.089Z</time></trkpt><trkpt lat="45.840682" lon="13.5076225"><ele>33.0</ele><time>2026-04-25T08:51:02.093Z</time></trkpt><trkpt lat="45.8405578" lon="13.5078542"><ele>33.0</ele><time>2026-04-25T08:51:03.095Z</time></trkpt><trkpt lat="45.8404332" lon="13.5080819"><ele>30.333333333333336</ele><time>2026-04-25T08:51:04.098Z</time></trkpt><trkpt lat="45.8403091" lon="13.5083001"><ele>27.666666666666668</ele><time>2026-04-25T08:51:05.092Z</time></trkpt><trkpt lat="45.84018" lon="13.5085213"><ele>25.0</ele><time>2026-04-25T08:51:06.094Z</time></trkpt><trkpt lat="45.8400451" lon="13.5087364"><ele>29.0</ele><time>2026-04-25T08:51:07.09Z</time></trkpt><trkpt lat="45.8399123" lon="13.5089419"><ele>33.0</ele><time>2026-04-25T08:51:08.103Z</time></trkpt><trkpt lat="45.839782" lon="13.5091501"><ele>37.0</ele><time>2026-04-25T08:51:09.101Z</time></trkpt><trkpt lat="45.8396463" lon="13.5093566"><ele>37.0</ele><time>2026-04-25T08:51:10.101Z</time></trkpt><trkpt lat="45.8395024" lon="13.5095591"><ele>37.0</ele><time>2026-04-25T08:51:11.101Z</time></trkpt><trkpt lat="45.8393572" lon="13.5097539"><ele>37.0</ele><time>2026-04-25T08:51:12.104Z</time></trkpt><trkpt lat="45.8392067" lon="13.5099497"><ele>35.66666666666667</ele><time>2026-04-25T08:51:13.103Z</time></trkpt><trkpt lat="45.8390483" lon="13.5101503"><ele>34.333333333333336</ele><time>2026-04-25T08:51:14.1Z</time></trkpt><trkpt lat="45.8388886" lon="13.5103545"><ele>33.0</ele><time>2026-04-25T08:51:15.093Z</time></trkpt><trkpt lat="45.8387226" lon="13.5105503"><ele>33.0</ele><time>2026-04-25T08:51:16.1Z</time></trkpt><trkpt lat="45.8385565" lon="13.5107413"><ele>33.0</ele><time>2026-04-25T08:51:17.09Z</time></trkpt><trkpt lat="45.8383891" lon="13.510927"><ele>33.0</ele><time>2026-04-25T08:51:18.098Z</time></trkpt><trkpt lat="45.8382166" lon="13.5111086"><ele>36.666666666666664</ele><time>2026-04-25T08:51:19.096Z</time></trkpt><trkpt lat="45.8380392" lon="13.5112955"><ele>40.33333333333333</ele><time>2026-04-25T08:51:20.099Z</time></trkpt><trkpt lat="45.8378579" lon="13.511477"><ele>44.0</ele><time>2026-04-25T08:51:21.102Z</time></trkpt><trkpt lat="45.8376774" lon="13.511648"><ele>43.33333333333333</ele><time>2026-04-25T08:51:22.104Z</time></trkpt><trkpt lat="45.8375022" lon="13.5118181"><ele>42.666666666666664</ele><time>2026-04-25T08:51:23.095Z</time></trkpt><trkpt lat="45.8373172" lon="13.5119789"><ele>42.0</ele><time>2026-04-25T08:51:24.105Z</time></trkpt><trkpt lat="45.8371323" lon="13.5121437"><ele>42.0</ele><time>2026-04-25T08:51:25.099Z</time></trkpt><trkpt lat="45.8369401" lon="13.5123048"><ele>42.0</ele><time>2026-04-25T08:51:26.09Z</time></trkpt><trkpt lat="45.8367432" lon="13.5124565"><ele>42.0</ele><time>2026-04-25T08:51:27.107Z</time></trkpt><trkpt lat="45.8365483" lon="13.5126115"><ele>38.333333333333336</ele><time>2026-04-25T08:51:28.095Z</time></trkpt><trkpt lat="45.8363467" lon="13.5127569"><ele>34.66666666666667</ele><time>2026-04-25T08:51:29.098Z</time></trkpt><trkpt lat="45.8361483" lon="13.5128936"><ele>31.0</ele><time>2026-04-25T08:51:30.096Z</time></trkpt><trkpt lat="45.8359523" lon="13.5130219"><ele>30.0</ele><time>2026-04-25T08:51:31.101Z</time></trkpt><trkpt lat="45.8357659" lon="13.5131517"><ele>29.0</ele><time>2026-04-25T08:51:32.126Z</time></trkpt><trkpt lat="45.83557" lon="13.5132706"><ele>28.0</ele><time>2026-04-25T08:51:33.102Z</time></trkpt><trkpt lat="45.8353693" lon="13.5133816"><ele>28.0</ele><time>2026-04-25T08:51:34.097Z</time></trkpt><trkpt lat="45.8351592" lon="13.5134998"><ele>28.0</ele><time>2026-04-25T08:51:35.112Z</time></trkpt><trkpt lat="45.834947" lon="13.5136169"><ele>29.0</ele><time>2026-04-25T08:51:36.103Z</time></trkpt><trkpt lat="45.8347291" lon="13.513734"><ele>30.0</ele><time>2026-04-25T08:51:37.1Z</time></trkpt><trkpt lat="45.8345138" lon="13.5138521"><ele>28.0</ele><time>2026-04-25T08:51:38.099Z</time></trkpt><trkpt lat="45.8342962" lon="13.5139676"><ele>26.0</ele><time>2026-04-25T08:51:39.093Z</time></trkpt><trkpt lat="45.8340801" lon="13.5140777"><ele>26.0</ele><time>2026-04-25T08:51:40.097Z</time></trkpt><trkpt lat="45.8338592" lon="13.5141977"><ele>26.0</ele><time>2026-04-25T08:51:41.099Z</time></trkpt><trkpt lat="45.8336307" lon="13.5143266"><ele>21.5</ele><time>2026-04-25T08:51:42.117Z</time></trkpt><trkpt lat="45.8334012" lon="13.514447"><ele>17.0</ele><time>2026-04-25T08:51:43.104Z</time></trkpt><trkpt lat="45.8331699" lon="13.514569"><ele>23.0</ele><time>2026-04-25T08:51:44.095Z</time></trkpt><trkpt lat="45.8329426" lon="13.5147016"><ele>29.0</ele><time>2026-04-25T08:51:45.097Z</time></trkpt><trkpt lat="45.8327156" lon="13.5148417"><ele>25.5</ele><time>2026-04-25T08:51:46.11Z</time></trkpt><trkpt lat="45.8324951" lon="13.5149876"><ele>22.0</ele><time>2026-04-25T08:51:47.096Z</time></trkpt><trkpt lat="45.8322724" lon="13.5151391"><ele>22.0</ele><time>2026-04-25T08:51:48.088Z</time></trkpt><trkpt lat="45.8320553" lon="13.5153012"><ele>22.0</ele><time>2026-04-25T08:51:49.099Z</time></trkpt><trkpt lat="45.8318407" lon="13.515471"><ele>22.0</ele><time>2026-04-25T08:51:50.098Z</time></trkpt><trkpt lat="45.8316211" lon="13.5156421"><ele>22.0</ele><time>2026-04-25T08:51:51.095Z</time></trkpt><trkpt lat="45.8314107" lon="13.5158181"><ele>22.0</ele><time>2026-04-25T08:51:52.1Z</time></trkpt><trkpt lat="45.8312044" lon="13.5159992"><ele>22.0</ele><time>2026-04-25T08:51:53.11Z</time></trkpt><trkpt lat="45.8310028" lon="13.5161837"><ele>22.5</ele><time>2026-04-25T08:51:54.099Z</time></trkpt><trkpt lat="45.8308062" lon="13.5163686"><ele>23.0</ele><time>2026-04-25T08:51:55.099Z</time></trkpt><trkpt lat="45.8306108" lon="13.5165553"><ele>23.0</ele><time>2026-04-25T08:51:56.1Z</time></trkpt><trkpt lat="45.8304224" lon="13.5167518"><ele>23.0</ele><time>2026-04-25T08:51:57.113Z</time></trkpt><trkpt lat="45.8302455" lon="13.51696"><ele>22.666666666666668</ele><time>2026-04-25T08:51:58.098Z</time></trkpt><trkpt lat="45.8300721" lon="13.5171664"><ele>22.333333333333332</ele><time>2026-04-25T08:51:59.099Z</time></trkpt><trkpt lat="45.8299063" lon="13.5173692"><ele>22.0</ele><time>2026-04-25T08:52:00.096Z</time></trkpt><trkpt lat="45.8297475" lon="13.517578"><ele>22.0</ele><time>2026-04-25T08:52:01.094Z</time></trkpt><trkpt lat="45.8296018" lon="13.5177936"><ele>22.0</ele><time>2026-04-25T08:52:02.1Z</time></trkpt><trkpt lat="45.8294576" lon="13.5180003"><ele>22.0</ele><time>2026-04-25T08:52:03.098Z</time></trkpt><trkpt lat="45.8293223" lon="13.5182081"><ele>21.666666666666664</ele><time>2026-04-25T08:52:04.098Z</time></trkpt><trkpt lat="45.8291824" lon="13.5184217"><ele>21.333333333333332</ele><time>2026-04-25T08:52:05.106Z</time></trkpt><trkpt lat="45.8290372" lon="13.5186478"><ele>21.0</ele><time>2026-04-25T08:52:06.104Z</time></trkpt><trkpt lat="45.8288937" lon="13.5188901"><ele>27.0</ele><time>2026-04-25T08:52:07.096Z</time></trkpt><trkpt lat="45.8287488" lon="13.5191419"><ele>33.0</ele><time>2026-04-25T08:52:08.091Z</time></trkpt><trkpt lat="45.8286038" lon="13.5193915"><ele>29.0</ele><time>2026-04-25T08:52:09.092Z</time></trkpt><trkpt lat="45.8284584" lon="13.5196457"><ele>25.0</ele><time>2026-04-25T08:52:10.102Z</time></trkpt><trkpt lat="45.8283146" lon="13.5199028"><ele>25.0</ele><time>2026-04-25T08:52:11.098Z</time></trkpt><trkpt lat="45.8281709" lon="13.5201609"><ele>25.0</ele><time>2026-04-25T08:52:12.091Z</time></trkpt><trkpt lat="45.8280291" lon="13.5204245"><ele>32.5</ele><time>2026-04-25T08:52:13.113Z</time></trkpt><trkpt lat="45.827888" lon="13.5206915"><ele>40.0</ele><time>2026-04-25T08:52:14.092Z</time></trkpt><trkpt lat="45.8277464" lon="13.5209515"><ele>34.5</ele><time>2026-04-25T08:52:15.09Z</time></trkpt><trkpt lat="45.8276054" lon="13.5212166"><ele>29.0</ele><time>2026-04-25T08:52:16.111Z</time></trkpt><trkpt lat="45.8274588" lon="13.5214767"><ele>29.0</ele><time>2026-04-25T08:52:17.096Z</time></trkpt><trkpt lat="45.8273026" lon="13.5217256"><ele>29.0</ele><time>2026-04-25T08:52:18.095Z</time></trkpt><trkpt lat="45.8271516" lon="13.5219543"><ele>27.0</ele><time>2026-04-25T08:52:19.089Z</time></trkpt><trkpt lat="45.826998" lon="13.5221691"><ele>25.0</ele><time>2026-04-25T08:52:20.101Z</time></trkpt><trkpt lat="45.8268461" lon="13.5223873"><ele>23.0</ele><time>2026-04-25T08:52:21.09Z</time></trkpt><trkpt lat="45.8266924" lon="13.5226138"><ele>23.0</ele><time>2026-04-25T08:52:22.093Z</time></trkpt><trkpt lat="45.8265359" lon="13.5228416"><ele>23.0</ele><time>2026-04-25T08:52:23.098Z</time></trkpt><trkpt lat="45.8263712" lon="13.5230618"><ele>23.0</ele><time>2026-04-25T08:52:24.093Z</time></trkpt><trkpt lat="45.8262011" lon="13.5232778"><ele>21.0</ele><time>2026-04-25T08:52:25.099Z</time></trkpt><trkpt lat="45.8260232" lon="13.5234971"><ele>19.0</ele><time>2026-04-25T08:52:26.094Z</time></trkpt><trkpt lat="45.8258386" lon="13.5237117"><ele>25.5</ele><time>2026-04-25T08:52:27.097Z</time></trkpt><trkpt lat="45.825651" lon="13.5239138"><ele>32.0</ele><time>2026-04-25T08:52:28.097Z</time></trkpt><trkpt lat="45.8254593" lon="13.524117"><ele>32.0</ele><time>2026-04-25T08:52:29.099Z</time></trkpt><trkpt lat="45.8252634" lon="13.5243189"><ele>32.0</ele><time>2026-04-25T08:52:30.096Z</time></trkpt><trkpt lat="45.825069" lon="13.5245223"><ele>32.5</ele><time>2026-04-25T08:52:31.106Z</time></trkpt><trkpt lat="45.8248757" lon="13.5247297"><ele>33.0</ele><time>2026-04-25T08:52:32.097Z</time></trkpt><trkpt lat="45.8246817" lon="13.5249347"><ele>33.0</ele><time>2026-04-25T08:52:33.116Z</time></trkpt><trkpt lat="45.8244932" lon="13.5251435"><ele>33.0</ele><time>2026-04-25T08:52:34.105Z</time></trkpt><trkpt lat="45.8243074" lon="13.5253522"><ele>32.0</ele><time>2026-04-25T08:52:35.111Z</time></trkpt><trkpt lat="45.8241171" lon="13.5255544"><ele>31.0</ele><time>2026-04-25T08:52:36.114Z</time></trkpt><trkpt lat="45.8239312" lon="13.5257706"><ele>31.0</ele><time>2026-04-25T08:52:37.105Z</time></trkpt><trkpt lat="45.8237518" lon="13.5259954"><ele>31.0</ele><time>2026-04-25T08:52:38.101Z</time></trkpt><trkpt lat="45.8235701" lon="13.526217"><ele>28.0</ele><time>2026-04-25T08:52:39.101Z</time></trkpt><trkpt lat="45.8233929" lon="13.5264424"><ele>25.0</ele><time>2026-04-25T08:52:40.098Z</time></trkpt><trkpt lat="45.8232195" lon="13.5266755"><ele>25.0</ele><time>2026-04-25T08:52:41.098Z</time></trkpt><trkpt lat="45.8230451" lon="13.5269184"><ele>25.0</ele><time>2026-04-25T08:52:42.099Z</time></trkpt><trkpt lat="45.8228749" lon="13.5271612"><ele>20.5</ele><time>2026-04-25T08:52:43.095Z</time></trkpt><trkpt lat="45.8227094" lon="13.5273971"><ele>16.0</ele><time>2026-04-25T08:52:44.104Z</time></trkpt><trkpt lat="45.8225457" lon="13.5276243"><ele>16.0</ele><time>2026-04-25T08:52:45.098Z</time></trkpt><trkpt lat="45.8223899" lon="13.5278574"><ele>16.0</ele><time>2026-04-25T08:52:46.088Z</time></trkpt><trkpt lat="45.8222374" lon="13.5280927"><ele>16.0</ele><time>2026-04-25T08:52:47.097Z</time></trkpt><trkpt lat="45.8220877" lon="13.5283266"><ele>16.5</ele><time>2026-04-25T08:52:48.096Z</time></trkpt><trkpt lat="45.821935" lon="13.5285769"><ele>17.0</ele><time>2026-04-25T08:52:49.098Z</time></trkpt><trkpt lat="45.8217884" lon="13.5288226"><ele>17.0</ele><time>2026-04-25T08:52:50.091Z</time></trkpt><trkpt lat="45.8216459" lon="13.5290738"><ele>17.0</ele><time>2026-04-25T08:52:51.108Z</time></trkpt><trkpt lat="45.8215012" lon="13.5293295"><ele>20.333333333333336</ele><time>2026-04-25T08:52:52.094Z</time></trkpt><trkpt lat="45.8213582" lon="13.529576"><ele>23.666666666666668</ele><time>2026-04-25T08:52:53.1Z</time></trkpt><trkpt lat="45.8212199" lon="13.5298275"><ele>27.0</ele><time>2026-04-25T08:52:54.104Z</time></trkpt><trkpt lat="45.8210847" lon="13.5300868"><ele>25.0</ele><time>2026-04-25T08:52:55.103Z</time></trkpt><trkpt lat="45.8209531" lon="13.5303387"><ele>23.0</ele><time>2026-04-25T08:52:56.104Z</time></trkpt><trkpt lat="45.8208254" lon="13.530601"><ele>21.0</ele><time>2026-04-25T08:52:57.108Z</time></trkpt><trkpt lat="45.8206955" lon="13.5308695"><ele>21.0</ele><time>2026-04-25T08:52:58.098Z</time></trkpt><trkpt lat="45.8205665" lon="13.531137"><ele>21.0</ele><time>2026-04-25T08:52:59.103Z</time></trkpt><trkpt lat="45.8204341" lon="13.5314253"><ele>23.5</ele><time>2026-04-25T08:53:00.099Z</time></trkpt><trkpt lat="45.8203097" lon="13.5317094"><ele>26.0</ele><time>2026-04-25T08:53:01.11Z</time></trkpt><trkpt lat="45.8201969" lon="13.5319922"><ele>20.5</ele><time>2026-04-25T08:53:02.104Z</time></trkpt><trkpt lat="45.8200829" lon="13.5322862"><ele>15.0</ele><time>2026-04-25T08:53:03.108Z</time></trkpt><trkpt lat="45.8199684" lon="13.5325922"><ele>16.5</ele><time>2026-04-25T08:53:04.101Z</time></trkpt><trkpt lat="45.8198478" lon="13.5329009"><ele>18.0</ele><time>2026-04-25T08:53:05.106Z</time></trkpt><trkpt lat="45.8197242" lon="13.5332298"><ele>18.0</ele><time>2026-04-25T08:53:06.105Z</time></trkpt><trkpt lat="45.819602" lon="13.533561"><ele>18.0</ele><time>2026-04-25T08:53:07.104Z</time></trkpt><trkpt lat="45.8194806" lon="13.5339031"><ele>16.0</ele><time>2026-04-25T08:53:08.103Z</time></trkpt><trkpt lat="45.8193565" lon="13.5342469"><ele>14.0</ele><time>2026-04-25T08:53:09.096Z</time></trkpt><trkpt lat="45.8192391" lon="13.5345973"><ele>14.0</ele><time>2026-04-25T08:53:10.091Z</time></trkpt><trkpt lat="45.8191284" lon="13.5349428"><ele>14.0</ele><time>2026-04-25T08:53:11.094Z</time></trkpt><trkpt lat="45.8190176" lon="13.5352896"><ele>18.5</ele><time>2026-04-25T08:53:12.096Z</time></trkpt><trkpt lat="45.8189096" lon="13.5356204"><ele>23.0</ele><time>2026-04-25T08:53:13.093Z</time></trkpt><trkpt lat="45.818799" lon="13.5359423"><ele>26.5</ele><time>2026-04-25T08:53:14.104Z</time></trkpt><trkpt lat="45.8186987" lon="13.536257"><ele>30.0</ele><time>2026-04-25T08:53:15.097Z</time></trkpt><trkpt lat="45.8186062" lon="13.536545"><ele>30.0</ele><time>2026-04-25T08:53:16.091Z</time></trkpt><trkpt lat="45.8185206" lon="13.5368196"><ele>30.0</ele><time>2026-04-25T08:53:17.089Z</time></trkpt><trkpt lat="45.8184291" lon="13.537091"><ele>30.0</ele><time>2026-04-25T08:53:18.102Z</time></trkpt><trkpt lat="45.8183407" lon="13.5373743"><ele>28.666666666666664</ele><time>2026-04-25T08:53:19.091Z</time></trkpt><trkpt lat="45.8182481" lon="13.5376579"><ele>27.333333333333332</ele><time>2026-04-25T08:53:20.097Z</time></trkpt><trkpt lat="45.8181507" lon="13.5379468"><ele>26.0</ele><time>2026-04-25T08:53:21.09Z</time></trkpt><trkpt lat="45.8180557" lon="13.5382301"><ele>26.0</ele><time>2026-04-25T08:53:22.102Z</time></trkpt><trkpt lat="45.8179663" lon="13.5384997"><ele>26.0</ele><time>2026-04-25T08:53:23.092Z</time></trkpt><trkpt lat="45.8178788" lon="13.538752"><ele>26.0</ele><time>2026-04-25T08:53:24.112Z</time></trkpt><trkpt lat="45.8177996" lon="13.5390035"><ele>28.666666666666664</ele><time>2026-04-25T08:53:25.096Z</time></trkpt><trkpt lat="45.8177137" lon="13.5392724"><ele>31.333333333333336</ele><time>2026-04-25T08:53:26.095Z</time></trkpt><trkpt lat="45.8176232" lon="13.5395412"><ele>34.0</ele><time>2026-04-25T08:53:27.101Z</time></trkpt><trkpt lat="45.8175274" lon="13.5398173"><ele>30.333333333333336</ele><time>2026-04-25T08:53:28.099Z</time></trkpt><trkpt lat="45.817433" lon="13.5400959"><ele>26.666666666666668</ele><time>2026-04-25T08:53:29.111Z</time></trkpt><trkpt lat="45.8173381" lon="13.5403761"><ele>23.0</ele><time>2026-04-25T08:53:30.101Z</time></trkpt><trkpt lat="45.8172415" lon="13.5406638"><ele>23.0</ele><time>2026-04-25T08:53:31.096Z</time></trkpt><trkpt lat="45.8171465" lon="13.5409569"><ele>23.0</ele><time>2026-04-25T08:53:32.109Z</time></trkpt><trkpt lat="45.8170506" lon="13.5412505"><ele>24.5</ele><time>2026-04-25T08:53:33.098Z</time></trkpt><trkpt lat="45.8169537" lon="13.5415482"><ele>26.0</ele><time>2026-04-25T08:53:34.113Z</time></trkpt><trkpt lat="45.8168512" lon="13.5418479"><ele>21.5</ele><time>2026-04-25T08:53:35.096Z</time></trkpt><trkpt lat="45.8167465" lon="13.5421571"><ele>17.0</ele><time>2026-04-25T08:53:36.102Z</time></trkpt><trkpt lat="45.8166421" lon="13.5424657"><ele>17.0</ele><time>2026-04-25T08:53:37.094Z</time></trkpt><trkpt lat="45.8165383" lon="13.5427896"><ele>17.0</ele><time>2026-04-25T08:53:38.103Z</time></trkpt><trkpt lat="45.816434" lon="13.5431175"><ele>16.5</ele><time>2026-04-25T08:53:39.095Z</time></trkpt><trkpt lat="45.816336" lon="13.5434501"><ele>16.0</ele><time>2026-04-25T08:53:40.097Z</time></trkpt><trkpt lat="45.8162445" lon="13.5437829"><ele>15.5</ele><time>2026-04-25T08:53:41.092Z</time></trkpt><trkpt lat="45.8161605" lon="13.544123"><ele>15.0</ele><time>2026-04-25T08:53:42.1Z</time></trkpt><trkpt lat="45.8160804" lon="13.5444654"><ele>14.5</ele><time>2026-04-25T08:53:43.099Z</time></trkpt><trkpt lat="45.8160038" lon="13.5448065"><ele>14.0</ele><time>2026-04-25T08:53:44.1Z</time></trkpt><trkpt lat="45.8159343" lon="13.545149"><ele>15.0</ele><time>2026-04-25T08:53:45.103Z</time></trkpt><trkpt lat="45.8158689" lon="13.5454883"><ele>16.0</ele><time>2026-04-25T08:53:46.101Z</time></trkpt><trkpt lat="45.8158089" lon="13.5458341"><ele>16.0</ele><time>2026-04-25T08:53:47.094Z</time></trkpt><trkpt lat="45.8157498" lon="13.5461743"><ele>16.0</ele><time>2026-04-25T08:53:48.104Z</time></trkpt><trkpt lat="45.8156973" lon="13.5465141"><ele>15.0</ele><time>2026-04-25T08:53:49.095Z</time></trkpt><trkpt lat="45.8156587" lon="13.5468618"><ele>14.0</ele><time>2026-04-25T08:53:50.09Z</time></trkpt><trkpt lat="45.8156287" lon="13.5472123"><ele>13.0</ele><time>2026-04-25T08:53:51.112Z</time></trkpt><trkpt lat="45.8155997" lon="13.547565"><ele>12.0</ele><time>2026-04-25T08:53:52.098Z</time></trkpt><trkpt lat="45.815571" lon="13.5479165"><ele>10.5</ele><time>2026-04-25T08:53:53.093Z</time></trkpt><trkpt lat="45.8155486" lon="13.5482616"><ele>9.0</ele><time>2026-04-25T08:53:54.1Z</time></trkpt><trkpt lat="45.815532" lon="13.5486074"><ele>10.5</ele><time>2026-04-25T08:53:55.096Z</time></trkpt><trkpt lat="45.8155247" lon="13.5489568"><ele>12.0</ele><time>2026-04-25T08:53:56.095Z</time></trkpt><trkpt lat="45.8155212" lon="13.5493137"><ele>12.0</ele><time>2026-04-25T08:53:57.095Z</time></trkpt><trkpt lat="45.8155202" lon="13.5496714"><ele>12.0</ele><time>2026-04-25T08:53:58.089Z</time></trkpt><trkpt lat="45.8155267" lon="13.5500294"><ele>12.0</ele><time>2026-04-25T08:53:59.099Z</time></trkpt><trkpt lat="45.8155427" lon="13.5503863"><ele>12.0</ele><time>2026-04-25T08:54:00.097Z</time></trkpt><trkpt lat="45.8155636" lon="13.5507482"><ele>12.0</ele><time>2026-04-25T08:54:01.089Z</time></trkpt><trkpt lat="45.815587" lon="13.5511156"><ele>12.0</ele><time>2026-04-25T08:54:02.098Z</time></trkpt><trkpt lat="45.8156157" lon="13.5514824"><ele>11.5</ele><time>2026-04-25T08:54:03.096Z</time></trkpt><trkpt lat="45.8156476" lon="13.5518472"><ele>11.0</ele><time>2026-04-25T08:54:04.098Z</time></trkpt><trkpt lat="45.8156778" lon="13.5522021"><ele>11.0</ele><time>2026-04-25T08:54:05.096Z</time></trkpt><trkpt lat="45.8157103" lon="13.5525599"><ele>11.0</ele><time>2026-04-25T08:54:06.099Z</time></trkpt><trkpt lat="45.8157331" lon="13.5529129"><ele>11.5</ele><time>2026-04-25T08:54:07.084Z</time></trkpt><trkpt lat="45.8157464" lon="13.5532632"><ele>12.0</ele><time>2026-04-25T08:54:08.111Z</time></trkpt><trkpt lat="45.8157512" lon="13.5536071"><ele>10.0</ele><time>2026-04-25T08:54:09.099Z</time></trkpt><trkpt lat="45.8157438" lon="13.5539548"><ele>8.0</ele><time>2026-04-25T08:54:10.091Z</time></trkpt><trkpt lat="45.8157243" lon="13.5543019"><ele>10.0</ele><time>2026-04-25T08:54:11.1Z</time></trkpt><trkpt lat="45.8156937" lon="13.5546516"><ele>12.0</ele><time>2026-04-25T08:54:12.084Z</time></trkpt><trkpt lat="45.8156504" lon="13.5549959"><ele>12.0</ele><time>2026-04-25T08:54:13.098Z</time></trkpt><trkpt lat="45.8155912" lon="13.555339"><ele>12.0</ele><time>2026-04-25T08:54:14.091Z</time></trkpt><trkpt lat="45.8155255" lon="13.5556838"><ele>9.5</ele><time>2026-04-25T08:54:15.1Z</time></trkpt><trkpt lat="45.8154545" lon="13.5560179"><ele>7.0</ele><time>2026-04-25T08:54:16.086Z</time></trkpt><trkpt lat="45.8153705" lon="13.5563449"><ele>6.0</ele><time>2026-04-25T08:54:17.089Z</time></trkpt><trkpt lat="45.8152727" lon="13.5566655"><ele>5.0</ele><time>2026-04-25T08:54:18.094Z</time></trkpt><trkpt lat="45.8151622" lon="13.556976"><ele>11.0</ele><time>2026-04-25T08:54:19.09Z</time></trkpt><trkpt lat="45.815044" lon="13.5572883"><ele>17.0</ele><time>2026-04-25T08:54:20.083Z</time></trkpt><trkpt lat="45.8149276" lon="13.5575931"><ele>13.5</ele><time>2026-04-25T08:54:21.092Z</time></trkpt><trkpt lat="45.8147978" lon="13.5578926"><ele>10.0</ele><time>2026-04-25T08:54:22.098Z</time></trkpt><trkpt lat="45.8146552" lon="13.5581794"><ele>10.0</ele><time>2026-04-25T08:54:23.095Z</time></trkpt><trkpt lat="45.8145024" lon="13.558456"><ele>10.0</ele><time>2026-04-25T08:54:24.096Z</time></trkpt><trkpt lat="45.8143351" lon="13.5587164"><ele>13.5</ele><time>2026-04-25T08:54:25.109Z</time></trkpt><trkpt lat="45.8141557" lon="13.5589702"><ele>17.0</ele><time>2026-04-25T08:54:26.099Z</time></trkpt><trkpt lat="45.8139707" lon="13.5592111"><ele>17.0</ele><time>2026-04-25T08:54:27.098Z</time></trkpt><trkpt lat="45.8137776" lon="13.5594473"><ele>17.0</ele><time>2026-04-25T08:54:28.103Z</time></trkpt><trkpt lat="45.8135877" lon="13.5596769"><ele>19.0</ele><time>2026-04-25T08:54:29.102Z</time></trkpt><trkpt lat="45.8133917" lon="13.5599072"><ele>21.0</ele><time>2026-04-25T08:54:30.096Z</time></trkpt><trkpt lat="45.8131915" lon="13.5601334"><ele>21.0</ele><time>2026-04-25T08:54:31.102Z</time></trkpt><trkpt lat="45.8129936" lon="13.5603572"><ele>21.0</ele><time>2026-04-25T08:54:32.093Z</time></trkpt><trkpt lat="45.8127967" lon="13.5605776"><ele>19.0</ele><time>2026-04-25T08:54:33.113Z</time></trkpt><trkpt lat="45.8125995" lon="13.5607973"><ele>17.0</ele><time>2026-04-25T08:54:34.102Z</time></trkpt><trkpt lat="45.8124032" lon="13.5610135"><ele>14.0</ele><time>2026-04-25T08:54:35.096Z</time></trkpt><trkpt lat="45.8122088" lon="13.561229"><ele>11.0</ele><time>2026-04-25T08:54:36.087Z</time></trkpt><trkpt lat="45.8120176" lon="13.5614484"><ele>11.0</ele><time>2026-04-25T08:54:37.093Z</time></trkpt><trkpt lat="45.8118236" lon="13.5616629"><ele>11.0</ele><time>2026-04-25T08:54:38.092Z</time></trkpt><trkpt lat="45.8116316" lon="13.5618793"><ele>10.0</ele><time>2026-04-25T08:54:39.088Z</time></trkpt><trkpt lat="45.8114411" lon="13.5621026"><ele>9.0</ele><time>2026-04-25T08:54:40.107Z</time></trkpt><trkpt lat="45.8112589" lon="13.5623341"><ele>9.0</ele><time>2026-04-25T08:54:41.101Z</time></trkpt><trkpt lat="45.8110819" lon="13.5625741"><ele>9.0</ele><time>2026-04-25T08:54:42.086Z</time></trkpt><trkpt lat="45.8109112" lon="13.5628285"><ele>8.5</ele><time>2026-04-25T08:54:43.092Z</time></trkpt><trkpt lat="45.8107442" lon="13.5630911"><ele>8.0</ele><time>2026-04-25T08:54:44.099Z</time></trkpt><trkpt lat="45.8105841" lon="13.5633609"><ele>8.0</ele><time>2026-04-25T08:54:45.095Z</time></trkpt><trkpt lat="45.8104339" lon="13.5636468"><ele>8.0</ele><time>2026-04-25T08:54:46.091Z</time></trkpt><trkpt lat="45.8102931" lon="13.5639418"><ele>8.0</ele><time>2026-04-25T08:54:47.101Z</time></trkpt><trkpt lat="45.8101564" lon="13.5642389"><ele>8.0</ele><time>2026-04-25T08:54:48.091Z</time></trkpt><trkpt lat="45.8100324" lon="13.5645421"><ele>9.333333333333332</ele><time>2026-04-25T08:54:49.094Z</time></trkpt><trkpt lat="45.8099187" lon="13.5648294"><ele>10.666666666666666</ele><time>2026-04-25T08:54:50.091Z</time></trkpt><trkpt lat="45.8098261" lon="13.5651097"><ele>12.0</ele><time>2026-04-25T08:54:51.091Z</time></trkpt><trkpt lat="45.8097408" lon="13.5653733"><ele>13.666666666666668</ele><time>2026-04-25T08:54:52.089Z</time></trkpt><trkpt lat="45.809662" lon="13.5656314"><ele>15.333333333333334</ele><time>2026-04-25T08:54:53.093Z</time></trkpt><trkpt lat="45.8095953" lon="13.565886"><ele>17.0</ele><time>2026-04-25T08:54:54.093Z</time></trkpt><trkpt lat="45.8095316" lon="13.5661364"><ele>18.333333333333336</ele><time>2026-04-25T08:54:55.109Z</time></trkpt><trkpt lat="45.809464" lon="13.5664115"><ele>19.666666666666668</ele><time>2026-04-25T08:54:56.087Z</time></trkpt><trkpt lat="45.8093999" lon="13.5666919"><ele>21.0</ele><time>2026-04-25T08:54:57.094Z</time></trkpt><trkpt lat="45.8093421" lon="13.566984"><ele>16.333333333333332</ele><time>2026-04-25T08:54:58.084Z</time></trkpt><trkpt lat="45.8092868" lon="13.5672736"><ele>11.666666666666668</ele><time>2026-04-25T08:54:59.099Z</time></trkpt><trkpt lat="45.8092385" lon="13.5675583"><ele>7.0</ele><time>2026-04-25T08:55:00.093Z</time></trkpt><trkpt lat="45.8091904" lon="13.567846"><ele>8.0</ele><time>2026-04-25T08:55:01.09Z</time></trkpt><trkpt lat="45.8091477" lon="13.5681305"><ele>9.0</ele><time>2026-04-25T08:55:02.085Z</time></trkpt><trkpt lat="45.8091003" lon="13.5684052"><ele>10.0</ele><time>2026-04-25T08:55:03.095Z</time></trkpt><trkpt lat="45.8090547" lon="13.5686748"><ele>11.666666666666668</ele><time>2026-04-25T08:55:04.102Z</time></trkpt><trkpt lat="45.8090089" lon="13.5689454"><ele>13.333333333333334</ele><time>2026-04-25T08:55:05.091Z</time></trkpt><trkpt lat="45.8089638" lon="13.569213"><ele>15.0</ele><time>2026-04-25T08:55:06.092Z</time></trkpt><trkpt lat="45.8089192" lon="13.5694807"><ele>18.0</ele><time>2026-04-25T08:55:07.082Z</time></trkpt><trkpt lat="45.8088725" lon="13.5697515"><ele>21.0</ele><time>2026-04-25T08:55:08.097Z</time></trkpt><trkpt lat="45.8088269" lon="13.5700168"><ele>24.0</ele><time>2026-04-25T08:55:09.097Z</time></trkpt><trkpt lat="45.8087798" lon="13.5702793"><ele>24.666666666666664</ele><time>2026-04-25T08:55:10.094Z</time></trkpt><trkpt lat="45.8087371" lon="13.570542"><ele>25.333333333333332</ele><time>2026-04-25T08:55:11.11Z</time></trkpt><trkpt lat="45.8086921" lon="13.5707967"><ele>26.0</ele><time>2026-04-25T08:55:12.097Z</time></trkpt><trkpt lat="45.8086448" lon="13.5710451"><ele>26.333333333333332</ele><time>2026-04-25T08:55:13.096Z</time></trkpt><trkpt lat="45.8085965" lon="13.5712897"><ele>26.666666666666664</ele><time>2026-04-25T08:55:14.095Z</time></trkpt><trkpt lat="45.8085415" lon="13.5715381"><ele>27.0</ele><time>2026-04-25T08:55:15.094Z</time></trkpt><trkpt lat="45.8084828" lon="13.5717759"><ele>21.333333333333332</ele><time>2026-04-25T08:55:16.097Z</time></trkpt><trkpt lat="45.8084242" lon="13.5720183"><ele>15.666666666666668</ele><time>2026-04-25T08:55:17.094Z</time></trkpt><trkpt lat="45.8083568" lon="13.5722549"><ele>10.0</ele><time>2026-04-25T08:55:18.106Z</time></trkpt><trkpt lat="45.8082819" lon="13.5724913"><ele>10.0</ele><time>2026-04-25T08:55:19.094Z</time></trkpt><trkpt lat="45.8082068" lon="13.5727301"><ele>10.0</ele><time>2026-04-25T08:55:20.091Z</time></trkpt><trkpt lat="45.8081269" lon="13.5729694"><ele>10.0</ele><time>2026-04-25T08:55:21.099Z</time></trkpt><trkpt lat="45.8080395" lon="13.5732078"><ele>12.333333333333334</ele><time>2026-04-25T08:55:22.096Z</time></trkpt><trkpt lat="45.8079459" lon="13.5734433"><ele>14.666666666666668</ele><time>2026-04-25T08:55:23.1Z</time></trkpt><trkpt lat="45.807843" lon="13.573668"><ele>17.0</ele><time>2026-04-25T08:55:24.097Z</time></trkpt><trkpt lat="45.8077355" lon="13.5738936"><ele>15.0</ele><time>2026-04-25T08:55:25.101Z</time></trkpt><trkpt lat="45.8076262" lon="13.5741154"><ele>13.0</ele><time>2026-04-25T08:55:26.105Z</time></trkpt><trkpt lat="45.8075183" lon="13.5743261"><ele>11.0</ele><time>2026-04-25T08:55:27.095Z</time></trkpt><trkpt lat="45.8074079" lon="13.5745313"><ele>11.0</ele><time>2026-04-25T08:55:28.103Z</time></trkpt><trkpt lat="45.8072983" lon="13.5747187"><ele>11.0</ele><time>2026-04-25T08:55:29.093Z</time></trkpt><trkpt lat="45.8071903" lon="13.5748861"><ele>11.0</ele><time>2026-04-25T08:55:30.111Z</time></trkpt><trkpt lat="45.8070774" lon="13.5750564"><ele>11.0</ele><time>2026-04-25T08:55:31.094Z</time></trkpt><trkpt lat="45.8069637" lon="13.5752112"><ele>11.0</ele><time>2026-04-25T08:55:32.097Z</time></trkpt><trkpt lat="45.8068538" lon="13.5753608"><ele>11.0</ele><time>2026-04-25T08:55:33.094Z</time></trkpt><trkpt lat="45.806742" lon="13.57551"><ele>11.0</ele><time>2026-04-25T08:55:34.096Z</time></trkpt><trkpt lat="45.8066261" lon="13.5756602"><ele>11.0</ele><time>2026-04-25T08:55:35.1Z</time></trkpt><trkpt lat="45.8065156" lon="13.5758011"><ele>11.0</ele><time>2026-04-25T08:55:36.101Z</time></trkpt><trkpt lat="45.8064128" lon="13.5759411"><ele>11.0</ele><time>2026-04-25T08:55:37.11Z</time></trkpt><trkpt lat="45.8063136" lon="13.5760721"><ele>10.0</ele><time>2026-04-25T08:55:38.096Z</time></trkpt><trkpt lat="45.8062187" lon="13.5761978"><ele>9.0</ele><time>2026-04-25T08:55:39.098Z</time></trkpt><trkpt lat="45.8061222" lon="13.5763147"><ele>8.0</ele><time>2026-04-25T08:55:40.095Z</time></trkpt><trkpt lat="45.8060217" lon="13.5764334"><ele>7.0</ele><time>2026-04-25T08:55:41.11Z</time></trkpt><trkpt lat="45.8059286" lon="13.5765532"><ele>7.0</ele><time>2026-04-25T08:55:42.102Z</time></trkpt><trkpt lat="45.8058459" lon="13.576662"><ele>6.999999999999999</ele><time>2026-04-25T08:55:43.095Z</time></trkpt><trkpt lat="45.8057654" lon="13.576755"><ele>6.999999999999999</ele><time>2026-04-25T08:55:44.094Z</time></trkpt><trkpt lat="45.8056904" lon="13.5768441"><ele>7.0</ele><time>2026-04-25T08:55:45.103Z</time></trkpt><trkpt lat="45.8056212" lon="13.5769274"><ele>7.0</ele><time>2026-04-25T08:55:46.092Z</time></trkpt><trkpt lat="45.8055558" lon="13.5770063"><ele>7.8</ele><time>2026-04-25T08:55:47.102Z</time></trkpt><trkpt lat="45.8055016" lon="13.5770895"><ele>8.6</ele><time>2026-04-25T08:55:48.103Z</time></trkpt><trkpt lat="45.8054506" lon="13.5771598"><ele>9.4</ele><time>2026-04-25T08:55:49.103Z</time></trkpt><trkpt lat="45.805369" lon="13.5772772"><ele>10.200000000000001</ele><time>2026-04-25T08:55:51.138Z</time></trkpt><trkpt lat="45.8053369" lon="13.5773571"><ele>11.0</ele><time>2026-04-25T08:55:52.103Z</time></trkpt><trkpt lat="45.8052928" lon="13.5775267"><ele>11.0</ele><time>2026-04-25T08:55:54.095Z</time></trkpt><trkpt lat="45.8052525" lon="13.5776446"><ele>11.0</ele><time>2026-04-25T08:55:56.102Z</time></trkpt><trkpt lat="45.8052118" lon="13.5777284"><ele>11.0</ele><time>2026-04-25T08:55:58.096Z</time></trkpt><trkpt lat="45.8051563" lon="13.5778574"><ele>11.0</ele><time>2026-04-25T08:56:00.09Z</time></trkpt><trkpt lat="45.8051203" lon="13.5779334"><ele>11.0</ele><time>2026-04-25T08:56:01.106Z</time></trkpt><trkpt lat="45.8050453" lon="13.5780401"><ele>11.0</ele><time>2026-04-25T08:56:03.098Z</time></trkpt><trkpt lat="45.8049994" lon="13.5781049"><ele>10.833333333333332</ele><time>2026-04-25T08:56:04.103Z</time></trkpt><trkpt lat="45.8049094" lon="13.5782073"><ele>10.666666666666666</ele><time>2026-04-25T08:56:06.094Z</time></trkpt><trkpt lat="45.8048499" lon="13.5783124"><ele>10.5</ele><time>2026-04-25T08:56:08.094Z</time></trkpt><trkpt lat="45.8048106" lon="13.5784018"><ele>10.333333333333334</ele><time>2026-04-25T08:56:10.095Z</time></trkpt><trkpt lat="45.804769" lon="13.5784726"><ele>10.166666666666668</ele><time>2026-04-25T08:56:12.095Z</time></trkpt><trkpt lat="45.8047136" lon="13.5785454"><ele>10.0</ele><time>2026-04-25T08:56:15.09Z</time></trkpt><trkpt lat="45.8046702" lon="13.5786122"><ele>10.0</ele><time>2026-04-25T08:56:19.086Z</time></trkpt><trkpt lat="45.8046148" lon="13.5786581"><ele>10.0</ele><time>2026-04-25T08:57:02.08Z</time></trkpt><trkpt lat="45.8045339" lon="13.5786684"><ele>10.0</ele><time>2026-04-25T08:57:05.092Z</time></trkpt><trkpt lat="45.8044531" lon="13.5786741"><ele>10.0</ele><time>2026-04-25T08:57:15.093Z</time></trkpt><trkpt lat="45.8043901" lon="13.578712"><ele>10.0</ele><time>2026-04-25T08:57:16.091Z</time></trkpt><trkpt lat="45.8043263" lon="13.5787611"><ele>10.0</ele><time>2026-04-25T08:57:17.093Z</time></trkpt><trkpt lat="45.8042703" lon="13.5788249"><ele>10.0</ele><time>2026-04-25T08:57:18.1Z</time></trkpt><trkpt lat="45.804204" lon="13.5788984"><ele>11.0</ele><time>2026-04-25T08:57:19.098Z</time></trkpt><trkpt lat="45.8041219" lon="13.5789887"><ele>12.0</ele><time>2026-04-25T08:57:20.094Z</time></trkpt><trkpt lat="45.8040411" lon="13.5790737"><ele>13.0</ele><time>2026-04-25T08:57:21.094Z</time></trkpt><trkpt lat="45.8039596" lon="13.5791742"><ele>14.0</ele><time>2026-04-25T08:57:22.092Z</time></trkpt><trkpt lat="45.8038707" lon="13.5792774"><ele>15.0</ele><time>2026-04-25T08:57:23.09Z</time></trkpt><trkpt lat="45.8037785" lon="13.5793985"><ele>15.0</ele><time>2026-04-25T08:57:24.093Z</time></trkpt><trkpt lat="45.803677" lon="13.5795096"><ele>15.0</ele><time>2026-04-25T08:57:25.092Z</time></trkpt><trkpt lat="45.8035742" lon="13.5796238"><ele>15.0</ele><time>2026-04-25T08:57:26.098Z</time></trkpt><trkpt lat="45.8034644" lon="13.5797221"><ele>15.0</ele><time>2026-04-25T08:57:27.118Z</time></trkpt><trkpt lat="45.803362" lon="13.5798377"><ele>15.333333333333332</ele><time>2026-04-25T08:57:28.105Z</time></trkpt><trkpt lat="45.8032422" lon="13.5799569"><ele>15.666666666666666</ele><time>2026-04-25T08:57:29.108Z</time></trkpt><trkpt lat="45.8031103" lon="13.5801029"><ele>16.0</ele><time>2026-04-25T08:57:30.109Z</time></trkpt><trkpt lat="45.803003" lon="13.5802567"><ele>15.666666666666666</ele><time>2026-04-25T08:57:31.098Z</time></trkpt><trkpt lat="45.8028877" lon="13.5804065"><ele>15.333333333333332</ele><time>2026-04-25T08:57:32.093Z</time></trkpt><trkpt lat="45.8027647" lon="13.5805536"><ele>15.0</ele><time>2026-04-25T08:57:33.094Z</time></trkpt><trkpt lat="45.8026375" lon="13.5807027"><ele>15.666666666666668</ele><time>2026-04-25T08:57:34.093Z</time></trkpt><trkpt lat="45.8024983" lon="13.5808519"><ele>16.333333333333336</ele><time>2026-04-25T08:57:35.099Z</time></trkpt><trkpt lat="45.8023485" lon="13.5810103"><ele>17.0</ele><time>2026-04-25T08:57:36.091Z</time></trkpt><trkpt lat="45.8021955" lon="13.5811579"><ele>17.0</ele><time>2026-04-25T08:57:37.093Z</time></trkpt><trkpt lat="45.8020332" lon="13.5813094"><ele>17.0</ele><time>2026-04-25T08:57:38.092Z</time></trkpt><trkpt lat="45.8018714" lon="13.5814562"><ele>17.0</ele><time>2026-04-25T08:57:39.087Z</time></trkpt><trkpt lat="45.8017072" lon="13.5815995"><ele>17.0</ele><time>2026-04-25T08:57:40.102Z</time></trkpt><trkpt lat="45.8015337" lon="13.5817464"><ele>17.0</ele><time>2026-04-25T08:57:41.238Z</time></trkpt><trkpt lat="45.8011702" lon="13.5820174"><ele>15.666666666666668</ele><time>2026-04-25T08:57:43.094Z</time></trkpt><trkpt lat="45.8009842" lon="13.5821491"><ele>14.333333333333332</ele><time>2026-04-25T08:57:44.091Z</time></trkpt><trkpt lat="45.8007976" lon="13.5822703"><ele>13.0</ele><time>2026-04-25T08:57:45.097Z</time></trkpt><trkpt lat="45.8006007" lon="13.5823957"><ele>13.0</ele><time>2026-04-25T08:57:46.098Z</time></trkpt><trkpt lat="45.8004078" lon="13.5825219"><ele>13.0</ele><time>2026-04-25T08:57:47.084Z</time></trkpt><trkpt lat="45.8002117" lon="13.5826482"><ele>13.0</ele><time>2026-04-25T08:57:48.091Z</time></trkpt><trkpt lat="45.8000107" lon="13.5827763"><ele>10.0</ele><time>2026-04-25T08:57:49.086Z</time></trkpt><trkpt lat="45.7998076" lon="13.5829096"><ele>7.0</ele><time>2026-04-25T08:57:50.094Z</time></trkpt><trkpt lat="45.7995979" lon="13.5830401"><ele>7.0</ele><time>2026-04-25T08:57:51.088Z</time></trkpt><trkpt lat="45.7993847" lon="13.5831648"><ele>7.0</ele><time>2026-04-25T08:57:52.088Z</time></trkpt><trkpt lat="45.7991736" lon="13.5832994"><ele>11.0</ele><time>2026-04-25T08:57:53.107Z</time></trkpt><trkpt lat="45.798962" lon="13.5834329"><ele>15.0</ele><time>2026-04-25T08:57:54.099Z</time></trkpt><trkpt lat="45.7987512" lon="13.5835686"><ele>9.0</ele><time>2026-04-25T08:57:55.086Z</time></trkpt><trkpt lat="45.7985391" lon="13.583701"><ele>3.0</ele><time>2026-04-25T08:57:56.097Z</time></trkpt><trkpt lat="45.7983306" lon="13.5838415"><ele>3.0</ele><time>2026-04-25T08:57:57.101Z</time></trkpt><trkpt lat="45.7981187" lon="13.5839814"><ele>3.0</ele><time>2026-04-25T08:57:58.092Z</time></trkpt><trkpt lat="45.7979035" lon="13.5841134"><ele>3.0</ele><time>2026-04-25T08:57:59.095Z</time></trkpt><trkpt lat="45.7976874" lon="13.5842597"><ele>3.0</ele><time>2026-04-25T08:58:00.094Z</time></trkpt><trkpt lat="45.797472" lon="13.5844047"><ele>3.0</ele><time>2026-04-25T08:58:01.098Z</time></trkpt><trkpt lat="45.7972495" lon="13.5845542"><ele>3.0</ele><time>2026-04-25T08:58:02.096Z</time></trkpt><trkpt lat="45.7970292" lon="13.5847078"><ele>3.0</ele><time>2026-04-25T08:58:03.096Z</time></trkpt><trkpt lat="45.7968065" lon="13.5848603"><ele>3.0</ele><time>2026-04-25T08:58:04.09Z</time></trkpt><trkpt lat="45.7965809" lon="13.5850129"><ele>3.0</ele><time>2026-04-25T08:58:05.089Z</time></trkpt><trkpt lat="45.7963555" lon="13.5851699"><ele>3.0</ele><time>2026-04-25T08:58:06.103Z</time></trkpt><trkpt lat="45.7961334" lon="13.5853348"><ele>8.5</ele><time>2026-04-25T08:58:07.098Z</time></trkpt><trkpt lat="45.7959109" lon="13.5854954"><ele>14.0</ele><time>2026-04-25T08:58:08.096Z</time></trkpt><trkpt lat="45.7956869" lon="13.5856576"><ele>14.0</ele><time>2026-04-25T08:58:09.098Z</time></trkpt><trkpt lat="45.7954644" lon="13.5858182"><ele>14.0</ele><time>2026-04-25T08:58:10.096Z</time></trkpt><trkpt lat="45.7952449" lon="13.5859924"><ele>20.5</ele><time>2026-04-25T08:58:11.105Z</time></trkpt><trkpt lat="45.7950236" lon="13.5861583"><ele>27.0</ele><time>2026-04-25T08:58:12.093Z</time></trkpt><trkpt lat="45.7948073" lon="13.5863349"><ele>27.0</ele><time>2026-04-25T08:58:13.099Z</time></trkpt><trkpt lat="45.7945907" lon="13.5865098"><ele>27.0</ele><time>2026-04-25T08:58:14.081Z</time></trkpt><trkpt lat="45.7943724" lon="13.5866853"><ele>26.0</ele><time>2026-04-25T08:58:15.09Z</time></trkpt><trkpt lat="45.7941539" lon="13.5868521"><ele>25.0</ele><time>2026-04-25T08:58:16.085Z</time></trkpt><trkpt lat="45.7939382" lon="13.5870134"><ele>25.0</ele><time>2026-04-25T08:58:17.103Z</time></trkpt><trkpt lat="45.79372" lon="13.5871687"><ele>25.0</ele><time>2026-04-25T08:58:18.091Z</time></trkpt><trkpt lat="45.7935076" lon="13.5873279"><ele>18.5</ele><time>2026-04-25T08:58:19.083Z</time></trkpt><trkpt lat="45.7932987" lon="13.5875028"><ele>12.0</ele><time>2026-04-25T08:58:20.086Z</time></trkpt><trkpt lat="45.7930983" lon="13.5876825"><ele>15.5</ele><time>2026-04-25T08:58:21.089Z</time></trkpt><trkpt lat="45.7929024" lon="13.5878791"><ele>19.0</ele><time>2026-04-25T08:58:22.085Z</time></trkpt><trkpt lat="45.7927067" lon="13.5880823"><ele>13.0</ele><time>2026-04-25T08:58:23.088Z</time></trkpt><trkpt lat="45.7925134" lon="13.5883012"><ele>7.0</ele><time>2026-04-25T08:58:24.103Z</time></trkpt><trkpt lat="45.7923226" lon="13.5885318"><ele>11.5</ele><time>2026-04-25T08:58:25.102Z</time></trkpt><trkpt lat="45.7921277" lon="13.588762"><ele>16.0</ele><time>2026-04-25T08:58:26.097Z</time></trkpt><trkpt lat="45.7919458" lon="13.5890082"><ele>17.0</ele><time>2026-04-25T08:58:27.099Z</time></trkpt><trkpt lat="45.7917708" lon="13.5892737"><ele>18.0</ele><time>2026-04-25T08:58:28.102Z</time></trkpt><trkpt lat="45.7915988" lon="13.5895301"><ele>18.0</ele><time>2026-04-25T08:58:29.101Z</time></trkpt><trkpt lat="45.7914248" lon="13.5898089"><ele>18.0</ele><time>2026-04-25T08:58:30.156Z</time></trkpt><trkpt lat="45.7912584" lon="13.5900864"><ele>17.5</ele><time>2026-04-25T08:58:31.097Z</time></trkpt><trkpt lat="45.7910948" lon="13.5903635"><ele>17.0</ele><time>2026-04-25T08:58:32.099Z</time></trkpt><trkpt lat="45.7909288" lon="13.5906367"><ele>17.0</ele><time>2026-04-25T08:58:33.105Z</time></trkpt><trkpt lat="45.7907591" lon="13.5909015"><ele>17.0</ele><time>2026-04-25T08:58:34.11Z</time></trkpt><trkpt lat="45.7906042" lon="13.5911799"><ele>20.0</ele><time>2026-04-25T08:58:35.096Z</time></trkpt><trkpt lat="45.7904428" lon="13.5914536"><ele>23.0</ele><time>2026-04-25T08:58:36.096Z</time></trkpt><trkpt lat="45.7902728" lon="13.5917109"><ele>22.0</ele><time>2026-04-25T08:58:37.1Z</time></trkpt><trkpt lat="45.7900961" lon="13.5919596"><ele>21.0</ele><time>2026-04-25T08:58:38.1Z</time></trkpt><trkpt lat="45.7899131" lon="13.5921936"><ele>21.0</ele><time>2026-04-25T08:58:39.101Z</time></trkpt><trkpt lat="45.7897279" lon="13.5924202"><ele>21.0</ele><time>2026-04-25T08:58:40.102Z</time></trkpt><trkpt lat="45.7895397" lon="13.5926309"><ele>22.5</ele><time>2026-04-25T08:58:41.102Z</time></trkpt><trkpt lat="45.7893428" lon="13.592845"><ele>24.0</ele><time>2026-04-25T08:58:42.103Z</time></trkpt><trkpt lat="45.7891489" lon="13.5930398"><ele>24.0</ele><time>2026-04-25T08:58:43.12Z</time></trkpt><trkpt lat="45.7889421" lon="13.5932302"><ele>24.0</ele><time>2026-04-25T08:58:44.099Z</time></trkpt><trkpt lat="45.7887365" lon="13.5934216"><ele>24.0</ele><time>2026-04-25T08:58:45.1Z</time></trkpt><trkpt lat="45.7885274" lon="13.5936065"><ele>24.0</ele><time>2026-04-25T08:58:46.094Z</time></trkpt><trkpt lat="45.7883171" lon="13.5937738"><ele>24.0</ele><time>2026-04-25T08:58:47.117Z</time></trkpt><trkpt lat="45.7881079" lon="13.5939481"><ele>24.0</ele><time>2026-04-25T08:58:48.096Z</time></trkpt><trkpt lat="45.7878925" lon="13.5941114"><ele>22.0</ele><time>2026-04-25T08:58:49.093Z</time></trkpt><trkpt lat="45.7876757" lon="13.594261"><ele>20.0</ele><time>2026-04-25T08:58:50.104Z</time></trkpt><trkpt lat="45.7874516" lon="13.5944101"><ele>24.0</ele><time>2026-04-25T08:58:51.09Z</time></trkpt><trkpt lat="45.7872249" lon="13.5945654"><ele>28.0</ele><time>2026-04-25T08:58:52.109Z</time></trkpt><trkpt lat="45.7870017" lon="13.594718"><ele>27.5</ele><time>2026-04-25T08:58:53.099Z</time></trkpt><trkpt lat="45.7867733" lon="13.5948789"><ele>27.0</ele><time>2026-04-25T08:58:54.101Z</time></trkpt><trkpt lat="45.7865503" lon="13.5950294"><ele>27.0</ele><time>2026-04-25T08:58:55.102Z</time></trkpt><trkpt lat="45.7863226" lon="13.5951827"><ele>27.0</ele><time>2026-04-25T08:58:56.089Z</time></trkpt><trkpt lat="45.7860942" lon="13.5953325"><ele>29.0</ele><time>2026-04-25T08:58:57.094Z</time></trkpt><trkpt lat="45.7858682" lon="13.595479"><ele>31.0</ele><time>2026-04-25T08:58:58.091Z</time></trkpt><trkpt lat="45.7856427" lon="13.5956303"><ele>31.0</ele><time>2026-04-25T08:58:59.104Z</time></trkpt><trkpt lat="45.7854223" lon="13.5957813"><ele>31.0</ele><time>2026-04-25T08:59:00.104Z</time></trkpt><trkpt lat="45.785202" lon="13.5959313"><ele>31.5</ele><time>2026-04-25T08:59:01.106Z</time></trkpt><trkpt lat="45.7849809" lon="13.5960789"><ele>32.0</ele><time>2026-04-25T08:59:02.109Z</time></trkpt><trkpt lat="45.7847584" lon="13.596226"><ele>32.0</ele><time>2026-04-25T08:59:03.101Z</time></trkpt><trkpt lat="45.7845341" lon="13.5963784"><ele>32.0</ele><time>2026-04-25T08:59:04.105Z</time></trkpt><trkpt lat="45.7843105" lon="13.5965293"><ele>27.5</ele><time>2026-04-25T08:59:05.098Z</time></trkpt><trkpt lat="45.784082" lon="13.5966808"><ele>23.0</ele><time>2026-04-25T08:59:06.097Z</time></trkpt><trkpt lat="45.7838579" lon="13.5968383"><ele>23.0</ele><time>2026-04-25T08:59:07.104Z</time></trkpt><trkpt lat="45.7836374" lon="13.5969957"><ele>23.0</ele><time>2026-04-25T08:59:08.102Z</time></trkpt><trkpt lat="45.7834153" lon="13.5971495"><ele>27.0</ele><time>2026-04-25T08:59:09.109Z</time></trkpt><trkpt lat="45.7831907" lon="13.5972977"><ele>31.0</ele><time>2026-04-25T08:59:10.095Z</time></trkpt><trkpt lat="45.7829653" lon="13.597444"><ele>31.0</ele><time>2026-04-25T08:59:11.104Z</time></trkpt><trkpt lat="45.7827366" lon="13.5975973"><ele>31.0</ele><time>2026-04-25T08:59:12.107Z</time></trkpt><trkpt lat="45.782509" lon="13.5977518"><ele>33.5</ele><time>2026-04-25T08:59:13.108Z</time></trkpt><trkpt lat="45.7822817" lon="13.5978998"><ele>36.0</ele><time>2026-04-25T08:59:14.099Z</time></trkpt><trkpt lat="45.7820567" lon="13.5980502"><ele>35.5</ele><time>2026-04-25T08:59:15.108Z</time></trkpt><trkpt lat="45.7818317" lon="13.5982012"><ele>35.0</ele><time>2026-04-25T08:59:16.094Z</time></trkpt><trkpt lat="45.7816093" lon="13.5983521"><ele>35.0</ele><time>2026-04-25T08:59:17.097Z</time></trkpt><trkpt lat="45.7813927" lon="13.5985006"><ele>35.0</ele><time>2026-04-25T08:59:18.093Z</time></trkpt><trkpt lat="45.7811772" lon="13.598649"><ele>37.5</ele><time>2026-04-25T08:59:19.102Z</time></trkpt><trkpt lat="45.7809643" lon="13.5988011"><ele>40.0</ele><time>2026-04-25T08:59:20.103Z</time></trkpt><trkpt lat="45.7807534" lon="13.5989513"><ele>40.0</ele><time>2026-04-25T08:59:21.096Z</time></trkpt><trkpt lat="45.780547" lon="13.5991048"><ele>40.0</ele><time>2026-04-25T08:59:22.093Z</time></trkpt><trkpt lat="45.7803416" lon="13.5992626"><ele>40.5</ele><time>2026-04-25T08:59:23.098Z</time></trkpt><trkpt lat="45.780142" lon="13.5994346"><ele>41.0</ele><time>2026-04-25T08:59:24.093Z</time></trkpt><trkpt lat="45.7799498" lon="13.5996168"><ele>41.0</ele><time>2026-04-25T08:59:25.109Z</time></trkpt><trkpt lat="45.7797572" lon="13.5998144"><ele>41.0</ele><time>2026-04-25T08:59:26.097Z</time></trkpt><trkpt lat="45.7795718" lon="13.6000196"><ele>41.0</ele><time>2026-04-25T08:59:27.107Z</time></trkpt><trkpt lat="45.7793945" lon="13.6002363"><ele>41.0</ele><time>2026-04-25T08:59:28.146Z</time></trkpt><trkpt lat="45.7792189" lon="13.6004597"><ele>41.0</ele><time>2026-04-25T08:59:29.089Z</time></trkpt><trkpt lat="45.7790435" lon="13.6007085"><ele>41.0</ele><time>2026-04-25T08:59:30.102Z</time></trkpt><trkpt lat="45.7788853" lon="13.6009735"><ele>43.0</ele><time>2026-04-25T08:59:31.096Z</time></trkpt><trkpt lat="45.7787278" lon="13.6012448"><ele>45.0</ele><time>2026-04-25T08:59:32.105Z</time></trkpt><trkpt lat="45.7785823" lon="13.6015271"><ele>42.5</ele><time>2026-04-25T08:59:33.1Z</time></trkpt><trkpt lat="45.7784418" lon="13.601808"><ele>40.0</ele><time>2026-04-25T08:59:34.101Z</time></trkpt><trkpt lat="45.778316" lon="13.6020998"><ele>40.0</ele><time>2026-04-25T08:59:35.116Z</time></trkpt><trkpt lat="45.7782023" lon="13.6023991"><ele>40.0</ele><time>2026-04-25T08:59:36.103Z</time></trkpt><trkpt lat="45.7781023" lon="13.6026869"><ele>43.0</ele><time>2026-04-25T08:59:37.109Z</time></trkpt><trkpt lat="45.7780064" lon="13.6029823"><ele>46.0</ele><time>2026-04-25T08:59:38.101Z</time></trkpt><trkpt lat="45.777921" lon="13.6032903"><ele>46.0</ele><time>2026-04-25T08:59:39.107Z</time></trkpt><trkpt lat="45.7778383" lon="13.6035997"><ele>46.0</ele><time>2026-04-25T08:59:40.1Z</time></trkpt><trkpt lat="45.7777625" lon="13.6039195"><ele>47.5</ele><time>2026-04-25T08:59:41.107Z</time></trkpt><trkpt lat="45.7776927" lon="13.6042518"><ele>49.0</ele><time>2026-04-25T08:59:42.102Z</time></trkpt><trkpt lat="45.7776271" lon="13.6045854"><ele>49.0</ele><time>2026-04-25T08:59:43.1Z</time></trkpt><trkpt lat="45.7775623" lon="13.6049174"><ele>49.0</ele><time>2026-04-25T08:59:44.102Z</time></trkpt><trkpt lat="45.7774965" lon="13.6052532"><ele>50.0</ele><time>2026-04-25T08:59:45.096Z</time></trkpt><trkpt lat="45.7774268" lon="13.6055919"><ele>51.0</ele><time>2026-04-25T08:59:46.098Z</time></trkpt><trkpt lat="45.777354" lon="13.6059296"><ele>52.5</ele><time>2026-04-25T08:59:47.104Z</time></trkpt><trkpt lat="45.7772867" lon="13.6062659"><ele>54.0</ele><time>2026-04-25T08:59:48.097Z</time></trkpt><trkpt lat="45.7772208" lon="13.6065939"><ele>54.0</ele><time>2026-04-25T08:59:49.117Z</time></trkpt><trkpt lat="45.7771586" lon="13.6069219"><ele>54.0</ele><time>2026-04-25T08:59:50.093Z</time></trkpt><trkpt lat="45.7770977" lon="13.6072485"><ele>55.5</ele><time>2026-04-25T08:59:51.094Z</time></trkpt><trkpt lat="45.7770379" lon="13.607581"><ele>57.0</ele><time>2026-04-25T08:59:52.11Z</time></trkpt><trkpt lat="45.776977" lon="13.6079078"><ele>58.0</ele><time>2026-04-25T08:59:53.095Z</time></trkpt><trkpt lat="45.7769109" lon="13.6082364"><ele>59.0</ele><time>2026-04-25T08:59:54.1Z</time></trkpt><trkpt lat="45.7768486" lon="13.6085546"><ele>58.5</ele><time>2026-04-25T08:59:55.103Z</time></trkpt><trkpt lat="45.7767821" lon="13.6088698"><ele>58.0</ele><time>2026-04-25T08:59:56.102Z</time></trkpt><trkpt lat="45.7767221" lon="13.6091837"><ele>59.0</ele><time>2026-04-25T08:59:57.093Z</time></trkpt><trkpt lat="45.7766565" lon="13.6094974"><ele>60.0</ele><time>2026-04-25T08:59:58.092Z</time></trkpt><trkpt lat="45.7765941" lon="13.6098093"><ele>60.0</ele><time>2026-04-25T08:59:59.096Z</time></trkpt><trkpt lat="45.7765272" lon="13.6101312"><ele>60.0</ele><time>2026-04-25T09:00:00.12Z</time></trkpt><trkpt lat="45.776464" lon="13.6104516"><ele>61.0</ele><time>2026-04-25T09:00:01.117Z</time></trkpt><trkpt lat="45.7763981" lon="13.6107807"><ele>62.0</ele><time>2026-04-25T09:00:02.105Z</time></trkpt><trkpt lat="45.7763312" lon="13.6111194"><ele>63.0</ele><time>2026-04-25T09:00:03.106Z</time></trkpt><trkpt lat="45.7762613" lon="13.611466"><ele>64.0</ele><time>2026-04-25T09:00:04.105Z</time></trkpt><trkpt lat="45.7761939" lon="13.6118169"><ele>64.0</ele><time>2026-04-25T09:00:05.108Z</time></trkpt><trkpt lat="45.7761305" lon="13.6121501"><ele>64.0</ele><time>2026-04-25T09:00:06.109Z</time></trkpt><trkpt lat="45.7760652" lon="13.6124745"><ele>62.0</ele><time>2026-04-25T09:00:07.248Z</time></trkpt><trkpt lat="45.7759983" lon="13.6128076"><ele>60.0</ele><time>2026-04-25T09:00:08.183Z</time></trkpt><trkpt lat="45.7759326" lon="13.6131465"><ele>60.0</ele><time>2026-04-25T09:00:09.185Z</time></trkpt><trkpt lat="45.7758767" lon="13.6134876"><ele>60.0</ele><time>2026-04-25T09:00:10.187Z</time></trkpt><trkpt lat="45.7758233" lon="13.6138344"><ele>60.5</ele><time>2026-04-25T09:00:11.107Z</time></trkpt><trkpt lat="45.7757765" lon="13.6141828"><ele>61.0</ele><time>2026-04-25T09:00:12.102Z</time></trkpt><trkpt lat="45.7757365" lon="13.6145313"><ele>61.5</ele><time>2026-04-25T09:00:13.11Z</time></trkpt><trkpt lat="45.7756988" lon="13.6148889"><ele>62.0</ele><time>2026-04-25T09:00:14.1Z</time></trkpt><trkpt lat="45.7756623" lon="13.6152456"><ele>62.5</ele><time>2026-04-25T09:00:15.178Z</time></trkpt><trkpt lat="45.7756358" lon="13.6156095"><ele>63.0</ele><time>2026-04-25T09:00:16.179Z</time></trkpt><trkpt lat="45.77561" lon="13.6159729"><ele>63.0</ele><time>2026-04-25T09:00:17.177Z</time></trkpt><trkpt lat="45.7755866" lon="13.616346"><ele>63.0</ele><time>2026-04-25T09:00:18.109Z</time></trkpt><trkpt lat="45.7755642" lon="13.6167171"><ele>63.5</ele><time>2026-04-25T09:00:19.104Z</time></trkpt><trkpt lat="45.7755415" lon="13.6170886"><ele>64.0</ele><time>2026-04-25T09:00:20.094Z</time></trkpt><trkpt lat="45.7755208" lon="13.6174542"><ele>63.5</ele><time>2026-04-25T09:00:21.099Z</time></trkpt><trkpt lat="45.7754961" lon="13.6178204"><ele>63.0</ele><time>2026-04-25T09:00:22.098Z</time></trkpt><trkpt lat="45.7754747" lon="13.6181845"><ele>63.0</ele><time>2026-04-25T09:00:23.095Z</time></trkpt><trkpt lat="45.7754527" lon="13.6185465"><ele>63.0</ele><time>2026-04-25T09:00:24.102Z</time></trkpt><trkpt lat="45.7754293" lon="13.6189009"><ele>63.0</ele><time>2026-04-25T09:00:25.176Z</time></trkpt><trkpt lat="45.7754073" lon="13.6192656"><ele>63.0</ele><time>2026-04-25T09:00:26.174Z</time></trkpt><trkpt lat="45.7753822" lon="13.6196297"><ele>63.5</ele><time>2026-04-25T09:00:27.175Z</time></trkpt><trkpt lat="45.7753539" lon="13.6199903"><ele>64.0</ele><time>2026-04-25T09:00:28.181Z</time></trkpt><trkpt lat="45.7753251" lon="13.6203551"><ele>62.0</ele><time>2026-04-25T09:00:29.17Z</time></trkpt><trkpt lat="45.7752999" lon="13.6207126"><ele>60.0</ele><time>2026-04-25T09:00:30.188Z</time></trkpt><trkpt lat="45.7752779" lon="13.6210678"><ele>60.0</ele><time>2026-04-25T09:00:31.182Z</time></trkpt><trkpt lat="45.7752569" lon="13.6214243"><ele>60.0</ele><time>2026-04-25T09:00:32.182Z</time></trkpt><trkpt lat="45.7752339" lon="13.6217783"><ele>60.0</ele><time>2026-04-25T09:00:33.186Z</time></trkpt><trkpt lat="45.7752092" lon="13.6221314"><ele>60.0</ele><time>2026-04-25T09:00:34.181Z</time></trkpt><trkpt lat="45.7751887" lon="13.6224838"><ele>60.5</ele><time>2026-04-25T09:00:35.19Z</time></trkpt><trkpt lat="45.7751662" lon="13.6228302"><ele>61.0</ele><time>2026-04-25T09:00:36.185Z</time></trkpt><trkpt lat="45.7751457" lon="13.6231775"><ele>61.0</ele><time>2026-04-25T09:00:37.198Z</time></trkpt><trkpt lat="45.7751242" lon="13.6235233"><ele>61.0</ele><time>2026-04-25T09:00:38.185Z</time></trkpt><trkpt lat="45.7751016" lon="13.6238691"><ele>64.0</ele><time>2026-04-25T09:00:39.182Z</time></trkpt><trkpt lat="45.7750762" lon="13.6242151"><ele>67.0</ele><time>2026-04-25T09:00:40.192Z</time></trkpt><trkpt lat="45.7750551" lon="13.6245694"><ele>69.5</ele><time>2026-04-25T09:00:41.171Z</time></trkpt><trkpt lat="45.7750329" lon="13.6249212"><ele>72.0</ele><time>2026-04-25T09:00:42.17Z</time></trkpt><trkpt lat="45.7750121" lon="13.6252648"><ele>72.5</ele><time>2026-04-25T09:00:43.171Z</time></trkpt><trkpt lat="45.7749941" lon="13.6256137"><ele>73.0</ele><time>2026-04-25T09:00:44.174Z</time></trkpt><trkpt lat="45.7749732" lon="13.6259588"><ele>72.5</ele><time>2026-04-25T09:00:45.172Z</time></trkpt><trkpt lat="45.7749455" lon="13.6263043"><ele>72.0</ele><time>2026-04-25T09:00:46.182Z</time></trkpt><trkpt lat="45.774921" lon="13.6266539"><ele>71.5</ele><time>2026-04-25T09:00:47.183Z</time></trkpt><trkpt lat="45.7748985" lon="13.6270082"><ele>71.0</ele><time>2026-04-25T09:00:48.195Z</time></trkpt><trkpt lat="45.7748745" lon="13.6273554"><ele>71.0</ele><time>2026-04-25T09:00:49.188Z</time></trkpt><trkpt lat="45.7748503" lon="13.6277127"><ele>71.0</ele><time>2026-04-25T09:00:50.181Z</time></trkpt><trkpt lat="45.7748216" lon="13.6280723"><ele>71.5</ele><time>2026-04-25T09:00:51.19Z</time></trkpt><trkpt lat="45.7747963" lon="13.6284247"><ele>72.0</ele><time>2026-04-25T09:00:52.182Z</time></trkpt><trkpt lat="45.7747678" lon="13.6287819"><ele>74.5</ele><time>2026-04-25T09:00:53.181Z</time></trkpt><trkpt lat="45.7747469" lon="13.6291394"><ele>77.0</ele><time>2026-04-25T09:00:54.173Z</time></trkpt><trkpt lat="45.7747233" lon="13.6294963"><ele>77.0</ele><time>2026-04-25T09:00:55.194Z</time></trkpt><trkpt lat="45.774701" lon="13.6298461"><ele>77.0</ele><time>2026-04-25T09:00:56.181Z</time></trkpt><trkpt lat="45.7746795" lon="13.6301976"><ele>76.5</ele><time>2026-04-25T09:00:57.176Z</time></trkpt><trkpt lat="45.7746559" lon="13.6305468"><ele>76.0</ele><time>2026-04-25T09:00:58.193Z</time></trkpt><trkpt lat="45.7746288" lon="13.630892"><ele>75.5</ele><time>2026-04-25T09:00:59.188Z</time></trkpt><trkpt lat="45.7746052" lon="13.6312317"><ele>75.0</ele><time>2026-04-25T09:01:00.185Z</time></trkpt><trkpt lat="45.7745782" lon="13.6315666"><ele>75.0</ele><time>2026-04-25T09:01:01.183Z</time></trkpt><trkpt lat="45.7745508" lon="13.6319104"><ele>75.0</ele><time>2026-04-25T09:01:02.174Z</time></trkpt><trkpt lat="45.7745201" lon="13.6322524"><ele>76.0</ele><time>2026-04-25T09:01:03.183Z</time></trkpt><trkpt lat="45.7744936" lon="13.6325926"><ele>77.0</ele><time>2026-04-25T09:01:04.188Z</time></trkpt><trkpt lat="45.7744636" lon="13.6329336"><ele>78.5</ele><time>2026-04-25T09:01:05.186Z</time></trkpt><trkpt lat="45.7744336" lon="13.6332784"><ele>80.0</ele><time>2026-04-25T09:01:06.186Z</time></trkpt><trkpt lat="45.774404" lon="13.6336244"><ele>81.0</ele><time>2026-04-25T09:01:07.192Z</time></trkpt><trkpt lat="45.7743781" lon="13.6339717"><ele>82.0</ele><time>2026-04-25T09:01:08.187Z</time></trkpt><trkpt lat="45.7743564" lon="13.6343168"><ele>82.5</ele><time>2026-04-25T09:01:09.193Z</time></trkpt><trkpt lat="45.7743329" lon="13.6346701"><ele>83.0</ele><time>2026-04-25T09:01:10.183Z</time></trkpt><trkpt lat="45.7743018" lon="13.635011"><ele>85.0</ele><time>2026-04-25T09:01:11.179Z</time></trkpt><trkpt lat="45.7742757" lon="13.6353594"><ele>87.0</ele><time>2026-04-25T09:01:12.184Z</time></trkpt><trkpt lat="45.774247" lon="13.6357072"><ele>87.0</ele><time>2026-04-25T09:01:13.189Z</time></trkpt><trkpt lat="45.7742166" lon="13.6360511"><ele>87.0</ele><time>2026-04-25T09:01:14.18Z</time></trkpt><trkpt lat="45.774187" lon="13.6364006"><ele>88.0</ele><time>2026-04-25T09:01:15.186Z</time></trkpt><trkpt lat="45.7741589" lon="13.6367438"><ele>89.0</ele><time>2026-04-25T09:01:16.169Z</time></trkpt><trkpt lat="45.7741269" lon="13.637092"><ele>87.0</ele><time>2026-04-25T09:01:17.191Z</time></trkpt><trkpt lat="45.7740961" lon="13.6374394"><ele>85.0</ele><time>2026-04-25T09:01:18.184Z</time></trkpt><trkpt lat="45.774064" lon="13.6377823"><ele>86.0</ele><time>2026-04-25T09:01:19.183Z</time></trkpt><trkpt lat="45.7740258" lon="13.6381237"><ele>87.0</ele><time>2026-04-25T09:01:20.182Z</time></trkpt><trkpt lat="45.7739726" lon="13.6384636"><ele>88.5</ele><time>2026-04-25T09:01:21.192Z</time></trkpt><trkpt lat="45.7739141" lon="13.6387992"><ele>90.0</ele><time>2026-04-25T09:01:22.195Z</time></trkpt><trkpt lat="45.7738426" lon="13.6391302"><ele>90.0</ele><time>2026-04-25T09:01:23.185Z</time></trkpt><trkpt lat="45.7737577" lon="13.6394576"><ele>90.0</ele><time>2026-04-25T09:01:24.186Z</time></trkpt><trkpt lat="45.7736686" lon="13.6397775"><ele>90.5</ele><time>2026-04-25T09:01:25.195Z</time></trkpt><trkpt lat="45.7735609" lon="13.6400932"><ele>91.0</ele><time>2026-04-25T09:01:26.198Z</time></trkpt><trkpt lat="45.7734467" lon="13.6404065"><ele>89.0</ele><time>2026-04-25T09:01:27.204Z</time></trkpt><trkpt lat="45.77332" lon="13.6407114"><ele>87.0</ele><time>2026-04-25T09:01:28.194Z</time></trkpt><trkpt lat="45.7731895" lon="13.6410093"><ele>88.5</ele><time>2026-04-25T09:01:29.184Z</time></trkpt><trkpt lat="45.7730526" lon="13.6413004"><ele>90.0</ele><time>2026-04-25T09:01:30.184Z</time></trkpt><trkpt lat="45.7729051" lon="13.6415753"><ele>90.0</ele><time>2026-04-25T09:01:31.182Z</time></trkpt><trkpt lat="45.7727458" lon="13.6418318"><ele>90.0</ele><time>2026-04-25T09:01:32.172Z</time></trkpt><trkpt lat="45.7725807" lon="13.642092"><ele>88.5</ele><time>2026-04-25T09:01:33.195Z</time></trkpt><trkpt lat="45.7724048" lon="13.6423353"><ele>87.0</ele><time>2026-04-25T09:01:34.19Z</time></trkpt><trkpt lat="45.7722198" lon="13.6425591"><ele>87.0</ele><time>2026-04-25T09:01:35.191Z</time></trkpt><trkpt lat="45.772035" lon="13.6427853"><ele>87.0</ele><time>2026-04-25T09:01:36.191Z</time></trkpt><trkpt lat="45.7718543" lon="13.6430018"><ele>88.33333333333333</ele><time>2026-04-25T09:01:37.187Z</time></trkpt><trkpt lat="45.7716778" lon="13.6432018"><ele>89.66666666666666</ele><time>2026-04-25T09:01:38.193Z</time></trkpt><trkpt lat="45.7715087" lon="13.6434005"><ele>91.0</ele><time>2026-04-25T09:01:39.181Z</time></trkpt><trkpt lat="45.7713397" lon="13.6435903"><ele>92.0</ele><time>2026-04-25T09:01:40.189Z</time></trkpt><trkpt lat="45.7711757" lon="13.6437749"><ele>93.0</ele><time>2026-04-25T09:01:41.189Z</time></trkpt><trkpt lat="45.7710169" lon="13.6439512"><ele>94.0</ele><time>2026-04-25T09:01:42.181Z</time></trkpt><trkpt lat="45.7708717" lon="13.6441181"><ele>94.0</ele><time>2026-04-25T09:01:43.187Z</time></trkpt><trkpt lat="45.7707223" lon="13.6442869"><ele>94.0</ele><time>2026-04-25T09:01:44.186Z</time></trkpt><trkpt lat="45.7705635" lon="13.6444573"><ele>94.0</ele><time>2026-04-25T09:01:45.19Z</time></trkpt><trkpt lat="45.7704103" lon="13.644626"><ele>94.0</ele><time>2026-04-25T09:01:46.184Z</time></trkpt><trkpt lat="45.7702645" lon="13.6447822"><ele>94.0</ele><time>2026-04-25T09:01:47.189Z</time></trkpt><trkpt lat="45.7701283" lon="13.6449373"><ele>94.0</ele><time>2026-04-25T09:01:48.185Z</time></trkpt><trkpt lat="45.7699886" lon="13.6450931"><ele>94.0</ele><time>2026-04-25T09:01:49.188Z</time></trkpt><trkpt lat="45.7698488" lon="13.6452474"><ele>94.0</ele><time>2026-04-25T09:01:50.184Z</time></trkpt><trkpt lat="45.7697135" lon="13.6454015"><ele>94.0</ele><time>2026-04-25T09:01:51.188Z</time></trkpt><trkpt lat="45.7695791" lon="13.6455633"><ele>94.0</ele><time>2026-04-25T09:01:52.19Z</time></trkpt><trkpt lat="45.7694347" lon="13.6457288"><ele>94.0</ele><time>2026-04-25T09:01:53.178Z</time></trkpt><trkpt lat="45.7692852" lon="13.6459016"><ele>94.0</ele><time>2026-04-25T09:01:54.183Z</time></trkpt><trkpt lat="45.7691281" lon="13.6460798"><ele>94.66666666666666</ele><time>2026-04-25T09:01:55.182Z</time></trkpt><trkpt lat="45.7689643" lon="13.6462682"><ele>95.33333333333333</ele><time>2026-04-25T09:01:56.184Z</time></trkpt><trkpt lat="45.7687968" lon="13.6464655"><ele>96.0</ele><time>2026-04-25T09:01:57.186Z</time></trkpt><trkpt lat="45.768624" lon="13.6466712"><ele>96.0</ele><time>2026-04-25T09:01:58.181Z</time></trkpt><trkpt lat="45.7684459" lon="13.6468793"><ele>96.0</ele><time>2026-04-25T09:01:59.186Z</time></trkpt><trkpt lat="45.7682611" lon="13.6470918"><ele>96.0</ele><time>2026-04-25T09:02:00.178Z</time></trkpt><trkpt lat="45.7680743" lon="13.647311"><ele>96.0</ele><time>2026-04-25T09:02:01.191Z</time></trkpt><trkpt lat="45.7678876" lon="13.6475323"><ele>96.0</ele><time>2026-04-25T09:02:02.193Z</time></trkpt><trkpt lat="45.7677077" lon="13.6477641"><ele>96.0</ele><time>2026-04-25T09:02:03.191Z</time></trkpt><trkpt lat="45.7675206" lon="13.6480007"><ele>98.0</ele><time>2026-04-25T09:02:04.181Z</time></trkpt><trkpt lat="45.7673398" lon="13.6482434"><ele>100.0</ele><time>2026-04-25T09:02:05.179Z</time></trkpt><trkpt lat="45.7671666" lon="13.6484901"><ele>100.5</ele><time>2026-04-25T09:02:06.182Z</time></trkpt><trkpt lat="45.7669943" lon="13.6487433"><ele>101.0</ele><time>2026-04-25T09:02:07.19Z</time></trkpt><trkpt lat="45.7668292" lon="13.6490026"><ele>101.0</ele><time>2026-04-25T09:02:08.193Z</time></trkpt><trkpt lat="45.766672" lon="13.6492631"><ele>101.0</ele><time>2026-04-25T09:02:09.191Z</time></trkpt><trkpt lat="45.7665249" lon="13.6495291"><ele>104.0</ele><time>2026-04-25T09:02:10.189Z</time></trkpt><trkpt lat="45.7663887" lon="13.6497984"><ele>107.0</ele><time>2026-04-25T09:02:11.197Z</time></trkpt><trkpt lat="45.7662577" lon="13.650061"><ele>107.33333333333333</ele><time>2026-04-25T09:02:12.192Z</time></trkpt><trkpt lat="45.7661355" lon="13.6503388"><ele>107.66666666666666</ele><time>2026-04-25T09:02:13.219Z</time></trkpt><trkpt lat="45.7660204" lon="13.650608"><ele>108.0</ele><time>2026-04-25T09:02:14.19Z</time></trkpt><trkpt lat="45.7659068" lon="13.6508849"><ele>108.33333333333334</ele><time>2026-04-25T09:02:15.186Z</time></trkpt><trkpt lat="45.7657961" lon="13.6511625"><ele>108.66666666666667</ele><time>2026-04-25T09:02:16.192Z</time></trkpt><trkpt lat="45.7656842" lon="13.6514425"><ele>109.0</ele><time>2026-04-25T09:02:17.191Z</time></trkpt><trkpt lat="45.7655766" lon="13.6517302"><ele>111.5</ele><time>2026-04-25T09:02:18.192Z</time></trkpt><trkpt lat="45.7654741" lon="13.652021"><ele>114.0</ele><time>2026-04-25T09:02:19.191Z</time></trkpt><trkpt lat="45.7653689" lon="13.652315"><ele>114.0</ele><time>2026-04-25T09:02:20.194Z</time></trkpt><trkpt lat="45.7652679" lon="13.6526202"><ele>114.0</ele><time>2026-04-25T09:02:21.189Z</time></trkpt><trkpt lat="45.7651714" lon="13.6529391"><ele>114.5</ele><time>2026-04-25T09:02:22.197Z</time></trkpt><trkpt lat="45.765076" lon="13.6532589"><ele>115.0</ele><time>2026-04-25T09:02:23.197Z</time></trkpt><trkpt lat="45.7649834" lon="13.6535818"><ele>115.0</ele><time>2026-04-25T09:02:24.201Z</time></trkpt><trkpt lat="45.764885" lon="13.6539017"><ele>115.0</ele><time>2026-04-25T09:02:25.192Z</time></trkpt><trkpt lat="45.7647909" lon="13.6542209"><ele>115.0</ele><time>2026-04-25T09:02:26.193Z</time></trkpt><trkpt lat="45.7646972" lon="13.6545469"><ele>115.0</ele><time>2026-04-25T09:02:27.199Z</time></trkpt><trkpt lat="45.764598" lon="13.6548637"><ele>115.0</ele><time>2026-04-25T09:02:28.217Z</time></trkpt><trkpt lat="45.764502" lon="13.6551916"><ele>115.0</ele><time>2026-04-25T09:02:29.196Z</time></trkpt><trkpt lat="45.764404" lon="13.6555095"><ele>115.5</ele><time>2026-04-25T09:02:30.203Z</time></trkpt><trkpt lat="45.7643116" lon="13.6558382"><ele>116.0</ele><time>2026-04-25T09:02:31.191Z</time></trkpt><trkpt lat="45.7642175" lon="13.6561586"><ele>116.0</ele><time>2026-04-25T09:02:32.194Z</time></trkpt><trkpt lat="45.7641269" lon="13.6564855"><ele>116.0</ele><time>2026-04-25T09:02:33.194Z</time></trkpt><trkpt lat="45.7640315" lon="13.6568047"><ele>116.0</ele><time>2026-04-25T09:02:34.201Z</time></trkpt><trkpt lat="45.7639395" lon="13.6571298"><ele>116.0</ele><time>2026-04-25T09:02:35.191Z</time></trkpt><trkpt lat="45.7638367" lon="13.6574488"><ele>116.0</ele><time>2026-04-25T09:02:36.189Z</time></trkpt><trkpt lat="45.7637434" lon="13.6577761"><ele>116.0</ele><time>2026-04-25T09:02:37.199Z</time></trkpt><trkpt lat="45.7636427" lon="13.6580934"><ele>116.0</ele><time>2026-04-25T09:02:38.187Z</time></trkpt><trkpt lat="45.7635507" lon="13.6584178"><ele>116.0</ele><time>2026-04-25T09:02:39.199Z</time></trkpt><trkpt lat="45.7634526" lon="13.6587304"><ele>121.0</ele><time>2026-04-25T09:02:40.197Z</time></trkpt><trkpt lat="45.7633584" lon="13.6590517"><ele>126.0</ele><time>2026-04-25T09:02:41.193Z</time></trkpt><trkpt lat="45.7632653" lon="13.6593709"><ele>126.0</ele><time>2026-04-25T09:02:42.18Z</time></trkpt><trkpt lat="45.7631653" lon="13.6596866"><ele>126.0</ele><time>2026-04-25T09:02:43.191Z</time></trkpt><trkpt lat="45.7630664" lon="13.6600028"><ele>126.5</ele><time>2026-04-25T09:02:44.188Z</time></trkpt><trkpt lat="45.7629668" lon="13.6603186"><ele>127.0</ele><time>2026-04-25T09:02:45.181Z</time></trkpt><trkpt lat="45.7628663" lon="13.6606334"><ele>127.0</ele><time>2026-04-25T09:02:46.179Z</time></trkpt><trkpt lat="45.7627635" lon="13.6609477"><ele>127.0</ele><time>2026-04-25T09:02:47.185Z</time></trkpt><trkpt lat="45.7626589" lon="13.6612622"><ele>125.5</ele><time>2026-04-25T09:02:48.185Z</time></trkpt><trkpt lat="45.7625562" lon="13.6615812"><ele>124.0</ele><time>2026-04-25T09:02:49.182Z</time></trkpt><trkpt lat="45.7624485" lon="13.6618936"><ele>123.5</ele><time>2026-04-25T09:02:50.186Z</time></trkpt><trkpt lat="45.7623372" lon="13.662218"><ele>123.0</ele><time>2026-04-25T09:02:51.188Z</time></trkpt><trkpt lat="45.7622243" lon="13.662536"><ele>124.5</ele><time>2026-04-25T09:02:52.189Z</time></trkpt><trkpt lat="45.7621105" lon="13.6628608"><ele>126.0</ele><time>2026-04-25T09:02:53.196Z</time></trkpt><trkpt lat="45.7619981" lon="13.6631925"><ele>126.0</ele><time>2026-04-25T09:02:54.182Z</time></trkpt><trkpt lat="45.7618834" lon="13.6635196"><ele>126.0</ele><time>2026-04-25T09:02:55.187Z</time></trkpt><trkpt lat="45.7617687" lon="13.663846"><ele>124.0</ele><time>2026-04-25T09:02:56.191Z</time></trkpt><trkpt lat="45.7616486" lon="13.6641699"><ele>122.0</ele><time>2026-04-25T09:02:57.188Z</time></trkpt><trkpt lat="45.7615329" lon="13.6645027"><ele>121.0</ele><time>2026-04-25T09:02:58.192Z</time></trkpt><trkpt lat="45.7614217" lon="13.664833"><ele>120.0</ele><time>2026-04-25T09:02:59.193Z</time></trkpt><trkpt lat="45.7613098" lon="13.6651655"><ele>120.0</ele><time>2026-04-25T09:03:00.199Z</time></trkpt><trkpt lat="45.7611978" lon="13.6654957"><ele>120.0</ele><time>2026-04-25T09:03:01.19Z</time></trkpt><trkpt lat="45.761088" lon="13.6658323"><ele>118.0</ele><time>2026-04-25T09:03:02.2Z</time></trkpt><trkpt lat="45.7609742" lon="13.6661627"><ele>116.0</ele><time>2026-04-25T09:03:03.194Z</time></trkpt><trkpt lat="45.7608616" lon="13.6664947"><ele>116.0</ele><time>2026-04-25T09:03:04.191Z</time></trkpt><trkpt lat="45.7607613" lon="13.6668473"><ele>116.0</ele><time>2026-04-25T09:03:05.114Z</time></trkpt><trkpt lat="45.7606492" lon="13.6671783"><ele>113.5</ele><time>2026-04-25T09:03:06.103Z</time></trkpt><trkpt lat="45.7605369" lon="13.6675048"><ele>111.0</ele><time>2026-04-25T09:03:07.109Z</time></trkpt><trkpt lat="45.7604252" lon="13.6678271"><ele>109.0</ele><time>2026-04-25T09:03:08.096Z</time></trkpt><trkpt lat="45.7603129" lon="13.6681442"><ele>107.0</ele><time>2026-04-25T09:03:09.114Z</time></trkpt><trkpt lat="45.7602014" lon="13.668464"><ele>112.5</ele><time>2026-04-25T09:03:10.114Z</time></trkpt><trkpt lat="45.7600875" lon="13.6687813"><ele>118.0</ele><time>2026-04-25T09:03:11.116Z</time></trkpt><trkpt lat="45.7599733" lon="13.6690859"><ele>118.0</ele><time>2026-04-25T09:03:12.116Z</time></trkpt><trkpt lat="45.7598462" lon="13.669378"><ele>118.0</ele><time>2026-04-25T09:03:13.104Z</time></trkpt><trkpt lat="45.7597159" lon="13.6696648"><ele>119.0</ele><time>2026-04-25T09:03:14.113Z</time></trkpt><trkpt lat="45.7595755" lon="13.6699371"><ele>120.0</ele><time>2026-04-25T09:03:15.114Z</time></trkpt><trkpt lat="45.7594286" lon="13.6702014"><ele>122.0</ele><time>2026-04-25T09:03:16.104Z</time></trkpt><trkpt lat="45.7592729" lon="13.6704596"><ele>124.0</ele><time>2026-04-25T09:03:17.104Z</time></trkpt><trkpt lat="45.7591071" lon="13.6707053"><ele>124.0</ele><time>2026-04-25T09:03:18.108Z</time></trkpt><trkpt lat="45.7589336" lon="13.6709334"><ele>124.0</ele><time>2026-04-25T09:03:19.108Z</time></trkpt><trkpt lat="45.7587576" lon="13.6711504"><ele>126.0</ele><time>2026-04-25T09:03:20.117Z</time></trkpt><trkpt lat="45.7585738" lon="13.6713603"><ele>128.0</ele><time>2026-04-25T09:03:21.107Z</time></trkpt><trkpt lat="45.7583859" lon="13.6715647"><ele>128.0</ele><time>2026-04-25T09:03:22.102Z</time></trkpt><trkpt lat="45.7581874" lon="13.671752"><ele>128.0</ele><time>2026-04-25T09:03:23.106Z</time></trkpt><trkpt lat="45.7579916" lon="13.6719337"><ele>130.0</ele><time>2026-04-25T09:03:24.111Z</time></trkpt><trkpt lat="45.7577903" lon="13.672102"><ele>132.0</ele><time>2026-04-25T09:03:25.103Z</time></trkpt><trkpt lat="45.757587" lon="13.6722654"><ele>132.0</ele><time>2026-04-25T09:03:26.1Z</time></trkpt><trkpt lat="45.7573773" lon="13.6724191"><ele>132.0</ele><time>2026-04-25T09:03:27.107Z</time></trkpt><trkpt lat="45.7571618" lon="13.6725778"><ele>132.0</ele><time>2026-04-25T09:03:28.114Z</time></trkpt><trkpt lat="45.7569435" lon="13.6727294"><ele>132.0</ele><time>2026-04-25T09:03:29.104Z</time></trkpt><trkpt lat="45.756728" lon="13.6728858"><ele>134.5</ele><time>2026-04-25T09:03:30.105Z</time></trkpt><trkpt lat="45.7565127" lon="13.6730441"><ele>137.0</ele><time>2026-04-25T09:03:31.109Z</time></trkpt><trkpt lat="45.7562877" lon="13.6732064"><ele>137.0</ele><time>2026-04-25T09:03:32.105Z</time></trkpt><trkpt lat="45.7560599" lon="13.6733644"><ele>137.0</ele><time>2026-04-25T09:03:33.11Z</time></trkpt><trkpt lat="45.7558345" lon="13.6735215"><ele>140.0</ele><time>2026-04-25T09:03:34.107Z</time></trkpt><trkpt lat="45.7556136" lon="13.6736766"><ele>143.0</ele><time>2026-04-25T09:03:35.106Z</time></trkpt><trkpt lat="45.7553935" lon="13.6738352"><ele>140.5</ele><time>2026-04-25T09:03:36.105Z</time></trkpt><trkpt lat="45.7551708" lon="13.6739973"><ele>138.0</ele><time>2026-04-25T09:03:37.107Z</time></trkpt><trkpt lat="45.7549501" lon="13.6741608"><ele>138.0</ele><time>2026-04-25T09:03:38.108Z</time></trkpt><trkpt lat="45.7547286" lon="13.6743249"><ele>138.0</ele><time>2026-04-25T09:03:39.201Z</time></trkpt><trkpt lat="45.7545087" lon="13.6744872"><ele>135.5</ele><time>2026-04-25T09:03:40.109Z</time></trkpt><trkpt lat="45.7542831" lon="13.6746534"><ele>133.0</ele><time>2026-04-25T09:03:41.115Z</time></trkpt><trkpt lat="45.7540557" lon="13.6748153"><ele>133.0</ele><time>2026-04-25T09:03:42.104Z</time></trkpt><trkpt lat="45.7538314" lon="13.674983"><ele>133.0</ele><time>2026-04-25T09:03:43.116Z</time></trkpt><trkpt lat="45.7536083" lon="13.6751477"><ele>131.0</ele><time>2026-04-25T09:03:44.101Z</time></trkpt><trkpt lat="45.7533873" lon="13.6753167"><ele>129.0</ele><time>2026-04-25T09:03:45.109Z</time></trkpt><trkpt lat="45.7531696" lon="13.675499"><ele>129.0</ele><time>2026-04-25T09:03:46.107Z</time></trkpt><trkpt lat="45.7529431" lon="13.6756841"><ele>129.0</ele><time>2026-04-25T09:03:47.109Z</time></trkpt><trkpt lat="45.7527222" lon="13.6758705"><ele>128.5</ele><time>2026-04-25T09:03:48.103Z</time></trkpt><trkpt lat="45.7525041" lon="13.6760607"><ele>128.0</ele><time>2026-04-25T09:03:49.103Z</time></trkpt><trkpt lat="45.7522867" lon="13.6762611"><ele>128.0</ele><time>2026-04-25T09:03:50.11Z</time></trkpt><trkpt lat="45.7520767" lon="13.6764654"><ele>128.0</ele><time>2026-04-25T09:03:51.108Z</time></trkpt><trkpt lat="45.7518685" lon="13.6766805"><ele>128.5</ele><time>2026-04-25T09:03:52.106Z</time></trkpt><trkpt lat="45.7516621" lon="13.6768963"><ele>129.0</ele><time>2026-04-25T09:03:53.112Z</time></trkpt><trkpt lat="45.751459" lon="13.6771098"><ele>130.0</ele><time>2026-04-25T09:03:54.107Z</time></trkpt><trkpt lat="45.7512655" lon="13.6773286"><ele>131.0</ele><time>2026-04-25T09:03:55.109Z</time></trkpt><trkpt lat="45.7510738" lon="13.6775551"><ele>131.5</ele><time>2026-04-25T09:03:56.106Z</time></trkpt><trkpt lat="45.7508859" lon="13.6777853"><ele>132.0</ele><time>2026-04-25T09:03:57.104Z</time></trkpt><trkpt lat="45.7507019" lon="13.6780119"><ele>132.0</ele><time>2026-04-25T09:03:58.097Z</time></trkpt><trkpt lat="45.7505225" lon="13.6782456"><ele>132.0</ele><time>2026-04-25T09:03:59.099Z</time></trkpt><trkpt lat="45.750342" lon="13.6784893"><ele>134.0</ele><time>2026-04-25T09:04:00.102Z</time></trkpt><trkpt lat="45.7501668" lon="13.6787278"><ele>136.0</ele><time>2026-04-25T09:04:01.102Z</time></trkpt><trkpt lat="45.7499954" lon="13.6789668"><ele>136.0</ele><time>2026-04-25T09:04:02.11Z</time></trkpt><trkpt lat="45.7498252" lon="13.6792063"><ele>136.0</ele><time>2026-04-25T09:04:03.11Z</time></trkpt><trkpt lat="45.7496601" lon="13.6794489"><ele>137.5</ele><time>2026-04-25T09:04:04.106Z</time></trkpt><trkpt lat="45.7494985" lon="13.6797031"><ele>139.0</ele><time>2026-04-25T09:04:05.109Z</time></trkpt><trkpt lat="45.7493347" lon="13.679964"><ele>141.0</ele><time>2026-04-25T09:04:06.109Z</time></trkpt><trkpt lat="45.7491683" lon="13.6802277"><ele>143.0</ele><time>2026-04-25T09:04:07.117Z</time></trkpt><trkpt lat="45.7490014" lon="13.6804979"><ele>143.0</ele><time>2026-04-25T09:04:08.108Z</time></trkpt><trkpt lat="45.7488385" lon="13.6807699"><ele>143.0</ele><time>2026-04-25T09:04:09.111Z</time></trkpt><trkpt lat="45.7486832" lon="13.6810464"><ele>146.0</ele><time>2026-04-25T09:04:10.11Z</time></trkpt><trkpt lat="45.7485252" lon="13.6813284"><ele>149.0</ele><time>2026-04-25T09:04:11.104Z</time></trkpt><trkpt lat="45.7483664" lon="13.6816059"><ele>149.0</ele><time>2026-04-25T09:04:12.104Z</time></trkpt><trkpt lat="45.748209" lon="13.68188"><ele>149.0</ele><time>2026-04-25T09:04:13.102Z</time></trkpt><trkpt lat="45.7480524" lon="13.6821543"><ele>149.0</ele><time>2026-04-25T09:04:14.102Z</time></trkpt><trkpt lat="45.7478915" lon="13.6824331"><ele>149.0</ele><time>2026-04-25T09:04:15.102Z</time></trkpt><trkpt lat="45.7477289" lon="13.6827096"><ele>150.5</ele><time>2026-04-25T09:04:16.094Z</time></trkpt><trkpt lat="45.7475678" lon="13.6829826"><ele>152.0</ele><time>2026-04-25T09:04:17.1Z</time></trkpt><trkpt lat="45.7474123" lon="13.6832571"><ele>152.0</ele><time>2026-04-25T09:04:18.099Z</time></trkpt><trkpt lat="45.7472543" lon="13.6835388"><ele>152.0</ele><time>2026-04-25T09:04:19.105Z</time></trkpt><trkpt lat="45.7470968" lon="13.6838182"><ele>152.0</ele><time>2026-04-25T09:04:20.099Z</time></trkpt><trkpt lat="45.7469363" lon="13.684094"><ele>152.0</ele><time>2026-04-25T09:04:21.097Z</time></trkpt><trkpt lat="45.7467787" lon="13.6843728"><ele>153.5</ele><time>2026-04-25T09:04:22.1Z</time></trkpt><trkpt lat="45.7466224" lon="13.6846493"><ele>155.0</ele><time>2026-04-25T09:04:23.106Z</time></trkpt><trkpt lat="45.7464643" lon="13.6849213"><ele>155.0</ele><time>2026-04-25T09:04:24.099Z</time></trkpt><trkpt lat="45.7463072" lon="13.6851974"><ele>155.0</ele><time>2026-04-25T09:04:25.099Z</time></trkpt><trkpt lat="45.7461497" lon="13.6854754"><ele>155.5</ele><time>2026-04-25T09:04:26.11Z</time></trkpt><trkpt lat="45.7459911" lon="13.6857531"><ele>156.0</ele><time>2026-04-25T09:04:27.098Z</time></trkpt><trkpt lat="45.7458295" lon="13.6860295"><ele>156.0</ele><time>2026-04-25T09:04:28.103Z</time></trkpt><trkpt lat="45.7456658" lon="13.686305"><ele>156.0</ele><time>2026-04-25T09:04:29.107Z</time></trkpt><trkpt lat="45.7455076" lon="13.6865814"><ele>156.0</ele><time>2026-04-25T09:04:30.108Z</time></trkpt><trkpt lat="45.7453469" lon="13.6868609"><ele>156.0</ele><time>2026-04-25T09:04:31.098Z</time></trkpt><trkpt lat="45.7451867" lon="13.6871384"><ele>158.5</ele><time>2026-04-25T09:04:32.105Z</time></trkpt><trkpt lat="45.7450247" lon="13.6874154"><ele>161.0</ele><time>2026-04-25T09:04:33.109Z</time></trkpt><trkpt lat="45.7448626" lon="13.6876907"><ele>161.0</ele><time>2026-04-25T09:04:34.103Z</time></trkpt><trkpt lat="45.7446979" lon="13.6879695"><ele>161.0</ele><time>2026-04-25T09:04:35.102Z</time></trkpt><trkpt lat="45.7445353" lon="13.6882434"><ele>161.5</ele><time>2026-04-25T09:04:36.115Z</time></trkpt><trkpt lat="45.7443742" lon="13.6885187"><ele>162.0</ele><time>2026-04-25T09:04:37.103Z</time></trkpt><trkpt lat="45.7442177" lon="13.6887959"><ele>162.0</ele><time>2026-04-25T09:04:38.102Z</time></trkpt><trkpt lat="45.7440642" lon="13.6890751"><ele>162.0</ele><time>2026-04-25T09:04:39.106Z</time></trkpt><trkpt lat="45.7439038" lon="13.6893483"><ele>162.0</ele><time>2026-04-25T09:04:40.116Z</time></trkpt><trkpt lat="45.743748" lon="13.6896195"><ele>162.0</ele><time>2026-04-25T09:04:41.104Z</time></trkpt><trkpt lat="45.7435901" lon="13.6898882"><ele>165.0</ele><time>2026-04-25T09:04:42.101Z</time></trkpt><trkpt lat="45.7434305" lon="13.690154"><ele>168.0</ele><time>2026-04-25T09:04:43.112Z</time></trkpt><trkpt lat="45.7432703" lon="13.6904222"><ele>168.0</ele><time>2026-04-25T09:04:44.1Z</time></trkpt><trkpt lat="45.7431091" lon="13.6906862"><ele>168.0</ele><time>2026-04-25T09:04:45.108Z</time></trkpt><trkpt lat="45.7429457" lon="13.6909535"><ele>169.0</ele><time>2026-04-25T09:04:46.111Z</time></trkpt><trkpt lat="45.7427815" lon="13.6912177"><ele>170.0</ele><time>2026-04-25T09:04:47.104Z</time></trkpt><trkpt lat="45.7426169" lon="13.6914877"><ele>170.0</ele><time>2026-04-25T09:04:48.1Z</time></trkpt><trkpt lat="45.742449" lon="13.6917559"><ele>170.0</ele><time>2026-04-25T09:04:49.096Z</time></trkpt><trkpt lat="45.7422809" lon="13.6920244"><ele>171.0</ele><time>2026-04-25T09:04:50.109Z</time></trkpt><trkpt lat="45.7421119" lon="13.6922906"><ele>172.0</ele><time>2026-04-25T09:04:51.108Z</time></trkpt><trkpt lat="45.7419407" lon="13.6925546"><ele>173.5</ele><time>2026-04-25T09:04:52.103Z</time></trkpt><trkpt lat="45.7417684" lon="13.6928168"><ele>175.0</ele><time>2026-04-25T09:04:53.1Z</time></trkpt><trkpt lat="45.7415968" lon="13.6930825"><ele>175.0</ele><time>2026-04-25T09:04:54.118Z</time></trkpt><trkpt lat="45.7414249" lon="13.6933472"><ele>175.0</ele><time>2026-04-25T09:04:55.099Z</time></trkpt><trkpt lat="45.7412547" lon="13.6936171"><ele>176.0</ele><time>2026-04-25T09:04:56.096Z</time></trkpt><trkpt lat="45.7410839" lon="13.6938771"><ele>177.0</ele><time>2026-04-25T09:04:57.094Z</time></trkpt><trkpt lat="45.7409188" lon="13.6941469"><ele>177.5</ele><time>2026-04-25T09:04:58.097Z</time></trkpt><trkpt lat="45.7407494" lon="13.694413"><ele>178.0</ele><time>2026-04-25T09:04:59.1Z</time></trkpt><trkpt lat="45.7405798" lon="13.694679"><ele>178.5</ele><time>2026-04-25T09:05:00.094Z</time></trkpt><trkpt lat="45.7404086" lon="13.6949398"><ele>179.0</ele><time>2026-04-25T09:05:01.108Z</time></trkpt><trkpt lat="45.7402388" lon="13.6952001"><ele>178.5</ele><time>2026-04-25T09:05:02.095Z</time></trkpt><trkpt lat="45.7400713" lon="13.6954653"><ele>178.0</ele><time>2026-04-25T09:05:03.11Z</time></trkpt><trkpt lat="45.7399024" lon="13.6957249"><ele>178.0</ele><time>2026-04-25T09:05:04.102Z</time></trkpt><trkpt lat="45.7397348" lon="13.6959828"><ele>178.0</ele><time>2026-04-25T09:05:05.097Z</time></trkpt><trkpt lat="45.7395665" lon="13.6962475"><ele>178.0</ele><time>2026-04-25T09:05:06.104Z</time></trkpt><trkpt lat="45.7393991" lon="13.6965134"><ele>178.0</ele><time>2026-04-25T09:05:07.107Z</time></trkpt><trkpt lat="45.7392297" lon="13.6967853"><ele>180.5</ele><time>2026-04-25T09:05:08.105Z</time></trkpt><trkpt lat="45.7390596" lon="13.697053"><ele>183.0</ele><time>2026-04-25T09:05:09.108Z</time></trkpt><trkpt lat="45.7388836" lon="13.697322"><ele>183.0</ele><time>2026-04-25T09:05:10.105Z</time></trkpt><trkpt lat="45.7387093" lon="13.6975919"><ele>183.0</ele><time>2026-04-25T09:05:11.108Z</time></trkpt><trkpt lat="45.7385333" lon="13.6978655"><ele>184.0</ele><time>2026-04-25T09:05:12.115Z</time></trkpt><trkpt lat="45.738358" lon="13.6981362"><ele>185.0</ele><time>2026-04-25T09:05:13.101Z</time></trkpt><trkpt lat="45.7381878" lon="13.6984066"><ele>186.0</ele><time>2026-04-25T09:05:14.106Z</time></trkpt><trkpt lat="45.7380116" lon="13.6986741"><ele>187.0</ele><time>2026-04-25T09:05:15.098Z</time></trkpt><trkpt lat="45.7378348" lon="13.6989344"><ele>189.0</ele><time>2026-04-25T09:05:16.113Z</time></trkpt><trkpt lat="45.7376637" lon="13.6991981"><ele>191.0</ele><time>2026-04-25T09:05:17.118Z</time></trkpt><trkpt lat="45.7374899" lon="13.699469"><ele>191.0</ele><time>2026-04-25T09:05:18.11Z</time></trkpt><trkpt lat="45.7373216" lon="13.6997371"><ele>191.0</ele><time>2026-04-25T09:05:19.106Z</time></trkpt><trkpt lat="45.7371486" lon="13.7000027"><ele>191.0</ele><time>2026-04-25T09:05:20.111Z</time></trkpt><trkpt lat="45.7369754" lon="13.7002769"><ele>191.0</ele><time>2026-04-25T09:05:21.11Z</time></trkpt><trkpt lat="45.7368072" lon="13.7005462"><ele>191.5</ele><time>2026-04-25T09:05:22.109Z</time></trkpt><trkpt lat="45.7366399" lon="13.7008092"><ele>192.0</ele><time>2026-04-25T09:05:23.109Z</time></trkpt><trkpt lat="45.7364706" lon="13.7010764"><ele>193.0</ele><time>2026-04-25T09:05:24.112Z</time></trkpt><trkpt lat="45.7363041" lon="13.7013434"><ele>194.0</ele><time>2026-04-25T09:05:25.114Z</time></trkpt><trkpt lat="45.7361342" lon="13.7016015"><ele>195.5</ele><time>2026-04-25T09:05:26.115Z</time></trkpt><trkpt lat="45.7359662" lon="13.7018606"><ele>197.0</ele><time>2026-04-25T09:05:27.111Z</time></trkpt><trkpt lat="45.7357905" lon="13.7021262"><ele>198.0</ele><time>2026-04-25T09:05:28.117Z</time></trkpt><trkpt lat="45.7356193" lon="13.702397"><ele>199.0</ele><time>2026-04-25T09:05:29.115Z</time></trkpt><trkpt lat="45.7354459" lon="13.702665"><ele>199.5</ele><time>2026-04-25T09:05:30.106Z</time></trkpt><trkpt lat="45.735272" lon="13.7029329"><ele>200.0</ele><time>2026-04-25T09:05:31.128Z</time></trkpt><trkpt lat="45.7351005" lon="13.7031977"><ele>200.0</ele><time>2026-04-25T09:05:32.113Z</time></trkpt><trkpt lat="45.7349322" lon="13.7034671"><ele>200.0</ele><time>2026-04-25T09:05:33.097Z</time></trkpt><trkpt lat="45.7347653" lon="13.7037347"><ele>200.0</ele><time>2026-04-25T09:05:34.109Z</time></trkpt><trkpt lat="45.7345986" lon="13.7040011"><ele>200.0</ele><time>2026-04-25T09:05:35.102Z</time></trkpt><trkpt lat="45.7344322" lon="13.7042646"><ele>201.0</ele><time>2026-04-25T09:05:36.106Z</time></trkpt><trkpt lat="45.7342649" lon="13.7045224"><ele>202.0</ele><time>2026-04-25T09:05:37.106Z</time></trkpt><trkpt lat="45.7340967" lon="13.7047845"><ele>202.0</ele><time>2026-04-25T09:05:38.103Z</time></trkpt><trkpt lat="45.7339279" lon="13.705048"><ele>202.0</ele><time>2026-04-25T09:05:39.106Z</time></trkpt><trkpt lat="45.7337583" lon="13.705308"><ele>202.5</ele><time>2026-04-25T09:05:40.108Z</time></trkpt><trkpt lat="45.7335917" lon="13.7055696"><ele>203.0</ele><time>2026-04-25T09:05:41.103Z</time></trkpt><trkpt lat="45.7334258" lon="13.7058325"><ele>204.0</ele><time>2026-04-25T09:05:42.112Z</time></trkpt><trkpt lat="45.7332596" lon="13.7060951"><ele>205.0</ele><time>2026-04-25T09:05:43.109Z</time></trkpt><trkpt lat="45.733093" lon="13.7063606"><ele>205.0</ele><time>2026-04-25T09:05:44.099Z</time></trkpt><trkpt lat="45.7329246" lon="13.7066227"><ele>205.0</ele><time>2026-04-25T09:05:45.106Z</time></trkpt><trkpt lat="45.7327583" lon="13.706881"><ele>205.5</ele><time>2026-04-25T09:05:46.11Z</time></trkpt><trkpt lat="45.7325904" lon="13.7071364"><ele>206.0</ele><time>2026-04-25T09:05:47.118Z</time></trkpt><trkpt lat="45.7324217" lon="13.7074009"><ele>206.0</ele><time>2026-04-25T09:05:48.108Z</time></trkpt><trkpt lat="45.732255" lon="13.7076606"><ele>206.0</ele><time>2026-04-25T09:05:49.115Z</time></trkpt><trkpt lat="45.7320936" lon="13.7079228"><ele>206.5</ele><time>2026-04-25T09:05:50.102Z</time></trkpt><trkpt lat="45.731928" lon="13.7081835"><ele>207.0</ele><time>2026-04-25T09:05:51.109Z</time></trkpt><trkpt lat="45.731765" lon="13.708443"><ele>207.0</ele><time>2026-04-25T09:05:52.107Z</time></trkpt><trkpt lat="45.7315988" lon="13.7086987"><ele>207.0</ele><time>2026-04-25T09:05:53.101Z</time></trkpt><trkpt lat="45.7314316" lon="13.7089528"><ele>207.0</ele><time>2026-04-25T09:05:54.115Z</time></trkpt><trkpt lat="45.7312651" lon="13.7092134"><ele>207.0</ele><time>2026-04-25T09:05:55.122Z</time></trkpt><trkpt lat="45.7310989" lon="13.7094767"><ele>207.5</ele><time>2026-04-25T09:05:56.11Z</time></trkpt><trkpt lat="45.7309304" lon="13.7097414"><ele>208.0</ele><time>2026-04-25T09:05:57.116Z</time></trkpt><trkpt lat="45.7307632" lon="13.7100023"><ele>208.5</ele><time>2026-04-25T09:05:58.108Z</time></trkpt><trkpt lat="45.7305938" lon="13.7102617"><ele>209.0</ele><time>2026-04-25T09:05:59.11Z</time></trkpt><trkpt lat="45.7304257" lon="13.7105268"><ele>209.0</ele><time>2026-04-25T09:06:00.115Z</time></trkpt><trkpt lat="45.730252" lon="13.7107818"><ele>209.0</ele><time>2026-04-25T09:06:01.103Z</time></trkpt><trkpt lat="45.7300851" lon="13.7110448"><ele>208.5</ele><time>2026-04-25T09:06:02.117Z</time></trkpt><trkpt lat="45.7299196" lon="13.7113176"><ele>208.0</ele><time>2026-04-25T09:06:03.111Z</time></trkpt><trkpt lat="45.729752" lon="13.7115847"><ele>208.0</ele><time>2026-04-25T09:06:04.113Z</time></trkpt><trkpt lat="45.7295874" lon="13.7118531"><ele>208.0</ele><time>2026-04-25T09:06:05.101Z</time></trkpt><trkpt lat="45.7294214" lon="13.7121154"><ele>208.5</ele><time>2026-04-25T09:06:06.107Z</time></trkpt><trkpt lat="45.7292528" lon="13.7123734"><ele>209.0</ele><time>2026-04-25T09:06:07.106Z</time></trkpt><trkpt lat="45.729082" lon="13.7126343"><ele>209.0</ele><time>2026-04-25T09:06:08.106Z</time></trkpt><trkpt lat="45.7289131" lon="13.7128948"><ele>209.0</ele><time>2026-04-25T09:06:09.105Z</time></trkpt><trkpt lat="45.7287438" lon="13.7131571"><ele>209.0</ele><time>2026-04-25T09:06:10.098Z</time></trkpt><trkpt lat="45.7285767" lon="13.7134175"><ele>209.0</ele><time>2026-04-25T09:06:11.107Z</time></trkpt><trkpt lat="45.7284077" lon="13.713677"><ele>210.5</ele><time>2026-04-25T09:06:12.102Z</time></trkpt><trkpt lat="45.7282386" lon="13.7139381"><ele>212.0</ele><time>2026-04-25T09:06:13.101Z</time></trkpt><trkpt lat="45.7280745" lon="13.7141991"><ele>212.0</ele><time>2026-04-25T09:06:14.106Z</time></trkpt><trkpt lat="45.7279071" lon="13.7144555"><ele>212.0</ele><time>2026-04-25T09:06:15.11Z</time></trkpt><trkpt lat="45.7277373" lon="13.7147104"><ele>214.0</ele><time>2026-04-25T09:06:16.104Z</time></trkpt><trkpt lat="45.7275721" lon="13.7149642"><ele>216.0</ele><time>2026-04-25T09:06:17.114Z</time></trkpt><trkpt lat="45.7274118" lon="13.7152181"><ele>215.5</ele><time>2026-04-25T09:06:18.116Z</time></trkpt><trkpt lat="45.7272515" lon="13.7154699"><ele>215.0</ele><time>2026-04-25T09:06:19.107Z</time></trkpt><trkpt lat="45.7270927" lon="13.7157217"><ele>215.0</ele><time>2026-04-25T09:06:20.11Z</time></trkpt><trkpt lat="45.7269384" lon="13.7159718"><ele>215.0</ele><time>2026-04-25T09:06:21.107Z</time></trkpt><trkpt lat="45.7267819" lon="13.7162101"><ele>217.0</ele><time>2026-04-25T09:06:22.112Z</time></trkpt><trkpt lat="45.7266254" lon="13.7164514"><ele>219.0</ele><time>2026-04-25T09:06:23.117Z</time></trkpt><trkpt lat="45.7264681" lon="13.7166962"><ele>219.5</ele><time>2026-04-25T09:06:24.114Z</time></trkpt><trkpt lat="45.7263132" lon="13.7169383"><ele>220.0</ele><time>2026-04-25T09:06:25.112Z</time></trkpt><trkpt lat="45.7261623" lon="13.717175"><ele>220.66666666666666</ele><time>2026-04-25T09:06:26.111Z</time></trkpt><trkpt lat="45.7260205" lon="13.7173968"><ele>221.33333333333331</ele><time>2026-04-25T09:06:27.106Z</time></trkpt><trkpt lat="45.7258868" lon="13.7176123"><ele>222.0</ele><time>2026-04-25T09:06:28.109Z</time></trkpt><trkpt lat="45.7257485" lon="13.7178259"><ele>222.66666666666669</ele><time>2026-04-25T09:06:29.117Z</time></trkpt><trkpt lat="45.7256058" lon="13.7180429"><ele>223.33333333333334</ele><time>2026-04-25T09:06:30.113Z</time></trkpt><trkpt lat="45.7254623" lon="13.7182581"><ele>224.0</ele><time>2026-04-25T09:06:31.115Z</time></trkpt><trkpt lat="45.7253345" lon="13.7184631"><ele>225.66666666666669</ele><time>2026-04-25T09:06:32.116Z</time></trkpt><trkpt lat="45.7252142" lon="13.7186484"><ele>227.33333333333331</ele><time>2026-04-25T09:06:33.117Z</time></trkpt><trkpt lat="45.725101" lon="13.7188391"><ele>229.0</ele><time>2026-04-25T09:06:34.103Z</time></trkpt><trkpt lat="45.7249819" lon="13.7190265"><ele>229.0</ele><time>2026-04-25T09:06:35.104Z</time></trkpt><trkpt lat="45.7248588" lon="13.719215"><ele>229.0</ele><time>2026-04-25T09:06:36.105Z</time></trkpt><trkpt lat="45.7247262" lon="13.7193967"><ele>229.0</ele><time>2026-04-25T09:06:37.116Z</time></trkpt><trkpt lat="45.7245968" lon="13.719598"><ele>228.33333333333331</ele><time>2026-04-25T09:06:38.106Z</time></trkpt><trkpt lat="45.7244686" lon="13.7197952"><ele>227.66666666666669</ele><time>2026-04-25T09:06:39.117Z</time></trkpt><trkpt lat="45.7243518" lon="13.7199784"><ele>227.0</ele><time>2026-04-25T09:06:40.096Z</time></trkpt><trkpt lat="45.7242385" lon="13.7201625"><ele>228.0</ele><time>2026-04-25T09:06:41.107Z</time></trkpt><trkpt lat="45.7241184" lon="13.7203453"><ele>229.0</ele><time>2026-04-25T09:06:42.1Z</time></trkpt><trkpt lat="45.7239989" lon="13.7205308"><ele>230.0</ele><time>2026-04-25T09:06:43.118Z</time></trkpt><trkpt lat="45.723876" lon="13.7207189"><ele>230.0</ele><time>2026-04-25T09:06:44.103Z</time></trkpt><trkpt lat="45.7237571" lon="13.7209099"><ele>230.0</ele><time>2026-04-25T09:06:45.105Z</time></trkpt><trkpt lat="45.72364" lon="13.7211068"><ele>230.0</ele><time>2026-04-25T09:06:46.116Z</time></trkpt><trkpt lat="45.7235221" lon="13.7213028"><ele>230.66666666666669</ele><time>2026-04-25T09:06:47.11Z</time></trkpt><trkpt lat="45.7234023" lon="13.7214948"><ele>231.33333333333331</ele><time>2026-04-25T09:06:48.134Z</time></trkpt><trkpt lat="45.7232801" lon="13.7216901"><ele>232.0</ele><time>2026-04-25T09:06:49.116Z</time></trkpt><trkpt lat="45.7231528" lon="13.7218905"><ele>232.0</ele><time>2026-04-25T09:06:50.111Z</time></trkpt><trkpt lat="45.7230252" lon="13.7220869"><ele>232.0</ele><time>2026-04-25T09:06:51.112Z</time></trkpt><trkpt lat="45.722892" lon="13.722281"><ele>232.0</ele><time>2026-04-25T09:06:52.106Z</time></trkpt><trkpt lat="45.7227581" lon="13.7224803"><ele>232.0</ele><time>2026-04-25T09:06:53.111Z</time></trkpt><trkpt lat="45.7226284" lon="13.7226842"><ele>232.0</ele><time>2026-04-25T09:06:54.114Z</time></trkpt><trkpt lat="45.7225" lon="13.7228872"><ele>232.0</ele><time>2026-04-25T09:06:55.115Z</time></trkpt><trkpt lat="45.7223727" lon="13.7230915"><ele>232.33333333333331</ele><time>2026-04-25T09:06:56.104Z</time></trkpt><trkpt lat="45.722239" lon="13.7232949"><ele>232.66666666666669</ele><time>2026-04-25T09:06:57.108Z</time></trkpt><trkpt lat="45.7221067" lon="13.7234991"><ele>233.0</ele><time>2026-04-25T09:06:58.117Z</time></trkpt><trkpt lat="45.7219711" lon="13.7237082"><ele>233.0</ele><time>2026-04-25T09:06:59.107Z</time></trkpt><trkpt lat="45.7218357" lon="13.7239118"><ele>233.0</ele><time>2026-04-25T09:07:00.123Z</time></trkpt><trkpt lat="45.7217038" lon="13.7241258"><ele>233.0</ele><time>2026-04-25T09:07:01.118Z</time></trkpt><trkpt lat="45.7215635" lon="13.7243415"><ele>232.66666666666669</ele><time>2026-04-25T09:07:02.105Z</time></trkpt><trkpt lat="45.7214237" lon="13.7245574"><ele>232.33333333333331</ele><time>2026-04-25T09:07:03.147Z</time></trkpt><trkpt lat="45.7212866" lon="13.7247767"><ele>232.0</ele><time>2026-04-25T09:07:04.107Z</time></trkpt><trkpt lat="45.721154" lon="13.7249728"><ele>232.33333333333331</ele><time>2026-04-25T09:07:05.113Z</time></trkpt><trkpt lat="45.7210282" lon="13.7251704"><ele>232.66666666666669</ele><time>2026-04-25T09:07:06.102Z</time></trkpt><trkpt lat="45.7209018" lon="13.7253665"><ele>233.0</ele><time>2026-04-25T09:07:07.108Z</time></trkpt><trkpt lat="45.7207756" lon="13.7255658"><ele>233.0</ele><time>2026-04-25T09:07:08.106Z</time></trkpt><trkpt lat="45.7206486" lon="13.7257659"><ele>233.0</ele><time>2026-04-25T09:07:09.105Z</time></trkpt><trkpt lat="45.7205303" lon="13.7259611"><ele>233.0</ele><time>2026-04-25T09:07:10.125Z</time></trkpt><trkpt lat="45.7204146" lon="13.7261341"><ele>232.66666666666669</ele><time>2026-04-25T09:07:11.111Z</time></trkpt><trkpt lat="45.7203037" lon="13.726298"><ele>232.33333333333331</ele><time>2026-04-25T09:07:12.106Z</time></trkpt><trkpt lat="45.7201918" lon="13.7264599"><ele>232.0</ele><time>2026-04-25T09:07:13.105Z</time></trkpt><trkpt lat="45.7200823" lon="13.7266149"><ele>231.33333333333331</ele><time>2026-04-25T09:07:14.106Z</time></trkpt><trkpt lat="45.7199803" lon="13.7267696"><ele>230.66666666666669</ele><time>2026-04-25T09:07:15.112Z</time></trkpt><trkpt lat="45.7198754" lon="13.7269291"><ele>230.0</ele><time>2026-04-25T09:07:16.109Z</time></trkpt><trkpt lat="45.7197741" lon="13.7270841"><ele>229.66666666666669</ele><time>2026-04-25T09:07:17.106Z</time></trkpt><trkpt lat="45.7196705" lon="13.7272493"><ele>229.33333333333331</ele><time>2026-04-25T09:07:18.099Z</time></trkpt><trkpt lat="45.7195614" lon="13.7274126"><ele>229.0</ele><time>2026-04-25T09:07:19.113Z</time></trkpt><trkpt lat="45.7194448" lon="13.7275727"><ele>229.66666666666666</ele><time>2026-04-25T09:07:20.115Z</time></trkpt><trkpt lat="45.7193233" lon="13.7277231"><ele>230.33333333333331</ele><time>2026-04-25T09:07:21.113Z</time></trkpt><trkpt lat="45.7191984" lon="13.7278722"><ele>231.0</ele><time>2026-04-25T09:07:22.12Z</time></trkpt><trkpt lat="45.7190828" lon="13.728023"><ele>231.0</ele><time>2026-04-25T09:07:23.109Z</time></trkpt><trkpt lat="45.7189778" lon="13.7281723"><ele>231.0</ele><time>2026-04-25T09:07:24.101Z</time></trkpt><trkpt lat="45.7188926" lon="13.728302"><ele>231.0</ele><time>2026-04-25T09:07:25.162Z</time></trkpt><trkpt lat="45.7188067" lon="13.7284465"><ele>231.0</ele><time>2026-04-25T09:07:26.103Z</time></trkpt><trkpt lat="45.7187212" lon="13.728584"><ele>230.75</ele><time>2026-04-25T09:07:27.103Z</time></trkpt><trkpt lat="45.7186268" lon="13.7287135"><ele>230.5</ele><time>2026-04-25T09:07:28.116Z</time></trkpt><trkpt lat="45.7185179" lon="13.728802"><ele>230.25</ele><time>2026-04-25T09:07:29.105Z</time></trkpt><trkpt lat="45.718413" lon="13.7288853"><ele>230.0</ele><time>2026-04-25T09:07:30.118Z</time></trkpt><trkpt lat="45.7183024" lon="13.728921"><ele>229.75</ele><time>2026-04-25T09:07:31.114Z</time></trkpt><trkpt lat="45.7181781" lon="13.7289329"><ele>229.5</ele><time>2026-04-25T09:07:32.115Z</time></trkpt><trkpt lat="45.7180579" lon="13.7289211"><ele>229.25</ele><time>2026-04-25T09:07:33.112Z</time></trkpt><trkpt lat="45.717951" lon="13.7289183"><ele>229.0</ele><time>2026-04-25T09:07:34.116Z</time></trkpt><trkpt lat="45.7178522" lon="13.7288944"><ele>229.0</ele><time>2026-04-25T09:07:35.106Z</time></trkpt><trkpt lat="45.7177632" lon="13.7288453"><ele>228.99999999999997</ele><time>2026-04-25T09:07:36.11Z</time></trkpt><trkpt lat="45.7177025" lon="13.7287804"><ele>228.99999999999997</ele><time>2026-04-25T09:07:37.116Z</time></trkpt><trkpt lat="45.7176711" lon="13.7286851"><ele>229.0</ele><time>2026-04-25T09:07:38.097Z</time></trkpt><trkpt lat="45.7176631" lon="13.7285137"><ele>229.0</ele><time>2026-04-25T09:07:40.108Z</time></trkpt><trkpt lat="45.7176585" lon="13.7283722"><ele>229.16666666666666</ele><time>2026-04-25T09:07:42.126Z</time></trkpt><trkpt lat="45.7176189" lon="13.7282678"><ele>229.33333333333331</ele><time>2026-04-25T09:07:45.097Z</time></trkpt><trkpt lat="45.7175729" lon="13.7282028"><ele>229.5</ele><time>2026-04-25T09:07:49.105Z</time></trkpt><trkpt lat="45.7175161" lon="13.7281435"><ele>229.66666666666669</ele><time>2026-04-25T09:07:57.119Z</time></trkpt><trkpt lat="45.7174599" lon="13.7280979"><ele>229.83333333333334</ele><time>2026-04-25T09:07:58.107Z</time></trkpt><trkpt lat="45.7173835" lon="13.7280647"><ele>230.0</ele><time>2026-04-25T09:07:59.114Z</time></trkpt><trkpt lat="45.7172875" lon="13.7280547"><ele>230.0</ele><time>2026-04-25T09:08:00.103Z</time></trkpt><trkpt lat="45.7171798" lon="13.7280577"><ele>230.0</ele><time>2026-04-25T09:08:01.103Z</time></trkpt><trkpt lat="45.7170524" lon="13.7280577"><ele>230.0</ele><time>2026-04-25T09:08:02.166Z</time></trkpt><trkpt lat="45.7169217" lon="13.7280441"><ele>230.0</ele><time>2026-04-25T09:08:03.114Z</time></trkpt><trkpt lat="45.716787" lon="13.7280274"><ele>231.66666666666669</ele><time>2026-04-25T09:08:04.11Z</time></trkpt><trkpt lat="45.7166405" lon="13.7280131"><ele>233.33333333333331</ele><time>2026-04-25T09:08:05.109Z</time></trkpt><trkpt lat="45.7164861" lon="13.7279935"><ele>235.0</ele><time>2026-04-25T09:08:06.111Z</time></trkpt><trkpt lat="45.7163244" lon="13.7279855"><ele>235.0</ele><time>2026-04-25T09:08:07.105Z</time></trkpt><trkpt lat="45.7161563" lon="13.7279811"><ele>235.0</ele><time>2026-04-25T09:08:08.105Z</time></trkpt><trkpt lat="45.7159828" lon="13.7279754"><ele>235.0</ele><time>2026-04-25T09:08:09.114Z</time></trkpt><trkpt lat="45.7158033" lon="13.7279639"><ele>235.66666666666666</ele><time>2026-04-25T09:08:10.109Z</time></trkpt><trkpt lat="45.7156361" lon="13.7279558"><ele>236.33333333333331</ele><time>2026-04-25T09:08:11.101Z</time></trkpt><trkpt lat="45.7154855" lon="13.727954"><ele>237.0</ele><time>2026-04-25T09:08:12.091Z</time></trkpt><trkpt lat="45.7153518" lon="13.7279463"><ele>237.33333333333334</ele><time>2026-04-25T09:08:13.106Z</time></trkpt><trkpt lat="45.7152354" lon="13.7279387"><ele>237.66666666666669</ele><time>2026-04-25T09:08:14.104Z</time></trkpt><trkpt lat="45.7151354" lon="13.7279273"><ele>238.0</ele><time>2026-04-25T09:08:15.109Z</time></trkpt><trkpt lat="45.7150452" lon="13.7279187"><ele>238.33333333333334</ele><time>2026-04-25T09:08:16.099Z</time></trkpt><trkpt lat="45.7149701" lon="13.7279149"><ele>238.66666666666669</ele><time>2026-04-25T09:08:17.102Z</time></trkpt><trkpt lat="45.7149069" lon="13.7279006"><ele>239.0</ele><time>2026-04-25T09:08:18.097Z</time></trkpt><trkpt lat="45.7148159" lon="13.7278934"><ele>239.0</ele><time>2026-04-25T09:08:20.174Z</time></trkpt><trkpt lat="45.7146953" lon="13.7279303"><ele>239.0</ele><time>2026-04-25T09:08:22.182Z</time></trkpt><trkpt lat="45.7146021" lon="13.7279628"><ele>239.0</ele><time>2026-04-25T09:08:23.184Z</time></trkpt><trkpt lat="45.7144965" lon="13.7280136"><ele>239.0</ele><time>2026-04-25T09:08:24.184Z</time></trkpt><trkpt lat="45.7143795" lon="13.7280702"><ele>239.0</ele><time>2026-04-25T09:08:25.188Z</time></trkpt><trkpt lat="45.7142456" lon="13.7281227"><ele>239.0</ele><time>2026-04-25T09:08:26.175Z</time></trkpt><trkpt lat="45.7141087" lon="13.7281642"><ele>239.0</ele><time>2026-04-25T09:08:27.187Z</time></trkpt><trkpt lat="45.7139543" lon="13.7281994"><ele>239.0</ele><time>2026-04-25T09:08:28.186Z</time></trkpt><trkpt lat="45.7137836" lon="13.7282477"><ele>239.0</ele><time>2026-04-25T09:08:29.188Z</time></trkpt><trkpt lat="45.7136129" lon="13.7282942"><ele>239.0</ele><time>2026-04-25T09:08:30.185Z</time></trkpt><trkpt lat="45.7134502" lon="13.7283471"><ele>239.0</ele><time>2026-04-25T09:08:31.176Z</time></trkpt><trkpt lat="45.7133023" lon="13.7283878"><ele>238.79999999999998</ele><time>2026-04-25T09:08:32.176Z</time></trkpt><trkpt lat="45.7131768" lon="13.728424"><ele>238.59999999999997</ele><time>2026-04-25T09:08:33.18Z</time></trkpt><trkpt lat="45.7130717" lon="13.7284537"><ele>238.4</ele><time>2026-04-25T09:08:34.176Z</time></trkpt><trkpt lat="45.7129882" lon="13.7284657"><ele>238.2</ele><time>2026-04-25T09:08:35.186Z</time></trkpt><trkpt lat="45.7128836" lon="13.7284769"><ele>238.0</ele><time>2026-04-25T09:08:37.175Z</time></trkpt><trkpt lat="45.7128101" lon="13.7284955"><ele>238.0</ele><time>2026-04-25T09:08:40.188Z</time></trkpt><trkpt lat="45.7127461" lon="13.7285258"><ele>238.0</ele><time>2026-04-25T09:11:15.124Z</time></trkpt><trkpt lat="45.7126485" lon="13.7285792"><ele>238.0</ele><time>2026-04-25T09:11:17.119Z</time></trkpt><trkpt lat="45.7125698" lon="13.728607"><ele>238.0</ele><time>2026-04-25T09:11:18.118Z</time></trkpt><trkpt lat="45.7124738" lon="13.7286403"><ele>238.0</ele><time>2026-04-25T09:11:19.113Z</time></trkpt><trkpt lat="45.7123727" lon="13.7286731"><ele>238.5</ele><time>2026-04-25T09:11:20.102Z</time></trkpt><trkpt lat="45.7122669" lon="13.7287098"><ele>239.0</ele><time>2026-04-25T09:11:21.107Z</time></trkpt><trkpt lat="45.7121505" lon="13.7287483"><ele>239.5</ele><time>2026-04-25T09:11:22.11Z</time></trkpt><trkpt lat="45.7120318" lon="13.7287901"><ele>240.0</ele><time>2026-04-25T09:11:23.097Z</time></trkpt><trkpt lat="45.7119097" lon="13.7288319"><ele>240.5</ele><time>2026-04-25T09:11:24.113Z</time></trkpt><trkpt lat="45.7117807" lon="13.7288738"><ele>241.0</ele><time>2026-04-25T09:11:25.115Z</time></trkpt><trkpt lat="45.7116399" lon="13.7289236"><ele>241.5</ele><time>2026-04-25T09:11:26.109Z</time></trkpt><trkpt lat="45.7114964" lon="13.72898"><ele>242.0</ele><time>2026-04-25T09:11:27.107Z</time></trkpt><trkpt lat="45.7113453" lon="13.7290349"><ele>242.0</ele><time>2026-04-25T09:11:28.106Z</time></trkpt><trkpt lat="45.7111907" lon="13.7290937"><ele>242.0</ele><time>2026-04-25T09:11:29.108Z</time></trkpt><trkpt lat="45.7110224" lon="13.7291477"><ele>242.0</ele><time>2026-04-25T09:11:30.108Z</time></trkpt><trkpt lat="45.7108508" lon="13.7292075"><ele>242.0</ele><time>2026-04-25T09:11:31.108Z</time></trkpt><trkpt lat="45.7106721" lon="13.7292647"><ele>242.0</ele><time>2026-04-25T09:11:32.109Z</time></trkpt><trkpt lat="45.7104984" lon="13.7293259"><ele>242.0</ele><time>2026-04-25T09:11:33.109Z</time></trkpt><trkpt lat="45.7103212" lon="13.7293867"><ele>243.66666666666669</ele><time>2026-04-25T09:11:34.109Z</time></trkpt><trkpt lat="45.7101414" lon="13.729454"><ele>245.33333333333331</ele><time>2026-04-25T09:11:35.107Z</time></trkpt><trkpt lat="45.7099705" lon="13.7295148"><ele>247.0</ele><time>2026-04-25T09:11:36.1Z</time></trkpt><trkpt lat="45.7098198" lon="13.7295691"><ele>247.0</ele><time>2026-04-25T09:11:37.088Z</time></trkpt><trkpt lat="45.7096867" lon="13.7296157"><ele>247.0</ele><time>2026-04-25T09:11:38.103Z</time></trkpt><trkpt lat="45.709568" lon="13.7296554"><ele>247.0</ele><time>2026-04-25T09:11:39.102Z</time></trkpt><trkpt lat="45.709472" lon="13.7296882"><ele>247.0</ele><time>2026-04-25T09:11:40.158Z</time></trkpt><trkpt lat="45.7093875" lon="13.7297221"><ele>247.0</ele><time>2026-04-25T09:11:41.09Z</time></trkpt><trkpt lat="45.7093039" lon="13.729768"><ele>247.6</ele><time>2026-04-25T09:11:42.095Z</time></trkpt><trkpt lat="45.7092203" lon="13.7298441"><ele>248.2</ele><time>2026-04-25T09:11:43.1Z</time></trkpt><trkpt lat="45.7091409" lon="13.7299422"><ele>248.8</ele><time>2026-04-25T09:11:44.098Z</time></trkpt><trkpt lat="45.7090487" lon="13.7300455"><ele>249.4</ele><time>2026-04-25T09:11:45.09Z</time></trkpt><trkpt lat="45.7089513" lon="13.730152"><ele>250.0</ele><time>2026-04-25T09:11:46.093Z</time></trkpt><trkpt lat="45.708859" lon="13.7302516"><ele>250.2</ele><time>2026-04-25T09:11:47.105Z</time></trkpt><trkpt lat="45.708777" lon="13.7303482"><ele>250.4</ele><time>2026-04-25T09:11:48.088Z</time></trkpt><trkpt lat="45.7086967" lon="13.7304387"><ele>250.60000000000002</ele><time>2026-04-25T09:11:49.101Z</time></trkpt><trkpt lat="45.7086153" lon="13.7305339"><ele>250.8</ele><time>2026-04-25T09:11:50.092Z</time></trkpt><trkpt lat="45.7085465" lon="13.7306308"><ele>251.0</ele><time>2026-04-25T09:11:51.094Z</time></trkpt><trkpt lat="45.7084856" lon="13.7307447"><ele>251.4</ele><time>2026-04-25T09:11:52.098Z</time></trkpt><trkpt lat="45.7084319" lon="13.7308775"><ele>251.8</ele><time>2026-04-25T09:11:53.097Z</time></trkpt><trkpt lat="45.7083905" lon="13.7310244"><ele>252.20000000000002</ele><time>2026-04-25T09:11:54.092Z</time></trkpt><trkpt lat="45.7083548" lon="13.7311749"><ele>252.60000000000002</ele><time>2026-04-25T09:11:55.088Z</time></trkpt><trkpt lat="45.7083248" lon="13.7313168"><ele>253.0</ele><time>2026-04-25T09:11:56.138Z</time></trkpt><trkpt lat="45.7082884" lon="13.731453"><ele>253.0</ele><time>2026-04-25T09:11:57.101Z</time></trkpt><trkpt lat="45.7082506" lon="13.7316063"><ele>253.0</ele><time>2026-04-25T09:11:58.106Z</time></trkpt><trkpt lat="45.7082258" lon="13.7317585"><ele>253.0</ele><time>2026-04-25T09:11:59.095Z</time></trkpt><trkpt lat="45.7082002" lon="13.7319108"><ele>253.0</ele><time>2026-04-25T09:12:00.104Z</time></trkpt><trkpt lat="45.7081751" lon="13.7320528"><ele>253.0</ele><time>2026-04-25T09:12:01.106Z</time></trkpt><trkpt lat="45.708149" lon="13.7321784"><ele>252.66666666666666</ele><time>2026-04-25T09:12:02.095Z</time></trkpt><trkpt lat="45.7081271" lon="13.7323047"><ele>252.33333333333331</ele><time>2026-04-25T09:12:03.09Z</time></trkpt><trkpt lat="45.7081058" lon="13.7324295"><ele>252.0</ele><time>2026-04-25T09:12:04.102Z</time></trkpt><trkpt lat="45.7080988" lon="13.7325432"><ele>251.66666666666669</ele><time>2026-04-25T09:12:05.097Z</time></trkpt><trkpt lat="45.7080978" lon="13.7326622"><ele>251.33333333333334</ele><time>2026-04-25T09:12:06.1Z</time></trkpt><trkpt lat="45.7080899" lon="13.7327841"><ele>251.0</ele><time>2026-04-25T09:12:07.105Z</time></trkpt><trkpt lat="45.7080856" lon="13.7328987"><ele>250.99999999999997</ele><time>2026-04-25T09:12:08.091Z</time></trkpt><trkpt lat="45.7080808" lon="13.7330138"><ele>251.0</ele><time>2026-04-25T09:12:09.095Z</time></trkpt><trkpt lat="45.7080717" lon="13.7331294"><ele>250.99999999999997</ele><time>2026-04-25T09:12:10.097Z</time></trkpt><trkpt lat="45.7080637" lon="13.7332369"><ele>250.99999999999997</ele><time>2026-04-25T09:12:11.101Z</time></trkpt><trkpt lat="45.708056" lon="13.733339"><ele>251.0</ele><time>2026-04-25T09:12:12.095Z</time></trkpt><trkpt lat="45.708043" lon="13.7334308"><ele>250.99999999999997</ele><time>2026-04-25T09:12:13.095Z</time></trkpt><trkpt lat="45.7080339" lon="13.7335243"><ele>250.99999999999997</ele><time>2026-04-25T09:12:14.1Z</time></trkpt><trkpt lat="45.7080282" lon="13.7336304"><ele>250.8</ele><time>2026-04-25T09:12:15.094Z</time></trkpt><trkpt lat="45.7080425" lon="13.7337518"><ele>250.60000000000002</ele><time>2026-04-25T09:12:16.094Z</time></trkpt><trkpt lat="45.7080513" lon="13.7338802"><ele>250.4</ele><time>2026-04-25T09:12:17.096Z</time></trkpt><trkpt lat="45.7080528" lon="13.7340263"><ele>250.2</ele><time>2026-04-25T09:12:18.215Z</time></trkpt><trkpt lat="45.7080445" lon="13.73419"><ele>250.0</ele><time>2026-04-25T09:12:19.167Z</time></trkpt><trkpt lat="45.7080307" lon="13.7343669"><ele>249.75</ele><time>2026-04-25T09:12:20.164Z</time></trkpt><trkpt lat="45.7080036" lon="13.7345574"><ele>249.5</ele><time>2026-04-25T09:12:21.17Z</time></trkpt><trkpt lat="45.707973" lon="13.7347454"><ele>249.25</ele><time>2026-04-25T09:12:22.161Z</time></trkpt><trkpt lat="45.7079288" lon="13.7349476"><ele>249.0</ele><time>2026-04-25T09:12:23.178Z</time></trkpt><trkpt lat="45.7078806" lon="13.7351445"><ele>248.75</ele><time>2026-04-25T09:12:24.174Z</time></trkpt><trkpt lat="45.7078217" lon="13.7353485"><ele>248.5</ele><time>2026-04-25T09:12:25.177Z</time></trkpt><trkpt lat="45.7077558" lon="13.7355395"><ele>248.25</ele><time>2026-04-25T09:12:26.169Z</time></trkpt><trkpt lat="45.7076947" lon="13.7357113"><ele>248.0</ele><time>2026-04-25T09:12:27.17Z</time></trkpt><trkpt lat="45.7076351" lon="13.7358805"><ele>248.0</ele><time>2026-04-25T09:12:28.169Z</time></trkpt><trkpt lat="45.7075784" lon="13.7360496"><ele>248.0</ele><time>2026-04-25T09:12:29.183Z</time></trkpt><trkpt lat="45.7075242" lon="13.736227"><ele>248.0</ele><time>2026-04-25T09:12:30.178Z</time></trkpt><trkpt lat="45.707471" lon="13.7364168"><ele>248.0</ele><time>2026-04-25T09:12:31.182Z</time></trkpt><trkpt lat="45.7074362" lon="13.7366221"><ele>248.0</ele><time>2026-04-25T09:12:32.18Z</time></trkpt><trkpt lat="45.7074078" lon="13.7368313"><ele>248.0</ele><time>2026-04-25T09:12:33.182Z</time></trkpt><trkpt lat="45.707389" lon="13.7370435"><ele>248.0</ele><time>2026-04-25T09:12:34.18Z</time></trkpt><trkpt lat="45.7073901" lon="13.7372641"><ele>248.0</ele><time>2026-04-25T09:12:35.185Z</time></trkpt><trkpt lat="45.7073997" lon="13.7374961"><ele>248.0</ele><time>2026-04-25T09:12:36.18Z</time></trkpt><trkpt lat="45.7074155" lon="13.7377242"><ele>248.0</ele><time>2026-04-25T09:12:37.181Z</time></trkpt><trkpt lat="45.7074244" lon="13.7379527"><ele>248.0</ele><time>2026-04-25T09:12:38.167Z</time></trkpt><trkpt lat="45.7074276" lon="13.7381727"><ele>248.0</ele><time>2026-04-25T09:12:39.172Z</time></trkpt><trkpt lat="45.7074247" lon="13.738389"><ele>248.0</ele><time>2026-04-25T09:12:40.178Z</time></trkpt><trkpt lat="45.7074044" lon="13.738597"><ele>248.0</ele><time>2026-04-25T09:12:41.174Z</time></trkpt><trkpt lat="45.7073711" lon="13.7388064"><ele>248.0</ele><time>2026-04-25T09:12:42.187Z</time></trkpt><trkpt lat="45.7073209" lon="13.7390209"><ele>248.0</ele><time>2026-04-25T09:12:43.181Z</time></trkpt><trkpt lat="45.7072664" lon="13.7392392"><ele>248.33333333333334</ele><time>2026-04-25T09:12:44.172Z</time></trkpt><trkpt lat="45.707209" lon="13.7394672"><ele>248.66666666666669</ele><time>2026-04-25T09:12:45.176Z</time></trkpt><trkpt lat="45.7071501" lon="13.7396997"><ele>249.0</ele><time>2026-04-25T09:12:46.184Z</time></trkpt><trkpt lat="45.7070878" lon="13.7399294"><ele>249.0</ele><time>2026-04-25T09:12:47.172Z</time></trkpt><trkpt lat="45.7070283" lon="13.7401442"><ele>249.0</ele><time>2026-04-25T09:12:48.175Z</time></trkpt><trkpt lat="45.7069766" lon="13.7403565"><ele>249.0</ele><time>2026-04-25T09:12:49.176Z</time></trkpt><trkpt lat="45.7069519" lon="13.7405579"><ele>249.25</ele><time>2026-04-25T09:12:50.173Z</time></trkpt><trkpt lat="45.7069435" lon="13.7407546"><ele>249.5</ele><time>2026-04-25T09:12:51.172Z</time></trkpt><trkpt lat="45.7069439" lon="13.7409521"><ele>249.75</ele><time>2026-04-25T09:12:52.18Z</time></trkpt><trkpt lat="45.7069487" lon="13.741154"><ele>250.0</ele><time>2026-04-25T09:12:53.169Z</time></trkpt><trkpt lat="45.7069598" lon="13.7413699"><ele>250.0</ele><time>2026-04-25T09:12:54.177Z</time></trkpt><trkpt lat="45.7069666" lon="13.7415791"><ele>250.0</ele><time>2026-04-25T09:12:55.174Z</time></trkpt><trkpt lat="45.706987" lon="13.7417682"><ele>250.0</ele><time>2026-04-25T09:12:56.177Z</time></trkpt><trkpt lat="45.7070005" lon="13.7419482"><ele>250.0</ele><time>2026-04-25T09:12:57.176Z</time></trkpt><trkpt lat="45.7070111" lon="13.7421161"><ele>250.0</ele><time>2026-04-25T09:12:58.172Z</time></trkpt><trkpt lat="45.7070196" lon="13.7422945"><ele>250.0</ele><time>2026-04-25T09:12:59.172Z</time></trkpt><trkpt lat="45.7070303" lon="13.7424657"><ele>250.0</ele><time>2026-04-25T09:13:00.177Z</time></trkpt><trkpt lat="45.7070313" lon="13.7426428"><ele>250.0</ele><time>2026-04-25T09:13:01.174Z</time></trkpt><trkpt lat="45.7070117" lon="13.7428328"><ele>250.0</ele><time>2026-04-25T09:13:02.174Z</time></trkpt><trkpt lat="45.7069838" lon="13.7430318"><ele>250.0</ele><time>2026-04-25T09:13:03.174Z</time></trkpt><trkpt lat="45.7069508" lon="13.7432403"><ele>250.0</ele><time>2026-04-25T09:13:04.183Z</time></trkpt><trkpt lat="45.7069183" lon="13.743427"><ele>250.0</ele><time>2026-04-25T09:13:05.177Z</time></trkpt><trkpt lat="45.706892" lon="13.7435946"><ele>250.2</ele><time>2026-04-25T09:13:06.18Z</time></trkpt><trkpt lat="45.7068648" lon="13.7437402"><ele>250.4</ele><time>2026-04-25T09:13:07.169Z</time></trkpt><trkpt lat="45.7068362" lon="13.7438793"><ele>250.60000000000002</ele><time>2026-04-25T09:13:08.172Z</time></trkpt><trkpt lat="45.7068026" lon="13.7440155"><ele>250.8</ele><time>2026-04-25T09:13:09.181Z</time></trkpt><trkpt lat="45.7067643" lon="13.7441401"><ele>251.0</ele><time>2026-04-25T09:13:10.173Z</time></trkpt><trkpt lat="45.706733" lon="13.7442396"><ele>251.00000000000003</ele><time>2026-04-25T09:13:11.184Z</time></trkpt><trkpt lat="45.706699" lon="13.7443288"><ele>251.0</ele><time>2026-04-25T09:13:12.182Z</time></trkpt><trkpt lat="45.7066261" lon="13.7444706"><ele>251.0</ele><time>2026-04-25T09:13:14.184Z</time></trkpt><trkpt lat="45.7065591" lon="13.7445811"><ele>251.0</ele><time>2026-04-25T09:13:16.198Z</time></trkpt><trkpt lat="45.7065173" lon="13.7446533"><ele>251.00000000000003</ele><time>2026-04-25T09:13:18.175Z</time></trkpt><trkpt lat="45.7064706" lon="13.7447284"><ele>251.0</ele><time>2026-04-25T09:13:20.181Z</time></trkpt><trkpt lat="45.706433" lon="13.7448182"><ele>251.0</ele><time>2026-04-25T09:13:22.18Z</time></trkpt><trkpt lat="45.706432" lon="13.744971"><ele>251.00000000000003</ele><time>2026-04-25T09:13:24.186Z</time></trkpt><trkpt lat="45.706481" lon="13.7450709"><ele>251.00000000000003</ele><time>2026-04-25T09:13:26.177Z</time></trkpt><trkpt lat="45.7065796" lon="13.745198"><ele>251.0</ele><time>2026-04-25T09:13:28.174Z</time></trkpt><trkpt lat="45.7066433" lon="13.7452922"><ele>251.0</ele><time>2026-04-25T09:13:29.18Z</time></trkpt><trkpt lat="45.7067234" lon="13.7453994"><ele>250.25</ele><time>2026-04-25T09:13:30.19Z</time></trkpt><trkpt lat="45.7068154" lon="13.745524"><ele>249.5</ele><time>2026-04-25T09:13:31.183Z</time></trkpt><trkpt lat="45.7069028" lon="13.7456666"><ele>248.75</ele><time>2026-04-25T09:13:32.176Z</time></trkpt><trkpt lat="45.7069872" lon="13.7458295"><ele>248.0</ele><time>2026-04-25T09:13:33.178Z</time></trkpt><trkpt lat="45.7070422" lon="13.7459918"><ele>248.2</ele><time>2026-04-25T09:13:34.181Z</time></trkpt><trkpt lat="45.7070697" lon="13.7461732"><ele>248.4</ele><time>2026-04-25T09:13:35.173Z</time></trkpt><trkpt lat="45.7070586" lon="13.7463019"><ele>248.59999999999997</ele><time>2026-04-25T09:13:36.174Z</time></trkpt><trkpt lat="45.7070039" lon="13.7463748"><ele>248.79999999999998</ele><time>2026-04-25T09:13:37.176Z</time></trkpt><trkpt lat="45.7069628" lon="13.7464846"><ele>249.0</ele><time>2026-04-25T09:13:38.181Z</time></trkpt><trkpt lat="45.7068853" lon="13.7465769"><ele>249.0</ele><time>2026-04-25T09:13:39.184Z</time></trkpt><trkpt lat="45.7067936" lon="13.7466743"><ele>249.0</ele><time>2026-04-25T09:13:40.184Z</time></trkpt><trkpt lat="45.7066914" lon="13.7468041"><ele>249.0</ele><time>2026-04-25T09:13:41.187Z</time></trkpt><trkpt lat="45.7065835" lon="13.7469461"><ele>249.0</ele><time>2026-04-25T09:13:42.189Z</time></trkpt><trkpt lat="45.7064633" lon="13.7470834"><ele>249.66666666666669</ele><time>2026-04-25T09:13:43.177Z</time></trkpt><trkpt lat="45.7063391" lon="13.7472339"><ele>250.33333333333334</ele><time>2026-04-25T09:13:44.189Z</time></trkpt><trkpt lat="45.7062122" lon="13.7473968"><ele>251.0</ele><time>2026-04-25T09:13:45.179Z</time></trkpt><trkpt lat="45.7060762" lon="13.7475643"><ele>251.66666666666669</ele><time>2026-04-25T09:13:46.187Z</time></trkpt><trkpt lat="45.705941" lon="13.7477468"><ele>252.33333333333331</ele><time>2026-04-25T09:13:47.188Z</time></trkpt><trkpt lat="45.7058048" lon="13.7479377"><ele>253.0</ele><time>2026-04-25T09:13:48.184Z</time></trkpt><trkpt lat="45.7056674" lon="13.7481315"><ele>253.0</ele><time>2026-04-25T09:13:49.181Z</time></trkpt><trkpt lat="45.7055296" lon="13.748335"><ele>253.0</ele><time>2026-04-25T09:13:50.184Z</time></trkpt><trkpt lat="45.7053907" lon="13.7485468"><ele>253.0</ele><time>2026-04-25T09:13:51.181Z</time></trkpt><trkpt lat="45.7052509" lon="13.7487602"><ele>254.66666666666666</ele><time>2026-04-25T09:13:52.168Z</time></trkpt><trkpt lat="45.7051127" lon="13.748978"><ele>256.3333333333333</ele><time>2026-04-25T09:13:53.179Z</time></trkpt><trkpt lat="45.7049732" lon="13.7491949"><ele>258.0</ele><time>2026-04-25T09:13:54.163Z</time></trkpt><trkpt lat="45.7048379" lon="13.7494157"><ele>259.0</ele><time>2026-04-25T09:13:55.163Z</time></trkpt><trkpt lat="45.7046994" lon="13.7496362"><ele>260.0</ele><time>2026-04-25T09:13:56.168Z</time></trkpt><trkpt lat="45.7045612" lon="13.7498639"><ele>261.0</ele><time>2026-04-25T09:13:57.162Z</time></trkpt><trkpt lat="45.7044316" lon="13.7500858"><ele>261.6666666666667</ele><time>2026-04-25T09:13:58.164Z</time></trkpt><trkpt lat="45.7043006" lon="13.7503148"><ele>262.33333333333337</ele><time>2026-04-25T09:13:59.164Z</time></trkpt><trkpt lat="45.7041709" lon="13.7505481"><ele>263.0</ele><time>2026-04-25T09:14:00.164Z</time></trkpt><trkpt lat="45.7040398" lon="13.7507861"><ele>263.0</ele><time>2026-04-25T09:14:01.176Z</time></trkpt><trkpt lat="45.7039065" lon="13.7510288"><ele>263.0</ele><time>2026-04-25T09:14:02.168Z</time></trkpt><trkpt lat="45.7037711" lon="13.7512705"><ele>263.0</ele><time>2026-04-25T09:14:03.168Z</time></trkpt><trkpt lat="45.7036318" lon="13.7515105"><ele>263.0</ele><time>2026-04-25T09:14:04.171Z</time></trkpt><trkpt lat="45.7034975" lon="13.7517543"><ele>263.0</ele><time>2026-04-25T09:14:05.171Z</time></trkpt><trkpt lat="45.7033655" lon="13.7519991"><ele>263.0</ele><time>2026-04-25T09:14:06.16Z</time></trkpt><trkpt lat="45.7032346" lon="13.7522495"><ele>263.6666666666667</ele><time>2026-04-25T09:14:07.154Z</time></trkpt><trkpt lat="45.7031049" lon="13.7525053"><ele>264.3333333333333</ele><time>2026-04-25T09:14:08.119Z</time></trkpt><trkpt lat="45.7029715" lon="13.7527679"><ele>265.0</ele><time>2026-04-25T09:14:09.097Z</time></trkpt><trkpt lat="45.7025081" lon="13.753581"><ele>266.3333333333333</ele><time>2026-04-25T09:14:12.095Z</time></trkpt><trkpt lat="45.7023804" lon="13.7537509"><ele>267.6666666666667</ele><time>2026-04-25T09:14:13.129Z</time></trkpt><trkpt lat="45.7022311" lon="13.7539801"><ele>269.0</ele><time>2026-04-25T09:14:14.143Z</time></trkpt><trkpt lat="45.7020744" lon="13.7542636"><ele>274.5</ele><time>2026-04-25T09:14:15.146Z</time></trkpt><trkpt lat="45.7018832" lon="13.7544993"><ele>280.0</ele><time>2026-04-25T09:14:16.145Z</time></trkpt><trkpt lat="45.7017334" lon="13.7547517"><ele>280.0</ele><time>2026-04-25T09:14:17.141Z</time></trkpt><trkpt lat="45.7015848" lon="13.7550111"><ele>280.0</ele><time>2026-04-25T09:14:18.151Z</time></trkpt><trkpt lat="45.7014379" lon="13.7552711"><ele>280.0</ele><time>2026-04-25T09:14:19.148Z</time></trkpt><trkpt lat="45.7013043" lon="13.7555369"><ele>280.0</ele><time>2026-04-25T09:14:20.154Z</time></trkpt><trkpt lat="45.7011687" lon="13.7558052"><ele>281.5</ele><time>2026-04-25T09:14:21.161Z</time></trkpt><trkpt lat="45.701028" lon="13.7560709"><ele>283.0</ele><time>2026-04-25T09:14:22.161Z</time></trkpt><trkpt lat="45.7008836" lon="13.7563361"><ele>283.0</ele><time>2026-04-25T09:14:23.161Z</time></trkpt><trkpt lat="45.7007403" lon="13.7566"><ele>283.0</ele><time>2026-04-25T09:14:24.166Z</time></trkpt><trkpt lat="45.7005936" lon="13.7568632"><ele>283.0</ele><time>2026-04-25T09:14:25.169Z</time></trkpt><trkpt lat="45.7004461" lon="13.7571215"><ele>283.0</ele><time>2026-04-25T09:14:26.155Z</time></trkpt><trkpt lat="45.7003019" lon="13.7573856"><ele>284.5</ele><time>2026-04-25T09:14:27.166Z</time></trkpt><trkpt lat="45.7001588" lon="13.757652"><ele>286.0</ele><time>2026-04-25T09:14:28.175Z</time></trkpt><trkpt lat="45.7000164" lon="13.7579174"><ele>286.0</ele><time>2026-04-25T09:14:29.153Z</time></trkpt><trkpt lat="45.6998755" lon="13.7581859"><ele>286.0</ele><time>2026-04-25T09:14:30.162Z</time></trkpt><trkpt lat="45.6997337" lon="13.7584453"><ele>287.0</ele><time>2026-04-25T09:14:31.153Z</time></trkpt><trkpt lat="45.6995943" lon="13.7587067"><ele>288.0</ele><time>2026-04-25T09:14:32.157Z</time></trkpt><trkpt lat="45.6994547" lon="13.7589665"><ele>288.0</ele><time>2026-04-25T09:14:33.156Z</time></trkpt><trkpt lat="45.6993112" lon="13.7592247"><ele>288.0</ele><time>2026-04-25T09:14:34.153Z</time></trkpt><trkpt lat="45.6991728" lon="13.7594844"><ele>288.0</ele><time>2026-04-25T09:14:35.158Z</time></trkpt><trkpt lat="45.6990313" lon="13.7597452"><ele>288.0</ele><time>2026-04-25T09:14:36.158Z</time></trkpt><trkpt lat="45.6988895" lon="13.760001"><ele>286.5</ele><time>2026-04-25T09:14:37.151Z</time></trkpt><trkpt lat="45.6987458" lon="13.7602635"><ele>285.0</ele><time>2026-04-25T09:14:38.153Z</time></trkpt><trkpt lat="45.698602" lon="13.7605261"><ele>288.0</ele><time>2026-04-25T09:14:39.166Z</time></trkpt><trkpt lat="45.6984612" lon="13.7607838"><ele>291.0</ele><time>2026-04-25T09:14:40.163Z</time></trkpt><trkpt lat="45.6983164" lon="13.7610398"><ele>291.5</ele><time>2026-04-25T09:14:41.163Z</time></trkpt><trkpt lat="45.6981679" lon="13.7612919"><ele>292.0</ele><time>2026-04-25T09:14:42.16Z</time></trkpt><trkpt lat="45.698015" lon="13.7615432"><ele>292.0</ele><time>2026-04-25T09:14:43.168Z</time></trkpt><trkpt lat="45.6978623" lon="13.7617927"><ele>292.0</ele><time>2026-04-25T09:14:44.164Z</time></trkpt><trkpt lat="45.6977075" lon="13.7620379"><ele>294.5</ele><time>2026-04-25T09:14:45.177Z</time></trkpt><trkpt lat="45.6975519" lon="13.7622842"><ele>297.0</ele><time>2026-04-25T09:14:46.16Z</time></trkpt><trkpt lat="45.6973964" lon="13.762522"><ele>297.5</ele><time>2026-04-25T09:14:47.171Z</time></trkpt><trkpt lat="45.6972335" lon="13.762755"><ele>298.0</ele><time>2026-04-25T09:14:48.163Z</time></trkpt><trkpt lat="45.6970729" lon="13.7629904"><ele>299.5</ele><time>2026-04-25T09:14:49.169Z</time></trkpt><trkpt lat="45.6969087" lon="13.7632161"><ele>301.0</ele><time>2026-04-25T09:14:50.169Z</time></trkpt><trkpt lat="45.6967385" lon="13.7634467"><ele>300.5</ele><time>2026-04-25T09:14:51.172Z</time></trkpt><trkpt lat="45.6965681" lon="13.7636747"><ele>300.0</ele><time>2026-04-25T09:14:52.159Z</time></trkpt><trkpt lat="45.6963924" lon="13.7638941"><ele>300.0</ele><time>2026-04-25T09:14:53.153Z</time></trkpt><trkpt lat="45.6962186" lon="13.7641152"><ele>300.0</ele><time>2026-04-25T09:14:54.164Z</time></trkpt><trkpt lat="45.696039" lon="13.7643265"><ele>303.0</ele><time>2026-04-25T09:14:55.165Z</time></trkpt><trkpt lat="45.695855" lon="13.7645379"><ele>306.0</ele><time>2026-04-25T09:14:56.158Z</time></trkpt><trkpt lat="45.6956716" lon="13.7647445"><ele>306.0</ele><time>2026-04-25T09:14:57.157Z</time></trkpt><trkpt lat="45.695485" lon="13.7649527"><ele>306.0</ele><time>2026-04-25T09:14:58.165Z</time></trkpt><trkpt lat="45.6952967" lon="13.7651558"><ele>310.0</ele><time>2026-04-25T09:14:59.169Z</time></trkpt><trkpt lat="45.6951082" lon="13.7653616"><ele>314.0</ele><time>2026-04-25T09:15:00.167Z</time></trkpt><trkpt lat="45.6949141" lon="13.7655638"><ele>314.0</ele><time>2026-04-25T09:15:01.171Z</time></trkpt><trkpt lat="45.6947205" lon="13.7657626"><ele>314.0</ele><time>2026-04-25T09:15:02.162Z</time></trkpt><trkpt lat="45.694525" lon="13.7659623"><ele>316.5</ele><time>2026-04-25T09:15:03.155Z</time></trkpt><trkpt lat="45.6943322" lon="13.7661628"><ele>319.0</ele><time>2026-04-25T09:15:04.155Z</time></trkpt><trkpt lat="45.6941363" lon="13.7663629"><ele>319.0</ele><time>2026-04-25T09:15:05.16Z</time></trkpt><trkpt lat="45.6939389" lon="13.766556"><ele>319.0</ele><time>2026-04-25T09:15:06.159Z</time></trkpt><trkpt lat="45.6937439" lon="13.7667526"><ele>320.5</ele><time>2026-04-25T09:15:07.148Z</time></trkpt><trkpt lat="45.6935499" lon="13.7669513"><ele>322.0</ele><time>2026-04-25T09:15:08.156Z</time></trkpt><trkpt lat="45.6933577" lon="13.7671467"><ele>322.0</ele><time>2026-04-25T09:15:09.15Z</time></trkpt><trkpt lat="45.6931656" lon="13.7673403"><ele>322.0</ele><time>2026-04-25T09:15:10.165Z</time></trkpt><trkpt lat="45.6929813" lon="13.7675312"><ele>321.0</ele><time>2026-04-25T09:15:11.148Z</time></trkpt><trkpt lat="45.6927935" lon="13.7677224"><ele>320.0</ele><time>2026-04-25T09:15:12.158Z</time></trkpt><trkpt lat="45.692608" lon="13.7679149"><ele>320.0</ele><time>2026-04-25T09:15:13.159Z</time></trkpt><trkpt lat="45.6924237" lon="13.768104"><ele>320.0</ele><time>2026-04-25T09:15:14.161Z</time></trkpt><trkpt lat="45.6922375" lon="13.7682966"><ele>320.0</ele><time>2026-04-25T09:15:15.162Z</time></trkpt><trkpt lat="45.692053" lon="13.7684843"><ele>320.0</ele><time>2026-04-25T09:15:16.162Z</time></trkpt><trkpt lat="45.6918666" lon="13.7686738"><ele>320.5</ele><time>2026-04-25T09:15:17.168Z</time></trkpt><trkpt lat="45.6916767" lon="13.7688618"><ele>321.0</ele><time>2026-04-25T09:15:18.162Z</time></trkpt><trkpt lat="45.6914866" lon="13.7690523"><ele>321.0</ele><time>2026-04-25T09:15:19.172Z</time></trkpt><trkpt lat="45.6912949" lon="13.7692434"><ele>321.0</ele><time>2026-04-25T09:15:20.174Z</time></trkpt><trkpt lat="45.6911027" lon="13.7694366"><ele>320.5</ele><time>2026-04-25T09:15:21.184Z</time></trkpt><trkpt lat="45.6909134" lon="13.7696301"><ele>320.0</ele><time>2026-04-25T09:15:22.176Z</time></trkpt><trkpt lat="45.6907262" lon="13.7698273"><ele>320.0</ele><time>2026-04-25T09:15:23.172Z</time></trkpt><trkpt lat="45.6905373" lon="13.7700175"><ele>320.0</ele><time>2026-04-25T09:15:24.17Z</time></trkpt><trkpt lat="45.6903459" lon="13.77021"><ele>319.5</ele><time>2026-04-25T09:15:25.168Z</time></trkpt><trkpt lat="45.6901554" lon="13.7703972"><ele>319.0</ele><time>2026-04-25T09:15:26.171Z</time></trkpt><trkpt lat="45.6899626" lon="13.7705844"><ele>319.0</ele><time>2026-04-25T09:15:27.175Z</time></trkpt><trkpt lat="45.6897699" lon="13.7707712"><ele>319.0</ele><time>2026-04-25T09:15:28.171Z</time></trkpt><trkpt lat="45.6895812" lon="13.7709627"><ele>321.5</ele><time>2026-04-25T09:15:29.182Z</time></trkpt><trkpt lat="45.6893923" lon="13.7711518"><ele>324.0</ele><time>2026-04-25T09:15:30.176Z</time></trkpt><trkpt lat="45.6892074" lon="13.7713397"><ele>324.0</ele><time>2026-04-25T09:15:31.175Z</time></trkpt><trkpt lat="45.6890204" lon="13.7715266"><ele>324.0</ele><time>2026-04-25T09:15:32.168Z</time></trkpt><trkpt lat="45.6888334" lon="13.7717081"><ele>324.3333333333333</ele><time>2026-04-25T09:15:33.185Z</time></trkpt><trkpt lat="45.6886491" lon="13.7718956"><ele>324.66666666666663</ele><time>2026-04-25T09:15:34.171Z</time></trkpt><trkpt lat="45.6884717" lon="13.7720783"><ele>325.0</ele><time>2026-04-25T09:15:35.171Z</time></trkpt><trkpt lat="45.688301" lon="13.7722565"><ele>326.3333333333333</ele><time>2026-04-25T09:15:36.177Z</time></trkpt><trkpt lat="45.6881285" lon="13.7724333"><ele>327.6666666666667</ele><time>2026-04-25T09:15:37.169Z</time></trkpt><trkpt lat="45.6879598" lon="13.7726155"><ele>329.0</ele><time>2026-04-25T09:15:38.18Z</time></trkpt><trkpt lat="45.6877952" lon="13.7728062"><ele>334.33333333333337</ele><time>2026-04-25T09:15:39.172Z</time></trkpt><trkpt lat="45.6876341" lon="13.7730096"><ele>339.6666666666667</ele><time>2026-04-25T09:15:40.178Z</time></trkpt><trkpt lat="45.6874788" lon="13.7732245"><ele>345.0</ele><time>2026-04-25T09:15:41.168Z</time></trkpt><trkpt lat="45.687334" lon="13.7734564"><ele>344.3333333333333</ele><time>2026-04-25T09:15:42.18Z</time></trkpt><trkpt lat="45.6871892" lon="13.7736942"><ele>343.66666666666663</ele><time>2026-04-25T09:15:43.178Z</time></trkpt><trkpt lat="45.6870529" lon="13.7739431"><ele>343.0</ele><time>2026-04-25T09:15:44.177Z</time></trkpt><trkpt lat="45.6869214" lon="13.774195"><ele>344.0</ele><time>2026-04-25T09:15:45.174Z</time></trkpt><trkpt lat="45.6868009" lon="13.7744552"><ele>345.0</ele><time>2026-04-25T09:15:46.177Z</time></trkpt><trkpt lat="45.6866793" lon="13.7747232"><ele>346.0</ele><time>2026-04-25T09:15:47.16Z</time></trkpt><trkpt lat="45.6865674" lon="13.7749961"><ele>345.0</ele><time>2026-04-25T09:15:48.167Z</time></trkpt><trkpt lat="45.6864593" lon="13.775272"><ele>344.0</ele><time>2026-04-25T09:15:49.166Z</time></trkpt><trkpt lat="45.6863522" lon="13.7755504"><ele>343.0</ele><time>2026-04-25T09:15:50.17Z</time></trkpt><trkpt lat="45.6862425" lon="13.7758246"><ele>342.5</ele><time>2026-04-25T09:15:51.172Z</time></trkpt><trkpt lat="45.6861264" lon="13.7761042"><ele>342.0</ele><time>2026-04-25T09:15:52.161Z</time></trkpt><trkpt lat="45.6860194" lon="13.7763847"><ele>344.0</ele><time>2026-04-25T09:15:53.161Z</time></trkpt><trkpt lat="45.6859132" lon="13.776664"><ele>346.0</ele><time>2026-04-25T09:15:54.165Z</time></trkpt><trkpt lat="45.6858057" lon="13.7769416"><ele>348.0</ele><time>2026-04-25T09:15:55.165Z</time></trkpt><trkpt lat="45.6856957" lon="13.7772044"><ele>348.0</ele><time>2026-04-25T09:15:56.164Z</time></trkpt><trkpt lat="45.68559" lon="13.7774488"><ele>348.0</ele><time>2026-04-25T09:15:57.18Z</time></trkpt><trkpt lat="45.6854899" lon="13.7776806"><ele>348.0</ele><time>2026-04-25T09:15:58.162Z</time></trkpt><trkpt lat="45.6853992" lon="13.7778955"><ele>347.6666666666667</ele><time>2026-04-25T09:15:59.163Z</time></trkpt><trkpt lat="45.6853117" lon="13.778105"><ele>347.33333333333337</ele><time>2026-04-25T09:16:00.165Z</time></trkpt><trkpt lat="45.6852235" lon="13.778317"><ele>347.0</ele><time>2026-04-25T09:16:01.162Z</time></trkpt><trkpt lat="45.685141" lon="13.7785173"><ele>348.0</ele><time>2026-04-25T09:16:02.164Z</time></trkpt><trkpt lat="45.6850508" lon="13.7787066"><ele>349.0</ele><time>2026-04-25T09:16:03.162Z</time></trkpt><trkpt lat="45.6849595" lon="13.7788966"><ele>350.0</ele><time>2026-04-25T09:16:04.162Z</time></trkpt><trkpt lat="45.6848739" lon="13.7790959"><ele>350.0</ele><time>2026-04-25T09:16:05.171Z</time></trkpt><trkpt lat="45.6847901" lon="13.7792944"><ele>350.0</ele><time>2026-04-25T09:16:06.167Z</time></trkpt><trkpt lat="45.6847091" lon="13.7794814"><ele>350.0</ele><time>2026-04-25T09:16:07.16Z</time></trkpt><trkpt lat="45.68463" lon="13.7796564"><ele>349.5</ele><time>2026-04-25T09:16:08.161Z</time></trkpt><trkpt lat="45.6845605" lon="13.7798262"><ele>349.0</ele><time>2026-04-25T09:16:09.165Z</time></trkpt><trkpt lat="45.6844914" lon="13.779984"><ele>348.5</ele><time>2026-04-25T09:16:10.155Z</time></trkpt><trkpt lat="45.6843969" lon="13.7801775"><ele>348.0</ele><time>2026-04-25T09:16:11.095Z</time></trkpt><trkpt lat="45.6843318" lon="13.7803506"><ele>348.0</ele><time>2026-04-25T09:16:12.098Z</time></trkpt><trkpt lat="45.6842693" lon="13.7805302"><ele>348.0</ele><time>2026-04-25T09:16:13.098Z</time></trkpt><trkpt lat="45.6842018" lon="13.780708"><ele>348.0</ele><time>2026-04-25T09:16:14.087Z</time></trkpt><trkpt lat="45.6841323" lon="13.7808842"><ele>348.0</ele><time>2026-04-25T09:16:15.092Z</time></trkpt><trkpt lat="45.6840658" lon="13.7810481"><ele>347.0</ele><time>2026-04-25T09:16:16.096Z</time></trkpt><trkpt lat="45.6839934" lon="13.7812072"><ele>346.0</ele><time>2026-04-25T09:16:17.097Z</time></trkpt><trkpt lat="45.6839251" lon="13.7813633"><ele>345.0</ele><time>2026-04-25T09:16:18.096Z</time></trkpt><trkpt lat="45.6838632" lon="13.7815109"><ele>344.0</ele><time>2026-04-25T09:16:19.093Z</time></trkpt><trkpt lat="45.6837991" lon="13.7816525"><ele>344.0</ele><time>2026-04-25T09:16:20.092Z</time></trkpt><trkpt lat="45.6837389" lon="13.7818076"><ele>344.0</ele><time>2026-04-25T09:16:21.09Z</time></trkpt><trkpt lat="45.683679" lon="13.7819729"><ele>344.0</ele><time>2026-04-25T09:16:22.092Z</time></trkpt><trkpt lat="45.6836157" lon="13.782129"><ele>344.0</ele><time>2026-04-25T09:16:23.094Z</time></trkpt><trkpt lat="45.6835524" lon="13.7822686"><ele>342.79999999999995</ele><time>2026-04-25T09:16:24.097Z</time></trkpt><trkpt lat="45.6834938" lon="13.7824039"><ele>341.59999999999997</ele><time>2026-04-25T09:16:25.093Z</time></trkpt><trkpt lat="45.6834369" lon="13.7825366"><ele>340.4</ele><time>2026-04-25T09:16:26.09Z</time></trkpt><trkpt lat="45.6833855" lon="13.7826619"><ele>339.2</ele><time>2026-04-25T09:16:27.086Z</time></trkpt><trkpt lat="45.6833364" lon="13.7827739"><ele>338.0</ele><time>2026-04-25T09:16:28.1Z</time></trkpt><trkpt lat="45.6832836" lon="13.7828837"><ele>337.6666666666667</ele><time>2026-04-25T09:16:29.085Z</time></trkpt><trkpt lat="45.6832195" lon="13.7829702"><ele>337.33333333333337</ele><time>2026-04-25T09:16:30.091Z</time></trkpt><trkpt lat="45.6831474" lon="13.7830484"><ele>337.0</ele><time>2026-04-25T09:16:31.081Z</time></trkpt><trkpt lat="45.6830779" lon="13.7831272"><ele>336.6666666666667</ele><time>2026-04-25T09:16:32.088Z</time></trkpt><trkpt lat="45.6830242" lon="13.7832107"><ele>336.3333333333333</ele><time>2026-04-25T09:16:33.09Z</time></trkpt><trkpt lat="45.6829823" lon="13.7833088"><ele>336.0</ele><time>2026-04-25T09:16:34.113Z</time></trkpt><trkpt lat="45.6829575" lon="13.7834227"><ele>336.25</ele><time>2026-04-25T09:16:35.08Z</time></trkpt><trkpt lat="45.6829371" lon="13.7835602"><ele>336.5</ele><time>2026-04-25T09:16:36.091Z</time></trkpt><trkpt lat="45.6829106" lon="13.7837074"><ele>336.75</ele><time>2026-04-25T09:16:37.096Z</time></trkpt><trkpt lat="45.6828628" lon="13.7838644"><ele>337.0</ele><time>2026-04-25T09:16:38.095Z</time></trkpt><trkpt lat="45.6828036" lon="13.7840376"><ele>337.3333333333333</ele><time>2026-04-25T09:16:39.094Z</time></trkpt><trkpt lat="45.6827417" lon="13.784218"><ele>337.6666666666667</ele><time>2026-04-25T09:16:40.092Z</time></trkpt><trkpt lat="45.6826753" lon="13.7844226"><ele>338.0</ele><time>2026-04-25T09:16:41.103Z</time></trkpt><trkpt lat="45.6826098" lon="13.7846319"><ele>338.33333333333337</ele><time>2026-04-25T09:16:42.094Z</time></trkpt><trkpt lat="45.6825447" lon="13.7848511"><ele>338.6666666666667</ele><time>2026-04-25T09:16:43.105Z</time></trkpt><trkpt lat="45.6824887" lon="13.7850888"><ele>339.0</ele><time>2026-04-25T09:16:44.091Z</time></trkpt><trkpt lat="45.6824351" lon="13.7853255"><ele>339.3333333333333</ele><time>2026-04-25T09:16:45.098Z</time></trkpt><trkpt lat="45.6823808" lon="13.7855615"><ele>339.66666666666663</ele><time>2026-04-25T09:16:46.089Z</time></trkpt><trkpt lat="45.6823269" lon="13.7858123"><ele>340.0</ele><time>2026-04-25T09:16:47.093Z</time></trkpt><trkpt lat="45.6822762" lon="13.7860699"><ele>340.0</ele><time>2026-04-25T09:16:48.105Z</time></trkpt><trkpt lat="45.6822279" lon="13.7863275"><ele>340.0</ele><time>2026-04-25T09:16:49.09Z</time></trkpt><trkpt lat="45.6821928" lon="13.7865947"><ele>340.0</ele><time>2026-04-25T09:16:50.093Z</time></trkpt><trkpt lat="45.6821502" lon="13.7868698"><ele>340.0</ele><time>2026-04-25T09:16:51.088Z</time></trkpt><trkpt lat="45.6821158" lon="13.7871504"><ele>340.0</ele><time>2026-04-25T09:16:52.088Z</time></trkpt><trkpt lat="45.6820816" lon="13.7874406"><ele>340.0</ele><time>2026-04-25T09:16:53.095Z</time></trkpt><trkpt lat="45.6820494" lon="13.78774"><ele>340.66666666666663</ele><time>2026-04-25T09:16:54.093Z</time></trkpt><trkpt lat="45.6820184" lon="13.7880446"><ele>341.3333333333333</ele><time>2026-04-25T09:16:55.088Z</time></trkpt><trkpt lat="45.6819834" lon="13.7883411"><ele>342.0</ele><time>2026-04-25T09:16:56.091Z</time></trkpt><trkpt lat="45.6819469" lon="13.7886419"><ele>343.3333333333333</ele><time>2026-04-25T09:16:57.089Z</time></trkpt><trkpt lat="45.6819107" lon="13.7889467"><ele>344.66666666666663</ele><time>2026-04-25T09:16:58.096Z</time></trkpt><trkpt lat="45.6818765" lon="13.7892614"><ele>346.0</ele><time>2026-04-25T09:16:59.094Z</time></trkpt><trkpt lat="45.6818392" lon="13.7895745"><ele>346.0</ele><time>2026-04-25T09:17:00.092Z</time></trkpt><trkpt lat="45.681807" lon="13.7898815"><ele>346.0</ele><time>2026-04-25T09:17:01.094Z</time></trkpt><trkpt lat="45.6817733" lon="13.7901857"><ele>346.0</ele><time>2026-04-25T09:17:02.083Z</time></trkpt><trkpt lat="45.6817399" lon="13.7904884"><ele>346.66666666666663</ele><time>2026-04-25T09:17:03.087Z</time></trkpt><trkpt lat="45.681701" lon="13.7907849"><ele>347.3333333333333</ele><time>2026-04-25T09:17:04.085Z</time></trkpt><trkpt lat="45.6816705" lon="13.7910852"><ele>348.0</ele><time>2026-04-25T09:17:05.084Z</time></trkpt><trkpt lat="45.6816344" lon="13.7913811"><ele>348.0</ele><time>2026-04-25T09:17:06.089Z</time></trkpt><trkpt lat="45.6815993" lon="13.7916699"><ele>348.0</ele><time>2026-04-25T09:17:07.088Z</time></trkpt><trkpt lat="45.6815716" lon="13.7919554"><ele>348.0</ele><time>2026-04-25T09:17:08.097Z</time></trkpt><trkpt lat="45.6815404" lon="13.7922472"><ele>348.0</ele><time>2026-04-25T09:17:09.09Z</time></trkpt><trkpt lat="45.6815072" lon="13.7925385"><ele>348.0</ele><time>2026-04-25T09:17:10.085Z</time></trkpt><trkpt lat="45.6814776" lon="13.7928294"><ele>348.0</ele><time>2026-04-25T09:17:11.08Z</time></trkpt><trkpt lat="45.6814488" lon="13.7931185"><ele>348.0</ele><time>2026-04-25T09:17:12.096Z</time></trkpt><trkpt lat="45.6814128" lon="13.7934133"><ele>348.0</ele><time>2026-04-25T09:17:13.085Z</time></trkpt><trkpt lat="45.6813787" lon="13.7937037"><ele>348.0</ele><time>2026-04-25T09:17:14.089Z</time></trkpt><trkpt lat="45.6813448" lon="13.7939956"><ele>348.0</ele><time>2026-04-25T09:17:15.094Z</time></trkpt><trkpt lat="45.6813113" lon="13.7942804"><ele>348.0</ele><time>2026-04-25T09:17:16.103Z</time></trkpt><trkpt lat="45.6812803" lon="13.7945565"><ele>348.0</ele><time>2026-04-25T09:17:17.093Z</time></trkpt><trkpt lat="45.681252" lon="13.794817"><ele>348.0</ele><time>2026-04-25T09:17:18.124Z</time></trkpt><trkpt lat="45.6812199" lon="13.7950608"><ele>348.0</ele><time>2026-04-25T09:17:19.092Z</time></trkpt><trkpt lat="45.6811914" lon="13.7953043"><ele>348.0</ele><time>2026-04-25T09:17:20.094Z</time></trkpt><trkpt lat="45.6811629" lon="13.7955516"><ele>348.0</ele><time>2026-04-25T09:17:21.1Z</time></trkpt><trkpt lat="45.6811345" lon="13.7958"><ele>348.0</ele><time>2026-04-25T09:17:22.092Z</time></trkpt><trkpt lat="45.6811066" lon="13.796052"><ele>348.0</ele><time>2026-04-25T09:17:23.094Z</time></trkpt><trkpt lat="45.6810795" lon="13.7963074"><ele>349.3333333333333</ele><time>2026-04-25T09:17:24.102Z</time></trkpt><trkpt lat="45.681048" lon="13.7965682"><ele>350.66666666666663</ele><time>2026-04-25T09:17:25.092Z</time></trkpt><trkpt lat="45.6810215" lon="13.7968312"><ele>352.0</ele><time>2026-04-25T09:17:26.092Z</time></trkpt><trkpt lat="45.680989" lon="13.7970993"><ele>353.0</ele><time>2026-04-25T09:17:27.09Z</time></trkpt><trkpt lat="45.6809556" lon="13.7973682"><ele>354.0</ele><time>2026-04-25T09:17:28.096Z</time></trkpt><trkpt lat="45.6809205" lon="13.7976351"><ele>355.0</ele><time>2026-04-25T09:17:29.091Z</time></trkpt><trkpt lat="45.6808928" lon="13.7978925"><ele>355.0</ele><time>2026-04-25T09:17:30.087Z</time></trkpt><trkpt lat="45.6808575" lon="13.798151"><ele>355.0</ele><time>2026-04-25T09:17:31.084Z</time></trkpt><trkpt lat="45.6808299" lon="13.7984181"><ele>355.0</ele><time>2026-04-25T09:17:32.083Z</time></trkpt><trkpt lat="45.6807942" lon="13.7986825"><ele>354.0</ele><time>2026-04-25T09:17:33.088Z</time></trkpt><trkpt lat="45.6807692" lon="13.7989511"><ele>353.0</ele><time>2026-04-25T09:17:34.085Z</time></trkpt><trkpt lat="45.6807392" lon="13.7992233"><ele>352.0</ele><time>2026-04-25T09:17:35.082Z</time></trkpt><trkpt lat="45.6807083" lon="13.7995028"><ele>352.0</ele><time>2026-04-25T09:17:36.085Z</time></trkpt><trkpt lat="45.6806775" lon="13.7997811"><ele>352.0</ele><time>2026-04-25T09:17:37.094Z</time></trkpt><trkpt lat="45.6806441" lon="13.800061"><ele>352.0</ele><time>2026-04-25T09:17:38.082Z</time></trkpt><trkpt lat="45.6806114" lon="13.8003488"><ele>352.0</ele><time>2026-04-25T09:17:39.092Z</time></trkpt><trkpt lat="45.6805814" lon="13.8006304"><ele>352.0</ele><time>2026-04-25T09:17:40.089Z</time></trkpt><trkpt lat="45.6805482" lon="13.8009062"><ele>352.0</ele><time>2026-04-25T09:17:41.093Z</time></trkpt><trkpt lat="45.6805195" lon="13.8011784"><ele>351.66666666666663</ele><time>2026-04-25T09:17:42.091Z</time></trkpt><trkpt lat="45.6804862" lon="13.8014456"><ele>351.3333333333333</ele><time>2026-04-25T09:17:43.097Z</time></trkpt><trkpt lat="45.6804494" lon="13.8016973"><ele>351.0</ele><time>2026-04-25T09:17:44.09Z</time></trkpt><trkpt lat="45.6804119" lon="13.8019391"><ele>351.0</ele><time>2026-04-25T09:17:45.092Z</time></trkpt><trkpt lat="45.6803741" lon="13.8021512"><ele>351.0</ele><time>2026-04-25T09:17:46.091Z</time></trkpt><trkpt lat="45.6803371" lon="13.8023531"><ele>351.0</ele><time>2026-04-25T09:17:47.088Z</time></trkpt><trkpt lat="45.6803077" lon="13.8025401"><ele>351.0</ele><time>2026-04-25T09:17:48.1Z</time></trkpt><trkpt lat="45.6802787" lon="13.8027245"><ele>351.75</ele><time>2026-04-25T09:17:49.092Z</time></trkpt><trkpt lat="45.6802406" lon="13.8028993"><ele>352.5</ele><time>2026-04-25T09:17:50.094Z</time></trkpt><trkpt lat="45.6802061" lon="13.8030731"><ele>353.25</ele><time>2026-04-25T09:17:51.09Z</time></trkpt><trkpt lat="45.6801668" lon="13.803236"><ele>354.0</ele><time>2026-04-25T09:17:52.087Z</time></trkpt><trkpt lat="45.6801355" lon="13.8033956"><ele>353.6</ele><time>2026-04-25T09:17:53.088Z</time></trkpt><trkpt lat="45.6801047" lon="13.8035482"><ele>353.2</ele><time>2026-04-25T09:17:54.096Z</time></trkpt><trkpt lat="45.6800735" lon="13.8037001"><ele>352.8</ele><time>2026-04-25T09:17:55.085Z</time></trkpt><trkpt lat="45.6800433" lon="13.8038472"><ele>352.40000000000003</ele><time>2026-04-25T09:17:56.089Z</time></trkpt><trkpt lat="45.6800085" lon="13.8039923"><ele>352.0</ele><time>2026-04-25T09:17:57.089Z</time></trkpt><trkpt lat="45.6799829" lon="13.8041337"><ele>352.0</ele><time>2026-04-25T09:17:58.091Z</time></trkpt><trkpt lat="45.6799633" lon="13.8042515"><ele>352.0</ele><time>2026-04-25T09:17:59.139Z</time></trkpt><trkpt lat="45.6799383" lon="13.8043448"><ele>352.0</ele><time>2026-04-25T09:18:00.08Z</time></trkpt><trkpt lat="45.6798652" lon="13.8044041"><ele>352.0</ele><time>2026-04-25T09:18:02.086Z</time></trkpt><trkpt lat="45.6797673" lon="13.8043975"><ele>352.0</ele><time>2026-04-25T09:18:04.081Z</time></trkpt><trkpt lat="45.6796977" lon="13.804399"><ele>352.0</ele><time>2026-04-25T09:18:05.084Z</time></trkpt><trkpt lat="45.679606" lon="13.8044048"><ele>352.0</ele><time>2026-04-25T09:18:06.088Z</time></trkpt><trkpt lat="45.6795027" lon="13.8044159"><ele>352.0</ele><time>2026-04-25T09:18:07.084Z</time></trkpt><trkpt lat="45.6794121" lon="13.804427"><ele>352.0</ele><time>2026-04-25T09:18:08.09Z</time></trkpt><trkpt lat="45.6793376" lon="13.804436"><ele>352.0</ele><time>2026-04-25T09:18:09.087Z</time></trkpt><trkpt lat="45.67923" lon="13.804447"><ele>352.0</ele><time>2026-04-25T09:18:11.101Z</time></trkpt><trkpt lat="45.6791386" lon="13.8044368"><ele>352.0</ele><time>2026-04-25T09:18:13.102Z</time></trkpt><trkpt lat="45.6790577" lon="13.8044412"><ele>352.0</ele><time>2026-04-25T09:18:15.104Z</time></trkpt><trkpt lat="45.6789863" lon="13.8044362"><ele>352.0</ele><time>2026-04-25T09:18:18.091Z</time></trkpt><trkpt lat="45.6789059" lon="13.8043769"><ele>352.0</ele><time>2026-04-25T09:18:29.095Z</time></trkpt><trkpt lat="45.678858" lon="13.8043087"><ele>352.0</ele><time>2026-04-25T09:18:30.09Z</time></trkpt><trkpt lat="45.6788083" lon="13.8042292"><ele>352.0</ele><time>2026-04-25T09:18:31.096Z</time></trkpt><trkpt lat="45.6787472" lon="13.8041353"><ele>352.40000000000003</ele><time>2026-04-25T09:18:32.095Z</time></trkpt><trkpt lat="45.6786758" lon="13.8040356"><ele>352.8</ele><time>2026-04-25T09:18:33.087Z</time></trkpt><trkpt lat="45.6786099" lon="13.80393"><ele>353.2</ele><time>2026-04-25T09:18:34.092Z</time></trkpt><trkpt lat="45.6785568" lon="13.8038083"><ele>353.6</ele><time>2026-04-25T09:18:35.092Z</time></trkpt><trkpt lat="45.678515" lon="13.8036791"><ele>354.0</ele><time>2026-04-25T09:18:36.086Z</time></trkpt><trkpt lat="45.6784789" lon="13.8035321"><ele>355.4</ele><time>2026-04-25T09:18:37.079Z</time></trkpt><trkpt lat="45.6784278" lon="13.8033693"><ele>356.79999999999995</ele><time>2026-04-25T09:18:38.087Z</time></trkpt><trkpt lat="45.6783845" lon="13.8032235"><ele>358.20000000000005</ele><time>2026-04-25T09:18:39.083Z</time></trkpt><trkpt lat="45.6783471" lon="13.8030964"><ele>359.6</ele><time>2026-04-25T09:18:40.09Z</time></trkpt><trkpt lat="45.6783117" lon="13.80298"><ele>361.0</ele><time>2026-04-25T09:18:41.09Z</time></trkpt><trkpt lat="45.6782613" lon="13.8028794"><ele>361.0</ele><time>2026-04-25T09:18:42.1Z</time></trkpt><trkpt lat="45.6781883" lon="13.8027768"><ele>361.0</ele><time>2026-04-25T09:18:43.086Z</time></trkpt><trkpt lat="45.6781004" lon="13.8026859"><ele>361.0</ele><time>2026-04-25T09:18:44.091Z</time></trkpt><trkpt lat="45.6780179" lon="13.8026"><ele>361.0</ele><time>2026-04-25T09:18:45.085Z</time></trkpt><trkpt lat="45.677945" lon="13.8025221"><ele>361.0</ele><time>2026-04-25T09:18:46.091Z</time></trkpt><trkpt lat="45.6778819" lon="13.8024509"><ele>361.3333333333333</ele><time>2026-04-25T09:18:47.092Z</time></trkpt><trkpt lat="45.6778276" lon="13.8023893"><ele>361.66666666666663</ele><time>2026-04-25T09:18:48.09Z</time></trkpt><trkpt lat="45.6777642" lon="13.802306"><ele>362.0</ele><time>2026-04-25T09:18:50.093Z</time></trkpt><trkpt lat="45.6777421" lon="13.8022179"><ele>362.3333333333333</ele><time>2026-04-25T09:18:52.097Z</time></trkpt><trkpt lat="45.6776705" lon="13.8021929"><ele>362.6666666666667</ele><time>2026-04-25T09:18:55.088Z</time></trkpt><trkpt lat="45.6775546" lon="13.8022847"><ele>363.0</ele><time>2026-04-25T09:18:57.083Z</time></trkpt><trkpt lat="45.6774699" lon="13.8023453"><ele>363.79999999999995</ele><time>2026-04-25T09:18:58.093Z</time></trkpt><trkpt lat="45.6773808" lon="13.8024135"><ele>364.6</ele><time>2026-04-25T09:18:59.085Z</time></trkpt><trkpt lat="45.6772962" lon="13.8024899"><ele>365.4</ele><time>2026-04-25T09:19:00.096Z</time></trkpt><trkpt lat="45.677203" lon="13.8025718"><ele>366.20000000000005</ele><time>2026-04-25T09:19:01.085Z</time></trkpt><trkpt lat="45.6771232" lon="13.8026431"><ele>367.0</ele><time>2026-04-25T09:19:02.082Z</time></trkpt><trkpt lat="45.6770637" lon="13.802698"><ele>367.0</ele><time>2026-04-25T09:19:03.085Z</time></trkpt><trkpt lat="45.6770029" lon="13.8027571"><ele>367.0</ele><time>2026-04-25T09:19:04.084Z</time></trkpt><trkpt lat="45.6769043" lon="13.8028625"><ele>367.0</ele><time>2026-04-25T09:19:06.088Z</time></trkpt><trkpt lat="45.6768492" lon="13.802909"><ele>367.0</ele><time>2026-04-25T09:19:07.091Z</time></trkpt><trkpt lat="45.6767852" lon="13.8029374"><ele>367.0</ele><time>2026-04-25T09:19:08.086Z</time></trkpt><trkpt lat="45.6767184" lon="13.8029309"><ele>367.0</ele><time>2026-04-25T09:19:09.079Z</time></trkpt><trkpt lat="45.6766448" lon="13.8028861"><ele>368.6</ele><time>2026-04-25T09:19:10.088Z</time></trkpt><trkpt lat="45.6765588" lon="13.8028282"><ele>370.20000000000005</ele><time>2026-04-25T09:19:11.106Z</time></trkpt><trkpt lat="45.6764769" lon="13.8027722"><ele>371.8</ele><time>2026-04-25T09:19:12.089Z</time></trkpt><trkpt lat="45.6763949" lon="13.8027053"><ele>373.4</ele><time>2026-04-25T09:19:13.091Z</time></trkpt><trkpt lat="45.6763132" lon="13.802641"><ele>375.0</ele><time>2026-04-25T09:19:14.088Z</time></trkpt><trkpt lat="45.6762338" lon="13.8025557"><ele>375.0</ele><time>2026-04-25T09:19:15.089Z</time></trkpt><trkpt lat="45.6761622" lon="13.8024478"><ele>375.0</ele><time>2026-04-25T09:19:16.087Z</time></trkpt><trkpt lat="45.6761011" lon="13.8023354"><ele>375.0</ele><time>2026-04-25T09:19:17.089Z</time></trkpt><trkpt lat="45.6760515" lon="13.8022412"><ele>375.0</ele><time>2026-04-25T09:19:18.09Z</time></trkpt><trkpt lat="45.6760153" lon="13.8021556"><ele>375.0</ele><time>2026-04-25T09:19:19.083Z</time></trkpt><trkpt lat="45.6759852" lon="13.8020594"><ele>375.0</ele><time>2026-04-25T09:19:20.088Z</time></trkpt><trkpt lat="45.6759647" lon="13.8019466"><ele>376.0</ele><time>2026-04-25T09:19:21.094Z</time></trkpt><trkpt lat="45.6759424" lon="13.801817"><ele>377.0</ele><time>2026-04-25T09:19:22.104Z</time></trkpt><trkpt lat="45.6759128" lon="13.8017102"><ele>378.0</ele><time>2026-04-25T09:19:23.086Z</time></trkpt><trkpt lat="45.6758779" lon="13.8016238"><ele>379.0</ele><time>2026-04-25T09:19:24.088Z</time></trkpt><trkpt lat="45.6758107" lon="13.801488"><ele>380.0</ele><time>2026-04-25T09:19:26.089Z</time></trkpt><trkpt lat="45.6757663" lon="13.8013556"><ele>380.0</ele><time>2026-04-25T09:19:28.09Z</time></trkpt><trkpt lat="45.6757239" lon="13.8011853"><ele>380.0</ele><time>2026-04-25T09:19:30.093Z</time></trkpt><trkpt lat="45.6756994" lon="13.8010839"><ele>380.0</ele><time>2026-04-25T09:19:31.106Z</time></trkpt><trkpt lat="45.6756717" lon="13.8009785"><ele>380.0</ele><time>2026-04-25T09:19:32.095Z</time></trkpt><trkpt lat="45.6756465" lon="13.8008651"><ele>380.0</ele><time>2026-04-25T09:19:33.087Z</time></trkpt><trkpt lat="45.6756119" lon="13.8007416"><ele>380.8</ele><time>2026-04-25T09:19:34.103Z</time></trkpt><trkpt lat="45.6755747" lon="13.8006085"><ele>381.6</ele><time>2026-04-25T09:19:35.091Z</time></trkpt><trkpt lat="45.6755351" lon="13.8004741"><ele>382.4</ele><time>2026-04-25T09:19:36.098Z</time></trkpt><trkpt lat="45.6754963" lon="13.8003328"><ele>383.2</ele><time>2026-04-25T09:19:37.093Z</time></trkpt><trkpt lat="45.6754626" lon="13.8001869"><ele>384.0</ele><time>2026-04-25T09:19:38.087Z</time></trkpt><trkpt lat="45.6754389" lon="13.8000422"><ele>384.1666666666667</ele><time>2026-04-25T09:19:39.086Z</time></trkpt><trkpt lat="45.6754249" lon="13.7999213"><ele>384.33333333333337</ele><time>2026-04-25T09:19:40.095Z</time></trkpt><trkpt lat="45.6754011" lon="13.7998344"><ele>384.5</ele><time>2026-04-25T09:19:41.09Z</time></trkpt><trkpt lat="45.6753813" lon="13.7997476"><ele>384.6666666666667</ele><time>2026-04-25T09:19:42.081Z</time></trkpt><trkpt lat="45.6753489" lon="13.7996517"><ele>384.83333333333337</ele><time>2026-04-25T09:19:43.094Z</time></trkpt><trkpt lat="45.6753144" lon="13.7995315"><ele>385.0</ele><time>2026-04-25T09:19:44.084Z</time></trkpt><trkpt lat="45.6752905" lon="13.7994279"><ele>385.0</ele><time>2026-04-25T09:19:45.086Z</time></trkpt><trkpt lat="45.6752791" lon="13.7993345"><ele>385.0</ele><time>2026-04-25T09:19:46.083Z</time></trkpt><trkpt lat="45.6752426" lon="13.7991995"><ele>385.0</ele><time>2026-04-25T09:19:48.088Z</time></trkpt><trkpt lat="45.6751924" lon="13.7990753"><ele>385.0</ele><time>2026-04-25T09:19:50.093Z</time></trkpt><trkpt lat="45.6751355" lon="13.7989681"><ele>385.0</ele><time>2026-04-25T09:19:52.086Z</time></trkpt><trkpt lat="45.6750889" lon="13.7988583"><ele>388.50000000000006</ele><time>2026-04-25T09:19:54.09Z</time></trkpt><trkpt lat="45.6750447" lon="13.7987513"><ele>392.0</ele><time>2026-04-25T09:19:57.089Z</time></trkpt><trkpt lat="45.6750206" lon="13.7986659"><ele>395.5</ele><time>2026-04-25T09:19:59.088Z</time></trkpt><trkpt lat="45.6749922" lon="13.7985798"><ele>399.0</ele><time>2026-04-25T09:20:02.086Z</time></trkpt><trkpt lat="45.6749564" lon="13.798502"><ele>402.50000000000006</ele><time>2026-04-25T09:20:05.075Z</time></trkpt><trkpt lat="45.6749125" lon="13.7983618"><ele>406.0</ele><time>2026-04-25T09:20:08.087Z</time></trkpt><trkpt lat="45.674863" lon="13.7982312"><ele>406.0</ele><time>2026-04-25T09:20:10.085Z</time></trkpt><trkpt lat="45.674827" lon="13.7981342"><ele>406.0</ele><time>2026-04-25T09:20:12.077Z</time></trkpt><trkpt lat="45.6748018" lon="13.79802"><ele>406.0</ele><time>2026-04-25T09:20:14.084Z</time></trkpt><trkpt lat="45.6747616" lon="13.7979453"><ele>406.0</ele><time>2026-04-25T09:20:17.084Z</time></trkpt><trkpt lat="45.6746964" lon="13.7978407"><ele>406.0</ele><time>2026-04-25T09:20:24.091Z</time></trkpt><trkpt lat="45.6745847" lon="13.7977448"><ele>406.00000000000006</ele><time>2026-04-25T09:20:26.09Z</time></trkpt><trkpt lat="45.6745116" lon="13.7976902"><ele>406.0</ele><time>2026-04-25T09:20:27.089Z</time></trkpt><trkpt lat="45.6744443" lon="13.7976361"><ele>406.0</ele><time>2026-04-25T09:20:28.093Z</time></trkpt><trkpt lat="45.6743752" lon="13.7975786"><ele>406.0</ele><time>2026-04-25T09:20:29.092Z</time></trkpt><trkpt lat="45.6742966" lon="13.797526"><ele>406.00000000000006</ele><time>2026-04-25T09:20:30.091Z</time></trkpt><trkpt lat="45.6742002" lon="13.7974821"><ele>406.0</ele><time>2026-04-25T09:20:31.094Z</time></trkpt><trkpt lat="45.6740981" lon="13.7974368"><ele>407.83333333333337</ele><time>2026-04-25T09:20:32.092Z</time></trkpt><trkpt lat="45.6739927" lon="13.7973875"><ele>409.6666666666667</ele><time>2026-04-25T09:20:33.093Z</time></trkpt><trkpt lat="45.6738993" lon="13.7973462"><ele>411.5</ele><time>2026-04-25T09:20:34.086Z</time></trkpt><trkpt lat="45.6738226" lon="13.7973049"><ele>413.33333333333337</ele><time>2026-04-25T09:20:35.087Z</time></trkpt><trkpt lat="45.6737549" lon="13.7972633"><ele>415.1666666666667</ele><time>2026-04-25T09:20:36.083Z</time></trkpt><trkpt lat="45.6736936" lon="13.7972118"><ele>417.0</ele><time>2026-04-25T09:20:37.088Z</time></trkpt><trkpt lat="45.6736321" lon="13.7970673"><ele>417.0</ele><time>2026-04-25T09:20:39.096Z</time></trkpt><trkpt lat="45.6736114" lon="13.7969015"><ele>417.0</ele><time>2026-04-25T09:20:41.093Z</time></trkpt><trkpt lat="45.6736102" lon="13.7967465"><ele>417.0</ele><time>2026-04-25T09:20:43.088Z</time></trkpt><trkpt lat="45.6736124" lon="13.7966093"><ele>417.0</ele><time>2026-04-25T09:20:45.092Z</time></trkpt><trkpt lat="45.673572" lon="13.7964923"><ele>417.0</ele><time>2026-04-25T09:20:47.087Z</time></trkpt><trkpt lat="45.673478" lon="13.7964213"><ele>415.75</ele><time>2026-04-25T09:20:49.096Z</time></trkpt><trkpt lat="45.6733573" lon="13.7964125"><ele>414.5</ele><time>2026-04-25T09:20:51.09Z</time></trkpt><trkpt lat="45.6732497" lon="13.7964898"><ele>413.25</ele><time>2026-04-25T09:20:53.083Z</time></trkpt><trkpt lat="45.6731417" lon="13.7965529"><ele>412.0</ele><time>2026-04-25T09:20:55.084Z</time></trkpt><trkpt lat="45.6730147" lon="13.7965683"><ele>412.00000000000006</ele><time>2026-04-25T09:20:57.081Z</time></trkpt><trkpt lat="45.6729494" lon="13.7965419"><ele>412.0</ele><time>2026-04-25T09:20:58.087Z</time></trkpt><trkpt lat="45.6728431" lon="13.796485"><ele>412.0</ele><time>2026-04-25T09:21:00.088Z</time></trkpt><trkpt lat="45.672766" lon="13.7964011"><ele>412.0</ele><time>2026-04-25T09:21:02.091Z</time></trkpt><trkpt lat="45.6727141" lon="13.79634"><ele>412.00000000000006</ele><time>2026-04-25T09:21:05.088Z</time></trkpt><trkpt lat="45.6726667" lon="13.7962514"><ele>412.0</ele><time>2026-04-25T09:21:10.086Z</time></trkpt><trkpt lat="45.6726388" lon="13.7961575"><ele>411.0</ele><time>2026-04-25T09:21:11.089Z</time></trkpt><trkpt lat="45.6726136" lon="13.796025"><ele>410.0</ele><time>2026-04-25T09:21:12.082Z</time></trkpt><trkpt lat="45.672603" lon="13.7958948"><ele>409.0</ele><time>2026-04-25T09:21:13.081Z</time></trkpt><trkpt lat="45.6725777" lon="13.7957565"><ele>408.0</ele><time>2026-04-25T09:21:14.087Z</time></trkpt><trkpt lat="45.672558" lon="13.7956326"><ele>407.0</ele><time>2026-04-25T09:21:15.078Z</time></trkpt><trkpt lat="45.6725359" lon="13.7955018"><ele>406.00000000000006</ele><time>2026-04-25T09:21:16.082Z</time></trkpt><trkpt lat="45.6725194" lon="13.7953837"><ele>405.0</ele><time>2026-04-25T09:21:17.084Z</time></trkpt><trkpt lat="45.6725004" lon="13.795275"><ele>404.0</ele><time>2026-04-25T09:21:18.082Z</time></trkpt><trkpt lat="45.6724847" lon="13.7951713"><ele>403.0</ele><time>2026-04-25T09:21:19.086Z</time></trkpt><trkpt lat="45.6724673" lon="13.7950726"><ele>402.0</ele><time>2026-04-25T09:21:20.08Z</time></trkpt><trkpt lat="45.6724586" lon="13.7949817"><ele>401.00000000000006</ele><time>2026-04-25T09:21:21.079Z</time></trkpt><trkpt lat="45.6724417" lon="13.7948928"><ele>400.0</ele><time>2026-04-25T09:21:22.08Z</time></trkpt><trkpt lat="45.6723869" lon="13.7947529"><ele>397.83333333333337</ele><time>2026-04-25T09:21:24.087Z</time></trkpt><trkpt lat="45.6723085" lon="13.7946989"><ele>395.6666666666667</ele><time>2026-04-25T09:21:26.083Z</time></trkpt><trkpt lat="45.6722287" lon="13.7946422"><ele>393.5</ele><time>2026-04-25T09:21:28.088Z</time></trkpt><trkpt lat="45.6721529" lon="13.794574"><ele>391.33333333333337</ele><time>2026-04-25T09:21:30.083Z</time></trkpt><trkpt lat="45.672105" lon="13.7944842"><ele>389.1666666666667</ele><time>2026-04-25T09:21:32.084Z</time></trkpt><trkpt lat="45.6720434" lon="13.7944109"><ele>387.0</ele><time>2026-04-25T09:21:34.083Z</time></trkpt><trkpt lat="45.6719786" lon="13.794331"><ele>387.0</ele><time>2026-04-25T09:21:36.082Z</time></trkpt><trkpt lat="45.6719022" lon="13.7942683"><ele>387.0</ele><time>2026-04-25T09:21:38.094Z</time></trkpt><trkpt lat="45.6717942" lon="13.7942364"><ele>387.0</ele><time>2026-04-25T09:21:40.087Z</time></trkpt><trkpt lat="45.6716839" lon="13.7942629"><ele>387.0</ele><time>2026-04-25T09:21:42.093Z</time></trkpt><trkpt lat="45.6715983" lon="13.7943073"><ele>387.0</ele><time>2026-04-25T09:21:44.09Z</time></trkpt><trkpt lat="45.6715194" lon="13.7943406"><ele>387.0</ele><time>2026-04-25T09:21:46.096Z</time></trkpt><trkpt lat="45.6714379" lon="13.7944085"><ele>387.0</ele><time>2026-04-25T09:21:48.103Z</time></trkpt><trkpt lat="45.6713541" lon="13.7945207"><ele>387.0</ele><time>2026-04-25T09:21:50.091Z</time></trkpt><trkpt lat="45.6712773" lon="13.7946359"><ele>387.0</ele><time>2026-04-25T09:21:52.103Z</time></trkpt><trkpt lat="45.6711949" lon="13.7947456"><ele>387.0</ele><time>2026-04-25T09:21:54.087Z</time></trkpt><trkpt lat="45.6711138" lon="13.7948377"><ele>383.0</ele><time>2026-04-25T09:21:56.086Z</time></trkpt><trkpt lat="45.6710317" lon="13.7949055"><ele>379.0</ele><time>2026-04-25T09:21:58.087Z</time></trkpt><trkpt lat="45.670937" lon="13.7949175"><ele>375.0</ele><time>2026-04-25T09:22:00.095Z</time></trkpt><trkpt lat="45.6708675" lon="13.7948726"><ele>371.0</ele><time>2026-04-25T09:22:02.091Z</time></trkpt><trkpt lat="45.6708037" lon="13.7948418"><ele>367.0</ele><time>2026-04-25T09:22:04.098Z</time></trkpt><trkpt lat="45.6707116" lon="13.7948709"><ele>363.0</ele><time>2026-04-25T09:22:06.086Z</time></trkpt><trkpt lat="45.6706348" lon="13.7949015"><ele>363.0</ele><time>2026-04-25T09:22:08.098Z</time></trkpt><trkpt lat="45.6705585" lon="13.7948588"><ele>363.0</ele><time>2026-04-25T09:22:10.089Z</time></trkpt><trkpt lat="45.6704919" lon="13.7947758"><ele>363.0</ele><time>2026-04-25T09:22:12.101Z</time></trkpt><trkpt lat="45.670427" lon="13.7946769"><ele>363.0</ele><time>2026-04-25T09:22:14.093Z</time></trkpt><trkpt lat="45.670362" lon="13.7945924"><ele>363.0</ele><time>2026-04-25T09:22:16.098Z</time></trkpt><trkpt lat="45.6702883" lon="13.7945188"><ele>363.0</ele><time>2026-04-25T09:22:18.093Z</time></trkpt><trkpt lat="45.6702149" lon="13.7944472"><ele>359.4</ele><time>2026-04-25T09:22:20.092Z</time></trkpt><trkpt lat="45.6701291" lon="13.7943669"><ele>355.79999999999995</ele><time>2026-04-25T09:22:22.099Z</time></trkpt><trkpt lat="45.6700534" lon="13.7942768"><ele>352.2</ele><time>2026-04-25T09:22:24.096Z</time></trkpt><trkpt lat="45.6699835" lon="13.7941555"><ele>348.6</ele><time>2026-04-25T09:22:26.095Z</time></trkpt><trkpt lat="45.6699182" lon="13.7940255"><ele>345.0</ele><time>2026-04-25T09:22:28.093Z</time></trkpt><trkpt lat="45.6698984" lon="13.7938722"><ele>345.0</ele><time>2026-04-25T09:22:30.096Z</time></trkpt><trkpt lat="45.669917" lon="13.7937271"><ele>345.0</ele><time>2026-04-25T09:22:32.098Z</time></trkpt><trkpt lat="45.6699523" lon="13.7935945"><ele>345.0</ele><time>2026-04-25T09:22:34.099Z</time></trkpt><trkpt lat="45.6700008" lon="13.7934525"><ele>345.0</ele><time>2026-04-25T09:22:36.093Z</time></trkpt><trkpt lat="45.6700809" lon="13.7933182"><ele>345.0</ele><time>2026-04-25T09:22:38.085Z</time></trkpt><trkpt lat="45.6701335" lon="13.7932586"><ele>345.3333333333333</ele><time>2026-04-25T09:22:39.089Z</time></trkpt><trkpt lat="45.6701913" lon="13.793192"><ele>345.6666666666667</ele><time>2026-04-25T09:22:40.099Z</time></trkpt><trkpt lat="45.6702555" lon="13.7931371"><ele>346.0</ele><time>2026-04-25T09:22:41.093Z</time></trkpt><trkpt lat="45.670326" lon="13.7930831"><ele>346.33333333333337</ele><time>2026-04-25T09:22:42.091Z</time></trkpt><trkpt lat="45.6703981" lon="13.7930268"><ele>346.6666666666667</ele><time>2026-04-25T09:22:43.092Z</time></trkpt><trkpt lat="45.6704652" lon="13.7929793"><ele>347.0</ele><time>2026-04-25T09:22:44.089Z</time></trkpt><trkpt lat="45.6705343" lon="13.7929368"><ele>347.0</ele><time>2026-04-25T09:22:45.103Z</time></trkpt><trkpt lat="45.6706007" lon="13.792894"><ele>347.0</ele><time>2026-04-25T09:22:46.091Z</time></trkpt><trkpt lat="45.6706912" lon="13.7928046"><ele>347.0</ele><time>2026-04-25T09:22:48.095Z</time></trkpt><trkpt lat="45.6707662" lon="13.7927113"><ele>347.0</ele><time>2026-04-25T09:22:50.092Z</time></trkpt><trkpt lat="45.6707468" lon="13.7925847"><ele>347.0</ele><time>2026-04-25T09:22:52.085Z</time></trkpt><trkpt lat="45.67062" lon="13.7925417"><ele>343.40000000000003</ele><time>2026-04-25T09:22:54.077Z</time></trkpt><trkpt lat="45.6705252" lon="13.792543"><ele>339.8</ele><time>2026-04-25T09:22:55.08Z</time></trkpt><trkpt lat="45.670418" lon="13.7925254"><ele>336.2</ele><time>2026-04-25T09:22:56.081Z</time></trkpt><trkpt lat="45.670306" lon="13.792494"><ele>332.6</ele><time>2026-04-25T09:22:57.089Z</time></trkpt><trkpt lat="45.67019" lon="13.7924689"><ele>329.0</ele><time>2026-04-25T09:22:58.081Z</time></trkpt><trkpt lat="45.6700759" lon="13.7924464"><ele>326.5</ele><time>2026-04-25T09:22:59.09Z</time></trkpt><trkpt lat="45.6699657" lon="13.7924269"><ele>324.0</ele><time>2026-04-25T09:23:00.083Z</time></trkpt><trkpt lat="45.6698594" lon="13.7924043"><ele>321.5</ele><time>2026-04-25T09:23:01.09Z</time></trkpt><trkpt lat="45.6697456" lon="13.792384"><ele>319.0</ele><time>2026-04-25T09:23:02.09Z</time></trkpt><trkpt lat="45.6696278" lon="13.7923617"><ele>319.0</ele><time>2026-04-25T09:23:03.085Z</time></trkpt><trkpt lat="45.669514" lon="13.7923649"><ele>319.0</ele><time>2026-04-25T09:23:04.088Z</time></trkpt><trkpt lat="45.6694076" lon="13.7923639"><ele>319.0</ele><time>2026-04-25T09:23:05.089Z</time></trkpt><trkpt lat="45.669307" lon="13.7923455"><ele>319.0</ele><time>2026-04-25T09:23:06.1Z</time></trkpt><trkpt lat="45.6692082" lon="13.7923306"><ele>319.0</ele><time>2026-04-25T09:23:07.082Z</time></trkpt><trkpt lat="45.6691176" lon="13.7923073"><ele>316.66666666666663</ele><time>2026-04-25T09:23:08.079Z</time></trkpt><trkpt lat="45.6690206" lon="13.7922783"><ele>314.3333333333333</ele><time>2026-04-25T09:23:09.084Z</time></trkpt><trkpt lat="45.6689335" lon="13.7922533"><ele>312.0</ele><time>2026-04-25T09:23:10.089Z</time></trkpt><trkpt lat="45.6688587" lon="13.7922201"><ele>309.6666666666667</ele><time>2026-04-25T09:23:11.085Z</time></trkpt><trkpt lat="45.6687975" lon="13.7921815"><ele>307.33333333333337</ele><time>2026-04-25T09:23:12.085Z</time></trkpt><trkpt lat="45.6687388" lon="13.7921396"><ele>305.0</ele><time>2026-04-25T09:23:13.095Z</time></trkpt><trkpt lat="45.66863" lon="13.7920614"><ele>302.42857142857144</ele><time>2026-04-25T09:23:15.089Z</time></trkpt><trkpt lat="45.6685638" lon="13.7920257"><ele>299.85714285714283</ele><time>2026-04-25T09:23:16.083Z</time></trkpt><trkpt lat="45.6685015" lon="13.7919822"><ele>297.2857142857143</ele><time>2026-04-25T09:23:17.085Z</time></trkpt><trkpt lat="45.6684442" lon="13.7919279"><ele>294.7142857142857</ele><time>2026-04-25T09:23:18.087Z</time></trkpt><trkpt lat="45.6683825" lon="13.7918738"><ele>292.1428571428571</ele><time>2026-04-25T09:23:19.093Z</time></trkpt><trkpt lat="45.6683111" lon="13.7918229"><ele>289.57142857142856</ele><time>2026-04-25T09:23:20.094Z</time></trkpt><trkpt lat="45.6682389" lon="13.7917713"><ele>287.0</ele><time>2026-04-25T09:23:21.118Z</time></trkpt><trkpt lat="45.668168" lon="13.7917237"><ele>287.0</ele><time>2026-04-25T09:23:22.096Z</time></trkpt><trkpt lat="45.6681019" lon="13.7916823"><ele>287.0</ele><time>2026-04-25T09:23:23.1Z</time></trkpt><trkpt lat="45.6680356" lon="13.7916433"><ele>287.0</ele><time>2026-04-25T09:23:24.1Z</time></trkpt><trkpt lat="45.6679646" lon="13.7915989"><ele>287.0</ele><time>2026-04-25T09:23:25.101Z</time></trkpt><trkpt lat="45.6679016" lon="13.7915573"><ele>287.0</ele><time>2026-04-25T09:23:26.101Z</time></trkpt><trkpt lat="45.6678433" lon="13.7915056"><ele>287.0</ele><time>2026-04-25T09:23:27.09Z</time></trkpt><trkpt lat="45.667743" lon="13.7914023"><ele>284.83333333333337</ele><time>2026-04-25T09:23:29.097Z</time></trkpt><trkpt lat="45.6677075" lon="13.7913252"><ele>282.6666666666667</ele><time>2026-04-25T09:23:30.096Z</time></trkpt><trkpt lat="45.6676848" lon="13.7912373"><ele>280.5</ele><time>2026-04-25T09:23:31.083Z</time></trkpt><trkpt lat="45.6676335" lon="13.7910949"><ele>278.3333333333333</ele><time>2026-04-25T09:23:33.096Z</time></trkpt><trkpt lat="45.6675949" lon="13.790988"><ele>276.16666666666663</ele><time>2026-04-25T09:23:35.093Z</time></trkpt><trkpt lat="45.6675626" lon="13.7908784"><ele>274.0</ele><time>2026-04-25T09:23:38.099Z</time></trkpt><trkpt lat="45.6675229" lon="13.7908067"><ele>274.0</ele><time>2026-04-25T09:23:58.11Z</time></trkpt><trkpt lat="45.6674242" lon="13.7907843"><ele>274.0</ele><time>2026-04-25T09:24:00.104Z</time></trkpt><trkpt lat="45.6673543" lon="13.7908407"><ele>274.0</ele><time>2026-04-25T09:24:01.095Z</time></trkpt><trkpt lat="45.6673009" lon="13.7909056"><ele>274.0</ele><time>2026-04-25T09:24:02.094Z</time></trkpt><trkpt lat="45.6672534" lon="13.790975"><ele>274.0</ele><time>2026-04-25T09:24:03.101Z</time></trkpt><trkpt lat="45.6671977" lon="13.7910848"><ele>274.0</ele><time>2026-04-25T09:24:04.101Z</time></trkpt><trkpt lat="45.6671556" lon="13.7912381"><ele>274.0</ele><time>2026-04-25T09:24:05.092Z</time></trkpt><trkpt lat="45.6671227" lon="13.7914127"><ele>274.0</ele><time>2026-04-25T09:24:06.099Z</time></trkpt><trkpt lat="45.6671212" lon="13.791617"><ele>274.0</ele><time>2026-04-25T09:24:07.1Z</time></trkpt><trkpt lat="45.6671464" lon="13.7918194"><ele>274.0</ele><time>2026-04-25T09:24:08.093Z</time></trkpt><trkpt lat="45.6672112" lon="13.7919825"><ele>270.0</ele><time>2026-04-25T09:24:09.093Z</time></trkpt><trkpt lat="45.6673115" lon="13.7921207"><ele>266.0</ele><time>2026-04-25T09:24:10.097Z</time></trkpt><trkpt lat="45.6674349" lon="13.7922593"><ele>262.0</ele><time>2026-04-25T09:24:11.101Z</time></trkpt><trkpt lat="45.6675705" lon="13.7923994"><ele>262.0</ele><time>2026-04-25T09:24:12.098Z</time></trkpt><trkpt lat="45.6677024" lon="13.7925463"><ele>262.0</ele><time>2026-04-25T09:24:13.099Z</time></trkpt><trkpt lat="45.6678165" lon="13.792684"><ele>262.0</ele><time>2026-04-25T09:24:14.095Z</time></trkpt><trkpt lat="45.6679267" lon="13.7928244"><ele>265.5</ele><time>2026-04-25T09:24:15.084Z</time></trkpt><trkpt lat="45.6680303" lon="13.7929596"><ele>269.0</ele><time>2026-04-25T09:24:16.094Z</time></trkpt><trkpt lat="45.6681196" lon="13.7930887"><ele>272.5</ele><time>2026-04-25T09:24:17.086Z</time></trkpt><trkpt lat="45.6681954" lon="13.7932496"><ele>276.0</ele><time>2026-04-25T09:24:18.097Z</time></trkpt><trkpt lat="45.6682498" lon="13.7934355"><ele>273.3333333333333</ele><time>2026-04-25T09:24:19.103Z</time></trkpt><trkpt lat="45.6682812" lon="13.7936478"><ele>270.66666666666663</ele><time>2026-04-25T09:24:20.091Z</time></trkpt><trkpt lat="45.6682854" lon="13.7938841"><ele>268.0</ele><time>2026-04-25T09:24:21.092Z</time></trkpt><trkpt lat="45.6682893" lon="13.7941291"><ele>263.66666666666663</ele><time>2026-04-25T09:24:22.09Z</time></trkpt><trkpt lat="45.6682893" lon="13.7943679"><ele>259.3333333333333</ele><time>2026-04-25T09:24:23.09Z</time></trkpt><trkpt lat="45.6682902" lon="13.794592"><ele>255.0</ele><time>2026-04-25T09:24:24.089Z</time></trkpt><trkpt lat="45.6682919" lon="13.794803"><ele>255.0</ele><time>2026-04-25T09:24:25.087Z</time></trkpt><trkpt lat="45.6682942" lon="13.7950112"><ele>255.0</ele><time>2026-04-25T09:24:26.098Z</time></trkpt><trkpt lat="45.6683075" lon="13.7952285"><ele>255.0</ele><time>2026-04-25T09:24:27.091Z</time></trkpt><trkpt lat="45.6683282" lon="13.7954296"><ele>255.0</ele><time>2026-04-25T09:24:28.095Z</time></trkpt><trkpt lat="45.6683536" lon="13.7956251"><ele>253.0</ele><time>2026-04-25T09:24:29.093Z</time></trkpt><trkpt lat="45.668379" lon="13.7958124"><ele>251.0</ele><time>2026-04-25T09:24:30.09Z</time></trkpt><trkpt lat="45.6684233" lon="13.7960079"><ele>249.0</ele><time>2026-04-25T09:24:31.096Z</time></trkpt><trkpt lat="45.6684722" lon="13.7962113"><ele>247.0</ele><time>2026-04-25T09:24:32.097Z</time></trkpt><trkpt lat="45.6685377" lon="13.7963839"><ele>254.25</ele><time>2026-04-25T09:24:33.096Z</time></trkpt><trkpt lat="45.6686102" lon="13.7965405"><ele>261.5</ele><time>2026-04-25T09:24:34.096Z</time></trkpt><trkpt lat="45.6686752" lon="13.7966853"><ele>268.75</ele><time>2026-04-25T09:24:35.087Z</time></trkpt><trkpt lat="45.6687443" lon="13.7968216"><ele>276.0</ele><time>2026-04-25T09:24:36.1Z</time></trkpt><trkpt lat="45.6687992" lon="13.7969725"><ele>276.0</ele><time>2026-04-25T09:24:37.09Z</time></trkpt><trkpt lat="45.6688362" lon="13.7971363"><ele>276.0</ele><time>2026-04-25T09:24:38.086Z</time></trkpt><trkpt lat="45.6688426" lon="13.7973139"><ele>276.0</ele><time>2026-04-25T09:24:39.085Z</time></trkpt><trkpt lat="45.6688183" lon="13.7974982"><ele>276.0</ele><time>2026-04-25T09:24:40.081Z</time></trkpt><trkpt lat="45.6687625" lon="13.7976585"><ele>277.0</ele><time>2026-04-25T09:24:41.077Z</time></trkpt><trkpt lat="45.6686742" lon="13.7978052"><ele>278.0</ele><time>2026-04-25T09:24:42.079Z</time></trkpt><trkpt lat="45.6685515" lon="13.7979429"><ele>279.0</ele><time>2026-04-25T09:24:43.09Z</time></trkpt><trkpt lat="45.6684331" lon="13.7980843"><ele>280.0</ele><time>2026-04-25T09:24:44.084Z</time></trkpt><trkpt lat="45.6683083" lon="13.7982178"><ele>278.75</ele><time>2026-04-25T09:24:45.085Z</time></trkpt><trkpt lat="45.6681836" lon="13.7983353"><ele>277.5</ele><time>2026-04-25T09:24:46.094Z</time></trkpt><trkpt lat="45.6680526" lon="13.798437"><ele>276.25</ele><time>2026-04-25T09:24:47.09Z</time></trkpt><trkpt lat="45.6679301" lon="13.7985218"><ele>275.0</ele><time>2026-04-25T09:24:48.091Z</time></trkpt><trkpt lat="45.6678068" lon="13.79859"><ele>270.0</ele><time>2026-04-25T09:24:49.083Z</time></trkpt><trkpt lat="45.6676949" lon="13.7986361"><ele>265.0</ele><time>2026-04-25T09:24:50.091Z</time></trkpt><trkpt lat="45.6675852" lon="13.7986778"><ele>260.0</ele><time>2026-04-25T09:24:51.084Z</time></trkpt><trkpt lat="45.667479" lon="13.7987214"><ele>255.0</ele><time>2026-04-25T09:24:52.094Z</time></trkpt><trkpt lat="45.6673717" lon="13.7987584"><ele>255.0</ele><time>2026-04-25T09:24:53.092Z</time></trkpt><trkpt lat="45.6672667" lon="13.7987878"><ele>255.0</ele><time>2026-04-25T09:24:54.089Z</time></trkpt><trkpt lat="45.6671596" lon="13.7988129"><ele>255.0</ele><time>2026-04-25T09:24:55.091Z</time></trkpt><trkpt lat="45.6670453" lon="13.7988465"><ele>255.0</ele><time>2026-04-25T09:24:56.08Z</time></trkpt><trkpt lat="45.6669378" lon="13.7988908"><ele>255.0</ele><time>2026-04-25T09:24:57.102Z</time></trkpt><trkpt lat="45.6668264" lon="13.7989344"><ele>252.0</ele><time>2026-04-25T09:24:58.091Z</time></trkpt><trkpt lat="45.6667108" lon="13.7989873"><ele>249.0</ele><time>2026-04-25T09:24:59.091Z</time></trkpt><trkpt lat="45.6665879" lon="13.7990549"><ele>246.0</ele><time>2026-04-25T09:25:00.088Z</time></trkpt><trkpt lat="45.6664601" lon="13.7991382"><ele>243.0</ele><time>2026-04-25T09:25:01.094Z</time></trkpt><trkpt lat="45.6663382" lon="13.7992369"><ele>241.0</ele><time>2026-04-25T09:25:02.086Z</time></trkpt><trkpt lat="45.6662171" lon="13.7993632"><ele>239.0</ele><time>2026-04-25T09:25:03.099Z</time></trkpt><trkpt lat="45.6661088" lon="13.7995074"><ele>237.0</ele><time>2026-04-25T09:25:04.094Z</time></trkpt><trkpt lat="45.6660206" lon="13.7996572"><ele>235.0</ele><time>2026-04-25T09:25:05.097Z</time></trkpt><trkpt lat="45.6659332" lon="13.7998254"><ele>235.0</ele><time>2026-04-25T09:25:06.091Z</time></trkpt><trkpt lat="45.6658425" lon="13.8000065"><ele>235.0</ele><time>2026-04-25T09:25:07.094Z</time></trkpt><trkpt lat="45.6657635" lon="13.8001919"><ele>235.0</ele><time>2026-04-25T09:25:08.085Z</time></trkpt><trkpt lat="45.6656983" lon="13.8003828"><ele>237.0</ele><time>2026-04-25T09:25:09.087Z</time></trkpt><trkpt lat="45.6656437" lon="13.8005758"><ele>239.0</ele><time>2026-04-25T09:25:10.09Z</time></trkpt><trkpt lat="45.6655888" lon="13.8007783"><ele>241.0</ele><time>2026-04-25T09:25:11.089Z</time></trkpt><trkpt lat="45.6655423" lon="13.8009823"><ele>243.0</ele><time>2026-04-25T09:25:12.092Z</time></trkpt><trkpt lat="45.6655067" lon="13.8011865"><ele>243.0</ele><time>2026-04-25T09:25:13.1Z</time></trkpt><trkpt lat="45.6654786" lon="13.8013931"><ele>243.0</ele><time>2026-04-25T09:25:14.091Z</time></trkpt><trkpt lat="45.6654639" lon="13.8016095"><ele>243.0</ele><time>2026-04-25T09:25:15.093Z</time></trkpt><trkpt lat="45.6654706" lon="13.8018142"><ele>243.0</ele><time>2026-04-25T09:25:16.085Z</time></trkpt><trkpt lat="45.6654947" lon="13.8020134"><ele>240.75</ele><time>2026-04-25T09:25:17.091Z</time></trkpt><trkpt lat="45.6655357" lon="13.8022014"><ele>238.5</ele><time>2026-04-25T09:25:18.082Z</time></trkpt><trkpt lat="45.6655873" lon="13.8023786"><ele>236.25</ele><time>2026-04-25T09:25:19.096Z</time></trkpt><trkpt lat="45.6656542" lon="13.8025296"><ele>234.0</ele><time>2026-04-25T09:25:20.094Z</time></trkpt><trkpt lat="45.6657304" lon="13.8026829"><ele>231.25</ele><time>2026-04-25T09:25:21.086Z</time></trkpt><trkpt lat="45.6658216" lon="13.8028307"><ele>228.5</ele><time>2026-04-25T09:25:22.096Z</time></trkpt><trkpt lat="45.6659131" lon="13.8029741"><ele>225.75</ele><time>2026-04-25T09:25:23.081Z</time></trkpt><trkpt lat="45.6659878" lon="13.8031141"><ele>223.0</ele><time>2026-04-25T09:25:24.087Z</time></trkpt><trkpt lat="45.6660501" lon="13.8032661"><ele>223.0</ele><time>2026-04-25T09:25:25.083Z</time></trkpt><trkpt lat="45.6661022" lon="13.803439"><ele>223.0</ele><time>2026-04-25T09:25:26.095Z</time></trkpt><trkpt lat="45.6661324" lon="13.8036235"><ele>223.0</ele><time>2026-04-25T09:25:27.088Z</time></trkpt><trkpt lat="45.6661247" lon="13.8038227"><ele>223.0</ele><time>2026-04-25T09:25:28.087Z</time></trkpt><trkpt lat="45.6660924" lon="13.8040267"><ele>223.25</ele><time>2026-04-25T09:25:29.082Z</time></trkpt><trkpt lat="45.6660463" lon="13.8042062"><ele>223.5</ele><time>2026-04-25T09:25:30.088Z</time></trkpt><trkpt lat="45.6659705" lon="13.8043844"><ele>223.75</ele><time>2026-04-25T09:25:31.077Z</time></trkpt><trkpt lat="45.6658684" lon="13.804538"><ele>224.0</ele><time>2026-04-25T09:25:32.092Z</time></trkpt><trkpt lat="45.6657661" lon="13.804653"><ele>222.75</ele><time>2026-04-25T09:25:33.084Z</time></trkpt><trkpt lat="45.6656543" lon="13.804744"><ele>221.5</ele><time>2026-04-25T09:25:34.086Z</time></trkpt><trkpt lat="45.6655281" lon="13.8048245"><ele>220.25</ele><time>2026-04-25T09:25:35.089Z</time></trkpt><trkpt lat="45.6653866" lon="13.8048629"><ele>219.0</ele><time>2026-04-25T09:25:36.086Z</time></trkpt><trkpt lat="45.66522" lon="13.8048647"><ele>219.0</ele><time>2026-04-25T09:25:37.091Z</time></trkpt><trkpt lat="45.6650505" lon="13.8048705"><ele>219.0</ele><time>2026-04-25T09:25:38.085Z</time></trkpt><trkpt lat="45.6648897" lon="13.8048669"><ele>219.0</ele><time>2026-04-25T09:25:39.091Z</time></trkpt><trkpt lat="45.6647409" lon="13.8048784"><ele>219.0</ele><time>2026-04-25T09:25:40.089Z</time></trkpt><trkpt lat="45.6645907" lon="13.8048591"><ele>219.0</ele><time>2026-04-25T09:25:41.079Z</time></trkpt><trkpt lat="45.6644567" lon="13.8048394"><ele>219.0</ele><time>2026-04-25T09:25:42.078Z</time></trkpt><trkpt lat="45.6643193" lon="13.8048301"><ele>219.0</ele><time>2026-04-25T09:25:43.084Z</time></trkpt><trkpt lat="45.6641782" lon="13.8048507"><ele>220.0</ele><time>2026-04-25T09:25:44.077Z</time></trkpt><trkpt lat="45.6640494" lon="13.8048807"><ele>221.0</ele><time>2026-04-25T09:25:45.082Z</time></trkpt><trkpt lat="45.6639161" lon="13.8049793"><ele>222.0</ele><time>2026-04-25T09:25:46.087Z</time></trkpt><trkpt lat="45.6637832" lon="13.8051115"><ele>223.0</ele><time>2026-04-25T09:25:47.077Z</time></trkpt><trkpt lat="45.6636522" lon="13.8052748"><ele>215.66666666666666</ele><time>2026-04-25T09:25:48.088Z</time></trkpt><trkpt lat="45.6635097" lon="13.805448"><ele>208.33333333333331</ele><time>2026-04-25T09:25:49.09Z</time></trkpt><trkpt lat="45.6633656" lon="13.8056217"><ele>201.0</ele><time>2026-04-25T09:25:50.092Z</time></trkpt><trkpt lat="45.6632325" lon="13.8057833"><ele>201.0</ele><time>2026-04-25T09:25:51.089Z</time></trkpt><trkpt lat="45.663109" lon="13.8059382"><ele>201.0</ele><time>2026-04-25T09:25:52.087Z</time></trkpt><trkpt lat="45.662988" lon="13.8060983"><ele>201.0</ele><time>2026-04-25T09:25:53.09Z</time></trkpt><trkpt lat="45.6628658" lon="13.8062733"><ele>202.33333333333331</ele><time>2026-04-25T09:25:54.085Z</time></trkpt><trkpt lat="45.6627577" lon="13.8064756"><ele>203.66666666666666</ele><time>2026-04-25T09:25:55.086Z</time></trkpt><trkpt lat="45.6626506" lon="13.8066978"><ele>205.0</ele><time>2026-04-25T09:25:56.084Z</time></trkpt><trkpt lat="45.6625471" lon="13.8069328"><ele>205.0</ele><time>2026-04-25T09:25:57.09Z</time></trkpt><trkpt lat="45.66244" lon="13.8071685"><ele>205.0</ele><time>2026-04-25T09:25:58.101Z</time></trkpt><trkpt lat="45.6623337" lon="13.8074071"><ele>205.0</ele><time>2026-04-25T09:25:59.087Z</time></trkpt><trkpt lat="45.6622273" lon="13.8076364"><ele>209.66666666666666</ele><time>2026-04-25T09:26:00.094Z</time></trkpt><trkpt lat="45.6621141" lon="13.8078725"><ele>214.33333333333331</ele><time>2026-04-25T09:26:01.094Z</time></trkpt><trkpt lat="45.6620018" lon="13.8081109"><ele>219.0</ele><time>2026-04-25T09:26:02.083Z</time></trkpt><trkpt lat="45.661877" lon="13.8083458"><ele>211.33333333333331</ele><time>2026-04-25T09:26:03.085Z</time></trkpt><trkpt lat="45.6617452" lon="13.8085806"><ele>203.66666666666666</ele><time>2026-04-25T09:26:04.085Z</time></trkpt><trkpt lat="45.66162" lon="13.8088047"><ele>196.0</ele><time>2026-04-25T09:26:05.084Z</time></trkpt><trkpt lat="45.6614918" lon="13.809019"><ele>196.0</ele><time>2026-04-25T09:26:06.089Z</time></trkpt><trkpt lat="45.661368" lon="13.8092284"><ele>196.0</ele><time>2026-04-25T09:26:07.085Z</time></trkpt><trkpt lat="45.6612397" lon="13.8094505"><ele>196.0</ele><time>2026-04-25T09:26:08.099Z</time></trkpt><trkpt lat="45.6611085" lon="13.809674"><ele>195.66666666666666</ele><time>2026-04-25T09:26:09.082Z</time></trkpt><trkpt lat="45.6609805" lon="13.8098925"><ele>195.33333333333331</ele><time>2026-04-25T09:26:10.102Z</time></trkpt><trkpt lat="45.6608639" lon="13.8101138"><ele>195.0</ele><time>2026-04-25T09:26:11.093Z</time></trkpt><trkpt lat="45.6607612" lon="13.8103279"><ele>195.0</ele><time>2026-04-25T09:26:12.088Z</time></trkpt><trkpt lat="45.6606648" lon="13.8105402"><ele>195.0</ele><time>2026-04-25T09:26:13.102Z</time></trkpt><trkpt lat="45.660573" lon="13.8107487"><ele>195.0</ele><time>2026-04-25T09:26:14.083Z</time></trkpt><trkpt lat="45.6604832" lon="13.810951"><ele>197.0</ele><time>2026-04-25T09:26:15.086Z</time></trkpt><trkpt lat="45.660394" lon="13.8111521"><ele>199.0</ele><time>2026-04-25T09:26:16.089Z</time></trkpt><trkpt lat="45.6602983" lon="13.8113499"><ele>201.0</ele><time>2026-04-25T09:26:17.084Z</time></trkpt><trkpt lat="45.6601863" lon="13.8115481"><ele>198.0</ele><time>2026-04-25T09:26:18.086Z</time></trkpt><trkpt lat="45.6600625" lon="13.8117327"><ele>195.0</ele><time>2026-04-25T09:26:19.084Z</time></trkpt><trkpt lat="45.6599256" lon="13.8118991"><ele>192.0</ele><time>2026-04-25T09:26:20.085Z</time></trkpt><trkpt lat="45.6597839" lon="13.8120398"><ele>192.0</ele><time>2026-04-25T09:26:21.092Z</time></trkpt><trkpt lat="45.6596541" lon="13.8121466"><ele>192.0</ele><time>2026-04-25T09:26:22.081Z</time></trkpt><trkpt lat="45.6595136" lon="13.8122463"><ele>192.0</ele><time>2026-04-25T09:26:23.089Z</time></trkpt><trkpt lat="45.6593666" lon="13.8123282"><ele>188.0</ele><time>2026-04-25T09:26:24.083Z</time></trkpt><trkpt lat="45.6592208" lon="13.8124097"><ele>184.0</ele><time>2026-04-25T09:26:25.084Z</time></trkpt><trkpt lat="45.6590815" lon="13.8125132"><ele>180.0</ele><time>2026-04-25T09:26:26.079Z</time></trkpt><trkpt lat="45.658947" lon="13.8126428"><ele>186.33333333333331</ele><time>2026-04-25T09:26:27.089Z</time></trkpt><trkpt lat="45.6588279" lon="13.8127914"><ele>192.66666666666666</ele><time>2026-04-25T09:26:28.098Z</time></trkpt><trkpt lat="45.6587243" lon="13.812951"><ele>199.0</ele><time>2026-04-25T09:26:29.088Z</time></trkpt><trkpt lat="45.6586251" lon="13.8131086"><ele>196.75</ele><time>2026-04-25T09:26:30.08Z</time></trkpt><trkpt lat="45.658532" lon="13.8132534"><ele>194.5</ele><time>2026-04-25T09:26:31.084Z</time></trkpt><trkpt lat="45.6584442" lon="13.8133893"><ele>192.25</ele><time>2026-04-25T09:26:32.098Z</time></trkpt><trkpt lat="45.6583653" lon="13.8135151"><ele>190.0</ele><time>2026-04-25T09:26:33.094Z</time></trkpt><trkpt lat="45.6582907" lon="13.8136421"><ele>190.0</ele><time>2026-04-25T09:26:34.087Z</time></trkpt><trkpt lat="45.6582231" lon="13.8137479"><ele>190.0</ele><time>2026-04-25T09:26:35.092Z</time></trkpt><trkpt lat="45.6581663" lon="13.813838"><ele>190.0</ele><time>2026-04-25T09:26:36.088Z</time></trkpt><trkpt lat="45.6581048" lon="13.8138974"><ele>190.0</ele><time>2026-04-25T09:26:37.087Z</time></trkpt><trkpt lat="45.658039" lon="13.8139237"><ele>190.0</ele><time>2026-04-25T09:26:38.087Z</time></trkpt><trkpt lat="45.6579623" lon="13.8138183"><ele>190.0</ele><time>2026-04-25T09:26:40.091Z</time></trkpt><trkpt lat="45.6579503" lon="13.8137262"><ele>190.0</ele><time>2026-04-25T09:26:41.089Z</time></trkpt><trkpt lat="45.657997" lon="13.8135802"><ele>190.0</ele><time>2026-04-25T09:26:43.087Z</time></trkpt><trkpt lat="45.6580577" lon="13.8135244"><ele>190.0</ele><time>2026-04-25T09:26:44.09Z</time></trkpt><trkpt lat="45.6581348" lon="13.8134654"><ele>190.0</ele><time>2026-04-25T09:26:45.086Z</time></trkpt><trkpt lat="45.658215" lon="13.8133873"><ele>190.0</ele><time>2026-04-25T09:26:46.08Z</time></trkpt><trkpt lat="45.6583008" lon="13.8132975"><ele>192.25</ele><time>2026-04-25T09:26:47.087Z</time></trkpt><trkpt lat="45.6583951" lon="13.8131912"><ele>194.5</ele><time>2026-04-25T09:26:48.085Z</time></trkpt><trkpt lat="45.6584896" lon="13.8130667"><ele>196.75</ele><time>2026-04-25T09:26:49.094Z</time></trkpt><trkpt lat="45.6585738" lon="13.8129357"><ele>199.0</ele><time>2026-04-25T09:26:50.087Z</time></trkpt><trkpt lat="45.6586596" lon="13.8128036"><ele>199.0</ele><time>2026-04-25T09:26:51.09Z</time></trkpt><trkpt lat="45.6587444" lon="13.8126658"><ele>199.0</ele><time>2026-04-25T09:26:52.082Z</time></trkpt><trkpt lat="45.658837" lon="13.8125242"><ele>199.0</ele><time>2026-04-25T09:26:53.088Z</time></trkpt><trkpt lat="45.6589344" lon="13.8123797"><ele>199.0</ele><time>2026-04-25T09:26:54.092Z</time></trkpt><trkpt lat="45.6590351" lon="13.8122305"><ele>194.25</ele><time>2026-04-25T09:26:55.08Z</time></trkpt><trkpt lat="45.6591302" lon="13.8120896"><ele>189.5</ele><time>2026-04-25T09:26:56.085Z</time></trkpt><trkpt lat="45.6592154" lon="13.8119576"><ele>184.75</ele><time>2026-04-25T09:26:57.09Z</time></trkpt><trkpt lat="45.6592797" lon="13.811818"><ele>180.0</ele><time>2026-04-25T09:26:58.09Z</time></trkpt><trkpt lat="45.6593345" lon="13.8116788"><ele>180.6</ele><time>2026-04-25T09:26:59.087Z</time></trkpt><trkpt lat="45.6593798" lon="13.8115414"><ele>181.2</ele><time>2026-04-25T09:27:00.087Z</time></trkpt><trkpt lat="45.659434" lon="13.8113995"><ele>181.8</ele><time>2026-04-25T09:27:01.084Z</time></trkpt><trkpt lat="45.6594998" lon="13.8112659"><ele>182.4</ele><time>2026-04-25T09:27:02.09Z</time></trkpt><trkpt lat="45.6595598" lon="13.8111537"><ele>183.0</ele><time>2026-04-25T09:27:03.086Z</time></trkpt><trkpt lat="45.6596293" lon="13.8110561"><ele>179.25</ele><time>2026-04-25T09:27:04.096Z</time></trkpt><trkpt lat="45.6597089" lon="13.8109544"><ele>175.5</ele><time>2026-04-25T09:27:05.079Z</time></trkpt><trkpt lat="45.6597917" lon="13.8108438"><ele>171.75</ele><time>2026-04-25T09:27:06.093Z</time></trkpt><trkpt lat="45.6598714" lon="13.8107119"><ele>168.0</ele><time>2026-04-25T09:27:07.085Z</time></trkpt><trkpt lat="45.6599525" lon="13.8105623"><ele>168.0</ele><time>2026-04-25T09:27:08.093Z</time></trkpt><trkpt lat="45.6600289" lon="13.8104055"><ele>168.0</ele><time>2026-04-25T09:27:09.087Z</time></trkpt><trkpt lat="45.6600946" lon="13.8102292"><ele>168.0</ele><time>2026-04-25T09:27:10.083Z</time></trkpt><trkpt lat="45.6601519" lon="13.8100484"><ele>168.0</ele><time>2026-04-25T09:27:11.093Z</time></trkpt><trkpt lat="45.6601966" lon="13.8098683"><ele>167.5</ele><time>2026-04-25T09:27:12.093Z</time></trkpt><trkpt lat="45.6602345" lon="13.8096909"><ele>167.0</ele><time>2026-04-25T09:27:13.091Z</time></trkpt><trkpt lat="45.6602662" lon="13.8095302"><ele>166.5</ele><time>2026-04-25T09:27:14.077Z</time></trkpt><trkpt lat="45.6602981" lon="13.8093799"><ele>166.0</ele><time>2026-04-25T09:27:15.085Z</time></trkpt><trkpt lat="45.6603402" lon="13.8092291"><ele>166.0</ele><time>2026-04-25T09:27:16.096Z</time></trkpt><trkpt lat="45.6603956" lon="13.8090774"><ele>166.0</ele><time>2026-04-25T09:27:17.089Z</time></trkpt><trkpt lat="45.6604596" lon="13.808931"><ele>166.0</ele><time>2026-04-25T09:27:18.087Z</time></trkpt><trkpt lat="45.6605222" lon="13.808802"><ele>166.0</ele><time>2026-04-25T09:27:19.086Z</time></trkpt><trkpt lat="45.6605831" lon="13.8086805"><ele>166.0</ele><time>2026-04-25T09:27:20.079Z</time></trkpt><trkpt lat="45.6606501" lon="13.8085577"><ele>166.0</ele><time>2026-04-25T09:27:21.087Z</time></trkpt><trkpt lat="45.6607216" lon="13.8084379"><ele>166.0</ele><time>2026-04-25T09:27:22.087Z</time></trkpt><trkpt lat="45.6607866" lon="13.8083289"><ele>166.0</ele><time>2026-04-25T09:27:23.082Z</time></trkpt><trkpt lat="45.6608537" lon="13.8082307"><ele>166.0</ele><time>2026-04-25T09:27:24.09Z</time></trkpt><trkpt lat="45.6609232" lon="13.8081304"><ele>166.25</ele><time>2026-04-25T09:27:25.083Z</time></trkpt><trkpt lat="45.6609989" lon="13.8080174"><ele>166.5</ele><time>2026-04-25T09:27:26.079Z</time></trkpt><trkpt lat="45.661082" lon="13.8078942"><ele>166.75</ele><time>2026-04-25T09:27:27.076Z</time></trkpt><trkpt lat="45.6611623" lon="13.8077693"><ele>167.0</ele><time>2026-04-25T09:27:28.078Z</time></trkpt><trkpt lat="45.6612308" lon="13.8076449"><ele>167.0</ele><time>2026-04-25T09:27:29.087Z</time></trkpt><trkpt lat="45.6612936" lon="13.807513"><ele>167.0</ele><time>2026-04-25T09:27:30.093Z</time></trkpt><trkpt lat="45.6613591" lon="13.8073851"><ele>167.0</ele><time>2026-04-25T09:27:31.085Z</time></trkpt><trkpt lat="45.6614324" lon="13.8072397"><ele>167.0</ele><time>2026-04-25T09:27:32.082Z</time></trkpt><trkpt lat="45.6615099" lon="13.807086"><ele>167.0</ele><time>2026-04-25T09:27:33.099Z</time></trkpt><trkpt lat="45.6615799" lon="13.8069257"><ele>167.0</ele><time>2026-04-25T09:27:34.08Z</time></trkpt><trkpt lat="45.6616358" lon="13.8067743"><ele>167.0</ele><time>2026-04-25T09:27:35.087Z</time></trkpt><trkpt lat="45.6616711" lon="13.8066093"><ele>167.0</ele><time>2026-04-25T09:27:36.085Z</time></trkpt><trkpt lat="45.6617039" lon="13.8064272"><ele>163.5</ele><time>2026-04-25T09:27:37.083Z</time></trkpt><trkpt lat="45.6617351" lon="13.8062465"><ele>160.0</ele><time>2026-04-25T09:27:38.083Z</time></trkpt><trkpt lat="45.6617604" lon="13.8060642"><ele>156.5</ele><time>2026-04-25T09:27:39.087Z</time></trkpt><trkpt lat="45.6617862" lon="13.8059045"><ele>153.0</ele><time>2026-04-25T09:27:40.092Z</time></trkpt><trkpt lat="45.6618217" lon="13.8057398"><ele>154.5</ele><time>2026-04-25T09:27:41.095Z</time></trkpt><trkpt lat="45.6618507" lon="13.8055737"><ele>156.0</ele><time>2026-04-25T09:27:42.079Z</time></trkpt><trkpt lat="45.6618865" lon="13.8054169"><ele>157.5</ele><time>2026-04-25T09:27:43.088Z</time></trkpt><trkpt lat="45.6619321" lon="13.8052515"><ele>159.0</ele><time>2026-04-25T09:27:44.084Z</time></trkpt><trkpt lat="45.6619903" lon="13.8050807"><ele>159.0</ele><time>2026-04-25T09:27:45.081Z</time></trkpt><trkpt lat="45.6620696" lon="13.8049211"><ele>159.0</ele><time>2026-04-25T09:27:46.09Z</time></trkpt><trkpt lat="45.6621649" lon="13.804752"><ele>159.0</ele><time>2026-04-25T09:27:47.092Z</time></trkpt><trkpt lat="45.6622643" lon="13.8045794"><ele>159.0</ele><time>2026-04-25T09:27:48.081Z</time></trkpt><trkpt lat="45.6623577" lon="13.8044055"><ele>154.0</ele><time>2026-04-25T09:27:49.088Z</time></trkpt><trkpt lat="45.6624453" lon="13.804243"><ele>149.0</ele><time>2026-04-25T09:27:50.086Z</time></trkpt><trkpt lat="45.6625293" lon="13.8041028"><ele>144.0</ele><time>2026-04-25T09:27:51.088Z</time></trkpt><trkpt lat="45.6626059" lon="13.8039703"><ele>139.0</ele><time>2026-04-25T09:27:52.085Z</time></trkpt><trkpt lat="45.6626862" lon="13.8038512"><ele>139.0</ele><time>2026-04-25T09:27:53.081Z</time></trkpt><trkpt lat="45.662767" lon="13.8037567"><ele>139.0</ele><time>2026-04-25T09:27:54.085Z</time></trkpt><trkpt lat="45.6628575" lon="13.8036793"><ele>139.0</ele><time>2026-04-25T09:27:55.087Z</time></trkpt><trkpt lat="45.6629624" lon="13.8036304"><ele>139.0</ele><time>2026-04-25T09:27:56.081Z</time></trkpt><trkpt lat="45.6630674" lon="13.8035803"><ele>139.0</ele><time>2026-04-25T09:27:57.079Z</time></trkpt><trkpt lat="45.6631486" lon="13.8035257"><ele>139.5</ele><time>2026-04-25T09:27:58.082Z</time></trkpt><trkpt lat="45.6632208" lon="13.8034634"><ele>140.0</ele><time>2026-04-25T09:27:59.077Z</time></trkpt><trkpt lat="45.6632896" lon="13.8033943"><ele>140.5</ele><time>2026-04-25T09:28:00.084Z</time></trkpt><trkpt lat="45.6633458" lon="13.8033036"><ele>141.0</ele><time>2026-04-25T09:28:01.082Z</time></trkpt><trkpt lat="45.6634052" lon="13.8032074"><ele>141.5</ele><time>2026-04-25T09:28:02.088Z</time></trkpt><trkpt lat="45.6634563" lon="13.8031083"><ele>142.0</ele><time>2026-04-25T09:28:03.082Z</time></trkpt><trkpt lat="45.6634802" lon="13.8030033"><ele>142.0</ele><time>2026-04-25T09:28:04.081Z</time></trkpt><trkpt lat="45.6634838" lon="13.8029013"><ele>142.0</ele><time>2026-04-25T09:28:05.083Z</time></trkpt><trkpt lat="45.663465" lon="13.802797"><ele>142.0</ele><time>2026-04-25T09:28:06.082Z</time></trkpt><trkpt lat="45.66342" lon="13.8026993"><ele>142.0</ele><time>2026-04-25T09:28:07.08Z</time></trkpt><trkpt lat="45.6633437" lon="13.8025842"><ele>142.0</ele><time>2026-04-25T09:28:08.096Z</time></trkpt><trkpt lat="45.6632559" lon="13.8024847"><ele>141.6</ele><time>2026-04-25T09:28:09.086Z</time></trkpt><trkpt lat="45.6631851" lon="13.8023841"><ele>141.2</ele><time>2026-04-25T09:28:10.08Z</time></trkpt><trkpt lat="45.6631261" lon="13.8022751"><ele>140.8</ele><time>2026-04-25T09:28:11.088Z</time></trkpt><trkpt lat="45.6630957" lon="13.8021369"><ele>140.4</ele><time>2026-04-25T09:28:12.083Z</time></trkpt><trkpt lat="45.6630662" lon="13.8019715"><ele>140.0</ele><time>2026-04-25T09:28:13.085Z</time></trkpt><trkpt lat="45.6630571" lon="13.8017821"><ele>140.0</ele><time>2026-04-25T09:28:14.084Z</time></trkpt><trkpt lat="45.6630555" lon="13.8015928"><ele>140.0</ele><time>2026-04-25T09:28:15.081Z</time></trkpt><trkpt lat="45.6630503" lon="13.8013948"><ele>140.0</ele><time>2026-04-25T09:28:16.082Z</time></trkpt><trkpt lat="45.6630323" lon="13.8012205"><ele>140.0</ele><time>2026-04-25T09:28:17.092Z</time></trkpt><trkpt lat="45.6630078" lon="13.8010604"><ele>139.4</ele><time>2026-04-25T09:28:18.079Z</time></trkpt><trkpt lat="45.6629731" lon="13.8009057"><ele>138.8</ele><time>2026-04-25T09:28:19.086Z</time></trkpt><trkpt lat="45.6629282" lon="13.8007648"><ele>138.2</ele><time>2026-04-25T09:28:20.095Z</time></trkpt><trkpt lat="45.6628663" lon="13.8006577"><ele>137.6</ele><time>2026-04-25T09:28:21.085Z</time></trkpt><trkpt lat="45.6627841" lon="13.8005801"><ele>137.0</ele><time>2026-04-25T09:28:22.094Z</time></trkpt><trkpt lat="45.6626948" lon="13.8005275"><ele>135.0</ele><time>2026-04-25T09:28:23.082Z</time></trkpt><trkpt lat="45.6625858" lon="13.8005157"><ele>133.0</ele><time>2026-04-25T09:28:24.087Z</time></trkpt><trkpt lat="45.6624659" lon="13.8005263"><ele>131.0</ele><time>2026-04-25T09:28:25.084Z</time></trkpt><trkpt lat="45.6623308" lon="13.8005374"><ele>129.0</ele><time>2026-04-25T09:28:26.075Z</time></trkpt><trkpt lat="45.6621951" lon="13.800552"><ele>129.0</ele><time>2026-04-25T09:28:27.09Z</time></trkpt><trkpt lat="45.662068" lon="13.8005585"><ele>129.0</ele><time>2026-04-25T09:28:28.079Z</time></trkpt><trkpt lat="45.6619585" lon="13.8005655"><ele>129.0</ele><time>2026-04-25T09:28:29.085Z</time></trkpt><trkpt lat="45.6618502" lon="13.8005504"><ele>129.0</ele><time>2026-04-25T09:28:30.089Z</time></trkpt><trkpt lat="45.6617373" lon="13.8005067"><ele>129.0</ele><time>2026-04-25T09:28:31.093Z</time></trkpt><trkpt lat="45.6616279" lon="13.8004269"><ele>129.0</ele><time>2026-04-25T09:28:32.085Z</time></trkpt><trkpt lat="45.6615256" lon="13.8003207"><ele>129.0</ele><time>2026-04-25T09:28:33.089Z</time></trkpt><trkpt lat="45.6614187" lon="13.8002012"><ele>129.0</ele><time>2026-04-25T09:28:34.099Z</time></trkpt><trkpt lat="45.6613258" lon="13.8000748"><ele>129.0</ele><time>2026-04-25T09:28:35.094Z</time></trkpt><trkpt lat="45.6612526" lon="13.799965"><ele>129.0</ele><time>2026-04-25T09:28:36.086Z</time></trkpt><trkpt lat="45.6611784" lon="13.7998491"><ele>129.0</ele><time>2026-04-25T09:28:37.086Z</time></trkpt><trkpt lat="45.6611103" lon="13.7997427"><ele>129.0</ele><time>2026-04-25T09:28:38.09Z</time></trkpt><trkpt lat="45.6610333" lon="13.7996363"><ele>129.0</ele><time>2026-04-25T09:28:39.088Z</time></trkpt><trkpt lat="45.6609516" lon="13.7995195"><ele>127.4</ele><time>2026-04-25T09:28:40.089Z</time></trkpt><trkpt lat="45.6608753" lon="13.7994076"><ele>125.80000000000001</ele><time>2026-04-25T09:28:41.091Z</time></trkpt><trkpt lat="45.6608046" lon="13.7992975"><ele>124.19999999999999</ele><time>2026-04-25T09:28:42.09Z</time></trkpt><trkpt lat="45.660729" lon="13.7991891"><ele>122.6</ele><time>2026-04-25T09:28:43.088Z</time></trkpt><trkpt lat="45.6606588" lon="13.7990891"><ele>121.0</ele><time>2026-04-25T09:28:44.081Z</time></trkpt><trkpt lat="45.6605858" lon="13.7989847"><ele>121.0</ele><time>2026-04-25T09:28:45.084Z</time></trkpt><trkpt lat="45.6605105" lon="13.7988683"><ele>121.0</ele><time>2026-04-25T09:28:46.089Z</time></trkpt><trkpt lat="45.6604497" lon="13.7987561"><ele>121.0</ele><time>2026-04-25T09:28:47.097Z</time></trkpt><trkpt lat="45.6603945" lon="13.798655"><ele>121.0</ele><time>2026-04-25T09:28:48.088Z</time></trkpt><trkpt lat="45.6603374" lon="13.7985516"><ele>121.0</ele><time>2026-04-25T09:28:49.088Z</time></trkpt><trkpt lat="45.6602831" lon="13.7984513"><ele>118.66666666666667</ele><time>2026-04-25T09:28:50.093Z</time></trkpt><trkpt lat="45.6602324" lon="13.798361"><ele>116.33333333333334</ele><time>2026-04-25T09:28:51.09Z</time></trkpt><trkpt lat="45.6601781" lon="13.7982772"><ele>114.0</ele><time>2026-04-25T09:28:52.091Z</time></trkpt><trkpt lat="45.6601307" lon="13.7981934"><ele>111.66666666666666</ele><time>2026-04-25T09:28:53.086Z</time></trkpt><trkpt lat="45.6600812" lon="13.7981105"><ele>109.33333333333333</ele><time>2026-04-25T09:28:54.095Z</time></trkpt><trkpt lat="45.6600314" lon="13.7980305"><ele>107.0</ele><time>2026-04-25T09:28:55.1Z</time></trkpt><trkpt lat="45.6599913" lon="13.7979535"><ele>106.99999999999999</ele><time>2026-04-25T09:28:56.097Z</time></trkpt><trkpt lat="45.6599518" lon="13.7978796"><ele>107.0</ele><time>2026-04-25T09:28:57.093Z</time></trkpt><trkpt lat="45.6598823" lon="13.797756"><ele>107.0</ele><time>2026-04-25T09:28:59.097Z</time></trkpt><trkpt lat="45.6598248" lon="13.7976692"><ele>107.0</ele><time>2026-04-25T09:29:01.104Z</time></trkpt><trkpt lat="45.65973" lon="13.7976371"><ele>106.99999999999999</ele><time>2026-04-25T09:29:11.103Z</time></trkpt><trkpt lat="45.6596458" lon="13.7976378"><ele>107.0</ele><time>2026-04-25T09:29:13.11Z</time></trkpt><trkpt lat="45.6595648" lon="13.7975152"><ele>108.33333333333333</ele><time>2026-04-25T09:29:15.104Z</time></trkpt><trkpt lat="45.6595179" lon="13.7974357"><ele>109.66666666666666</ele><time>2026-04-25T09:29:16.115Z</time></trkpt><trkpt lat="45.6594555" lon="13.7973594"><ele>111.0</ele><time>2026-04-25T09:29:17.103Z</time></trkpt><trkpt lat="45.6593925" lon="13.797264"><ele>112.33333333333334</ele><time>2026-04-25T09:29:18.098Z</time></trkpt><trkpt lat="45.6593327" lon="13.7971828"><ele>113.66666666666667</ele><time>2026-04-25T09:29:19.108Z</time></trkpt><trkpt lat="45.6592708" lon="13.7970971"><ele>115.0</ele><time>2026-04-25T09:29:20.099Z</time></trkpt><trkpt lat="45.6592015" lon="13.7970015"><ele>113.2</ele><time>2026-04-25T09:29:21.1Z</time></trkpt><trkpt lat="45.6591267" lon="13.7968889"><ele>111.4</ele><time>2026-04-25T09:29:22.105Z</time></trkpt><trkpt lat="45.6590445" lon="13.7967824"><ele>109.6</ele><time>2026-04-25T09:29:23.094Z</time></trkpt><trkpt lat="45.6589729" lon="13.7966787"><ele>107.8</ele><time>2026-04-25T09:29:24.092Z</time></trkpt><trkpt lat="45.6589187" lon="13.7965781"><ele>106.0</ele><time>2026-04-25T09:29:25.1Z</time></trkpt><trkpt lat="45.6588614" lon="13.796486"><ele>106.00000000000001</ele><time>2026-04-25T09:29:26.097Z</time></trkpt><trkpt lat="45.6588011" lon="13.7964092"><ele>106.0</ele><time>2026-04-25T09:29:27.093Z</time></trkpt><trkpt lat="45.6587481" lon="13.7963253"><ele>106.0</ele><time>2026-04-25T09:29:28.092Z</time></trkpt><trkpt lat="45.658694" lon="13.7962404"><ele>106.0</ele><time>2026-04-25T09:29:29.098Z</time></trkpt><trkpt lat="45.6586378" lon="13.7961606"><ele>106.00000000000001</ele><time>2026-04-25T09:29:30.097Z</time></trkpt><trkpt lat="45.6585772" lon="13.7960988"><ele>106.0</ele><time>2026-04-25T09:29:31.09Z</time></trkpt><trkpt lat="45.6585126" lon="13.7960343"><ele>104.0</ele><time>2026-04-25T09:29:32.1Z</time></trkpt><trkpt lat="45.6584419" lon="13.7959602"><ele>102.0</ele><time>2026-04-25T09:29:33.098Z</time></trkpt><trkpt lat="45.6583758" lon="13.7958593"><ele>100.0</ele><time>2026-04-25T09:29:34.108Z</time></trkpt><trkpt lat="45.6583136" lon="13.7957309"><ele>98.0</ele><time>2026-04-25T09:29:35.104Z</time></trkpt><trkpt lat="45.6582559" lon="13.7956099"><ele>96.0</ele><time>2026-04-25T09:29:36.101Z</time></trkpt><trkpt lat="45.6582036" lon="13.795494"><ele>96.0</ele><time>2026-04-25T09:29:37.096Z</time></trkpt><trkpt lat="45.658155" lon="13.7953834"><ele>96.0</ele><time>2026-04-25T09:29:38.094Z</time></trkpt><trkpt lat="45.6581165" lon="13.7952779"><ele>96.0</ele><time>2026-04-25T09:29:39.096Z</time></trkpt><trkpt lat="45.6580812" lon="13.7951794"><ele>96.0</ele><time>2026-04-25T09:29:40.096Z</time></trkpt><trkpt lat="45.6580378" lon="13.7951021"><ele>96.0</ele><time>2026-04-25T09:29:41.1Z</time></trkpt><trkpt lat="45.6579419" lon="13.7950061"><ele>96.0</ele><time>2026-04-25T09:29:43.101Z</time></trkpt><trkpt lat="45.6578489" lon="13.7949659"><ele>93.6</ele><time>2026-04-25T09:29:45.096Z</time></trkpt><trkpt lat="45.6577728" lon="13.7949296"><ele>91.19999999999999</ele><time>2026-04-25T09:29:47.104Z</time></trkpt><trkpt lat="45.6576839" lon="13.7948866"><ele>88.80000000000001</ele><time>2026-04-25T09:29:49.107Z</time></trkpt><trkpt lat="45.6576194" lon="13.7948639"><ele>86.4</ele><time>2026-04-25T09:29:50.096Z</time></trkpt><trkpt lat="45.6574881" lon="13.7948052"><ele>84.0</ele><time>2026-04-25T09:29:52.102Z</time></trkpt><trkpt lat="45.6574066" lon="13.7947539"><ele>84.0</ele><time>2026-04-25T09:29:53.098Z</time></trkpt><trkpt lat="45.6573338" lon="13.7947098"><ele>84.0</ele><time>2026-04-25T09:29:54.112Z</time></trkpt><trkpt lat="45.65726" lon="13.7946751"><ele>84.0</ele><time>2026-04-25T09:29:55.09Z</time></trkpt><trkpt lat="45.6571911" lon="13.7946482"><ele>84.0</ele><time>2026-04-25T09:29:56.105Z</time></trkpt><trkpt lat="45.657076" lon="13.7946058"><ele>84.0</ele><time>2026-04-25T09:29:58.103Z</time></trkpt><trkpt lat="45.6569497" lon="13.7945605"><ele>80.83333333333333</ele><time>2026-04-25T09:30:00.098Z</time></trkpt><trkpt lat="45.6568825" lon="13.7945413"><ele>77.66666666666667</ele><time>2026-04-25T09:30:01.085Z</time></trkpt><trkpt lat="45.656764" lon="13.7945361"><ele>74.5</ele><time>2026-04-25T09:30:03.092Z</time></trkpt><trkpt lat="45.6566614" lon="13.7945878"><ele>71.33333333333334</ele><time>2026-04-25T09:30:05.081Z</time></trkpt><trkpt lat="45.6565945" lon="13.7946328"><ele>68.16666666666667</ele><time>2026-04-25T09:30:06.089Z</time></trkpt><trkpt lat="45.6565339" lon="13.7946839"><ele>65.0</ele><time>2026-04-25T09:30:07.109Z</time></trkpt><trkpt lat="45.6564789" lon="13.794743"><ele>65.0</ele><time>2026-04-25T09:30:08.091Z</time></trkpt><trkpt lat="45.6564266" lon="13.7947963"><ele>65.0</ele><time>2026-04-25T09:30:09.08Z</time></trkpt><trkpt lat="45.6563391" lon="13.794889"><ele>65.0</ele><time>2026-04-25T09:30:11.095Z</time></trkpt><trkpt lat="45.6562522" lon="13.7949254"><ele>65.0</ele><time>2026-04-25T09:30:13.085Z</time></trkpt><trkpt lat="45.6561329" lon="13.7949047"><ele>65.0</ele><time>2026-04-25T09:30:15.101Z</time></trkpt><trkpt lat="45.6560579" lon="13.7948003"><ele>60.75</ele><time>2026-04-25T09:30:17.086Z</time></trkpt><trkpt lat="45.6559766" lon="13.7946736"><ele>56.5</ele><time>2026-04-25T09:30:19.091Z</time></trkpt><trkpt lat="45.655885" lon="13.7945529"><ele>52.25</ele><time>2026-04-25T09:30:21.088Z</time></trkpt><trkpt lat="45.6557991" lon="13.7944503"><ele>48.0</ele><time>2026-04-25T09:30:23.077Z</time></trkpt><trkpt lat="45.6557422" lon="13.794331"><ele>47.4</ele><time>2026-04-25T09:30:25.084Z</time></trkpt><trkpt lat="45.6556807" lon="13.7942245"><ele>46.8</ele><time>2026-04-25T09:30:27.077Z</time></trkpt><trkpt lat="45.6556219" lon="13.7941117"><ele>46.2</ele><time>2026-04-25T09:30:29.069Z</time></trkpt><trkpt lat="45.6555982" lon="13.7939836"><ele>45.6</ele><time>2026-04-25T09:30:31.073Z</time></trkpt><trkpt lat="45.655588" lon="13.7938455"><ele>45.0</ele><time>2026-04-25T09:30:33.08Z</time></trkpt><trkpt lat="45.6555713" lon="13.7937116"><ele>45.0</ele><time>2026-04-25T09:30:35.081Z</time></trkpt><trkpt lat="45.6555528" lon="13.7936173"><ele>45.0</ele><time>2026-04-25T09:30:37.083Z</time></trkpt><trkpt lat="45.6555135" lon="13.7935231"><ele>45.0</ele><time>2026-04-25T09:30:40.08Z</time></trkpt><trkpt lat="45.6554414" lon="13.7934007"><ele>45.0</ele><time>2026-04-25T09:30:43.084Z</time></trkpt><trkpt lat="45.655409" lon="13.7933064"><ele>45.0</ele><time>2026-04-25T09:30:44.079Z</time></trkpt><trkpt lat="45.6553865" lon="13.7931973"><ele>45.0</ele><time>2026-04-25T09:30:45.078Z</time></trkpt><trkpt lat="45.6553707" lon="13.7930928"><ele>45.5</ele><time>2026-04-25T09:30:46.078Z</time></trkpt><trkpt lat="45.6553489" lon="13.7929542"><ele>46.0</ele><time>2026-04-25T09:30:48.075Z</time></trkpt><trkpt lat="45.6553231" lon="13.7927407"><ele>46.5</ele><time>2026-04-25T09:30:50.077Z</time></trkpt><trkpt lat="45.6552898" lon="13.7925812"><ele>47.0</ele><time>2026-04-25T09:30:51.084Z</time></trkpt><trkpt lat="45.6552624" lon="13.7924271"><ele>45.75</ele><time>2026-04-25T09:30:52.083Z</time></trkpt><trkpt lat="45.6552356" lon="13.7922793"><ele>44.5</ele><time>2026-04-25T09:30:53.067Z</time></trkpt><trkpt lat="45.6552067" lon="13.7921208"><ele>43.25</ele><time>2026-04-25T09:30:54.073Z</time></trkpt><trkpt lat="45.6551744" lon="13.7919603"><ele>42.0</ele><time>2026-04-25T09:30:55.072Z</time></trkpt><trkpt lat="45.6551473" lon="13.791784"><ele>40.75</ele><time>2026-04-25T09:30:56.092Z</time></trkpt><trkpt lat="45.6551156" lon="13.7916163"><ele>39.5</ele><time>2026-04-25T09:30:57.067Z</time></trkpt><trkpt lat="45.6550762" lon="13.7914607"><ele>38.25</ele><time>2026-04-25T09:30:58.076Z</time></trkpt><trkpt lat="45.655042" lon="13.791308"><ele>37.0</ele><time>2026-04-25T09:30:59.089Z</time></trkpt><trkpt lat="45.6549974" lon="13.7911576"><ele>37.0</ele><time>2026-04-25T09:31:00.069Z</time></trkpt><trkpt lat="45.6549654" lon="13.7910084"><ele>37.0</ele><time>2026-04-25T09:31:01.073Z</time></trkpt><trkpt lat="45.6549312" lon="13.790879"><ele>37.0</ele><time>2026-04-25T09:31:02.076Z</time></trkpt><trkpt lat="45.6549055" lon="13.7907471"><ele>37.0</ele><time>2026-04-25T09:31:03.072Z</time></trkpt><trkpt lat="45.6548722" lon="13.7906006"><ele>37.0</ele><time>2026-04-25T09:31:04.094Z</time></trkpt><trkpt lat="45.6548482" lon="13.790461"><ele>36.333333333333336</ele><time>2026-04-25T09:31:05.075Z</time></trkpt><trkpt lat="45.6548244" lon="13.7903366"><ele>35.66666666666667</ele><time>2026-04-25T09:31:06.086Z</time></trkpt><trkpt lat="45.6548006" lon="13.7902128"><ele>35.0</ele><time>2026-04-25T09:31:07.087Z</time></trkpt><trkpt lat="45.6547806" lon="13.7901034"><ele>34.333333333333336</ele><time>2026-04-25T09:31:08.081Z</time></trkpt><trkpt lat="45.6547619" lon="13.7899982"><ele>33.666666666666664</ele><time>2026-04-25T09:31:09.094Z</time></trkpt><trkpt lat="45.6547388" lon="13.7899127"><ele>33.0</ele><time>2026-04-25T09:31:10.097Z</time></trkpt><trkpt lat="45.6547076" lon="13.7897606"><ele>32.8</ele><time>2026-04-25T09:31:12.091Z</time></trkpt><trkpt lat="45.6546911" lon="13.7895892"><ele>32.599999999999994</ele><time>2026-04-25T09:31:14.087Z</time></trkpt><trkpt lat="45.6546819" lon="13.7894344"><ele>32.400000000000006</ele><time>2026-04-25T09:31:16.115Z</time></trkpt><trkpt lat="45.6546121" lon="13.7893578"><ele>32.2</ele><time>2026-04-25T09:31:18.088Z</time></trkpt><trkpt lat="45.6545475" lon="13.7894239"><ele>32.0</ele><time>2026-04-25T09:31:20.1Z</time></trkpt><trkpt lat="45.6545454" lon="13.7895546"><ele>32.0</ele><time>2026-04-25T09:31:22.093Z</time></trkpt><trkpt lat="45.6545732" lon="13.7896533"><ele>32.0</ele><time>2026-04-25T09:31:23.088Z</time></trkpt><trkpt lat="45.6546094" lon="13.7897851"><ele>32.0</ele><time>2026-04-25T09:31:24.084Z</time></trkpt><trkpt lat="45.6546502" lon="13.7899422"><ele>32.0</ele><time>2026-04-25T09:31:25.092Z</time></trkpt><trkpt lat="45.6546865" lon="13.790102"><ele>32.0</ele><time>2026-04-25T09:31:26.094Z</time></trkpt><trkpt lat="45.6547177" lon="13.7902715"><ele>32.25</ele><time>2026-04-25T09:31:27.096Z</time></trkpt><trkpt lat="45.6547487" lon="13.7904352"><ele>32.5</ele><time>2026-04-25T09:31:28.085Z</time></trkpt><trkpt lat="45.6547794" lon="13.7905989"><ele>32.75</ele><time>2026-04-25T09:31:29.088Z</time></trkpt><trkpt lat="45.6548234" lon="13.7907524"><ele>33.0</ele><time>2026-04-25T09:31:30.091Z</time></trkpt><trkpt lat="45.6548647" lon="13.7909093"><ele>34.0</ele><time>2026-04-25T09:31:31.089Z</time></trkpt><trkpt lat="45.6549028" lon="13.7910738"><ele>35.0</ele><time>2026-04-25T09:31:32.075Z</time></trkpt><trkpt lat="45.6549393" lon="13.7912314"><ele>36.0</ele><time>2026-04-25T09:31:33.081Z</time></trkpt><trkpt lat="45.6549817" lon="13.7913859"><ele>37.0</ele><time>2026-04-25T09:31:34.086Z</time></trkpt><trkpt lat="45.6550215" lon="13.7915475"><ele>37.0</ele><time>2026-04-25T09:31:35.08Z</time></trkpt><trkpt lat="45.6550628" lon="13.7917157"><ele>37.0</ele><time>2026-04-25T09:31:36.076Z</time></trkpt><trkpt lat="45.6550967" lon="13.7918895"><ele>37.0</ele><time>2026-04-25T09:31:37.088Z</time></trkpt><trkpt lat="45.655131" lon="13.7920801"><ele>37.0</ele><time>2026-04-25T09:31:38.079Z</time></trkpt><trkpt lat="45.6551656" lon="13.7922651"><ele>38.25</ele><time>2026-04-25T09:31:39.083Z</time></trkpt><trkpt lat="45.6551956" lon="13.7924453"><ele>39.5</ele><time>2026-04-25T09:31:40.097Z</time></trkpt><trkpt lat="45.6552248" lon="13.7926167"><ele>40.75</ele><time>2026-04-25T09:31:41.076Z</time></trkpt><trkpt lat="45.6552514" lon="13.7927835"><ele>42.0</ele><time>2026-04-25T09:31:42.092Z</time></trkpt><trkpt lat="45.6552825" lon="13.7929558"><ele>42.75</ele><time>2026-04-25T09:31:43.079Z</time></trkpt><trkpt lat="45.6553157" lon="13.7931346"><ele>43.5</ele><time>2026-04-25T09:31:44.086Z</time></trkpt><trkpt lat="45.6553499" lon="13.7933226"><ele>44.25</ele><time>2026-04-25T09:31:45.079Z</time></trkpt><trkpt lat="45.6553824" lon="13.7935019"><ele>45.0</ele><time>2026-04-25T09:31:46.085Z</time></trkpt><trkpt lat="45.6554171" lon="13.7936598"><ele>45.0</ele><time>2026-04-25T09:31:47.078Z</time></trkpt><trkpt lat="45.6554487" lon="13.7938255"><ele>45.0</ele><time>2026-04-25T09:31:48.084Z</time></trkpt><trkpt lat="45.6554718" lon="13.7939966"><ele>45.0</ele><time>2026-04-25T09:31:49.074Z</time></trkpt><trkpt lat="45.6554825" lon="13.7941654"><ele>45.0</ele><time>2026-04-25T09:31:50.087Z</time></trkpt><trkpt lat="45.6554727" lon="13.7943278"><ele>45.6</ele><time>2026-04-25T09:31:51.082Z</time></trkpt><trkpt lat="45.6554553" lon="13.79449"><ele>46.2</ele><time>2026-04-25T09:31:52.082Z</time></trkpt><trkpt lat="45.6554374" lon="13.7946163"><ele>46.8</ele><time>2026-04-25T09:31:53.082Z</time></trkpt><trkpt lat="45.6554321" lon="13.7947298"><ele>47.4</ele><time>2026-04-25T09:31:54.088Z</time></trkpt><trkpt lat="45.6554203" lon="13.7948767"><ele>48.0</ele><time>2026-04-25T09:31:56.083Z</time></trkpt><trkpt lat="45.6554211" lon="13.7950083"><ele>48.0</ele><time>2026-04-25T09:31:58.089Z</time></trkpt><trkpt lat="45.6554027" lon="13.7951003"><ele>48.0</ele><time>2026-04-25T09:31:59.082Z</time></trkpt><trkpt lat="45.6553909" lon="13.7952294"><ele>48.0</ele><time>2026-04-25T09:32:00.084Z</time></trkpt><trkpt lat="45.6553793" lon="13.7953734"><ele>48.0</ele><time>2026-04-25T09:32:01.091Z</time></trkpt><trkpt lat="45.6553747" lon="13.7955091"><ele>48.0</ele><time>2026-04-25T09:32:02.073Z</time></trkpt><trkpt lat="45.6553713" lon="13.7956216"><ele>48.0</ele><time>2026-04-25T09:32:03.084Z</time></trkpt><trkpt lat="45.6553688" lon="13.7957349"><ele>48.166666666666664</ele><time>2026-04-25T09:32:04.098Z</time></trkpt><trkpt lat="45.6553606" lon="13.7958414"><ele>48.33333333333333</ele><time>2026-04-25T09:32:05.094Z</time></trkpt><trkpt lat="45.6553456" lon="13.7959995"><ele>48.5</ele><time>2026-04-25T09:32:07.1Z</time></trkpt><trkpt lat="45.6553376" lon="13.796103"><ele>48.666666666666664</ele><time>2026-04-25T09:32:09.1Z</time></trkpt><trkpt lat="45.6553207" lon="13.7961971"><ele>48.83333333333333</ele><time>2026-04-25T09:32:14.092Z</time></trkpt><trkpt lat="45.6553036" lon="13.7962886"><ele>49.0</ele><time>2026-04-25T09:32:15.112Z</time></trkpt><trkpt lat="45.6553014" lon="13.7964177"><ele>49.0</ele><time>2026-04-25T09:32:16.096Z</time></trkpt><trkpt lat="45.6552924" lon="13.7965583"><ele>49.0</ele><time>2026-04-25T09:32:17.087Z</time></trkpt><trkpt lat="45.6552653" lon="13.7967029"><ele>49.0</ele><time>2026-04-25T09:32:18.094Z</time></trkpt><trkpt lat="45.6552055" lon="13.7968556"><ele>49.0</ele><time>2026-04-25T09:32:19.095Z</time></trkpt><trkpt lat="45.6551226" lon="13.7970133"><ele>48.800000000000004</ele><time>2026-04-25T09:32:20.084Z</time></trkpt><trkpt lat="45.6550523" lon="13.7971604"><ele>48.6</ele><time>2026-04-25T09:32:21.09Z</time></trkpt><trkpt lat="45.6549873" lon="13.7972885"><ele>48.4</ele><time>2026-04-25T09:32:22.101Z</time></trkpt><trkpt lat="45.6549273" lon="13.7974074"><ele>48.2</ele><time>2026-04-25T09:32:23.09Z</time></trkpt><trkpt lat="45.6548683" lon="13.7975211"><ele>48.0</ele><time>2026-04-25T09:32:24.082Z</time></trkpt><trkpt lat="45.6548102" lon="13.7976408"><ele>48.333333333333336</ele><time>2026-04-25T09:32:25.089Z</time></trkpt><trkpt lat="45.6547536" lon="13.7977511"><ele>48.66666666666667</ele><time>2026-04-25T09:32:26.085Z</time></trkpt><trkpt lat="45.6547112" lon="13.7978531"><ele>49.0</ele><time>2026-04-25T09:32:27.081Z</time></trkpt><trkpt lat="45.6546728" lon="13.7979605"><ele>49.333333333333336</ele><time>2026-04-25T09:32:28.088Z</time></trkpt><trkpt lat="45.6546419" lon="13.7980685"><ele>49.66666666666667</ele><time>2026-04-25T09:32:29.09Z</time></trkpt><trkpt lat="45.6546229" lon="13.7981846"><ele>50.0</ele><time>2026-04-25T09:32:30.089Z</time></trkpt><trkpt lat="45.6546314" lon="13.7983159"><ele>50.00000000000001</ele><time>2026-04-25T09:32:31.08Z</time></trkpt><trkpt lat="45.654645" lon="13.7984238"><ele>50.0</ele><time>2026-04-25T09:32:32.081Z</time></trkpt><trkpt lat="45.6546625" lon="13.7985174"><ele>50.0</ele><time>2026-04-25T09:32:33.097Z</time></trkpt><trkpt lat="45.6547042" lon="13.7985889"><ele>50.0</ele><time>2026-04-25T09:32:34.082Z</time></trkpt><trkpt lat="45.6547392" lon="13.7987256"><ele>50.00000000000001</ele><time>2026-04-25T09:32:36.087Z</time></trkpt><trkpt lat="45.6547423" lon="13.7988243"><ele>50.0</ele><time>2026-04-25T09:32:40.091Z</time></trkpt><trkpt lat="45.654707" lon="13.7989109"><ele>50.8</ele><time>2026-04-25T09:32:44.095Z</time></trkpt><trkpt lat="45.6546165" lon="13.7989295"><ele>51.6</ele><time>2026-04-25T09:32:46.089Z</time></trkpt><trkpt lat="45.6545451" lon="13.7989082"><ele>52.400000000000006</ele><time>2026-04-25T09:32:48.083Z</time></trkpt><trkpt lat="45.6544774" lon="13.7989698"><ele>53.2</ele><time>2026-04-25T09:32:51.081Z</time></trkpt><trkpt lat="45.6544818" lon="13.7990923"><ele>54.0</ele><time>2026-04-25T09:32:53.086Z</time></trkpt><trkpt lat="45.6544414" lon="13.7992631"><ele>55.333333333333336</ele><time>2026-04-25T09:32:55.077Z</time></trkpt><trkpt lat="45.6543945" lon="13.7993704"><ele>56.66666666666667</ele><time>2026-04-25T09:32:56.086Z</time></trkpt><trkpt lat="45.6543372" lon="13.7994729"><ele>58.0</ele><time>2026-04-25T09:32:57.081Z</time></trkpt><trkpt lat="45.6542746" lon="13.7995899"><ele>59.333333333333336</ele><time>2026-04-25T09:32:58.081Z</time></trkpt><trkpt lat="45.6542344" lon="13.7996946"><ele>60.66666666666667</ele><time>2026-04-25T09:32:59.082Z</time></trkpt><trkpt lat="45.6541906" lon="13.7997889"><ele>62.0</ele><time>2026-04-25T09:33:00.08Z</time></trkpt><trkpt lat="45.6541482" lon="13.7998799"><ele>62.0</ele><time>2026-04-25T09:33:01.081Z</time></trkpt><trkpt lat="45.6541007" lon="13.799979"><ele>62.0</ele><time>2026-04-25T09:33:02.075Z</time></trkpt><trkpt lat="45.6540353" lon="13.8000808"><ele>62.0</ele><time>2026-04-25T09:33:03.072Z</time></trkpt><trkpt lat="45.6539823" lon="13.8001739"><ele>62.0</ele><time>2026-04-25T09:33:04.069Z</time></trkpt><trkpt lat="45.6539289" lon="13.8002808"><ele>62.0</ele><time>2026-04-25T09:33:05.078Z</time></trkpt><trkpt lat="45.6538636" lon="13.8003899"><ele>62.00000000000001</ele><time>2026-04-25T09:33:06.071Z</time></trkpt><trkpt lat="45.6538203" lon="13.8005037"><ele>62.0</ele><time>2026-04-25T09:33:07.078Z</time></trkpt><trkpt lat="45.653789" lon="13.8006178"><ele>62.0</ele><time>2026-04-25T09:33:08.069Z</time></trkpt><trkpt lat="45.6537506" lon="13.8007208"><ele>62.0</ele><time>2026-04-25T09:33:09.082Z</time></trkpt><trkpt lat="45.6537203" lon="13.8008115"><ele>62.00000000000001</ele><time>2026-04-25T09:33:10.072Z</time></trkpt><trkpt lat="45.6536557" lon="13.800956"><ele>62.0</ele><time>2026-04-25T09:33:12.077Z</time></trkpt><trkpt lat="45.653577" lon="13.8010557"><ele>62.6</ele><time>2026-04-25T09:33:14.082Z</time></trkpt><trkpt lat="45.653489" lon="13.8010089"><ele>63.2</ele><time>2026-04-25T09:33:16.078Z</time></trkpt><trkpt lat="45.6534813" lon="13.8008434"><ele>63.8</ele><time>2026-04-25T09:33:18.082Z</time></trkpt><trkpt lat="45.6535175" lon="13.8007297"><ele>64.4</ele><time>2026-04-25T09:33:19.081Z</time></trkpt><trkpt lat="45.6535592" lon="13.8006025"><ele>65.0</ele><time>2026-04-25T09:33:20.089Z</time></trkpt><trkpt lat="45.6536157" lon="13.8004827"><ele>64.25</ele><time>2026-04-25T09:33:21.087Z</time></trkpt><trkpt lat="45.6536869" lon="13.8003411"><ele>63.5</ele><time>2026-04-25T09:33:22.08Z</time></trkpt><trkpt lat="45.6537338" lon="13.8001745"><ele>62.75</ele><time>2026-04-25T09:33:23.077Z</time></trkpt><trkpt lat="45.6537781" lon="13.8000063"><ele>62.0</ele><time>2026-04-25T09:33:24.086Z</time></trkpt><trkpt lat="45.6538109" lon="13.7998367"><ele>62.0</ele><time>2026-04-25T09:33:25.078Z</time></trkpt><trkpt lat="45.6538428" lon="13.7996744"><ele>62.0</ele><time>2026-04-25T09:33:26.084Z</time></trkpt><trkpt lat="45.6538703" lon="13.7995093"><ele>62.0</ele><time>2026-04-25T09:33:27.082Z</time></trkpt><trkpt lat="45.6538945" lon="13.7993407"><ele>62.0</ele><time>2026-04-25T09:33:28.082Z</time></trkpt><trkpt lat="45.6539205" lon="13.7991674"><ele>62.66666666666667</ele><time>2026-04-25T09:33:29.077Z</time></trkpt><trkpt lat="45.65395" lon="13.7990245"><ele>63.333333333333336</ele><time>2026-04-25T09:33:30.075Z</time></trkpt><trkpt lat="45.6539677" lon="13.7988988"><ele>64.0</ele><time>2026-04-25T09:33:31.077Z</time></trkpt><trkpt lat="45.653975" lon="13.7987943"><ele>64.66666666666667</ele><time>2026-04-25T09:33:32.087Z</time></trkpt><trkpt lat="45.6539709" lon="13.7986963"><ele>65.33333333333333</ele><time>2026-04-25T09:33:33.083Z</time></trkpt><trkpt lat="45.6538986" lon="13.7985944"><ele>66.0</ele><time>2026-04-25T09:33:35.078Z</time></trkpt><trkpt lat="45.6538152" lon="13.7986346"><ele>66.0</ele><time>2026-04-25T09:33:37.083Z</time></trkpt><trkpt lat="45.6537779" lon="13.7987199"><ele>66.0</ele><time>2026-04-25T09:33:38.076Z</time></trkpt><trkpt lat="45.6537724" lon="13.7988252"><ele>66.0</ele><time>2026-04-25T09:33:39.079Z</time></trkpt><trkpt lat="45.6537733" lon="13.7989487"><ele>66.0</ele><time>2026-04-25T09:33:40.076Z</time></trkpt><trkpt lat="45.6537751" lon="13.7990854"><ele>66.0</ele><time>2026-04-25T09:33:41.078Z</time></trkpt><trkpt lat="45.6537616" lon="13.7992243"><ele>66.0</ele><time>2026-04-25T09:33:42.081Z</time></trkpt><trkpt lat="45.6537301" lon="13.7993883"><ele>65.0</ele><time>2026-04-25T09:33:43.081Z</time></trkpt><trkpt lat="45.653675" lon="13.7995505"><ele>64.0</ele><time>2026-04-25T09:33:44.078Z</time></trkpt><trkpt lat="45.6536207" lon="13.7997117"><ele>63.0</ele><time>2026-04-25T09:33:45.074Z</time></trkpt><trkpt lat="45.6535567" lon="13.799871"><ele>62.0</ele><time>2026-04-25T09:33:46.071Z</time></trkpt><trkpt lat="45.6534861" lon="13.8000306"><ele>66.0</ele><time>2026-04-25T09:33:47.085Z</time></trkpt><trkpt lat="45.6534045" lon="13.8001847"><ele>70.0</ele><time>2026-04-25T09:33:48.08Z</time></trkpt><trkpt lat="45.653324" lon="13.8003546"><ele>74.0</ele><time>2026-04-25T09:33:49.085Z</time></trkpt><trkpt lat="45.6532471" lon="13.8005218"><ele>78.0</ele><time>2026-04-25T09:33:50.086Z</time></trkpt><trkpt lat="45.6531679" lon="13.8006963"><ele>78.0</ele><time>2026-04-25T09:33:51.079Z</time></trkpt><trkpt lat="45.653092" lon="13.8008669"><ele>78.0</ele><time>2026-04-25T09:33:52.08Z</time></trkpt><trkpt lat="45.6530066" lon="13.8010518"><ele>78.0</ele><time>2026-04-25T09:33:53.082Z</time></trkpt><trkpt lat="45.6529213" lon="13.8012443"><ele>74.75</ele><time>2026-04-25T09:33:54.082Z</time></trkpt><trkpt lat="45.652844" lon="13.8014183"><ele>71.5</ele><time>2026-04-25T09:33:55.078Z</time></trkpt><trkpt lat="45.6527648" lon="13.8015757"><ele>68.25</ele><time>2026-04-25T09:33:56.083Z</time></trkpt><trkpt lat="45.6526857" lon="13.8017418"><ele>65.0</ele><time>2026-04-25T09:33:57.081Z</time></trkpt><trkpt lat="45.6526146" lon="13.8019139"><ele>71.5</ele><time>2026-04-25T09:33:58.078Z</time></trkpt><trkpt lat="45.6525442" lon="13.8020972"><ele>78.0</ele><time>2026-04-25T09:33:59.082Z</time></trkpt><trkpt lat="45.6524867" lon="13.8022741"><ele>84.5</ele><time>2026-04-25T09:34:00.082Z</time></trkpt><trkpt lat="45.6524392" lon="13.8024436"><ele>91.0</ele><time>2026-04-25T09:34:01.088Z</time></trkpt><trkpt lat="45.6523973" lon="13.8025943"><ele>89.0</ele><time>2026-04-25T09:34:02.08Z</time></trkpt><trkpt lat="45.6523576" lon="13.8027224"><ele>87.0</ele><time>2026-04-25T09:34:03.078Z</time></trkpt><trkpt lat="45.6523118" lon="13.8028293"><ele>85.0</ele><time>2026-04-25T09:34:04.074Z</time></trkpt><trkpt lat="45.6522595" lon="13.8029409"><ele>83.0</ele><time>2026-04-25T09:34:05.076Z</time></trkpt><trkpt lat="45.6521979" lon="13.8030616"><ele>81.0</ele><time>2026-04-25T09:34:06.081Z</time></trkpt><trkpt lat="45.652121" lon="13.8031695"><ele>81.0</ele><time>2026-04-25T09:34:07.084Z</time></trkpt><trkpt lat="45.652027" lon="13.803238"><ele>81.0</ele><time>2026-04-25T09:34:08.073Z</time></trkpt><trkpt lat="45.6519536" lon="13.8033208"><ele>81.0</ele><time>2026-04-25T09:34:09.077Z</time></trkpt><trkpt lat="45.6519099" lon="13.8034284"><ele>81.0</ele><time>2026-04-25T09:34:10.08Z</time></trkpt><trkpt lat="45.6518761" lon="13.803561"><ele>81.0</ele><time>2026-04-25T09:34:11.077Z</time></trkpt><trkpt lat="45.6518323" lon="13.8036888"><ele>83.8</ele><time>2026-04-25T09:34:12.077Z</time></trkpt><trkpt lat="45.6517652" lon="13.803807"><ele>86.6</ele><time>2026-04-25T09:34:13.075Z</time></trkpt><trkpt lat="45.6516709" lon="13.8039045"><ele>89.4</ele><time>2026-04-25T09:34:14.081Z</time></trkpt><trkpt lat="45.6515783" lon="13.8039802"><ele>92.2</ele><time>2026-04-25T09:34:15.077Z</time></trkpt><trkpt lat="45.6514941" lon="13.8040692"><ele>95.0</ele><time>2026-04-25T09:34:16.087Z</time></trkpt><trkpt lat="45.651422" lon="13.8041732"><ele>95.0</ele><time>2026-04-25T09:34:17.076Z</time></trkpt><trkpt lat="45.6513606" lon="13.8042954"><ele>95.0</ele><time>2026-04-25T09:34:18.081Z</time></trkpt><trkpt lat="45.6513074" lon="13.8044294"><ele>95.0</ele><time>2026-04-25T09:34:19.079Z</time></trkpt><trkpt lat="45.6512564" lon="13.8045693"><ele>95.0</ele><time>2026-04-25T09:34:20.082Z</time></trkpt><trkpt lat="45.651204" lon="13.8047161"><ele>95.0</ele><time>2026-04-25T09:34:21.079Z</time></trkpt><trkpt lat="45.6511489" lon="13.804861"><ele>96.6</ele><time>2026-04-25T09:34:22.082Z</time></trkpt><trkpt lat="45.651091" lon="13.8049926"><ele>98.2</ele><time>2026-04-25T09:34:23.075Z</time></trkpt><trkpt lat="45.6510194" lon="13.805099"><ele>99.80000000000001</ele><time>2026-04-25T09:34:24.079Z</time></trkpt><trkpt lat="45.6509281" lon="13.8051876"><ele>101.4</ele><time>2026-04-25T09:34:25.08Z</time></trkpt><trkpt lat="45.6508368" lon="13.8052835"><ele>103.0</ele><time>2026-04-25T09:34:26.079Z</time></trkpt><trkpt lat="45.6507563" lon="13.8054"><ele>103.0</ele><time>2026-04-25T09:34:27.081Z</time></trkpt><trkpt lat="45.6506838" lon="13.8055424"><ele>103.0</ele><time>2026-04-25T09:34:28.077Z</time></trkpt><trkpt lat="45.6506134" lon="13.8056808"><ele>103.0</ele><time>2026-04-25T09:34:29.073Z</time></trkpt><trkpt lat="45.6505442" lon="13.805815"><ele>103.0</ele><time>2026-04-25T09:34:30.077Z</time></trkpt><trkpt lat="45.6504851" lon="13.8059475"><ele>100.25</ele><time>2026-04-25T09:34:31.076Z</time></trkpt><trkpt lat="45.6504339" lon="13.806077"><ele>97.5</ele><time>2026-04-25T09:34:32.079Z</time></trkpt><trkpt lat="45.6503807" lon="13.8062112"><ele>94.75</ele><time>2026-04-25T09:34:33.072Z</time></trkpt><trkpt lat="45.6503137" lon="13.8063599"><ele>92.0</ele><time>2026-04-25T09:34:34.076Z</time></trkpt><trkpt lat="45.65023" lon="13.806503"><ele>97.0</ele><time>2026-04-25T09:34:35.074Z</time></trkpt><trkpt lat="45.6501291" lon="13.8066468"><ele>102.0</ele><time>2026-04-25T09:34:36.08Z</time></trkpt><trkpt lat="45.6500277" lon="13.8067963"><ele>107.0</ele><time>2026-04-25T09:34:37.086Z</time></trkpt><trkpt lat="45.6499386" lon="13.8069463"><ele>112.0</ele><time>2026-04-25T09:34:38.082Z</time></trkpt><trkpt lat="45.6498576" lon="13.8071006"><ele>112.0</ele><time>2026-04-25T09:34:39.083Z</time></trkpt><trkpt lat="45.6497762" lon="13.8072392"><ele>112.0</ele><time>2026-04-25T09:34:40.07Z</time></trkpt><trkpt lat="45.6497014" lon="13.8073885"><ele>112.0</ele><time>2026-04-25T09:34:41.076Z</time></trkpt><trkpt lat="45.6496301" lon="13.8075304"><ele>112.0</ele><time>2026-04-25T09:34:42.087Z</time></trkpt><trkpt lat="45.6495639" lon="13.807668"><ele>109.8</ele><time>2026-04-25T09:34:43.085Z</time></trkpt><trkpt lat="45.6495001" lon="13.8078163"><ele>107.6</ele><time>2026-04-25T09:34:44.091Z</time></trkpt><trkpt lat="45.6494485" lon="13.8079523"><ele>105.39999999999999</ele><time>2026-04-25T09:34:45.081Z</time></trkpt><trkpt lat="45.6493939" lon="13.8080858"><ele>103.19999999999999</ele><time>2026-04-25T09:34:46.084Z</time></trkpt><trkpt lat="45.6493345" lon="13.8082178"><ele>101.0</ele><time>2026-04-25T09:34:47.078Z</time></trkpt><trkpt lat="45.6492737" lon="13.8083424"><ele>105.0</ele><time>2026-04-25T09:34:48.091Z</time></trkpt><trkpt lat="45.6492086" lon="13.8084687"><ele>109.0</ele><time>2026-04-25T09:34:49.091Z</time></trkpt><trkpt lat="45.6491346" lon="13.8085913"><ele>113.0</ele><time>2026-04-25T09:34:50.085Z</time></trkpt><trkpt lat="45.6490548" lon="13.8087089"><ele>117.0</ele><time>2026-04-25T09:34:51.085Z</time></trkpt><trkpt lat="45.6489635" lon="13.8088335"><ele>117.0</ele><time>2026-04-25T09:34:52.091Z</time></trkpt><trkpt lat="45.6488815" lon="13.808975"><ele>117.0</ele><time>2026-04-25T09:34:53.083Z</time></trkpt><trkpt lat="45.6488058" lon="13.8091318"><ele>117.0</ele><time>2026-04-25T09:34:54.089Z</time></trkpt><trkpt lat="45.648742" lon="13.8092939"><ele>117.0</ele><time>2026-04-25T09:34:55.086Z</time></trkpt><trkpt lat="45.648697" lon="13.8094554"><ele>116.6</ele><time>2026-04-25T09:34:56.095Z</time></trkpt><trkpt lat="45.6486698" lon="13.8096022"><ele>116.19999999999999</ele><time>2026-04-25T09:34:57.087Z</time></trkpt><trkpt lat="45.6486485" lon="13.8097316"><ele>115.8</ele><time>2026-04-25T09:34:58.095Z</time></trkpt><trkpt lat="45.6486348" lon="13.8098426"><ele>115.4</ele><time>2026-04-25T09:34:59.091Z</time></trkpt><trkpt lat="45.6486236" lon="13.8099389"><ele>115.0</ele><time>2026-04-25T09:35:00.086Z</time></trkpt><trkpt lat="45.6486025" lon="13.8100923"><ele>119.16666666666667</ele><time>2026-04-25T09:35:02.088Z</time></trkpt><trkpt lat="45.6485283" lon="13.8101144"><ele>123.33333333333334</ele><time>2026-04-25T09:35:04.087Z</time></trkpt><trkpt lat="45.648485" lon="13.8100419"><ele>127.5</ele><time>2026-04-25T09:35:05.084Z</time></trkpt><trkpt lat="45.6484644" lon="13.8099563"><ele>131.66666666666666</ele><time>2026-04-25T09:35:06.084Z</time></trkpt><trkpt lat="45.6484792" lon="13.8097544"><ele>135.83333333333331</ele><time>2026-04-25T09:35:08.074Z</time></trkpt><trkpt lat="45.6485056" lon="13.8096294"><ele>140.0</ele><time>2026-04-25T09:35:09.081Z</time></trkpt><trkpt lat="45.64853" lon="13.8094749"><ele>141.0</ele><time>2026-04-25T09:35:10.078Z</time></trkpt><trkpt lat="45.6485569" lon="13.8093035"><ele>142.0</ele><time>2026-04-25T09:35:11.077Z</time></trkpt><trkpt lat="45.6485848" lon="13.809126"><ele>143.0</ele><time>2026-04-25T09:35:12.077Z</time></trkpt><trkpt lat="45.648609" lon="13.8089323"><ele>144.0</ele><time>2026-04-25T09:35:13.073Z</time></trkpt><trkpt lat="45.6486301" lon="13.8087483"><ele>139.0</ele><time>2026-04-25T09:35:14.076Z</time></trkpt><trkpt lat="45.6486569" lon="13.8085604"><ele>134.0</ele><time>2026-04-25T09:35:15.081Z</time></trkpt><trkpt lat="45.6486967" lon="13.8083781"><ele>129.0</ele><time>2026-04-25T09:35:16.074Z</time></trkpt><trkpt lat="45.6487233" lon="13.8081857"><ele>124.0</ele><time>2026-04-25T09:35:17.077Z</time></trkpt><trkpt lat="45.6487637" lon="13.8079912"><ele>124.0</ele><time>2026-04-25T09:35:18.084Z</time></trkpt><trkpt lat="45.6488044" lon="13.8077916"><ele>124.0</ele><time>2026-04-25T09:35:19.077Z</time></trkpt><trkpt lat="45.6488375" lon="13.8076062"><ele>124.0</ele><time>2026-04-25T09:35:20.083Z</time></trkpt><trkpt lat="45.6488673" lon="13.8074329"><ele>124.0</ele><time>2026-04-25T09:35:21.083Z</time></trkpt><trkpt lat="45.6488816" lon="13.8072773"><ele>126.2</ele><time>2026-04-25T09:35:22.079Z</time></trkpt><trkpt lat="45.648897" lon="13.8071357"><ele>128.4</ele><time>2026-04-25T09:35:23.078Z</time></trkpt><trkpt lat="45.648916" lon="13.8069881"><ele>130.6</ele><time>2026-04-25T09:35:24.086Z</time></trkpt><trkpt lat="45.6489453" lon="13.8068452"><ele>132.8</ele><time>2026-04-25T09:35:25.087Z</time></trkpt><trkpt lat="45.6489903" lon="13.8067219"><ele>135.0</ele><time>2026-04-25T09:35:26.08Z</time></trkpt><trkpt lat="45.6490556" lon="13.8066149"><ele>137.0</ele><time>2026-04-25T09:35:27.084Z</time></trkpt><trkpt lat="45.6491305" lon="13.8065028"><ele>139.0</ele><time>2026-04-25T09:35:28.08Z</time></trkpt><trkpt lat="45.6491983" lon="13.8063646"><ele>141.0</ele><time>2026-04-25T09:35:29.083Z</time></trkpt><trkpt lat="45.6492541" lon="13.8062108"><ele>143.0</ele><time>2026-04-25T09:35:30.083Z</time></trkpt><trkpt lat="45.6492997" lon="13.8060494"><ele>144.75</ele><time>2026-04-25T09:35:31.075Z</time></trkpt><trkpt lat="45.6493366" lon="13.8058962"><ele>146.5</ele><time>2026-04-25T09:35:32.084Z</time></trkpt><trkpt lat="45.649375" lon="13.8057369"><ele>148.25</ele><time>2026-04-25T09:35:33.084Z</time></trkpt><trkpt lat="45.649396" lon="13.8055723"><ele>150.0</ele><time>2026-04-25T09:35:34.079Z</time></trkpt><trkpt lat="45.6493931" lon="13.8054039"><ele>150.0</ele><time>2026-04-25T09:35:35.082Z</time></trkpt><trkpt lat="45.6493734" lon="13.8052366"><ele>150.0</ele><time>2026-04-25T09:35:36.079Z</time></trkpt><trkpt lat="45.6493399" lon="13.80507"><ele>150.0</ele><time>2026-04-25T09:35:37.076Z</time></trkpt><trkpt lat="45.6492973" lon="13.8049239"><ele>150.0</ele><time>2026-04-25T09:35:38.08Z</time></trkpt><trkpt lat="45.6492511" lon="13.8047838"><ele>150.0</ele><time>2026-04-25T09:35:39.081Z</time></trkpt><trkpt lat="45.6492035" lon="13.8046361"><ele>150.0</ele><time>2026-04-25T09:35:40.085Z</time></trkpt><trkpt lat="45.6491732" lon="13.8044794"><ele>150.0</ele><time>2026-04-25T09:35:41.083Z</time></trkpt><trkpt lat="45.6491631" lon="13.8043035"><ele>150.0</ele><time>2026-04-25T09:35:42.08Z</time></trkpt><trkpt lat="45.6491585" lon="13.8041192"><ele>150.0</ele><time>2026-04-25T09:35:43.084Z</time></trkpt><trkpt lat="45.6491557" lon="13.8039527"><ele>150.0</ele><time>2026-04-25T09:35:44.089Z</time></trkpt><trkpt lat="45.6491551" lon="13.8037944"><ele>150.0</ele><time>2026-04-25T09:35:45.075Z</time></trkpt><trkpt lat="45.649156" lon="13.8036453"><ele>150.0</ele><time>2026-04-25T09:35:46.079Z</time></trkpt><trkpt lat="45.6491611" lon="13.8034949"><ele>150.0</ele><time>2026-04-25T09:35:47.08Z</time></trkpt><trkpt lat="45.6491687" lon="13.8033414"><ele>151.8</ele><time>2026-04-25T09:35:48.078Z</time></trkpt><trkpt lat="45.6491888" lon="13.8031848"><ele>153.6</ele><time>2026-04-25T09:35:49.081Z</time></trkpt><trkpt lat="45.6492162" lon="13.8030275"><ele>155.4</ele><time>2026-04-25T09:35:50.083Z</time></trkpt><trkpt lat="45.6492384" lon="13.8028923"><ele>157.2</ele><time>2026-04-25T09:35:51.085Z</time></trkpt><trkpt lat="45.6492731" lon="13.8027699"><ele>159.0</ele><time>2026-04-25T09:35:52.09Z</time></trkpt><trkpt lat="45.6493068" lon="13.8026572"><ele>160.6</ele><time>2026-04-25T09:35:53.081Z</time></trkpt><trkpt lat="45.6493561" lon="13.8025446"><ele>162.2</ele><time>2026-04-25T09:35:54.085Z</time></trkpt><trkpt lat="45.6494236" lon="13.8024299"><ele>163.79999999999998</ele><time>2026-04-25T09:35:55.08Z</time></trkpt><trkpt lat="45.6495023" lon="13.8023101"><ele>165.4</ele><time>2026-04-25T09:35:56.086Z</time></trkpt><trkpt lat="45.6495929" lon="13.8021831"><ele>167.0</ele><time>2026-04-25T09:35:57.086Z</time></trkpt><trkpt lat="45.6496857" lon="13.8020653"><ele>164.83333333333331</ele><time>2026-04-25T09:35:58.084Z</time></trkpt><trkpt lat="45.6497525" lon="13.8019682"><ele>162.66666666666666</ele><time>2026-04-25T09:35:59.082Z</time></trkpt><trkpt lat="45.6497957" lon="13.8019008"><ele>160.5</ele><time>2026-04-25T09:36:00.08Z</time></trkpt><trkpt lat="45.6498405" lon="13.8017625"><ele>158.33333333333334</ele><time>2026-04-25T09:36:02.084Z</time></trkpt><trkpt lat="45.6498289" lon="13.8016693"><ele>156.16666666666669</ele><time>2026-04-25T09:36:03.094Z</time></trkpt><trkpt lat="45.6497384" lon="13.8015729"><ele>154.0</ele><time>2026-04-25T09:36:05.09Z</time></trkpt><trkpt lat="45.6496421" lon="13.8016573"><ele>154.0</ele><time>2026-04-25T09:36:07.082Z</time></trkpt><trkpt lat="45.6496079" lon="13.8017605"><ele>154.0</ele><time>2026-04-25T09:36:08.079Z</time></trkpt><trkpt lat="45.6495588" lon="13.8018688"><ele>154.0</ele><time>2026-04-25T09:36:09.075Z</time></trkpt><trkpt lat="45.6494988" lon="13.801992"><ele>154.0</ele><time>2026-04-25T09:36:10.087Z</time></trkpt><trkpt lat="45.6494196" lon="13.8021051"><ele>154.0</ele><time>2026-04-25T09:36:11.084Z</time></trkpt><trkpt lat="45.6493159" lon="13.8022153"><ele>155.25</ele><time>2026-04-25T09:36:12.089Z</time></trkpt><trkpt lat="45.6492028" lon="13.8023229"><ele>156.5</ele><time>2026-04-25T09:36:13.085Z</time></trkpt><trkpt lat="45.6490866" lon="13.8024405"><ele>157.75</ele><time>2026-04-25T09:36:14.088Z</time></trkpt><trkpt lat="45.6489883" lon="13.8025671"><ele>159.0</ele><time>2026-04-25T09:36:15.083Z</time></trkpt><trkpt lat="45.6489079" lon="13.8026836"><ele>159.0</ele><time>2026-04-25T09:36:16.081Z</time></trkpt><trkpt lat="45.6488394" lon="13.8027953"><ele>159.0</ele><time>2026-04-25T09:36:17.084Z</time></trkpt><trkpt lat="45.6487781" lon="13.8028993"><ele>159.0</ele><time>2026-04-25T09:36:18.082Z</time></trkpt><trkpt lat="45.6487195" lon="13.8030037"><ele>159.0</ele><time>2026-04-25T09:36:19.086Z</time></trkpt><trkpt lat="45.648672" lon="13.8031243"><ele>159.0</ele><time>2026-04-25T09:36:20.077Z</time></trkpt><trkpt lat="45.6486369" lon="13.8032598"><ele>162.8</ele><time>2026-04-25T09:36:21.084Z</time></trkpt><trkpt lat="45.6485998" lon="13.8034041"><ele>166.60000000000002</ele><time>2026-04-25T09:36:22.087Z</time></trkpt><trkpt lat="45.6485769" lon="13.8035416"><ele>170.4</ele><time>2026-04-25T09:36:23.085Z</time></trkpt><trkpt lat="45.6485584" lon="13.8036733"><ele>174.20000000000002</ele><time>2026-04-25T09:36:24.09Z</time></trkpt><trkpt lat="45.6485498" lon="13.8038317"><ele>178.0</ele><time>2026-04-25T09:36:25.084Z</time></trkpt><trkpt lat="45.6485345" lon="13.8040159"><ele>178.0</ele><time>2026-04-25T09:36:26.081Z</time></trkpt><trkpt lat="45.6485095" lon="13.8042112"><ele>178.0</ele><time>2026-04-25T09:36:27.082Z</time></trkpt><trkpt lat="45.6484897" lon="13.804399"><ele>178.0</ele><time>2026-04-25T09:36:28.079Z</time></trkpt><trkpt lat="45.6484564" lon="13.804582"><ele>178.0</ele><time>2026-04-25T09:36:29.083Z</time></trkpt><trkpt lat="45.6484117" lon="13.8047577"><ele>177.0</ele><time>2026-04-25T09:36:30.092Z</time></trkpt><trkpt lat="45.6483623" lon="13.8049243"><ele>176.0</ele><time>2026-04-25T09:36:31.08Z</time></trkpt><trkpt lat="45.6483099" lon="13.8050723"><ele>175.0</ele><time>2026-04-25T09:36:32.081Z</time></trkpt><trkpt lat="45.6482397" lon="13.8052159"><ele>174.0</ele><time>2026-04-25T09:36:33.077Z</time></trkpt><trkpt lat="45.6481621" lon="13.8053626"><ele>172.75</ele><time>2026-04-25T09:36:34.081Z</time></trkpt><trkpt lat="45.6480843" lon="13.8055098"><ele>171.5</ele><time>2026-04-25T09:36:35.08Z</time></trkpt><trkpt lat="45.6480067" lon="13.8056518"><ele>170.25</ele><time>2026-04-25T09:36:36.088Z</time></trkpt><trkpt lat="45.6479303" lon="13.8057973"><ele>169.0</ele><time>2026-04-25T09:36:37.074Z</time></trkpt><trkpt lat="45.6478604" lon="13.8059342"><ele>167.79999999999998</ele><time>2026-04-25T09:36:38.084Z</time></trkpt><trkpt lat="45.6477961" lon="13.8060759"><ele>166.6</ele><time>2026-04-25T09:36:39.078Z</time></trkpt><trkpt lat="45.6477432" lon="13.8062117"><ele>165.4</ele><time>2026-04-25T09:36:40.073Z</time></trkpt><trkpt lat="45.6476952" lon="13.8063319"><ele>164.2</ele><time>2026-04-25T09:36:41.076Z</time></trkpt><trkpt lat="45.6476433" lon="13.8064495"><ele>163.0</ele><time>2026-04-25T09:36:42.082Z</time></trkpt><trkpt lat="45.6475993" lon="13.8065642"><ele>167.75</ele><time>2026-04-25T09:36:43.071Z</time></trkpt><trkpt lat="45.6475455" lon="13.8066792"><ele>172.5</ele><time>2026-04-25T09:36:44.083Z</time></trkpt><trkpt lat="45.6474814" lon="13.8068054"><ele>177.25</ele><time>2026-04-25T09:36:45.081Z</time></trkpt><trkpt lat="45.6474071" lon="13.8069585"><ele>182.0</ele><time>2026-04-25T09:36:46.075Z</time></trkpt><trkpt lat="45.6473485" lon="13.8071267"><ele>182.0</ele><time>2026-04-25T09:36:47.079Z</time></trkpt><trkpt lat="45.6473033" lon="13.8073038"><ele>182.0</ele><time>2026-04-25T09:36:48.091Z</time></trkpt><trkpt lat="45.6472403" lon="13.807464"><ele>182.0</ele><time>2026-04-25T09:36:49.077Z</time></trkpt><trkpt lat="45.64718" lon="13.8076325"><ele>182.0</ele><time>2026-04-25T09:36:50.077Z</time></trkpt><trkpt lat="45.6471241" lon="13.8077968"><ele>180.0</ele><time>2026-04-25T09:36:51.077Z</time></trkpt><trkpt lat="45.647082" lon="13.8079599"><ele>178.0</ele><time>2026-04-25T09:36:52.075Z</time></trkpt><trkpt lat="45.6470512" lon="13.8081299"><ele>176.0</ele><time>2026-04-25T09:36:53.073Z</time></trkpt><trkpt lat="45.6470284" lon="13.8082941"><ele>174.0</ele><time>2026-04-25T09:36:54.083Z</time></trkpt><trkpt lat="45.6470099" lon="13.8084428"><ele>174.39999999999998</ele><time>2026-04-25T09:36:55.083Z</time></trkpt><trkpt lat="45.6469993" lon="13.8085723"><ele>174.8</ele><time>2026-04-25T09:36:56.084Z</time></trkpt><trkpt lat="45.646989" lon="13.8087085"><ele>175.2</ele><time>2026-04-25T09:36:57.075Z</time></trkpt><trkpt lat="45.6469792" lon="13.8088575"><ele>175.60000000000002</ele><time>2026-04-25T09:36:58.081Z</time></trkpt><trkpt lat="45.6469617" lon="13.8089929"><ele>176.0</ele><time>2026-04-25T09:36:59.082Z</time></trkpt><trkpt lat="45.6469347" lon="13.8091247"><ele>181.4</ele><time>2026-04-25T09:37:00.084Z</time></trkpt><trkpt lat="45.6468823" lon="13.8092565"><ele>186.8</ele><time>2026-04-25T09:37:01.08Z</time></trkpt><trkpt lat="45.6468228" lon="13.8093887"><ele>192.20000000000002</ele><time>2026-04-25T09:37:02.081Z</time></trkpt><trkpt lat="45.6467627" lon="13.8095218"><ele>197.60000000000002</ele><time>2026-04-25T09:37:03.08Z</time></trkpt><trkpt lat="45.6467129" lon="13.8096671"><ele>203.0</ele><time>2026-04-25T09:37:04.074Z</time></trkpt><trkpt lat="45.6466857" lon="13.8098221"><ele>203.0</ele><time>2026-04-25T09:37:05.082Z</time></trkpt><trkpt lat="45.6466518" lon="13.8099842"><ele>203.0</ele><time>2026-04-25T09:37:06.078Z</time></trkpt><trkpt lat="45.6466325" lon="13.8101408"><ele>203.0</ele><time>2026-04-25T09:37:07.084Z</time></trkpt><trkpt lat="45.6466177" lon="13.8103038"><ele>203.0</ele><time>2026-04-25T09:37:08.075Z</time></trkpt><trkpt lat="45.6466064" lon="13.8104601"><ele>202.2</ele><time>2026-04-25T09:37:09.072Z</time></trkpt><trkpt lat="45.6466013" lon="13.8106183"><ele>201.4</ele><time>2026-04-25T09:37:10.074Z</time></trkpt><trkpt lat="45.6465877" lon="13.8107821"><ele>200.6</ele><time>2026-04-25T09:37:11.075Z</time></trkpt><trkpt lat="45.6465641" lon="13.8109416"><ele>199.79999999999998</ele><time>2026-04-25T09:37:12.084Z</time></trkpt><trkpt lat="45.6465534" lon="13.8110875"><ele>199.0</ele><time>2026-04-25T09:37:13.069Z</time></trkpt><trkpt lat="45.6465356" lon="13.8112233"><ele>198.6</ele><time>2026-04-25T09:37:14.073Z</time></trkpt><trkpt lat="45.6465224" lon="13.8113584"><ele>198.2</ele><time>2026-04-25T09:37:15.069Z</time></trkpt><trkpt lat="45.6465089" lon="13.8115001"><ele>197.79999999999998</ele><time>2026-04-25T09:37:16.093Z</time></trkpt><trkpt lat="45.6464982" lon="13.8116426"><ele>197.39999999999998</ele><time>2026-04-25T09:37:17.078Z</time></trkpt><trkpt lat="45.6464825" lon="13.8117922"><ele>197.0</ele><time>2026-04-25T09:37:18.077Z</time></trkpt><trkpt lat="45.6464578" lon="13.8119259"><ele>196.66666666666669</ele><time>2026-04-25T09:37:19.082Z</time></trkpt><trkpt lat="45.6464355" lon="13.8120512"><ele>196.33333333333334</ele><time>2026-04-25T09:37:20.081Z</time></trkpt><trkpt lat="45.6464044" lon="13.8121786"><ele>196.0</ele><time>2026-04-25T09:37:21.073Z</time></trkpt><trkpt lat="45.6463719" lon="13.8122939"><ele>195.66666666666669</ele><time>2026-04-25T09:37:22.084Z</time></trkpt><trkpt lat="45.6463403" lon="13.8124049"><ele>195.33333333333334</ele><time>2026-04-25T09:37:23.078Z</time></trkpt><trkpt lat="45.6462915" lon="13.8125159"><ele>195.0</ele><time>2026-04-25T09:37:24.079Z</time></trkpt><trkpt lat="45.6462235" lon="13.8126382"><ele>192.5</ele><time>2026-04-25T09:37:25.078Z</time></trkpt><trkpt lat="45.6461617" lon="13.8127728"><ele>190.0</ele><time>2026-04-25T09:37:26.088Z</time></trkpt><trkpt lat="45.6460828" lon="13.812909"><ele>187.5</ele><time>2026-04-25T09:37:27.082Z</time></trkpt><trkpt lat="45.6459908" lon="13.8130369"><ele>185.0</ele><time>2026-04-25T09:37:28.085Z</time></trkpt><trkpt lat="45.6458983" lon="13.8131579"><ele>187.75</ele><time>2026-04-25T09:37:29.084Z</time></trkpt><trkpt lat="45.6457999" lon="13.813282"><ele>190.5</ele><time>2026-04-25T09:37:30.077Z</time></trkpt><trkpt lat="45.6457047" lon="13.8134033"><ele>193.25</ele><time>2026-04-25T09:37:31.08Z</time></trkpt><trkpt lat="45.6456118" lon="13.8135302"><ele>196.0</ele><time>2026-04-25T09:37:32.09Z</time></trkpt><trkpt lat="45.645529" lon="13.8136378"><ele>196.0</ele><time>2026-04-25T09:37:33.083Z</time></trkpt><trkpt lat="45.6454593" lon="13.8137368"><ele>196.0</ele><time>2026-04-25T09:37:34.079Z</time></trkpt><trkpt lat="45.6453886" lon="13.8138379"><ele>196.0</ele><time>2026-04-25T09:37:35.08Z</time></trkpt><trkpt lat="45.6453115" lon="13.8139321"><ele>196.0</ele><time>2026-04-25T09:37:36.084Z</time></trkpt><trkpt lat="45.6452387" lon="13.8140224"><ele>196.0</ele><time>2026-04-25T09:37:37.076Z</time></trkpt><trkpt lat="45.6451762" lon="13.8141165"><ele>198.33333333333331</ele><time>2026-04-25T09:37:38.085Z</time></trkpt><trkpt lat="45.6451093" lon="13.8142052"><ele>200.66666666666666</ele><time>2026-04-25T09:37:39.081Z</time></trkpt><trkpt lat="45.645045" lon="13.8142905"><ele>203.0</ele><time>2026-04-25T09:37:40.081Z</time></trkpt><trkpt lat="45.6449871" lon="13.8143674"><ele>205.33333333333331</ele><time>2026-04-25T09:37:41.077Z</time></trkpt><trkpt lat="45.6449398" lon="13.814435"><ele>207.66666666666666</ele><time>2026-04-25T09:37:42.088Z</time></trkpt><trkpt lat="45.6448687" lon="13.8145496"><ele>210.0</ele><time>2026-04-25T09:37:44.093Z</time></trkpt><trkpt lat="45.6448158" lon="13.8146247"><ele>210.0</ele><time>2026-04-25T09:37:46.084Z</time></trkpt><trkpt lat="45.644752" lon="13.814704"><ele>210.0</ele><time>2026-04-25T09:37:49.089Z</time></trkpt><trkpt lat="45.644688" lon="13.8147573"><ele>210.0</ele><time>2026-04-25T09:37:52.094Z</time></trkpt><trkpt lat="45.6446289" lon="13.8148079"><ele>210.0</ele><time>2026-04-25T09:38:18.091Z</time></trkpt><trkpt lat="45.6445919" lon="13.8148972"><ele>210.0</ele><time>2026-04-25T09:38:23.096Z</time></trkpt><trkpt lat="45.6445624" lon="13.8150829"><ele>210.0</ele><time>2026-04-25T09:38:25.085Z</time></trkpt><trkpt lat="45.6445579" lon="13.8152143"><ele>210.0</ele><time>2026-04-25T09:38:26.088Z</time></trkpt><trkpt lat="45.6445489" lon="13.8153769"><ele>210.0</ele><time>2026-04-25T09:38:27.089Z</time></trkpt><trkpt lat="45.6445406" lon="13.8155711"><ele>210.0</ele><time>2026-04-25T09:38:28.093Z</time></trkpt><trkpt lat="45.6445369" lon="13.815784"><ele>210.0</ele><time>2026-04-25T09:38:29.08Z</time></trkpt><trkpt lat="45.644536" lon="13.8160084"><ele>212.5</ele><time>2026-04-25T09:38:30.086Z</time></trkpt><trkpt lat="45.6445316" lon="13.8162129"><ele>215.0</ele><time>2026-04-25T09:38:31.092Z</time></trkpt><trkpt lat="45.6445188" lon="13.816384"><ele>217.5</ele><time>2026-04-25T09:38:32.094Z</time></trkpt><trkpt lat="45.6445019" lon="13.8165486"><ele>220.0</ele><time>2026-04-25T09:38:33.088Z</time></trkpt><trkpt lat="45.6444786" lon="13.8167073"><ele>221.5</ele><time>2026-04-25T09:38:34.1Z</time></trkpt><trkpt lat="45.644447" lon="13.8168691"><ele>223.0</ele><time>2026-04-25T09:38:35.08Z</time></trkpt><trkpt lat="45.6444029" lon="13.81703"><ele>224.5</ele><time>2026-04-25T09:38:36.088Z</time></trkpt><trkpt lat="45.6443458" lon="13.817191"><ele>226.0</ele><time>2026-04-25T09:38:37.094Z</time></trkpt><trkpt lat="45.6442781" lon="13.817336"><ele>226.0</ele><time>2026-04-25T09:38:38.09Z</time></trkpt><trkpt lat="45.6442151" lon="13.8174591"><ele>226.00000000000003</ele><time>2026-04-25T09:38:39.089Z</time></trkpt><trkpt lat="45.6441477" lon="13.8175722"><ele>226.00000000000003</ele><time>2026-04-25T09:38:40.088Z</time></trkpt><trkpt lat="45.6440861" lon="13.8176755"><ele>226.0</ele><time>2026-04-25T09:38:41.081Z</time></trkpt><trkpt lat="45.6440245" lon="13.8177746"><ele>226.0</ele><time>2026-04-25T09:38:42.087Z</time></trkpt><trkpt lat="45.6439595" lon="13.8178808"><ele>228.0</ele><time>2026-04-25T09:38:43.078Z</time></trkpt><trkpt lat="45.6438874" lon="13.818008"><ele>230.0</ele><time>2026-04-25T09:38:44.083Z</time></trkpt><trkpt lat="45.6438108" lon="13.81814"><ele>232.0</ele><time>2026-04-25T09:38:45.084Z</time></trkpt><trkpt lat="45.6437309" lon="13.8182907"><ele>234.0</ele><time>2026-04-25T09:38:46.099Z</time></trkpt><trkpt lat="45.6436502" lon="13.8184511"><ele>232.25</ele><time>2026-04-25T09:38:47.085Z</time></trkpt><trkpt lat="45.6435724" lon="13.8186184"><ele>230.5</ele><time>2026-04-25T09:38:48.082Z</time></trkpt><trkpt lat="45.643493" lon="13.8188006"><ele>228.75</ele><time>2026-04-25T09:38:49.086Z</time></trkpt><trkpt lat="45.6434236" lon="13.8189738"><ele>227.0</ele><time>2026-04-25T09:38:50.086Z</time></trkpt><trkpt lat="45.6433582" lon="13.8191368"><ele>227.0</ele><time>2026-04-25T09:38:51.08Z</time></trkpt><trkpt lat="45.6432944" lon="13.8193077"><ele>227.0</ele><time>2026-04-25T09:38:52.092Z</time></trkpt><trkpt lat="45.643228" lon="13.8194882"><ele>227.0</ele><time>2026-04-25T09:38:53.093Z</time></trkpt><trkpt lat="45.6431702" lon="13.8196607"><ele>227.0</ele><time>2026-04-25T09:38:54.091Z</time></trkpt><trkpt lat="45.643119" lon="13.819832"><ele>228.75</ele><time>2026-04-25T09:38:55.082Z</time></trkpt><trkpt lat="45.6430588" lon="13.8200034"><ele>230.5</ele><time>2026-04-25T09:38:56.09Z</time></trkpt><trkpt lat="45.6429993" lon="13.8201753"><ele>232.25</ele><time>2026-04-25T09:38:57.091Z</time></trkpt><trkpt lat="45.6429339" lon="13.8203547"><ele>234.0</ele><time>2026-04-25T09:38:58.082Z</time></trkpt><trkpt lat="45.6428654" lon="13.8205497"><ele>233.0</ele><time>2026-04-25T09:38:59.09Z</time></trkpt><trkpt lat="45.6427933" lon="13.8207426"><ele>232.0</ele><time>2026-04-25T09:39:00.089Z</time></trkpt><trkpt lat="45.6427217" lon="13.820918"><ele>231.0</ele><time>2026-04-25T09:39:01.084Z</time></trkpt><trkpt lat="45.642655" lon="13.8210816"><ele>230.0</ele><time>2026-04-25T09:39:02.091Z</time></trkpt><trkpt lat="45.6425979" lon="13.8212388"><ele>230.0</ele><time>2026-04-25T09:39:03.091Z</time></trkpt><trkpt lat="45.6425494" lon="13.8213915"><ele>230.0</ele><time>2026-04-25T09:39:04.083Z</time></trkpt><trkpt lat="45.6424986" lon="13.821559"><ele>230.0</ele><time>2026-04-25T09:39:05.088Z</time></trkpt><trkpt lat="45.6424497" lon="13.8217379"><ele>230.0</ele><time>2026-04-25T09:39:06.08Z</time></trkpt><trkpt lat="45.6423983" lon="13.8219312"><ele>230.0</ele><time>2026-04-25T09:39:07.088Z</time></trkpt><trkpt lat="45.6423551" lon="13.8221416"><ele>230.0</ele><time>2026-04-25T09:39:08.084Z</time></trkpt><trkpt lat="45.6423099" lon="13.8223685"><ele>230.0</ele><time>2026-04-25T09:39:09.086Z</time></trkpt><trkpt lat="45.6422618" lon="13.8226045"><ele>230.0</ele><time>2026-04-25T09:39:10.082Z</time></trkpt><trkpt lat="45.6422035" lon="13.8228412"><ele>230.0</ele><time>2026-04-25T09:39:11.085Z</time></trkpt><trkpt lat="45.6421471" lon="13.8230578"><ele>230.0</ele><time>2026-04-25T09:39:12.078Z</time></trkpt><trkpt lat="45.6420832" lon="13.823267"><ele>230.0</ele><time>2026-04-25T09:39:13.083Z</time></trkpt><trkpt lat="45.6420139" lon="13.8234714"><ele>230.0</ele><time>2026-04-25T09:39:14.085Z</time></trkpt><trkpt lat="45.6419387" lon="13.8236693"><ele>230.0</ele><time>2026-04-25T09:39:15.089Z</time></trkpt><trkpt lat="45.6418623" lon="13.8238505"><ele>229.5</ele><time>2026-04-25T09:39:16.097Z</time></trkpt><trkpt lat="45.6417896" lon="13.824022"><ele>229.0</ele><time>2026-04-25T09:39:17.082Z</time></trkpt><trkpt lat="45.6417191" lon="13.8241967"><ele>228.5</ele><time>2026-04-25T09:39:18.087Z</time></trkpt><trkpt lat="45.6416456" lon="13.8243673"><ele>228.0</ele><time>2026-04-25T09:39:19.096Z</time></trkpt><trkpt lat="45.6415612" lon="13.8245333"><ele>228.0</ele><time>2026-04-25T09:39:20.089Z</time></trkpt><trkpt lat="45.641479" lon="13.824685"><ele>228.0</ele><time>2026-04-25T09:39:21.086Z</time></trkpt><trkpt lat="45.6414041" lon="13.8248208"><ele>228.0</ele><time>2026-04-25T09:39:22.082Z</time></trkpt><trkpt lat="45.6413436" lon="13.8249549"><ele>228.0</ele><time>2026-04-25T09:39:23.087Z</time></trkpt><trkpt lat="45.6412748" lon="13.8251049"><ele>226.25</ele><time>2026-04-25T09:39:24.096Z</time></trkpt><trkpt lat="45.6412025" lon="13.825244"><ele>224.5</ele><time>2026-04-25T09:39:25.089Z</time></trkpt><trkpt lat="45.641119" lon="13.8253815"><ele>222.75</ele><time>2026-04-25T09:39:26.096Z</time></trkpt><trkpt lat="45.6410161" lon="13.8255256"><ele>221.0</ele><time>2026-04-25T09:39:27.094Z</time></trkpt><trkpt lat="45.6409081" lon="13.8256739"><ele>224.0</ele><time>2026-04-25T09:39:28.116Z</time></trkpt><trkpt lat="45.6407921" lon="13.8258283"><ele>227.0</ele><time>2026-04-25T09:39:29.082Z</time></trkpt><trkpt lat="45.6406726" lon="13.8259712"><ele>230.0</ele><time>2026-04-25T09:39:30.098Z</time></trkpt><trkpt lat="45.6405499" lon="13.8261111"><ele>230.0</ele><time>2026-04-25T09:39:31.088Z</time></trkpt><trkpt lat="45.6404261" lon="13.8262449"><ele>230.0</ele><time>2026-04-25T09:39:32.087Z</time></trkpt><trkpt lat="45.6403086" lon="13.8263801"><ele>230.0</ele><time>2026-04-25T09:39:33.088Z</time></trkpt><trkpt lat="45.6401923" lon="13.8265087"><ele>232.0</ele><time>2026-04-25T09:39:34.076Z</time></trkpt><trkpt lat="45.6400829" lon="13.8266326"><ele>234.0</ele><time>2026-04-25T09:39:35.081Z</time></trkpt><trkpt lat="45.6399803" lon="13.8267504"><ele>236.0</ele><time>2026-04-25T09:39:36.079Z</time></trkpt><trkpt lat="45.6398804" lon="13.826867"><ele>238.0</ele><time>2026-04-25T09:39:37.086Z</time></trkpt><trkpt lat="45.6397892" lon="13.8269744"><ele>238.0</ele><time>2026-04-25T09:39:38.081Z</time></trkpt><trkpt lat="45.6397027" lon="13.8270723"><ele>238.0</ele><time>2026-04-25T09:39:39.081Z</time></trkpt><trkpt lat="45.6396208" lon="13.8271818"><ele>238.0</ele><time>2026-04-25T09:39:40.084Z</time></trkpt><trkpt lat="45.6395358" lon="13.8272953"><ele>238.0</ele><time>2026-04-25T09:39:41.084Z</time></trkpt><trkpt lat="45.6394497" lon="13.8274074"><ele>239.25</ele><time>2026-04-25T09:39:42.08Z</time></trkpt><trkpt lat="45.6393572" lon="13.8275203"><ele>240.5</ele><time>2026-04-25T09:39:43.081Z</time></trkpt><trkpt lat="45.6392619" lon="13.8276356"><ele>241.75</ele><time>2026-04-25T09:39:44.084Z</time></trkpt><trkpt lat="45.639163" lon="13.8277577"><ele>243.0</ele><time>2026-04-25T09:39:45.082Z</time></trkpt><trkpt lat="45.6390607" lon="13.8278892"><ele>243.0</ele><time>2026-04-25T09:39:46.088Z</time></trkpt><trkpt lat="45.6389558" lon="13.8280284"><ele>243.0</ele><time>2026-04-25T09:39:47.085Z</time></trkpt><trkpt lat="45.6388477" lon="13.8281723"><ele>243.0</ele><time>2026-04-25T09:39:48.084Z</time></trkpt><trkpt lat="45.6387364" lon="13.8283189"><ele>243.0</ele><time>2026-04-25T09:39:49.086Z</time></trkpt><trkpt lat="45.6386184" lon="13.8284576"><ele>245.33333333333331</ele><time>2026-04-25T09:39:50.094Z</time></trkpt><trkpt lat="45.6385027" lon="13.8286078"><ele>247.66666666666666</ele><time>2026-04-25T09:39:51.087Z</time></trkpt><trkpt lat="45.6383865" lon="13.8287577"><ele>250.0</ele><time>2026-04-25T09:39:52.092Z</time></trkpt><trkpt lat="45.6382733" lon="13.8288983"><ele>250.0</ele><time>2026-04-25T09:39:53.087Z</time></trkpt><trkpt lat="45.6381628" lon="13.8290394"><ele>250.0</ele><time>2026-04-25T09:39:54.091Z</time></trkpt><trkpt lat="45.638065" lon="13.8291727"><ele>250.0</ele><time>2026-04-25T09:39:55.094Z</time></trkpt><trkpt lat="45.6379647" lon="13.8293015"><ele>250.0</ele><time>2026-04-25T09:39:56.1Z</time></trkpt><trkpt lat="45.6378658" lon="13.8294292"><ele>250.25</ele><time>2026-04-25T09:39:57.087Z</time></trkpt><trkpt lat="45.6377742" lon="13.8295545"><ele>250.5</ele><time>2026-04-25T09:39:58.086Z</time></trkpt><trkpt lat="45.6376884" lon="13.8296755"><ele>250.75</ele><time>2026-04-25T09:39:59.088Z</time></trkpt><trkpt lat="45.6376044" lon="13.8297765"><ele>251.0</ele><time>2026-04-25T09:40:00.091Z</time></trkpt><trkpt lat="45.6375317" lon="13.8298672"><ele>251.0</ele><time>2026-04-25T09:40:01.09Z</time></trkpt><trkpt lat="45.637463" lon="13.8299645"><ele>251.00000000000003</ele><time>2026-04-25T09:40:02.087Z</time></trkpt><trkpt lat="45.6373981" lon="13.8300505"><ele>251.00000000000003</ele><time>2026-04-25T09:40:03.087Z</time></trkpt><trkpt lat="45.6373404" lon="13.8301255"><ele>251.0</ele><time>2026-04-25T09:40:04.083Z</time></trkpt><trkpt lat="45.6372453" lon="13.8302312"><ele>251.0</ele><time>2026-04-25T09:40:06.084Z</time></trkpt><trkpt lat="45.6371628" lon="13.8302826"><ele>251.66666666666669</ele><time>2026-04-25T09:40:08.092Z</time></trkpt><trkpt lat="45.6371017" lon="13.8303271"><ele>252.33333333333334</ele><time>2026-04-25T09:40:11.106Z</time></trkpt><trkpt lat="45.6370067" lon="13.8303842"><ele>253.0</ele><time>2026-04-25T09:40:15.091Z</time></trkpt><trkpt lat="45.6368822" lon="13.8303878"><ele>253.66666666666669</ele><time>2026-04-25T09:40:17.104Z</time></trkpt><trkpt lat="45.636812" lon="13.830393"><ele>254.33333333333334</ele><time>2026-04-25T09:40:18.093Z</time></trkpt><trkpt lat="45.636753" lon="13.830431"><ele>255.0</ele><time>2026-04-25T09:40:19.096Z</time></trkpt><trkpt lat="45.6366833" lon="13.8305608"><ele>255.0</ele><time>2026-04-25T09:40:21.084Z</time></trkpt><trkpt lat="45.6366988" lon="13.8307224"><ele>255.0</ele><time>2026-04-25T09:40:23.094Z</time></trkpt><trkpt lat="45.6367055" lon="13.8308135"><ele>255.0</ele><time>2026-04-25T09:40:24.092Z</time></trkpt><trkpt lat="45.6366465" lon="13.830979"><ele>255.0</ele><time>2026-04-25T09:40:26.084Z</time></trkpt><trkpt lat="45.6365743" lon="13.831072"><ele>255.0</ele><time>2026-04-25T09:40:27.094Z</time></trkpt><trkpt lat="45.6364993" lon="13.8311708"><ele>254.6</ele><time>2026-04-25T09:40:28.093Z</time></trkpt><trkpt lat="45.6364286" lon="13.8312582"><ele>254.2</ele><time>2026-04-25T09:40:29.093Z</time></trkpt><trkpt lat="45.636369" lon="13.831341"><ele>253.8</ele><time>2026-04-25T09:40:30.097Z</time></trkpt><trkpt lat="45.6363157" lon="13.8314432"><ele>253.4</ele><time>2026-04-25T09:40:31.09Z</time></trkpt><trkpt lat="45.6362695" lon="13.8315684"><ele>253.0</ele><time>2026-04-25T09:40:32.087Z</time></trkpt><trkpt lat="45.6362218" lon="13.8317066"><ele>254.8</ele><time>2026-04-25T09:40:33.101Z</time></trkpt><trkpt lat="45.6361732" lon="13.831862"><ele>256.6</ele><time>2026-04-25T09:40:34.091Z</time></trkpt><trkpt lat="45.6361229" lon="13.8320074"><ele>258.4</ele><time>2026-04-25T09:40:35.099Z</time></trkpt><trkpt lat="45.6360717" lon="13.8321467"><ele>260.2</ele><time>2026-04-25T09:40:36.094Z</time></trkpt><trkpt lat="45.63602" lon="13.8322785"><ele>262.0</ele><time>2026-04-25T09:40:37.087Z</time></trkpt><trkpt lat="45.6359604" lon="13.8324192"><ele>262.0</ele><time>2026-04-25T09:40:38.091Z</time></trkpt><trkpt lat="45.6358938" lon="13.8325644"><ele>262.0</ele><time>2026-04-25T09:40:39.091Z</time></trkpt><trkpt lat="45.6358192" lon="13.8327195"><ele>262.0</ele><time>2026-04-25T09:40:40.088Z</time></trkpt><trkpt lat="45.635739" lon="13.8328739"><ele>262.0</ele><time>2026-04-25T09:40:41.087Z</time></trkpt><trkpt lat="45.6356542" lon="13.8330425"><ele>259.25</ele><time>2026-04-25T09:40:42.082Z</time></trkpt><trkpt lat="45.635566" lon="13.8332011"><ele>256.5</ele><time>2026-04-25T09:40:43.097Z</time></trkpt><trkpt lat="45.6354803" lon="13.8333581"><ele>253.75</ele><time>2026-04-25T09:40:44.087Z</time></trkpt><trkpt lat="45.635404" lon="13.8334984"><ele>251.0</ele><time>2026-04-25T09:40:45.092Z</time></trkpt><trkpt lat="45.6353292" lon="13.8336373"><ele>252.4</ele><time>2026-04-25T09:40:46.096Z</time></trkpt><trkpt lat="45.6352564" lon="13.8337619"><ele>253.8</ele><time>2026-04-25T09:40:47.091Z</time></trkpt><trkpt lat="45.6351862" lon="13.8338715"><ele>255.20000000000002</ele><time>2026-04-25T09:40:48.097Z</time></trkpt><trkpt lat="45.635118" lon="13.8339772"><ele>256.6</ele><time>2026-04-25T09:40:49.104Z</time></trkpt><trkpt lat="45.6350421" lon="13.8340813"><ele>258.0</ele><time>2026-04-25T09:40:50.091Z</time></trkpt><trkpt lat="45.6349638" lon="13.8341842"><ele>258.0</ele><time>2026-04-25T09:40:51.097Z</time></trkpt><trkpt lat="45.6348778" lon="13.8342705"><ele>258.0</ele><time>2026-04-25T09:40:52.093Z</time></trkpt><trkpt lat="45.6347799" lon="13.8343459"><ele>258.0</ele><time>2026-04-25T09:40:53.092Z</time></trkpt><trkpt lat="45.6346719" lon="13.8344102"><ele>258.0</ele><time>2026-04-25T09:40:54.092Z</time></trkpt><trkpt lat="45.6345653" lon="13.8344711"><ele>258.0</ele><time>2026-04-25T09:40:55.093Z</time></trkpt><trkpt lat="45.6344641" lon="13.8345298"><ele>257.25</ele><time>2026-04-25T09:40:56.093Z</time></trkpt><trkpt lat="45.6343579" lon="13.8345969"><ele>256.5</ele><time>2026-04-25T09:40:57.102Z</time></trkpt><trkpt lat="45.6342456" lon="13.8346758"><ele>255.75</ele><time>2026-04-25T09:40:58.107Z</time></trkpt><trkpt lat="45.6341362" lon="13.8347677"><ele>255.0</ele><time>2026-04-25T09:40:59.107Z</time></trkpt><trkpt lat="45.6340327" lon="13.8348738"><ele>255.0</ele><time>2026-04-25T09:41:00.1Z</time></trkpt><trkpt lat="45.6339475" lon="13.8349887"><ele>255.0</ele><time>2026-04-25T09:41:01.088Z</time></trkpt><trkpt lat="45.6338666" lon="13.8350975"><ele>255.0</ele><time>2026-04-25T09:41:02.101Z</time></trkpt><trkpt lat="45.6337924" lon="13.835198"><ele>255.0</ele><time>2026-04-25T09:41:03.092Z</time></trkpt><trkpt lat="45.6337238" lon="13.8352912"><ele>255.0</ele><time>2026-04-25T09:41:04.09Z</time></trkpt><trkpt lat="45.6336566" lon="13.8353719"><ele>255.0</ele><time>2026-04-25T09:41:05.094Z</time></trkpt><trkpt lat="45.6335929" lon="13.8354536"><ele>255.0</ele><time>2026-04-25T09:41:06.092Z</time></trkpt><trkpt lat="45.6335284" lon="13.8355352"><ele>255.0</ele><time>2026-04-25T09:41:07.099Z</time></trkpt><trkpt lat="45.6334723" lon="13.8356096"><ele>255.0</ele><time>2026-04-25T09:41:08.09Z</time></trkpt><trkpt lat="45.6334141" lon="13.8356829"><ele>255.0</ele><time>2026-04-25T09:41:09.094Z</time></trkpt><trkpt lat="45.6333628" lon="13.8357543"><ele>255.0</ele><time>2026-04-25T09:41:10.101Z</time></trkpt><trkpt lat="45.6333139" lon="13.8358187"><ele>255.0</ele><time>2026-04-25T09:41:11.101Z</time></trkpt><trkpt lat="45.6332404" lon="13.8359333"><ele>255.0</ele><time>2026-04-25T09:41:13.101Z</time></trkpt><trkpt lat="45.6331799" lon="13.8360408"><ele>255.0</ele><time>2026-04-25T09:41:15.091Z</time></trkpt><trkpt lat="45.6331555" lon="13.8361285"><ele>255.0</ele><time>2026-04-25T09:41:16.111Z</time></trkpt><trkpt lat="45.6331296" lon="13.8362448"><ele>255.0</ele><time>2026-04-25T09:41:17.091Z</time></trkpt><trkpt lat="45.633108" lon="13.8363935"><ele>257.4</ele><time>2026-04-25T09:41:18.101Z</time></trkpt><trkpt lat="45.6331036" lon="13.8365328"><ele>259.8</ele><time>2026-04-25T09:41:19.091Z</time></trkpt><trkpt lat="45.6331098" lon="13.8366637"><ele>262.2</ele><time>2026-04-25T09:41:20.112Z</time></trkpt><trkpt lat="45.6331351" lon="13.8367795"><ele>264.6</ele><time>2026-04-25T09:41:21.093Z</time></trkpt><trkpt lat="45.6331685" lon="13.8369112"><ele>267.0</ele><time>2026-04-25T09:41:22.08Z</time></trkpt><trkpt lat="45.633205" lon="13.8370696"><ele>268.75</ele><time>2026-04-25T09:41:23.076Z</time></trkpt><trkpt lat="45.6332364" lon="13.8372602"><ele>270.5</ele><time>2026-04-25T09:41:24.068Z</time></trkpt><trkpt lat="45.6332832" lon="13.8374208"><ele>272.25</ele><time>2026-04-25T09:41:25.064Z</time></trkpt><trkpt lat="45.6333152" lon="13.8376143"><ele>274.0</ele><time>2026-04-25T09:41:26.064Z</time></trkpt><trkpt lat="45.633371" lon="13.8378108"><ele>274.4</ele><time>2026-04-25T09:41:27.063Z</time></trkpt><trkpt lat="45.6333628" lon="13.8380077"><ele>274.79999999999995</ele><time>2026-04-25T09:41:28.08Z</time></trkpt><trkpt lat="45.6333462" lon="13.8381577"><ele>275.20000000000005</ele><time>2026-04-25T09:41:29.079Z</time></trkpt><trkpt lat="45.633351" lon="13.8382954"><ele>275.6</ele><time>2026-04-25T09:41:30.082Z</time></trkpt><trkpt lat="45.6333755" lon="13.8384358"><ele>276.0</ele><time>2026-04-25T09:41:31.077Z</time></trkpt><trkpt lat="45.6333717" lon="13.83858"><ele>276.0</ele><time>2026-04-25T09:41:32.07Z</time></trkpt><trkpt lat="45.6333597" lon="13.8387267"><ele>276.0</ele><time>2026-04-25T09:41:33.076Z</time></trkpt><trkpt lat="45.6333343" lon="13.8388784"><ele>276.0</ele><time>2026-04-25T09:41:34.078Z</time></trkpt><trkpt lat="45.6333034" lon="13.8390273"><ele>276.0</ele><time>2026-04-25T09:41:35.081Z</time></trkpt><trkpt lat="45.6332708" lon="13.8391792"><ele>276.0</ele><time>2026-04-25T09:41:36.074Z</time></trkpt><trkpt lat="45.6332392" lon="13.8393285"><ele>276.0</ele><time>2026-04-25T09:41:37.073Z</time></trkpt><trkpt lat="45.6332102" lon="13.839484"><ele>276.0</ele><time>2026-04-25T09:41:38.079Z</time></trkpt><trkpt lat="45.6331852" lon="13.8396244"><ele>276.0</ele><time>2026-04-25T09:41:39.08Z</time></trkpt><trkpt lat="45.6331626" lon="13.8397466"><ele>276.0</ele><time>2026-04-25T09:41:40.077Z</time></trkpt><trkpt lat="45.6331449" lon="13.8398492"><ele>276.0</ele><time>2026-04-25T09:41:41.077Z</time></trkpt><trkpt lat="45.6331244" lon="13.839953"><ele>276.0</ele><time>2026-04-25T09:41:42.08Z</time></trkpt><trkpt lat="45.6331077" lon="13.8400586"><ele>276.0</ele><time>2026-04-25T09:41:43.08Z</time></trkpt><trkpt lat="45.6330892" lon="13.8401533"><ele>276.0</ele><time>2026-04-25T09:41:44.074Z</time></trkpt><trkpt lat="45.6330723" lon="13.8403035"><ele>276.0</ele><time>2026-04-25T09:41:46.086Z</time></trkpt><trkpt lat="45.6330625" lon="13.8404247"><ele>276.0</ele><time>2026-04-25T09:41:48.072Z</time></trkpt><trkpt lat="45.63298" lon="13.8405901"><ele>276.5</ele><time>2026-04-25T09:41:50.076Z</time></trkpt><trkpt lat="45.6328864" lon="13.8406401"><ele>277.0</ele><time>2026-04-25T09:41:51.073Z</time></trkpt><trkpt lat="45.6327713" lon="13.8406983"><ele>277.5</ele><time>2026-04-25T09:41:52.083Z</time></trkpt><trkpt lat="45.6326335" lon="13.8407699"><ele>278.0</ele><time>2026-04-25T09:41:53.081Z</time></trkpt><trkpt lat="45.6324925" lon="13.8408573"><ele>278.0</ele><time>2026-04-25T09:41:54.075Z</time></trkpt><trkpt lat="45.6323594" lon="13.8409312"><ele>278.0</ele><time>2026-04-25T09:41:55.078Z</time></trkpt><trkpt lat="45.632228" lon="13.8410101"><ele>278.0</ele><time>2026-04-25T09:41:56.072Z</time></trkpt><trkpt lat="45.6320924" lon="13.8410932"><ele>278.0</ele><time>2026-04-25T09:41:57.077Z</time></trkpt><trkpt lat="45.6319558" lon="13.8411758"><ele>275.75</ele><time>2026-04-25T09:41:58.082Z</time></trkpt><trkpt lat="45.6318213" lon="13.8412518"><ele>273.5</ele><time>2026-04-25T09:41:59.069Z</time></trkpt><trkpt lat="45.6316953" lon="13.8413286"><ele>271.25</ele><time>2026-04-25T09:42:00.078Z</time></trkpt><trkpt lat="45.6315737" lon="13.8414148"><ele>269.0</ele><time>2026-04-25T09:42:01.074Z</time></trkpt><trkpt lat="45.6314578" lon="13.8415271"><ele>269.0</ele><time>2026-04-25T09:42:02.077Z</time></trkpt><trkpt lat="45.6313412" lon="13.8416525"><ele>269.0</ele><time>2026-04-25T09:42:03.074Z</time></trkpt><trkpt lat="45.6312274" lon="13.8418009"><ele>269.0</ele><time>2026-04-25T09:42:04.074Z</time></trkpt><trkpt lat="45.6311219" lon="13.8419448"><ele>269.0</ele><time>2026-04-25T09:42:05.078Z</time></trkpt><trkpt lat="45.6310275" lon="13.8420953"><ele>267.0</ele><time>2026-04-25T09:42:06.078Z</time></trkpt><trkpt lat="45.6309266" lon="13.842235"><ele>265.0</ele><time>2026-04-25T09:42:07.094Z</time></trkpt><trkpt lat="45.6308271" lon="13.8423636"><ele>263.0</ele><time>2026-04-25T09:42:08.074Z</time></trkpt><trkpt lat="45.6307324" lon="13.8424781"><ele>261.0</ele><time>2026-04-25T09:42:09.07Z</time></trkpt><trkpt lat="45.6306417" lon="13.8425729"><ele>262.0</ele><time>2026-04-25T09:42:10.071Z</time></trkpt><trkpt lat="45.6305575" lon="13.842642"><ele>263.0</ele><time>2026-04-25T09:42:11.079Z</time></trkpt><trkpt lat="45.6304658" lon="13.8427023"><ele>264.0</ele><time>2026-04-25T09:42:12.075Z</time></trkpt><trkpt lat="45.6303638" lon="13.8427687"><ele>265.0</ele><time>2026-04-25T09:42:13.077Z</time></trkpt><trkpt lat="45.6302542" lon="13.8428265"><ele>266.0</ele><time>2026-04-25T09:42:14.072Z</time></trkpt><trkpt lat="45.6301302" lon="13.8428783"><ele>266.0</ele><time>2026-04-25T09:42:15.081Z</time></trkpt><trkpt lat="45.6299872" lon="13.8429143"><ele>266.0</ele><time>2026-04-25T09:42:16.081Z</time></trkpt><trkpt lat="45.6298346" lon="13.842946"><ele>266.0</ele><time>2026-04-25T09:42:17.074Z</time></trkpt><trkpt lat="45.6296836" lon="13.8429667"><ele>266.0</ele><time>2026-04-25T09:42:18.077Z</time></trkpt><trkpt lat="45.6295189" lon="13.8429752"><ele>266.0</ele><time>2026-04-25T09:42:19.082Z</time></trkpt><trkpt lat="45.6293599" lon="13.8429744"><ele>266.0</ele><time>2026-04-25T09:42:20.073Z</time></trkpt><trkpt lat="45.6292029" lon="13.842977"><ele>262.0</ele><time>2026-04-25T09:42:21.082Z</time></trkpt><trkpt lat="45.6290581" lon="13.8429905"><ele>258.0</ele><time>2026-04-25T09:42:22.091Z</time></trkpt><trkpt lat="45.6289135" lon="13.8429979"><ele>254.0</ele><time>2026-04-25T09:42:23.075Z</time></trkpt><trkpt lat="45.628767" lon="13.8430148"><ele>250.0</ele><time>2026-04-25T09:42:24.071Z</time></trkpt><trkpt lat="45.6286113" lon="13.8430651"><ele>244.33333333333331</ele><time>2026-04-25T09:42:25.076Z</time></trkpt><trkpt lat="45.6284473" lon="13.8431332"><ele>238.66666666666669</ele><time>2026-04-25T09:42:26.076Z</time></trkpt><trkpt lat="45.6282914" lon="13.8432052"><ele>233.0</ele><time>2026-04-25T09:42:27.076Z</time></trkpt><trkpt lat="45.6281444" lon="13.8432806"><ele>233.0</ele><time>2026-04-25T09:42:28.081Z</time></trkpt><trkpt lat="45.628004" lon="13.8433552"><ele>233.0</ele><time>2026-04-25T09:42:29.07Z</time></trkpt><trkpt lat="45.6278687" lon="13.8434324"><ele>233.0</ele><time>2026-04-25T09:42:30.081Z</time></trkpt><trkpt lat="45.627733" lon="13.8434921"><ele>233.0</ele><time>2026-04-25T09:42:31.075Z</time></trkpt><trkpt lat="45.6276013" lon="13.8435459"><ele>234.75</ele><time>2026-04-25T09:42:32.076Z</time></trkpt><trkpt lat="45.6274637" lon="13.8435718"><ele>236.5</ele><time>2026-04-25T09:42:33.083Z</time></trkpt><trkpt lat="45.6273307" lon="13.8435794"><ele>238.25</ele><time>2026-04-25T09:42:34.072Z</time></trkpt><trkpt lat="45.6272085" lon="13.8436005"><ele>240.0</ele><time>2026-04-25T09:42:35.077Z</time></trkpt><trkpt lat="45.6270764" lon="13.8436379"><ele>236.0</ele><time>2026-04-25T09:42:36.079Z</time></trkpt><trkpt lat="45.626941" lon="13.8436956"><ele>232.0</ele><time>2026-04-25T09:42:37.09Z</time></trkpt><trkpt lat="45.6268177" lon="13.8437769"><ele>228.0</ele><time>2026-04-25T09:42:38.075Z</time></trkpt><trkpt lat="45.6266994" lon="13.8438705"><ele>224.0</ele><time>2026-04-25T09:42:39.082Z</time></trkpt><trkpt lat="45.6265954" lon="13.8439824"><ele>224.0</ele><time>2026-04-25T09:42:40.078Z</time></trkpt><trkpt lat="45.6265047" lon="13.8440982"><ele>224.0</ele><time>2026-04-25T09:42:41.076Z</time></trkpt><trkpt lat="45.6264256" lon="13.8442396"><ele>224.0</ele><time>2026-04-25T09:42:42.078Z</time></trkpt><trkpt lat="45.6263458" lon="13.8443862"><ele>224.0</ele><time>2026-04-25T09:42:43.079Z</time></trkpt><trkpt lat="45.6262623" lon="13.8445412"><ele>222.5</ele><time>2026-04-25T09:42:44.083Z</time></trkpt><trkpt lat="45.6261806" lon="13.8447032"><ele>221.0</ele><time>2026-04-25T09:42:45.079Z</time></trkpt><trkpt lat="45.626092" lon="13.8448703"><ele>219.5</ele><time>2026-04-25T09:42:46.077Z</time></trkpt><trkpt lat="45.6259977" lon="13.8450417"><ele>218.0</ele><time>2026-04-25T09:42:47.075Z</time></trkpt><trkpt lat="45.6258992" lon="13.8452116"><ele>218.0</ele><time>2026-04-25T09:42:48.083Z</time></trkpt><trkpt lat="45.6257989" lon="13.845383"><ele>218.0</ele><time>2026-04-25T09:42:49.078Z</time></trkpt><trkpt lat="45.6256928" lon="13.8455515"><ele>218.0</ele><time>2026-04-25T09:42:50.084Z</time></trkpt><trkpt lat="45.625582" lon="13.8457369"><ele>218.0</ele><time>2026-04-25T09:42:51.08Z</time></trkpt><trkpt lat="45.6254753" lon="13.845929"><ele>218.0</ele><time>2026-04-25T09:42:52.079Z</time></trkpt><trkpt lat="45.6253626" lon="13.8461209"><ele>218.0</ele><time>2026-04-25T09:42:53.075Z</time></trkpt><trkpt lat="45.6252533" lon="13.846315"><ele>216.33333333333334</ele><time>2026-04-25T09:42:54.09Z</time></trkpt><trkpt lat="45.6251505" lon="13.8464937"><ele>214.66666666666669</ele><time>2026-04-25T09:42:55.079Z</time></trkpt><trkpt lat="45.6250622" lon="13.8466637"><ele>213.0</ele><time>2026-04-25T09:42:56.089Z</time></trkpt><trkpt lat="45.6249815" lon="13.8468302"><ele>213.0</ele><time>2026-04-25T09:42:57.088Z</time></trkpt><trkpt lat="45.6249148" lon="13.8470102"><ele>213.0</ele><time>2026-04-25T09:42:58.081Z</time></trkpt><trkpt lat="45.6248568" lon="13.847203"><ele>213.0</ele><time>2026-04-25T09:42:59.107Z</time></trkpt><trkpt lat="45.6248111" lon="13.8474132"><ele>213.0</ele><time>2026-04-25T09:43:00.086Z</time></trkpt><trkpt lat="45.6247705" lon="13.8476406"><ele>215.66666666666669</ele><time>2026-04-25T09:43:01.086Z</time></trkpt><trkpt lat="45.6247474" lon="13.8478765"><ele>218.33333333333334</ele><time>2026-04-25T09:43:02.082Z</time></trkpt><trkpt lat="45.6247414" lon="13.8481198"><ele>221.0</ele><time>2026-04-25T09:43:03.101Z</time></trkpt><trkpt lat="45.6247558" lon="13.8483638"><ele>218.66666666666669</ele><time>2026-04-25T09:43:04.088Z</time></trkpt><trkpt lat="45.6247864" lon="13.848612"><ele>216.33333333333331</ele><time>2026-04-25T09:43:05.089Z</time></trkpt><trkpt lat="45.6248337" lon="13.8488564"><ele>214.0</ele><time>2026-04-25T09:43:06.083Z</time></trkpt><trkpt lat="45.6248798" lon="13.8490805"><ele>210.0</ele><time>2026-04-25T09:43:07.077Z</time></trkpt><trkpt lat="45.6249318" lon="13.8493011"><ele>206.0</ele><time>2026-04-25T09:43:08.084Z</time></trkpt><trkpt lat="45.624985" lon="13.8495386"><ele>202.0</ele><time>2026-04-25T09:43:09.083Z</time></trkpt><trkpt lat="45.6250233" lon="13.8497762"><ele>202.0</ele><time>2026-04-25T09:43:10.085Z</time></trkpt><trkpt lat="45.6250469" lon="13.85001"><ele>202.0</ele><time>2026-04-25T09:43:11.074Z</time></trkpt><trkpt lat="45.6250475" lon="13.8502408"><ele>202.0</ele><time>2026-04-25T09:43:12.082Z</time></trkpt><trkpt lat="45.6250327" lon="13.8504731"><ele>201.66666666666666</ele><time>2026-04-25T09:43:13.089Z</time></trkpt><trkpt lat="45.6250023" lon="13.8507024"><ele>201.33333333333331</ele><time>2026-04-25T09:43:14.09Z</time></trkpt><trkpt lat="45.624964" lon="13.8509196"><ele>201.0</ele><time>2026-04-25T09:43:15.086Z</time></trkpt><trkpt lat="45.6249433" lon="13.8511222"><ele>201.0</ele><time>2026-04-25T09:43:16.075Z</time></trkpt><trkpt lat="45.6249459" lon="13.8513173"><ele>201.0</ele><time>2026-04-25T09:43:17.089Z</time></trkpt><trkpt lat="45.6249682" lon="13.8515248"><ele>201.0</ele><time>2026-04-25T09:43:18.09Z</time></trkpt><trkpt lat="45.6250109" lon="13.8517384"><ele>201.0</ele><time>2026-04-25T09:43:19.08Z</time></trkpt><trkpt lat="45.6250702" lon="13.8519386"><ele>199.0</ele><time>2026-04-25T09:43:20.105Z</time></trkpt><trkpt lat="45.6251378" lon="13.8521171"><ele>197.0</ele><time>2026-04-25T09:43:21.077Z</time></trkpt><trkpt lat="45.6251941" lon="13.8522982"><ele>195.0</ele><time>2026-04-25T09:43:22.084Z</time></trkpt><trkpt lat="45.6252333" lon="13.8524726"><ele>193.0</ele><time>2026-04-25T09:43:23.094Z</time></trkpt><trkpt lat="45.6252647" lon="13.8526394"><ele>192.25</ele><time>2026-04-25T09:43:24.082Z</time></trkpt><trkpt lat="45.6252838" lon="13.8528198"><ele>191.5</ele><time>2026-04-25T09:43:25.083Z</time></trkpt><trkpt lat="45.6252852" lon="13.8530192"><ele>190.75</ele><time>2026-04-25T09:43:26.078Z</time></trkpt><trkpt lat="45.6252688" lon="13.8532163"><ele>190.0</ele><time>2026-04-25T09:43:27.084Z</time></trkpt><trkpt lat="45.6252509" lon="13.8534184"><ele>189.5</ele><time>2026-04-25T09:43:28.09Z</time></trkpt><trkpt lat="45.625234" lon="13.8536178"><ele>189.0</ele><time>2026-04-25T09:43:29.084Z</time></trkpt><trkpt lat="45.6252163" lon="13.8538162"><ele>188.5</ele><time>2026-04-25T09:43:30.089Z</time></trkpt><trkpt lat="45.6252015" lon="13.8539994"><ele>188.0</ele><time>2026-04-25T09:43:31.081Z</time></trkpt><trkpt lat="45.6251873" lon="13.8541795"><ele>187.5</ele><time>2026-04-25T09:43:32.085Z</time></trkpt><trkpt lat="45.6251725" lon="13.8543518"><ele>187.0</ele><time>2026-04-25T09:43:33.077Z</time></trkpt><trkpt lat="45.6251582" lon="13.8545143"><ele>186.5</ele><time>2026-04-25T09:43:34.089Z</time></trkpt><trkpt lat="45.6251343" lon="13.8546761"><ele>186.0</ele><time>2026-04-25T09:43:35.085Z</time></trkpt><trkpt lat="45.6251097" lon="13.8548383"><ele>186.0</ele><time>2026-04-25T09:43:36.088Z</time></trkpt><trkpt lat="45.6250844" lon="13.8549924"><ele>186.0</ele><time>2026-04-25T09:43:37.089Z</time></trkpt><trkpt lat="45.6250542" lon="13.8551547"><ele>186.0</ele><time>2026-04-25T09:43:38.079Z</time></trkpt><trkpt lat="45.6250195" lon="13.8553221"><ele>186.0</ele><time>2026-04-25T09:43:39.092Z</time></trkpt><trkpt lat="45.6249827" lon="13.8555033"><ele>186.75</ele><time>2026-04-25T09:43:40.087Z</time></trkpt><trkpt lat="45.6249399" lon="13.8556947"><ele>187.5</ele><time>2026-04-25T09:43:41.086Z</time></trkpt><trkpt lat="45.6248856" lon="13.855893"><ele>188.25</ele><time>2026-04-25T09:43:42.081Z</time></trkpt><trkpt lat="45.624828" lon="13.8560864"><ele>189.0</ele><time>2026-04-25T09:43:43.089Z</time></trkpt><trkpt lat="45.6247654" lon="13.856286"><ele>191.0</ele><time>2026-04-25T09:43:44.097Z</time></trkpt><trkpt lat="45.6246952" lon="13.8564772"><ele>193.0</ele><time>2026-04-25T09:43:45.086Z</time></trkpt><trkpt lat="45.6246354" lon="13.8566457"><ele>195.0</ele><time>2026-04-25T09:43:46.086Z</time></trkpt><trkpt lat="45.624572" lon="13.8568021"><ele>197.0</ele><time>2026-04-25T09:43:47.097Z</time></trkpt><trkpt lat="45.6245154" lon="13.8569491"><ele>193.8</ele><time>2026-04-25T09:43:48.087Z</time></trkpt><trkpt lat="45.6244614" lon="13.8570829"><ele>190.6</ele><time>2026-04-25T09:43:49.095Z</time></trkpt><trkpt lat="45.6244036" lon="13.8572076"><ele>187.4</ele><time>2026-04-25T09:43:50.092Z</time></trkpt><trkpt lat="45.6243456" lon="13.8573229"><ele>184.20000000000002</ele><time>2026-04-25T09:43:51.081Z</time></trkpt><trkpt lat="45.62427" lon="13.8574334"><ele>181.0</ele><time>2026-04-25T09:43:52.087Z</time></trkpt><trkpt lat="45.6241797" lon="13.8575309"><ele>183.25</ele><time>2026-04-25T09:43:53.088Z</time></trkpt><trkpt lat="45.6240716" lon="13.857622"><ele>185.5</ele><time>2026-04-25T09:43:54.081Z</time></trkpt><trkpt lat="45.6239706" lon="13.8576936"><ele>187.75</ele><time>2026-04-25T09:43:55.089Z</time></trkpt><trkpt lat="45.6238729" lon="13.8577621"><ele>190.0</ele><time>2026-04-25T09:43:56.089Z</time></trkpt><trkpt lat="45.6237778" lon="13.85783"><ele>190.0</ele><time>2026-04-25T09:43:57.09Z</time></trkpt><trkpt lat="45.6236837" lon="13.8578963"><ele>190.0</ele><time>2026-04-25T09:43:58.083Z</time></trkpt><trkpt lat="45.6235921" lon="13.8579676"><ele>190.0</ele><time>2026-04-25T09:43:59.084Z</time></trkpt><trkpt lat="45.6234982" lon="13.8580478"><ele>190.0</ele><time>2026-04-25T09:44:00.082Z</time></trkpt><trkpt lat="45.6234056" lon="13.8581459"><ele>190.0</ele><time>2026-04-25T09:44:01.095Z</time></trkpt><trkpt lat="45.6233275" lon="13.8582668"><ele>186.4</ele><time>2026-04-25T09:44:02.079Z</time></trkpt><trkpt lat="45.6232792" lon="13.8583988"><ele>182.8</ele><time>2026-04-25T09:44:03.075Z</time></trkpt><trkpt lat="45.623245" lon="13.8585367"><ele>179.2</ele><time>2026-04-25T09:44:04.074Z</time></trkpt><trkpt lat="45.6232273" lon="13.8586737"><ele>175.6</ele><time>2026-04-25T09:44:05.078Z</time></trkpt><trkpt lat="45.6232272" lon="13.8588266"><ele>172.0</ele><time>2026-04-25T09:44:06.08Z</time></trkpt><trkpt lat="45.6232488" lon="13.8589837"><ele>171.39999999999998</ele><time>2026-04-25T09:44:07.083Z</time></trkpt><trkpt lat="45.6232863" lon="13.8591218"><ele>170.79999999999998</ele><time>2026-04-25T09:44:08.076Z</time></trkpt><trkpt lat="45.6233432" lon="13.8592599"><ele>170.2</ele><time>2026-04-25T09:44:09.083Z</time></trkpt><trkpt lat="45.6234137" lon="13.8593791"><ele>169.6</ele><time>2026-04-25T09:44:10.091Z</time></trkpt><trkpt lat="45.623482" lon="13.8594848"><ele>169.0</ele><time>2026-04-25T09:44:11.084Z</time></trkpt><trkpt lat="45.6235519" lon="13.859576"><ele>167.2</ele><time>2026-04-25T09:44:12.091Z</time></trkpt><trkpt lat="45.6236239" lon="13.859666"><ele>165.39999999999998</ele><time>2026-04-25T09:44:13.077Z</time></trkpt><trkpt lat="45.6236808" lon="13.8597591"><ele>163.6</ele><time>2026-04-25T09:44:14.087Z</time></trkpt><trkpt lat="45.6237087" lon="13.8598684"><ele>161.8</ele><time>2026-04-25T09:44:15.087Z</time></trkpt><trkpt lat="45.6237068" lon="13.8600119"><ele>160.0</ele><time>2026-04-25T09:44:16.084Z</time></trkpt><trkpt lat="45.6236988" lon="13.8601786"><ele>159.25</ele><time>2026-04-25T09:44:17.081Z</time></trkpt><trkpt lat="45.6236885" lon="13.8603522"><ele>158.5</ele><time>2026-04-25T09:44:18.084Z</time></trkpt><trkpt lat="45.623671" lon="13.8605294"><ele>157.75</ele><time>2026-04-25T09:44:19.085Z</time></trkpt><trkpt lat="45.6236436" lon="13.8607046"><ele>157.0</ele><time>2026-04-25T09:44:20.086Z</time></trkpt><trkpt lat="45.623592" lon="13.8608415"><ele>159.2</ele><time>2026-04-25T09:44:21.093Z</time></trkpt><trkpt lat="45.6235486" lon="13.8609766"><ele>161.39999999999998</ele><time>2026-04-25T09:44:22.081Z</time></trkpt><trkpt lat="45.6234996" lon="13.8610846"><ele>163.60000000000002</ele><time>2026-04-25T09:44:23.085Z</time></trkpt><trkpt lat="45.6234338" lon="13.861175"><ele>165.8</ele><time>2026-04-25T09:44:24.083Z</time></trkpt><trkpt lat="45.6233515" lon="13.8612324"><ele>168.0</ele><time>2026-04-25T09:44:25.078Z</time></trkpt><trkpt lat="45.6232613" lon="13.861273"><ele>168.0</ele><time>2026-04-25T09:44:26.096Z</time></trkpt><trkpt lat="45.6231651" lon="13.8612986"><ele>168.0</ele><time>2026-04-25T09:44:27.08Z</time></trkpt><trkpt lat="45.6230742" lon="13.861279"><ele>168.0</ele><time>2026-04-25T09:44:28.093Z</time></trkpt><trkpt lat="45.6229733" lon="13.8612221"><ele>168.0</ele><time>2026-04-25T09:44:29.082Z</time></trkpt><trkpt lat="45.6228634" lon="13.8611587"><ele>168.0</ele><time>2026-04-25T09:44:30.096Z</time></trkpt><trkpt lat="45.622728" lon="13.8610871"><ele>167.25</ele><time>2026-04-25T09:44:31.074Z</time></trkpt><trkpt lat="45.6225959" lon="13.8610076"><ele>166.5</ele><time>2026-04-25T09:44:32.083Z</time></trkpt><trkpt lat="45.6224684" lon="13.8609441"><ele>165.75</ele><time>2026-04-25T09:44:33.097Z</time></trkpt><trkpt lat="45.6223532" lon="13.8608812"><ele>165.0</ele><time>2026-04-25T09:44:34.081Z</time></trkpt><trkpt lat="45.6222408" lon="13.8608245"><ele>163.0</ele><time>2026-04-25T09:44:35.079Z</time></trkpt><trkpt lat="45.6221313" lon="13.8607681"><ele>161.0</ele><time>2026-04-25T09:44:36.083Z</time></trkpt><trkpt lat="45.6220398" lon="13.8606806"><ele>159.0</ele><time>2026-04-25T09:44:37.08Z</time></trkpt><trkpt lat="45.6219537" lon="13.860552"><ele>157.0</ele><time>2026-04-25T09:44:38.073Z</time></trkpt><trkpt lat="45.6218823" lon="13.8604022"><ele>157.0</ele><time>2026-04-25T09:44:39.075Z</time></trkpt><trkpt lat="45.6218224" lon="13.8602331"><ele>157.0</ele><time>2026-04-25T09:44:40.077Z</time></trkpt><trkpt lat="45.6217739" lon="13.8600477"><ele>157.0</ele><time>2026-04-25T09:44:41.078Z</time></trkpt><trkpt lat="45.6217266" lon="13.8598537"><ele>157.0</ele><time>2026-04-25T09:44:42.067Z</time></trkpt><trkpt lat="45.6216551" lon="13.8596614"><ele>155.66666666666669</ele><time>2026-04-25T09:44:43.074Z</time></trkpt><trkpt lat="45.6215713" lon="13.8594709"><ele>154.33333333333334</ele><time>2026-04-25T09:44:44.083Z</time></trkpt><trkpt lat="45.6214738" lon="13.8592897"><ele>153.0</ele><time>2026-04-25T09:44:45.079Z</time></trkpt><trkpt lat="45.6213723" lon="13.8591173"><ele>150.0</ele><time>2026-04-25T09:44:46.076Z</time></trkpt><trkpt lat="45.6212729" lon="13.858948"><ele>147.0</ele><time>2026-04-25T09:44:47.081Z</time></trkpt><trkpt lat="45.62119" lon="13.8587748"><ele>144.0</ele><time>2026-04-25T09:44:48.075Z</time></trkpt><trkpt lat="45.6211184" lon="13.8585883"><ele>144.0</ele><time>2026-04-25T09:44:49.078Z</time></trkpt><trkpt lat="45.6210635" lon="13.8584021"><ele>144.0</ele><time>2026-04-25T09:44:50.09Z</time></trkpt><trkpt lat="45.6210129" lon="13.8582136"><ele>144.0</ele><time>2026-04-25T09:44:51.083Z</time></trkpt><trkpt lat="45.6209463" lon="13.8580169"><ele>144.0</ele><time>2026-04-25T09:44:52.077Z</time></trkpt><trkpt lat="45.6208726" lon="13.8578299"><ele>144.0</ele><time>2026-04-25T09:44:53.077Z</time></trkpt><trkpt lat="45.6207891" lon="13.8576546"><ele>144.0</ele><time>2026-04-25T09:44:54.078Z</time></trkpt><trkpt lat="45.6206935" lon="13.8574812"><ele>144.0</ele><time>2026-04-25T09:44:55.082Z</time></trkpt><trkpt lat="45.6205933" lon="13.8573079"><ele>143.0</ele><time>2026-04-25T09:44:56.081Z</time></trkpt><trkpt lat="45.6204929" lon="13.8571476"><ele>142.0</ele><time>2026-04-25T09:44:57.085Z</time></trkpt><trkpt lat="45.6203858" lon="13.8570035"><ele>141.0</ele><time>2026-04-25T09:44:58.08Z</time></trkpt><trkpt lat="45.6202709" lon="13.8568669"><ele>140.0</ele><time>2026-04-25T09:44:59.08Z</time></trkpt><trkpt lat="45.6201397" lon="13.8567399"><ele>133.33333333333331</ele><time>2026-04-25T09:45:00.086Z</time></trkpt><trkpt lat="45.6200019" lon="13.8566291"><ele>126.66666666666666</ele><time>2026-04-25T09:45:01.079Z</time></trkpt><trkpt lat="45.6198583" lon="13.8565341"><ele>120.0</ele><time>2026-04-25T09:45:02.071Z</time></trkpt><trkpt lat="45.6197152" lon="13.8564516"><ele>120.0</ele><time>2026-04-25T09:45:03.074Z</time></trkpt><trkpt lat="45.6195688" lon="13.8563862"><ele>120.0</ele><time>2026-04-25T09:45:04.077Z</time></trkpt><trkpt lat="45.619413" lon="13.8563429"><ele>120.0</ele><time>2026-04-25T09:45:05.085Z</time></trkpt><trkpt lat="45.6192471" lon="13.8563153"><ele>120.33333333333334</ele><time>2026-04-25T09:45:06.076Z</time></trkpt><trkpt lat="45.6190852" lon="13.8562992"><ele>120.66666666666667</ele><time>2026-04-25T09:45:07.075Z</time></trkpt><trkpt lat="45.6189233" lon="13.8562769"><ele>121.0</ele><time>2026-04-25T09:45:08.077Z</time></trkpt><trkpt lat="45.6187532" lon="13.8562537"><ele>118.0</ele><time>2026-04-25T09:45:09.07Z</time></trkpt><trkpt lat="45.6185882" lon="13.856239"><ele>115.0</ele><time>2026-04-25T09:45:10.084Z</time></trkpt><trkpt lat="45.6184195" lon="13.8562178"><ele>112.0</ele><time>2026-04-25T09:45:11.09Z</time></trkpt><trkpt lat="45.6182553" lon="13.8562007"><ele>112.0</ele><time>2026-04-25T09:45:12.071Z</time></trkpt><trkpt lat="45.6180942" lon="13.856187"><ele>112.0</ele><time>2026-04-25T09:45:13.079Z</time></trkpt><trkpt lat="45.617929" lon="13.8561754"><ele>112.0</ele><time>2026-04-25T09:45:14.069Z</time></trkpt><trkpt lat="45.6177578" lon="13.8561823"><ele>110.0</ele><time>2026-04-25T09:45:15.091Z</time></trkpt><trkpt lat="45.6175809" lon="13.8562059"><ele>108.0</ele><time>2026-04-25T09:45:16.093Z</time></trkpt><trkpt lat="45.6174171" lon="13.8562373"><ele>106.0</ele><time>2026-04-25T09:45:17.082Z</time></trkpt><trkpt lat="45.6172587" lon="13.8562741"><ele>106.0</ele><time>2026-04-25T09:45:18.086Z</time></trkpt><trkpt lat="45.6171009" lon="13.856306"><ele>106.0</ele><time>2026-04-25T09:45:19.075Z</time></trkpt><trkpt lat="45.6169509" lon="13.8563431"><ele>106.0</ele><time>2026-04-25T09:45:20.083Z</time></trkpt><trkpt lat="45.616803" lon="13.8563763"><ele>101.75</ele><time>2026-04-25T09:45:21.091Z</time></trkpt><trkpt lat="45.6166648" lon="13.8564148"><ele>97.5</ele><time>2026-04-25T09:45:22.075Z</time></trkpt><trkpt lat="45.6165267" lon="13.8564621"><ele>93.25</ele><time>2026-04-25T09:45:23.08Z</time></trkpt><trkpt lat="45.6163829" lon="13.856533"><ele>89.0</ele><time>2026-04-25T09:45:24.079Z</time></trkpt><trkpt lat="45.6162431" lon="13.856613"><ele>88.75</ele><time>2026-04-25T09:45:25.071Z</time></trkpt><trkpt lat="45.6161154" lon="13.8566956"><ele>88.5</ele><time>2026-04-25T09:45:26.081Z</time></trkpt><trkpt lat="45.6160005" lon="13.8567835"><ele>88.25</ele><time>2026-04-25T09:45:27.08Z</time></trkpt><trkpt lat="45.6158932" lon="13.856899"><ele>88.0</ele><time>2026-04-25T09:45:28.079Z</time></trkpt><trkpt lat="45.6157921" lon="13.8570093"><ele>88.0</ele><time>2026-04-25T09:45:29.088Z</time></trkpt><trkpt lat="45.6156993" lon="13.857118"><ele>88.0</ele><time>2026-04-25T09:45:30.082Z</time></trkpt><trkpt lat="45.6156115" lon="13.8572238"><ele>88.0</ele><time>2026-04-25T09:45:31.084Z</time></trkpt><trkpt lat="45.6155259" lon="13.8573286"><ele>88.0</ele><time>2026-04-25T09:45:32.078Z</time></trkpt><trkpt lat="45.6154426" lon="13.8574311"><ele>88.0</ele><time>2026-04-25T09:45:33.078Z</time></trkpt><trkpt lat="45.6153582" lon="13.8575359"><ele>88.0</ele><time>2026-04-25T09:45:34.082Z</time></trkpt><trkpt lat="45.6152684" lon="13.8576251"><ele>88.0</ele><time>2026-04-25T09:45:35.07Z</time></trkpt><trkpt lat="45.6151736" lon="13.8576916"><ele>88.0</ele><time>2026-04-25T09:45:36.071Z</time></trkpt><trkpt lat="45.6150661" lon="13.8577643"><ele>88.0</ele><time>2026-04-25T09:45:37.081Z</time></trkpt><trkpt lat="45.6149418" lon="13.8578305"><ele>84.25</ele><time>2026-04-25T09:45:38.076Z</time></trkpt><trkpt lat="45.6148118" lon="13.8578927"><ele>80.5</ele><time>2026-04-25T09:45:39.081Z</time></trkpt><trkpt lat="45.614676" lon="13.8579526"><ele>76.75</ele><time>2026-04-25T09:45:40.09Z</time></trkpt><trkpt lat="45.6145464" lon="13.8580124"><ele>73.0</ele><time>2026-04-25T09:45:41.09Z</time></trkpt><trkpt lat="45.6144256" lon="13.8580729"><ele>71.8</ele><time>2026-04-25T09:45:42.089Z</time></trkpt><trkpt lat="45.6143251" lon="13.8581198"><ele>70.6</ele><time>2026-04-25T09:45:43.08Z</time></trkpt><trkpt lat="45.6142553" lon="13.8581563"><ele>69.4</ele><time>2026-04-25T09:45:44.076Z</time></trkpt><trkpt lat="45.6141674" lon="13.8581945"><ele>68.2</ele><time>2026-04-25T09:45:46.08Z</time></trkpt><trkpt lat="45.6140771" lon="13.8582404"><ele>67.0</ele><time>2026-04-25T09:46:00.07Z</time></trkpt><trkpt lat="45.613967" lon="13.8582964"><ele>67.0</ele><time>2026-04-25T09:46:02.074Z</time></trkpt><trkpt lat="45.6138503" lon="13.8583654"><ele>67.0</ele><time>2026-04-25T09:46:04.082Z</time></trkpt><trkpt lat="45.6137812" lon="13.8583985"><ele>67.0</ele><time>2026-04-25T09:46:05.075Z</time></trkpt><trkpt lat="45.6137121" lon="13.8584186"><ele>67.0</ele><time>2026-04-25T09:46:06.078Z</time></trkpt><trkpt lat="45.6136422" lon="13.8584294"><ele>67.0</ele><time>2026-04-25T09:46:07.075Z</time></trkpt><trkpt lat="45.6135567" lon="13.8584144"><ele>67.0</ele><time>2026-04-25T09:46:08.095Z</time></trkpt><trkpt lat="45.6134709" lon="13.8583675"><ele>66.8</ele><time>2026-04-25T09:46:09.083Z</time></trkpt><trkpt lat="45.6133878" lon="13.8583041"><ele>66.6</ele><time>2026-04-25T09:46:10.078Z</time></trkpt><trkpt lat="45.6133004" lon="13.8582258"><ele>66.39999999999999</ele><time>2026-04-25T09:46:11.074Z</time></trkpt><trkpt lat="45.6132073" lon="13.8581296"><ele>66.2</ele><time>2026-04-25T09:46:12.078Z</time></trkpt><trkpt lat="45.6131076" lon="13.8580201"><ele>66.0</ele><time>2026-04-25T09:46:13.076Z</time></trkpt><trkpt lat="45.6130029" lon="13.8579138"><ele>66.0</ele><time>2026-04-25T09:46:14.072Z</time></trkpt><trkpt lat="45.6129042" lon="13.8578172"><ele>66.0</ele><time>2026-04-25T09:46:15.093Z</time></trkpt><trkpt lat="45.6128073" lon="13.8577461"><ele>66.0</ele><time>2026-04-25T09:46:16.082Z</time></trkpt><trkpt lat="45.6127134" lon="13.8576945"><ele>66.0</ele><time>2026-04-25T09:46:17.08Z</time></trkpt><trkpt lat="45.6126291" lon="13.8576458"><ele>66.0</ele><time>2026-04-25T09:46:18.071Z</time></trkpt><trkpt lat="45.6125424" lon="13.8575969"><ele>65.5</ele><time>2026-04-25T09:46:19.072Z</time></trkpt><trkpt lat="45.6124499" lon="13.8575523"><ele>65.0</ele><time>2026-04-25T09:46:20.081Z</time></trkpt><trkpt lat="45.6123436" lon="13.8574978"><ele>64.5</ele><time>2026-04-25T09:46:21.071Z</time></trkpt><trkpt lat="45.6122284" lon="13.8574376"><ele>64.0</ele><time>2026-04-25T09:46:22.075Z</time></trkpt><trkpt lat="45.6121011" lon="13.8573698"><ele>63.75</ele><time>2026-04-25T09:46:23.081Z</time></trkpt><trkpt lat="45.6119737" lon="13.8573073"><ele>63.5</ele><time>2026-04-25T09:46:24.087Z</time></trkpt><trkpt lat="45.6118616" lon="13.8572485"><ele>63.25</ele><time>2026-04-25T09:46:25.077Z</time></trkpt><trkpt lat="45.6117538" lon="13.8571927"><ele>63.0</ele><time>2026-04-25T09:46:26.079Z</time></trkpt><trkpt lat="45.6116487" lon="13.8571395"><ele>63.0</ele><time>2026-04-25T09:46:27.083Z</time></trkpt><trkpt lat="45.6115491" lon="13.8570804"><ele>63.0</ele><time>2026-04-25T09:46:28.077Z</time></trkpt><trkpt lat="45.6114603" lon="13.8570193"><ele>63.0</ele><time>2026-04-25T09:46:29.078Z</time></trkpt><trkpt lat="45.6113843" lon="13.8569419"><ele>63.0</ele><time>2026-04-25T09:46:30.078Z</time></trkpt><trkpt lat="45.6113265" lon="13.8568679"><ele>63.0</ele><time>2026-04-25T09:46:31.08Z</time></trkpt><trkpt lat="45.6112869" lon="13.8567897"><ele>63.0</ele><time>2026-04-25T09:46:32.074Z</time></trkpt><trkpt lat="45.6111955" lon="13.856698"><ele>62.599999999999994</ele><time>2026-04-25T09:46:34.088Z</time></trkpt><trkpt lat="45.6111266" lon="13.856712"><ele>62.199999999999996</ele><time>2026-04-25T09:46:35.079Z</time></trkpt><trkpt lat="45.6110474" lon="13.8567637"><ele>61.8</ele><time>2026-04-25T09:46:36.081Z</time></trkpt><trkpt lat="45.6109696" lon="13.8568239"><ele>61.4</ele><time>2026-04-25T09:46:37.084Z</time></trkpt><trkpt lat="45.6108767" lon="13.8568558"><ele>61.0</ele><time>2026-04-25T09:46:38.076Z</time></trkpt><trkpt lat="45.6107607" lon="13.8568643"><ele>61.0</ele><time>2026-04-25T09:46:39.09Z</time></trkpt><trkpt lat="45.6106355" lon="13.8568717"><ele>61.0</ele><time>2026-04-25T09:46:40.079Z</time></trkpt><trkpt lat="45.61051" lon="13.856875"><ele>61.0</ele><time>2026-04-25T09:46:41.083Z</time></trkpt><trkpt lat="45.610392" lon="13.8568734"><ele>61.0</ele><time>2026-04-25T09:46:42.084Z</time></trkpt><trkpt lat="45.6102626" lon="13.8568568"><ele>61.75</ele><time>2026-04-25T09:46:43.079Z</time></trkpt><trkpt lat="45.6101192" lon="13.8568218"><ele>62.5</ele><time>2026-04-25T09:46:44.086Z</time></trkpt><trkpt lat="45.6099774" lon="13.8567878"><ele>63.25</ele><time>2026-04-25T09:46:45.073Z</time></trkpt><trkpt lat="45.609848" lon="13.8567547"><ele>64.0</ele><time>2026-04-25T09:46:46.074Z</time></trkpt><trkpt lat="45.6097232" lon="13.8567045"><ele>62.75</ele><time>2026-04-25T09:46:47.08Z</time></trkpt><trkpt lat="45.6095994" lon="13.8566602"><ele>61.5</ele><time>2026-04-25T09:46:48.081Z</time></trkpt><trkpt lat="45.6094704" lon="13.8566026"><ele>60.25</ele><time>2026-04-25T09:46:49.077Z</time></trkpt><trkpt lat="45.6093424" lon="13.856537"><ele>59.0</ele><time>2026-04-25T09:46:50.08Z</time></trkpt><trkpt lat="45.6092146" lon="13.8564524"><ele>59.0</ele><time>2026-04-25T09:46:51.078Z</time></trkpt><trkpt lat="45.6090991" lon="13.8563271"><ele>59.0</ele><time>2026-04-25T09:46:52.078Z</time></trkpt><trkpt lat="45.6089747" lon="13.8561715"><ele>59.0</ele><time>2026-04-25T09:46:53.076Z</time></trkpt><trkpt lat="45.608846" lon="13.8560044"><ele>57.66666666666667</ele><time>2026-04-25T09:46:54.093Z</time></trkpt><trkpt lat="45.6087116" lon="13.8558245"><ele>56.33333333333333</ele><time>2026-04-25T09:46:55.084Z</time></trkpt><trkpt lat="45.6085672" lon="13.8556379"><ele>55.0</ele><time>2026-04-25T09:46:56.078Z</time></trkpt><trkpt lat="45.6084242" lon="13.855459"><ele>55.0</ele><time>2026-04-25T09:46:57.085Z</time></trkpt><trkpt lat="45.6082793" lon="13.8552888"><ele>55.0</ele><time>2026-04-25T09:46:58.079Z</time></trkpt><trkpt lat="45.6081404" lon="13.8551164"><ele>55.0</ele><time>2026-04-25T09:46:59.079Z</time></trkpt><trkpt lat="45.6079986" lon="13.8549437"><ele>54.33333333333333</ele><time>2026-04-25T09:47:00.076Z</time></trkpt><trkpt lat="45.6078574" lon="13.8547677"><ele>53.66666666666667</ele><time>2026-04-25T09:47:01.085Z</time></trkpt><trkpt lat="45.6077197" lon="13.8545948"><ele>53.0</ele><time>2026-04-25T09:47:02.084Z</time></trkpt><trkpt lat="45.6075897" lon="13.8544255"><ele>52.66666666666667</ele><time>2026-04-25T09:47:03.086Z</time></trkpt><trkpt lat="45.6074711" lon="13.8542713"><ele>52.33333333333333</ele><time>2026-04-25T09:47:04.081Z</time></trkpt><trkpt lat="45.6073602" lon="13.8541055"><ele>52.0</ele><time>2026-04-25T09:47:05.085Z</time></trkpt><trkpt lat="45.607257" lon="13.8539251"><ele>52.0</ele><time>2026-04-25T09:47:06.09Z</time></trkpt><trkpt lat="45.6071517" lon="13.8537299"><ele>52.0</ele><time>2026-04-25T09:47:07.083Z</time></trkpt><trkpt lat="45.6070525" lon="13.8535245"><ele>52.0</ele><time>2026-04-25T09:47:08.085Z</time></trkpt><trkpt lat="45.6069598" lon="13.8533014"><ele>51.33333333333333</ele><time>2026-04-25T09:47:09.086Z</time></trkpt><trkpt lat="45.6068754" lon="13.853072"><ele>50.66666666666667</ele><time>2026-04-25T09:47:10.088Z</time></trkpt><trkpt lat="45.6068068" lon="13.8528524"><ele>50.0</ele><time>2026-04-25T09:47:11.097Z</time></trkpt><trkpt lat="45.6067491" lon="13.8526338"><ele>51.0</ele><time>2026-04-25T09:47:12.089Z</time></trkpt><trkpt lat="45.6066893" lon="13.8524163"><ele>52.0</ele><time>2026-04-25T09:47:13.086Z</time></trkpt><trkpt lat="45.6066226" lon="13.852189"><ele>53.0</ele><time>2026-04-25T09:47:14.088Z</time></trkpt><trkpt lat="45.6065443" lon="13.8519649"><ele>53.0</ele><time>2026-04-25T09:47:15.089Z</time></trkpt><trkpt lat="45.6064632" lon="13.8517515"><ele>53.0</ele><time>2026-04-25T09:47:16.089Z</time></trkpt><trkpt lat="45.6063862" lon="13.8515612"><ele>53.0</ele><time>2026-04-25T09:47:17.087Z</time></trkpt><trkpt lat="45.60631" lon="13.851386"><ele>53.0</ele><time>2026-04-25T09:47:18.084Z</time></trkpt><trkpt lat="45.6062504" lon="13.8512149"><ele>53.0</ele><time>2026-04-25T09:47:19.085Z</time></trkpt><trkpt lat="45.6061982" lon="13.851059"><ele>53.0</ele><time>2026-04-25T09:47:20.082Z</time></trkpt><trkpt lat="45.6061538" lon="13.8509211"><ele>53.0</ele><time>2026-04-25T09:47:21.088Z</time></trkpt><trkpt lat="45.6061116" lon="13.850792"><ele>51.75</ele><time>2026-04-25T09:47:22.079Z</time></trkpt><trkpt lat="45.6060787" lon="13.8506556"><ele>50.5</ele><time>2026-04-25T09:47:23.091Z</time></trkpt><trkpt lat="45.6060342" lon="13.8505115"><ele>49.25</ele><time>2026-04-25T09:47:24.083Z</time></trkpt><trkpt lat="45.6059645" lon="13.8503757"><ele>48.0</ele><time>2026-04-25T09:47:25.088Z</time></trkpt><trkpt lat="45.6058694" lon="13.8502363"><ele>47.666666666666664</ele><time>2026-04-25T09:47:26.087Z</time></trkpt><trkpt lat="45.6057692" lon="13.8500811"><ele>47.33333333333333</ele><time>2026-04-25T09:47:27.088Z</time></trkpt><trkpt lat="45.6056655" lon="13.8499017"><ele>47.0</ele><time>2026-04-25T09:47:28.091Z</time></trkpt><trkpt lat="45.6055591" lon="13.8496883"><ele>47.0</ele><time>2026-04-25T09:47:29.09Z</time></trkpt><trkpt lat="45.6054527" lon="13.8494606"><ele>47.0</ele><time>2026-04-25T09:47:30.087Z</time></trkpt><trkpt lat="45.605347" lon="13.8492158"><ele>47.0</ele><time>2026-04-25T09:47:31.082Z</time></trkpt><trkpt lat="45.6052434" lon="13.8489646"><ele>46.0</ele><time>2026-04-25T09:47:32.077Z</time></trkpt><trkpt lat="45.6051341" lon="13.8487118"><ele>45.0</ele><time>2026-04-25T09:47:33.08Z</time></trkpt><trkpt lat="45.6050213" lon="13.8484549"><ele>44.0</ele><time>2026-04-25T09:47:34.083Z</time></trkpt><trkpt lat="45.6049101" lon="13.8481866"><ele>42.5</ele><time>2026-04-25T09:47:35.086Z</time></trkpt><trkpt lat="45.6047874" lon="13.8479121"><ele>41.0</ele><time>2026-04-25T09:47:36.095Z</time></trkpt><trkpt lat="45.6046669" lon="13.8476354"><ele>40.5</ele><time>2026-04-25T09:47:37.08Z</time></trkpt><trkpt lat="45.6045463" lon="13.8473591"><ele>40.0</ele><time>2026-04-25T09:47:38.095Z</time></trkpt><trkpt lat="45.6044234" lon="13.8470853"><ele>40.0</ele><time>2026-04-25T09:47:39.083Z</time></trkpt><trkpt lat="45.6043045" lon="13.8468218"><ele>40.0</ele><time>2026-04-25T09:47:40.078Z</time></trkpt><trkpt lat="45.604183" lon="13.846554"><ele>40.0</ele><time>2026-04-25T09:47:41.091Z</time></trkpt><trkpt lat="45.6040644" lon="13.8462841"><ele>40.5</ele><time>2026-04-25T09:47:42.089Z</time></trkpt><trkpt lat="45.6039507" lon="13.8460099"><ele>41.0</ele><time>2026-04-25T09:47:43.085Z</time></trkpt><trkpt lat="45.6038346" lon="13.8457239"><ele>43.0</ele><time>2026-04-25T09:47:44.093Z</time></trkpt><trkpt lat="45.603721" lon="13.8454333"><ele>45.0</ele><time>2026-04-25T09:47:45.085Z</time></trkpt><trkpt lat="45.6036145" lon="13.8451359"><ele>41.5</ele><time>2026-04-25T09:47:46.081Z</time></trkpt><trkpt lat="45.6035135" lon="13.8448386"><ele>38.0</ele><time>2026-04-25T09:47:47.079Z</time></trkpt><trkpt lat="45.6034177" lon="13.8445356"><ele>39.33333333333333</ele><time>2026-04-25T09:47:48.083Z</time></trkpt><trkpt lat="45.6033288" lon="13.8442306"><ele>40.666666666666664</ele><time>2026-04-25T09:47:49.082Z</time></trkpt><trkpt lat="45.6032496" lon="13.8439399"><ele>42.0</ele><time>2026-04-25T09:47:50.079Z</time></trkpt><trkpt lat="45.6031746" lon="13.8436612"><ele>39.666666666666664</ele><time>2026-04-25T09:47:51.075Z</time></trkpt><trkpt lat="45.6031111" lon="13.8433898"><ele>37.33333333333333</ele><time>2026-04-25T09:47:52.088Z</time></trkpt><trkpt lat="45.6030584" lon="13.8431195"><ele>35.0</ele><time>2026-04-25T09:47:53.086Z</time></trkpt><trkpt lat="45.6030099" lon="13.8428364"><ele>35.0</ele><time>2026-04-25T09:47:54.087Z</time></trkpt><trkpt lat="45.6029738" lon="13.8425507"><ele>35.0</ele><time>2026-04-25T09:47:55.086Z</time></trkpt><trkpt lat="45.6029499" lon="13.8422727"><ele>35.0</ele><time>2026-04-25T09:47:56.09Z</time></trkpt><trkpt lat="45.6029357" lon="13.8420057"><ele>35.0</ele><time>2026-04-25T09:47:57.084Z</time></trkpt><trkpt lat="45.6029219" lon="13.8417405"><ele>35.0</ele><time>2026-04-25T09:47:58.086Z</time></trkpt><trkpt lat="45.6029175" lon="13.841477"><ele>35.0</ele><time>2026-04-25T09:47:59.089Z</time></trkpt><trkpt lat="45.602927" lon="13.8412245"><ele>35.0</ele><time>2026-04-25T09:48:00.083Z</time></trkpt><trkpt lat="45.6029483" lon="13.8410117"><ele>35.0</ele><time>2026-04-25T09:48:01.092Z</time></trkpt><trkpt lat="45.6029772" lon="13.8408442"><ele>35.0</ele><time>2026-04-25T09:48:02.088Z</time></trkpt><trkpt lat="45.6030075" lon="13.840711"><ele>35.0</ele><time>2026-04-25T09:48:03.084Z</time></trkpt><trkpt lat="45.6030162" lon="13.8406145"><ele>35.0</ele><time>2026-04-25T09:48:04.084Z</time></trkpt><trkpt lat="45.6030267" lon="13.8405185"><ele>34.83333333333333</ele><time>2026-04-25T09:48:06.081Z</time></trkpt><trkpt lat="45.6029927" lon="13.8404118"><ele>34.666666666666664</ele><time>2026-04-25T09:48:11.089Z</time></trkpt><trkpt lat="45.6029324" lon="13.8403539"><ele>34.5</ele><time>2026-04-25T09:48:13.09Z</time></trkpt><trkpt lat="45.6028263" lon="13.8403227"><ele>34.333333333333336</ele><time>2026-04-25T09:48:15.082Z</time></trkpt><trkpt lat="45.6027515" lon="13.8403506"><ele>34.16666666666667</ele><time>2026-04-25T09:48:16.094Z</time></trkpt><trkpt lat="45.6026684" lon="13.8404061"><ele>34.0</ele><time>2026-04-25T09:48:17.083Z</time></trkpt><trkpt lat="45.6025862" lon="13.8404534"><ele>33.4</ele><time>2026-04-25T09:48:18.082Z</time></trkpt><trkpt lat="45.6025141" lon="13.8405133"><ele>32.8</ele><time>2026-04-25T09:48:19.085Z</time></trkpt><trkpt lat="45.6024522" lon="13.8405584"><ele>32.2</ele><time>2026-04-25T09:48:20.105Z</time></trkpt><trkpt lat="45.6023392" lon="13.8405915"><ele>31.6</ele><time>2026-04-25T09:48:22.086Z</time></trkpt><trkpt lat="45.6022167" lon="13.8405204"><ele>31.0</ele><time>2026-04-25T09:48:24.094Z</time></trkpt><trkpt lat="45.6021438" lon="13.8404725"><ele>31.0</ele><time>2026-04-25T09:48:25.09Z</time></trkpt><trkpt lat="45.6020541" lon="13.8404602"><ele>31.0</ele><time>2026-04-25T09:48:26.095Z</time></trkpt><trkpt lat="45.6019448" lon="13.8404791"><ele>31.0</ele><time>2026-04-25T09:48:27.079Z</time></trkpt><trkpt lat="45.6018252" lon="13.840509"><ele>31.0</ele><time>2026-04-25T09:48:28.109Z</time></trkpt><trkpt lat="45.6016963" lon="13.8405396"><ele>31.0</ele><time>2026-04-25T09:48:29.095Z</time></trkpt><trkpt lat="45.6015565" lon="13.840562"><ele>31.0</ele><time>2026-04-25T09:48:30.091Z</time></trkpt><trkpt lat="45.6014042" lon="13.8405737"><ele>31.0</ele><time>2026-04-25T09:48:31.09Z</time></trkpt><trkpt lat="45.6012438" lon="13.8405839"><ele>32.66666666666667</ele><time>2026-04-25T09:48:32.09Z</time></trkpt><trkpt lat="45.601072" lon="13.8405907"><ele>34.333333333333336</ele><time>2026-04-25T09:48:33.097Z</time></trkpt><trkpt lat="45.6009055" lon="13.8406075"><ele>36.0</ele><time>2026-04-25T09:48:34.09Z</time></trkpt><trkpt lat="45.6007495" lon="13.8406244"><ele>36.0</ele><time>2026-04-25T09:48:35.097Z</time></trkpt><trkpt lat="45.6006035" lon="13.8406348"><ele>36.0</ele><time>2026-04-25T09:48:36.089Z</time></trkpt><trkpt lat="45.6004707" lon="13.8406402"><ele>36.0</ele><time>2026-04-25T09:48:37.091Z</time></trkpt><trkpt lat="45.6003428" lon="13.8406487"><ele>36.0</ele><time>2026-04-25T09:48:38.087Z</time></trkpt><trkpt lat="45.6002101" lon="13.8406712"><ele>36.666666666666664</ele><time>2026-04-25T09:48:39.088Z</time></trkpt><trkpt lat="45.6000677" lon="13.840692"><ele>37.33333333333333</ele><time>2026-04-25T09:48:40.104Z</time></trkpt><trkpt lat="45.599919" lon="13.8407276"><ele>38.0</ele><time>2026-04-25T09:48:41.098Z</time></trkpt><trkpt lat="45.5997608" lon="13.8407622"><ele>38.0</ele><time>2026-04-25T09:48:42.099Z</time></trkpt><trkpt lat="45.5996078" lon="13.8408003"><ele>38.0</ele><time>2026-04-25T09:48:43.099Z</time></trkpt><trkpt lat="45.599464" lon="13.8408545"><ele>38.0</ele><time>2026-04-25T09:48:44.097Z</time></trkpt><trkpt lat="45.5993236" lon="13.8409343"><ele>37.33333333333333</ele><time>2026-04-25T09:48:45.106Z</time></trkpt><trkpt lat="45.599185" lon="13.8410413"><ele>36.666666666666664</ele><time>2026-04-25T09:48:46.087Z</time></trkpt><trkpt lat="45.5990485" lon="13.8411677"><ele>36.0</ele><time>2026-04-25T09:48:47.083Z</time></trkpt><trkpt lat="45.5989136" lon="13.8412877"><ele>36.0</ele><time>2026-04-25T09:48:48.092Z</time></trkpt><trkpt lat="45.5987702" lon="13.8414228"><ele>36.0</ele><time>2026-04-25T09:48:49.093Z</time></trkpt><trkpt lat="45.5986396" lon="13.8415597"><ele>36.0</ele><time>2026-04-25T09:48:50.086Z</time></trkpt><trkpt lat="45.5985215" lon="13.8416866"><ele>38.0</ele><time>2026-04-25T09:48:51.089Z</time></trkpt><trkpt lat="45.598411" lon="13.8418013"><ele>40.0</ele><time>2026-04-25T09:48:52.096Z</time></trkpt><trkpt lat="45.5982963" lon="13.841913"><ele>42.0</ele><time>2026-04-25T09:48:53.081Z</time></trkpt><trkpt lat="45.5981766" lon="13.8420044"><ele>44.0</ele><time>2026-04-25T09:48:54.089Z</time></trkpt><trkpt lat="45.5980489" lon="13.8420904"><ele>44.0</ele><time>2026-04-25T09:48:55.096Z</time></trkpt><trkpt lat="45.5979139" lon="13.8421797"><ele>44.0</ele><time>2026-04-25T09:48:56.098Z</time></trkpt><trkpt lat="45.5977825" lon="13.8422743"><ele>44.0</ele><time>2026-04-25T09:48:57.1Z</time></trkpt><trkpt lat="45.5976452" lon="13.8423654"><ele>44.0</ele><time>2026-04-25T09:48:58.093Z</time></trkpt><trkpt lat="45.5975043" lon="13.8424571"><ele>44.0</ele><time>2026-04-25T09:48:59.095Z</time></trkpt><trkpt lat="45.5973607" lon="13.8425589"><ele>44.0</ele><time>2026-04-25T09:49:00.108Z</time></trkpt><trkpt lat="45.5972193" lon="13.842661"><ele>44.0</ele><time>2026-04-25T09:49:01.102Z</time></trkpt><trkpt lat="45.5970949" lon="13.8427461"><ele>44.6</ele><time>2026-04-25T09:49:02.092Z</time></trkpt><trkpt lat="45.596981" lon="13.8428252"><ele>45.2</ele><time>2026-04-25T09:49:03.095Z</time></trkpt><trkpt lat="45.5968812" lon="13.8428903"><ele>45.800000000000004</ele><time>2026-04-25T09:49:04.095Z</time></trkpt><trkpt lat="45.5967895" lon="13.8429526"><ele>46.400000000000006</ele><time>2026-04-25T09:49:05.098Z</time></trkpt><trkpt lat="45.5967074" lon="13.8430092"><ele>47.0</ele><time>2026-04-25T09:49:06.096Z</time></trkpt><trkpt lat="45.5966267" lon="13.8430606"><ele>47.0</ele><time>2026-04-25T09:49:07.093Z</time></trkpt><trkpt lat="45.5965553" lon="13.8431008"><ele>47.0</ele><time>2026-04-25T09:49:08.083Z</time></trkpt><trkpt lat="45.5964817" lon="13.8431214"><ele>47.0</ele><time>2026-04-25T09:49:09.088Z</time></trkpt><trkpt lat="45.5964081" lon="13.8431143"><ele>47.0</ele><time>2026-04-25T09:49:10.097Z</time></trkpt><trkpt lat="45.5963293" lon="13.8430879"><ele>47.0</ele><time>2026-04-25T09:49:11.085Z</time></trkpt><trkpt lat="45.5962538" lon="13.8430316"><ele>47.0</ele><time>2026-04-25T09:49:12.089Z</time></trkpt><trkpt lat="45.5961829" lon="13.8429507"><ele>50.6</ele><time>2026-04-25T09:49:13.089Z</time></trkpt><trkpt lat="45.5961298" lon="13.8428412"><ele>54.2</ele><time>2026-04-25T09:49:14.088Z</time></trkpt><trkpt lat="45.5960941" lon="13.8426955"><ele>57.8</ele><time>2026-04-25T09:49:15.082Z</time></trkpt><trkpt lat="45.5960723" lon="13.8425278"><ele>61.4</ele><time>2026-04-25T09:49:16.079Z</time></trkpt><trkpt lat="45.5960549" lon="13.8423589"><ele>65.0</ele><time>2026-04-25T09:49:17.084Z</time></trkpt><trkpt lat="45.5960478" lon="13.842182"><ele>65.75</ele><time>2026-04-25T09:49:18.082Z</time></trkpt><trkpt lat="45.5960574" lon="13.841998"><ele>66.5</ele><time>2026-04-25T09:49:19.076Z</time></trkpt><trkpt lat="45.5960816" lon="13.8418105"><ele>67.25</ele><time>2026-04-25T09:49:20.079Z</time></trkpt><trkpt lat="45.5961241" lon="13.8416209"><ele>68.0</ele><time>2026-04-25T09:49:21.085Z</time></trkpt><trkpt lat="45.5961786" lon="13.8414257"><ele>63.333333333333336</ele><time>2026-04-25T09:49:22.078Z</time></trkpt><trkpt lat="45.5962339" lon="13.8412294"><ele>58.66666666666667</ele><time>2026-04-25T09:49:23.078Z</time></trkpt><trkpt lat="45.5962926" lon="13.8410206"><ele>54.0</ele><time>2026-04-25T09:49:24.08Z</time></trkpt><trkpt lat="45.5963571" lon="13.8408155"><ele>54.0</ele><time>2026-04-25T09:49:25.071Z</time></trkpt><trkpt lat="45.5964086" lon="13.8406305"><ele>54.0</ele><time>2026-04-25T09:49:26.07Z</time></trkpt><trkpt lat="45.596454" lon="13.8404381"><ele>54.0</ele><time>2026-04-25T09:49:27.067Z</time></trkpt><trkpt lat="45.5964866" lon="13.8402362"><ele>54.0</ele><time>2026-04-25T09:49:28.085Z</time></trkpt><trkpt lat="45.5965007" lon="13.840015"><ele>55.33333333333333</ele><time>2026-04-25T09:49:29.071Z</time></trkpt><trkpt lat="45.5965017" lon="13.8397926"><ele>56.666666666666664</ele><time>2026-04-25T09:49:30.077Z</time></trkpt><trkpt lat="45.5964924" lon="13.8395633"><ele>58.0</ele><time>2026-04-25T09:49:31.087Z</time></trkpt><trkpt lat="45.5964657" lon="13.8393314"><ele>57.666666666666664</ele><time>2026-04-25T09:49:32.074Z</time></trkpt><trkpt lat="45.5964272" lon="13.8391157"><ele>57.33333333333333</ele><time>2026-04-25T09:49:33.084Z</time></trkpt><trkpt lat="45.5963682" lon="13.8389109"><ele>57.0</ele><time>2026-04-25T09:49:34.079Z</time></trkpt><trkpt lat="45.5963021" lon="13.8387122"><ele>57.0</ele><time>2026-04-25T09:49:35.073Z</time></trkpt><trkpt lat="45.5962294" lon="13.8385087"><ele>57.0</ele><time>2026-04-25T09:49:36.08Z</time></trkpt><trkpt lat="45.5961579" lon="13.8382959"><ele>57.0</ele><time>2026-04-25T09:49:37.073Z</time></trkpt><trkpt lat="45.5960955" lon="13.8380815"><ele>65.66666666666667</ele><time>2026-04-25T09:49:38.072Z</time></trkpt><trkpt lat="45.5960339" lon="13.8378679"><ele>74.33333333333334</ele><time>2026-04-25T09:49:39.077Z</time></trkpt><trkpt lat="45.5959656" lon="13.8376621"><ele>83.0</ele><time>2026-04-25T09:49:40.08Z</time></trkpt><trkpt lat="45.5958902" lon="13.8374652"><ele>83.0</ele><time>2026-04-25T09:49:41.077Z</time></trkpt><trkpt lat="45.5958164" lon="13.8372847"><ele>83.0</ele><time>2026-04-25T09:49:42.078Z</time></trkpt><trkpt lat="45.5957403" lon="13.8371245"><ele>83.0</ele><time>2026-04-25T09:49:43.081Z</time></trkpt><trkpt lat="45.5956751" lon="13.8369883"><ele>83.0</ele><time>2026-04-25T09:49:44.089Z</time></trkpt><trkpt lat="45.5956143" lon="13.8368769"><ele>84.66666666666667</ele><time>2026-04-25T09:49:45.08Z</time></trkpt><trkpt lat="45.5955511" lon="13.8367859"><ele>86.33333333333334</ele><time>2026-04-25T09:49:46.079Z</time></trkpt><trkpt lat="45.5954774" lon="13.8367321"><ele>88.0</ele><time>2026-04-25T09:49:47.088Z</time></trkpt><trkpt lat="45.595402" lon="13.8367258"><ele>89.66666666666667</ele><time>2026-04-25T09:49:48.075Z</time></trkpt><trkpt lat="45.5953311" lon="13.8367766"><ele>91.33333333333333</ele><time>2026-04-25T09:49:49.087Z</time></trkpt><trkpt lat="45.595272" lon="13.8368777"><ele>93.0</ele><time>2026-04-25T09:49:50.085Z</time></trkpt><trkpt lat="45.5952459" lon="13.8370007"><ele>95.0</ele><time>2026-04-25T09:49:51.076Z</time></trkpt><trkpt lat="45.5952627" lon="13.8371325"><ele>97.0</ele><time>2026-04-25T09:49:52.092Z</time></trkpt><trkpt lat="45.5953219" lon="13.8372824"><ele>99.0</ele><time>2026-04-25T09:49:53.075Z</time></trkpt><trkpt lat="45.5954013" lon="13.8374202"><ele>101.0</ele><time>2026-04-25T09:49:54.078Z</time></trkpt><trkpt lat="45.5954866" lon="13.8375667"><ele>98.19999999999999</ele><time>2026-04-25T09:49:55.077Z</time></trkpt><trkpt lat="45.5955698" lon="13.837714"><ele>95.39999999999999</ele><time>2026-04-25T09:49:56.081Z</time></trkpt><trkpt lat="45.5956446" lon="13.8378414"><ele>92.6</ele><time>2026-04-25T09:49:57.085Z</time></trkpt><trkpt lat="45.5957073" lon="13.837951"><ele>89.8</ele><time>2026-04-25T09:49:58.074Z</time></trkpt><trkpt lat="45.5957616" lon="13.8380553"><ele>87.0</ele><time>2026-04-25T09:49:59.08Z</time></trkpt><trkpt lat="45.5957941" lon="13.8381626"><ele>87.0</ele><time>2026-04-25T09:50:00.078Z</time></trkpt><trkpt lat="45.5957806" lon="13.8382788"><ele>87.0</ele><time>2026-04-25T09:50:01.089Z</time></trkpt><trkpt lat="45.5957305" lon="13.838374"><ele>87.0</ele><time>2026-04-25T09:50:02.076Z</time></trkpt><trkpt lat="45.5956562" lon="13.8384232"><ele>87.0</ele><time>2026-04-25T09:50:03.08Z</time></trkpt><trkpt lat="45.5955912" lon="13.8384301"><ele>87.0</ele><time>2026-04-25T09:50:04.08Z</time></trkpt><trkpt lat="45.5955361" lon="13.8383638"><ele>87.0</ele><time>2026-04-25T09:50:05.099Z</time></trkpt><trkpt lat="45.5954857" lon="13.8382554"><ele>87.0</ele><time>2026-04-25T09:50:06.082Z</time></trkpt><trkpt lat="45.5954374" lon="13.8381195"><ele>87.0</ele><time>2026-04-25T09:50:07.078Z</time></trkpt><trkpt lat="45.5953903" lon="13.8379685"><ele>87.0</ele><time>2026-04-25T09:50:08.076Z</time></trkpt><trkpt lat="45.5953284" lon="13.8378194"><ele>87.0</ele><time>2026-04-25T09:50:09.08Z</time></trkpt><trkpt lat="45.5952449" lon="13.8376753"><ele>91.66666666666666</ele><time>2026-04-25T09:50:10.084Z</time></trkpt><trkpt lat="45.5951441" lon="13.8375363"><ele>96.33333333333333</ele><time>2026-04-25T09:50:11.08Z</time></trkpt><trkpt lat="45.5950258" lon="13.8373947"><ele>101.0</ele><time>2026-04-25T09:50:12.084Z</time></trkpt><trkpt lat="45.594898" lon="13.8372545"><ele>101.0</ele><time>2026-04-25T09:50:13.084Z</time></trkpt><trkpt lat="45.5947646" lon="13.8371188"><ele>101.0</ele><time>2026-04-25T09:50:14.085Z</time></trkpt><trkpt lat="45.5946316" lon="13.836974"><ele>101.0</ele><time>2026-04-25T09:50:15.075Z</time></trkpt><trkpt lat="45.5944952" lon="13.8368125"><ele>105.0</ele><time>2026-04-25T09:50:16.08Z</time></trkpt><trkpt lat="45.5943667" lon="13.8366505"><ele>109.0</ele><time>2026-04-25T09:50:17.077Z</time></trkpt><trkpt lat="45.5942564" lon="13.8364873"><ele>113.0</ele><time>2026-04-25T09:50:18.078Z</time></trkpt><trkpt lat="45.5941642" lon="13.836337"><ele>113.0</ele><time>2026-04-25T09:50:19.079Z</time></trkpt><trkpt lat="45.5940934" lon="13.8361876"><ele>113.0</ele><time>2026-04-25T09:50:20.072Z</time></trkpt><trkpt lat="45.5940452" lon="13.836037"><ele>113.0</ele><time>2026-04-25T09:50:21.075Z</time></trkpt><trkpt lat="45.5940145" lon="13.8358705"><ele>113.0</ele><time>2026-04-25T09:50:22.079Z</time></trkpt><trkpt lat="45.5939957" lon="13.8356915"><ele>111.25</ele><time>2026-04-25T09:50:23.071Z</time></trkpt><trkpt lat="45.5939914" lon="13.8355001"><ele>109.5</ele><time>2026-04-25T09:50:24.077Z</time></trkpt><trkpt lat="45.5939831" lon="13.8352896"><ele>107.75</ele><time>2026-04-25T09:50:25.077Z</time></trkpt><trkpt lat="45.5939754" lon="13.8350754"><ele>106.0</ele><time>2026-04-25T09:50:26.075Z</time></trkpt><trkpt lat="45.5939676" lon="13.8348556"><ele>106.0</ele><time>2026-04-25T09:50:27.076Z</time></trkpt><trkpt lat="45.5939679" lon="13.834642"><ele>106.0</ele><time>2026-04-25T09:50:28.073Z</time></trkpt><trkpt lat="45.5939945" lon="13.8344216"><ele>106.0</ele><time>2026-04-25T09:50:29.079Z</time></trkpt><trkpt lat="45.5940391" lon="13.83422"><ele>106.75</ele><time>2026-04-25T09:50:30.075Z</time></trkpt><trkpt lat="45.5941001" lon="13.834045"><ele>107.5</ele><time>2026-04-25T09:50:31.082Z</time></trkpt><trkpt lat="45.5941559" lon="13.8338792"><ele>108.25</ele><time>2026-04-25T09:50:32.077Z</time></trkpt><trkpt lat="45.5942252" lon="13.8337382"><ele>109.0</ele><time>2026-04-25T09:50:33.07Z</time></trkpt><trkpt lat="45.5942689" lon="13.8336166"><ele>109.0</ele><time>2026-04-25T09:50:34.081Z</time></trkpt><trkpt lat="45.5942877" lon="13.8334933"><ele>109.0</ele><time>2026-04-25T09:50:35.079Z</time></trkpt><trkpt lat="45.5942762" lon="13.8333668"><ele>109.0</ele><time>2026-04-25T09:50:36.088Z</time></trkpt><trkpt lat="45.5942336" lon="13.8332548"><ele>109.0</ele><time>2026-04-25T09:50:37.083Z</time></trkpt><trkpt lat="45.5941583" lon="13.833172"><ele>109.0</ele><time>2026-04-25T09:50:38.08Z</time></trkpt><trkpt lat="45.5940628" lon="13.8331767"><ele>109.0</ele><time>2026-04-25T09:50:39.077Z</time></trkpt><trkpt lat="45.5939811" lon="13.8332682"><ele>109.0</ele><time>2026-04-25T09:50:40.076Z</time></trkpt><trkpt lat="45.5939269" lon="13.8333948"><ele>109.0</ele><time>2026-04-25T09:50:41.089Z</time></trkpt><trkpt lat="45.5938933" lon="13.8335654"><ele>109.0</ele><time>2026-04-25T09:50:42.082Z</time></trkpt><trkpt lat="45.5938615" lon="13.8337391"><ele>109.0</ele><time>2026-04-25T09:50:43.075Z</time></trkpt><trkpt lat="45.593828" lon="13.8339289"><ele>109.0</ele><time>2026-04-25T09:50:44.081Z</time></trkpt><trkpt lat="45.5937923" lon="13.8341246"><ele>109.0</ele><time>2026-04-25T09:50:45.076Z</time></trkpt><trkpt lat="45.5937302" lon="13.8343144"><ele>109.0</ele><time>2026-04-25T09:50:46.08Z</time></trkpt><trkpt lat="45.5936502" lon="13.8345007"><ele>114.25</ele><time>2026-04-25T09:50:47.082Z</time></trkpt><trkpt lat="45.5935705" lon="13.8346965"><ele>119.5</ele><time>2026-04-25T09:50:48.083Z</time></trkpt><trkpt lat="45.5935153" lon="13.8348919"><ele>124.75</ele><time>2026-04-25T09:50:49.083Z</time></trkpt><trkpt lat="45.5934724" lon="13.8350526"><ele>130.0</ele><time>2026-04-25T09:50:50.075Z</time></trkpt><trkpt lat="45.5934487" lon="13.8352142"><ele>130.0</ele><time>2026-04-25T09:50:51.081Z</time></trkpt><trkpt lat="45.5934331" lon="13.8353596"><ele>130.0</ele><time>2026-04-25T09:50:52.083Z</time></trkpt><trkpt lat="45.5934203" lon="13.8355038"><ele>130.0</ele><time>2026-04-25T09:50:53.084Z</time></trkpt><trkpt lat="45.5934088" lon="13.8356406"><ele>130.0</ele><time>2026-04-25T09:50:54.09Z</time></trkpt><trkpt lat="45.5934014" lon="13.8357775"><ele>130.0</ele><time>2026-04-25T09:50:55.084Z</time></trkpt><trkpt lat="45.5933944" lon="13.8359298"><ele>130.6</ele><time>2026-04-25T09:50:56.082Z</time></trkpt><trkpt lat="45.5933874" lon="13.836079"><ele>131.2</ele><time>2026-04-25T09:50:57.079Z</time></trkpt><trkpt lat="45.5933673" lon="13.8362195"><ele>131.8</ele><time>2026-04-25T09:50:58.101Z</time></trkpt><trkpt lat="45.5933293" lon="13.8363466"><ele>132.4</ele><time>2026-04-25T09:50:59.08Z</time></trkpt><trkpt lat="45.5932729" lon="13.8364545"><ele>133.0</ele><time>2026-04-25T09:51:00.089Z</time></trkpt><trkpt lat="45.593205" lon="13.8365526"><ele>133.0</ele><time>2026-04-25T09:51:01.086Z</time></trkpt><trkpt lat="45.5931187" lon="13.8366251"><ele>133.0</ele><time>2026-04-25T09:51:02.097Z</time></trkpt><trkpt lat="45.5930315" lon="13.8366569"><ele>133.0</ele><time>2026-04-25T09:51:03.083Z</time></trkpt><trkpt lat="45.5929473" lon="13.8366583"><ele>133.0</ele><time>2026-04-25T09:51:04.087Z</time></trkpt><trkpt lat="45.5928765" lon="13.8366774"><ele>133.0</ele><time>2026-04-25T09:51:05.086Z</time></trkpt><trkpt lat="45.5928045" lon="13.8367137"><ele>133.0</ele><time>2026-04-25T09:51:06.087Z</time></trkpt><trkpt lat="45.5927176" lon="13.8367703"><ele>134.6</ele><time>2026-04-25T09:51:07.082Z</time></trkpt><trkpt lat="45.5926199" lon="13.8368273"><ele>136.20000000000002</ele><time>2026-04-25T09:51:08.079Z</time></trkpt><trkpt lat="45.5925296" lon="13.8368936"><ele>137.8</ele><time>2026-04-25T09:51:09.082Z</time></trkpt><trkpt lat="45.5924572" lon="13.8369623"><ele>139.4</ele><time>2026-04-25T09:51:10.081Z</time></trkpt><trkpt lat="45.5923946" lon="13.8370345"><ele>141.0</ele><time>2026-04-25T09:51:11.081Z</time></trkpt><trkpt lat="45.5923312" lon="13.8370968"><ele>141.0</ele><time>2026-04-25T09:51:12.081Z</time></trkpt><trkpt lat="45.592264" lon="13.8371526"><ele>141.0</ele><time>2026-04-25T09:51:13.08Z</time></trkpt><trkpt lat="45.592203" lon="13.8372148"><ele>141.0</ele><time>2026-04-25T09:51:14.069Z</time></trkpt><trkpt lat="45.5921445" lon="13.837293"><ele>141.0</ele><time>2026-04-25T09:51:15.079Z</time></trkpt><trkpt lat="45.5920779" lon="13.8373628"><ele>141.0</ele><time>2026-04-25T09:51:16.079Z</time></trkpt><trkpt lat="45.5920157" lon="13.8374441"><ele>141.0</ele><time>2026-04-25T09:51:17.085Z</time></trkpt><trkpt lat="45.5919561" lon="13.8375117"><ele>139.71428571428572</ele><time>2026-04-25T09:51:18.079Z</time></trkpt><trkpt lat="45.5919015" lon="13.8375805"><ele>138.42857142857142</ele><time>2026-04-25T09:51:19.081Z</time></trkpt><trkpt lat="45.5918528" lon="13.8376473"><ele>137.14285714285714</ele><time>2026-04-25T09:51:20.082Z</time></trkpt><trkpt lat="45.5917991" lon="13.8377154"><ele>135.85714285714286</ele><time>2026-04-25T09:51:21.074Z</time></trkpt><trkpt lat="45.5917482" lon="13.8377979"><ele>134.57142857142858</ele><time>2026-04-25T09:51:22.087Z</time></trkpt><trkpt lat="45.5917051" lon="13.8378894"><ele>133.28571428571428</ele><time>2026-04-25T09:51:23.082Z</time></trkpt><trkpt lat="45.5916643" lon="13.8379887"><ele>132.0</ele><time>2026-04-25T09:51:24.075Z</time></trkpt><trkpt lat="45.5916155" lon="13.8380731"><ele>132.0</ele><time>2026-04-25T09:51:25.08Z</time></trkpt><trkpt lat="45.59157" lon="13.8381615"><ele>132.0</ele><time>2026-04-25T09:51:26.076Z</time></trkpt><trkpt lat="45.5915263" lon="13.8382477"><ele>132.0</ele><time>2026-04-25T09:51:27.071Z</time></trkpt><trkpt lat="45.5914847" lon="13.8383423"><ele>132.0</ele><time>2026-04-25T09:51:28.07Z</time></trkpt><trkpt lat="45.5914346" lon="13.8384325"><ele>132.0</ele><time>2026-04-25T09:51:29.077Z</time></trkpt><trkpt lat="45.5913825" lon="13.838499"><ele>132.0</ele><time>2026-04-25T09:51:30.074Z</time></trkpt><trkpt lat="45.5913126" lon="13.838535"><ele>132.42857142857142</ele><time>2026-04-25T09:51:31.065Z</time></trkpt><trkpt lat="45.5912357" lon="13.838549"><ele>132.85714285714286</ele><time>2026-04-25T09:51:32.071Z</time></trkpt><trkpt lat="45.5911611" lon="13.8385356"><ele>133.28571428571428</ele><time>2026-04-25T09:51:33.076Z</time></trkpt><trkpt lat="45.5910982" lon="13.8384917"><ele>133.71428571428572</ele><time>2026-04-25T09:51:34.072Z</time></trkpt><trkpt lat="45.5910284" lon="13.8384653"><ele>134.14285714285714</ele><time>2026-04-25T09:51:35.074Z</time></trkpt><trkpt lat="45.590956" lon="13.8384404"><ele>134.57142857142856</ele><time>2026-04-25T09:51:36.069Z</time></trkpt><trkpt lat="45.5908841" lon="13.8384221"><ele>135.0</ele><time>2026-04-25T09:51:37.077Z</time></trkpt><trkpt lat="45.5907772" lon="13.838379"><ele>132.2</ele><time>2026-04-25T09:51:39.068Z</time></trkpt><trkpt lat="45.5907054" lon="13.8383418"><ele>129.4</ele><time>2026-04-25T09:51:41.084Z</time></trkpt><trkpt lat="45.5906338" lon="13.8382921"><ele>126.6</ele><time>2026-04-25T09:51:43.073Z</time></trkpt><trkpt lat="45.590547" lon="13.8382483"><ele>123.8</ele><time>2026-04-25T09:51:45.069Z</time></trkpt><trkpt lat="45.5904055" lon="13.8381675"><ele>121.0</ele><time>2026-04-25T09:51:47.072Z</time></trkpt><trkpt lat="45.5903255" lon="13.8381168"><ele>121.00000000000001</ele><time>2026-04-25T09:51:48.087Z</time></trkpt><trkpt lat="45.5902375" lon="13.8380518"><ele>121.0</ele><time>2026-04-25T09:51:49.074Z</time></trkpt><trkpt lat="45.5901715" lon="13.8379954"><ele>121.0</ele><time>2026-04-25T09:51:50.066Z</time></trkpt><trkpt lat="45.590107" lon="13.837956"><ele>121.0</ele><time>2026-04-25T09:51:51.074Z</time></trkpt><trkpt lat="45.5899945" lon="13.8378854"><ele>121.00000000000001</ele><time>2026-04-25T09:51:53.064Z</time></trkpt><trkpt lat="45.5899304" lon="13.8378321"><ele>121.0</ele><time>2026-04-25T09:51:54.08Z</time></trkpt><trkpt lat="45.5898658" lon="13.8377739"><ele>121.00000000000001</ele><time>2026-04-25T09:51:55.077Z</time></trkpt><trkpt lat="45.5898029" lon="13.8377243"><ele>121.0</ele><time>2026-04-25T09:51:56.071Z</time></trkpt><trkpt lat="45.5897387" lon="13.8376743"><ele>121.0</ele><time>2026-04-25T09:51:57.072Z</time></trkpt><trkpt lat="45.5896563" lon="13.8376234"><ele>121.0</ele><time>2026-04-25T09:51:58.08Z</time></trkpt><trkpt lat="45.5895752" lon="13.8375829"><ele>121.00000000000001</ele><time>2026-04-25T09:51:59.074Z</time></trkpt><trkpt lat="45.5895063" lon="13.8375554"><ele>121.0</ele><time>2026-04-25T09:52:00.074Z</time></trkpt><trkpt lat="45.5894412" lon="13.8375426"><ele>118.50000000000001</ele><time>2026-04-25T09:52:01.078Z</time></trkpt><trkpt lat="45.5893629" lon="13.837537"><ele>116.0</ele><time>2026-04-25T09:52:02.075Z</time></trkpt><trkpt lat="45.5892811" lon="13.8375613"><ele>113.5</ele><time>2026-04-25T09:52:03.078Z</time></trkpt><trkpt lat="45.5891692" lon="13.8375737"><ele>111.0</ele><time>2026-04-25T09:52:05.074Z</time></trkpt><trkpt lat="45.5891052" lon="13.8375751"><ele>108.50000000000001</ele><time>2026-04-25T09:52:07.076Z</time></trkpt><trkpt lat="45.589041" lon="13.8375735"><ele>106.0</ele><time>2026-04-25T09:52:09.08Z</time></trkpt><trkpt lat="45.5889711" lon="13.8375903"><ele>106.00000000000001</ele><time>2026-04-25T09:52:11.077Z</time></trkpt><trkpt lat="45.5889001" lon="13.8376051"><ele>106.0</ele><time>2026-04-25T09:52:13.065Z</time></trkpt><trkpt lat="45.5888335" lon="13.8376124"><ele>106.0</ele><time>2026-04-25T09:52:15.063Z</time></trkpt><trkpt lat="45.5887601" lon="13.8376727"><ele>106.0</ele><time>2026-04-25T09:52:18.076Z</time></trkpt><trkpt lat="45.5887015" lon="13.8377989"><ele>106.00000000000001</ele><time>2026-04-25T09:52:20.071Z</time></trkpt><trkpt lat="45.5886608" lon="13.8379022"><ele>106.0</ele><time>2026-04-25T09:52:21.075Z</time></trkpt><trkpt lat="45.5886122" lon="13.8380218"><ele>103.8</ele><time>2026-04-25T09:52:22.073Z</time></trkpt><trkpt lat="45.5885624" lon="13.8381386"><ele>101.6</ele><time>2026-04-25T09:52:23.075Z</time></trkpt><trkpt lat="45.5885095" lon="13.8382525"><ele>99.4</ele><time>2026-04-25T09:52:24.077Z</time></trkpt><trkpt lat="45.5884597" lon="13.8383554"><ele>97.2</ele><time>2026-04-25T09:52:25.063Z</time></trkpt><trkpt lat="45.5884083" lon="13.8384664"><ele>95.0</ele><time>2026-04-25T09:52:26.07Z</time></trkpt><trkpt lat="45.5883624" lon="13.8385738"><ele>95.0</ele><time>2026-04-25T09:52:27.067Z</time></trkpt><trkpt lat="45.5883115" lon="13.8386957"><ele>95.0</ele><time>2026-04-25T09:52:28.072Z</time></trkpt><trkpt lat="45.5882506" lon="13.8388158"><ele>95.0</ele><time>2026-04-25T09:52:29.071Z</time></trkpt><trkpt lat="45.588184" lon="13.8389256"><ele>95.0</ele><time>2026-04-25T09:52:30.08Z</time></trkpt><trkpt lat="45.5881212" lon="13.8390264"><ele>95.0</ele><time>2026-04-25T09:52:31.072Z</time></trkpt><trkpt lat="45.5880609" lon="13.8391221"><ele>95.0</ele><time>2026-04-25T09:52:32.076Z</time></trkpt><trkpt lat="45.5879962" lon="13.8392142"><ele>95.0</ele><time>2026-04-25T09:52:33.074Z</time></trkpt><trkpt lat="45.5879388" lon="13.8393015"><ele>95.0</ele><time>2026-04-25T09:52:34.074Z</time></trkpt><trkpt lat="45.5878846" lon="13.8393845"><ele>95.0</ele><time>2026-04-25T09:52:35.072Z</time></trkpt><trkpt lat="45.5878253" lon="13.8394656"><ele>95.0</ele><time>2026-04-25T09:52:36.078Z</time></trkpt><trkpt lat="45.5877614" lon="13.8395434"><ele>95.0</ele><time>2026-04-25T09:52:37.078Z</time></trkpt><trkpt lat="45.5876937" lon="13.8396142"><ele>92.83333333333334</ele><time>2026-04-25T09:52:38.065Z</time></trkpt><trkpt lat="45.5876263" lon="13.8396948"><ele>90.66666666666667</ele><time>2026-04-25T09:52:39.089Z</time></trkpt><trkpt lat="45.587555" lon="13.8397919"><ele>88.5</ele><time>2026-04-25T09:52:40.072Z</time></trkpt><trkpt lat="45.5874935" lon="13.839886"><ele>86.33333333333333</ele><time>2026-04-25T09:52:41.079Z</time></trkpt><trkpt lat="45.5874336" lon="13.8399683"><ele>84.16666666666666</ele><time>2026-04-25T09:52:42.076Z</time></trkpt><trkpt lat="45.5873739" lon="13.8400476"><ele>82.0</ele><time>2026-04-25T09:52:43.081Z</time></trkpt><trkpt lat="45.5873054" lon="13.8401216"><ele>83.33333333333333</ele><time>2026-04-25T09:52:44.077Z</time></trkpt><trkpt lat="45.5872287" lon="13.8401745"><ele>84.66666666666666</ele><time>2026-04-25T09:52:45.074Z</time></trkpt><trkpt lat="45.5871413" lon="13.8401845"><ele>86.0</ele><time>2026-04-25T09:52:46.08Z</time></trkpt><trkpt lat="45.5870659" lon="13.8401704"><ele>87.33333333333333</ele><time>2026-04-25T09:52:47.076Z</time></trkpt><trkpt lat="45.5869853" lon="13.8401367"><ele>88.66666666666667</ele><time>2026-04-25T09:52:48.073Z</time></trkpt><trkpt lat="45.5869133" lon="13.8401069"><ele>90.0</ele><time>2026-04-25T09:52:49.079Z</time></trkpt><trkpt lat="45.5868432" lon="13.8400822"><ele>87.71428571428571</ele><time>2026-04-25T09:52:50.081Z</time></trkpt><trkpt lat="45.5867748" lon="13.8400714"><ele>85.42857142857143</ele><time>2026-04-25T09:52:51.076Z</time></trkpt><trkpt lat="45.586703" lon="13.840068"><ele>83.14285714285714</ele><time>2026-04-25T09:52:52.082Z</time></trkpt><trkpt lat="45.5866293" lon="13.8400886"><ele>80.85714285714286</ele><time>2026-04-25T09:52:53.081Z</time></trkpt><trkpt lat="45.5865544" lon="13.8401187"><ele>78.57142857142857</ele><time>2026-04-25T09:52:54.079Z</time></trkpt><trkpt lat="45.5864861" lon="13.8401656"><ele>76.28571428571429</ele><time>2026-04-25T09:52:55.08Z</time></trkpt><trkpt lat="45.5864343" lon="13.840236"><ele>74.0</ele><time>2026-04-25T09:52:56.074Z</time></trkpt><trkpt lat="45.5864033" lon="13.8403374"><ele>74.0</ele><time>2026-04-25T09:52:57.083Z</time></trkpt><trkpt lat="45.5863893" lon="13.8404534"><ele>74.0</ele><time>2026-04-25T09:52:58.084Z</time></trkpt><trkpt lat="45.5863696" lon="13.8405728"><ele>74.0</ele><time>2026-04-25T09:52:59.073Z</time></trkpt><trkpt lat="45.5863516" lon="13.840684"><ele>74.0</ele><time>2026-04-25T09:53:00.072Z</time></trkpt><trkpt lat="45.586333" lon="13.8407903"><ele>74.0</ele><time>2026-04-25T09:53:01.078Z</time></trkpt><trkpt lat="45.5863074" lon="13.8408834"><ele>74.0</ele><time>2026-04-25T09:53:02.069Z</time></trkpt><trkpt lat="45.5862722" lon="13.8409614"><ele>73.83333333333334</ele><time>2026-04-25T09:53:03.082Z</time></trkpt><trkpt lat="45.5861659" lon="13.8410329"><ele>73.66666666666667</ele><time>2026-04-25T09:53:05.082Z</time></trkpt><trkpt lat="45.5860928" lon="13.8410045"><ele>73.5</ele><time>2026-04-25T09:53:06.065Z</time></trkpt><trkpt lat="45.5860429" lon="13.8409453"><ele>73.33333333333333</ele><time>2026-04-25T09:53:07.078Z</time></trkpt><trkpt lat="45.5860067" lon="13.8408647"><ele>73.16666666666666</ele><time>2026-04-25T09:53:08.068Z</time></trkpt><trkpt lat="45.5859776" lon="13.8407565"><ele>73.0</ele><time>2026-04-25T09:53:09.075Z</time></trkpt><trkpt lat="45.5859477" lon="13.8406513"><ele>70.33333333333333</ele><time>2026-04-25T09:53:10.071Z</time></trkpt><trkpt lat="45.585907" lon="13.8405444"><ele>67.66666666666666</ele><time>2026-04-25T09:53:11.089Z</time></trkpt><trkpt lat="45.5858645" lon="13.840447"><ele>65.0</ele><time>2026-04-25T09:53:12.071Z</time></trkpt><trkpt lat="45.5858085" lon="13.8403654"><ele>62.33333333333333</ele><time>2026-04-25T09:53:13.069Z</time></trkpt><trkpt lat="45.585748" lon="13.8402828"><ele>59.666666666666664</ele><time>2026-04-25T09:53:14.078Z</time></trkpt><trkpt lat="45.5856893" lon="13.840202"><ele>57.0</ele><time>2026-04-25T09:53:15.084Z</time></trkpt><trkpt lat="45.5856315" lon="13.8401238"><ele>56.0</ele><time>2026-04-25T09:53:16.083Z</time></trkpt><trkpt lat="45.5855655" lon="13.840054"><ele>55.0</ele><time>2026-04-25T09:53:17.08Z</time></trkpt><trkpt lat="45.585493" lon="13.8400025"><ele>54.0</ele><time>2026-04-25T09:53:18.08Z</time></trkpt><trkpt lat="45.5854072" lon="13.8399616"><ele>53.0</ele><time>2026-04-25T09:53:19.077Z</time></trkpt><trkpt lat="45.5853204" lon="13.8399234"><ele>52.0</ele><time>2026-04-25T09:53:20.077Z</time></trkpt><trkpt lat="45.5852264" lon="13.839885"><ele>51.0</ele><time>2026-04-25T09:53:21.079Z</time></trkpt><trkpt lat="45.5851394" lon="13.8398456"><ele>48.833333333333336</ele><time>2026-04-25T09:53:22.074Z</time></trkpt><trkpt lat="45.5850595" lon="13.8397896"><ele>46.666666666666664</ele><time>2026-04-25T09:53:23.08Z</time></trkpt><trkpt lat="45.5849806" lon="13.839737"><ele>44.5</ele><time>2026-04-25T09:53:24.082Z</time></trkpt><trkpt lat="45.5849027" lon="13.8396763"><ele>42.33333333333333</ele><time>2026-04-25T09:53:25.077Z</time></trkpt><trkpt lat="45.5848214" lon="13.8396233"><ele>40.166666666666664</ele><time>2026-04-25T09:53:26.071Z</time></trkpt><trkpt lat="45.5847383" lon="13.839566"><ele>38.0</ele><time>2026-04-25T09:53:27.071Z</time></trkpt><trkpt lat="45.5846542" lon="13.8395207"><ele>38.0</ele><time>2026-04-25T09:53:28.074Z</time></trkpt><trkpt lat="45.5845706" lon="13.8394745"><ele>38.0</ele><time>2026-04-25T09:53:29.096Z</time></trkpt><trkpt lat="45.5844938" lon="13.8393882"><ele>38.0</ele><time>2026-04-25T09:53:30.07Z</time></trkpt><trkpt lat="45.5844225" lon="13.8392721"><ele>38.0</ele><time>2026-04-25T09:53:31.081Z</time></trkpt><trkpt lat="45.5843513" lon="13.8391684"><ele>38.0</ele><time>2026-04-25T09:53:32.075Z</time></trkpt><trkpt lat="45.5842782" lon="13.8390724"><ele>34.5</ele><time>2026-04-25T09:53:33.079Z</time></trkpt><trkpt lat="45.584187" lon="13.8389952"><ele>31.0</ele><time>2026-04-25T09:53:34.074Z</time></trkpt><trkpt lat="45.5840796" lon="13.8389312"><ele>27.5</ele><time>2026-04-25T09:53:35.069Z</time></trkpt><trkpt lat="45.5839636" lon="13.8388883"><ele>24.0</ele><time>2026-04-25T09:53:36.078Z</time></trkpt><trkpt lat="45.5838595" lon="13.8388458"><ele>24.0</ele><time>2026-04-25T09:53:37.074Z</time></trkpt><trkpt lat="45.5837583" lon="13.8388053"><ele>24.0</ele><time>2026-04-25T09:53:38.085Z</time></trkpt><trkpt lat="45.5836686" lon="13.8387583"><ele>24.0</ele><time>2026-04-25T09:53:39.084Z</time></trkpt><trkpt lat="45.5835898" lon="13.8387026"><ele>24.0</ele><time>2026-04-25T09:53:40.076Z</time></trkpt><trkpt lat="45.5835077" lon="13.8386313"><ele>24.0</ele><time>2026-04-25T09:53:41.09Z</time></trkpt><trkpt lat="45.583425" lon="13.8385397"><ele>22.833333333333332</ele><time>2026-04-25T09:53:42.068Z</time></trkpt><trkpt lat="45.5833582" lon="13.8384374"><ele>21.666666666666668</ele><time>2026-04-25T09:53:43.073Z</time></trkpt><trkpt lat="45.5833021" lon="13.8383456"><ele>20.5</ele><time>2026-04-25T09:53:44.077Z</time></trkpt><trkpt lat="45.583259" lon="13.8382641"><ele>19.333333333333336</ele><time>2026-04-25T09:53:45.079Z</time></trkpt><trkpt lat="45.5832095" lon="13.8381498"><ele>18.166666666666668</ele><time>2026-04-25T09:53:47.075Z</time></trkpt><trkpt lat="45.5831693" lon="13.8380569"><ele>17.0</ele><time>2026-04-25T09:53:52.076Z</time></trkpt><trkpt lat="45.5830653" lon="13.8380593"><ele>17.0</ele><time>2026-04-25T09:53:55.066Z</time></trkpt><trkpt lat="45.5830042" lon="13.8381123"><ele>17.0</ele><time>2026-04-25T09:53:56.075Z</time></trkpt><trkpt lat="45.5829332" lon="13.8381975"><ele>17.0</ele><time>2026-04-25T09:53:57.068Z</time></trkpt><trkpt lat="45.5828596" lon="13.8382869"><ele>17.0</ele><time>2026-04-25T09:53:58.074Z</time></trkpt><trkpt lat="45.5827873" lon="13.8383682"><ele>17.0</ele><time>2026-04-25T09:53:59.069Z</time></trkpt><trkpt lat="45.5827003" lon="13.8384685"><ele>16.25</ele><time>2026-04-25T09:54:00.073Z</time></trkpt><trkpt lat="45.5826092" lon="13.8385742"><ele>15.5</ele><time>2026-04-25T09:54:01.07Z</time></trkpt><trkpt lat="45.582509" lon="13.838698"><ele>14.75</ele><time>2026-04-25T09:54:02.073Z</time></trkpt><trkpt lat="45.5824038" lon="13.8388368"><ele>14.0</ele><time>2026-04-25T09:54:03.072Z</time></trkpt><trkpt lat="45.5822956" lon="13.8389883"><ele>14.0</ele><time>2026-04-25T09:54:04.067Z</time></trkpt><trkpt lat="45.5821967" lon="13.8391343"><ele>14.0</ele><time>2026-04-25T09:54:05.075Z</time></trkpt><trkpt lat="45.5820991" lon="13.8392875"><ele>14.0</ele><time>2026-04-25T09:54:06.076Z</time></trkpt><trkpt lat="45.5820037" lon="13.8394405"><ele>14.0</ele><time>2026-04-25T09:54:07.073Z</time></trkpt><trkpt lat="45.5819045" lon="13.8396042"><ele>14.5</ele><time>2026-04-25T09:54:08.064Z</time></trkpt><trkpt lat="45.581803" lon="13.8397603"><ele>15.0</ele><time>2026-04-25T09:54:09.064Z</time></trkpt><trkpt lat="45.5816989" lon="13.8399113"><ele>15.5</ele><time>2026-04-25T09:54:10.072Z</time></trkpt><trkpt lat="45.5815897" lon="13.840052"><ele>16.0</ele><time>2026-04-25T09:54:11.073Z</time></trkpt><trkpt lat="45.5814913" lon="13.8401722"><ele>16.8</ele><time>2026-04-25T09:54:12.065Z</time></trkpt><trkpt lat="45.581403" lon="13.8402783"><ele>17.6</ele><time>2026-04-25T09:54:13.068Z</time></trkpt><trkpt lat="45.5813222" lon="13.8403731"><ele>18.4</ele><time>2026-04-25T09:54:14.062Z</time></trkpt><trkpt lat="45.5812496" lon="13.8404594"><ele>19.2</ele><time>2026-04-25T09:54:15.068Z</time></trkpt><trkpt lat="45.581191" lon="13.8405672"><ele>20.0</ele><time>2026-04-25T09:54:16.081Z</time></trkpt><trkpt lat="45.5811393" lon="13.8406939"><ele>20.0</ele><time>2026-04-25T09:54:17.078Z</time></trkpt><trkpt lat="45.5810944" lon="13.8408376"><ele>20.0</ele><time>2026-04-25T09:54:18.072Z</time></trkpt><trkpt lat="45.581064" lon="13.8410019"><ele>20.0</ele><time>2026-04-25T09:54:19.076Z</time></trkpt><trkpt lat="45.5810396" lon="13.8411575"><ele>20.0</ele><time>2026-04-25T09:54:20.082Z</time></trkpt><trkpt lat="45.5810225" lon="13.8412882"><ele>20.0</ele><time>2026-04-25T09:54:21.09Z</time></trkpt><trkpt lat="45.5810016" lon="13.8414172"><ele>20.0</ele><time>2026-04-25T09:54:22.083Z</time></trkpt><trkpt lat="45.5809561" lon="13.8415313"><ele>20.0</ele><time>2026-04-25T09:54:23.082Z</time></trkpt><trkpt lat="45.5808908" lon="13.8416565"><ele>20.0</ele><time>2026-04-25T09:54:24.086Z</time></trkpt><trkpt lat="45.5808014" lon="13.8417921"><ele>20.0</ele><time>2026-04-25T09:54:25.088Z</time></trkpt><trkpt lat="45.5807038" lon="13.8419414"><ele>22.0</ele><time>2026-04-25T09:54:26.072Z</time></trkpt><trkpt lat="45.5805948" lon="13.8421031"><ele>24.0</ele><time>2026-04-25T09:54:27.074Z</time></trkpt><trkpt lat="45.5804817" lon="13.8422717"><ele>26.0</ele><time>2026-04-25T09:54:28.076Z</time></trkpt><trkpt lat="45.5803734" lon="13.8424403"><ele>26.333333333333332</ele><time>2026-04-25T09:54:29.075Z</time></trkpt><trkpt lat="45.5802532" lon="13.8426073"><ele>26.666666666666664</ele><time>2026-04-25T09:54:30.082Z</time></trkpt><trkpt lat="45.5801225" lon="13.8427817"><ele>27.0</ele><time>2026-04-25T09:54:31.078Z</time></trkpt><trkpt lat="45.5799875" lon="13.8429432"><ele>27.0</ele><time>2026-04-25T09:54:32.075Z</time></trkpt><trkpt lat="45.5798571" lon="13.8431012"><ele>27.0</ele><time>2026-04-25T09:54:33.075Z</time></trkpt><trkpt lat="45.5797387" lon="13.8432488"><ele>27.0</ele><time>2026-04-25T09:54:34.079Z</time></trkpt><trkpt lat="45.5796202" lon="13.8433899"><ele>26.5</ele><time>2026-04-25T09:54:35.078Z</time></trkpt><trkpt lat="45.5795046" lon="13.8435147"><ele>26.0</ele><time>2026-04-25T09:54:36.077Z</time></trkpt><trkpt lat="45.5793911" lon="13.8436487"><ele>25.5</ele><time>2026-04-25T09:54:37.076Z</time></trkpt><trkpt lat="45.5792687" lon="13.8437757"><ele>25.0</ele><time>2026-04-25T09:54:38.077Z</time></trkpt><trkpt lat="45.5791482" lon="13.8439064"><ele>25.0</ele><time>2026-04-25T09:54:39.08Z</time></trkpt><trkpt lat="45.5790183" lon="13.8440446"><ele>25.0</ele><time>2026-04-25T09:54:40.078Z</time></trkpt><trkpt lat="45.5788795" lon="13.8441844"><ele>25.0</ele><time>2026-04-25T09:54:41.076Z</time></trkpt><trkpt lat="45.5787331" lon="13.8443362"><ele>24.0</ele><time>2026-04-25T09:54:42.078Z</time></trkpt><trkpt lat="45.5785905" lon="13.8444931"><ele>23.0</ele><time>2026-04-25T09:54:43.077Z</time></trkpt><trkpt lat="45.5784533" lon="13.8446692"><ele>22.0</ele><time>2026-04-25T09:54:44.076Z</time></trkpt><trkpt lat="45.5783247" lon="13.8448667"><ele>22.0</ele><time>2026-04-25T09:54:45.08Z</time></trkpt><trkpt lat="45.5782021" lon="13.8450767"><ele>22.0</ele><time>2026-04-25T09:54:46.081Z</time></trkpt><trkpt lat="45.578081" lon="13.8452774"><ele>22.0</ele><time>2026-04-25T09:54:47.075Z</time></trkpt><trkpt lat="45.5779624" lon="13.8454815"><ele>22.666666666666664</ele><time>2026-04-25T09:54:48.076Z</time></trkpt><trkpt lat="45.5778352" lon="13.8456765"><ele>23.333333333333332</ele><time>2026-04-25T09:54:49.072Z</time></trkpt><trkpt lat="45.5777088" lon="13.8458468"><ele>24.0</ele><time>2026-04-25T09:54:50.086Z</time></trkpt><trkpt lat="45.5775834" lon="13.8460103"><ele>25.333333333333336</ele><time>2026-04-25T09:54:51.079Z</time></trkpt><trkpt lat="45.5774601" lon="13.8461692"><ele>26.666666666666668</ele><time>2026-04-25T09:54:52.075Z</time></trkpt><trkpt lat="45.5773347" lon="13.8463329"><ele>28.0</ele><time>2026-04-25T09:54:53.077Z</time></trkpt><trkpt lat="45.5772079" lon="13.8465134"><ele>28.0</ele><time>2026-04-25T09:54:54.093Z</time></trkpt><trkpt lat="45.5770768" lon="13.8466971"><ele>28.0</ele><time>2026-04-25T09:54:55.072Z</time></trkpt><trkpt lat="45.576954" lon="13.8468688"><ele>28.0</ele><time>2026-04-25T09:54:56.072Z</time></trkpt><trkpt lat="45.5768325" lon="13.84703"><ele>29.0</ele><time>2026-04-25T09:54:57.078Z</time></trkpt><trkpt lat="45.576718" lon="13.8471758"><ele>30.0</ele><time>2026-04-25T09:54:58.078Z</time></trkpt><trkpt lat="45.5766096" lon="13.8473319"><ele>31.0</ele><time>2026-04-25T09:54:59.07Z</time></trkpt><trkpt lat="45.5764988" lon="13.8474934"><ele>31.75</ele><time>2026-04-25T09:55:00.082Z</time></trkpt><trkpt lat="45.5763904" lon="13.8476546"><ele>32.5</ele><time>2026-04-25T09:55:01.09Z</time></trkpt><trkpt lat="45.5762913" lon="13.8478122"><ele>33.25</ele><time>2026-04-25T09:55:02.078Z</time></trkpt><trkpt lat="45.5762039" lon="13.8479486"><ele>34.0</ele><time>2026-04-25T09:55:03.074Z</time></trkpt><trkpt lat="45.5761269" lon="13.8480757"><ele>34.0</ele><time>2026-04-25T09:55:04.09Z</time></trkpt><trkpt lat="45.5760545" lon="13.8482066"><ele>34.0</ele><time>2026-04-25T09:55:05.09Z</time></trkpt><trkpt lat="45.5759888" lon="13.8483207"><ele>34.0</ele><time>2026-04-25T09:55:06.077Z</time></trkpt><trkpt lat="45.5759352" lon="13.8484277"><ele>34.0</ele><time>2026-04-25T09:55:07.083Z</time></trkpt><trkpt lat="45.5759051" lon="13.8485366"><ele>34.0</ele><time>2026-04-25T09:55:08.069Z</time></trkpt><trkpt lat="45.5759051" lon="13.8486512"><ele>34.66666666666667</ele><time>2026-04-25T09:55:09.07Z</time></trkpt><trkpt lat="45.5759278" lon="13.8487609"><ele>35.333333333333336</ele><time>2026-04-25T09:55:10.086Z</time></trkpt><trkpt lat="45.5759773" lon="13.8488852"><ele>36.0</ele><time>2026-04-25T09:55:11.079Z</time></trkpt><trkpt lat="45.5760203" lon="13.8490028"><ele>36.666666666666664</ele><time>2026-04-25T09:55:12.069Z</time></trkpt><trkpt lat="45.5760551" lon="13.8491012"><ele>37.33333333333333</ele><time>2026-04-25T09:55:13.076Z</time></trkpt><trkpt lat="45.5760625" lon="13.8492065"><ele>38.0</ele><time>2026-04-25T09:55:14.083Z</time></trkpt><trkpt lat="45.5760485" lon="13.8493328"><ele>38.25</ele><time>2026-04-25T09:55:15.079Z</time></trkpt><trkpt lat="45.576041" lon="13.8494764"><ele>38.5</ele><time>2026-04-25T09:55:16.079Z</time></trkpt><trkpt lat="45.5760507" lon="13.8496397"><ele>38.75</ele><time>2026-04-25T09:55:17.078Z</time></trkpt><trkpt lat="45.5760595" lon="13.8498042"><ele>39.0</ele><time>2026-04-25T09:55:18.076Z</time></trkpt><trkpt lat="45.5760566" lon="13.8499781"><ele>39.75</ele><time>2026-04-25T09:55:19.094Z</time></trkpt><trkpt lat="45.5760449" lon="13.8501607"><ele>40.5</ele><time>2026-04-25T09:55:20.084Z</time></trkpt><trkpt lat="45.5760267" lon="13.8503332"><ele>41.25</ele><time>2026-04-25T09:55:21.076Z</time></trkpt><trkpt lat="45.5760197" lon="13.8505017"><ele>42.0</ele><time>2026-04-25T09:55:22.075Z</time></trkpt><trkpt lat="45.5760105" lon="13.8506799"><ele>42.0</ele><time>2026-04-25T09:55:23.073Z</time></trkpt><trkpt lat="45.5760015" lon="13.8508633"><ele>42.0</ele><time>2026-04-25T09:55:24.083Z</time></trkpt><trkpt lat="45.5759907" lon="13.8510512"><ele>42.0</ele><time>2026-04-25T09:55:25.076Z</time></trkpt><trkpt lat="45.5759756" lon="13.8512292"><ele>42.0</ele><time>2026-04-25T09:55:26.073Z</time></trkpt><trkpt lat="45.5759557" lon="13.8513885"><ele>42.25</ele><time>2026-04-25T09:55:27.075Z</time></trkpt><trkpt lat="45.5759179" lon="13.8515318"><ele>42.5</ele><time>2026-04-25T09:55:28.082Z</time></trkpt><trkpt lat="45.5758621" lon="13.8516717"><ele>42.75</ele><time>2026-04-25T09:55:29.075Z</time></trkpt><trkpt lat="45.5757828" lon="13.8518061"><ele>43.0</ele><time>2026-04-25T09:55:30.08Z</time></trkpt><trkpt lat="45.5756899" lon="13.8519541"><ele>44.0</ele><time>2026-04-25T09:55:31.073Z</time></trkpt><trkpt lat="45.5755759" lon="13.8520933"><ele>45.0</ele><time>2026-04-25T09:55:32.079Z</time></trkpt><trkpt lat="45.5754518" lon="13.8522291"><ele>46.0</ele><time>2026-04-25T09:55:33.091Z</time></trkpt><trkpt lat="45.5753184" lon="13.8523779"><ele>46.66666666666667</ele><time>2026-04-25T09:55:34.081Z</time></trkpt><trkpt lat="45.5751845" lon="13.8525317"><ele>47.333333333333336</ele><time>2026-04-25T09:55:35.079Z</time></trkpt><trkpt lat="45.5750506" lon="13.8527028"><ele>48.0</ele><time>2026-04-25T09:55:36.076Z</time></trkpt><trkpt lat="45.5749203" lon="13.8528848"><ele>48.0</ele><time>2026-04-25T09:55:37.084Z</time></trkpt><trkpt lat="45.5747924" lon="13.8530691"><ele>48.0</ele><time>2026-04-25T09:55:38.072Z</time></trkpt><trkpt lat="45.5746513" lon="13.8532409"><ele>48.0</ele><time>2026-04-25T09:55:39.075Z</time></trkpt><trkpt lat="45.5745096" lon="13.8534009"><ele>48.33333333333333</ele><time>2026-04-25T09:55:40.079Z</time></trkpt><trkpt lat="45.5743727" lon="13.853548"><ele>48.666666666666664</ele><time>2026-04-25T09:55:41.082Z</time></trkpt><trkpt lat="45.5742502" lon="13.8536909"><ele>49.0</ele><time>2026-04-25T09:55:42.077Z</time></trkpt><trkpt lat="45.5741331" lon="13.8538041"><ele>49.0</ele><time>2026-04-25T09:55:43.08Z</time></trkpt><trkpt lat="45.5740251" lon="13.8539132"><ele>49.0</ele><time>2026-04-25T09:55:44.078Z</time></trkpt><trkpt lat="45.5739321" lon="13.8540239"><ele>49.0</ele><time>2026-04-25T09:55:45.076Z</time></trkpt><trkpt lat="45.5738483" lon="13.8541245"><ele>49.0</ele><time>2026-04-25T09:55:46.072Z</time></trkpt><trkpt lat="45.5737596" lon="13.8542312"><ele>48.0</ele><time>2026-04-25T09:55:47.075Z</time></trkpt><trkpt lat="45.5736819" lon="13.8543302"><ele>47.0</ele><time>2026-04-25T09:55:48.067Z</time></trkpt><trkpt lat="45.5736037" lon="13.8544147"><ele>46.0</ele><time>2026-04-25T09:55:49.074Z</time></trkpt><trkpt lat="45.573521" lon="13.8544838"><ele>45.0</ele><time>2026-04-25T09:55:50.068Z</time></trkpt><trkpt lat="45.5734347" lon="13.8545393"><ele>44.0</ele><time>2026-04-25T09:55:51.07Z</time></trkpt><trkpt lat="45.5733562" lon="13.8545953"><ele>44.0</ele><time>2026-04-25T09:55:52.073Z</time></trkpt><trkpt lat="45.5732814" lon="13.8546613"><ele>44.0</ele><time>2026-04-25T09:55:53.078Z</time></trkpt><trkpt lat="45.5732159" lon="13.8547389"><ele>44.0</ele><time>2026-04-25T09:55:54.077Z</time></trkpt><trkpt lat="45.5731472" lon="13.8548416"><ele>44.0</ele><time>2026-04-25T09:55:55.073Z</time></trkpt><trkpt lat="45.5730806" lon="13.854956"><ele>44.0</ele><time>2026-04-25T09:55:56.076Z</time></trkpt><trkpt lat="45.5730199" lon="13.8550905"><ele>45.5</ele><time>2026-04-25T09:55:57.078Z</time></trkpt><trkpt lat="45.5729768" lon="13.8552211"><ele>47.0</ele><time>2026-04-25T09:55:58.085Z</time></trkpt><trkpt lat="45.5729496" lon="13.8553522"><ele>48.5</ele><time>2026-04-25T09:55:59.079Z</time></trkpt><trkpt lat="45.5729339" lon="13.8554653"><ele>50.0</ele><time>2026-04-25T09:56:00.075Z</time></trkpt><trkpt lat="45.5729219" lon="13.8555718"><ele>51.50000000000001</ele><time>2026-04-25T09:56:01.078Z</time></trkpt><trkpt lat="45.5729064" lon="13.8556658"><ele>53.0</ele><time>2026-04-25T09:56:02.082Z</time></trkpt><trkpt lat="45.5728896" lon="13.8558324"><ele>51.2</ele><time>2026-04-25T09:56:04.075Z</time></trkpt><trkpt lat="45.5728741" lon="13.8559662"><ele>49.4</ele><time>2026-04-25T09:56:06.081Z</time></trkpt><trkpt lat="45.5728292" lon="13.8560712"><ele>47.6</ele><time>2026-04-25T09:56:08.073Z</time></trkpt><trkpt lat="45.5727541" lon="13.8561974"><ele>45.800000000000004</ele><time>2026-04-25T09:56:10.073Z</time></trkpt><trkpt lat="45.5726486" lon="13.8562924"><ele>44.0</ele><time>2026-04-25T09:56:12.064Z</time></trkpt><trkpt lat="45.5725878" lon="13.8563463"><ele>44.0</ele><time>2026-04-25T09:56:13.074Z</time></trkpt><trkpt lat="45.5725092" lon="13.8564146"><ele>44.0</ele><time>2026-04-25T09:56:14.07Z</time></trkpt><trkpt lat="45.5724336" lon="13.8564998"><ele>44.0</ele><time>2026-04-25T09:56:15.072Z</time></trkpt><trkpt lat="45.5723529" lon="13.8565674"><ele>44.0</ele><time>2026-04-25T09:56:16.069Z</time></trkpt><trkpt lat="45.572282" lon="13.8566395"><ele>44.0</ele><time>2026-04-25T09:56:17.064Z</time></trkpt><trkpt lat="45.5722118" lon="13.8567027"><ele>44.0</ele><time>2026-04-25T09:56:18.068Z</time></trkpt><trkpt lat="45.5721432" lon="13.8567668"><ele>44.0</ele><time>2026-04-25T09:56:19.075Z</time></trkpt><trkpt lat="45.5720858" lon="13.8568381"><ele>44.0</ele><time>2026-04-25T09:56:20.073Z</time></trkpt><trkpt lat="45.5720293" lon="13.8569039"><ele>44.0</ele><time>2026-04-25T09:56:21.072Z</time></trkpt><trkpt lat="45.5719759" lon="13.8569638"><ele>44.0</ele><time>2026-04-25T09:56:22.066Z</time></trkpt><trkpt lat="45.5719236" lon="13.8570274"><ele>44.0</ele><time>2026-04-25T09:56:23.073Z</time></trkpt><trkpt lat="45.571862" lon="13.8571043"><ele>44.0</ele><time>2026-04-25T09:56:24.075Z</time></trkpt><trkpt lat="45.5717964" lon="13.8571749"><ele>44.2</ele><time>2026-04-25T09:56:25.074Z</time></trkpt><trkpt lat="45.5717244" lon="13.8572513"><ele>44.400000000000006</ele><time>2026-04-25T09:56:26.075Z</time></trkpt><trkpt lat="45.5716519" lon="13.8573406"><ele>44.6</ele><time>2026-04-25T09:56:27.074Z</time></trkpt><trkpt lat="45.5715756" lon="13.8574473"><ele>44.8</ele><time>2026-04-25T09:56:28.065Z</time></trkpt><trkpt lat="45.5714991" lon="13.8575708"><ele>45.0</ele><time>2026-04-25T09:56:29.074Z</time></trkpt><trkpt lat="45.5714238" lon="13.8576776"><ele>45.0</ele><time>2026-04-25T09:56:30.069Z</time></trkpt><trkpt lat="45.5713596" lon="13.8577618"><ele>45.0</ele><time>2026-04-25T09:56:31.081Z</time></trkpt><trkpt lat="45.5713069" lon="13.8578344"><ele>45.0</ele><time>2026-04-25T09:56:32.075Z</time></trkpt><trkpt lat="45.5712624" lon="13.8579034"><ele>45.0</ele><time>2026-04-25T09:56:33.072Z</time></trkpt><trkpt lat="45.5712128" lon="13.8580157"><ele>45.0</ele><time>2026-04-25T09:56:35.075Z</time></trkpt><trkpt lat="45.571163" lon="13.8581687"><ele>45.0</ele><time>2026-04-25T09:56:37.074Z</time></trkpt><trkpt lat="45.5710933" lon="13.8583024"><ele>44.666666666666664</ele><time>2026-04-25T09:56:39.069Z</time></trkpt><trkpt lat="45.571039" lon="13.8583809"><ele>44.333333333333336</ele><time>2026-04-25T09:56:40.074Z</time></trkpt><trkpt lat="45.5709757" lon="13.8584552"><ele>44.0</ele><time>2026-04-25T09:56:41.078Z</time></trkpt><trkpt lat="45.5709158" lon="13.8585173"><ele>43.66666666666667</ele><time>2026-04-25T09:56:42.062Z</time></trkpt><trkpt lat="45.5708528" lon="13.8585762"><ele>43.333333333333336</ele><time>2026-04-25T09:56:43.065Z</time></trkpt><trkpt lat="45.5707838" lon="13.8586373"><ele>43.0</ele><time>2026-04-25T09:56:44.066Z</time></trkpt><trkpt lat="45.570704" lon="13.8586953"><ele>43.0</ele><time>2026-04-25T09:56:45.07Z</time></trkpt><trkpt lat="45.5706087" lon="13.8587336"><ele>43.0</ele><time>2026-04-25T09:56:46.068Z</time></trkpt><trkpt lat="45.5704991" lon="13.8587645"><ele>43.0</ele><time>2026-04-25T09:56:47.068Z</time></trkpt><trkpt lat="45.5703829" lon="13.8588099"><ele>43.0</ele><time>2026-04-25T09:56:48.068Z</time></trkpt><trkpt lat="45.5702675" lon="13.8588653"><ele>43.5</ele><time>2026-04-25T09:56:49.072Z</time></trkpt><trkpt lat="45.5701568" lon="13.8589536"><ele>44.0</ele><time>2026-04-25T09:56:50.067Z</time></trkpt><trkpt lat="45.5700333" lon="13.8590569"><ele>44.5</ele><time>2026-04-25T09:56:51.067Z</time></trkpt><trkpt lat="45.5699187" lon="13.8591657"><ele>45.0</ele><time>2026-04-25T09:56:52.066Z</time></trkpt><trkpt lat="45.5697982" lon="13.8592626"><ele>47.0</ele><time>2026-04-25T09:56:53.062Z</time></trkpt><trkpt lat="45.5696865" lon="13.859344"><ele>49.0</ele><time>2026-04-25T09:56:54.072Z</time></trkpt><trkpt lat="45.5695703" lon="13.8594108"><ele>51.0</ele><time>2026-04-25T09:56:55.08Z</time></trkpt><trkpt lat="45.5694402" lon="13.8594629"><ele>53.0</ele><time>2026-04-25T09:56:56.068Z</time></trkpt><trkpt lat="45.5693075" lon="13.859507"><ele>53.0</ele><time>2026-04-25T09:56:57.068Z</time></trkpt><trkpt lat="45.5691919" lon="13.859552"><ele>53.0</ele><time>2026-04-25T09:56:58.081Z</time></trkpt><trkpt lat="45.5690942" lon="13.8596116"><ele>53.0</ele><time>2026-04-25T09:56:59.076Z</time></trkpt><trkpt lat="45.5690057" lon="13.8596859"><ele>53.0</ele><time>2026-04-25T09:57:00.084Z</time></trkpt><trkpt lat="45.5689128" lon="13.8597773"><ele>53.0</ele><time>2026-04-25T09:57:01.075Z</time></trkpt><trkpt lat="45.5688204" lon="13.8598685"><ele>53.0</ele><time>2026-04-25T09:57:02.08Z</time></trkpt><trkpt lat="45.5687229" lon="13.8599613"><ele>53.0</ele><time>2026-04-25T09:57:03.072Z</time></trkpt><trkpt lat="45.5686311" lon="13.8600552"><ele>53.0</ele><time>2026-04-25T09:57:04.077Z</time></trkpt><trkpt lat="45.5685409" lon="13.8601301"><ele>53.0</ele><time>2026-04-25T09:57:05.074Z</time></trkpt><trkpt lat="45.5684333" lon="13.8601866"><ele>53.0</ele><time>2026-04-25T09:57:06.083Z</time></trkpt><trkpt lat="45.5683113" lon="13.8602236"><ele>53.0</ele><time>2026-04-25T09:57:07.072Z</time></trkpt><trkpt lat="45.5681723" lon="13.8602618"><ele>53.0</ele><time>2026-04-25T09:57:08.074Z</time></trkpt><trkpt lat="45.5680277" lon="13.8603089"><ele>53.0</ele><time>2026-04-25T09:57:09.069Z</time></trkpt><trkpt lat="45.5678913" lon="13.8603505"><ele>53.0</ele><time>2026-04-25T09:57:10.075Z</time></trkpt><trkpt lat="45.5677668" lon="13.8603972"><ele>49.0</ele><time>2026-04-25T09:57:11.084Z</time></trkpt><trkpt lat="45.5676522" lon="13.8604405"><ele>45.0</ele><time>2026-04-25T09:57:12.069Z</time></trkpt><trkpt lat="45.5675322" lon="13.8604963"><ele>41.0</ele><time>2026-04-25T09:57:13.074Z</time></trkpt><trkpt lat="45.5674092" lon="13.8605618"><ele>37.0</ele><time>2026-04-25T09:57:14.077Z</time></trkpt><trkpt lat="45.5672845" lon="13.8606442"><ele>37.0</ele><time>2026-04-25T09:57:15.086Z</time></trkpt><trkpt lat="45.5671562" lon="13.8607346"><ele>37.0</ele><time>2026-04-25T09:57:16.075Z</time></trkpt><trkpt lat="45.5670279" lon="13.8608333"><ele>37.0</ele><time>2026-04-25T09:57:17.076Z</time></trkpt><trkpt lat="45.5668915" lon="13.8609261"><ele>37.0</ele><time>2026-04-25T09:57:18.077Z</time></trkpt><trkpt lat="45.5667498" lon="13.8610186"><ele>37.75</ele><time>2026-04-25T09:57:19.084Z</time></trkpt><trkpt lat="45.5666188" lon="13.8611168"><ele>38.5</ele><time>2026-04-25T09:57:20.073Z</time></trkpt><trkpt lat="45.5664932" lon="13.8612023"><ele>39.25</ele><time>2026-04-25T09:57:21.074Z</time></trkpt><trkpt lat="45.5663761" lon="13.8612812"><ele>40.0</ele><time>2026-04-25T09:57:22.079Z</time></trkpt><trkpt lat="45.5662703" lon="13.8613435"><ele>40.8</ele><time>2026-04-25T09:57:23.073Z</time></trkpt><trkpt lat="45.5661683" lon="13.8613909"><ele>41.6</ele><time>2026-04-25T09:57:24.077Z</time></trkpt><trkpt lat="45.5660703" lon="13.8614392"><ele>42.400000000000006</ele><time>2026-04-25T09:57:25.081Z</time></trkpt><trkpt lat="45.5659844" lon="13.861482"><ele>43.2</ele><time>2026-04-25T09:57:26.079Z</time></trkpt><trkpt lat="45.5658935" lon="13.8615256"><ele>44.0</ele><time>2026-04-25T09:57:27.075Z</time></trkpt><trkpt lat="45.5658088" lon="13.861561"><ele>44.0</ele><time>2026-04-25T09:57:28.073Z</time></trkpt><trkpt lat="45.5657419" lon="13.8615714"><ele>44.0</ele><time>2026-04-25T09:57:29.079Z</time></trkpt><trkpt lat="45.5656517" lon="13.861551"><ele>44.0</ele><time>2026-04-25T09:57:31.08Z</time></trkpt><trkpt lat="45.5655794" lon="13.8615555"><ele>44.0</ele><time>2026-04-25T09:57:34.067Z</time></trkpt><trkpt lat="45.5655282" lon="13.8616528"><ele>44.0</ele><time>2026-04-25T10:00:39.077Z</time></trkpt><trkpt lat="45.5654373" lon="13.8617231"><ele>44.0</ele><time>2026-04-25T10:00:41.094Z</time></trkpt><trkpt lat="45.5653545" lon="13.8617428"><ele>44.0</ele><time>2026-04-25T10:00:42.087Z</time></trkpt><trkpt lat="45.5652618" lon="13.8617636"><ele>44.0</ele><time>2026-04-25T10:00:43.091Z</time></trkpt><trkpt lat="45.565161" lon="13.8617955"><ele>44.0</ele><time>2026-04-25T10:00:44.088Z</time></trkpt><trkpt lat="45.5650628" lon="13.8618253"><ele>44.0</ele><time>2026-04-25T10:00:45.088Z</time></trkpt><trkpt lat="45.5649605" lon="13.8618526"><ele>44.0</ele><time>2026-04-25T10:00:46.089Z</time></trkpt><trkpt lat="45.5648519" lon="13.8618745"><ele>44.5</ele><time>2026-04-25T10:00:47.086Z</time></trkpt><trkpt lat="45.5647317" lon="13.8618908"><ele>45.0</ele><time>2026-04-25T10:00:48.084Z</time></trkpt><trkpt lat="45.5645994" lon="13.8619044"><ele>45.5</ele><time>2026-04-25T10:00:49.084Z</time></trkpt><trkpt lat="45.5644623" lon="13.8619169"><ele>46.0</ele><time>2026-04-25T10:00:50.09Z</time></trkpt><trkpt lat="45.5643292" lon="13.8619169"><ele>47.0</ele><time>2026-04-25T10:00:51.079Z</time></trkpt><trkpt lat="45.5642053" lon="13.8619232"><ele>48.0</ele><time>2026-04-25T10:00:52.088Z</time></trkpt><trkpt lat="45.5640941" lon="13.8619491"><ele>49.0</ele><time>2026-04-25T10:00:53.09Z</time></trkpt><trkpt lat="45.5639929" lon="13.8619817"><ele>50.0</ele><time>2026-04-25T10:00:54.081Z</time></trkpt><trkpt lat="45.5638837" lon="13.8620308"><ele>50.0</ele><time>2026-04-25T10:00:55.076Z</time></trkpt><trkpt lat="45.5637745" lon="13.8620946"><ele>50.0</ele><time>2026-04-25T10:00:56.081Z</time></trkpt><trkpt lat="45.5636645" lon="13.8621718"><ele>50.0</ele><time>2026-04-25T10:00:57.078Z</time></trkpt><trkpt lat="45.5635525" lon="13.8622526"><ele>50.0</ele><time>2026-04-25T10:00:58.088Z</time></trkpt><trkpt lat="45.5634343" lon="13.8623294"><ele>50.25</ele><time>2026-04-25T10:00:59.076Z</time></trkpt><trkpt lat="45.5633126" lon="13.8624176"><ele>50.5</ele><time>2026-04-25T10:01:00.085Z</time></trkpt><trkpt lat="45.5631929" lon="13.862517"><ele>50.75</ele><time>2026-04-25T10:01:01.081Z</time></trkpt><trkpt lat="45.5630618" lon="13.8626281"><ele>51.0</ele><time>2026-04-25T10:01:02.081Z</time></trkpt><trkpt lat="45.5629262" lon="13.8627327"><ele>52.66666666666667</ele><time>2026-04-25T10:01:03.084Z</time></trkpt><trkpt lat="45.5627818" lon="13.8628431"><ele>54.333333333333336</ele><time>2026-04-25T10:01:04.078Z</time></trkpt><trkpt lat="45.5626268" lon="13.8629425"><ele>56.0</ele><time>2026-04-25T10:01:05.096Z</time></trkpt><trkpt lat="45.5624703" lon="13.8630577"><ele>56.0</ele><time>2026-04-25T10:01:06.08Z</time></trkpt><trkpt lat="45.5623167" lon="13.8631696"><ele>56.0</ele><time>2026-04-25T10:01:07.076Z</time></trkpt><trkpt lat="45.5621601" lon="13.8632732"><ele>56.0</ele><time>2026-04-25T10:01:08.077Z</time></trkpt><trkpt lat="45.561998" lon="13.86336"><ele>57.333333333333336</ele><time>2026-04-25T10:01:09.073Z</time></trkpt><trkpt lat="45.5618393" lon="13.8634314"><ele>58.66666666666667</ele><time>2026-04-25T10:01:10.091Z</time></trkpt><trkpt lat="45.5616746" lon="13.8634824"><ele>60.0</ele><time>2026-04-25T10:01:11.085Z</time></trkpt><trkpt lat="45.5615133" lon="13.8634973"><ele>61.0</ele><time>2026-04-25T10:01:12.074Z</time></trkpt><trkpt lat="45.5613465" lon="13.8635036"><ele>62.0</ele><time>2026-04-25T10:01:13.089Z</time></trkpt><trkpt lat="45.5611879" lon="13.863514"><ele>63.0</ele><time>2026-04-25T10:01:14.067Z</time></trkpt><trkpt lat="45.5610528" lon="13.8635306"><ele>63.75</ele><time>2026-04-25T10:01:15.069Z</time></trkpt><trkpt lat="45.5609323" lon="13.8635576"><ele>64.5</ele><time>2026-04-25T10:01:16.08Z</time></trkpt><trkpt lat="45.5608056" lon="13.8635865"><ele>65.25</ele><time>2026-04-25T10:01:17.073Z</time></trkpt><trkpt lat="45.5606868" lon="13.8636231"><ele>66.0</ele><time>2026-04-25T10:01:18.077Z</time></trkpt><trkpt lat="45.5605821" lon="13.8636728"><ele>66.0</ele><time>2026-04-25T10:01:19.075Z</time></trkpt><trkpt lat="45.5604784" lon="13.8637278"><ele>66.0</ele><time>2026-04-25T10:01:20.074Z</time></trkpt><trkpt lat="45.5603679" lon="13.8637693"><ele>66.0</ele><time>2026-04-25T10:01:21.086Z</time></trkpt><trkpt lat="45.5602399" lon="13.8637953"><ele>66.0</ele><time>2026-04-25T10:01:22.086Z</time></trkpt><trkpt lat="45.5601118" lon="13.8638128"><ele>67.75</ele><time>2026-04-25T10:01:23.084Z</time></trkpt><trkpt lat="45.5599766" lon="13.8638208"><ele>69.5</ele><time>2026-04-25T10:01:24.085Z</time></trkpt><trkpt lat="45.5598488" lon="13.8638492"><ele>71.25</ele><time>2026-04-25T10:01:25.083Z</time></trkpt><trkpt lat="45.5597314" lon="13.8639048"><ele>73.0</ele><time>2026-04-25T10:01:26.08Z</time></trkpt><trkpt lat="45.5596164" lon="13.8639917"><ele>75.75</ele><time>2026-04-25T10:01:27.092Z</time></trkpt><trkpt lat="45.5594922" lon="13.8640928"><ele>78.5</ele><time>2026-04-25T10:01:28.085Z</time></trkpt><trkpt lat="45.5593691" lon="13.8642016"><ele>81.25</ele><time>2026-04-25T10:01:29.075Z</time></trkpt><trkpt lat="45.5592358" lon="13.8643056"><ele>84.0</ele><time>2026-04-25T10:01:30.078Z</time></trkpt><trkpt lat="45.5590884" lon="13.8644061"><ele>84.0</ele><time>2026-04-25T10:01:31.082Z</time></trkpt><trkpt lat="45.5589556" lon="13.8645191"><ele>84.0</ele><time>2026-04-25T10:01:32.076Z</time></trkpt><trkpt lat="45.5588147" lon="13.864645"><ele>84.0</ele><time>2026-04-25T10:01:33.086Z</time></trkpt><trkpt lat="45.5586736" lon="13.864779"><ele>87.66666666666667</ele><time>2026-04-25T10:01:34.069Z</time></trkpt><trkpt lat="45.5585324" lon="13.8649117"><ele>91.33333333333334</ele><time>2026-04-25T10:01:35.075Z</time></trkpt><trkpt lat="45.558386" lon="13.8650447"><ele>95.0</ele><time>2026-04-25T10:01:36.066Z</time></trkpt><trkpt lat="45.5582389" lon="13.865177"><ele>95.0</ele><time>2026-04-25T10:01:37.075Z</time></trkpt><trkpt lat="45.5580936" lon="13.8653135"><ele>95.0</ele><time>2026-04-25T10:01:38.067Z</time></trkpt><trkpt lat="45.5579517" lon="13.8654513"><ele>95.0</ele><time>2026-04-25T10:01:39.072Z</time></trkpt><trkpt lat="45.5578206" lon="13.86559"><ele>98.33333333333334</ele><time>2026-04-25T10:01:40.068Z</time></trkpt><trkpt lat="45.5576974" lon="13.8657204"><ele>101.66666666666667</ele><time>2026-04-25T10:01:41.088Z</time></trkpt><trkpt lat="45.5575773" lon="13.865851"><ele>105.0</ele><time>2026-04-25T10:01:42.066Z</time></trkpt><trkpt lat="45.5574581" lon="13.8659853"><ele>105.0</ele><time>2026-04-25T10:01:43.076Z</time></trkpt><trkpt lat="45.5573373" lon="13.8661263"><ele>105.0</ele><time>2026-04-25T10:01:44.072Z</time></trkpt><trkpt lat="45.5572099" lon="13.8662713"><ele>105.0</ele><time>2026-04-25T10:01:45.068Z</time></trkpt><trkpt lat="45.5570915" lon="13.8664017"><ele>108.0</ele><time>2026-04-25T10:01:46.072Z</time></trkpt><trkpt lat="45.5569732" lon="13.8665321"><ele>111.0</ele><time>2026-04-25T10:01:47.069Z</time></trkpt><trkpt lat="45.5568453" lon="13.8666581"><ele>114.0</ele><time>2026-04-25T10:01:48.082Z</time></trkpt><trkpt lat="45.556728" lon="13.866775"><ele>117.0</ele><time>2026-04-25T10:01:49.061Z</time></trkpt><trkpt lat="45.5566175" lon="13.8668843"><ele>117.0</ele><time>2026-04-25T10:01:50.065Z</time></trkpt><trkpt lat="45.5565106" lon="13.8669679"><ele>117.0</ele><time>2026-04-25T10:01:51.065Z</time></trkpt><trkpt lat="45.5564063" lon="13.8670527"><ele>117.0</ele><time>2026-04-25T10:01:52.067Z</time></trkpt><trkpt lat="45.5563129" lon="13.867132"><ele>117.0</ele><time>2026-04-25T10:01:53.062Z</time></trkpt><trkpt lat="45.5562264" lon="13.867202"><ele>120.8</ele><time>2026-04-25T10:01:54.088Z</time></trkpt><trkpt lat="45.5561447" lon="13.8672652"><ele>124.6</ele><time>2026-04-25T10:01:55.066Z</time></trkpt><trkpt lat="45.5560555" lon="13.8673272"><ele>128.39999999999998</ele><time>2026-04-25T10:01:56.071Z</time></trkpt><trkpt lat="45.5559558" lon="13.867381"><ele>132.2</ele><time>2026-04-25T10:01:57.062Z</time></trkpt><trkpt lat="45.5558328" lon="13.8674141"><ele>136.0</ele><time>2026-04-25T10:01:58.073Z</time></trkpt><trkpt lat="45.5557024" lon="13.8674319"><ele>136.0</ele><time>2026-04-25T10:01:59.064Z</time></trkpt><trkpt lat="45.5555688" lon="13.8674595"><ele>136.0</ele><time>2026-04-25T10:02:00.061Z</time></trkpt><trkpt lat="45.5554508" lon="13.8675064"><ele>136.0</ele><time>2026-04-25T10:02:01.068Z</time></trkpt><trkpt lat="45.5553539" lon="13.867577"><ele>136.0</ele><time>2026-04-25T10:02:02.068Z</time></trkpt><trkpt lat="45.5552614" lon="13.86766"><ele>138.0</ele><time>2026-04-25T10:02:03.066Z</time></trkpt><trkpt lat="45.5551888" lon="13.8677451"><ele>140.0</ele><time>2026-04-25T10:02:04.07Z</time></trkpt><trkpt lat="45.5551625" lon="13.8678475"><ele>142.0</ele><time>2026-04-25T10:02:05.068Z</time></trkpt><trkpt lat="45.555118" lon="13.8680023"><ele>144.0</ele><time>2026-04-25T10:02:07.067Z</time></trkpt><trkpt lat="45.5550749" lon="13.868078"><ele>146.0</ele><time>2026-04-25T10:02:08.072Z</time></trkpt><trkpt lat="45.5550132" lon="13.8681775"><ele>148.0</ele><time>2026-04-25T10:02:09.072Z</time></trkpt><trkpt lat="45.5549278" lon="13.8682522"><ele>148.0</ele><time>2026-04-25T10:02:10.074Z</time></trkpt><trkpt lat="45.5548325" lon="13.8683216"><ele>148.0</ele><time>2026-04-25T10:02:11.071Z</time></trkpt><trkpt lat="45.554739" lon="13.8683836"><ele>148.0</ele><time>2026-04-25T10:02:12.079Z</time></trkpt><trkpt lat="45.554645" lon="13.8684658"><ele>148.0</ele><time>2026-04-25T10:02:13.073Z</time></trkpt><trkpt lat="45.5545389" lon="13.8685269"><ele>148.0</ele><time>2026-04-25T10:02:14.07Z</time></trkpt><trkpt lat="45.5544353" lon="13.8685735"><ele>149.0</ele><time>2026-04-25T10:02:15.065Z</time></trkpt><trkpt lat="45.5543405" lon="13.868574"><ele>150.0</ele><time>2026-04-25T10:02:16.073Z</time></trkpt><trkpt lat="45.5542535" lon="13.8685698"><ele>151.0</ele><time>2026-04-25T10:02:17.077Z</time></trkpt><trkpt lat="45.5541825" lon="13.868573"><ele>152.0</ele><time>2026-04-25T10:02:18.071Z</time></trkpt><trkpt lat="45.5540639" lon="13.8686003"><ele>153.0</ele><time>2026-04-25T10:02:20.072Z</time></trkpt><trkpt lat="45.5539918" lon="13.8686138"><ele>154.0</ele><time>2026-04-25T10:02:21.076Z</time></trkpt><trkpt lat="45.553924" lon="13.8686215"><ele>154.0</ele><time>2026-04-25T10:02:22.088Z</time></trkpt><trkpt lat="45.5538519" lon="13.8686419"><ele>154.0</ele><time>2026-04-25T10:02:23.07Z</time></trkpt><trkpt lat="45.5537861" lon="13.8686646"><ele>154.0</ele><time>2026-04-25T10:02:24.081Z</time></trkpt><trkpt lat="45.5537209" lon="13.8686884"><ele>154.0</ele><time>2026-04-25T10:02:25.077Z</time></trkpt><trkpt lat="45.5536472" lon="13.868719"><ele>154.0</ele><time>2026-04-25T10:02:27.079Z</time></trkpt><trkpt lat="45.5535671" lon="13.8687082"><ele>154.0</ele><time>2026-04-25T10:02:30.083Z</time></trkpt><trkpt lat="45.5535076" lon="13.8687427"><ele>154.0</ele><time>2026-04-25T10:02:32.075Z</time></trkpt><trkpt lat="45.5534636" lon="13.86886"><ele>154.0</ele><time>2026-04-25T10:02:34.067Z</time></trkpt><trkpt lat="45.5534538" lon="13.8689602"><ele>154.0</ele><time>2026-04-25T10:02:35.073Z</time></trkpt><trkpt lat="45.5534622" lon="13.8690728"><ele>154.0</ele><time>2026-04-25T10:02:36.076Z</time></trkpt><trkpt lat="45.5534858" lon="13.8691945"><ele>154.0</ele><time>2026-04-25T10:02:37.083Z</time></trkpt><trkpt lat="45.5535099" lon="13.8693251"><ele>154.0</ele><time>2026-04-25T10:02:38.08Z</time></trkpt><trkpt lat="45.5535293" lon="13.8694611"><ele>154.0</ele><time>2026-04-25T10:02:39.079Z</time></trkpt><trkpt lat="45.553537" lon="13.8696044"><ele>155.0</ele><time>2026-04-25T10:02:40.082Z</time></trkpt><trkpt lat="45.553542" lon="13.8697575"><ele>156.0</ele><time>2026-04-25T10:02:41.086Z</time></trkpt><trkpt lat="45.5535258" lon="13.8699261"><ele>157.0</ele><time>2026-04-25T10:02:42.076Z</time></trkpt><trkpt lat="45.553504" lon="13.8701123"><ele>158.0</ele><time>2026-04-25T10:02:43.088Z</time></trkpt><trkpt lat="45.5534715" lon="13.8702897"><ele>160.0</ele><time>2026-04-25T10:02:44.083Z</time></trkpt><trkpt lat="45.5534382" lon="13.8704663"><ele>162.0</ele><time>2026-04-25T10:02:45.099Z</time></trkpt><trkpt lat="45.5533857" lon="13.8706357"><ele>164.0</ele><time>2026-04-25T10:02:46.088Z</time></trkpt><trkpt lat="45.5533178" lon="13.870799"><ele>166.0</ele><time>2026-04-25T10:02:47.105Z</time></trkpt><trkpt lat="45.5532507" lon="13.8709369"><ele>168.25</ele><time>2026-04-25T10:02:48.081Z</time></trkpt><trkpt lat="45.5531736" lon="13.871068"><ele>170.5</ele><time>2026-04-25T10:02:49.088Z</time></trkpt><trkpt lat="45.5530948" lon="13.8712021"><ele>172.75</ele><time>2026-04-25T10:02:50.081Z</time></trkpt><trkpt lat="45.5530079" lon="13.8713246"><ele>175.0</ele><time>2026-04-25T10:02:51.077Z</time></trkpt><trkpt lat="45.5529144" lon="13.8714359"><ele>175.5</ele><time>2026-04-25T10:02:52.081Z</time></trkpt><trkpt lat="45.5528113" lon="13.8715433"><ele>176.0</ele><time>2026-04-25T10:02:53.084Z</time></trkpt><trkpt lat="45.5527051" lon="13.8716419"><ele>176.5</ele><time>2026-04-25T10:02:54.081Z</time></trkpt><trkpt lat="45.5525959" lon="13.8717265"><ele>177.0</ele><time>2026-04-25T10:02:55.076Z</time></trkpt><trkpt lat="45.5524878" lon="13.8717959"><ele>177.0</ele><time>2026-04-25T10:02:56.08Z</time></trkpt><trkpt lat="45.5523841" lon="13.8718369"><ele>177.0</ele><time>2026-04-25T10:02:57.082Z</time></trkpt><trkpt lat="45.5522793" lon="13.8718719"><ele>177.0</ele><time>2026-04-25T10:02:58.103Z</time></trkpt><trkpt lat="45.5521689" lon="13.8718916"><ele>177.0</ele><time>2026-04-25T10:02:59.08Z</time></trkpt><trkpt lat="45.5520438" lon="13.8718981"><ele>177.75</ele><time>2026-04-25T10:03:00.079Z</time></trkpt><trkpt lat="45.5519122" lon="13.8719084"><ele>178.5</ele><time>2026-04-25T10:03:01.08Z</time></trkpt><trkpt lat="45.551772" lon="13.8719037"><ele>179.25</ele><time>2026-04-25T10:03:02.072Z</time></trkpt><trkpt lat="45.5516335" lon="13.8718811"><ele>180.0</ele><time>2026-04-25T10:03:03.078Z</time></trkpt><trkpt lat="45.5514996" lon="13.8718498"><ele>180.0</ele><time>2026-04-25T10:03:04.078Z</time></trkpt><trkpt lat="45.5513654" lon="13.8718109"><ele>180.0</ele><time>2026-04-25T10:03:05.088Z</time></trkpt><trkpt lat="45.5512236" lon="13.8717739"><ele>180.0</ele><time>2026-04-25T10:03:06.084Z</time></trkpt><trkpt lat="45.5510751" lon="13.871731"><ele>180.0</ele><time>2026-04-25T10:03:07.085Z</time></trkpt><trkpt lat="45.5509273" lon="13.8716891"><ele>176.25</ele><time>2026-04-25T10:03:08.084Z</time></trkpt><trkpt lat="45.5507881" lon="13.8716589"><ele>172.5</ele><time>2026-04-25T10:03:09.069Z</time></trkpt><trkpt lat="45.5506521" lon="13.8716353"><ele>168.75</ele><time>2026-04-25T10:03:10.086Z</time></trkpt><trkpt lat="45.5505215" lon="13.8716234"><ele>165.0</ele><time>2026-04-25T10:03:11.091Z</time></trkpt><trkpt lat="45.5503885" lon="13.8716238"><ele>164.25</ele><time>2026-04-25T10:03:12.075Z</time></trkpt><trkpt lat="45.5502587" lon="13.8716377"><ele>163.5</ele><time>2026-04-25T10:03:13.081Z</time></trkpt><trkpt lat="45.5501361" lon="13.8716731"><ele>162.75</ele><time>2026-04-25T10:03:14.079Z</time></trkpt><trkpt lat="45.5500168" lon="13.871714"><ele>162.0</ele><time>2026-04-25T10:03:15.101Z</time></trkpt><trkpt lat="45.549893" lon="13.8717702"><ele>161.25</ele><time>2026-04-25T10:03:16.078Z</time></trkpt><trkpt lat="45.549763" lon="13.8718452"><ele>160.5</ele><time>2026-04-25T10:03:17.079Z</time></trkpt><trkpt lat="45.5496318" lon="13.8719304"><ele>159.75</ele><time>2026-04-25T10:03:18.096Z</time></trkpt><trkpt lat="45.5494924" lon="13.8720311"><ele>159.0</ele><time>2026-04-25T10:03:19.084Z</time></trkpt><trkpt lat="45.549357" lon="13.8721222"><ele>159.0</ele><time>2026-04-25T10:03:20.077Z</time></trkpt><trkpt lat="45.5492317" lon="13.8721929"><ele>159.0</ele><time>2026-04-25T10:03:21.075Z</time></trkpt><trkpt lat="45.5491004" lon="13.8722431"><ele>159.0</ele><time>2026-04-25T10:03:22.078Z</time></trkpt><trkpt lat="45.548959" lon="13.8722792"><ele>159.0</ele><time>2026-04-25T10:03:23.085Z</time></trkpt><trkpt lat="45.5488073" lon="13.8722853"><ele>155.66666666666666</ele><time>2026-04-25T10:03:24.088Z</time></trkpt><trkpt lat="45.5486592" lon="13.8722745"><ele>152.33333333333331</ele><time>2026-04-25T10:03:25.075Z</time></trkpt><trkpt lat="45.5485036" lon="13.8722284"><ele>149.0</ele><time>2026-04-25T10:03:26.077Z</time></trkpt><trkpt lat="45.5483478" lon="13.8721637"><ele>149.0</ele><time>2026-04-25T10:03:27.073Z</time></trkpt><trkpt lat="45.5482052" lon="13.8720684"><ele>149.0</ele><time>2026-04-25T10:03:28.072Z</time></trkpt><trkpt lat="45.5480746" lon="13.8719569"><ele>149.0</ele><time>2026-04-25T10:03:29.085Z</time></trkpt><trkpt lat="45.5479486" lon="13.8718247"><ele>147.66666666666666</ele><time>2026-04-25T10:03:30.068Z</time></trkpt><trkpt lat="45.5478233" lon="13.8716754"><ele>146.33333333333334</ele><time>2026-04-25T10:03:31.074Z</time></trkpt><trkpt lat="45.5477111" lon="13.8715218"><ele>145.0</ele><time>2026-04-25T10:03:32.077Z</time></trkpt><trkpt lat="45.5475943" lon="13.8713688"><ele>145.0</ele><time>2026-04-25T10:03:33.068Z</time></trkpt><trkpt lat="45.5474712" lon="13.8712095"><ele>145.0</ele><time>2026-04-25T10:03:34.084Z</time></trkpt><trkpt lat="45.5473353" lon="13.8710584"><ele>145.0</ele><time>2026-04-25T10:03:35.077Z</time></trkpt><trkpt lat="45.5471949" lon="13.8709161"><ele>144.33333333333334</ele><time>2026-04-25T10:03:36.072Z</time></trkpt><trkpt lat="45.547055" lon="13.8707877"><ele>143.66666666666666</ele><time>2026-04-25T10:03:37.076Z</time></trkpt><trkpt lat="45.5469097" lon="13.8706703"><ele>143.0</ele><time>2026-04-25T10:03:38.082Z</time></trkpt><trkpt lat="45.5467666" lon="13.8705539"><ele>143.0</ele><time>2026-04-25T10:03:39.075Z</time></trkpt><trkpt lat="45.5466244" lon="13.8704422"><ele>143.0</ele><time>2026-04-25T10:03:40.081Z</time></trkpt><trkpt lat="45.5464843" lon="13.8703342"><ele>143.0</ele><time>2026-04-25T10:03:41.073Z</time></trkpt><trkpt lat="45.5463404" lon="13.870229"><ele>144.0</ele><time>2026-04-25T10:03:42.08Z</time></trkpt><trkpt lat="45.5461949" lon="13.870117"><ele>145.0</ele><time>2026-04-25T10:03:43.075Z</time></trkpt><trkpt lat="45.5460532" lon="13.8700101"><ele>146.0</ele><time>2026-04-25T10:03:44.075Z</time></trkpt><trkpt lat="45.5459091" lon="13.8699098"><ele>146.0</ele><time>2026-04-25T10:03:45.074Z</time></trkpt><trkpt lat="45.5457686" lon="13.8698134"><ele>146.0</ele><time>2026-04-25T10:03:46.074Z</time></trkpt><trkpt lat="45.5456319" lon="13.8697265"><ele>146.0</ele><time>2026-04-25T10:03:47.071Z</time></trkpt><trkpt lat="45.545494" lon="13.8696556"><ele>142.5</ele><time>2026-04-25T10:03:48.082Z</time></trkpt><trkpt lat="45.5453506" lon="13.869593"><ele>139.0</ele><time>2026-04-25T10:03:49.087Z</time></trkpt><trkpt lat="45.5452108" lon="13.8695344"><ele>135.5</ele><time>2026-04-25T10:03:50.073Z</time></trkpt><trkpt lat="45.5450714" lon="13.8694618"><ele>132.0</ele><time>2026-04-25T10:03:51.081Z</time></trkpt><trkpt lat="45.5449159" lon="13.869383"><ele>132.0</ele><time>2026-04-25T10:03:52.081Z</time></trkpt><trkpt lat="45.5447538" lon="13.8692944"><ele>132.0</ele><time>2026-04-25T10:03:53.079Z</time></trkpt><trkpt lat="45.5445898" lon="13.869197"><ele>132.0</ele><time>2026-04-25T10:03:54.085Z</time></trkpt><trkpt lat="45.5444337" lon="13.8690852"><ele>133.0</ele><time>2026-04-25T10:03:55.081Z</time></trkpt><trkpt lat="45.5442951" lon="13.8689785"><ele>134.0</ele><time>2026-04-25T10:03:56.09Z</time></trkpt><trkpt lat="45.5441646" lon="13.8688599"><ele>135.0</ele><time>2026-04-25T10:03:57.078Z</time></trkpt><trkpt lat="45.5440468" lon="13.8687376"><ele>135.0</ele><time>2026-04-25T10:03:58.087Z</time></trkpt><trkpt lat="45.5439421" lon="13.8686114"><ele>135.0</ele><time>2026-04-25T10:03:59.081Z</time></trkpt><trkpt lat="45.5438512" lon="13.8684926"><ele>135.0</ele><time>2026-04-25T10:04:00.069Z</time></trkpt><trkpt lat="45.5437695" lon="13.8683884"><ele>135.0</ele><time>2026-04-25T10:04:01.079Z</time></trkpt><trkpt lat="45.5436936" lon="13.8682837"><ele>134.83333333333334</ele><time>2026-04-25T10:04:02.077Z</time></trkpt><trkpt lat="45.5436214" lon="13.8681901"><ele>134.66666666666666</ele><time>2026-04-25T10:04:03.084Z</time></trkpt><trkpt lat="45.5435655" lon="13.8681175"><ele>134.5</ele><time>2026-04-25T10:04:04.07Z</time></trkpt><trkpt lat="45.5435098" lon="13.8680414"><ele>134.33333333333331</ele><time>2026-04-25T10:04:05.083Z</time></trkpt><trkpt lat="45.5434485" lon="13.86796"><ele>134.16666666666666</ele><time>2026-04-25T10:04:06.077Z</time></trkpt><trkpt lat="45.5433726" lon="13.8678626"><ele>134.0</ele><time>2026-04-25T10:04:07.075Z</time></trkpt><trkpt lat="45.5432834" lon="13.867757"><ele>134.0</ele><time>2026-04-25T10:04:08.074Z</time></trkpt><trkpt lat="45.5431812" lon="13.8676366"><ele>134.0</ele><time>2026-04-25T10:04:09.079Z</time></trkpt><trkpt lat="45.5430734" lon="13.8675109"><ele>134.0</ele><time>2026-04-25T10:04:10.078Z</time></trkpt><trkpt lat="45.5429642" lon="13.8673753"><ele>134.0</ele><time>2026-04-25T10:04:11.079Z</time></trkpt><trkpt lat="45.5428452" lon="13.8672485"><ele>132.25</ele><time>2026-04-25T10:04:12.079Z</time></trkpt><trkpt lat="45.542732" lon="13.8671454"><ele>130.5</ele><time>2026-04-25T10:04:13.078Z</time></trkpt><trkpt lat="45.5426175" lon="13.867047"><ele>128.75</ele><time>2026-04-25T10:04:14.076Z</time></trkpt><trkpt lat="45.5425059" lon="13.8669702"><ele>127.0</ele><time>2026-04-25T10:04:15.067Z</time></trkpt><trkpt lat="45.5424029" lon="13.8669383"><ele>127.0</ele><time>2026-04-25T10:04:16.073Z</time></trkpt><trkpt lat="45.5422961" lon="13.8669313"><ele>126.99999999999999</ele><time>2026-04-25T10:04:17.083Z</time></trkpt><trkpt lat="45.5421866" lon="13.86695"><ele>126.99999999999999</ele><time>2026-04-25T10:04:18.075Z</time></trkpt><trkpt lat="45.5420791" lon="13.8670007"><ele>127.0</ele><time>2026-04-25T10:04:19.079Z</time></trkpt><trkpt lat="45.5419873" lon="13.8670814"><ele>127.0</ele><time>2026-04-25T10:04:20.08Z</time></trkpt><trkpt lat="45.5419127" lon="13.8671948"><ele>123.5</ele><time>2026-04-25T10:04:21.075Z</time></trkpt><trkpt lat="45.5418491" lon="13.8673439"><ele>120.0</ele><time>2026-04-25T10:04:22.077Z</time></trkpt><trkpt lat="45.541804" lon="13.8675267"><ele>116.5</ele><time>2026-04-25T10:04:23.075Z</time></trkpt><trkpt lat="45.5417772" lon="13.8677226"><ele>113.0</ele><time>2026-04-25T10:04:24.084Z</time></trkpt><trkpt lat="45.5417761" lon="13.8679284"><ele>112.5</ele><time>2026-04-25T10:04:25.075Z</time></trkpt><trkpt lat="45.5417918" lon="13.8681362"><ele>112.0</ele><time>2026-04-25T10:04:26.089Z</time></trkpt><trkpt lat="45.5418265" lon="13.8683242"><ele>111.5</ele><time>2026-04-25T10:04:27.081Z</time></trkpt><trkpt lat="45.5418685" lon="13.8684931"><ele>111.0</ele><time>2026-04-25T10:04:28.074Z</time></trkpt><trkpt lat="45.5419253" lon="13.8686475"><ele>110.0</ele><time>2026-04-25T10:04:29.082Z</time></trkpt><trkpt lat="45.5419791" lon="13.8687958"><ele>109.0</ele><time>2026-04-25T10:04:30.075Z</time></trkpt><trkpt lat="45.5420261" lon="13.8689421"><ele>108.0</ele><time>2026-04-25T10:04:31.078Z</time></trkpt><trkpt lat="45.5420853" lon="13.8690843"><ele>107.0</ele><time>2026-04-25T10:04:32.079Z</time></trkpt><trkpt lat="45.5421353" lon="13.8692192"><ele>108.75</ele><time>2026-04-25T10:04:33.082Z</time></trkpt><trkpt lat="45.5421706" lon="13.8693732"><ele>110.5</ele><time>2026-04-25T10:04:34.078Z</time></trkpt><trkpt lat="45.5421762" lon="13.8695391"><ele>112.25</ele><time>2026-04-25T10:04:35.084Z</time></trkpt><trkpt lat="45.5421632" lon="13.8697136"><ele>114.0</ele><time>2026-04-25T10:04:36.073Z</time></trkpt><trkpt lat="45.5421143" lon="13.8698808"><ele>114.0</ele><time>2026-04-25T10:04:37.076Z</time></trkpt><trkpt lat="45.5420486" lon="13.8700631"><ele>114.0</ele><time>2026-04-25T10:04:38.085Z</time></trkpt><trkpt lat="45.5419572" lon="13.8702606"><ele>114.0</ele><time>2026-04-25T10:04:39.085Z</time></trkpt><trkpt lat="45.5418571" lon="13.870461"><ele>111.33333333333334</ele><time>2026-04-25T10:04:40.075Z</time></trkpt><trkpt lat="45.5417491" lon="13.8706558"><ele>108.66666666666667</ele><time>2026-04-25T10:04:41.075Z</time></trkpt><trkpt lat="45.5416514" lon="13.8708469"><ele>106.0</ele><time>2026-04-25T10:04:42.096Z</time></trkpt><trkpt lat="45.5415696" lon="13.8710184"><ele>105.0</ele><time>2026-04-25T10:04:43.079Z</time></trkpt><trkpt lat="45.5414937" lon="13.8711838"><ele>104.0</ele><time>2026-04-25T10:04:44.101Z</time></trkpt><trkpt lat="45.541416" lon="13.8713433"><ele>103.0</ele><time>2026-04-25T10:04:45.081Z</time></trkpt><trkpt lat="45.5413413" lon="13.8715119"><ele>102.0</ele><time>2026-04-25T10:04:46.08Z</time></trkpt><trkpt lat="45.5412617" lon="13.8716917"><ele>103.25</ele><time>2026-04-25T10:04:47.077Z</time></trkpt><trkpt lat="45.541193" lon="13.8718835"><ele>104.5</ele><time>2026-04-25T10:04:48.1Z</time></trkpt><trkpt lat="45.5411387" lon="13.8720834"><ele>105.75</ele><time>2026-04-25T10:04:49.081Z</time></trkpt><trkpt lat="45.5411043" lon="13.8722773"><ele>107.0</ele><time>2026-04-25T10:04:50.067Z</time></trkpt><trkpt lat="45.5410752" lon="13.8724633"><ele>105.5</ele><time>2026-04-25T10:04:51.073Z</time></trkpt><trkpt lat="45.5410501" lon="13.8726377"><ele>104.0</ele><time>2026-04-25T10:04:52.075Z</time></trkpt><trkpt lat="45.5410293" lon="13.8728147"><ele>102.5</ele><time>2026-04-25T10:04:53.08Z</time></trkpt><trkpt lat="45.540998" lon="13.8730016"><ele>101.0</ele><time>2026-04-25T10:04:54.089Z</time></trkpt><trkpt lat="45.5409595" lon="13.8731955"><ele>101.0</ele><time>2026-04-25T10:04:55.077Z</time></trkpt><trkpt lat="45.5409218" lon="13.8733875"><ele>101.0</ele><time>2026-04-25T10:04:56.075Z</time></trkpt><trkpt lat="45.5408759" lon="13.8735766"><ele>101.0</ele><time>2026-04-25T10:04:57.068Z</time></trkpt><trkpt lat="45.5408089" lon="13.8737611"><ele>101.0</ele><time>2026-04-25T10:04:58.084Z</time></trkpt><trkpt lat="45.5407202" lon="13.8739424"><ele>99.0</ele><time>2026-04-25T10:04:59.069Z</time></trkpt><trkpt lat="45.5406247" lon="13.8741009"><ele>97.0</ele><time>2026-04-25T10:05:00.085Z</time></trkpt><trkpt lat="45.5405244" lon="13.8742408"><ele>95.0</ele><time>2026-04-25T10:05:01.074Z</time></trkpt><trkpt lat="45.5404251" lon="13.8743648"><ele>93.0</ele><time>2026-04-25T10:05:02.079Z</time></trkpt><trkpt lat="45.5403235" lon="13.874484"><ele>92.0</ele><time>2026-04-25T10:05:03.075Z</time></trkpt><trkpt lat="45.540224" lon="13.8745864"><ele>91.0</ele><time>2026-04-25T10:05:04.076Z</time></trkpt><trkpt lat="45.5401148" lon="13.8746728"><ele>90.0</ele><time>2026-04-25T10:05:05.084Z</time></trkpt><trkpt lat="45.5399901" lon="13.8747208"><ele>89.0</ele><time>2026-04-25T10:05:06.086Z</time></trkpt><trkpt lat="45.539854" lon="13.8747452"><ele>89.0</ele><time>2026-04-25T10:05:07.074Z</time></trkpt><trkpt lat="45.5397043" lon="13.8747323"><ele>89.0</ele><time>2026-04-25T10:05:08.074Z</time></trkpt><trkpt lat="45.539546" lon="13.8746921"><ele>89.0</ele><time>2026-04-25T10:05:09.069Z</time></trkpt><trkpt lat="45.5393871" lon="13.874635"><ele>87.75</ele><time>2026-04-25T10:05:10.08Z</time></trkpt><trkpt lat="45.539238" lon="13.8745757"><ele>86.5</ele><time>2026-04-25T10:05:11.068Z</time></trkpt><trkpt lat="45.5390966" lon="13.8745257"><ele>85.25</ele><time>2026-04-25T10:05:12.07Z</time></trkpt><trkpt lat="45.5389714" lon="13.8745235"><ele>84.0</ele><time>2026-04-25T10:05:13.065Z</time></trkpt><trkpt lat="45.5388438" lon="13.8745385"><ele>84.0</ele><time>2026-04-25T10:05:14.087Z</time></trkpt><trkpt lat="45.5387306" lon="13.8745625"><ele>84.0</ele><time>2026-04-25T10:05:15.076Z</time></trkpt><trkpt lat="45.5386134" lon="13.8745879"><ele>84.0</ele><time>2026-04-25T10:05:16.076Z</time></trkpt><trkpt lat="45.5384962" lon="13.8745876"><ele>84.0</ele><time>2026-04-25T10:05:17.07Z</time></trkpt><trkpt lat="45.5383759" lon="13.8745657"><ele>82.5</ele><time>2026-04-25T10:05:18.061Z</time></trkpt><trkpt lat="45.5382564" lon="13.8745187"><ele>81.0</ele><time>2026-04-25T10:05:19.067Z</time></trkpt><trkpt lat="45.5381393" lon="13.8744439"><ele>79.5</ele><time>2026-04-25T10:05:20.083Z</time></trkpt><trkpt lat="45.5380244" lon="13.8743373"><ele>78.0</ele><time>2026-04-25T10:05:21.072Z</time></trkpt><trkpt lat="45.5379214" lon="13.8742123"><ele>78.25</ele><time>2026-04-25T10:05:22.076Z</time></trkpt><trkpt lat="45.5377973" lon="13.8741241"><ele>78.5</ele><time>2026-04-25T10:05:23.079Z</time></trkpt><trkpt lat="45.5376671" lon="13.8740738"><ele>78.75</ele><time>2026-04-25T10:05:24.077Z</time></trkpt><trkpt lat="45.5375364" lon="13.8740178"><ele>79.0</ele><time>2026-04-25T10:05:25.073Z</time></trkpt><trkpt lat="45.5374097" lon="13.8739433"><ele>79.0</ele><time>2026-04-25T10:05:26.077Z</time></trkpt><trkpt lat="45.5372863" lon="13.8738443"><ele>79.0</ele><time>2026-04-25T10:05:27.075Z</time></trkpt><trkpt lat="45.5371761" lon="13.8737098"><ele>79.0</ele><time>2026-04-25T10:05:28.077Z</time></trkpt><trkpt lat="45.53706" lon="13.8735805"><ele>79.0</ele><time>2026-04-25T10:05:29.071Z</time></trkpt><trkpt lat="45.5369471" lon="13.873424"><ele>77.66666666666666</ele><time>2026-04-25T10:05:30.084Z</time></trkpt><trkpt lat="45.5368322" lon="13.8732715"><ele>76.33333333333333</ele><time>2026-04-25T10:05:31.079Z</time></trkpt><trkpt lat="45.5367189" lon="13.8731215"><ele>75.0</ele><time>2026-04-25T10:05:32.083Z</time></trkpt><trkpt lat="45.536612" lon="13.8729873"><ele>75.0</ele><time>2026-04-25T10:05:33.071Z</time></trkpt><trkpt lat="45.5365115" lon="13.8728724"><ele>75.0</ele><time>2026-04-25T10:05:34.065Z</time></trkpt><trkpt lat="45.5364171" lon="13.8727654"><ele>75.0</ele><time>2026-04-25T10:05:35.07Z</time></trkpt><trkpt lat="45.5363245" lon="13.872669"><ele>75.0</ele><time>2026-04-25T10:05:36.062Z</time></trkpt><trkpt lat="45.5362349" lon="13.8725732"><ele>73.6</ele><time>2026-04-25T10:05:37.074Z</time></trkpt><trkpt lat="45.5361493" lon="13.8724808"><ele>72.2</ele><time>2026-04-25T10:05:38.074Z</time></trkpt><trkpt lat="45.5360689" lon="13.8723861"><ele>70.8</ele><time>2026-04-25T10:05:39.072Z</time></trkpt><trkpt lat="45.5359996" lon="13.8722946"><ele>69.4</ele><time>2026-04-25T10:05:40.062Z</time></trkpt><trkpt lat="45.5359333" lon="13.8721907"><ele>68.0</ele><time>2026-04-25T10:05:41.07Z</time></trkpt><trkpt lat="45.5358687" lon="13.8720858"><ele>68.0</ele><time>2026-04-25T10:05:42.078Z</time></trkpt><trkpt lat="45.5358049" lon="13.8719909"><ele>68.0</ele><time>2026-04-25T10:05:43.07Z</time></trkpt><trkpt lat="45.5357416" lon="13.8718964"><ele>68.0</ele><time>2026-04-25T10:05:44.067Z</time></trkpt><trkpt lat="45.5356954" lon="13.8718131"><ele>68.0</ele><time>2026-04-25T10:05:45.078Z</time></trkpt><trkpt lat="45.5356431" lon="13.8716907"><ele>68.0</ele><time>2026-04-25T10:05:47.074Z</time></trkpt><trkpt lat="45.5355906" lon="13.8715888"><ele>68.0</ele><time>2026-04-25T10:05:49.071Z</time></trkpt><trkpt lat="45.5355175" lon="13.8715581"><ele>67.8</ele><time>2026-04-25T10:05:51.078Z</time></trkpt><trkpt lat="45.5353882" lon="13.871621"><ele>67.6</ele><time>2026-04-25T10:05:53.073Z</time></trkpt><trkpt lat="45.535302" lon="13.8716789"><ele>67.4</ele><time>2026-04-25T10:05:54.072Z</time></trkpt><trkpt lat="45.5352099" lon="13.8717449"><ele>67.2</ele><time>2026-04-25T10:05:55.077Z</time></trkpt><trkpt lat="45.5351156" lon="13.8718138"><ele>67.0</ele><time>2026-04-25T10:05:56.071Z</time></trkpt><trkpt lat="45.5350123" lon="13.8718593"><ele>68.66666666666666</ele><time>2026-04-25T10:05:57.086Z</time></trkpt><trkpt lat="45.5349198" lon="13.871901"><ele>70.33333333333333</ele><time>2026-04-25T10:05:58.082Z</time></trkpt><trkpt lat="45.5348351" lon="13.8719355"><ele>72.0</ele><time>2026-04-25T10:05:59.074Z</time></trkpt><trkpt lat="45.5347531" lon="13.8719627"><ele>73.66666666666667</ele><time>2026-04-25T10:06:00.067Z</time></trkpt><trkpt lat="45.5346789" lon="13.8719946"><ele>75.33333333333334</ele><time>2026-04-25T10:06:01.068Z</time></trkpt><trkpt lat="45.534608" lon="13.8720236"><ele>77.0</ele><time>2026-04-25T10:06:02.079Z</time></trkpt><trkpt lat="45.5345405" lon="13.8720489"><ele>77.0</ele><time>2026-04-25T10:06:03.08Z</time></trkpt><trkpt lat="45.5344762" lon="13.8720715"><ele>77.0</ele><time>2026-04-25T10:06:04.078Z</time></trkpt><trkpt lat="45.5344135" lon="13.8720977"><ele>77.0</ele><time>2026-04-25T10:06:05.072Z</time></trkpt><trkpt lat="45.5343449" lon="13.872125"><ele>77.0</ele><time>2026-04-25T10:06:06.081Z</time></trkpt><trkpt lat="45.5342633" lon="13.8721581"><ele>77.0</ele><time>2026-04-25T10:06:07.088Z</time></trkpt><trkpt lat="45.5341775" lon="13.87219"><ele>77.0</ele><time>2026-04-25T10:06:08.081Z</time></trkpt><trkpt lat="45.5340881" lon="13.8722179"><ele>77.0</ele><time>2026-04-25T10:06:09.075Z</time></trkpt><trkpt lat="45.5339928" lon="13.8722524"><ele>77.0</ele><time>2026-04-25T10:06:10.077Z</time></trkpt><trkpt lat="45.5338992" lon="13.8722879"><ele>77.0</ele><time>2026-04-25T10:06:11.071Z</time></trkpt><trkpt lat="45.5338121" lon="13.8723205"><ele>77.0</ele><time>2026-04-25T10:06:12.074Z</time></trkpt><trkpt lat="45.5337259" lon="13.8723546"><ele>77.0</ele><time>2026-04-25T10:06:13.073Z</time></trkpt><trkpt lat="45.5336338" lon="13.8723914"><ele>75.83333333333334</ele><time>2026-04-25T10:06:14.071Z</time></trkpt><trkpt lat="45.5335426" lon="13.8724222"><ele>74.66666666666667</ele><time>2026-04-25T10:06:15.067Z</time></trkpt><trkpt lat="45.5334585" lon="13.8724526"><ele>73.5</ele><time>2026-04-25T10:06:16.076Z</time></trkpt><trkpt lat="45.5333819" lon="13.8724827"><ele>72.33333333333333</ele><time>2026-04-25T10:06:17.075Z</time></trkpt><trkpt lat="45.5333125" lon="13.8725093"><ele>71.16666666666666</ele><time>2026-04-25T10:06:18.074Z</time></trkpt><trkpt lat="45.5332444" lon="13.8725352"><ele>70.0</ele><time>2026-04-25T10:06:19.068Z</time></trkpt><trkpt lat="45.5331257" lon="13.8725528"><ele>70.0</ele><time>2026-04-25T10:06:21.074Z</time></trkpt><trkpt lat="45.5330575" lon="13.8725395"><ele>70.0</ele><time>2026-04-25T10:06:22.085Z</time></trkpt><trkpt lat="45.5329813" lon="13.8725118"><ele>70.0</ele><time>2026-04-25T10:06:23.063Z</time></trkpt><trkpt lat="45.5328969" lon="13.8724999"><ele>70.0</ele><time>2026-04-25T10:06:24.067Z</time></trkpt><trkpt lat="45.5328011" lon="13.8724786"><ele>70.0</ele><time>2026-04-25T10:06:25.095Z</time></trkpt><trkpt lat="45.5327059" lon="13.8724756"><ele>70.0</ele><time>2026-04-25T10:06:26.086Z</time></trkpt><trkpt lat="45.5325989" lon="13.8724791"><ele>69.25</ele><time>2026-04-25T10:06:27.082Z</time></trkpt><trkpt lat="45.5324898" lon="13.8724989"><ele>68.5</ele><time>2026-04-25T10:06:28.077Z</time></trkpt><trkpt lat="45.5323792" lon="13.872545"><ele>67.75</ele><time>2026-04-25T10:06:29.075Z</time></trkpt><trkpt lat="45.532268" lon="13.8726006"><ele>67.0</ele><time>2026-04-25T10:06:30.072Z</time></trkpt><trkpt lat="45.5321798" lon="13.8727026"><ele>67.0</ele><time>2026-04-25T10:06:31.081Z</time></trkpt><trkpt lat="45.5321075" lon="13.8728443"><ele>67.0</ele><time>2026-04-25T10:06:32.069Z</time></trkpt><trkpt lat="45.53206" lon="13.8730136"><ele>67.0</ele><time>2026-04-25T10:06:33.076Z</time></trkpt><trkpt lat="45.5320387" lon="13.873196"><ele>67.0</ele><time>2026-04-25T10:06:34.069Z</time></trkpt><trkpt lat="45.53204" lon="13.8733779"><ele>68.0</ele><time>2026-04-25T10:06:35.061Z</time></trkpt><trkpt lat="45.5320658" lon="13.8735685"><ele>69.0</ele><time>2026-04-25T10:06:36.069Z</time></trkpt><trkpt lat="45.5320896" lon="13.873756"><ele>70.0</ele><time>2026-04-25T10:06:37.066Z</time></trkpt><trkpt lat="45.5321218" lon="13.8739512"><ele>71.0</ele><time>2026-04-25T10:06:38.07Z</time></trkpt><trkpt lat="45.5321545" lon="13.8741566"><ele>71.25</ele><time>2026-04-25T10:06:39.069Z</time></trkpt><trkpt lat="45.5321871" lon="13.8743609"><ele>71.5</ele><time>2026-04-25T10:06:40.066Z</time></trkpt><trkpt lat="45.5322159" lon="13.8745623"><ele>71.75</ele><time>2026-04-25T10:06:41.075Z</time></trkpt><trkpt lat="45.5322423" lon="13.8747445"><ele>72.0</ele><time>2026-04-25T10:06:42.059Z</time></trkpt><trkpt lat="45.5322625" lon="13.8749102"><ele>72.0</ele><time>2026-04-25T10:06:43.053Z</time></trkpt><trkpt lat="45.5322812" lon="13.8750755"><ele>72.0</ele><time>2026-04-25T10:06:44.073Z</time></trkpt><trkpt lat="45.5322953" lon="13.8752459"><ele>72.0</ele><time>2026-04-25T10:06:45.064Z</time></trkpt><trkpt lat="45.532298" lon="13.8754287"><ele>72.0</ele><time>2026-04-25T10:06:46.066Z</time></trkpt><trkpt lat="45.5322823" lon="13.8756192"><ele>71.75</ele><time>2026-04-25T10:06:47.066Z</time></trkpt><trkpt lat="45.5322337" lon="13.8757957"><ele>71.5</ele><time>2026-04-25T10:06:48.072Z</time></trkpt><trkpt lat="45.5321554" lon="13.8759598"><ele>71.25</ele><time>2026-04-25T10:06:49.068Z</time></trkpt><trkpt lat="45.5320474" lon="13.8760949"><ele>71.0</ele><time>2026-04-25T10:06:50.074Z</time></trkpt><trkpt lat="45.5319261" lon="13.8762136"><ele>71.5</ele><time>2026-04-25T10:06:51.07Z</time></trkpt><trkpt lat="45.5318087" lon="13.8763427"><ele>72.0</ele><time>2026-04-25T10:06:52.07Z</time></trkpt><trkpt lat="45.5316943" lon="13.8764569"><ele>72.5</ele><time>2026-04-25T10:06:53.073Z</time></trkpt><trkpt lat="45.5315843" lon="13.8766119"><ele>73.0</ele><time>2026-04-25T10:06:54.079Z</time></trkpt><trkpt lat="45.5314798" lon="13.8767974"><ele>73.0</ele><time>2026-04-25T10:06:55.077Z</time></trkpt><trkpt lat="45.5313873" lon="13.8769896"><ele>73.0</ele><time>2026-04-25T10:06:56.082Z</time></trkpt><trkpt lat="45.5312966" lon="13.8771835"><ele>73.0</ele><time>2026-04-25T10:06:57.074Z</time></trkpt><trkpt lat="45.531202" lon="13.8773737"><ele>77.66666666666666</ele><time>2026-04-25T10:06:58.075Z</time></trkpt><trkpt lat="45.5311076" lon="13.8775469"><ele>82.33333333333333</ele><time>2026-04-25T10:06:59.075Z</time></trkpt><trkpt lat="45.5310128" lon="13.8777131"><ele>87.0</ele><time>2026-04-25T10:07:00.081Z</time></trkpt><trkpt lat="45.5309102" lon="13.8778811"><ele>87.0</ele><time>2026-04-25T10:07:01.077Z</time></trkpt><trkpt lat="45.5308009" lon="13.8780461"><ele>87.0</ele><time>2026-04-25T10:07:02.073Z</time></trkpt><trkpt lat="45.5306939" lon="13.8782017"><ele>87.0</ele><time>2026-04-25T10:07:03.09Z</time></trkpt><trkpt lat="45.5305967" lon="13.8783553"><ele>84.5</ele><time>2026-04-25T10:07:04.08Z</time></trkpt><trkpt lat="45.5305172" lon="13.8785187"><ele>82.0</ele><time>2026-04-25T10:07:05.078Z</time></trkpt><trkpt lat="45.530444" lon="13.878681"><ele>79.5</ele><time>2026-04-25T10:07:06.065Z</time></trkpt><trkpt lat="45.5303787" lon="13.8788295"><ele>77.0</ele><time>2026-04-25T10:07:07.069Z</time></trkpt><trkpt lat="45.5303143" lon="13.8789642"><ele>77.83333333333334</ele><time>2026-04-25T10:07:08.074Z</time></trkpt><trkpt lat="45.5302617" lon="13.8790864"><ele>78.66666666666667</ele><time>2026-04-25T10:07:09.077Z</time></trkpt><trkpt lat="45.530217" lon="13.8791957"><ele>79.5</ele><time>2026-04-25T10:07:10.076Z</time></trkpt><trkpt lat="45.5301692" lon="13.8792865"><ele>80.33333333333333</ele><time>2026-04-25T10:07:11.075Z</time></trkpt><trkpt lat="45.5301147" lon="13.8793584"><ele>81.16666666666666</ele><time>2026-04-25T10:07:12.07Z</time></trkpt><trkpt lat="45.5300667" lon="13.8794236"><ele>82.0</ele><time>2026-04-25T10:07:13.084Z</time></trkpt><trkpt lat="45.5300074" lon="13.8794844"><ele>82.0</ele><time>2026-04-25T10:07:14.075Z</time></trkpt><trkpt lat="45.5299426" lon="13.8795622"><ele>82.0</ele><time>2026-04-25T10:07:15.077Z</time></trkpt><trkpt lat="45.529869" lon="13.8796311"><ele>82.0</ele><time>2026-04-25T10:07:16.078Z</time></trkpt><trkpt lat="45.5297722" lon="13.8797023"><ele>82.0</ele><time>2026-04-25T10:07:17.071Z</time></trkpt><trkpt lat="45.5296655" lon="13.8797513"><ele>82.0</ele><time>2026-04-25T10:07:18.072Z</time></trkpt><trkpt lat="45.5295318" lon="13.8797799"><ele>85.25</ele><time>2026-04-25T10:07:19.07Z</time></trkpt><trkpt lat="45.5293955" lon="13.8798109"><ele>88.5</ele><time>2026-04-25T10:07:20.073Z</time></trkpt><trkpt lat="45.5292637" lon="13.8798663"><ele>91.75</ele><time>2026-04-25T10:07:21.072Z</time></trkpt><trkpt lat="45.5291311" lon="13.8799462"><ele>95.0</ele><time>2026-04-25T10:07:22.065Z</time></trkpt><trkpt lat="45.5290193" lon="13.8800466"><ele>98.0</ele><time>2026-04-25T10:07:23.074Z</time></trkpt><trkpt lat="45.5289091" lon="13.8801836"><ele>101.0</ele><time>2026-04-25T10:07:24.073Z</time></trkpt><trkpt lat="45.5288076" lon="13.8803236"><ele>104.0</ele><time>2026-04-25T10:07:25.072Z</time></trkpt><trkpt lat="45.528708" lon="13.8804843"><ele>107.0</ele><time>2026-04-25T10:07:26.073Z</time></trkpt><trkpt lat="45.5286127" lon="13.8806332"><ele>107.0</ele><time>2026-04-25T10:07:27.071Z</time></trkpt><trkpt lat="45.528525" lon="13.8807661"><ele>107.0</ele><time>2026-04-25T10:07:28.073Z</time></trkpt><trkpt lat="45.5284243" lon="13.8808874"><ele>107.0</ele><time>2026-04-25T10:07:29.077Z</time></trkpt><trkpt lat="45.5283128" lon="13.881007"><ele>107.0</ele><time>2026-04-25T10:07:30.079Z</time></trkpt><trkpt lat="45.5281858" lon="13.881113"><ele>109.66666666666666</ele><time>2026-04-25T10:07:31.074Z</time></trkpt><trkpt lat="45.5280498" lon="13.881208"><ele>112.33333333333334</ele><time>2026-04-25T10:07:32.077Z</time></trkpt><trkpt lat="45.5279125" lon="13.881298"><ele>115.0</ele><time>2026-04-25T10:07:33.075Z</time></trkpt><trkpt lat="45.5277752" lon="13.8813899"><ele>115.0</ele><time>2026-04-25T10:07:34.078Z</time></trkpt><trkpt lat="45.5276363" lon="13.8814865"><ele>115.0</ele><time>2026-04-25T10:07:35.076Z</time></trkpt><trkpt lat="45.5275012" lon="13.8815868"><ele>115.0</ele><time>2026-04-25T10:07:36.085Z</time></trkpt><trkpt lat="45.5273655" lon="13.8817044"><ele>115.33333333333334</ele><time>2026-04-25T10:07:37.067Z</time></trkpt><trkpt lat="45.5272149" lon="13.8818254"><ele>115.66666666666666</ele><time>2026-04-25T10:07:38.079Z</time></trkpt><trkpt lat="45.5270534" lon="13.88197"><ele>116.0</ele><time>2026-04-25T10:07:39.067Z</time></trkpt><trkpt lat="45.5268921" lon="13.8821471"><ele>116.0</ele><time>2026-04-25T10:07:40.076Z</time></trkpt><trkpt lat="45.5267198" lon="13.8823395"><ele>116.0</ele><time>2026-04-25T10:07:41.073Z</time></trkpt><trkpt lat="45.526545" lon="13.8825285"><ele>116.0</ele><time>2026-04-25T10:07:42.079Z</time></trkpt><trkpt lat="45.5263661" lon="13.8827196"><ele>117.66666666666666</ele><time>2026-04-25T10:07:43.074Z</time></trkpt><trkpt lat="45.5261857" lon="13.8828954"><ele>119.33333333333334</ele><time>2026-04-25T10:07:44.071Z</time></trkpt><trkpt lat="45.5260095" lon="13.8830588"><ele>121.0</ele><time>2026-04-25T10:07:45.073Z</time></trkpt><trkpt lat="45.5258449" lon="13.8832083"><ele>121.0</ele><time>2026-04-25T10:07:46.081Z</time></trkpt><trkpt lat="45.5256983" lon="13.8833511"><ele>121.0</ele><time>2026-04-25T10:07:47.08Z</time></trkpt><trkpt lat="45.5255508" lon="13.88349"><ele>121.0</ele><time>2026-04-25T10:07:48.077Z</time></trkpt><trkpt lat="45.5254102" lon="13.8836407"><ele>122.33333333333334</ele><time>2026-04-25T10:07:49.077Z</time></trkpt><trkpt lat="45.5252559" lon="13.8837761"><ele>123.66666666666666</ele><time>2026-04-25T10:07:50.077Z</time></trkpt><trkpt lat="45.5250904" lon="13.8839087"><ele>125.0</ele><time>2026-04-25T10:07:51.078Z</time></trkpt><trkpt lat="45.5249223" lon="13.8840291"><ele>125.0</ele><time>2026-04-25T10:07:52.087Z</time></trkpt><trkpt lat="45.524749" lon="13.8841492"><ele>125.0</ele><time>2026-04-25T10:07:53.071Z</time></trkpt><trkpt lat="45.5245684" lon="13.8842542"><ele>125.0</ele><time>2026-04-25T10:07:54.072Z</time></trkpt><trkpt lat="45.5243806" lon="13.8843422"><ele>123.66666666666666</ele><time>2026-04-25T10:07:55.069Z</time></trkpt><trkpt lat="45.5241886" lon="13.8844109"><ele>122.33333333333334</ele><time>2026-04-25T10:07:56.071Z</time></trkpt><trkpt lat="45.5239929" lon="13.8844692"><ele>121.0</ele><time>2026-04-25T10:07:57.066Z</time></trkpt><trkpt lat="45.5237893" lon="13.8845101"><ele>124.0</ele><time>2026-04-25T10:07:58.089Z</time></trkpt><trkpt lat="45.5235923" lon="13.8845569"><ele>127.0</ele><time>2026-04-25T10:07:59.062Z</time></trkpt><trkpt lat="45.5234028" lon="13.884626"><ele>130.0</ele><time>2026-04-25T10:08:00.067Z</time></trkpt><trkpt lat="45.52323" lon="13.8847283"><ele>130.0</ele><time>2026-04-25T10:08:01.061Z</time></trkpt><trkpt lat="45.5230754" lon="13.8848478"><ele>130.0</ele><time>2026-04-25T10:08:02.067Z</time></trkpt><trkpt lat="45.5229322" lon="13.8849657"><ele>130.0</ele><time>2026-04-25T10:08:03.067Z</time></trkpt><trkpt lat="45.5227891" lon="13.8850747"><ele>124.33333333333334</ele><time>2026-04-25T10:08:04.069Z</time></trkpt><trkpt lat="45.5226231" lon="13.8851683"><ele>118.66666666666666</ele><time>2026-04-25T10:08:05.07Z</time></trkpt><trkpt lat="45.5224538" lon="13.885218"><ele>113.0</ele><time>2026-04-25T10:08:06.081Z</time></trkpt><trkpt lat="45.5222795" lon="13.8852357"><ele>113.0</ele><time>2026-04-25T10:08:07.069Z</time></trkpt><trkpt lat="45.5220904" lon="13.8852122"><ele>113.0</ele><time>2026-04-25T10:08:08.07Z</time></trkpt><trkpt lat="45.5219044" lon="13.8851683"><ele>113.0</ele><time>2026-04-25T10:08:09.07Z</time></trkpt><trkpt lat="45.5217229" lon="13.8850903"><ele>122.33333333333333</ele><time>2026-04-25T10:08:10.073Z</time></trkpt><trkpt lat="45.5215496" lon="13.884971"><ele>131.66666666666666</ele><time>2026-04-25T10:08:11.078Z</time></trkpt><trkpt lat="45.5213846" lon="13.884818"><ele>141.0</ele><time>2026-04-25T10:08:12.074Z</time></trkpt><trkpt lat="45.5212419" lon="13.8846463"><ele>137.66666666666666</ele><time>2026-04-25T10:08:13.067Z</time></trkpt><trkpt lat="45.521118" lon="13.884476"><ele>134.33333333333331</ele><time>2026-04-25T10:08:14.067Z</time></trkpt><trkpt lat="45.5210047" lon="13.8843212"><ele>131.0</ele><time>2026-04-25T10:08:15.071Z</time></trkpt><trkpt lat="45.5208825" lon="13.8841893"><ele>133.75</ele><time>2026-04-25T10:08:16.078Z</time></trkpt><trkpt lat="45.5207557" lon="13.884095"><ele>136.5</ele><time>2026-04-25T10:08:17.072Z</time></trkpt><trkpt lat="45.5206103" lon="13.884056"><ele>139.25</ele><time>2026-04-25T10:08:18.077Z</time></trkpt><trkpt lat="45.5204642" lon="13.8840527"><ele>142.0</ele><time>2026-04-25T10:08:19.072Z</time></trkpt><trkpt lat="45.5203045" lon="13.8840632"><ele>142.0</ele><time>2026-04-25T10:08:20.078Z</time></trkpt><trkpt lat="45.5201491" lon="13.8840827"><ele>142.0</ele><time>2026-04-25T10:08:21.076Z</time></trkpt><trkpt lat="45.519998" lon="13.8840818"><ele>142.0</ele><time>2026-04-25T10:08:22.074Z</time></trkpt><trkpt lat="45.5198437" lon="13.8840333"><ele>142.0</ele><time>2026-04-25T10:08:23.077Z</time></trkpt><trkpt lat="45.5197102" lon="13.8839386"><ele>142.0</ele><time>2026-04-25T10:08:24.078Z</time></trkpt><trkpt lat="45.5195877" lon="13.8838166"><ele>142.0</ele><time>2026-04-25T10:08:25.09Z</time></trkpt><trkpt lat="45.5194876" lon="13.8836678"><ele>142.0</ele><time>2026-04-25T10:08:26.081Z</time></trkpt><trkpt lat="45.5194097" lon="13.8834865"><ele>141.66666666666669</ele><time>2026-04-25T10:08:27.076Z</time></trkpt><trkpt lat="45.5193671" lon="13.8832785"><ele>141.33333333333334</ele><time>2026-04-25T10:08:28.079Z</time></trkpt><trkpt lat="45.519373" lon="13.8830598"><ele>141.0</ele><time>2026-04-25T10:08:29.083Z</time></trkpt><trkpt lat="45.5194058" lon="13.8828431"><ele>141.0</ele><time>2026-04-25T10:08:30.072Z</time></trkpt><trkpt lat="45.5194677" lon="13.8826304"><ele>141.0</ele><time>2026-04-25T10:08:31.069Z</time></trkpt><trkpt lat="45.5195441" lon="13.8824214"><ele>141.0</ele><time>2026-04-25T10:08:32.068Z</time></trkpt><trkpt lat="45.5196282" lon="13.8822163"><ele>151.0</ele><time>2026-04-25T10:08:33.079Z</time></trkpt><trkpt lat="45.5197162" lon="13.8819849"><ele>161.0</ele><time>2026-04-25T10:08:34.073Z</time></trkpt><trkpt lat="45.5198008" lon="13.8817394"><ele>171.0</ele><time>2026-04-25T10:08:35.087Z</time></trkpt><trkpt lat="45.5198747" lon="13.8814996"><ele>171.0</ele><time>2026-04-25T10:08:36.075Z</time></trkpt><trkpt lat="45.5199286" lon="13.8812763"><ele>171.0</ele><time>2026-04-25T10:08:37.077Z</time></trkpt><trkpt lat="45.5199904" lon="13.8810583"><ele>171.0</ele><time>2026-04-25T10:08:38.071Z</time></trkpt><trkpt lat="45.5200582" lon="13.8808351"><ele>167.0</ele><time>2026-04-25T10:08:39.074Z</time></trkpt><trkpt lat="45.5201374" lon="13.8806095"><ele>163.0</ele><time>2026-04-25T10:08:40.08Z</time></trkpt><trkpt lat="45.5202282" lon="13.8803847"><ele>159.0</ele><time>2026-04-25T10:08:41.073Z</time></trkpt><trkpt lat="45.5203419" lon="13.8801697"><ele>165.66666666666666</ele><time>2026-04-25T10:08:42.072Z</time></trkpt><trkpt lat="45.5204837" lon="13.8799722"><ele>172.33333333333331</ele><time>2026-04-25T10:08:43.074Z</time></trkpt><trkpt lat="45.5206386" lon="13.8797791"><ele>179.0</ele><time>2026-04-25T10:08:44.067Z</time></trkpt><trkpt lat="45.520808" lon="13.8795876"><ele>179.0</ele><time>2026-04-25T10:08:45.072Z</time></trkpt><trkpt lat="45.5209802" lon="13.8793994"><ele>179.0</ele><time>2026-04-25T10:08:46.072Z</time></trkpt><trkpt lat="45.521159" lon="13.8792219"><ele>179.0</ele><time>2026-04-25T10:08:47.096Z</time></trkpt><trkpt lat="45.5213446" lon="13.8790434"><ele>182.0</ele><time>2026-04-25T10:08:48.071Z</time></trkpt><trkpt lat="45.5215371" lon="13.878882"><ele>185.0</ele><time>2026-04-25T10:08:49.072Z</time></trkpt><trkpt lat="45.5217273" lon="13.8787207"><ele>188.0</ele><time>2026-04-25T10:08:50.072Z</time></trkpt><trkpt lat="45.5219068" lon="13.8785545"><ele>189.66666666666666</ele><time>2026-04-25T10:08:51.075Z</time></trkpt><trkpt lat="45.5220739" lon="13.8783581"><ele>191.33333333333331</ele><time>2026-04-25T10:08:52.073Z</time></trkpt><trkpt lat="45.5222298" lon="13.8781458"><ele>193.0</ele><time>2026-04-25T10:08:53.068Z</time></trkpt><trkpt lat="45.522384" lon="13.8779221"><ele>193.0</ele><time>2026-04-25T10:08:54.088Z</time></trkpt><trkpt lat="45.5225335" lon="13.8776823"><ele>193.0</ele><time>2026-04-25T10:08:55.075Z</time></trkpt><trkpt lat="45.5226919" lon="13.8774572"><ele>193.0</ele><time>2026-04-25T10:08:56.077Z</time></trkpt><trkpt lat="45.5228461" lon="13.877235"><ele>191.66666666666666</ele><time>2026-04-25T10:08:57.071Z</time></trkpt><trkpt lat="45.5229929" lon="13.8770247"><ele>190.33333333333331</ele><time>2026-04-25T10:08:58.08Z</time></trkpt><trkpt lat="45.5231344" lon="13.8768216"><ele>189.0</ele><time>2026-04-25T10:08:59.067Z</time></trkpt><trkpt lat="45.5232791" lon="13.8766088"><ele>189.0</ele><time>2026-04-25T10:09:00.074Z</time></trkpt><trkpt lat="45.5234186" lon="13.8763855"><ele>189.0</ele><time>2026-04-25T10:09:01.077Z</time></trkpt><trkpt lat="45.5235493" lon="13.8761565"><ele>189.0</ele><time>2026-04-25T10:09:02.082Z</time></trkpt><trkpt lat="45.5236737" lon="13.8759115"><ele>197.0</ele><time>2026-04-25T10:09:03.079Z</time></trkpt><trkpt lat="45.5237883" lon="13.8756569"><ele>205.0</ele><time>2026-04-25T10:09:04.073Z</time></trkpt><trkpt lat="45.5238903" lon="13.8753894"><ele>213.0</ele><time>2026-04-25T10:09:05.068Z</time></trkpt><trkpt lat="45.5239858" lon="13.8751055"><ele>206.0</ele><time>2026-04-25T10:09:06.068Z</time></trkpt><trkpt lat="45.5240747" lon="13.8748046"><ele>199.0</ele><time>2026-04-25T10:09:07.076Z</time></trkpt><trkpt lat="45.5241587" lon="13.874502"><ele>196.66666666666666</ele><time>2026-04-25T10:09:08.068Z</time></trkpt><trkpt lat="45.5242266" lon="13.8742057"><ele>194.33333333333331</ele><time>2026-04-25T10:09:09.07Z</time></trkpt><trkpt lat="45.5242817" lon="13.8739161"><ele>192.0</ele><time>2026-04-25T10:09:10.067Z</time></trkpt><trkpt lat="45.5243178" lon="13.8736245"><ele>191.33333333333334</ele><time>2026-04-25T10:09:11.088Z</time></trkpt><trkpt lat="45.5243491" lon="13.8733225"><ele>190.66666666666669</ele><time>2026-04-25T10:09:12.069Z</time></trkpt><trkpt lat="45.5243804" lon="13.8730159"><ele>190.0</ele><time>2026-04-25T10:09:13.079Z</time></trkpt><trkpt lat="45.5244208" lon="13.8727033"><ele>188.33333333333334</ele><time>2026-04-25T10:09:14.066Z</time></trkpt><trkpt lat="45.5244722" lon="13.8724027"><ele>186.66666666666666</ele><time>2026-04-25T10:09:15.073Z</time></trkpt><trkpt lat="45.5245258" lon="13.8721119"><ele>185.0</ele><time>2026-04-25T10:09:16.085Z</time></trkpt><trkpt lat="45.5245771" lon="13.8718471"><ele>197.33333333333331</ele><time>2026-04-25T10:09:17.077Z</time></trkpt><trkpt lat="45.524633" lon="13.8716029"><ele>209.66666666666666</ele><time>2026-04-25T10:09:18.078Z</time></trkpt><trkpt lat="45.5246892" lon="13.8713808"><ele>222.0</ele><time>2026-04-25T10:09:19.07Z</time></trkpt><trkpt lat="45.5247448" lon="13.8711788"><ele>222.0</ele><time>2026-04-25T10:09:20.087Z</time></trkpt><trkpt lat="45.5248003" lon="13.8709898"><ele>222.0</ele><time>2026-04-25T10:09:21.075Z</time></trkpt><trkpt lat="45.5248417" lon="13.8708065"><ele>222.0</ele><time>2026-04-25T10:09:22.076Z</time></trkpt><trkpt lat="45.5248571" lon="13.8706268"><ele>222.0</ele><time>2026-04-25T10:09:23.075Z</time></trkpt><trkpt lat="45.5248387" lon="13.8704521"><ele>219.5</ele><time>2026-04-25T10:09:24.077Z</time></trkpt><trkpt lat="45.524786" lon="13.8702928"><ele>217.0</ele><time>2026-04-25T10:09:25.074Z</time></trkpt><trkpt lat="45.5247065" lon="13.8701696"><ele>214.5</ele><time>2026-04-25T10:09:26.075Z</time></trkpt><trkpt lat="45.5246137" lon="13.8700876"><ele>212.0</ele><time>2026-04-25T10:09:27.071Z</time></trkpt><trkpt lat="45.5245176" lon="13.8700409"><ele>211.5</ele><time>2026-04-25T10:09:28.074Z</time></trkpt><trkpt lat="45.5244116" lon="13.8699979"><ele>211.0</ele><time>2026-04-25T10:09:29.078Z</time></trkpt><trkpt lat="45.5242898" lon="13.8700195"><ele>210.5</ele><time>2026-04-25T10:09:30.081Z</time></trkpt><trkpt lat="45.5241683" lon="13.8700932"><ele>210.0</ele><time>2026-04-25T10:09:31.076Z</time></trkpt><trkpt lat="45.5240508" lon="13.8702226"><ele>209.33333333333331</ele><time>2026-04-25T10:09:32.084Z</time></trkpt><trkpt lat="45.5239302" lon="13.8703814"><ele>208.66666666666666</ele><time>2026-04-25T10:09:33.076Z</time></trkpt><trkpt lat="45.5237998" lon="13.8705357"><ele>208.0</ele><time>2026-04-25T10:09:34.088Z</time></trkpt><trkpt lat="45.5236498" lon="13.8706864"><ele>208.0</ele><time>2026-04-25T10:09:35.086Z</time></trkpt><trkpt lat="45.5234822" lon="13.8708137"><ele>208.0</ele><time>2026-04-25T10:09:36.102Z</time></trkpt><trkpt lat="45.5233007" lon="13.8709441"><ele>208.0</ele><time>2026-04-25T10:09:37.086Z</time></trkpt><trkpt lat="45.5231182" lon="13.8710835"><ele>210.33333333333331</ele><time>2026-04-25T10:09:38.086Z</time></trkpt><trkpt lat="45.5229431" lon="13.8712413"><ele>212.66666666666669</ele><time>2026-04-25T10:09:39.089Z</time></trkpt><trkpt lat="45.5227613" lon="13.8714209"><ele>215.0</ele><time>2026-04-25T10:09:40.078Z</time></trkpt><trkpt lat="45.5225842" lon="13.8716129"><ele>207.0</ele><time>2026-04-25T10:09:41.086Z</time></trkpt><trkpt lat="45.5224098" lon="13.8718018"><ele>199.0</ele><time>2026-04-25T10:09:42.081Z</time></trkpt><trkpt lat="45.5222475" lon="13.8719727"><ele>191.0</ele><time>2026-04-25T10:09:43.076Z</time></trkpt><trkpt lat="45.5221053" lon="13.8721445"><ele>193.66666666666666</ele><time>2026-04-25T10:09:44.083Z</time></trkpt><trkpt lat="45.5219774" lon="13.872316"><ele>196.33333333333331</ele><time>2026-04-25T10:09:45.077Z</time></trkpt><trkpt lat="45.521865" lon="13.8724797"><ele>199.0</ele><time>2026-04-25T10:09:46.085Z</time></trkpt><trkpt lat="45.5217476" lon="13.8726344"><ele>199.0</ele><time>2026-04-25T10:09:47.08Z</time></trkpt><trkpt lat="45.5216117" lon="13.8727782"><ele>199.0</ele><time>2026-04-25T10:09:48.081Z</time></trkpt><trkpt lat="45.5214602" lon="13.8729024"><ele>199.0</ele><time>2026-04-25T10:09:49.077Z</time></trkpt><trkpt lat="45.5212981" lon="13.8730011"><ele>205.66666666666666</ele><time>2026-04-25T10:09:50.084Z</time></trkpt><trkpt lat="45.5211281" lon="13.8730783"><ele>212.33333333333331</ele><time>2026-04-25T10:09:51.085Z</time></trkpt><trkpt lat="45.5209671" lon="13.8731479"><ele>219.0</ele><time>2026-04-25T10:09:52.09Z</time></trkpt><trkpt lat="45.520824" lon="13.8732281"><ele>219.0</ele><time>2026-04-25T10:09:53.086Z</time></trkpt><trkpt lat="45.5207" lon="13.8733122"><ele>219.0</ele><time>2026-04-25T10:09:54.077Z</time></trkpt><trkpt lat="45.5205903" lon="13.8733954"><ele>219.0</ele><time>2026-04-25T10:09:55.085Z</time></trkpt><trkpt lat="45.5204844" lon="13.8734489"><ele>219.0</ele><time>2026-04-25T10:09:56.089Z</time></trkpt><trkpt lat="45.5203706" lon="13.873457"><ele>219.39999999999998</ele><time>2026-04-25T10:09:57.089Z</time></trkpt><trkpt lat="45.5202561" lon="13.8734341"><ele>219.79999999999998</ele><time>2026-04-25T10:09:58.09Z</time></trkpt><trkpt lat="45.52016" lon="13.873361"><ele>220.20000000000002</ele><time>2026-04-25T10:09:59.08Z</time></trkpt><trkpt lat="45.5200912" lon="13.8732419"><ele>220.60000000000002</ele><time>2026-04-25T10:10:00.078Z</time></trkpt><trkpt lat="45.5200504" lon="13.8730933"><ele>221.0</ele><time>2026-04-25T10:10:01.088Z</time></trkpt><trkpt lat="45.5200396" lon="13.8729045"><ele>221.0</ele><time>2026-04-25T10:10:02.087Z</time></trkpt><trkpt lat="45.5200497" lon="13.8727176"><ele>221.0</ele><time>2026-04-25T10:10:03.085Z</time></trkpt><trkpt lat="45.5200812" lon="13.8725093"><ele>221.0</ele><time>2026-04-25T10:10:04.077Z</time></trkpt><trkpt lat="45.5201237" lon="13.8722907"><ele>221.0</ele><time>2026-04-25T10:10:05.077Z</time></trkpt><trkpt lat="45.5201665" lon="13.8720762"><ele>225.5</ele><time>2026-04-25T10:10:06.081Z</time></trkpt><trkpt lat="45.5201868" lon="13.8718659"><ele>230.0</ele><time>2026-04-25T10:10:07.078Z</time></trkpt><trkpt lat="45.5201929" lon="13.8716768"><ele>234.5</ele><time>2026-04-25T10:10:08.076Z</time></trkpt><trkpt lat="45.5201737" lon="13.8714883"><ele>239.0</ele><time>2026-04-25T10:10:09.076Z</time></trkpt><trkpt lat="45.5201514" lon="13.8713076"><ele>239.5</ele><time>2026-04-25T10:10:10.075Z</time></trkpt><trkpt lat="45.5201299" lon="13.8711366"><ele>240.0</ele><time>2026-04-25T10:10:11.077Z</time></trkpt><trkpt lat="45.5201289" lon="13.8709504"><ele>240.5</ele><time>2026-04-25T10:10:12.088Z</time></trkpt><trkpt lat="45.5201355" lon="13.8707482"><ele>241.0</ele><time>2026-04-25T10:10:13.08Z</time></trkpt><trkpt lat="45.5201436" lon="13.8705373"><ele>240.0</ele><time>2026-04-25T10:10:14.085Z</time></trkpt><trkpt lat="45.5201262" lon="13.8703569"><ele>239.0</ele><time>2026-04-25T10:10:15.078Z</time></trkpt><trkpt lat="45.5200869" lon="13.8701898"><ele>238.0</ele><time>2026-04-25T10:10:16.086Z</time></trkpt><trkpt lat="45.5200276" lon="13.8700362"><ele>237.0</ele><time>2026-04-25T10:10:17.079Z</time></trkpt><trkpt lat="45.5199518" lon="13.8699226"><ele>236.25</ele><time>2026-04-25T10:10:18.11Z</time></trkpt><trkpt lat="45.5198603" lon="13.8698492"><ele>235.5</ele><time>2026-04-25T10:10:19.075Z</time></trkpt><trkpt lat="45.5197431" lon="13.869799"><ele>234.75</ele><time>2026-04-25T10:10:20.083Z</time></trkpt><trkpt lat="45.519615" lon="13.8697943"><ele>234.0</ele><time>2026-04-25T10:10:21.083Z</time></trkpt><trkpt lat="45.5194662" lon="13.8698219"><ele>234.0</ele><time>2026-04-25T10:10:22.078Z</time></trkpt><trkpt lat="45.5193076" lon="13.8698673"><ele>234.0</ele><time>2026-04-25T10:10:23.08Z</time></trkpt><trkpt lat="45.5191329" lon="13.8699254"><ele>234.0</ele><time>2026-04-25T10:10:24.087Z</time></trkpt><trkpt lat="45.5189481" lon="13.869973"><ele>234.0</ele><time>2026-04-25T10:10:25.088Z</time></trkpt><trkpt lat="45.5187468" lon="13.8699978"><ele>234.0</ele><time>2026-04-25T10:10:26.083Z</time></trkpt><trkpt lat="45.5185394" lon="13.8700064"><ele>234.0</ele><time>2026-04-25T10:10:27.082Z</time></trkpt><trkpt lat="45.518328" lon="13.8700143"><ele>234.33333333333331</ele><time>2026-04-25T10:10:28.082Z</time></trkpt><trkpt lat="45.5181086" lon="13.8700219"><ele>234.66666666666666</ele><time>2026-04-25T10:10:29.081Z</time></trkpt><trkpt lat="45.5178918" lon="13.8700268"><ele>235.0</ele><time>2026-04-25T10:10:30.094Z</time></trkpt><trkpt lat="45.5176901" lon="13.8700342"><ele>235.33333333333331</ele><time>2026-04-25T10:10:31.089Z</time></trkpt><trkpt lat="45.5174952" lon="13.870047"><ele>235.66666666666669</ele><time>2026-04-25T10:10:32.079Z</time></trkpt><trkpt lat="45.5173034" lon="13.8700537"><ele>236.0</ele><time>2026-04-25T10:10:33.083Z</time></trkpt><trkpt lat="45.5171078" lon="13.8700627"><ele>238.0</ele><time>2026-04-25T10:10:34.085Z</time></trkpt><trkpt lat="45.5169117" lon="13.870066"><ele>240.0</ele><time>2026-04-25T10:10:35.086Z</time></trkpt><trkpt lat="45.5167146" lon="13.8700728"><ele>242.0</ele><time>2026-04-25T10:10:36.082Z</time></trkpt><trkpt lat="45.5165264" lon="13.8700823"><ele>242.0</ele><time>2026-04-25T10:10:37.085Z</time></trkpt><trkpt lat="45.516352" lon="13.870099"><ele>242.0</ele><time>2026-04-25T10:10:38.084Z</time></trkpt><trkpt lat="45.5161754" lon="13.870124"><ele>242.0</ele><time>2026-04-25T10:10:39.079Z</time></trkpt><trkpt lat="45.5159954" lon="13.8701683"><ele>243.33333333333334</ele><time>2026-04-25T10:10:40.084Z</time></trkpt><trkpt lat="45.5158149" lon="13.8702454"><ele>244.66666666666669</ele><time>2026-04-25T10:10:41.083Z</time></trkpt><trkpt lat="45.5156365" lon="13.8703274"><ele>246.0</ele><time>2026-04-25T10:10:42.09Z</time></trkpt><trkpt lat="45.5154554" lon="13.8704101"><ele>245.33333333333331</ele><time>2026-04-25T10:10:43.079Z</time></trkpt><trkpt lat="45.5152862" lon="13.8705016"><ele>244.66666666666666</ele><time>2026-04-25T10:10:44.09Z</time></trkpt><trkpt lat="45.5151352" lon="13.8706222"><ele>244.0</ele><time>2026-04-25T10:10:45.082Z</time></trkpt><trkpt lat="45.5149822" lon="13.8707734"><ele>245.0</ele><time>2026-04-25T10:10:46.092Z</time></trkpt><trkpt lat="45.5148423" lon="13.8709628"><ele>246.0</ele><time>2026-04-25T10:10:47.092Z</time></trkpt><trkpt lat="45.5147047" lon="13.8711623"><ele>247.0</ele><time>2026-04-25T10:10:48.086Z</time></trkpt><trkpt lat="45.5145631" lon="13.871373"><ele>247.0</ele><time>2026-04-25T10:10:49.084Z</time></trkpt><trkpt lat="45.5144154" lon="13.8715808"><ele>247.0</ele><time>2026-04-25T10:10:50.078Z</time></trkpt><trkpt lat="45.5142642" lon="13.871797"><ele>247.0</ele><time>2026-04-25T10:10:51.082Z</time></trkpt><trkpt lat="45.5141094" lon="13.8720181"><ele>250.33333333333331</ele><time>2026-04-25T10:10:52.091Z</time></trkpt><trkpt lat="45.513954" lon="13.8722318"><ele>253.66666666666669</ele><time>2026-04-25T10:10:53.081Z</time></trkpt><trkpt lat="45.5138006" lon="13.8724493"><ele>257.0</ele><time>2026-04-25T10:10:54.082Z</time></trkpt><trkpt lat="45.5136415" lon="13.8726738"><ele>257.6666666666667</ele><time>2026-04-25T10:10:55.086Z</time></trkpt><trkpt lat="45.5134839" lon="13.8728916"><ele>258.3333333333333</ele><time>2026-04-25T10:10:56.08Z</time></trkpt><trkpt lat="45.5133449" lon="13.8730903"><ele>259.0</ele><time>2026-04-25T10:10:57.084Z</time></trkpt><trkpt lat="45.5132071" lon="13.8732842"><ele>259.0</ele><time>2026-04-25T10:10:58.086Z</time></trkpt><trkpt lat="45.5130668" lon="13.8734791"><ele>259.0</ele><time>2026-04-25T10:10:59.097Z</time></trkpt><trkpt lat="45.5129299" lon="13.8736708"><ele>259.0</ele><time>2026-04-25T10:11:00.081Z</time></trkpt><trkpt lat="45.5127926" lon="13.8738703"><ele>259.0</ele><time>2026-04-25T10:11:01.075Z</time></trkpt><trkpt lat="45.5126506" lon="13.8740555"><ele>259.0</ele><time>2026-04-25T10:11:02.086Z</time></trkpt><trkpt lat="45.5124973" lon="13.874233"><ele>259.0</ele><time>2026-04-25T10:11:03.076Z</time></trkpt><trkpt lat="45.5123364" lon="13.8744065"><ele>260.0</ele><time>2026-04-25T10:11:04.085Z</time></trkpt><trkpt lat="45.5121696" lon="13.8745685"><ele>261.0</ele><time>2026-04-25T10:11:05.08Z</time></trkpt><trkpt lat="45.511996" lon="13.8747307"><ele>262.0</ele><time>2026-04-25T10:11:06.077Z</time></trkpt><trkpt lat="45.5118201" lon="13.874883"><ele>262.0</ele><time>2026-04-25T10:11:07.075Z</time></trkpt><trkpt lat="45.5116384" lon="13.875035"><ele>262.0</ele><time>2026-04-25T10:11:08.08Z</time></trkpt><trkpt lat="45.5114496" lon="13.8751704"><ele>262.0</ele><time>2026-04-25T10:11:09.075Z</time></trkpt><trkpt lat="45.5112606" lon="13.8753014"><ele>264.0</ele><time>2026-04-25T10:11:10.077Z</time></trkpt><trkpt lat="45.511078" lon="13.8754152"><ele>266.0</ele><time>2026-04-25T10:11:11.086Z</time></trkpt><trkpt lat="45.5109043" lon="13.8755242"><ele>268.0</ele><time>2026-04-25T10:11:12.077Z</time></trkpt><trkpt lat="45.5107327" lon="13.8756213"><ele>268.0</ele><time>2026-04-25T10:11:13.098Z</time></trkpt><trkpt lat="45.5105511" lon="13.8757067"><ele>268.0</ele><time>2026-04-25T10:11:14.077Z</time></trkpt><trkpt lat="45.510368" lon="13.8757694"><ele>268.0</ele><time>2026-04-25T10:11:15.079Z</time></trkpt><trkpt lat="45.5101913" lon="13.8758035"><ele>268.66666666666663</ele><time>2026-04-25T10:11:16.076Z</time></trkpt><trkpt lat="45.5100357" lon="13.8758117"><ele>269.3333333333333</ele><time>2026-04-25T10:11:17.077Z</time></trkpt><trkpt lat="45.5098759" lon="13.8758007"><ele>270.0</ele><time>2026-04-25T10:11:18.086Z</time></trkpt><trkpt lat="45.5097164" lon="13.875765"><ele>271.3333333333333</ele><time>2026-04-25T10:11:19.079Z</time></trkpt><trkpt lat="45.5095559" lon="13.8757121"><ele>272.66666666666663</ele><time>2026-04-25T10:11:20.068Z</time></trkpt><trkpt lat="45.5093882" lon="13.8756463"><ele>274.0</ele><time>2026-04-25T10:11:21.081Z</time></trkpt><trkpt lat="45.5092192" lon="13.8755482"><ele>274.0</ele><time>2026-04-25T10:11:22.072Z</time></trkpt><trkpt lat="45.5090615" lon="13.875416"><ele>274.0</ele><time>2026-04-25T10:11:23.085Z</time></trkpt><trkpt lat="45.5089278" lon="13.8752416"><ele>274.0</ele><time>2026-04-25T10:11:24.077Z</time></trkpt><trkpt lat="45.5088133" lon="13.8750284"><ele>277.66666666666663</ele><time>2026-04-25T10:11:25.079Z</time></trkpt><trkpt lat="45.5087198" lon="13.8748021"><ele>281.3333333333333</ele><time>2026-04-25T10:11:26.076Z</time></trkpt><trkpt lat="45.5086437" lon="13.8745743"><ele>285.0</ele><time>2026-04-25T10:11:27.09Z</time></trkpt><trkpt lat="45.5085752" lon="13.8743402"><ele>284.0</ele><time>2026-04-25T10:11:28.07Z</time></trkpt><trkpt lat="45.5084974" lon="13.8741114"><ele>283.0</ele><time>2026-04-25T10:11:29.077Z</time></trkpt><trkpt lat="45.5083964" lon="13.8738991"><ele>282.0</ele><time>2026-04-25T10:11:30.073Z</time></trkpt><trkpt lat="45.5082841" lon="13.8737058"><ele>282.0</ele><time>2026-04-25T10:11:31.078Z</time></trkpt><trkpt lat="45.5081439" lon="13.8735444"><ele>282.0</ele><time>2026-04-25T10:11:32.079Z</time></trkpt><trkpt lat="45.5079927" lon="13.8734066"><ele>282.0</ele><time>2026-04-25T10:11:33.072Z</time></trkpt><trkpt lat="45.5078293" lon="13.8732965"><ele>282.6666666666667</ele><time>2026-04-25T10:11:34.075Z</time></trkpt><trkpt lat="45.5076549" lon="13.8732169"><ele>283.33333333333337</ele><time>2026-04-25T10:11:35.078Z</time></trkpt><trkpt lat="45.5074705" lon="13.8731731"><ele>284.0</ele><time>2026-04-25T10:11:36.072Z</time></trkpt><trkpt lat="45.5072747" lon="13.8731269"><ele>284.0</ele><time>2026-04-25T10:11:37.077Z</time></trkpt><trkpt lat="45.5070802" lon="13.8730911"><ele>284.0</ele><time>2026-04-25T10:11:38.072Z</time></trkpt><trkpt lat="45.5068959" lon="13.8730654"><ele>284.0</ele><time>2026-04-25T10:11:39.073Z</time></trkpt><trkpt lat="45.5067213" lon="13.8730588"><ele>284.33333333333337</ele><time>2026-04-25T10:11:40.075Z</time></trkpt><trkpt lat="45.5065605" lon="13.8730624"><ele>284.6666666666667</ele><time>2026-04-25T10:11:41.084Z</time></trkpt><trkpt lat="45.5064003" lon="13.8730834"><ele>285.0</ele><time>2026-04-25T10:11:42.077Z</time></trkpt><trkpt lat="45.5062373" lon="13.8731372"><ele>285.0</ele><time>2026-04-25T10:11:43.08Z</time></trkpt><trkpt lat="45.5060644" lon="13.873218"><ele>285.0</ele><time>2026-04-25T10:11:44.089Z</time></trkpt><trkpt lat="45.5058875" lon="13.8733189"><ele>285.0</ele><time>2026-04-25T10:11:45.085Z</time></trkpt><trkpt lat="45.5057104" lon="13.8734271"><ele>287.3333333333333</ele><time>2026-04-25T10:11:46.078Z</time></trkpt><trkpt lat="45.5055262" lon="13.8735401"><ele>289.66666666666663</ele><time>2026-04-25T10:11:47.08Z</time></trkpt><trkpt lat="45.5053426" lon="13.8736531"><ele>292.0</ele><time>2026-04-25T10:11:48.072Z</time></trkpt><trkpt lat="45.5051649" lon="13.873753"><ele>292.0</ele><time>2026-04-25T10:11:49.09Z</time></trkpt><trkpt lat="45.5049992" lon="13.8738478"><ele>292.0</ele><time>2026-04-25T10:11:50.076Z</time></trkpt><trkpt lat="45.504839" lon="13.8739363"><ele>292.0</ele><time>2026-04-25T10:11:51.078Z</time></trkpt><trkpt lat="45.5046923" lon="13.874025"><ele>290.66666666666663</ele><time>2026-04-25T10:11:52.076Z</time></trkpt><trkpt lat="45.5045578" lon="13.8741378"><ele>289.3333333333333</ele><time>2026-04-25T10:11:53.073Z</time></trkpt><trkpt lat="45.5044258" lon="13.8742614"><ele>288.0</ele><time>2026-04-25T10:11:54.077Z</time></trkpt><trkpt lat="45.5043009" lon="13.8743778"><ele>291.25</ele><time>2026-04-25T10:11:55.088Z</time></trkpt><trkpt lat="45.5041788" lon="13.8744912"><ele>294.5</ele><time>2026-04-25T10:11:56.079Z</time></trkpt><trkpt lat="45.5040472" lon="13.874589"><ele>297.75</ele><time>2026-04-25T10:11:57.086Z</time></trkpt><trkpt lat="45.5039127" lon="13.8746386"><ele>301.0</ele><time>2026-04-25T10:11:58.09Z</time></trkpt><trkpt lat="45.5037795" lon="13.8746445"><ele>300.25</ele><time>2026-04-25T10:11:59.08Z</time></trkpt><trkpt lat="45.5036516" lon="13.8746309"><ele>299.5</ele><time>2026-04-25T10:12:00.081Z</time></trkpt><trkpt lat="45.5035194" lon="13.8745936"><ele>298.75</ele><time>2026-04-25T10:12:01.081Z</time></trkpt><trkpt lat="45.5033801" lon="13.8745135"><ele>298.0</ele><time>2026-04-25T10:12:02.082Z</time></trkpt><trkpt lat="45.503242" lon="13.8744282"><ele>298.0</ele><time>2026-04-25T10:12:03.082Z</time></trkpt><trkpt lat="45.5031077" lon="13.8743464"><ele>298.0</ele><time>2026-04-25T10:12:04.078Z</time></trkpt><trkpt lat="45.5029851" lon="13.8742574"><ele>298.0</ele><time>2026-04-25T10:12:05.092Z</time></trkpt><trkpt lat="45.5028668" lon="13.8741741"><ele>298.0</ele><time>2026-04-25T10:12:06.076Z</time></trkpt><trkpt lat="45.5027556" lon="13.8740976"><ele>297.6</ele><time>2026-04-25T10:12:07.083Z</time></trkpt><trkpt lat="45.5026553" lon="13.8740281"><ele>297.20000000000005</ele><time>2026-04-25T10:12:08.083Z</time></trkpt><trkpt lat="45.5025621" lon="13.8739682"><ele>296.8</ele><time>2026-04-25T10:12:09.087Z</time></trkpt><trkpt lat="45.5024715" lon="13.8739129"><ele>296.40000000000003</ele><time>2026-04-25T10:12:10.082Z</time></trkpt><trkpt lat="45.5023769" lon="13.8738575"><ele>296.0</ele><time>2026-04-25T10:12:11.081Z</time></trkpt><trkpt lat="45.5022759" lon="13.8737995"><ele>296.0</ele><time>2026-04-25T10:12:12.081Z</time></trkpt><trkpt lat="45.5021641" lon="13.8737451"><ele>296.0</ele><time>2026-04-25T10:12:13.088Z</time></trkpt><trkpt lat="45.5020402" lon="13.8736993"><ele>296.0</ele><time>2026-04-25T10:12:14.093Z</time></trkpt><trkpt lat="45.5019071" lon="13.8736449"><ele>296.0</ele><time>2026-04-25T10:12:15.086Z</time></trkpt><trkpt lat="45.5017743" lon="13.8735899"><ele>296.75</ele><time>2026-04-25T10:12:16.084Z</time></trkpt><trkpt lat="45.5016538" lon="13.8735338"><ele>297.5</ele><time>2026-04-25T10:12:17.087Z</time></trkpt><trkpt lat="45.5015351" lon="13.8734919"><ele>298.25</ele><time>2026-04-25T10:12:18.082Z</time></trkpt><trkpt lat="45.5014159" lon="13.8734578"><ele>299.0</ele><time>2026-04-25T10:12:19.081Z</time></trkpt><trkpt lat="45.5012803" lon="13.8734325"><ele>299.5</ele><time>2026-04-25T10:12:20.086Z</time></trkpt><trkpt lat="45.5011442" lon="13.8734252"><ele>300.0</ele><time>2026-04-25T10:12:21.09Z</time></trkpt><trkpt lat="45.5010054" lon="13.8734258"><ele>300.5</ele><time>2026-04-25T10:12:22.086Z</time></trkpt><trkpt lat="45.5008656" lon="13.8734295"><ele>301.0</ele><time>2026-04-25T10:12:23.097Z</time></trkpt><trkpt lat="45.500728" lon="13.8734328"><ele>298.75</ele><time>2026-04-25T10:12:24.098Z</time></trkpt><trkpt lat="45.5005836" lon="13.8734411"><ele>296.5</ele><time>2026-04-25T10:12:25.09Z</time></trkpt><trkpt lat="45.5004349" lon="13.8734526"><ele>294.25</ele><time>2026-04-25T10:12:26.084Z</time></trkpt><trkpt lat="45.5002896" lon="13.8734639"><ele>292.0</ele><time>2026-04-25T10:12:27.086Z</time></trkpt><trkpt lat="45.5001475" lon="13.8734853"><ele>292.0</ele><time>2026-04-25T10:12:28.085Z</time></trkpt><trkpt lat="45.4999962" lon="13.8735232"><ele>292.0</ele><time>2026-04-25T10:12:29.088Z</time></trkpt><trkpt lat="45.499847" lon="13.8735831"><ele>292.0</ele><time>2026-04-25T10:12:30.084Z</time></trkpt><trkpt lat="45.4996978" lon="13.8736687"><ele>293.3333333333333</ele><time>2026-04-25T10:12:31.077Z</time></trkpt><trkpt lat="45.4995597" lon="13.8737657"><ele>294.6666666666667</ele><time>2026-04-25T10:12:32.085Z</time></trkpt><trkpt lat="45.4994319" lon="13.8738711"><ele>296.0</ele><time>2026-04-25T10:12:33.086Z</time></trkpt><trkpt lat="45.4992949" lon="13.8739771"><ele>296.0</ele><time>2026-04-25T10:12:34.092Z</time></trkpt><trkpt lat="45.4991561" lon="13.8740944"><ele>296.0</ele><time>2026-04-25T10:12:35.086Z</time></trkpt><trkpt lat="45.4990133" lon="13.8742164"><ele>296.0</ele><time>2026-04-25T10:12:36.093Z</time></trkpt><trkpt lat="45.4988513" lon="13.8743492"><ele>295.33333333333337</ele><time>2026-04-25T10:12:37.084Z</time></trkpt><trkpt lat="45.4986813" lon="13.8744859"><ele>294.6666666666667</ele><time>2026-04-25T10:12:38.084Z</time></trkpt><trkpt lat="45.4985039" lon="13.8746214"><ele>294.0</ele><time>2026-04-25T10:12:39.088Z</time></trkpt><trkpt lat="45.4983189" lon="13.8747578"><ele>294.0</ele><time>2026-04-25T10:12:40.084Z</time></trkpt><trkpt lat="45.4981303" lon="13.8748917"><ele>294.0</ele><time>2026-04-25T10:12:41.099Z</time></trkpt><trkpt lat="45.4979528" lon="13.8750134"><ele>294.0</ele><time>2026-04-25T10:12:42.092Z</time></trkpt><trkpt lat="45.4977765" lon="13.8751246"><ele>291.6666666666667</ele><time>2026-04-25T10:12:43.088Z</time></trkpt><trkpt lat="45.4976061" lon="13.8752356"><ele>289.33333333333337</ele><time>2026-04-25T10:12:44.087Z</time></trkpt><trkpt lat="45.4974359" lon="13.8753358"><ele>287.0</ele><time>2026-04-25T10:12:45.085Z</time></trkpt><trkpt lat="45.4972762" lon="13.8754408"><ele>287.0</ele><time>2026-04-25T10:12:46.08Z</time></trkpt><trkpt lat="45.4971224" lon="13.8755625"><ele>287.0</ele><time>2026-04-25T10:12:47.082Z</time></trkpt><trkpt lat="45.4969647" lon="13.8757074"><ele>287.0</ele><time>2026-04-25T10:12:48.087Z</time></trkpt><trkpt lat="45.4968216" lon="13.8758744"><ele>287.6666666666667</ele><time>2026-04-25T10:12:49.083Z</time></trkpt><trkpt lat="45.4966892" lon="13.8760506"><ele>288.3333333333333</ele><time>2026-04-25T10:12:50.077Z</time></trkpt><trkpt lat="45.4965589" lon="13.8762388"><ele>289.0</ele><time>2026-04-25T10:12:51.085Z</time></trkpt><trkpt lat="45.4964302" lon="13.8764516"><ele>289.0</ele><time>2026-04-25T10:12:52.077Z</time></trkpt><trkpt lat="45.4963074" lon="13.8766681"><ele>289.0</ele><time>2026-04-25T10:12:53.081Z</time></trkpt><trkpt lat="45.4961975" lon="13.8769059"><ele>289.0</ele><time>2026-04-25T10:12:54.081Z</time></trkpt><trkpt lat="45.4960935" lon="13.877162"><ele>287.3333333333333</ele><time>2026-04-25T10:12:55.087Z</time></trkpt><trkpt lat="45.4959964" lon="13.8774371"><ele>285.6666666666667</ele><time>2026-04-25T10:12:56.08Z</time></trkpt><trkpt lat="45.4959011" lon="13.8777187"><ele>284.0</ele><time>2026-04-25T10:12:57.084Z</time></trkpt><trkpt lat="45.495806" lon="13.8779932"><ele>282.6666666666667</ele><time>2026-04-25T10:12:58.081Z</time></trkpt><trkpt lat="45.4957101" lon="13.8782668"><ele>281.3333333333333</ele><time>2026-04-25T10:12:59.082Z</time></trkpt><trkpt lat="45.4956164" lon="13.8785262"><ele>280.0</ele><time>2026-04-25T10:13:00.087Z</time></trkpt><trkpt lat="45.4955268" lon="13.8787778"><ele>280.0</ele><time>2026-04-25T10:13:01.085Z</time></trkpt><trkpt lat="45.4954381" lon="13.8790365"><ele>280.0</ele><time>2026-04-25T10:13:02.08Z</time></trkpt><trkpt lat="45.4953497" lon="13.8792952"><ele>280.0</ele><time>2026-04-25T10:13:03.083Z</time></trkpt><trkpt lat="45.4952609" lon="13.8795574"><ele>279.66666666666663</ele><time>2026-04-25T10:13:04.087Z</time></trkpt><trkpt lat="45.4951725" lon="13.8798169"><ele>279.3333333333333</ele><time>2026-04-25T10:13:05.078Z</time></trkpt><trkpt lat="45.4950916" lon="13.8800689"><ele>279.0</ele><time>2026-04-25T10:13:06.087Z</time></trkpt><trkpt lat="45.4950103" lon="13.8803016"><ele>278.3333333333333</ele><time>2026-04-25T10:13:07.091Z</time></trkpt><trkpt lat="45.494921" lon="13.8805267"><ele>277.66666666666663</ele><time>2026-04-25T10:13:08.094Z</time></trkpt><trkpt lat="45.4948242" lon="13.8807487"><ele>277.0</ele><time>2026-04-25T10:13:09.09Z</time></trkpt><trkpt lat="45.4947203" lon="13.8809576"><ele>278.0</ele><time>2026-04-25T10:13:10.089Z</time></trkpt><trkpt lat="45.4945978" lon="13.8811432"><ele>279.0</ele><time>2026-04-25T10:13:11.094Z</time></trkpt><trkpt lat="45.4944628" lon="13.8813123"><ele>280.0</ele><time>2026-04-25T10:13:12.099Z</time></trkpt><trkpt lat="45.4943219" lon="13.881474"><ele>280.0</ele><time>2026-04-25T10:13:13.097Z</time></trkpt><trkpt lat="45.4941704" lon="13.8816143"><ele>280.0</ele><time>2026-04-25T10:13:14.095Z</time></trkpt><trkpt lat="45.4940083" lon="13.8817399"><ele>280.0</ele><time>2026-04-25T10:13:15.092Z</time></trkpt><trkpt lat="45.4938361" lon="13.8818516"><ele>282.3333333333333</ele><time>2026-04-25T10:13:16.087Z</time></trkpt><trkpt lat="45.4936519" lon="13.8819558"><ele>284.6666666666667</ele><time>2026-04-25T10:13:17.088Z</time></trkpt><trkpt lat="45.4934581" lon="13.8820558"><ele>287.0</ele><time>2026-04-25T10:13:18.086Z</time></trkpt><trkpt lat="45.4932628" lon="13.8821576"><ele>287.0</ele><time>2026-04-25T10:13:19.085Z</time></trkpt><trkpt lat="45.4930602" lon="13.8822576"><ele>287.0</ele><time>2026-04-25T10:13:20.108Z</time></trkpt><trkpt lat="45.4928614" lon="13.8823711"><ele>287.0</ele><time>2026-04-25T10:13:21.083Z</time></trkpt><trkpt lat="45.4926714" lon="13.8824866"><ele>287.6666666666667</ele><time>2026-04-25T10:13:22.085Z</time></trkpt><trkpt lat="45.4924947" lon="13.8826109"><ele>288.3333333333333</ele><time>2026-04-25T10:13:23.082Z</time></trkpt><trkpt lat="45.4923217" lon="13.8827416"><ele>289.0</ele><time>2026-04-25T10:13:24.087Z</time></trkpt><trkpt lat="45.492152" lon="13.8828797"><ele>285.66666666666663</ele><time>2026-04-25T10:13:25.087Z</time></trkpt><trkpt lat="45.4919765" lon="13.88303"><ele>282.3333333333333</ele><time>2026-04-25T10:13:26.089Z</time></trkpt><trkpt lat="45.4917988" lon="13.883197"><ele>279.0</ele><time>2026-04-25T10:13:27.104Z</time></trkpt><trkpt lat="45.491622" lon="13.8833734"><ele>279.6666666666667</ele><time>2026-04-25T10:13:28.086Z</time></trkpt><trkpt lat="45.4914393" lon="13.883556"><ele>280.33333333333337</ele><time>2026-04-25T10:13:29.085Z</time></trkpt><trkpt lat="45.4912549" lon="13.883734"><ele>281.0</ele><time>2026-04-25T10:13:30.099Z</time></trkpt><trkpt lat="45.491074" lon="13.8839069"><ele>281.0</ele><time>2026-04-25T10:13:31.093Z</time></trkpt><trkpt lat="45.4909036" lon="13.8840844"><ele>281.0</ele><time>2026-04-25T10:13:32.094Z</time></trkpt><trkpt lat="45.4907325" lon="13.8842602"><ele>281.0</ele><time>2026-04-25T10:13:33.083Z</time></trkpt><trkpt lat="45.4905649" lon="13.8844379"><ele>281.33333333333337</ele><time>2026-04-25T10:13:34.087Z</time></trkpt><trkpt lat="45.4903916" lon="13.8846086"><ele>281.6666666666667</ele><time>2026-04-25T10:13:35.09Z</time></trkpt><trkpt lat="45.4902168" lon="13.8847695"><ele>282.0</ele><time>2026-04-25T10:13:36.092Z</time></trkpt><trkpt lat="45.4900423" lon="13.8849303"><ele>282.0</ele><time>2026-04-25T10:13:37.08Z</time></trkpt><trkpt lat="45.4898739" lon="13.8850777"><ele>282.0</ele><time>2026-04-25T10:13:38.086Z</time></trkpt><trkpt lat="45.4897108" lon="13.8852109"><ele>282.0</ele><time>2026-04-25T10:13:39.089Z</time></trkpt><trkpt lat="45.4895441" lon="13.8853216"><ele>283.0</ele><time>2026-04-25T10:13:40.088Z</time></trkpt><trkpt lat="45.4893699" lon="13.8854329"><ele>284.0</ele><time>2026-04-25T10:13:41.09Z</time></trkpt><trkpt lat="45.4891893" lon="13.8855367"><ele>285.0</ele><time>2026-04-25T10:13:42.095Z</time></trkpt><trkpt lat="45.4889933" lon="13.8856252"><ele>285.0</ele><time>2026-04-25T10:13:43.091Z</time></trkpt><trkpt lat="45.4887945" lon="13.8857019"><ele>285.0</ele><time>2026-04-25T10:13:44.09Z</time></trkpt><trkpt lat="45.4885883" lon="13.8857765"><ele>285.0</ele><time>2026-04-25T10:13:45.09Z</time></trkpt><trkpt lat="45.4883805" lon="13.8858513"><ele>284.6666666666667</ele><time>2026-04-25T10:13:46.097Z</time></trkpt><trkpt lat="45.4881729" lon="13.8859242"><ele>284.33333333333337</ele><time>2026-04-25T10:13:47.088Z</time></trkpt><trkpt lat="45.4879717" lon="13.8859873"><ele>284.0</ele><time>2026-04-25T10:13:48.087Z</time></trkpt><trkpt lat="45.4877715" lon="13.8860539"><ele>284.0</ele><time>2026-04-25T10:13:49.081Z</time></trkpt><trkpt lat="45.4875691" lon="13.8861093"><ele>284.0</ele><time>2026-04-25T10:13:50.081Z</time></trkpt><trkpt lat="45.4873697" lon="13.886154"><ele>284.0</ele><time>2026-04-25T10:13:51.082Z</time></trkpt><trkpt lat="45.4871657" lon="13.8861967"><ele>285.0</ele><time>2026-04-25T10:13:52.077Z</time></trkpt><trkpt lat="45.4869657" lon="13.8862313"><ele>286.0</ele><time>2026-04-25T10:13:53.08Z</time></trkpt><trkpt lat="45.4867611" lon="13.8862661"><ele>287.0</ele><time>2026-04-25T10:13:54.078Z</time></trkpt><trkpt lat="45.4865595" lon="13.8863049"><ele>287.0</ele><time>2026-04-25T10:13:55.089Z</time></trkpt><trkpt lat="45.4863654" lon="13.8863354"><ele>287.0</ele><time>2026-04-25T10:13:56.074Z</time></trkpt><trkpt lat="45.4861697" lon="13.8863637"><ele>287.0</ele><time>2026-04-25T10:13:57.073Z</time></trkpt><trkpt lat="45.4859786" lon="13.8863815"><ele>287.33333333333337</ele><time>2026-04-25T10:13:58.077Z</time></trkpt><trkpt lat="45.4857815" lon="13.8863853"><ele>287.6666666666667</ele><time>2026-04-25T10:13:59.079Z</time></trkpt><trkpt lat="45.4855879" lon="13.8863846"><ele>288.0</ele><time>2026-04-25T10:14:00.065Z</time></trkpt><trkpt lat="45.4853955" lon="13.8863862"><ele>288.3333333333333</ele><time>2026-04-25T10:14:01.083Z</time></trkpt><trkpt lat="45.4851959" lon="13.8863862"><ele>288.66666666666663</ele><time>2026-04-25T10:14:02.068Z</time></trkpt><trkpt lat="45.4849995" lon="13.8863801"><ele>289.0</ele><time>2026-04-25T10:14:03.072Z</time></trkpt><trkpt lat="45.4848033" lon="13.8863762"><ele>289.0</ele><time>2026-04-25T10:14:04.068Z</time></trkpt><trkpt lat="45.4846088" lon="13.8863705"><ele>289.0</ele><time>2026-04-25T10:14:05.075Z</time></trkpt><trkpt lat="45.4844271" lon="13.8863587"><ele>289.0</ele><time>2026-04-25T10:14:06.074Z</time></trkpt><trkpt lat="45.4842433" lon="13.8863472"><ele>290.3333333333333</ele><time>2026-04-25T10:14:07.083Z</time></trkpt><trkpt lat="45.4840652" lon="13.886325"><ele>291.6666666666667</ele><time>2026-04-25T10:14:08.071Z</time></trkpt><trkpt lat="45.4838827" lon="13.8863041"><ele>293.0</ele><time>2026-04-25T10:14:09.081Z</time></trkpt><trkpt lat="45.4837019" lon="13.8862786"><ele>294.33333333333337</ele><time>2026-04-25T10:14:10.079Z</time></trkpt><trkpt lat="45.4835193" lon="13.8862581"><ele>295.6666666666667</ele><time>2026-04-25T10:14:11.077Z</time></trkpt><trkpt lat="45.4833382" lon="13.8862548"><ele>297.0</ele><time>2026-04-25T10:14:12.076Z</time></trkpt><trkpt lat="45.4831587" lon="13.8862615"><ele>297.0</ele><time>2026-04-25T10:14:13.086Z</time></trkpt><trkpt lat="45.4829765" lon="13.8862809"><ele>297.0</ele><time>2026-04-25T10:14:14.072Z</time></trkpt><trkpt lat="45.4827949" lon="13.8863059"><ele>297.0</ele><time>2026-04-25T10:14:15.081Z</time></trkpt><trkpt lat="45.4826255" lon="13.8863484"><ele>296.3333333333333</ele><time>2026-04-25T10:14:16.075Z</time></trkpt><trkpt lat="45.4824528" lon="13.8863981"><ele>295.66666666666663</ele><time>2026-04-25T10:14:17.075Z</time></trkpt><trkpt lat="45.4822858" lon="13.8864753"><ele>295.0</ele><time>2026-04-25T10:14:18.074Z</time></trkpt><trkpt lat="45.4821183" lon="13.8865625"><ele>297.66666666666663</ele><time>2026-04-25T10:14:19.08Z</time></trkpt><trkpt lat="45.4819464" lon="13.8866654"><ele>300.3333333333333</ele><time>2026-04-25T10:14:20.074Z</time></trkpt><trkpt lat="45.481785" lon="13.8867755"><ele>303.0</ele><time>2026-04-25T10:14:21.069Z</time></trkpt><trkpt lat="45.481641" lon="13.8868856"><ele>303.0</ele><time>2026-04-25T10:14:22.074Z</time></trkpt><trkpt lat="45.4815099" lon="13.8869995"><ele>303.0</ele><time>2026-04-25T10:14:23.082Z</time></trkpt><trkpt lat="45.481379" lon="13.8871312"><ele>303.0</ele><time>2026-04-25T10:14:24.071Z</time></trkpt><trkpt lat="45.4812368" lon="13.8872897"><ele>306.0</ele><time>2026-04-25T10:14:25.086Z</time></trkpt><trkpt lat="45.4810843" lon="13.8874542"><ele>309.0</ele><time>2026-04-25T10:14:26.064Z</time></trkpt><trkpt lat="45.4809274" lon="13.8876225"><ele>312.0</ele><time>2026-04-25T10:14:27.076Z</time></trkpt><trkpt lat="45.4807586" lon="13.8877813"><ele>312.0</ele><time>2026-04-25T10:14:28.068Z</time></trkpt><trkpt lat="45.4805769" lon="13.8879451"><ele>312.0</ele><time>2026-04-25T10:14:29.078Z</time></trkpt><trkpt lat="45.4803938" lon="13.8881021"><ele>312.0</ele><time>2026-04-25T10:14:30.077Z</time></trkpt><trkpt lat="45.4802023" lon="13.8882608"><ele>312.6666666666667</ele><time>2026-04-25T10:14:31.072Z</time></trkpt><trkpt lat="45.4800163" lon="13.8884255"><ele>313.33333333333337</ele><time>2026-04-25T10:14:32.067Z</time></trkpt><trkpt lat="45.4798278" lon="13.8885873"><ele>314.0</ele><time>2026-04-25T10:14:33.073Z</time></trkpt><trkpt lat="45.4796313" lon="13.8887414"><ele>308.33333333333337</ele><time>2026-04-25T10:14:34.065Z</time></trkpt><trkpt lat="45.479436" lon="13.8888868"><ele>302.6666666666667</ele><time>2026-04-25T10:14:35.074Z</time></trkpt><trkpt lat="45.4792356" lon="13.8890332"><ele>297.0</ele><time>2026-04-25T10:14:36.077Z</time></trkpt><trkpt lat="45.4790299" lon="13.8891812"><ele>302.0</ele><time>2026-04-25T10:14:37.068Z</time></trkpt><trkpt lat="45.4788238" lon="13.8893275"><ele>307.0</ele><time>2026-04-25T10:14:38.073Z</time></trkpt><trkpt lat="45.4786127" lon="13.8894761"><ele>307.0</ele><time>2026-04-25T10:14:39.065Z</time></trkpt><trkpt lat="45.4784016" lon="13.8896206"><ele>307.0</ele><time>2026-04-25T10:14:40.089Z</time></trkpt><trkpt lat="45.4781918" lon="13.8897655"><ele>307.0</ele><time>2026-04-25T10:14:41.073Z</time></trkpt><trkpt lat="45.4779851" lon="13.8899185"><ele>307.0</ele><time>2026-04-25T10:14:42.074Z</time></trkpt><trkpt lat="45.4777748" lon="13.8900624"><ele>314.0</ele><time>2026-04-25T10:14:43.075Z</time></trkpt><trkpt lat="45.4775688" lon="13.8902103"><ele>321.0</ele><time>2026-04-25T10:14:44.074Z</time></trkpt><trkpt lat="45.4773576" lon="13.8903545"><ele>321.0</ele><time>2026-04-25T10:14:45.073Z</time></trkpt><trkpt lat="45.4771495" lon="13.8904915"><ele>321.0</ele><time>2026-04-25T10:14:46.072Z</time></trkpt><trkpt lat="45.4769443" lon="13.8906313"><ele>315.0</ele><time>2026-04-25T10:14:47.077Z</time></trkpt><trkpt lat="45.4767355" lon="13.8907798"><ele>309.0</ele><time>2026-04-25T10:14:48.072Z</time></trkpt><trkpt lat="45.4765283" lon="13.890922"><ele>315.0</ele><time>2026-04-25T10:14:49.075Z</time></trkpt><trkpt lat="45.4763206" lon="13.8910623"><ele>321.0</ele><time>2026-04-25T10:14:50.073Z</time></trkpt><trkpt lat="45.4761215" lon="13.8912059"><ele>321.0</ele><time>2026-04-25T10:14:51.07Z</time></trkpt><trkpt lat="45.4759329" lon="13.8913463"><ele>321.0</ele><time>2026-04-25T10:14:52.077Z</time></trkpt><trkpt lat="45.4757434" lon="13.8914901"><ele>321.0</ele><time>2026-04-25T10:14:53.076Z</time></trkpt><trkpt lat="45.4755561" lon="13.8916367"><ele>322.6666666666667</ele><time>2026-04-25T10:14:54.069Z</time></trkpt><trkpt lat="45.4753777" lon="13.8917932"><ele>324.33333333333337</ele><time>2026-04-25T10:14:55.065Z</time></trkpt><trkpt lat="45.4752105" lon="13.8919551"><ele>326.0</ele><time>2026-04-25T10:14:56.071Z</time></trkpt><trkpt lat="45.4750545" lon="13.8921122"><ele>326.0</ele><time>2026-04-25T10:14:57.065Z</time></trkpt><trkpt lat="45.4749115" lon="13.8922688"><ele>326.0</ele><time>2026-04-25T10:14:58.072Z</time></trkpt><trkpt lat="45.4747749" lon="13.8924311"><ele>326.0</ele><time>2026-04-25T10:14:59.072Z</time></trkpt><trkpt lat="45.4746508" lon="13.892589"><ele>325.5</ele><time>2026-04-25T10:15:00.076Z</time></trkpt><trkpt lat="45.4745344" lon="13.892738"><ele>325.0</ele><time>2026-04-25T10:15:01.076Z</time></trkpt><trkpt lat="45.4744294" lon="13.8928831"><ele>324.5</ele><time>2026-04-25T10:15:02.074Z</time></trkpt><trkpt lat="45.4743262" lon="13.8930272"><ele>324.0</ele><time>2026-04-25T10:15:03.072Z</time></trkpt><trkpt lat="45.4742174" lon="13.8931644"><ele>324.0</ele><time>2026-04-25T10:15:04.071Z</time></trkpt><trkpt lat="45.4741073" lon="13.8932964"><ele>324.0</ele><time>2026-04-25T10:15:05.076Z</time></trkpt><trkpt lat="45.4739991" lon="13.8934403"><ele>324.0</ele><time>2026-04-25T10:15:06.076Z</time></trkpt><trkpt lat="45.4738867" lon="13.8935958"><ele>324.0</ele><time>2026-04-25T10:15:07.085Z</time></trkpt><trkpt lat="45.4737649" lon="13.8937537"><ele>323.6666666666667</ele><time>2026-04-25T10:15:08.086Z</time></trkpt><trkpt lat="45.4736338" lon="13.8939166"><ele>323.33333333333337</ele><time>2026-04-25T10:15:09.083Z</time></trkpt><trkpt lat="45.4734955" lon="13.894082"><ele>323.0</ele><time>2026-04-25T10:15:10.073Z</time></trkpt><trkpt lat="45.4733549" lon="13.8942553"><ele>321.6666666666667</ele><time>2026-04-25T10:15:11.081Z</time></trkpt><trkpt lat="45.4732133" lon="13.8944267"><ele>320.3333333333333</ele><time>2026-04-25T10:15:12.073Z</time></trkpt><trkpt lat="45.4730619" lon="13.8945934"><ele>319.0</ele><time>2026-04-25T10:15:13.079Z</time></trkpt><trkpt lat="45.4729065" lon="13.8947448"><ele>319.0</ele><time>2026-04-25T10:15:14.079Z</time></trkpt><trkpt lat="45.4727525" lon="13.8948793"><ele>319.0</ele><time>2026-04-25T10:15:15.074Z</time></trkpt><trkpt lat="45.4726074" lon="13.8950166"><ele>319.0</ele><time>2026-04-25T10:15:16.078Z</time></trkpt><trkpt lat="45.4724613" lon="13.8951527"><ele>319.0</ele><time>2026-04-25T10:15:17.085Z</time></trkpt><trkpt lat="45.472315" lon="13.8952987"><ele>319.0</ele><time>2026-04-25T10:15:18.077Z</time></trkpt><trkpt lat="45.47217" lon="13.8954401"><ele>319.0</ele><time>2026-04-25T10:15:19.086Z</time></trkpt><trkpt lat="45.4720181" lon="13.8955853"><ele>319.0</ele><time>2026-04-25T10:15:20.08Z</time></trkpt><trkpt lat="45.4718735" lon="13.8957387"><ele>319.0</ele><time>2026-04-25T10:15:21.079Z</time></trkpt><trkpt lat="45.471743" lon="13.8958982"><ele>319.0</ele><time>2026-04-25T10:15:22.092Z</time></trkpt><trkpt lat="45.4716222" lon="13.8960702"><ele>319.0</ele><time>2026-04-25T10:15:23.084Z</time></trkpt><trkpt lat="45.4714954" lon="13.8962315"><ele>319.0</ele><time>2026-04-25T10:15:24.091Z</time></trkpt><trkpt lat="45.471373" lon="13.8963838"><ele>319.0</ele><time>2026-04-25T10:15:25.083Z</time></trkpt><trkpt lat="45.4712525" lon="13.8965205"><ele>319.0</ele><time>2026-04-25T10:15:26.082Z</time></trkpt><trkpt lat="45.4711257" lon="13.8966521"><ele>319.0</ele><time>2026-04-25T10:15:27.086Z</time></trkpt><trkpt lat="45.4709844" lon="13.8967644"><ele>319.0</ele><time>2026-04-25T10:15:28.079Z</time></trkpt><trkpt lat="45.4708361" lon="13.8968554"><ele>320.66666666666663</ele><time>2026-04-25T10:15:29.088Z</time></trkpt><trkpt lat="45.4706756" lon="13.8969306"><ele>322.3333333333333</ele><time>2026-04-25T10:15:30.077Z</time></trkpt><trkpt lat="45.4705119" lon="13.8969863"><ele>324.0</ele><time>2026-04-25T10:15:31.079Z</time></trkpt><trkpt lat="45.4703378" lon="13.897026"><ele>324.0</ele><time>2026-04-25T10:15:32.081Z</time></trkpt><trkpt lat="45.4701595" lon="13.8970664"><ele>324.0</ele><time>2026-04-25T10:15:33.076Z</time></trkpt><trkpt lat="45.4699763" lon="13.8971052"><ele>324.0</ele><time>2026-04-25T10:15:34.083Z</time></trkpt><trkpt lat="45.4697912" lon="13.8971524"><ele>322.6666666666667</ele><time>2026-04-25T10:15:35.087Z</time></trkpt><trkpt lat="45.469606" lon="13.8972007"><ele>321.33333333333337</ele><time>2026-04-25T10:15:36.089Z</time></trkpt><trkpt lat="45.469431" lon="13.8972473"><ele>320.0</ele><time>2026-04-25T10:15:37.105Z</time></trkpt><trkpt lat="45.4692576" lon="13.8973037"><ele>320.0</ele><time>2026-04-25T10:15:38.086Z</time></trkpt><trkpt lat="45.4690833" lon="13.8973814"><ele>320.0</ele><time>2026-04-25T10:15:39.089Z</time></trkpt><trkpt lat="45.4689161" lon="13.8974688"><ele>320.0</ele><time>2026-04-25T10:15:40.083Z</time></trkpt><trkpt lat="45.4687475" lon="13.8975638"><ele>321.6666666666667</ele><time>2026-04-25T10:15:41.085Z</time></trkpt><trkpt lat="45.4685778" lon="13.8976586"><ele>323.3333333333333</ele><time>2026-04-25T10:15:42.081Z</time></trkpt><trkpt lat="45.4684162" lon="13.8977819"><ele>325.0</ele><time>2026-04-25T10:15:43.082Z</time></trkpt><trkpt lat="45.4682678" lon="13.8979093"><ele>325.0</ele><time>2026-04-25T10:15:44.082Z</time></trkpt><trkpt lat="45.4681104" lon="13.8980434"><ele>325.0</ele><time>2026-04-25T10:15:45.086Z</time></trkpt><trkpt lat="45.4679592" lon="13.8981776"><ele>325.0</ele><time>2026-04-25T10:15:46.082Z</time></trkpt><trkpt lat="45.4678099" lon="13.8983127"><ele>326.0</ele><time>2026-04-25T10:15:47.082Z</time></trkpt><trkpt lat="45.4676647" lon="13.8984535"><ele>327.0</ele><time>2026-04-25T10:15:48.088Z</time></trkpt><trkpt lat="45.4675224" lon="13.898585"><ele>328.0</ele><time>2026-04-25T10:15:49.087Z</time></trkpt><trkpt lat="45.467376" lon="13.8987045"><ele>328.0</ele><time>2026-04-25T10:15:50.086Z</time></trkpt><trkpt lat="45.4672163" lon="13.8988062"><ele>328.0</ele><time>2026-04-25T10:15:51.08Z</time></trkpt><trkpt lat="45.4670502" lon="13.898882"><ele>328.0</ele><time>2026-04-25T10:15:52.09Z</time></trkpt><trkpt lat="45.4668797" lon="13.8989288"><ele>325.66666666666663</ele><time>2026-04-25T10:15:53.082Z</time></trkpt><trkpt lat="45.4666956" lon="13.8989444"><ele>323.3333333333333</ele><time>2026-04-25T10:15:54.084Z</time></trkpt><trkpt lat="45.4665123" lon="13.8989361"><ele>321.0</ele><time>2026-04-25T10:15:55.09Z</time></trkpt><trkpt lat="45.4663251" lon="13.8988993"><ele>321.0</ele><time>2026-04-25T10:15:56.087Z</time></trkpt><trkpt lat="45.4661344" lon="13.898844"><ele>321.0</ele><time>2026-04-25T10:15:57.082Z</time></trkpt><trkpt lat="45.4659513" lon="13.8987911"><ele>321.0</ele><time>2026-04-25T10:15:58.092Z</time></trkpt><trkpt lat="45.4657645" lon="13.8987272"><ele>321.0</ele><time>2026-04-25T10:15:59.082Z</time></trkpt><trkpt lat="45.4655736" lon="13.8986731"><ele>321.0</ele><time>2026-04-25T10:16:00.087Z</time></trkpt><trkpt lat="45.4653863" lon="13.8986294"><ele>321.0</ele><time>2026-04-25T10:16:01.089Z</time></trkpt><trkpt lat="45.4651953" lon="13.8986106"><ele>322.0</ele><time>2026-04-25T10:16:02.076Z</time></trkpt><trkpt lat="45.4650062" lon="13.8986063"><ele>323.0</ele><time>2026-04-25T10:16:03.082Z</time></trkpt><trkpt lat="45.4648262" lon="13.8986118"><ele>324.0</ele><time>2026-04-25T10:16:04.079Z</time></trkpt><trkpt lat="45.464662" lon="13.8986231"><ele>324.6666666666667</ele><time>2026-04-25T10:16:05.086Z</time></trkpt><trkpt lat="45.464497" lon="13.8986009"><ele>325.33333333333337</ele><time>2026-04-25T10:16:06.081Z</time></trkpt><trkpt lat="45.4643279" lon="13.8985748"><ele>326.0</ele><time>2026-04-25T10:16:07.075Z</time></trkpt><trkpt lat="45.4641717" lon="13.8985314"><ele>326.0</ele><time>2026-04-25T10:16:08.083Z</time></trkpt><trkpt lat="45.464032" lon="13.8984613"><ele>326.0</ele><time>2026-04-25T10:16:09.076Z</time></trkpt><trkpt lat="45.4639181" lon="13.8983608"><ele>326.0</ele><time>2026-04-25T10:16:10.073Z</time></trkpt><trkpt lat="45.4638105" lon="13.8982285"><ele>326.0</ele><time>2026-04-25T10:16:11.094Z</time></trkpt><trkpt lat="45.463716" lon="13.8980551"><ele>327.0</ele><time>2026-04-25T10:16:12.076Z</time></trkpt><trkpt lat="45.4636361" lon="13.8978644"><ele>328.0</ele><time>2026-04-25T10:16:13.085Z</time></trkpt><trkpt lat="45.463584" lon="13.8976627"><ele>329.0</ele><time>2026-04-25T10:16:14.081Z</time></trkpt><trkpt lat="45.4635605" lon="13.8974654"><ele>330.0</ele><time>2026-04-25T10:16:15.085Z</time></trkpt><trkpt lat="45.4635646" lon="13.8972717"><ele>327.5</ele><time>2026-04-25T10:16:16.087Z</time></trkpt><trkpt lat="45.4635809" lon="13.8970795"><ele>325.0</ele><time>2026-04-25T10:16:17.083Z</time></trkpt><trkpt lat="45.463619" lon="13.8968822"><ele>322.5</ele><time>2026-04-25T10:16:18.088Z</time></trkpt><trkpt lat="45.4636858" lon="13.8966928"><ele>320.0</ele><time>2026-04-25T10:16:19.089Z</time></trkpt><trkpt lat="45.4637824" lon="13.8965052"><ele>318.0</ele><time>2026-04-25T10:16:20.084Z</time></trkpt><trkpt lat="45.4639018" lon="13.8963254"><ele>316.0</ele><time>2026-04-25T10:16:21.094Z</time></trkpt><trkpt lat="45.4640287" lon="13.8961469"><ele>314.0</ele><time>2026-04-25T10:16:22.083Z</time></trkpt><trkpt lat="45.4641595" lon="13.8959656"><ele>312.33333333333337</ele><time>2026-04-25T10:16:23.086Z</time></trkpt><trkpt lat="45.4642704" lon="13.8957891"><ele>310.6666666666667</ele><time>2026-04-25T10:16:24.089Z</time></trkpt><trkpt lat="45.4643581" lon="13.8956031"><ele>309.0</ele><time>2026-04-25T10:16:25.084Z</time></trkpt><trkpt lat="45.4644258" lon="13.895401"><ele>309.0</ele><time>2026-04-25T10:16:26.074Z</time></trkpt><trkpt lat="45.4644801" lon="13.8951933"><ele>309.0</ele><time>2026-04-25T10:16:27.08Z</time></trkpt><trkpt lat="45.4645234" lon="13.894969"><ele>309.0</ele><time>2026-04-25T10:16:28.082Z</time></trkpt><trkpt lat="45.4645633" lon="13.8947427"><ele>311.3333333333333</ele><time>2026-04-25T10:16:29.077Z</time></trkpt><trkpt lat="45.4646052" lon="13.8945296"><ele>313.66666666666663</ele><time>2026-04-25T10:16:30.074Z</time></trkpt><trkpt lat="45.4646579" lon="13.8943276"><ele>316.0</ele><time>2026-04-25T10:16:31.077Z</time></trkpt><trkpt lat="45.4647154" lon="13.8941399"><ele>316.0</ele><time>2026-04-25T10:16:32.078Z</time></trkpt><trkpt lat="45.4647741" lon="13.8939717"><ele>316.0</ele><time>2026-04-25T10:16:33.078Z</time></trkpt><trkpt lat="45.464824" lon="13.8938049"><ele>316.0</ele><time>2026-04-25T10:16:34.073Z</time></trkpt><trkpt lat="45.4648502" lon="13.8936456"><ele>316.0</ele><time>2026-04-25T10:16:35.087Z</time></trkpt><trkpt lat="45.4648595" lon="13.8934996"><ele>313.8</ele><time>2026-04-25T10:16:36.076Z</time></trkpt><trkpt lat="45.4648268" lon="13.8933771"><ele>311.6</ele><time>2026-04-25T10:16:37.077Z</time></trkpt><trkpt lat="45.4647645" lon="13.8932996"><ele>309.4</ele><time>2026-04-25T10:16:38.079Z</time></trkpt><trkpt lat="45.4646632" lon="13.8932669"><ele>307.2</ele><time>2026-04-25T10:16:39.074Z</time></trkpt><trkpt lat="45.4645526" lon="13.8932842"><ele>305.0</ele><time>2026-04-25T10:16:40.081Z</time></trkpt><trkpt lat="45.4644658" lon="13.893351"><ele>302.5</ele><time>2026-04-25T10:16:41.079Z</time></trkpt><trkpt lat="45.4644055" lon="13.8934701"><ele>300.0</ele><time>2026-04-25T10:16:42.084Z</time></trkpt><trkpt lat="45.4643773" lon="13.8936229"><ele>297.5</ele><time>2026-04-25T10:16:43.074Z</time></trkpt><trkpt lat="45.4643809" lon="13.8937979"><ele>295.0</ele><time>2026-04-25T10:16:44.077Z</time></trkpt><trkpt lat="45.4643715" lon="13.8939879"><ele>295.0</ele><time>2026-04-25T10:16:45.082Z</time></trkpt><trkpt lat="45.4643557" lon="13.8941921"><ele>295.0</ele><time>2026-04-25T10:16:46.091Z</time></trkpt><trkpt lat="45.4643298" lon="13.8943835"><ele>295.0</ele><time>2026-04-25T10:16:47.083Z</time></trkpt><trkpt lat="45.4642911" lon="13.8945745"><ele>295.0</ele><time>2026-04-25T10:16:48.085Z</time></trkpt><trkpt lat="45.4642431" lon="13.8947771"><ele>295.5</ele><time>2026-04-25T10:16:49.083Z</time></trkpt><trkpt lat="45.4641792" lon="13.8949757"><ele>296.0</ele><time>2026-04-25T10:16:50.083Z</time></trkpt><trkpt lat="45.4641046" lon="13.8951592"><ele>296.5</ele><time>2026-04-25T10:16:51.085Z</time></trkpt><trkpt lat="45.4640183" lon="13.8953225"><ele>297.0</ele><time>2026-04-25T10:16:52.078Z</time></trkpt><trkpt lat="45.4638938" lon="13.8954533"><ele>296.75</ele><time>2026-04-25T10:16:53.08Z</time></trkpt><trkpt lat="45.4637546" lon="13.8955405"><ele>296.5</ele><time>2026-04-25T10:16:54.076Z</time></trkpt><trkpt lat="45.4636222" lon="13.8956109"><ele>296.25</ele><time>2026-04-25T10:16:55.082Z</time></trkpt><trkpt lat="45.4634995" lon="13.8956727"><ele>296.0</ele><time>2026-04-25T10:16:56.082Z</time></trkpt><trkpt lat="45.4633896" lon="13.8957566"><ele>296.0</ele><time>2026-04-25T10:16:57.081Z</time></trkpt><trkpt lat="45.463313" lon="13.8958835"><ele>296.0</ele><time>2026-04-25T10:16:58.08Z</time></trkpt><trkpt lat="45.4632573" lon="13.8960332"><ele>296.0</ele><time>2026-04-25T10:16:59.077Z</time></trkpt><trkpt lat="45.4632141" lon="13.8961777"><ele>296.0</ele><time>2026-04-25T10:17:00.067Z</time></trkpt><trkpt lat="45.4631546" lon="13.8962949"><ele>296.0</ele><time>2026-04-25T10:17:01.089Z</time></trkpt><trkpt lat="45.4630771" lon="13.8963734"><ele>296.75</ele><time>2026-04-25T10:17:02.076Z</time></trkpt><trkpt lat="45.4629762" lon="13.896426"><ele>297.5</ele><time>2026-04-25T10:17:03.07Z</time></trkpt><trkpt lat="45.462869" lon="13.8964401"><ele>298.25</ele><time>2026-04-25T10:17:04.073Z</time></trkpt><trkpt lat="45.4627526" lon="13.8963822"><ele>299.0</ele><time>2026-04-25T10:17:05.065Z</time></trkpt><trkpt lat="45.4626124" lon="13.8962927"><ele>299.0</ele><time>2026-04-25T10:17:06.078Z</time></trkpt><trkpt lat="45.4624624" lon="13.8962121"><ele>299.0</ele><time>2026-04-25T10:17:07.07Z</time></trkpt><trkpt lat="45.4623037" lon="13.8961325"><ele>299.0</ele><time>2026-04-25T10:17:08.086Z</time></trkpt><trkpt lat="45.4621412" lon="13.8960794"><ele>298.33333333333337</ele><time>2026-04-25T10:17:09.067Z</time></trkpt><trkpt lat="45.4619694" lon="13.8960555"><ele>297.6666666666667</ele><time>2026-04-25T10:17:10.066Z</time></trkpt><trkpt lat="45.4617904" lon="13.8960194"><ele>297.0</ele><time>2026-04-25T10:17:11.071Z</time></trkpt><trkpt lat="45.4616313" lon="13.8960001"><ele>297.0</ele><time>2026-04-25T10:17:12.063Z</time></trkpt><trkpt lat="45.4614692" lon="13.8959641"><ele>297.0</ele><time>2026-04-25T10:17:13.069Z</time></trkpt><trkpt lat="45.4613114" lon="13.8958881"><ele>297.0</ele><time>2026-04-25T10:17:14.068Z</time></trkpt><trkpt lat="45.461159" lon="13.8957752"><ele>293.3333333333333</ele><time>2026-04-25T10:17:15.081Z</time></trkpt><trkpt lat="45.4610072" lon="13.8956435"><ele>289.66666666666663</ele><time>2026-04-25T10:17:16.069Z</time></trkpt><trkpt lat="45.4608607" lon="13.8955273"><ele>286.0</ele><time>2026-04-25T10:17:17.067Z</time></trkpt><trkpt lat="45.4607233" lon="13.8954223"><ele>286.0</ele><time>2026-04-25T10:17:18.069Z</time></trkpt><trkpt lat="45.4605832" lon="13.8953416"><ele>286.0</ele><time>2026-04-25T10:17:19.074Z</time></trkpt><trkpt lat="45.460448" lon="13.8953126"><ele>286.0</ele><time>2026-04-25T10:17:20.073Z</time></trkpt><trkpt lat="45.4603196" lon="13.8953454"><ele>286.0</ele><time>2026-04-25T10:17:21.067Z</time></trkpt><trkpt lat="45.4602015" lon="13.8954083"><ele>282.5</ele><time>2026-04-25T10:17:22.073Z</time></trkpt><trkpt lat="45.4600953" lon="13.8955011"><ele>279.0</ele><time>2026-04-25T10:17:23.072Z</time></trkpt><trkpt lat="45.4600105" lon="13.8956374"><ele>275.5</ele><time>2026-04-25T10:17:24.07Z</time></trkpt><trkpt lat="45.4599488" lon="13.8958124"><ele>272.0</ele><time>2026-04-25T10:17:25.073Z</time></trkpt><trkpt lat="45.4599188" lon="13.8960097"><ele>271.75</ele><time>2026-04-25T10:17:26.079Z</time></trkpt><trkpt lat="45.4599044" lon="13.8961944"><ele>271.5</ele><time>2026-04-25T10:17:27.079Z</time></trkpt><trkpt lat="45.4599061" lon="13.8964125"><ele>271.25</ele><time>2026-04-25T10:17:28.085Z</time></trkpt><trkpt lat="45.4599339" lon="13.8966313"><ele>271.0</ele><time>2026-04-25T10:17:29.088Z</time></trkpt><trkpt lat="45.4599647" lon="13.8968645"><ele>268.0</ele><time>2026-04-25T10:17:30.087Z</time></trkpt><trkpt lat="45.4600084" lon="13.8970973"><ele>265.0</ele><time>2026-04-25T10:17:31.074Z</time></trkpt><trkpt lat="45.4600702" lon="13.8973301"><ele>262.0</ele><time>2026-04-25T10:17:32.08Z</time></trkpt><trkpt lat="45.4601189" lon="13.8975406"><ele>259.66666666666663</ele><time>2026-04-25T10:17:33.071Z</time></trkpt><trkpt lat="45.4601454" lon="13.8977446"><ele>257.3333333333333</ele><time>2026-04-25T10:17:34.071Z</time></trkpt><trkpt lat="45.4601522" lon="13.8979649"><ele>255.0</ele><time>2026-04-25T10:17:35.071Z</time></trkpt><trkpt lat="45.4601561" lon="13.8981875"><ele>255.0</ele><time>2026-04-25T10:17:36.075Z</time></trkpt><trkpt lat="45.460177" lon="13.8983987"><ele>255.0</ele><time>2026-04-25T10:17:37.072Z</time></trkpt><trkpt lat="45.4602286" lon="13.8985972"><ele>255.0</ele><time>2026-04-25T10:17:38.078Z</time></trkpt><trkpt lat="45.4602995" lon="13.8987832"><ele>255.0</ele><time>2026-04-25T10:17:39.072Z</time></trkpt><trkpt lat="45.4603901" lon="13.898944"><ele>256.5</ele><time>2026-04-25T10:17:40.07Z</time></trkpt><trkpt lat="45.4604954" lon="13.8990995"><ele>258.0</ele><time>2026-04-25T10:17:41.068Z</time></trkpt><trkpt lat="45.4606032" lon="13.8992259"><ele>259.5</ele><time>2026-04-25T10:17:42.069Z</time></trkpt><trkpt lat="45.4606976" lon="13.8993405"><ele>261.0</ele><time>2026-04-25T10:17:43.073Z</time></trkpt><trkpt lat="45.4607758" lon="13.8994646"><ele>261.0</ele><time>2026-04-25T10:17:44.074Z</time></trkpt><trkpt lat="45.4608372" lon="13.8996006"><ele>261.0</ele><time>2026-04-25T10:17:45.067Z</time></trkpt><trkpt lat="45.4608632" lon="13.8997457"><ele>261.0</ele><time>2026-04-25T10:17:46.077Z</time></trkpt><trkpt lat="45.4608721" lon="13.8999446"><ele>261.0</ele><time>2026-04-25T10:17:47.072Z</time></trkpt><trkpt lat="45.460861" lon="13.9001324"><ele>266.6666666666667</ele><time>2026-04-25T10:17:48.083Z</time></trkpt><trkpt lat="45.4607911" lon="13.9003046"><ele>272.33333333333337</ele><time>2026-04-25T10:17:49.071Z</time></trkpt><trkpt lat="45.460683" lon="13.9004624"><ele>278.0</ele><time>2026-04-25T10:17:50.072Z</time></trkpt><trkpt lat="45.4605497" lon="13.9005953"><ele>274.33333333333337</ele><time>2026-04-25T10:17:51.068Z</time></trkpt><trkpt lat="45.4604051" lon="13.9007101"><ele>270.6666666666667</ele><time>2026-04-25T10:17:52.081Z</time></trkpt><trkpt lat="45.4602781" lon="13.9008273"><ele>267.0</ele><time>2026-04-25T10:17:53.068Z</time></trkpt><trkpt lat="45.4601484" lon="13.9009293"><ele>267.0</ele><time>2026-04-25T10:17:54.068Z</time></trkpt><trkpt lat="45.4600242" lon="13.901021"><ele>267.0</ele><time>2026-04-25T10:17:55.081Z</time></trkpt><trkpt lat="45.4599108" lon="13.901123"><ele>267.0</ele><time>2026-04-25T10:17:56.084Z</time></trkpt><trkpt lat="45.4598065" lon="13.9012534"><ele>267.0</ele><time>2026-04-25T10:17:57.084Z</time></trkpt><trkpt lat="45.459724" lon="13.9014049"><ele>267.0</ele><time>2026-04-25T10:17:58.09Z</time></trkpt><trkpt lat="45.4596645" lon="13.9015856"><ele>267.0</ele><time>2026-04-25T10:17:59.082Z</time></trkpt><trkpt lat="45.459623" lon="13.9017825"><ele>267.0</ele><time>2026-04-25T10:18:00.083Z</time></trkpt><trkpt lat="45.4595834" lon="13.9020036"><ele>267.0</ele><time>2026-04-25T10:18:01.096Z</time></trkpt><trkpt lat="45.4595471" lon="13.9022218"><ele>261.3333333333333</ele><time>2026-04-25T10:18:02.074Z</time></trkpt><trkpt lat="45.4595083" lon="13.9024471"><ele>255.66666666666666</ele><time>2026-04-25T10:18:03.079Z</time></trkpt><trkpt lat="45.4594669" lon="13.9026669"><ele>250.0</ele><time>2026-04-25T10:18:04.074Z</time></trkpt><trkpt lat="45.4594172" lon="13.9028697"><ele>250.0</ele><time>2026-04-25T10:18:05.082Z</time></trkpt><trkpt lat="45.4593618" lon="13.903059"><ele>250.0</ele><time>2026-04-25T10:18:06.071Z</time></trkpt><trkpt lat="45.4592942" lon="13.9032271"><ele>250.0</ele><time>2026-04-25T10:18:07.065Z</time></trkpt><trkpt lat="45.4592252" lon="13.9033858"><ele>250.0</ele><time>2026-04-25T10:18:08.072Z</time></trkpt><trkpt lat="45.4591588" lon="13.9035256"><ele>249.99999999999997</ele><time>2026-04-25T10:18:09.075Z</time></trkpt><trkpt lat="45.4591011" lon="13.9036328"><ele>250.0</ele><time>2026-04-25T10:18:10.069Z</time></trkpt><trkpt lat="45.459047" lon="13.9037264"><ele>250.0</ele><time>2026-04-25T10:18:11.064Z</time></trkpt><trkpt lat="45.459" lon="13.9038164"><ele>250.0</ele><time>2026-04-25T10:18:12.074Z</time></trkpt><trkpt lat="45.4589646" lon="13.9039636"><ele>249.99999999999997</ele><time>2026-04-25T10:18:14.076Z</time></trkpt><trkpt lat="45.458946" lon="13.9040536"><ele>250.0</ele><time>2026-04-25T10:18:16.081Z</time></trkpt><trkpt lat="45.4589534" lon="13.9041482"><ele>248.42857142857142</ele><time>2026-04-25T10:18:18.083Z</time></trkpt><trkpt lat="45.4589425" lon="13.9042566"><ele>246.8571428571429</ele><time>2026-04-25T10:18:21.082Z</time></trkpt><trkpt lat="45.4589795" lon="13.9043312"><ele>245.2857142857143</ele><time>2026-04-25T10:18:28.076Z</time></trkpt><trkpt lat="45.4590176" lon="13.9044268"><ele>243.71428571428572</ele><time>2026-04-25T10:18:30.079Z</time></trkpt><trkpt lat="45.4590493" lon="13.9045243"><ele>242.14285714285717</ele><time>2026-04-25T10:18:32.078Z</time></trkpt><trkpt lat="45.459082" lon="13.9046085"><ele>240.5714285714286</ele><time>2026-04-25T10:18:34.071Z</time></trkpt><trkpt lat="45.4591261" lon="13.9046974"><ele>239.00000000000003</ele><time>2026-04-25T10:18:37.073Z</time></trkpt><trkpt lat="45.4591747" lon="13.9047698"><ele>239.0</ele><time>2026-04-25T10:18:41.071Z</time></trkpt><trkpt lat="45.4592488" lon="13.9048805"><ele>238.99999999999997</ele><time>2026-04-25T10:18:44.074Z</time></trkpt><trkpt lat="45.4592878" lon="13.9049652"><ele>238.99999999999997</ele><time>2026-04-25T10:18:45.075Z</time></trkpt><trkpt lat="45.4593178" lon="13.9050899"><ele>239.0</ele><time>2026-04-25T10:18:46.081Z</time></trkpt><trkpt lat="45.4593325" lon="13.9052303"><ele>239.0</ele><time>2026-04-25T10:18:47.081Z</time></trkpt><trkpt lat="45.4593326" lon="13.9053767"><ele>240.0</ele><time>2026-04-25T10:18:48.08Z</time></trkpt><trkpt lat="45.4593068" lon="13.9055193"><ele>240.99999999999997</ele><time>2026-04-25T10:18:49.068Z</time></trkpt><trkpt lat="45.4592557" lon="13.9056518"><ele>241.99999999999997</ele><time>2026-04-25T10:18:50.07Z</time></trkpt><trkpt lat="45.4591816" lon="13.9057776"><ele>243.0</ele><time>2026-04-25T10:18:51.08Z</time></trkpt><trkpt lat="45.4590901" lon="13.9058855"><ele>244.0</ele><time>2026-04-25T10:18:52.069Z</time></trkpt><trkpt lat="45.4589855" lon="13.9059642"><ele>241.0</ele><time>2026-04-25T10:18:53.064Z</time></trkpt><trkpt lat="45.4588675" lon="13.9060398"><ele>238.0</ele><time>2026-04-25T10:18:54.072Z</time></trkpt><trkpt lat="45.4587522" lon="13.9061036"><ele>235.0</ele><time>2026-04-25T10:18:55.069Z</time></trkpt><trkpt lat="45.458644" lon="13.9061731"><ele>232.0</ele><time>2026-04-25T10:18:56.073Z</time></trkpt><trkpt lat="45.4585435" lon="13.906239"><ele>232.0</ele><time>2026-04-25T10:18:57.077Z</time></trkpt><trkpt lat="45.4584421" lon="13.9063"><ele>232.0</ele><time>2026-04-25T10:18:58.065Z</time></trkpt><trkpt lat="45.4583382" lon="13.9063804"><ele>232.0</ele><time>2026-04-25T10:18:59.081Z</time></trkpt><trkpt lat="45.4582415" lon="13.9064849"><ele>232.0</ele><time>2026-04-25T10:19:00.077Z</time></trkpt><trkpt lat="45.4581388" lon="13.9066132"><ele>233.75</ele><time>2026-04-25T10:19:01.084Z</time></trkpt><trkpt lat="45.4580415" lon="13.906758"><ele>235.5</ele><time>2026-04-25T10:19:02.083Z</time></trkpt><trkpt lat="45.4579671" lon="13.9068891"><ele>237.25</ele><time>2026-04-25T10:19:03.093Z</time></trkpt><trkpt lat="45.4579014" lon="13.9070177"><ele>239.0</ele><time>2026-04-25T10:19:04.084Z</time></trkpt><trkpt lat="45.4578423" lon="13.907137"><ele>235.39999999999998</ele><time>2026-04-25T10:19:05.082Z</time></trkpt><trkpt lat="45.4577902" lon="13.9072599"><ele>231.79999999999998</ele><time>2026-04-25T10:19:06.082Z</time></trkpt><trkpt lat="45.4577358" lon="13.9073723"><ele>228.20000000000002</ele><time>2026-04-25T10:19:07.074Z</time></trkpt><trkpt lat="45.4576849" lon="13.9074832"><ele>224.60000000000002</ele><time>2026-04-25T10:19:08.076Z</time></trkpt><trkpt lat="45.4576338" lon="13.9075814"><ele>221.0</ele><time>2026-04-25T10:19:09.091Z</time></trkpt><trkpt lat="45.4575871" lon="13.9076931"><ele>221.00000000000003</ele><time>2026-04-25T10:19:10.087Z</time></trkpt><trkpt lat="45.4575397" lon="13.907795"><ele>221.0</ele><time>2026-04-25T10:19:11.076Z</time></trkpt><trkpt lat="45.4575027" lon="13.9078986"><ele>221.0</ele><time>2026-04-25T10:19:12.092Z</time></trkpt><trkpt lat="45.4574699" lon="13.9079946"><ele>221.0</ele><time>2026-04-25T10:19:13.083Z</time></trkpt><trkpt lat="45.4574496" lon="13.9080797"><ele>221.00000000000003</ele><time>2026-04-25T10:19:14.095Z</time></trkpt><trkpt lat="45.4574363" lon="13.908247"><ele>221.0</ele><time>2026-04-25T10:19:16.085Z</time></trkpt><trkpt lat="45.4574437" lon="13.9084128"><ele>221.0</ele><time>2026-04-25T10:19:18.079Z</time></trkpt><trkpt lat="45.4574473" lon="13.9085891"><ele>221.00000000000003</ele><time>2026-04-25T10:19:20.074Z</time></trkpt><trkpt lat="45.4574401" lon="13.9087008"><ele>221.00000000000003</ele><time>2026-04-25T10:19:21.074Z</time></trkpt><trkpt lat="45.4574481" lon="13.9088745"><ele>221.0</ele><time>2026-04-25T10:19:22.082Z</time></trkpt><trkpt lat="45.4574676" lon="13.9090217"><ele>221.0</ele><time>2026-04-25T10:19:23.084Z</time></trkpt><trkpt lat="45.4574764" lon="13.9091766"><ele>219.5</ele><time>2026-04-25T10:19:24.086Z</time></trkpt><trkpt lat="45.4574719" lon="13.9093345"><ele>218.0</ele><time>2026-04-25T10:19:25.089Z</time></trkpt><trkpt lat="45.457451" lon="13.9095127"><ele>216.5</ele><time>2026-04-25T10:19:26.084Z</time></trkpt><trkpt lat="45.4573787" lon="13.9096725"><ele>215.0</ele><time>2026-04-25T10:19:27.074Z</time></trkpt><trkpt lat="45.4566496" lon="13.9121111"><ele>215.0</ele><time>2026-04-25T10:19:38.065Z</time></trkpt><trkpt lat="45.4566219" lon="13.91233"><ele>215.0</ele><time>2026-04-25T10:19:39.058Z</time></trkpt><trkpt lat="45.456536" lon="13.9125512"><ele>215.0</ele><time>2026-04-25T10:19:40.072Z</time></trkpt><trkpt lat="45.4564556" lon="13.9127881"><ele>216.33333333333334</ele><time>2026-04-25T10:19:41.073Z</time></trkpt><trkpt lat="45.4563756" lon="13.9130316"><ele>217.66666666666669</ele><time>2026-04-25T10:19:42.073Z</time></trkpt><trkpt lat="45.4563099" lon="13.9132826"><ele>219.0</ele><time>2026-04-25T10:19:43.066Z</time></trkpt><trkpt lat="45.4562478" lon="13.9135361"><ele>209.66666666666666</ele><time>2026-04-25T10:19:44.067Z</time></trkpt><trkpt lat="45.4561963" lon="13.9137802"><ele>200.33333333333331</ele><time>2026-04-25T10:19:45.079Z</time></trkpt><trkpt lat="45.4561591" lon="13.9140204"><ele>191.0</ele><time>2026-04-25T10:19:46.073Z</time></trkpt><trkpt lat="45.4561345" lon="13.9142562"><ele>191.0</ele><time>2026-04-25T10:19:47.068Z</time></trkpt><trkpt lat="45.4561092" lon="13.9144991"><ele>191.0</ele><time>2026-04-25T10:19:48.073Z</time></trkpt><trkpt lat="45.4560952" lon="13.9147467"><ele>191.0</ele><time>2026-04-25T10:19:49.069Z</time></trkpt><trkpt lat="45.4560976" lon="13.9150062"><ele>190.33333333333331</ele><time>2026-04-25T10:19:50.073Z</time></trkpt><trkpt lat="45.4561129" lon="13.9152684"><ele>189.66666666666666</ele><time>2026-04-25T10:19:51.074Z</time></trkpt><trkpt lat="45.4561348" lon="13.9155322"><ele>189.0</ele><time>2026-04-25T10:19:52.072Z</time></trkpt><trkpt lat="45.4561546" lon="13.9157891"><ele>187.66666666666666</ele><time>2026-04-25T10:19:53.074Z</time></trkpt><trkpt lat="45.4561712" lon="13.916025"><ele>186.33333333333331</ele><time>2026-04-25T10:19:54.072Z</time></trkpt><trkpt lat="45.4561848" lon="13.9162536"><ele>185.0</ele><time>2026-04-25T10:19:55.076Z</time></trkpt><trkpt lat="45.456189" lon="13.916482"><ele>185.0</ele><time>2026-04-25T10:19:56.074Z</time></trkpt><trkpt lat="45.4561867" lon="13.9166996"><ele>185.0</ele><time>2026-04-25T10:19:57.074Z</time></trkpt><trkpt lat="45.4561694" lon="13.9169273"><ele>185.0</ele><time>2026-04-25T10:19:58.065Z</time></trkpt><trkpt lat="45.4561327" lon="13.9171635"><ele>185.66666666666666</ele><time>2026-04-25T10:19:59.065Z</time></trkpt><trkpt lat="45.4560824" lon="13.9174046"><ele>186.33333333333334</ele><time>2026-04-25T10:20:00.064Z</time></trkpt><trkpt lat="45.4560334" lon="13.9176511"><ele>187.0</ele><time>2026-04-25T10:20:01.064Z</time></trkpt><trkpt lat="45.455977" lon="13.9179021"><ele>188.0</ele><time>2026-04-25T10:20:02.062Z</time></trkpt><trkpt lat="45.4559218" lon="13.9181531"><ele>189.0</ele><time>2026-04-25T10:20:03.066Z</time></trkpt><trkpt lat="45.4558672" lon="13.918409"><ele>190.0</ele><time>2026-04-25T10:20:04.07Z</time></trkpt><trkpt lat="45.4558094" lon="13.9186582"><ele>192.0</ele><time>2026-04-25T10:20:05.074Z</time></trkpt><trkpt lat="45.4557579" lon="13.9188955"><ele>194.0</ele><time>2026-04-25T10:20:06.07Z</time></trkpt><trkpt lat="45.4557053" lon="13.9191374"><ele>196.0</ele><time>2026-04-25T10:20:07.073Z</time></trkpt><trkpt lat="45.4556469" lon="13.9193735"><ele>199.0</ele><time>2026-04-25T10:20:08.077Z</time></trkpt><trkpt lat="45.4555872" lon="13.9196079"><ele>202.0</ele><time>2026-04-25T10:20:09.077Z</time></trkpt><trkpt lat="45.4555282" lon="13.9198483"><ele>205.0</ele><time>2026-04-25T10:20:10.07Z</time></trkpt><trkpt lat="45.4554679" lon="13.9200873"><ele>195.66666666666666</ele><time>2026-04-25T10:20:11.089Z</time></trkpt><trkpt lat="45.4553899" lon="13.9203283"><ele>186.33333333333331</ele><time>2026-04-25T10:20:12.078Z</time></trkpt><trkpt lat="45.4552969" lon="13.9205728"><ele>177.0</ele><time>2026-04-25T10:20:13.068Z</time></trkpt><trkpt lat="45.4551938" lon="13.9208204"><ele>180.66666666666666</ele><time>2026-04-25T10:20:14.069Z</time></trkpt><trkpt lat="45.4550932" lon="13.9210647"><ele>184.33333333333331</ele><time>2026-04-25T10:20:15.067Z</time></trkpt><trkpt lat="45.4549889" lon="13.9213094"><ele>188.0</ele><time>2026-04-25T10:20:16.065Z</time></trkpt><trkpt lat="45.4548931" lon="13.9215389"><ele>193.33333333333331</ele><time>2026-04-25T10:20:17.079Z</time></trkpt><trkpt lat="45.4548057" lon="13.9217673"><ele>198.66666666666666</ele><time>2026-04-25T10:20:18.07Z</time></trkpt><trkpt lat="45.4547324" lon="13.92199"><ele>204.0</ele><time>2026-04-25T10:20:19.071Z</time></trkpt><trkpt lat="45.4546621" lon="13.9222067"><ele>195.66666666666666</ele><time>2026-04-25T10:20:20.062Z</time></trkpt><trkpt lat="45.4545867" lon="13.9224368"><ele>187.33333333333331</ele><time>2026-04-25T10:20:21.064Z</time></trkpt><trkpt lat="45.4545095" lon="13.9226642"><ele>179.0</ele><time>2026-04-25T10:20:22.075Z</time></trkpt><trkpt lat="45.4544255" lon="13.9228795"><ele>179.0</ele><time>2026-04-25T10:20:23.065Z</time></trkpt><trkpt lat="45.4543225" lon="13.9230614"><ele>179.0</ele><time>2026-04-25T10:20:24.078Z</time></trkpt><trkpt lat="45.4542052" lon="13.923246"><ele>179.0</ele><time>2026-04-25T10:20:25.077Z</time></trkpt></trkseg><trkseg><trkpt lat="45.4150765" lon="13.9601938"><ele>62.00000000000001</ele><time>2026-04-25T11:07:46.314Z</time></trkpt><trkpt lat="45.4151304" lon="13.9601451"><ele>62.0</ele><time>2026-04-25T11:07:47.308Z</time></trkpt><trkpt lat="45.4151895" lon="13.9600793"><ele>62.0</ele><time>2026-04-25T11:07:48.316Z</time></trkpt><trkpt lat="45.4152631" lon="13.9600086"><ele>62.0</ele><time>2026-04-25T11:07:49.33Z</time></trkpt><trkpt lat="45.4153294" lon="13.9599469"><ele>62.00000000000001</ele><time>2026-04-25T11:07:50.303Z</time></trkpt><trkpt lat="45.4153951" lon="13.9598898"><ele>62.0</ele><time>2026-04-25T11:07:51.301Z</time></trkpt><trkpt lat="45.4154604" lon="13.9598262"><ele>61.00000000000001</ele><time>2026-04-25T11:07:52.317Z</time></trkpt><trkpt lat="45.415535" lon="13.9597662"><ele>60.0</ele><time>2026-04-25T11:07:53.309Z</time></trkpt><trkpt lat="45.4156137" lon="13.95975"><ele>59.0</ele><time>2026-04-25T11:07:54.304Z</time></trkpt><trkpt lat="45.415682" lon="13.9597904"><ele>58.0</ele><time>2026-04-25T11:07:55.294Z</time></trkpt><trkpt lat="45.4157325" lon="13.9598601"><ele>57.00000000000001</ele><time>2026-04-25T11:07:56.301Z</time></trkpt><trkpt lat="45.4157746" lon="13.9599477"><ele>56.0</ele><time>2026-04-25T11:07:57.302Z</time></trkpt><trkpt lat="45.4157811" lon="13.9600588"><ele>56.0</ele><time>2026-04-25T11:07:58.303Z</time></trkpt><trkpt lat="45.4157542" lon="13.9601937"><ele>56.0</ele><time>2026-04-25T11:07:59.295Z</time></trkpt><trkpt lat="45.4156957" lon="13.9603384"><ele>56.0</ele><time>2026-04-25T11:08:00.305Z</time></trkpt><trkpt lat="45.4156206" lon="13.9604905"><ele>56.0</ele><time>2026-04-25T11:08:01.301Z</time></trkpt><trkpt lat="45.4155404" lon="13.9606463"><ele>58.0</ele><time>2026-04-25T11:08:02.307Z</time></trkpt><trkpt lat="45.4154621" lon="13.9608201"><ele>60.0</ele><time>2026-04-25T11:08:03.313Z</time></trkpt><trkpt lat="45.4153848" lon="13.9610065"><ele>62.0</ele><time>2026-04-25T11:08:04.31Z</time></trkpt><trkpt lat="45.4153174" lon="13.9612089"><ele>64.33333333333334</ele><time>2026-04-25T11:08:05.318Z</time></trkpt><trkpt lat="45.4152599" lon="13.9614378"><ele>66.66666666666667</ele><time>2026-04-25T11:08:06.313Z</time></trkpt><trkpt lat="45.415207" lon="13.9616764"><ele>69.0</ele><time>2026-04-25T11:08:07.319Z</time></trkpt><trkpt lat="45.4151685" lon="13.9619195"><ele>70.0</ele><time>2026-04-25T11:08:08.316Z</time></trkpt><trkpt lat="45.4151351" lon="13.9621773"><ele>71.0</ele><time>2026-04-25T11:08:09.322Z</time></trkpt><trkpt lat="45.4151138" lon="13.9624287"><ele>72.0</ele><time>2026-04-25T11:08:10.319Z</time></trkpt><trkpt lat="45.4151055" lon="13.9626906"><ele>72.0</ele><time>2026-04-25T11:08:11.311Z</time></trkpt><trkpt lat="45.415102" lon="13.9629571"><ele>72.0</ele><time>2026-04-25T11:08:12.305Z</time></trkpt><trkpt lat="45.4150908" lon="13.9632406"><ele>72.0</ele><time>2026-04-25T11:08:13.308Z</time></trkpt><trkpt lat="45.4150667" lon="13.9635318"><ele>71.66666666666667</ele><time>2026-04-25T11:08:14.306Z</time></trkpt><trkpt lat="45.4150313" lon="13.9638144"><ele>71.33333333333334</ele><time>2026-04-25T11:08:15.302Z</time></trkpt><trkpt lat="45.4149881" lon="13.9640629"><ele>71.0</ele><time>2026-04-25T11:08:16.296Z</time></trkpt><trkpt lat="45.4149442" lon="13.9642927"><ele>71.0</ele><time>2026-04-25T11:08:17.303Z</time></trkpt><trkpt lat="45.4148981" lon="13.9645178"><ele>71.0</ele><time>2026-04-25T11:08:18.297Z</time></trkpt><trkpt lat="45.4148507" lon="13.9647435"><ele>71.0</ele><time>2026-04-25T11:08:19.305Z</time></trkpt><trkpt lat="45.4148007" lon="13.9649641"><ele>71.0</ele><time>2026-04-25T11:08:20.311Z</time></trkpt><trkpt lat="45.41476" lon="13.9651698"><ele>71.0</ele><time>2026-04-25T11:08:21.315Z</time></trkpt><trkpt lat="45.4147211" lon="13.9653486"><ele>71.0</ele><time>2026-04-25T11:08:22.309Z</time></trkpt><trkpt lat="45.4146709" lon="13.9655154"><ele>71.0</ele><time>2026-04-25T11:08:23.314Z</time></trkpt><trkpt lat="45.4146208" lon="13.9656545"><ele>71.75</ele><time>2026-04-25T11:08:24.313Z</time></trkpt><trkpt lat="45.4145718" lon="13.9657997"><ele>72.5</ele><time>2026-04-25T11:08:25.305Z</time></trkpt><trkpt lat="45.4145171" lon="13.965944"><ele>73.25</ele><time>2026-04-25T11:08:26.306Z</time></trkpt><trkpt lat="45.4144546" lon="13.966086"><ele>74.0</ele><time>2026-04-25T11:08:27.305Z</time></trkpt><trkpt lat="45.4143619" lon="13.9662271"><ele>75.5</ele><time>2026-04-25T11:08:28.314Z</time></trkpt><trkpt lat="45.414254" lon="13.9663524"><ele>77.0</ele><time>2026-04-25T11:08:29.31Z</time></trkpt><trkpt lat="45.4141536" lon="13.9664615"><ele>78.5</ele><time>2026-04-25T11:08:30.314Z</time></trkpt><trkpt lat="45.4140563" lon="13.9665605"><ele>80.0</ele><time>2026-04-25T11:08:31.312Z</time></trkpt><trkpt lat="45.4139672" lon="13.9666411"><ele>80.2</ele><time>2026-04-25T11:08:32.301Z</time></trkpt><trkpt lat="45.413887" lon="13.9667112"><ele>80.4</ele><time>2026-04-25T11:08:33.301Z</time></trkpt><trkpt lat="45.4138038" lon="13.9667809"><ele>80.6</ele><time>2026-04-25T11:08:34.304Z</time></trkpt><trkpt lat="45.4137193" lon="13.9668496"><ele>80.8</ele><time>2026-04-25T11:08:35.308Z</time></trkpt><trkpt lat="45.413636" lon="13.9669239"><ele>81.0</ele><time>2026-04-25T11:08:36.313Z</time></trkpt><trkpt lat="45.4135504" lon="13.9669932"><ele>81.0</ele><time>2026-04-25T11:08:37.313Z</time></trkpt><trkpt lat="45.4134662" lon="13.9670648"><ele>81.0</ele><time>2026-04-25T11:08:38.308Z</time></trkpt><trkpt lat="45.4133963" lon="13.9671273"><ele>81.0</ele><time>2026-04-25T11:08:39.32Z</time></trkpt><trkpt lat="45.4133238" lon="13.9671823"><ele>81.0</ele><time>2026-04-25T11:08:40.297Z</time></trkpt><trkpt lat="45.413254" lon="13.9672377"><ele>81.0</ele><time>2026-04-25T11:08:41.311Z</time></trkpt><trkpt lat="45.4131816" lon="13.9672896"><ele>81.0</ele><time>2026-04-25T11:08:42.319Z</time></trkpt><trkpt lat="45.4131123" lon="13.9673243"><ele>81.0</ele><time>2026-04-25T11:08:43.315Z</time></trkpt><trkpt lat="45.4130405" lon="13.9673346"><ele>81.0</ele><time>2026-04-25T11:08:44.296Z</time></trkpt><trkpt lat="45.4129656" lon="13.9673297"><ele>81.0</ele><time>2026-04-25T11:08:45.309Z</time></trkpt><trkpt lat="45.412886" lon="13.9673545"><ele>81.0</ele><time>2026-04-25T11:08:46.299Z</time></trkpt><trkpt lat="45.4128143" lon="13.9673924"><ele>81.0</ele><time>2026-04-25T11:08:47.313Z</time></trkpt><trkpt lat="45.4127752" lon="13.9674697"><ele>81.0</ele><time>2026-04-25T11:08:48.3Z</time></trkpt><trkpt lat="45.4127569" lon="13.9675951"><ele>80.2</ele><time>2026-04-25T11:08:49.299Z</time></trkpt><trkpt lat="45.4127532" lon="13.9677169"><ele>79.39999999999999</ele><time>2026-04-25T11:08:50.306Z</time></trkpt><trkpt lat="45.4127382" lon="13.9678499"><ele>78.6</ele><time>2026-04-25T11:08:51.298Z</time></trkpt><trkpt lat="45.4127045" lon="13.9679904"><ele>77.8</ele><time>2026-04-25T11:08:52.301Z</time></trkpt><trkpt lat="45.4126488" lon="13.9681375"><ele>77.0</ele><time>2026-04-25T11:08:53.295Z</time></trkpt><trkpt lat="45.4125849" lon="13.9682983"><ele>76.0</ele><time>2026-04-25T11:08:54.313Z</time></trkpt><trkpt lat="45.4125078" lon="13.9684711"><ele>75.0</ele><time>2026-04-25T11:08:55.301Z</time></trkpt><trkpt lat="45.4124267" lon="13.9686607"><ele>74.0</ele><time>2026-04-25T11:08:56.298Z</time></trkpt><trkpt lat="45.4123533" lon="13.9688513"><ele>74.0</ele><time>2026-04-25T11:08:57.298Z</time></trkpt><trkpt lat="45.4122918" lon="13.9690253"><ele>74.0</ele><time>2026-04-25T11:08:58.311Z</time></trkpt><trkpt lat="45.4122202" lon="13.9692113"><ele>74.0</ele><time>2026-04-25T11:08:59.299Z</time></trkpt><trkpt lat="45.4121524" lon="13.9694001"><ele>74.0</ele><time>2026-04-25T11:09:00.3Z</time></trkpt><trkpt lat="45.412087" lon="13.9695729"><ele>73.60000000000001</ele><time>2026-04-25T11:09:01.304Z</time></trkpt><trkpt lat="45.4120226" lon="13.9697269"><ele>73.2</ele><time>2026-04-25T11:09:02.297Z</time></trkpt><trkpt lat="45.4119581" lon="13.9698601"><ele>72.80000000000001</ele><time>2026-04-25T11:09:03.302Z</time></trkpt><trkpt lat="45.4118931" lon="13.9699738"><ele>72.4</ele><time>2026-04-25T11:09:04.303Z</time></trkpt><trkpt lat="45.4118319" lon="13.9700776"><ele>72.0</ele><time>2026-04-25T11:09:05.306Z</time></trkpt><trkpt lat="45.4117811" lon="13.9701711"><ele>71.83333333333333</ele><time>2026-04-25T11:09:06.296Z</time></trkpt><trkpt lat="45.4117298" lon="13.9702502"><ele>71.66666666666667</ele><time>2026-04-25T11:09:07.303Z</time></trkpt><trkpt lat="45.4116764" lon="13.9703282"><ele>71.5</ele><time>2026-04-25T11:09:08.297Z</time></trkpt><trkpt lat="45.4116221" lon="13.9703966"><ele>71.33333333333334</ele><time>2026-04-25T11:09:09.304Z</time></trkpt><trkpt lat="45.4115364" lon="13.9704685"><ele>71.16666666666667</ele><time>2026-04-25T11:09:11.308Z</time></trkpt><trkpt lat="45.4114773" lon="13.9705049"><ele>71.0</ele><time>2026-04-25T11:09:13.31Z</time></trkpt><trkpt lat="45.4113903" lon="13.9705483"><ele>70.83333333333334</ele><time>2026-04-25T11:09:15.308Z</time></trkpt><trkpt lat="45.4113192" lon="13.9705271"><ele>70.66666666666667</ele><time>2026-04-25T11:09:16.293Z</time></trkpt><trkpt lat="45.4112468" lon="13.9705408"><ele>70.5</ele><time>2026-04-25T11:09:17.292Z</time></trkpt><trkpt lat="45.4111824" lon="13.9705972"><ele>70.33333333333333</ele><time>2026-04-25T11:09:18.3Z</time></trkpt><trkpt lat="45.4111373" lon="13.9707078"><ele>70.16666666666666</ele><time>2026-04-25T11:09:19.297Z</time></trkpt><trkpt lat="45.411114" lon="13.9708205"><ele>70.0</ele><time>2026-04-25T11:09:20.3Z</time></trkpt><trkpt lat="45.4110928" lon="13.9709507"><ele>69.75</ele><time>2026-04-25T11:09:21.295Z</time></trkpt><trkpt lat="45.4110441" lon="13.9710668"><ele>69.5</ele><time>2026-04-25T11:09:22.298Z</time></trkpt><trkpt lat="45.410963" lon="13.9711892"><ele>69.25</ele><time>2026-04-25T11:09:23.297Z</time></trkpt><trkpt lat="45.4108651" lon="13.9713418"><ele>69.0</ele><time>2026-04-25T11:09:24.313Z</time></trkpt><trkpt lat="45.4107671" lon="13.9714776"><ele>69.0</ele><time>2026-04-25T11:09:25.312Z</time></trkpt><trkpt lat="45.4106641" lon="13.9715998"><ele>69.0</ele><time>2026-04-25T11:09:26.307Z</time></trkpt><trkpt lat="45.4105628" lon="13.9717159"><ele>69.0</ele><time>2026-04-25T11:09:27.303Z</time></trkpt><trkpt lat="45.4104662" lon="13.9718326"><ele>69.0</ele><time>2026-04-25T11:09:28.309Z</time></trkpt><trkpt lat="45.4103713" lon="13.9719457"><ele>67.75</ele><time>2026-04-25T11:09:29.306Z</time></trkpt><trkpt lat="45.4102818" lon="13.9720581"><ele>66.5</ele><time>2026-04-25T11:09:30.316Z</time></trkpt><trkpt lat="45.4101829" lon="13.9721683"><ele>65.25</ele><time>2026-04-25T11:09:31.301Z</time></trkpt><trkpt lat="45.4100838" lon="13.9722754"><ele>64.0</ele><time>2026-04-25T11:09:32.305Z</time></trkpt><trkpt lat="45.4099921" lon="13.9723754"><ele>64.0</ele><time>2026-04-25T11:09:33.305Z</time></trkpt><trkpt lat="45.409909" lon="13.9724656"><ele>64.0</ele><time>2026-04-25T11:09:34.297Z</time></trkpt><trkpt lat="45.4098279" lon="13.9725563"><ele>64.0</ele><time>2026-04-25T11:09:35.305Z</time></trkpt><trkpt lat="45.4097457" lon="13.9726528"><ele>64.0</ele><time>2026-04-25T11:09:36.302Z</time></trkpt><trkpt lat="45.4096618" lon="13.9727542"><ele>64.0</ele><time>2026-04-25T11:09:37.304Z</time></trkpt><trkpt lat="45.4095748" lon="13.9728605"><ele>63.800000000000004</ele><time>2026-04-25T11:09:38.305Z</time></trkpt><trkpt lat="45.4094903" lon="13.9729598"><ele>63.60000000000001</ele><time>2026-04-25T11:09:39.302Z</time></trkpt><trkpt lat="45.4094162" lon="13.9730546"><ele>63.4</ele><time>2026-04-25T11:09:40.299Z</time></trkpt><trkpt lat="45.4093479" lon="13.9731529"><ele>63.2</ele><time>2026-04-25T11:09:41.304Z</time></trkpt><trkpt lat="45.4092745" lon="13.9732497"><ele>63.0</ele><time>2026-04-25T11:09:42.303Z</time></trkpt><trkpt lat="45.4091974" lon="13.9733574"><ele>62.666666666666664</ele><time>2026-04-25T11:09:43.305Z</time></trkpt><trkpt lat="45.4091288" lon="13.9734502"><ele>62.33333333333333</ele><time>2026-04-25T11:09:44.303Z</time></trkpt><trkpt lat="45.4090615" lon="13.9735418"><ele>62.0</ele><time>2026-04-25T11:09:45.299Z</time></trkpt><trkpt lat="45.4089952" lon="13.9736186"><ele>61.666666666666664</ele><time>2026-04-25T11:09:46.305Z</time></trkpt><trkpt lat="45.4089344" lon="13.9736958"><ele>61.33333333333333</ele><time>2026-04-25T11:09:47.299Z</time></trkpt><trkpt lat="45.408882" lon="13.9737809"><ele>61.0</ele><time>2026-04-25T11:09:48.308Z</time></trkpt><trkpt lat="45.4088294" lon="13.973854"><ele>60.99999999999999</ele><time>2026-04-25T11:09:49.311Z</time></trkpt><trkpt lat="45.408779" lon="13.9739178"><ele>61.0</ele><time>2026-04-25T11:09:50.293Z</time></trkpt><trkpt lat="45.4087" lon="13.9740086"><ele>61.0</ele><time>2026-04-25T11:09:52.312Z</time></trkpt><trkpt lat="45.4086467" lon="13.9740752"><ele>61.0</ele><time>2026-04-25T11:09:54.308Z</time></trkpt><trkpt lat="45.4085907" lon="13.974163"><ele>60.99999999999999</ele><time>2026-04-25T11:10:08.313Z</time></trkpt><trkpt lat="45.4085877" lon="13.9743053"><ele>61.0</ele><time>2026-04-25T11:10:10.312Z</time></trkpt><trkpt lat="45.4086752" lon="13.9743847"><ele>60.99999999999999</ele><time>2026-04-25T11:10:12.311Z</time></trkpt><trkpt lat="45.4087744" lon="13.9743513"><ele>61.0</ele><time>2026-04-25T11:10:14.32Z</time></trkpt><trkpt lat="45.4088401" lon="13.9743175"><ele>61.0</ele><time>2026-04-25T11:10:16.315Z</time></trkpt><trkpt lat="45.408902" lon="13.9742723"><ele>61.0</ele><time>2026-04-25T11:10:19.315Z</time></trkpt><trkpt lat="45.4089484" lon="13.974191"><ele>60.99999999999999</ele><time>2026-04-25T11:10:23.31Z</time></trkpt><trkpt lat="45.4090126" lon="13.9741044"><ele>61.0</ele><time>2026-04-25T11:13:15.31Z</time></trkpt><trkpt lat="45.4090828" lon="13.9740677"><ele>60.99999999999999</ele><time>2026-04-25T11:13:18.307Z</time></trkpt><trkpt lat="45.409046" lon="13.9739723"><ele>61.0</ele><time>2026-04-25T11:23:30.313Z</time></trkpt><trkpt lat="45.4091212" lon="13.9738573"><ele>61.0</ele><time>2026-04-25T11:23:32.3Z</time></trkpt><trkpt lat="45.4091706" lon="13.9737586"><ele>61.0</ele><time>2026-04-25T11:23:34.348Z</time></trkpt><trkpt lat="45.4091854" lon="13.9736642"><ele>60.99999999999999</ele><time>2026-04-25T11:23:36.304Z</time></trkpt><trkpt lat="45.4091705" lon="13.9735628"><ele>61.0</ele><time>2026-04-25T11:23:39.319Z</time></trkpt><trkpt lat="45.4091834" lon="13.9734672"><ele>61.4</ele><time>2026-04-25T11:23:41.311Z</time></trkpt><trkpt lat="45.4092699" lon="13.9733362"><ele>61.8</ele><time>2026-04-25T11:23:43.314Z</time></trkpt><trkpt lat="45.4093266" lon="13.9732616"><ele>62.199999999999996</ele><time>2026-04-25T11:23:44.31Z</time></trkpt><trkpt lat="45.4093947" lon="13.9731891"><ele>62.599999999999994</ele><time>2026-04-25T11:23:45.325Z</time></trkpt><trkpt lat="45.4094602" lon="13.973112"><ele>63.0</ele><time>2026-04-25T11:23:46.316Z</time></trkpt><trkpt lat="45.409532" lon="13.9730289"><ele>63.0</ele><time>2026-04-25T11:23:47.303Z</time></trkpt><trkpt lat="45.4096083" lon="13.972939"><ele>63.0</ele><time>2026-04-25T11:23:48.3Z</time></trkpt><trkpt lat="45.4096866" lon="13.9728434"><ele>63.0</ele><time>2026-04-25T11:23:49.321Z</time></trkpt><trkpt lat="45.4097716" lon="13.9727401"><ele>63.0</ele><time>2026-04-25T11:23:50.313Z</time></trkpt><trkpt lat="45.4098621" lon="13.9726286"><ele>63.0</ele><time>2026-04-25T11:23:51.31Z</time></trkpt><trkpt lat="45.4099534" lon="13.9725121"><ele>63.25</ele><time>2026-04-25T11:23:52.313Z</time></trkpt><trkpt lat="45.4100531" lon="13.972388"><ele>63.5</ele><time>2026-04-25T11:23:53.306Z</time></trkpt><trkpt lat="45.4101629" lon="13.9722637"><ele>63.75</ele><time>2026-04-25T11:23:54.306Z</time></trkpt><trkpt lat="45.4102727" lon="13.9721407"><ele>64.0</ele><time>2026-04-25T11:23:55.316Z</time></trkpt><trkpt lat="45.4103827" lon="13.9720135"><ele>64.0</ele><time>2026-04-25T11:23:56.324Z</time></trkpt><trkpt lat="45.4104896" lon="13.9718886"><ele>64.0</ele><time>2026-04-25T11:23:57.319Z</time></trkpt><trkpt lat="45.4105924" lon="13.9717664"><ele>64.0</ele><time>2026-04-25T11:23:58.306Z</time></trkpt><trkpt lat="45.4106906" lon="13.9716408"><ele>64.0</ele><time>2026-04-25T11:23:59.319Z</time></trkpt><trkpt lat="45.4107933" lon="13.9715204"><ele>65.0</ele><time>2026-04-25T11:24:00.32Z</time></trkpt><trkpt lat="45.4108846" lon="13.971407"><ele>66.0</ele><time>2026-04-25T11:24:01.324Z</time></trkpt><trkpt lat="45.4109583" lon="13.9713085"><ele>67.0</ele><time>2026-04-25T11:24:02.321Z</time></trkpt><trkpt lat="45.4110192" lon="13.9712232"><ele>68.0</ele><time>2026-04-25T11:24:03.314Z</time></trkpt><trkpt lat="45.4110676" lon="13.9711487"><ele>69.0</ele><time>2026-04-25T11:24:04.333Z</time></trkpt><trkpt lat="45.4111235" lon="13.9710761"><ele>69.0</ele><time>2026-04-25T11:24:05.325Z</time></trkpt><trkpt lat="45.4111958" lon="13.9710275"><ele>69.0</ele><time>2026-04-25T11:24:06.338Z</time></trkpt><trkpt lat="45.4112802" lon="13.9710021"><ele>69.0</ele><time>2026-04-25T11:24:07.319Z</time></trkpt><trkpt lat="45.4113755" lon="13.971001"><ele>69.0</ele><time>2026-04-25T11:24:08.318Z</time></trkpt><trkpt lat="45.4114801" lon="13.9710111"><ele>69.0</ele><time>2026-04-25T11:24:09.32Z</time></trkpt><trkpt lat="45.4115926" lon="13.9710521"><ele>70.0</ele><time>2026-04-25T11:24:10.317Z</time></trkpt><trkpt lat="45.4117138" lon="13.9711094"><ele>71.0</ele><time>2026-04-25T11:24:11.322Z</time></trkpt><trkpt lat="45.4118431" lon="13.9711617"><ele>72.0</ele><time>2026-04-25T11:24:12.325Z</time></trkpt><trkpt lat="45.4119871" lon="13.9712186"><ele>73.0</ele><time>2026-04-25T11:24:13.333Z</time></trkpt><trkpt lat="45.4121425" lon="13.9712657"><ele>74.0</ele><time>2026-04-25T11:24:14.307Z</time></trkpt><trkpt lat="45.4123056" lon="13.9713087"><ele>75.0</ele><time>2026-04-25T11:24:15.319Z</time></trkpt><trkpt lat="45.4124727" lon="13.971358"><ele>76.0</ele><time>2026-04-25T11:24:16.317Z</time></trkpt><trkpt lat="45.4126401" lon="13.9714117"><ele>76.0</ele><time>2026-04-25T11:24:17.315Z</time></trkpt><trkpt lat="45.4128055" lon="13.9714682"><ele>76.0</ele><time>2026-04-25T11:24:18.326Z</time></trkpt><trkpt lat="45.4129751" lon="13.9715175"><ele>76.0</ele><time>2026-04-25T11:24:19.329Z</time></trkpt><trkpt lat="45.4131464" lon="13.9715678"><ele>77.0</ele><time>2026-04-25T11:24:20.299Z</time></trkpt><trkpt lat="45.4133199" lon="13.971624"><ele>78.0</ele><time>2026-04-25T11:24:21.306Z</time></trkpt><trkpt lat="45.413496" lon="13.9716785"><ele>79.0</ele><time>2026-04-25T11:24:22.308Z</time></trkpt><trkpt lat="45.4136739" lon="13.9717294"><ele>80.33333333333333</ele><time>2026-04-25T11:24:23.316Z</time></trkpt><trkpt lat="45.4138533" lon="13.9717828"><ele>81.66666666666667</ele><time>2026-04-25T11:24:24.31Z</time></trkpt><trkpt lat="45.4140351" lon="13.9718364"><ele>83.0</ele><time>2026-04-25T11:24:25.32Z</time></trkpt><trkpt lat="45.4142163" lon="13.9718875"><ele>83.0</ele><time>2026-04-25T11:24:26.321Z</time></trkpt><trkpt lat="45.4143973" lon="13.9719423"><ele>83.0</ele><time>2026-04-25T11:24:27.32Z</time></trkpt><trkpt lat="45.4145792" lon="13.9719929"><ele>83.0</ele><time>2026-04-25T11:24:28.308Z</time></trkpt><trkpt lat="45.4147582" lon="13.9720469"><ele>85.33333333333334</ele><time>2026-04-25T11:24:29.313Z</time></trkpt><trkpt lat="45.4149382" lon="13.972096"><ele>87.66666666666667</ele><time>2026-04-25T11:24:30.31Z</time></trkpt><trkpt lat="45.4151184" lon="13.9721492"><ele>90.0</ele><time>2026-04-25T11:24:31.311Z</time></trkpt><trkpt lat="45.4152959" lon="13.9722028"><ele>90.0</ele><time>2026-04-25T11:24:32.295Z</time></trkpt><trkpt lat="45.4154695" lon="13.9722603"><ele>90.0</ele><time>2026-04-25T11:24:33.319Z</time></trkpt><trkpt lat="45.4156431" lon="13.9723226"><ele>90.0</ele><time>2026-04-25T11:24:34.309Z</time></trkpt><trkpt lat="45.4158199" lon="13.9723753"><ele>91.66666666666667</ele><time>2026-04-25T11:24:35.312Z</time></trkpt><trkpt lat="45.4159989" lon="13.9724286"><ele>93.33333333333334</ele><time>2026-04-25T11:24:36.313Z</time></trkpt><trkpt lat="45.41618" lon="13.972479"><ele>95.0</ele><time>2026-04-25T11:24:37.319Z</time></trkpt><trkpt lat="45.4163608" lon="13.9725249"><ele>96.66666666666667</ele><time>2026-04-25T11:24:38.303Z</time></trkpt><trkpt lat="45.4165426" lon="13.9725834"><ele>98.33333333333334</ele><time>2026-04-25T11:24:39.312Z</time></trkpt><trkpt lat="45.4167302" lon="13.972636"><ele>100.0</ele><time>2026-04-25T11:24:40.293Z</time></trkpt><trkpt lat="45.4169183" lon="13.972683"><ele>100.0</ele><time>2026-04-25T11:24:41.299Z</time></trkpt><trkpt lat="45.4171033" lon="13.9727197"><ele>100.0</ele><time>2026-04-25T11:24:42.308Z</time></trkpt><trkpt lat="45.4172926" lon="13.9727432"><ele>100.0</ele><time>2026-04-25T11:24:43.319Z</time></trkpt><trkpt lat="45.4174707" lon="13.9727546"><ele>100.66666666666667</ele><time>2026-04-25T11:24:44.29Z</time></trkpt><trkpt lat="45.4176448" lon="13.9727411"><ele>101.33333333333334</ele><time>2026-04-25T11:24:45.311Z</time></trkpt><trkpt lat="45.4178171" lon="13.9727044"><ele>102.0</ele><time>2026-04-25T11:24:46.298Z</time></trkpt><trkpt lat="45.4179887" lon="13.9726549"><ele>102.66666666666666</ele><time>2026-04-25T11:24:47.299Z</time></trkpt><trkpt lat="45.418155" lon="13.9726012"><ele>103.33333333333333</ele><time>2026-04-25T11:24:48.296Z</time></trkpt><trkpt lat="45.418323" lon="13.9725352"><ele>104.0</ele><time>2026-04-25T11:24:49.3Z</time></trkpt><trkpt lat="45.4184842" lon="13.9724499"><ele>104.0</ele><time>2026-04-25T11:24:50.299Z</time></trkpt><trkpt lat="45.4186474" lon="13.9723498"><ele>104.0</ele><time>2026-04-25T11:24:51.312Z</time></trkpt><trkpt lat="45.4188085" lon="13.9722367"><ele>104.0</ele><time>2026-04-25T11:24:52.298Z</time></trkpt><trkpt lat="45.4189665" lon="13.972112"><ele>105.0</ele><time>2026-04-25T11:24:53.298Z</time></trkpt><trkpt lat="45.4191283" lon="13.971989"><ele>106.0</ele><time>2026-04-25T11:24:54.31Z</time></trkpt><trkpt lat="45.4192866" lon="13.9718589"><ele>107.0</ele><time>2026-04-25T11:24:55.309Z</time></trkpt><trkpt lat="45.4194441" lon="13.9717282"><ele>106.66666666666666</ele><time>2026-04-25T11:24:56.305Z</time></trkpt><trkpt lat="45.4196054" lon="13.9715911"><ele>106.33333333333334</ele><time>2026-04-25T11:24:57.31Z</time></trkpt><trkpt lat="45.4197759" lon="13.9714505"><ele>106.0</ele><time>2026-04-25T11:24:58.305Z</time></trkpt><trkpt lat="45.4199518" lon="13.9713086"><ele>109.33333333333334</ele><time>2026-04-25T11:24:59.296Z</time></trkpt><trkpt lat="45.4201253" lon="13.9711668"><ele>112.66666666666666</ele><time>2026-04-25T11:25:00.315Z</time></trkpt><trkpt lat="45.4202973" lon="13.9710294"><ele>116.0</ele><time>2026-04-25T11:25:01.307Z</time></trkpt><trkpt lat="45.4204702" lon="13.9708942"><ele>118.33333333333333</ele><time>2026-04-25T11:25:02.31Z</time></trkpt><trkpt lat="45.4206376" lon="13.9707594"><ele>120.66666666666666</ele><time>2026-04-25T11:25:03.308Z</time></trkpt><trkpt lat="45.4208039" lon="13.9706177"><ele>123.0</ele><time>2026-04-25T11:25:04.31Z</time></trkpt><trkpt lat="45.4209708" lon="13.9704724"><ele>123.0</ele><time>2026-04-25T11:25:05.316Z</time></trkpt><trkpt lat="45.42114" lon="13.9703285"><ele>123.0</ele><time>2026-04-25T11:25:06.295Z</time></trkpt><trkpt lat="45.4213111" lon="13.9701892"><ele>123.0</ele><time>2026-04-25T11:25:07.303Z</time></trkpt><trkpt lat="45.4214819" lon="13.9700516"><ele>124.66666666666666</ele><time>2026-04-25T11:25:08.299Z</time></trkpt><trkpt lat="45.4216563" lon="13.9699162"><ele>126.33333333333333</ele><time>2026-04-25T11:25:09.319Z</time></trkpt><trkpt lat="45.421835" lon="13.9697817"><ele>128.0</ele><time>2026-04-25T11:25:10.304Z</time></trkpt><trkpt lat="45.4220064" lon="13.969649"><ele>131.33333333333331</ele><time>2026-04-25T11:25:11.313Z</time></trkpt><trkpt lat="45.4221866" lon="13.9695229"><ele>134.66666666666666</ele><time>2026-04-25T11:25:12.315Z</time></trkpt><trkpt lat="45.4223724" lon="13.9694073"><ele>138.0</ele><time>2026-04-25T11:25:13.314Z</time></trkpt><trkpt lat="45.4225531" lon="13.9693101"><ele>138.0</ele><time>2026-04-25T11:25:14.3Z</time></trkpt><trkpt lat="45.422722" lon="13.9692269"><ele>138.0</ele><time>2026-04-25T11:25:15.322Z</time></trkpt><trkpt lat="45.4228883" lon="13.9691491"><ele>138.0</ele><time>2026-04-25T11:25:16.308Z</time></trkpt><trkpt lat="45.4230618" lon="13.969083"><ele>140.66666666666666</ele><time>2026-04-25T11:25:17.312Z</time></trkpt><trkpt lat="45.4232391" lon="13.9690288"><ele>143.33333333333331</ele><time>2026-04-25T11:25:18.301Z</time></trkpt><trkpt lat="45.4234195" lon="13.968979"><ele>146.0</ele><time>2026-04-25T11:25:19.304Z</time></trkpt><trkpt lat="45.4235984" lon="13.9689218"><ele>146.0</ele><time>2026-04-25T11:25:20.3Z</time></trkpt><trkpt lat="45.4237789" lon="13.9688725"><ele>146.0</ele><time>2026-04-25T11:25:21.307Z</time></trkpt><trkpt lat="45.4239558" lon="13.9688194"><ele>146.0</ele><time>2026-04-25T11:25:22.3Z</time></trkpt><trkpt lat="45.424136" lon="13.9687668"><ele>148.66666666666666</ele><time>2026-04-25T11:25:23.325Z</time></trkpt><trkpt lat="45.424324" lon="13.9687157"><ele>151.33333333333334</ele><time>2026-04-25T11:25:24.298Z</time></trkpt><trkpt lat="45.4245189" lon="13.9686633"><ele>154.0</ele><time>2026-04-25T11:25:25.316Z</time></trkpt><trkpt lat="45.4247157" lon="13.9686094"><ele>156.0</ele><time>2026-04-25T11:25:26.303Z</time></trkpt><trkpt lat="45.4249058" lon="13.9685563"><ele>158.0</ele><time>2026-04-25T11:25:27.321Z</time></trkpt><trkpt lat="45.4250973" lon="13.9685014"><ele>160.0</ele><time>2026-04-25T11:25:28.316Z</time></trkpt><trkpt lat="45.4252922" lon="13.9684512"><ele>161.33333333333334</ele><time>2026-04-25T11:25:29.318Z</time></trkpt><trkpt lat="45.4254863" lon="13.9683975"><ele>162.66666666666666</ele><time>2026-04-25T11:25:30.31Z</time></trkpt><trkpt lat="45.4256848" lon="13.9683461"><ele>164.0</ele><time>2026-04-25T11:25:31.313Z</time></trkpt><trkpt lat="45.4258817" lon="13.9682846"><ele>164.33333333333331</ele><time>2026-04-25T11:25:32.314Z</time></trkpt><trkpt lat="45.4260834" lon="13.9682336"><ele>164.66666666666666</ele><time>2026-04-25T11:25:33.309Z</time></trkpt><trkpt lat="45.4262847" lon="13.9681826"><ele>165.0</ele><time>2026-04-25T11:25:34.299Z</time></trkpt><trkpt lat="45.4264908" lon="13.9681272"><ele>167.33333333333334</ele><time>2026-04-25T11:25:35.312Z</time></trkpt><trkpt lat="45.4266981" lon="13.9680644"><ele>169.66666666666669</ele><time>2026-04-25T11:25:36.309Z</time></trkpt><trkpt lat="45.4269055" lon="13.9679987"><ele>172.0</ele><time>2026-04-25T11:25:37.34Z</time></trkpt><trkpt lat="45.427115" lon="13.9679403"><ele>174.33333333333334</ele><time>2026-04-25T11:25:38.309Z</time></trkpt><trkpt lat="45.427323" lon="13.967887"><ele>176.66666666666666</ele><time>2026-04-25T11:25:39.311Z</time></trkpt><trkpt lat="45.4275352" lon="13.9678302"><ele>179.0</ele><time>2026-04-25T11:25:40.312Z</time></trkpt><trkpt lat="45.4277476" lon="13.9677656"><ele>179.0</ele><time>2026-04-25T11:25:41.304Z</time></trkpt><trkpt lat="45.427961" lon="13.9677013"><ele>179.0</ele><time>2026-04-25T11:25:42.32Z</time></trkpt><trkpt lat="45.4281774" lon="13.9676386"><ele>179.0</ele><time>2026-04-25T11:25:43.309Z</time></trkpt><trkpt lat="45.4283914" lon="13.9675779"><ele>182.33333333333331</ele><time>2026-04-25T11:25:44.329Z</time></trkpt><trkpt lat="45.4286066" lon="13.9675126"><ele>185.66666666666666</ele><time>2026-04-25T11:25:45.308Z</time></trkpt><trkpt lat="45.4288223" lon="13.9674543"><ele>189.0</ele><time>2026-04-25T11:25:46.305Z</time></trkpt><trkpt lat="45.429035" lon="13.9673985"><ele>192.33333333333331</ele><time>2026-04-25T11:25:47.309Z</time></trkpt><trkpt lat="45.4292441" lon="13.9673449"><ele>195.66666666666666</ele><time>2026-04-25T11:25:48.313Z</time></trkpt><trkpt lat="45.4294532" lon="13.9672839"><ele>199.0</ele><time>2026-04-25T11:25:49.316Z</time></trkpt><trkpt lat="45.4296606" lon="13.9672222"><ele>202.66666666666666</ele><time>2026-04-25T11:25:50.317Z</time></trkpt><trkpt lat="45.429867" lon="13.9671597"><ele>206.33333333333331</ele><time>2026-04-25T11:25:51.312Z</time></trkpt><trkpt lat="45.4300568" lon="13.9671082"><ele>210.0</ele><time>2026-04-25T11:25:52.313Z</time></trkpt><trkpt lat="45.4302239" lon="13.967068"><ele>210.0</ele><time>2026-04-25T11:25:53.319Z</time></trkpt><trkpt lat="45.430377" lon="13.9670289"><ele>210.0</ele><time>2026-04-25T11:25:54.313Z</time></trkpt><trkpt lat="45.4305225" lon="13.9669792"><ele>210.0</ele><time>2026-04-25T11:25:55.323Z</time></trkpt><trkpt lat="45.4306748" lon="13.9669324"><ele>213.66666666666669</ele><time>2026-04-25T11:25:56.308Z</time></trkpt><trkpt lat="45.4308367" lon="13.9668906"><ele>217.33333333333334</ele><time>2026-04-25T11:25:57.317Z</time></trkpt><trkpt lat="45.4310001" lon="13.9668459"><ele>221.0</ele><time>2026-04-25T11:25:58.32Z</time></trkpt><trkpt lat="45.4311731" lon="13.9667917"><ele>223.66666666666669</ele><time>2026-04-25T11:25:59.316Z</time></trkpt><trkpt lat="45.4313482" lon="13.9667446"><ele>226.33333333333331</ele><time>2026-04-25T11:26:00.319Z</time></trkpt><trkpt lat="45.4315287" lon="13.9667007"><ele>229.0</ele><time>2026-04-25T11:26:01.32Z</time></trkpt><trkpt lat="45.4317103" lon="13.9666498"><ele>229.0</ele><time>2026-04-25T11:26:02.318Z</time></trkpt><trkpt lat="45.4318927" lon="13.9666014"><ele>229.0</ele><time>2026-04-25T11:26:03.312Z</time></trkpt><trkpt lat="45.4320754" lon="13.9665488"><ele>229.0</ele><time>2026-04-25T11:26:04.309Z</time></trkpt><trkpt lat="45.43226" lon="13.9664971"><ele>231.0</ele><time>2026-04-25T11:26:05.319Z</time></trkpt><trkpt lat="45.4324444" lon="13.966438"><ele>233.0</ele><time>2026-04-25T11:26:06.303Z</time></trkpt><trkpt lat="45.4326324" lon="13.9663905"><ele>235.0</ele><time>2026-04-25T11:26:07.321Z</time></trkpt><trkpt lat="45.4328196" lon="13.9663356"><ele>238.66666666666666</ele><time>2026-04-25T11:26:08.313Z</time></trkpt><trkpt lat="45.4330053" lon="13.9662832"><ele>242.33333333333331</ele><time>2026-04-25T11:26:09.321Z</time></trkpt><trkpt lat="45.4331925" lon="13.9662307"><ele>246.0</ele><time>2026-04-25T11:26:10.307Z</time></trkpt><trkpt lat="45.4333747" lon="13.9661784"><ele>246.0</ele><time>2026-04-25T11:26:11.318Z</time></trkpt><trkpt lat="45.4335534" lon="13.9661462"><ele>246.0</ele><time>2026-04-25T11:26:12.304Z</time></trkpt><trkpt lat="45.4337365" lon="13.966128"><ele>246.0</ele><time>2026-04-25T11:26:13.314Z</time></trkpt><trkpt lat="45.4339187" lon="13.966131"><ele>250.33333333333331</ele><time>2026-04-25T11:26:14.321Z</time></trkpt><trkpt lat="45.4341007" lon="13.9661436"><ele>254.66666666666666</ele><time>2026-04-25T11:26:15.318Z</time></trkpt><trkpt lat="45.4342786" lon="13.9661851"><ele>259.0</ele><time>2026-04-25T11:26:16.311Z</time></trkpt><trkpt lat="45.4344581" lon="13.9662441"><ele>259.0</ele><time>2026-04-25T11:26:17.308Z</time></trkpt><trkpt lat="45.4346312" lon="13.9663235"><ele>259.0</ele><time>2026-04-25T11:26:18.295Z</time></trkpt><trkpt lat="45.4347948" lon="13.9664207"><ele>259.0</ele><time>2026-04-25T11:26:19.299Z</time></trkpt><trkpt lat="45.4349527" lon="13.9665316"><ele>262.3333333333333</ele><time>2026-04-25T11:26:20.296Z</time></trkpt><trkpt lat="45.435097" lon="13.9666615"><ele>265.6666666666667</ele><time>2026-04-25T11:26:21.304Z</time></trkpt><trkpt lat="45.435229" lon="13.9667946"><ele>269.0</ele><time>2026-04-25T11:26:22.311Z</time></trkpt><trkpt lat="45.4353564" lon="13.9669342"><ele>274.33333333333337</ele><time>2026-04-25T11:26:23.294Z</time></trkpt><trkpt lat="45.4354728" lon="13.9670981"><ele>279.6666666666667</ele><time>2026-04-25T11:26:24.308Z</time></trkpt><trkpt lat="45.4355829" lon="13.9672701"><ele>285.0</ele><time>2026-04-25T11:26:25.306Z</time></trkpt><trkpt lat="45.4356808" lon="13.9674532"><ele>286.25</ele><time>2026-04-25T11:26:26.312Z</time></trkpt><trkpt lat="45.4357686" lon="13.9676316"><ele>287.5</ele><time>2026-04-25T11:26:27.293Z</time></trkpt><trkpt lat="45.4358425" lon="13.9678096"><ele>288.75</ele><time>2026-04-25T11:26:28.304Z</time></trkpt><trkpt lat="45.4359056" lon="13.9679943"><ele>290.0</ele><time>2026-04-25T11:26:29.293Z</time></trkpt><trkpt lat="45.4359602" lon="13.9681872"><ele>291.0</ele><time>2026-04-25T11:26:30.305Z</time></trkpt><trkpt lat="45.4360089" lon="13.968383"><ele>292.0</ele><time>2026-04-25T11:26:31.313Z</time></trkpt><trkpt lat="45.4360475" lon="13.9685757"><ele>293.0</ele><time>2026-04-25T11:26:32.304Z</time></trkpt><trkpt lat="45.4360875" lon="13.9687674"><ele>294.0</ele><time>2026-04-25T11:26:33.305Z</time></trkpt><trkpt lat="45.4361225" lon="13.9689614"><ele>294.0</ele><time>2026-04-25T11:26:34.298Z</time></trkpt><trkpt lat="45.4361403" lon="13.9691662"><ele>294.0</ele><time>2026-04-25T11:26:35.307Z</time></trkpt><trkpt lat="45.4361474" lon="13.9693764"><ele>294.0</ele><time>2026-04-25T11:26:36.307Z</time></trkpt><trkpt lat="45.4361411" lon="13.9695816"><ele>294.0</ele><time>2026-04-25T11:26:37.305Z</time></trkpt><trkpt lat="45.436123" lon="13.9697837"><ele>295.6666666666667</ele><time>2026-04-25T11:26:38.303Z</time></trkpt><trkpt lat="45.4360981" lon="13.9699892"><ele>297.33333333333337</ele><time>2026-04-25T11:26:39.306Z</time></trkpt><trkpt lat="45.436064" lon="13.9701985"><ele>299.0</ele><time>2026-04-25T11:26:40.303Z</time></trkpt><trkpt lat="45.4360195" lon="13.970414"><ele>302.0</ele><time>2026-04-25T11:26:41.294Z</time></trkpt><trkpt lat="45.4359629" lon="13.9706346"><ele>305.0</ele><time>2026-04-25T11:26:42.316Z</time></trkpt><trkpt lat="45.4359033" lon="13.9708526"><ele>308.0</ele><time>2026-04-25T11:26:43.306Z</time></trkpt><trkpt lat="45.4358428" lon="13.971067"><ele>313.0</ele><time>2026-04-25T11:26:44.302Z</time></trkpt><trkpt lat="45.4357787" lon="13.9712852"><ele>318.0</ele><time>2026-04-25T11:26:45.291Z</time></trkpt><trkpt lat="45.4357107" lon="13.9715025"><ele>323.0</ele><time>2026-04-25T11:26:46.299Z</time></trkpt><trkpt lat="45.4356384" lon="13.9717155"><ele>322.0</ele><time>2026-04-25T11:26:47.297Z</time></trkpt><trkpt lat="45.4355526" lon="13.9719181"><ele>321.0</ele><time>2026-04-25T11:26:48.292Z</time></trkpt><trkpt lat="45.4354528" lon="13.972109"><ele>320.0</ele><time>2026-04-25T11:26:49.294Z</time></trkpt><trkpt lat="45.4353371" lon="13.9722874"><ele>320.0</ele><time>2026-04-25T11:26:50.293Z</time></trkpt><trkpt lat="45.4352159" lon="13.9724644"><ele>320.0</ele><time>2026-04-25T11:26:51.294Z</time></trkpt><trkpt lat="45.435098" lon="13.9726333"><ele>320.0</ele><time>2026-04-25T11:26:52.299Z</time></trkpt><trkpt lat="45.434988" lon="13.972797"><ele>322.0</ele><time>2026-04-25T11:26:53.284Z</time></trkpt><trkpt lat="45.4348829" lon="13.9729557"><ele>324.0</ele><time>2026-04-25T11:26:54.283Z</time></trkpt><trkpt lat="45.4347754" lon="13.9730897"><ele>326.0</ele><time>2026-04-25T11:26:55.287Z</time></trkpt><trkpt lat="45.4346631" lon="13.973204"><ele>328.0</ele><time>2026-04-25T11:26:56.289Z</time></trkpt><trkpt lat="45.4345371" lon="13.9732716"><ele>328.0</ele><time>2026-04-25T11:26:57.29Z</time></trkpt><trkpt lat="45.4344112" lon="13.9733258"><ele>328.0</ele><time>2026-04-25T11:26:58.284Z</time></trkpt><trkpt lat="45.4342764" lon="13.9733737"><ele>328.0</ele><time>2026-04-25T11:26:59.295Z</time></trkpt><trkpt lat="45.4341327" lon="13.9734128"><ele>328.0</ele><time>2026-04-25T11:27:00.296Z</time></trkpt><trkpt lat="45.433993" lon="13.9734694"><ele>329.3333333333333</ele><time>2026-04-25T11:27:01.294Z</time></trkpt><trkpt lat="45.433858" lon="13.9735666"><ele>330.6666666666667</ele><time>2026-04-25T11:27:02.288Z</time></trkpt><trkpt lat="45.4337316" lon="13.9736973"><ele>332.0</ele><time>2026-04-25T11:27:03.293Z</time></trkpt><trkpt lat="45.4336192" lon="13.9738762"><ele>332.0</ele><time>2026-04-25T11:27:04.296Z</time></trkpt><trkpt lat="45.433514" lon="13.9740687"><ele>332.0</ele><time>2026-04-25T11:27:05.286Z</time></trkpt><trkpt lat="45.4334065" lon="13.9742629"><ele>332.0</ele><time>2026-04-25T11:27:06.284Z</time></trkpt><trkpt lat="45.4333006" lon="13.9744516"><ele>330.6666666666667</ele><time>2026-04-25T11:27:07.291Z</time></trkpt><trkpt lat="45.4331866" lon="13.9746318"><ele>329.3333333333333</ele><time>2026-04-25T11:27:08.297Z</time></trkpt><trkpt lat="45.4330623" lon="13.9747894"><ele>328.0</ele><time>2026-04-25T11:27:09.281Z</time></trkpt><trkpt lat="45.4329425" lon="13.9749317"><ele>334.66666666666663</ele><time>2026-04-25T11:27:10.283Z</time></trkpt><trkpt lat="45.432815" lon="13.9750546"><ele>341.3333333333333</ele><time>2026-04-25T11:27:11.295Z</time></trkpt><trkpt lat="45.432701" lon="13.9752037"><ele>348.0</ele><time>2026-04-25T11:27:12.291Z</time></trkpt><trkpt lat="45.4325937" lon="13.9753746"><ele>348.0</ele><time>2026-04-25T11:27:13.284Z</time></trkpt><trkpt lat="45.4324852" lon="13.9755521"><ele>348.0</ele><time>2026-04-25T11:27:14.295Z</time></trkpt><trkpt lat="45.4323763" lon="13.975734"><ele>348.0</ele><time>2026-04-25T11:27:15.287Z</time></trkpt><trkpt lat="45.432267" lon="13.9759168"><ele>345.6666666666667</ele><time>2026-04-25T11:27:16.285Z</time></trkpt><trkpt lat="45.4321517" lon="13.9760867"><ele>343.33333333333337</ele><time>2026-04-25T11:27:17.291Z</time></trkpt><trkpt lat="45.4320359" lon="13.9762655"><ele>341.0</ele><time>2026-04-25T11:27:18.297Z</time></trkpt><trkpt lat="45.4319278" lon="13.9764581"><ele>341.0</ele><time>2026-04-25T11:27:19.283Z</time></trkpt><trkpt lat="45.4318287" lon="13.9766635"><ele>341.0</ele><time>2026-04-25T11:27:20.292Z</time></trkpt><trkpt lat="45.4317271" lon="13.9768532"><ele>341.0</ele><time>2026-04-25T11:27:21.292Z</time></trkpt><trkpt lat="45.4316192" lon="13.9770462"><ele>348.0</ele><time>2026-04-25T11:27:22.284Z</time></trkpt><trkpt lat="45.4315058" lon="13.9772291"><ele>355.0</ele><time>2026-04-25T11:27:23.294Z</time></trkpt><trkpt lat="45.4313835" lon="13.9774041"><ele>362.0</ele><time>2026-04-25T11:27:24.289Z</time></trkpt><trkpt lat="45.4312546" lon="13.9775677"><ele>362.0</ele><time>2026-04-25T11:27:25.297Z</time></trkpt><trkpt lat="45.4311293" lon="13.9777217"><ele>362.0</ele><time>2026-04-25T11:27:26.287Z</time></trkpt><trkpt lat="45.4309996" lon="13.9778645"><ele>362.0</ele><time>2026-04-25T11:27:27.284Z</time></trkpt><trkpt lat="45.4308678" lon="13.977977"><ele>362.0</ele><time>2026-04-25T11:27:28.282Z</time></trkpt><trkpt lat="45.4307406" lon="13.9780788"><ele>362.0</ele><time>2026-04-25T11:27:29.292Z</time></trkpt><trkpt lat="45.4306154" lon="13.978175"><ele>362.0</ele><time>2026-04-25T11:27:30.291Z</time></trkpt><trkpt lat="45.4305074" lon="13.9782872"><ele>362.0</ele><time>2026-04-25T11:27:31.287Z</time></trkpt><trkpt lat="45.4304159" lon="13.978401"><ele>358.75</ele><time>2026-04-25T11:27:32.295Z</time></trkpt><trkpt lat="45.430359" lon="13.9785536"><ele>355.5</ele><time>2026-04-25T11:27:33.284Z</time></trkpt><trkpt lat="45.4303296" lon="13.9787325"><ele>352.25</ele><time>2026-04-25T11:27:34.287Z</time></trkpt><trkpt lat="45.4302993" lon="13.9789193"><ele>349.0</ele><time>2026-04-25T11:27:35.284Z</time></trkpt><trkpt lat="45.4302595" lon="13.9790914"><ele>355.25</ele><time>2026-04-25T11:27:36.285Z</time></trkpt><trkpt lat="45.4302058" lon="13.979244"><ele>361.5</ele><time>2026-04-25T11:27:37.291Z</time></trkpt><trkpt lat="45.4301292" lon="13.9793643"><ele>367.75</ele><time>2026-04-25T11:27:38.292Z</time></trkpt><trkpt lat="45.4300371" lon="13.9794652"><ele>374.0</ele><time>2026-04-25T11:27:39.3Z</time></trkpt><trkpt lat="45.4299326" lon="13.9795615"><ele>374.0</ele><time>2026-04-25T11:27:40.299Z</time></trkpt><trkpt lat="45.4298274" lon="13.9796651"><ele>374.0</ele><time>2026-04-25T11:27:41.293Z</time></trkpt><trkpt lat="45.4297127" lon="13.9797917"><ele>374.0</ele><time>2026-04-25T11:27:42.288Z</time></trkpt><trkpt lat="45.4296002" lon="13.9799297"><ele>374.0</ele><time>2026-04-25T11:27:43.292Z</time></trkpt><trkpt lat="45.4294797" lon="13.9800691"><ele>373.25</ele><time>2026-04-25T11:27:44.298Z</time></trkpt><trkpt lat="45.4293627" lon="13.9802035"><ele>372.5</ele><time>2026-04-25T11:27:45.292Z</time></trkpt><trkpt lat="45.4292637" lon="13.9803254"><ele>371.75</ele><time>2026-04-25T11:27:46.286Z</time></trkpt><trkpt lat="45.4291814" lon="13.9804335"><ele>371.0</ele><time>2026-04-25T11:27:47.292Z</time></trkpt><trkpt lat="45.4291036" lon="13.9805392"><ele>371.0</ele><time>2026-04-25T11:27:48.289Z</time></trkpt><trkpt lat="45.4290321" lon="13.9806468"><ele>371.0</ele><time>2026-04-25T11:27:49.283Z</time></trkpt><trkpt lat="45.4289585" lon="13.980764"><ele>371.0</ele><time>2026-04-25T11:27:50.279Z</time></trkpt><trkpt lat="45.4288857" lon="13.9808868"><ele>371.0</ele><time>2026-04-25T11:27:51.288Z</time></trkpt><trkpt lat="45.4288264" lon="13.9809997"><ele>371.0</ele><time>2026-04-25T11:27:52.282Z</time></trkpt><trkpt lat="45.428775" lon="13.9811012"><ele>369.6666666666667</ele><time>2026-04-25T11:27:53.283Z</time></trkpt><trkpt lat="45.4287276" lon="13.9811841"><ele>368.33333333333337</ele><time>2026-04-25T11:27:54.285Z</time></trkpt><trkpt lat="45.4286927" lon="13.9812613"><ele>367.0</ele><time>2026-04-25T11:27:55.291Z</time></trkpt><trkpt lat="45.4286895" lon="13.9814084"><ele>365.6666666666667</ele><time>2026-04-25T11:27:57.286Z</time></trkpt><trkpt lat="45.428791" lon="13.9814262"><ele>364.3333333333333</ele><time>2026-04-25T11:27:59.288Z</time></trkpt><trkpt lat="45.4288524" lon="13.9813739"><ele>363.0</ele><time>2026-04-25T11:28:00.294Z</time></trkpt><trkpt lat="45.4289186" lon="13.981296"><ele>365.0</ele><time>2026-04-25T11:28:01.29Z</time></trkpt><trkpt lat="45.428983" lon="13.9811844"><ele>367.0</ele><time>2026-04-25T11:28:02.295Z</time></trkpt><trkpt lat="45.4290482" lon="13.9810563"><ele>369.0</ele><time>2026-04-25T11:28:03.299Z</time></trkpt><trkpt lat="45.4291225" lon="13.9809194"><ele>371.0</ele><time>2026-04-25T11:28:04.293Z</time></trkpt><trkpt lat="45.4292067" lon="13.9807804"><ele>371.0</ele><time>2026-04-25T11:28:05.29Z</time></trkpt><trkpt lat="45.4293146" lon="13.980643"><ele>371.0</ele><time>2026-04-25T11:28:06.293Z</time></trkpt><trkpt lat="45.4294451" lon="13.9805355"><ele>371.0</ele><time>2026-04-25T11:28:07.296Z</time></trkpt><trkpt lat="45.4295909" lon="13.9804539"><ele>380.33333333333337</ele><time>2026-04-25T11:28:08.291Z</time></trkpt><trkpt lat="45.4297352" lon="13.980385"><ele>389.6666666666667</ele><time>2026-04-25T11:28:09.289Z</time></trkpt><trkpt lat="45.4298752" lon="13.9802962"><ele>399.0</ele><time>2026-04-25T11:28:10.295Z</time></trkpt><trkpt lat="45.4300026" lon="13.9801907"><ele>399.0</ele><time>2026-04-25T11:28:11.294Z</time></trkpt><trkpt lat="45.4301348" lon="13.9800672"><ele>399.0</ele><time>2026-04-25T11:28:12.294Z</time></trkpt><trkpt lat="45.430266" lon="13.9799491"><ele>399.0</ele><time>2026-04-25T11:28:13.288Z</time></trkpt><trkpt lat="45.4304144" lon="13.9798395"><ele>399.33333333333337</ele><time>2026-04-25T11:28:14.297Z</time></trkpt><trkpt lat="45.4305703" lon="13.9797213"><ele>399.6666666666667</ele><time>2026-04-25T11:28:15.3Z</time></trkpt><trkpt lat="45.4307168" lon="13.979584"><ele>400.0</ele><time>2026-04-25T11:28:16.29Z</time></trkpt><trkpt lat="45.4308494" lon="13.9794254"><ele>400.0</ele><time>2026-04-25T11:28:17.297Z</time></trkpt><trkpt lat="45.4309574" lon="13.9792649"><ele>400.0</ele><time>2026-04-25T11:28:18.285Z</time></trkpt><trkpt lat="45.431029" lon="13.9790927"><ele>400.0</ele><time>2026-04-25T11:28:19.286Z</time></trkpt><trkpt lat="45.4310976" lon="13.9789211"><ele>400.0</ele><time>2026-04-25T11:28:20.286Z</time></trkpt><trkpt lat="45.4311488" lon="13.9787588"><ele>403.75</ele><time>2026-04-25T11:28:21.278Z</time></trkpt><trkpt lat="45.4312107" lon="13.9786286"><ele>407.5</ele><time>2026-04-25T11:28:22.29Z</time></trkpt><trkpt lat="45.4312991" lon="13.9785168"><ele>411.25</ele><time>2026-04-25T11:28:23.292Z</time></trkpt><trkpt lat="45.4314156" lon="13.9784533"><ele>415.0</ele><time>2026-04-25T11:28:24.283Z</time></trkpt><trkpt lat="45.4315455" lon="13.9783893"><ele>408.0</ele><time>2026-04-25T11:28:25.276Z</time></trkpt><trkpt lat="45.4316735" lon="13.9782905"><ele>401.0</ele><time>2026-04-25T11:28:26.274Z</time></trkpt><trkpt lat="45.4318087" lon="13.9781653"><ele>394.0</ele><time>2026-04-25T11:28:27.284Z</time></trkpt><trkpt lat="45.431939" lon="13.9780307"><ele>394.0</ele><time>2026-04-25T11:28:28.295Z</time></trkpt><trkpt lat="45.4320769" lon="13.9778879"><ele>394.0</ele><time>2026-04-25T11:28:29.285Z</time></trkpt><trkpt lat="45.4322242" lon="13.9777397"><ele>394.0</ele><time>2026-04-25T11:28:30.286Z</time></trkpt><trkpt lat="45.4323782" lon="13.9776031"><ele>395.33333333333337</ele><time>2026-04-25T11:28:31.28Z</time></trkpt><trkpt lat="45.4325331" lon="13.9774605"><ele>396.66666666666663</ele><time>2026-04-25T11:28:32.286Z</time></trkpt><trkpt lat="45.4326912" lon="13.9773212"><ele>398.0</ele><time>2026-04-25T11:28:33.287Z</time></trkpt><trkpt lat="45.4328513" lon="13.977179"><ele>408.0</ele><time>2026-04-25T11:28:34.282Z</time></trkpt><trkpt lat="45.4330085" lon="13.9770588"><ele>418.0</ele><time>2026-04-25T11:28:35.298Z</time></trkpt><trkpt lat="45.4331538" lon="13.9769556"><ele>428.0</ele><time>2026-04-25T11:28:36.292Z</time></trkpt><trkpt lat="45.4332844" lon="13.9768534"><ele>428.0</ele><time>2026-04-25T11:28:37.289Z</time></trkpt><trkpt lat="45.4334084" lon="13.9767371"><ele>428.0</ele><time>2026-04-25T11:28:38.279Z</time></trkpt><trkpt lat="45.4335348" lon="13.9765987"><ele>428.0</ele><time>2026-04-25T11:28:39.286Z</time></trkpt><trkpt lat="45.4336707" lon="13.9764578"><ele>431.66666666666663</ele><time>2026-04-25T11:28:40.287Z</time></trkpt><trkpt lat="45.4338144" lon="13.976323"><ele>435.33333333333337</ele><time>2026-04-25T11:28:41.284Z</time></trkpt><trkpt lat="45.4339698" lon="13.9761881"><ele>439.0</ele><time>2026-04-25T11:28:42.282Z</time></trkpt><trkpt lat="45.4341281" lon="13.9760649"><ele>439.0</ele><time>2026-04-25T11:28:43.284Z</time></trkpt><trkpt lat="45.4342694" lon="13.9759574"><ele>439.0</ele><time>2026-04-25T11:28:44.289Z</time></trkpt><trkpt lat="45.4344049" lon="13.9758597"><ele>439.0</ele><time>2026-04-25T11:28:45.28Z</time></trkpt><trkpt lat="45.434523" lon="13.9757595"><ele>439.0</ele><time>2026-04-25T11:28:46.281Z</time></trkpt><trkpt lat="45.4346407" lon="13.975655"><ele>439.2</ele><time>2026-04-25T11:28:47.285Z</time></trkpt><trkpt lat="45.4347494" lon="13.9755588"><ele>439.4</ele><time>2026-04-25T11:28:48.291Z</time></trkpt><trkpt lat="45.4348374" lon="13.9754668"><ele>439.6</ele><time>2026-04-25T11:28:49.295Z</time></trkpt><trkpt lat="45.4349192" lon="13.9753902"><ele>439.8</ele><time>2026-04-25T11:28:50.293Z</time></trkpt><trkpt lat="45.4349939" lon="13.9753275"><ele>440.0</ele><time>2026-04-25T11:28:51.29Z</time></trkpt><trkpt lat="45.435061" lon="13.9752671"><ele>440.0</ele><time>2026-04-25T11:28:52.292Z</time></trkpt><trkpt lat="45.4351219" lon="13.9752233"><ele>440.0</ele><time>2026-04-25T11:28:53.282Z</time></trkpt><trkpt lat="45.4352305" lon="13.9751669"><ele>440.0</ele><time>2026-04-25T11:28:55.289Z</time></trkpt><trkpt lat="45.4353239" lon="13.9751995"><ele>440.0</ele><time>2026-04-25T11:28:57.288Z</time></trkpt><trkpt lat="45.4354586" lon="13.9752046"><ele>440.0</ele><time>2026-04-25T11:28:59.29Z</time></trkpt><trkpt lat="45.4355431" lon="13.9751403"><ele>439.25</ele><time>2026-04-25T11:29:00.278Z</time></trkpt><trkpt lat="45.4356364" lon="13.975054"><ele>438.5</ele><time>2026-04-25T11:29:01.284Z</time></trkpt><trkpt lat="45.4357433" lon="13.9749542"><ele>437.75</ele><time>2026-04-25T11:29:02.28Z</time></trkpt><trkpt lat="45.4358588" lon="13.9748471"><ele>437.0</ele><time>2026-04-25T11:29:03.286Z</time></trkpt><trkpt lat="45.4359849" lon="13.974739"><ele>437.0</ele><time>2026-04-25T11:29:04.277Z</time></trkpt><trkpt lat="45.4361177" lon="13.9746171"><ele>437.0</ele><time>2026-04-25T11:29:05.289Z</time></trkpt><trkpt lat="45.4362468" lon="13.9744869"><ele>437.0</ele><time>2026-04-25T11:29:06.284Z</time></trkpt><trkpt lat="45.4363859" lon="13.974364"><ele>437.0</ele><time>2026-04-25T11:29:07.288Z</time></trkpt><trkpt lat="45.4365293" lon="13.9742329"><ele>437.0</ele><time>2026-04-25T11:29:08.287Z</time></trkpt><trkpt lat="45.4366731" lon="13.9740962"><ele>437.0</ele><time>2026-04-25T11:29:09.289Z</time></trkpt><trkpt lat="45.4368218" lon="13.9739724"><ele>437.0</ele><time>2026-04-25T11:29:10.281Z</time></trkpt><trkpt lat="45.4369716" lon="13.9738384"><ele>437.0</ele><time>2026-04-25T11:29:11.287Z</time></trkpt><trkpt lat="45.4371212" lon="13.9737077"><ele>437.0</ele><time>2026-04-25T11:29:12.276Z</time></trkpt><trkpt lat="45.4372665" lon="13.9735917"><ele>435.0</ele><time>2026-04-25T11:29:13.284Z</time></trkpt><trkpt lat="45.4374138" lon="13.9734985"><ele>433.0</ele><time>2026-04-25T11:29:14.286Z</time></trkpt><trkpt lat="45.4375673" lon="13.9734165"><ele>431.0</ele><time>2026-04-25T11:29:15.286Z</time></trkpt><trkpt lat="45.4377243" lon="13.9733469"><ele>431.0</ele><time>2026-04-25T11:29:16.281Z</time></trkpt><trkpt lat="45.4378817" lon="13.9732667"><ele>431.0</ele><time>2026-04-25T11:29:17.293Z</time></trkpt><trkpt lat="45.4380287" lon="13.9731517"><ele>431.0</ele><time>2026-04-25T11:29:18.28Z</time></trkpt><trkpt lat="45.4381598" lon="13.9730123"><ele>440.5</ele><time>2026-04-25T11:29:19.276Z</time></trkpt><trkpt lat="45.4382822" lon="13.9728909"><ele>450.0</ele><time>2026-04-25T11:29:20.278Z</time></trkpt><trkpt lat="45.4384086" lon="13.9727933"><ele>459.5</ele><time>2026-04-25T11:29:21.285Z</time></trkpt><trkpt lat="45.4385336" lon="13.9726979"><ele>469.0</ele><time>2026-04-25T11:29:22.284Z</time></trkpt><trkpt lat="45.4386779" lon="13.9726191"><ele>463.0</ele><time>2026-04-25T11:29:23.281Z</time></trkpt><trkpt lat="45.4388298" lon="13.9725442"><ele>457.0</ele><time>2026-04-25T11:29:24.277Z</time></trkpt><trkpt lat="45.4389817" lon="13.9724637"><ele>451.0</ele><time>2026-04-25T11:29:25.283Z</time></trkpt><trkpt lat="45.4391378" lon="13.9723842"><ele>451.0</ele><time>2026-04-25T11:29:26.283Z</time></trkpt><trkpt lat="45.4392956" lon="13.9723298"><ele>451.0</ele><time>2026-04-25T11:29:27.277Z</time></trkpt><trkpt lat="45.4394551" lon="13.9722848"><ele>451.0</ele><time>2026-04-25T11:29:28.284Z</time></trkpt><trkpt lat="45.439617" lon="13.9722474"><ele>458.0</ele><time>2026-04-25T11:29:29.283Z</time></trkpt><trkpt lat="45.439766" lon="13.9722076"><ele>465.0</ele><time>2026-04-25T11:29:30.276Z</time></trkpt><trkpt lat="45.4398994" lon="13.9721498"><ele>472.0</ele><time>2026-04-25T11:29:31.28Z</time></trkpt><trkpt lat="45.4400213" lon="13.9720667"><ele>479.0</ele><time>2026-04-25T11:29:32.278Z</time></trkpt><trkpt lat="45.4401239" lon="13.9719447"><ele>479.0</ele><time>2026-04-25T11:29:33.286Z</time></trkpt><trkpt lat="45.4402134" lon="13.9717921"><ele>479.0</ele><time>2026-04-25T11:29:34.275Z</time></trkpt><trkpt lat="45.4402909" lon="13.9716082"><ele>479.0</ele><time>2026-04-25T11:29:35.277Z</time></trkpt><trkpt lat="45.4403688" lon="13.9714269"><ele>479.0</ele><time>2026-04-25T11:29:36.281Z</time></trkpt><trkpt lat="45.4404418" lon="13.971242"><ele>481.25</ele><time>2026-04-25T11:29:37.293Z</time></trkpt><trkpt lat="45.4405187" lon="13.9710717"><ele>483.5</ele><time>2026-04-25T11:29:38.291Z</time></trkpt><trkpt lat="45.4405955" lon="13.9709275"><ele>485.75</ele><time>2026-04-25T11:29:39.285Z</time></trkpt><trkpt lat="45.4407012" lon="13.9708089"><ele>488.0</ele><time>2026-04-25T11:29:40.294Z</time></trkpt><trkpt lat="45.4408275" lon="13.9707208"><ele>488.5</ele><time>2026-04-25T11:29:41.289Z</time></trkpt><trkpt lat="45.4409707" lon="13.9706513"><ele>489.0</ele><time>2026-04-25T11:29:42.285Z</time></trkpt><trkpt lat="45.4411091" lon="13.9705716"><ele>489.5</ele><time>2026-04-25T11:29:43.292Z</time></trkpt><trkpt lat="45.4412337" lon="13.970471"><ele>490.0</ele><time>2026-04-25T11:29:44.288Z</time></trkpt><trkpt lat="45.4413306" lon="13.9703092"><ele>490.0</ele><time>2026-04-25T11:29:45.302Z</time></trkpt><trkpt lat="45.4413953" lon="13.9701246"><ele>490.0</ele><time>2026-04-25T11:29:46.29Z</time></trkpt><trkpt lat="45.441444" lon="13.9699235"><ele>490.0</ele><time>2026-04-25T11:29:47.282Z</time></trkpt><trkpt lat="45.4414961" lon="13.9697153"><ele>490.0</ele><time>2026-04-25T11:29:48.285Z</time></trkpt><trkpt lat="45.4415476" lon="13.9695119"><ele>486.5</ele><time>2026-04-25T11:29:49.299Z</time></trkpt><trkpt lat="45.4416009" lon="13.969318"><ele>483.0</ele><time>2026-04-25T11:29:50.295Z</time></trkpt><trkpt lat="45.441651" lon="13.969132"><ele>479.5</ele><time>2026-04-25T11:29:51.292Z</time></trkpt><trkpt lat="45.4417202" lon="13.9689886"><ele>476.0</ele><time>2026-04-25T11:29:52.296Z</time></trkpt><trkpt lat="45.4417983" lon="13.9688856"><ele>478.0</ele><time>2026-04-25T11:29:53.297Z</time></trkpt><trkpt lat="45.4418908" lon="13.9688054"><ele>480.0</ele><time>2026-04-25T11:29:54.294Z</time></trkpt><trkpt lat="45.4419985" lon="13.9687556"><ele>482.0</ele><time>2026-04-25T11:29:55.295Z</time></trkpt><trkpt lat="45.4421121" lon="13.9687128"><ele>484.0</ele><time>2026-04-25T11:29:56.291Z</time></trkpt><trkpt lat="45.4422324" lon="13.9686595"><ele>484.0</ele><time>2026-04-25T11:29:57.301Z</time></trkpt><trkpt lat="45.4423528" lon="13.9686084"><ele>484.0</ele><time>2026-04-25T11:29:58.293Z</time></trkpt><trkpt lat="45.4424753" lon="13.9685422"><ele>484.0</ele><time>2026-04-25T11:29:59.314Z</time></trkpt><trkpt lat="45.4426" lon="13.9684634"><ele>484.0</ele><time>2026-04-25T11:30:00.298Z</time></trkpt><trkpt lat="45.4427227" lon="13.9683582"><ele>485.0</ele><time>2026-04-25T11:30:01.302Z</time></trkpt><trkpt lat="45.4428444" lon="13.9682375"><ele>486.0</ele><time>2026-04-25T11:30:02.297Z</time></trkpt><trkpt lat="45.4429688" lon="13.9681045"><ele>487.0</ele><time>2026-04-25T11:30:03.308Z</time></trkpt><trkpt lat="45.4430896" lon="13.967972"><ele>487.0</ele><time>2026-04-25T11:30:04.289Z</time></trkpt><trkpt lat="45.4431963" lon="13.9678314"><ele>487.0</ele><time>2026-04-25T11:30:05.315Z</time></trkpt><trkpt lat="45.4432876" lon="13.9676993"><ele>487.0</ele><time>2026-04-25T11:30:06.304Z</time></trkpt><trkpt lat="45.4433679" lon="13.9675739"><ele>487.0</ele><time>2026-04-25T11:30:07.314Z</time></trkpt><trkpt lat="45.4434058" lon="13.9674265"><ele>487.0</ele><time>2026-04-25T11:30:08.305Z</time></trkpt><trkpt lat="45.4434044" lon="13.9672544"><ele>487.00000000000006</ele><time>2026-04-25T11:30:09.301Z</time></trkpt><trkpt lat="45.4433985" lon="13.9670844"><ele>487.00000000000006</ele><time>2026-04-25T11:30:10.297Z</time></trkpt><trkpt lat="45.443405" lon="13.9669297"><ele>487.0</ele><time>2026-04-25T11:30:11.303Z</time></trkpt><trkpt lat="45.4434283" lon="13.9668057"><ele>487.0</ele><time>2026-04-25T11:30:12.309Z</time></trkpt><trkpt lat="45.4434897" lon="13.9667307"><ele>487.0</ele><time>2026-04-25T11:30:13.298Z</time></trkpt><trkpt lat="45.4435668" lon="13.9667197"><ele>487.00000000000006</ele><time>2026-04-25T11:30:14.302Z</time></trkpt><trkpt lat="45.4436885" lon="13.9667907"><ele>487.00000000000006</ele><time>2026-04-25T11:30:16.298Z</time></trkpt><trkpt lat="45.4437494" lon="13.9668738"><ele>487.0</ele><time>2026-04-25T11:30:17.292Z</time></trkpt><trkpt lat="45.4438087" lon="13.9669784"><ele>487.0</ele><time>2026-04-25T11:30:18.299Z</time></trkpt><trkpt lat="45.4438647" lon="13.9671141"><ele>488.0</ele><time>2026-04-25T11:30:19.297Z</time></trkpt><trkpt lat="45.4439217" lon="13.9672552"><ele>489.00000000000006</ele><time>2026-04-25T11:30:20.324Z</time></trkpt><trkpt lat="45.4439781" lon="13.9673846"><ele>490.00000000000006</ele><time>2026-04-25T11:30:21.313Z</time></trkpt><trkpt lat="45.4440411" lon="13.9674916"><ele>491.0</ele><time>2026-04-25T11:30:22.311Z</time></trkpt><trkpt lat="45.4441305" lon="13.9675855"><ele>492.0</ele><time>2026-04-25T11:30:23.325Z</time></trkpt><trkpt lat="45.4442341" lon="13.9676454"><ele>492.20000000000005</ele><time>2026-04-25T11:30:24.308Z</time></trkpt><trkpt lat="45.4443285" lon="13.9677088"><ele>492.40000000000003</ele><time>2026-04-25T11:30:25.321Z</time></trkpt><trkpt lat="45.4443951" lon="13.9678065"><ele>492.59999999999997</ele><time>2026-04-25T11:30:26.316Z</time></trkpt><trkpt lat="45.4444231" lon="13.9679427"><ele>492.79999999999995</ele><time>2026-04-25T11:30:27.297Z</time></trkpt><trkpt lat="45.4444343" lon="13.9681235"><ele>493.0</ele><time>2026-04-25T11:30:28.3Z</time></trkpt><trkpt lat="45.4444407" lon="13.9683116"><ele>493.5</ele><time>2026-04-25T11:30:29.297Z</time></trkpt><trkpt lat="45.4444402" lon="13.9685084"><ele>494.0</ele><time>2026-04-25T11:30:30.304Z</time></trkpt><trkpt lat="45.44444" lon="13.9686914"><ele>494.5</ele><time>2026-04-25T11:30:31.313Z</time></trkpt><trkpt lat="45.4444443" lon="13.9688542"><ele>495.0</ele><time>2026-04-25T11:30:32.305Z</time></trkpt><trkpt lat="45.4444516" lon="13.9690102"><ele>495.0</ele><time>2026-04-25T11:30:33.321Z</time></trkpt><trkpt lat="45.4444522" lon="13.9691704"><ele>495.0</ele><time>2026-04-25T11:30:34.304Z</time></trkpt><trkpt lat="45.4444401" lon="13.9693318"><ele>495.0</ele><time>2026-04-25T11:30:35.324Z</time></trkpt><trkpt lat="45.4444093" lon="13.9695132"><ele>495.0</ele><time>2026-04-25T11:30:36.313Z</time></trkpt><trkpt lat="45.4443681" lon="13.9696814"><ele>494.5</ele><time>2026-04-25T11:30:37.308Z</time></trkpt><trkpt lat="45.4443297" lon="13.9698364"><ele>494.0</ele><time>2026-04-25T11:30:38.31Z</time></trkpt><trkpt lat="45.4443145" lon="13.9699985"><ele>493.5</ele><time>2026-04-25T11:30:39.316Z</time></trkpt><trkpt lat="45.4443217" lon="13.9701611"><ele>493.0</ele><time>2026-04-25T11:30:40.322Z</time></trkpt><trkpt lat="45.4443692" lon="13.9703187"><ele>493.0</ele><time>2026-04-25T11:30:41.3Z</time></trkpt><trkpt lat="45.4444367" lon="13.9704763"><ele>493.0</ele><time>2026-04-25T11:30:42.305Z</time></trkpt><trkpt lat="45.4445225" lon="13.9706508"><ele>493.0</ele><time>2026-04-25T11:30:43.309Z</time></trkpt><trkpt lat="45.4446122" lon="13.9708284"><ele>493.0</ele><time>2026-04-25T11:30:44.321Z</time></trkpt><trkpt lat="45.4447044" lon="13.9709995"><ele>493.5</ele><time>2026-04-25T11:30:45.316Z</time></trkpt><trkpt lat="45.4447836" lon="13.9711471"><ele>494.0</ele><time>2026-04-25T11:30:46.308Z</time></trkpt><trkpt lat="45.4448708" lon="13.9712786"><ele>494.5</ele><time>2026-04-25T11:30:47.322Z</time></trkpt><trkpt lat="45.4449635" lon="13.9713955"><ele>495.0</ele><time>2026-04-25T11:30:48.337Z</time></trkpt><trkpt lat="45.4450778" lon="13.9714981"><ele>495.0</ele><time>2026-04-25T11:30:49.311Z</time></trkpt><trkpt lat="45.4452141" lon="13.9715911"><ele>495.0</ele><time>2026-04-25T11:30:50.313Z</time></trkpt><trkpt lat="45.4453531" lon="13.9716737"><ele>495.0</ele><time>2026-04-25T11:30:51.318Z</time></trkpt><trkpt lat="45.445502" lon="13.9717493"><ele>497.5</ele><time>2026-04-25T11:30:52.315Z</time></trkpt><trkpt lat="45.4456494" lon="13.9718106"><ele>500.0</ele><time>2026-04-25T11:30:53.316Z</time></trkpt><trkpt lat="45.4457791" lon="13.9718496"><ele>502.5</ele><time>2026-04-25T11:30:54.32Z</time></trkpt><trkpt lat="45.4459024" lon="13.9718677"><ele>505.0</ele><time>2026-04-25T11:30:55.309Z</time></trkpt><trkpt lat="45.4460078" lon="13.9718295"><ele>505.0</ele><time>2026-04-25T11:30:56.292Z</time></trkpt><trkpt lat="45.4460989" lon="13.9717604"><ele>505.0</ele><time>2026-04-25T11:30:57.301Z</time></trkpt><trkpt lat="45.4461994" lon="13.9717028"><ele>505.0</ele><time>2026-04-25T11:30:58.308Z</time></trkpt><trkpt lat="45.4463042" lon="13.9716811"><ele>505.0</ele><time>2026-04-25T11:30:59.312Z</time></trkpt><trkpt lat="45.4464141" lon="13.9717036"><ele>505.0</ele><time>2026-04-25T11:31:00.304Z</time></trkpt><trkpt lat="45.4465109" lon="13.9717675"><ele>505.75</ele><time>2026-04-25T11:31:01.295Z</time></trkpt><trkpt lat="45.4466143" lon="13.9718506"><ele>506.5</ele><time>2026-04-25T11:31:02.308Z</time></trkpt><trkpt lat="45.4467114" lon="13.9719506"><ele>507.25</ele><time>2026-04-25T11:31:03.304Z</time></trkpt><trkpt lat="45.446814" lon="13.9720422"><ele>508.0</ele><time>2026-04-25T11:31:04.302Z</time></trkpt><trkpt lat="45.446936" lon="13.9720982"><ele>508.0</ele><time>2026-04-25T11:31:05.314Z</time></trkpt><trkpt lat="45.4470627" lon="13.972132"><ele>508.0</ele><time>2026-04-25T11:31:06.313Z</time></trkpt><trkpt lat="45.4471919" lon="13.9721427"><ele>508.0</ele><time>2026-04-25T11:31:07.314Z</time></trkpt><trkpt lat="45.4473207" lon="13.9721163"><ele>508.0</ele><time>2026-04-25T11:31:08.317Z</time></trkpt><trkpt lat="45.4474428" lon="13.9720604"><ele>506.33333333333337</ele><time>2026-04-25T11:31:09.299Z</time></trkpt><trkpt lat="45.4475759" lon="13.9719837"><ele>504.66666666666663</ele><time>2026-04-25T11:31:10.316Z</time></trkpt><trkpt lat="45.4477171" lon="13.9718914"><ele>503.0</ele><time>2026-04-25T11:31:11.323Z</time></trkpt><trkpt lat="45.4478673" lon="13.9717962"><ele>502.3333333333333</ele><time>2026-04-25T11:31:12.313Z</time></trkpt><trkpt lat="45.448014" lon="13.9716931"><ele>501.66666666666663</ele><time>2026-04-25T11:31:13.314Z</time></trkpt><trkpt lat="45.4481513" lon="13.9715938"><ele>501.0</ele><time>2026-04-25T11:31:14.314Z</time></trkpt><trkpt lat="45.4482956" lon="13.9715035"><ele>501.0</ele><time>2026-04-25T11:31:15.31Z</time></trkpt><trkpt lat="45.4484498" lon="13.9714237"><ele>501.0</ele><time>2026-04-25T11:31:16.329Z</time></trkpt><trkpt lat="45.4486047" lon="13.9713534"><ele>501.0</ele><time>2026-04-25T11:31:17.316Z</time></trkpt><trkpt lat="45.4487534" lon="13.9712932"><ele>500.0</ele><time>2026-04-25T11:31:18.317Z</time></trkpt><trkpt lat="45.4488994" lon="13.9712409"><ele>499.0</ele><time>2026-04-25T11:31:19.316Z</time></trkpt><trkpt lat="45.4490352" lon="13.9712026"><ele>498.0</ele><time>2026-04-25T11:31:20.312Z</time></trkpt><trkpt lat="45.4491609" lon="13.9711761"><ele>497.0</ele><time>2026-04-25T11:31:21.31Z</time></trkpt><trkpt lat="45.4492851" lon="13.9711724"><ele>497.0</ele><time>2026-04-25T11:31:22.312Z</time></trkpt><trkpt lat="45.4494125" lon="13.9712015"><ele>497.0</ele><time>2026-04-25T11:31:23.314Z</time></trkpt><trkpt lat="45.4495354" lon="13.9712668"><ele>497.0</ele><time>2026-04-25T11:31:24.311Z</time></trkpt><trkpt lat="45.4496461" lon="13.9713644"><ele>497.0</ele><time>2026-04-25T11:31:25.312Z</time></trkpt><trkpt lat="45.4497395" lon="13.9714704"><ele>497.20000000000005</ele><time>2026-04-25T11:31:26.289Z</time></trkpt><trkpt lat="45.4498159" lon="13.9715889"><ele>497.40000000000003</ele><time>2026-04-25T11:31:27.321Z</time></trkpt><trkpt lat="45.4499" lon="13.9716655"><ele>497.59999999999997</ele><time>2026-04-25T11:31:28.307Z</time></trkpt><trkpt lat="45.449994" lon="13.9717064"><ele>497.79999999999995</ele><time>2026-04-25T11:31:29.307Z</time></trkpt><trkpt lat="45.4501034" lon="13.9717229"><ele>498.0</ele><time>2026-04-25T11:31:30.304Z</time></trkpt><trkpt lat="45.4502102" lon="13.9717102"><ele>498.0</ele><time>2026-04-25T11:31:31.299Z</time></trkpt><trkpt lat="45.4503248" lon="13.9716828"><ele>498.0</ele><time>2026-04-25T11:31:32.303Z</time></trkpt><trkpt lat="45.4504489" lon="13.9716366"><ele>498.0</ele><time>2026-04-25T11:31:33.302Z</time></trkpt><trkpt lat="45.4505687" lon="13.9715749"><ele>498.0</ele><time>2026-04-25T11:31:34.323Z</time></trkpt><trkpt lat="45.4506816" lon="13.971524"><ele>497.25</ele><time>2026-04-25T11:31:35.309Z</time></trkpt><trkpt lat="45.4507852" lon="13.9714752"><ele>496.5</ele><time>2026-04-25T11:31:36.307Z</time></trkpt><trkpt lat="45.4508961" lon="13.9714277"><ele>495.75</ele><time>2026-04-25T11:31:37.315Z</time></trkpt><trkpt lat="45.4510118" lon="13.9714019"><ele>495.0</ele><time>2026-04-25T11:31:38.308Z</time></trkpt><trkpt lat="45.451127" lon="13.9714092"><ele>495.0</ele><time>2026-04-25T11:31:39.32Z</time></trkpt><trkpt lat="45.4512318" lon="13.9714508"><ele>495.0</ele><time>2026-04-25T11:31:40.3Z</time></trkpt><trkpt lat="45.4513186" lon="13.9715373"><ele>495.0</ele><time>2026-04-25T11:31:41.304Z</time></trkpt><trkpt lat="45.4513801" lon="13.9716419"><ele>495.0</ele><time>2026-04-25T11:31:42.309Z</time></trkpt><trkpt lat="45.4514299" lon="13.9717835"><ele>495.0</ele><time>2026-04-25T11:31:43.305Z</time></trkpt><trkpt lat="45.4514554" lon="13.9719454"><ele>495.25</ele><time>2026-04-25T11:31:44.3Z</time></trkpt><trkpt lat="45.4514599" lon="13.9721271"><ele>495.5</ele><time>2026-04-25T11:31:45.307Z</time></trkpt><trkpt lat="45.4514648" lon="13.9723152"><ele>495.75</ele><time>2026-04-25T11:31:46.318Z</time></trkpt><trkpt lat="45.4514711" lon="13.9725193"><ele>496.0</ele><time>2026-04-25T11:31:47.312Z</time></trkpt><trkpt lat="45.451484" lon="13.9727382"><ele>496.0</ele><time>2026-04-25T11:31:48.307Z</time></trkpt><trkpt lat="45.4514988" lon="13.9729678"><ele>496.0</ele><time>2026-04-25T11:31:49.315Z</time></trkpt><trkpt lat="45.4515121" lon="13.9731891"><ele>496.0</ele><time>2026-04-25T11:31:50.316Z</time></trkpt><trkpt lat="45.4515282" lon="13.9734061"><ele>496.33333333333337</ele><time>2026-04-25T11:31:51.31Z</time></trkpt><trkpt lat="45.4515478" lon="13.9736249"><ele>496.66666666666663</ele><time>2026-04-25T11:31:52.326Z</time></trkpt><trkpt lat="45.4515672" lon="13.9738512"><ele>497.0</ele><time>2026-04-25T11:31:53.327Z</time></trkpt><trkpt lat="45.451569" lon="13.9740797"><ele>497.66666666666663</ele><time>2026-04-25T11:31:54.314Z</time></trkpt><trkpt lat="45.4515533" lon="13.9743031"><ele>498.33333333333337</ele><time>2026-04-25T11:31:55.319Z</time></trkpt><trkpt lat="45.4515142" lon="13.9745277"><ele>499.0</ele><time>2026-04-25T11:31:56.315Z</time></trkpt><trkpt lat="45.4514597" lon="13.9747504"><ele>499.0</ele><time>2026-04-25T11:31:57.313Z</time></trkpt><trkpt lat="45.4513937" lon="13.9749541"><ele>499.0</ele><time>2026-04-25T11:31:58.314Z</time></trkpt><trkpt lat="45.4513299" lon="13.9751429"><ele>499.0</ele><time>2026-04-25T11:31:59.308Z</time></trkpt><trkpt lat="45.4512633" lon="13.9753218"><ele>499.0</ele><time>2026-04-25T11:32:00.31Z</time></trkpt><trkpt lat="45.4511876" lon="13.9755054"><ele>500.6666666666667</ele><time>2026-04-25T11:32:01.321Z</time></trkpt><trkpt lat="45.4511084" lon="13.9756851"><ele>502.33333333333337</ele><time>2026-04-25T11:32:02.305Z</time></trkpt><trkpt lat="45.4510301" lon="13.9758784"><ele>504.0</ele><time>2026-04-25T11:32:03.3Z</time></trkpt><trkpt lat="45.4509606" lon="13.9760806"><ele>505.66666666666663</ele><time>2026-04-25T11:32:04.301Z</time></trkpt><trkpt lat="45.4508894" lon="13.9762956"><ele>507.3333333333333</ele><time>2026-04-25T11:32:05.313Z</time></trkpt><trkpt lat="45.4508269" lon="13.9765065"><ele>509.0</ele><time>2026-04-25T11:32:06.315Z</time></trkpt><trkpt lat="45.4507738" lon="13.9767311"><ele>509.3333333333333</ele><time>2026-04-25T11:32:07.308Z</time></trkpt><trkpt lat="45.4507169" lon="13.9769509"><ele>509.66666666666663</ele><time>2026-04-25T11:32:08.302Z</time></trkpt><trkpt lat="45.4506506" lon="13.9771674"><ele>510.0</ele><time>2026-04-25T11:32:09.311Z</time></trkpt><trkpt lat="45.450582" lon="13.9773895"><ele>509.0</ele><time>2026-04-25T11:32:10.314Z</time></trkpt><trkpt lat="45.4505137" lon="13.9776131"><ele>508.0</ele><time>2026-04-25T11:32:11.313Z</time></trkpt><trkpt lat="45.4504337" lon="13.9778427"><ele>507.0</ele><time>2026-04-25T11:32:12.319Z</time></trkpt><trkpt lat="45.4503474" lon="13.9780673"><ele>510.33333333333337</ele><time>2026-04-25T11:32:13.321Z</time></trkpt><trkpt lat="45.4502701" lon="13.9782923"><ele>513.6666666666667</ele><time>2026-04-25T11:32:14.315Z</time></trkpt><trkpt lat="45.4501988" lon="13.978514"><ele>517.0</ele><time>2026-04-25T11:32:15.317Z</time></trkpt><trkpt lat="45.4501295" lon="13.9787312"><ele>517.0</ele><time>2026-04-25T11:32:16.319Z</time></trkpt><trkpt lat="45.4500515" lon="13.9789449"><ele>517.0</ele><time>2026-04-25T11:32:17.319Z</time></trkpt><trkpt lat="45.4499677" lon="13.9791597"><ele>517.0</ele><time>2026-04-25T11:32:18.317Z</time></trkpt><trkpt lat="45.4498659" lon="13.9793717"><ele>516.3333333333334</ele><time>2026-04-25T11:32:19.322Z</time></trkpt><trkpt lat="45.4497471" lon="13.9795699"><ele>515.6666666666666</ele><time>2026-04-25T11:32:20.308Z</time></trkpt><trkpt lat="45.4496149" lon="13.9797653"><ele>515.0</ele><time>2026-04-25T11:32:21.316Z</time></trkpt><trkpt lat="45.449476" lon="13.9799602"><ele>516.0</ele><time>2026-04-25T11:32:22.312Z</time></trkpt><trkpt lat="45.4493513" lon="13.9801473"><ele>517.0</ele><time>2026-04-25T11:32:23.322Z</time></trkpt><trkpt lat="45.4492456" lon="13.9803256"><ele>518.0</ele><time>2026-04-25T11:32:24.317Z</time></trkpt><trkpt lat="45.4491448" lon="13.9805091"><ele>518.0</ele><time>2026-04-25T11:32:25.316Z</time></trkpt><trkpt lat="45.4490514" lon="13.9807051"><ele>518.0</ele><time>2026-04-25T11:32:26.309Z</time></trkpt><trkpt lat="45.4489577" lon="13.9808736"><ele>518.0</ele><time>2026-04-25T11:32:27.309Z</time></trkpt><trkpt lat="45.4488586" lon="13.9810181"><ele>520.3333333333333</ele><time>2026-04-25T11:32:28.305Z</time></trkpt><trkpt lat="45.4487456" lon="13.9811446"><ele>522.6666666666666</ele><time>2026-04-25T11:32:29.309Z</time></trkpt><trkpt lat="45.4486181" lon="13.9812591"><ele>525.0</ele><time>2026-04-25T11:32:30.324Z</time></trkpt><trkpt lat="45.4484843" lon="13.9813857"><ele>525.0</ele><time>2026-04-25T11:32:31.318Z</time></trkpt><trkpt lat="45.4483521" lon="13.9815196"><ele>525.0</ele><time>2026-04-25T11:32:32.312Z</time></trkpt><trkpt lat="45.4482162" lon="13.9816498"><ele>525.0</ele><time>2026-04-25T11:32:33.316Z</time></trkpt><trkpt lat="45.4480947" lon="13.9818164"><ele>524.6666666666666</ele><time>2026-04-25T11:32:34.302Z</time></trkpt><trkpt lat="45.4479865" lon="13.9820082"><ele>524.3333333333333</ele><time>2026-04-25T11:32:35.313Z</time></trkpt><trkpt lat="45.4478771" lon="13.9821998"><ele>524.0</ele><time>2026-04-25T11:32:36.304Z</time></trkpt><trkpt lat="45.4477615" lon="13.9823874"><ele>527.3333333333333</ele><time>2026-04-25T11:32:37.306Z</time></trkpt><trkpt lat="45.4476512" lon="13.982564"><ele>530.6666666666666</ele><time>2026-04-25T11:32:38.301Z</time></trkpt><trkpt lat="45.4475487" lon="13.982732"><ele>534.0</ele><time>2026-04-25T11:32:39.297Z</time></trkpt><trkpt lat="45.4474485" lon="13.9828925"><ele>534.0</ele><time>2026-04-25T11:32:40.306Z</time></trkpt><trkpt lat="45.4473381" lon="13.9830319"><ele>534.0</ele><time>2026-04-25T11:32:41.306Z</time></trkpt><trkpt lat="45.4472092" lon="13.9831427"><ele>534.0</ele><time>2026-04-25T11:32:42.306Z</time></trkpt><trkpt lat="45.4470799" lon="13.9832292"><ele>534.0</ele><time>2026-04-25T11:32:43.309Z</time></trkpt><trkpt lat="45.4469566" lon="13.9833203"><ele>533.3333333333334</ele><time>2026-04-25T11:32:44.325Z</time></trkpt><trkpt lat="45.4468456" lon="13.9834488"><ele>532.6666666666667</ele><time>2026-04-25T11:32:45.31Z</time></trkpt><trkpt lat="45.4467564" lon="13.9836296"><ele>532.0</ele><time>2026-04-25T11:32:46.297Z</time></trkpt><trkpt lat="45.4466684" lon="13.9838252"><ele>532.0</ele><time>2026-04-25T11:32:47.291Z</time></trkpt><trkpt lat="45.4465963" lon="13.984033"><ele>532.0</ele><time>2026-04-25T11:32:48.287Z</time></trkpt><trkpt lat="45.4465369" lon="13.984263"><ele>532.0</ele><time>2026-04-25T11:32:49.314Z</time></trkpt><trkpt lat="45.4464899" lon="13.9845082"><ele>532.6666666666667</ele><time>2026-04-25T11:32:50.314Z</time></trkpt><trkpt lat="45.4464526" lon="13.9847569"><ele>533.3333333333334</ele><time>2026-04-25T11:32:51.315Z</time></trkpt><trkpt lat="45.4464265" lon="13.985019"><ele>534.0</ele><time>2026-04-25T11:32:52.301Z</time></trkpt><trkpt lat="45.4464065" lon="13.9852892"><ele>535.0</ele><time>2026-04-25T11:32:53.302Z</time></trkpt><trkpt lat="45.4463889" lon="13.9855597"><ele>536.0</ele><time>2026-04-25T11:32:54.316Z</time></trkpt><trkpt lat="45.4463664" lon="13.9858277"><ele>537.0</ele><time>2026-04-25T11:32:55.332Z</time></trkpt><trkpt lat="45.4463427" lon="13.9860956"><ele>537.3333333333334</ele><time>2026-04-25T11:32:56.306Z</time></trkpt><trkpt lat="45.4463195" lon="13.9863685"><ele>537.6666666666667</ele><time>2026-04-25T11:32:57.295Z</time></trkpt><trkpt lat="45.4462974" lon="13.9866383"><ele>538.0</ele><time>2026-04-25T11:32:58.292Z</time></trkpt><trkpt lat="45.4462774" lon="13.9868853"><ele>538.0</ele><time>2026-04-25T11:32:59.3Z</time></trkpt><trkpt lat="45.4462609" lon="13.9871174"><ele>538.0</ele><time>2026-04-25T11:33:00.301Z</time></trkpt><trkpt lat="45.4462439" lon="13.987355"><ele>538.0</ele><time>2026-04-25T11:33:01.297Z</time></trkpt><trkpt lat="45.4462212" lon="13.9875936"><ele>539.5</ele><time>2026-04-25T11:33:02.306Z</time></trkpt><trkpt lat="45.4461915" lon="13.9878208"><ele>541.0</ele><time>2026-04-25T11:33:03.296Z</time></trkpt><trkpt lat="45.4461668" lon="13.9880229"><ele>542.5</ele><time>2026-04-25T11:33:04.295Z</time></trkpt><trkpt lat="45.44615" lon="13.9882023"><ele>544.0</ele><time>2026-04-25T11:33:05.307Z</time></trkpt><trkpt lat="45.446132" lon="13.9883614"><ele>544.8333333333334</ele><time>2026-04-25T11:33:06.294Z</time></trkpt><trkpt lat="45.4461138" lon="13.9885017"><ele>545.6666666666667</ele><time>2026-04-25T11:33:07.302Z</time></trkpt><trkpt lat="45.4461" lon="13.9886304"><ele>546.5</ele><time>2026-04-25T11:33:08.306Z</time></trkpt><trkpt lat="45.4460953" lon="13.9887434"><ele>547.3333333333334</ele><time>2026-04-25T11:33:09.307Z</time></trkpt><trkpt lat="45.446123" lon="13.988843"><ele>548.1666666666666</ele><time>2026-04-25T11:33:10.307Z</time></trkpt><trkpt lat="45.4461805" lon="13.9888997"><ele>549.0</ele><time>2026-04-25T11:33:11.311Z</time></trkpt><trkpt lat="45.4462599" lon="13.9889154"><ele>552.2</ele><time>2026-04-25T11:33:12.305Z</time></trkpt><trkpt lat="45.4463357" lon="13.9888967"><ele>555.4</ele><time>2026-04-25T11:33:13.292Z</time></trkpt><trkpt lat="45.4464126" lon="13.9888478"><ele>558.6</ele><time>2026-04-25T11:33:14.288Z</time></trkpt><trkpt lat="45.4464877" lon="13.9887874"><ele>561.8</ele><time>2026-04-25T11:33:15.29Z</time></trkpt><trkpt lat="45.4465877" lon="13.9887095"><ele>565.0</ele><time>2026-04-25T11:33:16.294Z</time></trkpt><trkpt lat="45.4466848" lon="13.9886143"><ele>565.0</ele><time>2026-04-25T11:33:17.309Z</time></trkpt><trkpt lat="45.4467924" lon="13.9885054"><ele>565.0</ele><time>2026-04-25T11:33:18.301Z</time></trkpt><trkpt lat="45.4469066" lon="13.9883756"><ele>565.0</ele><time>2026-04-25T11:33:19.305Z</time></trkpt><trkpt lat="45.4470274" lon="13.9882176"><ele>565.0</ele><time>2026-04-25T11:33:20.298Z</time></trkpt><trkpt lat="45.4471491" lon="13.9880564"><ele>565.6666666666667</ele><time>2026-04-25T11:33:21.312Z</time></trkpt><trkpt lat="45.447275" lon="13.9878927"><ele>566.3333333333334</ele><time>2026-04-25T11:33:22.31Z</time></trkpt><trkpt lat="45.4474108" lon="13.9877278"><ele>567.0</ele><time>2026-04-25T11:33:23.294Z</time></trkpt><trkpt lat="45.4475486" lon="13.9875436"><ele>564.3333333333334</ele><time>2026-04-25T11:33:24.318Z</time></trkpt><trkpt lat="45.4476783" lon="13.9873587"><ele>561.6666666666667</ele><time>2026-04-25T11:33:25.308Z</time></trkpt><trkpt lat="45.4477965" lon="13.987166"><ele>559.0</ele><time>2026-04-25T11:33:26.306Z</time></trkpt><trkpt lat="45.4479026" lon="13.9869634"><ele>561.3333333333334</ele><time>2026-04-25T11:33:27.294Z</time></trkpt><trkpt lat="45.4480029" lon="13.9867625"><ele>563.6666666666666</ele><time>2026-04-25T11:33:28.296Z</time></trkpt><trkpt lat="45.4481074" lon="13.9865952"><ele>566.0</ele><time>2026-04-25T11:33:29.301Z</time></trkpt><trkpt lat="45.4482167" lon="13.9864559"><ele>566.0</ele><time>2026-04-25T11:33:30.293Z</time></trkpt><trkpt lat="45.4483303" lon="13.9863475"><ele>566.0</ele><time>2026-04-25T11:33:31.309Z</time></trkpt><trkpt lat="45.4484332" lon="13.9862759"><ele>566.0</ele><time>2026-04-25T11:33:32.301Z</time></trkpt><trkpt lat="45.4485539" lon="13.9862584"><ele>566.0</ele><time>2026-04-25T11:33:33.335Z</time></trkpt><trkpt lat="45.448668" lon="13.9862818"><ele>566.0</ele><time>2026-04-25T11:33:34.304Z</time></trkpt><trkpt lat="45.4487881" lon="13.9863261"><ele>566.0</ele><time>2026-04-25T11:33:35.297Z</time></trkpt><trkpt lat="45.4489062" lon="13.986401"><ele>566.0</ele><time>2026-04-25T11:33:36.31Z</time></trkpt><trkpt lat="45.4490204" lon="13.9864938"><ele>566.0</ele><time>2026-04-25T11:33:37.308Z</time></trkpt><trkpt lat="45.4491228" lon="13.9866193"><ele>568.3333333333333</ele><time>2026-04-25T11:33:38.324Z</time></trkpt><trkpt lat="45.4492137" lon="13.9867757"><ele>570.6666666666666</ele><time>2026-04-25T11:33:39.309Z</time></trkpt><trkpt lat="45.4492904" lon="13.98697"><ele>573.0</ele><time>2026-04-25T11:33:40.309Z</time></trkpt><trkpt lat="45.4493719" lon="13.987173"><ele>573.0</ele><time>2026-04-25T11:33:41.313Z</time></trkpt><trkpt lat="45.4494578" lon="13.9873757"><ele>573.0</ele><time>2026-04-25T11:33:42.317Z</time></trkpt><trkpt lat="45.449548" lon="13.9875821"><ele>573.0</ele><time>2026-04-25T11:33:43.316Z</time></trkpt><trkpt lat="45.4496382" lon="13.9877866"><ele>573.75</ele><time>2026-04-25T11:33:44.314Z</time></trkpt><trkpt lat="45.449723" lon="13.9879855"><ele>574.5</ele><time>2026-04-25T11:33:45.309Z</time></trkpt><trkpt lat="45.4497998" lon="13.9881658"><ele>575.25</ele><time>2026-04-25T11:33:46.317Z</time></trkpt><trkpt lat="45.4498791" lon="13.9883051"><ele>576.0</ele><time>2026-04-25T11:33:47.316Z</time></trkpt><trkpt lat="45.4499588" lon="13.9884062"><ele>576.0</ele><time>2026-04-25T11:33:48.317Z</time></trkpt><trkpt lat="45.4500448" lon="13.9884504"><ele>576.0</ele><time>2026-04-25T11:33:49.313Z</time></trkpt><trkpt lat="45.4501499" lon="13.9884445"><ele>576.0</ele><time>2026-04-25T11:33:50.291Z</time></trkpt><trkpt lat="45.4502497" lon="13.9884076"><ele>576.0</ele><time>2026-04-25T11:33:51.299Z</time></trkpt><trkpt lat="45.4503462" lon="13.9883633"><ele>576.0</ele><time>2026-04-25T11:33:52.287Z</time></trkpt><trkpt lat="45.4504518" lon="13.9883194"><ele>577.5</ele><time>2026-04-25T11:33:53.321Z</time></trkpt><trkpt lat="45.4505735" lon="13.9882696"><ele>579.0</ele><time>2026-04-25T11:33:54.317Z</time></trkpt><trkpt lat="45.4507046" lon="13.9882043"><ele>580.5</ele><time>2026-04-25T11:33:55.318Z</time></trkpt><trkpt lat="45.4508249" lon="13.9881249"><ele>582.0</ele><time>2026-04-25T11:33:56.312Z</time></trkpt><trkpt lat="45.4509282" lon="13.9880291"><ele>582.0</ele><time>2026-04-25T11:33:57.302Z</time></trkpt><trkpt lat="45.4510031" lon="13.9879069"><ele>582.0</ele><time>2026-04-25T11:33:58.315Z</time></trkpt><trkpt lat="45.4510335" lon="13.9877588"><ele>582.0</ele><time>2026-04-25T11:33:59.295Z</time></trkpt><trkpt lat="45.4510467" lon="13.9875868"><ele>582.0</ele><time>2026-04-25T11:34:00.282Z</time></trkpt><trkpt lat="45.4510613" lon="13.9874102"><ele>580.4</ele><time>2026-04-25T11:34:01.288Z</time></trkpt><trkpt lat="45.4510948" lon="13.9872621"><ele>578.8000000000001</ele><time>2026-04-25T11:34:02.294Z</time></trkpt><trkpt lat="45.4511572" lon="13.9871332"><ele>577.2</ele><time>2026-04-25T11:34:03.29Z</time></trkpt><trkpt lat="45.4512359" lon="13.987059"><ele>575.6</ele><time>2026-04-25T11:34:04.283Z</time></trkpt><trkpt lat="45.4513291" lon="13.9870225"><ele>574.0</ele><time>2026-04-25T11:34:05.288Z</time></trkpt><trkpt lat="45.4514172" lon="13.9869902"><ele>576.8</ele><time>2026-04-25T11:34:06.285Z</time></trkpt><trkpt lat="45.4515034" lon="13.9869263"><ele>579.5999999999999</ele><time>2026-04-25T11:34:07.302Z</time></trkpt><trkpt lat="45.4515588" lon="13.9868249"><ele>582.4</ele><time>2026-04-25T11:34:08.292Z</time></trkpt><trkpt lat="45.4515765" lon="13.986692"><ele>585.1999999999999</ele><time>2026-04-25T11:34:09.297Z</time></trkpt><trkpt lat="45.4515592" lon="13.9865379"><ele>588.0</ele><time>2026-04-25T11:34:10.286Z</time></trkpt><trkpt lat="45.4515328" lon="13.9863662"><ele>588.0</ele><time>2026-04-25T11:34:11.293Z</time></trkpt><trkpt lat="45.4515325" lon="13.9861957"><ele>588.0</ele><time>2026-04-25T11:34:12.29Z</time></trkpt><trkpt lat="45.4515671" lon="13.9860279"><ele>588.0</ele><time>2026-04-25T11:34:13.297Z</time></trkpt><trkpt lat="45.4516321" lon="13.9858642"><ele>588.0</ele><time>2026-04-25T11:34:14.289Z</time></trkpt><trkpt lat="45.4517109" lon="13.9857426"><ele>588.0</ele><time>2026-04-25T11:34:15.293Z</time></trkpt><trkpt lat="45.4517832" lon="13.9856493"><ele>588.0</ele><time>2026-04-25T11:34:16.307Z</time></trkpt><trkpt lat="45.4518517" lon="13.9856094"><ele>588.0</ele><time>2026-04-25T11:34:17.305Z</time></trkpt><trkpt lat="45.4519188" lon="13.9856309"><ele>588.0</ele><time>2026-04-25T11:34:18.294Z</time></trkpt><trkpt lat="45.4519605" lon="13.9857638"><ele>588.0</ele><time>2026-04-25T11:34:20.293Z</time></trkpt><trkpt lat="45.451928" lon="13.9858481"><ele>588.0</ele><time>2026-04-25T11:34:21.293Z</time></trkpt><trkpt lat="45.4518765" lon="13.9859252"><ele>588.0</ele><time>2026-04-25T11:34:22.298Z</time></trkpt><trkpt lat="45.4518242" lon="13.9860165"><ele>588.0</ele><time>2026-04-25T11:34:23.302Z</time></trkpt><trkpt lat="45.4517974" lon="13.9861324"><ele>588.0</ele><time>2026-04-25T11:34:24.3Z</time></trkpt><trkpt lat="45.451793" lon="13.9862666"><ele>588.0</ele><time>2026-04-25T11:34:25.297Z</time></trkpt><trkpt lat="45.4518048" lon="13.9864297"><ele>588.0</ele><time>2026-04-25T11:34:26.296Z</time></trkpt><trkpt lat="45.45183" lon="13.9865841"><ele>589.0</ele><time>2026-04-25T11:34:27.314Z</time></trkpt><trkpt lat="45.4518619" lon="13.9867197"><ele>590.0</ele><time>2026-04-25T11:34:28.292Z</time></trkpt><trkpt lat="45.4518688" lon="13.9868421"><ele>591.0</ele><time>2026-04-25T11:34:29.306Z</time></trkpt><trkpt lat="45.4518405" lon="13.986947"><ele>592.0</ele><time>2026-04-25T11:34:30.304Z</time></trkpt><trkpt lat="45.4517822" lon="13.9870572"><ele>593.0</ele><time>2026-04-25T11:34:31.291Z</time></trkpt><trkpt lat="45.4517116" lon="13.9871647"><ele>593.0</ele><time>2026-04-25T11:34:32.313Z</time></trkpt><trkpt lat="45.4516615" lon="13.9873034"><ele>593.0</ele><time>2026-04-25T11:34:33.307Z</time></trkpt><trkpt lat="45.4516415" lon="13.9874883"><ele>593.0</ele><time>2026-04-25T11:34:34.312Z</time></trkpt><trkpt lat="45.451641" lon="13.9876761"><ele>593.0</ele><time>2026-04-25T11:34:35.289Z</time></trkpt><trkpt lat="45.4516492" lon="13.9878684"><ele>593.75</ele><time>2026-04-25T11:34:36.309Z</time></trkpt><trkpt lat="45.4516583" lon="13.9880701"><ele>594.5</ele><time>2026-04-25T11:34:37.316Z</time></trkpt><trkpt lat="45.4516694" lon="13.9882718"><ele>595.25</ele><time>2026-04-25T11:34:38.297Z</time></trkpt><trkpt lat="45.4516623" lon="13.9884863"><ele>596.0</ele><time>2026-04-25T11:34:39.294Z</time></trkpt><trkpt lat="45.4516363" lon="13.9887061"><ele>598.0</ele><time>2026-04-25T11:34:40.303Z</time></trkpt><trkpt lat="45.4515851" lon="13.9889294"><ele>600.0</ele><time>2026-04-25T11:34:41.299Z</time></trkpt><trkpt lat="45.4515054" lon="13.9891429"><ele>602.0</ele><time>2026-04-25T11:34:42.291Z</time></trkpt><trkpt lat="45.4514225" lon="13.9893429"><ele>603.0</ele><time>2026-04-25T11:34:43.292Z</time></trkpt><trkpt lat="45.4513317" lon="13.9895427"><ele>604.0</ele><time>2026-04-25T11:34:44.309Z</time></trkpt><trkpt lat="45.451249" lon="13.9897425"><ele>605.0</ele><time>2026-04-25T11:34:45.293Z</time></trkpt><trkpt lat="45.4511666" lon="13.9899424"><ele>605.3333333333333</ele><time>2026-04-25T11:34:46.307Z</time></trkpt><trkpt lat="45.4510808" lon="13.9901385"><ele>605.6666666666666</ele><time>2026-04-25T11:34:47.288Z</time></trkpt><trkpt lat="45.4509869" lon="13.9903174"><ele>606.0</ele><time>2026-04-25T11:34:48.304Z</time></trkpt><trkpt lat="45.4508779" lon="13.9904686"><ele>606.0</ele><time>2026-04-25T11:34:49.305Z</time></trkpt><trkpt lat="45.450755" lon="13.9906031"><ele>606.0</ele><time>2026-04-25T11:34:50.307Z</time></trkpt><trkpt lat="45.450634" lon="13.990724"><ele>606.0</ele><time>2026-04-25T11:34:51.314Z</time></trkpt><trkpt lat="45.4505198" lon="13.9908456"><ele>606.0</ele><time>2026-04-25T11:34:52.306Z</time></trkpt><trkpt lat="45.4504125" lon="13.99099"><ele>606.0</ele><time>2026-04-25T11:34:53.326Z</time></trkpt><trkpt lat="45.4503205" lon="13.9911766"><ele>606.0</ele><time>2026-04-25T11:34:54.298Z</time></trkpt><trkpt lat="45.4502404" lon="13.991376"><ele>606.0</ele><time>2026-04-25T11:34:55.307Z</time></trkpt><trkpt lat="45.450162" lon="13.9915896"><ele>607.3333333333334</ele><time>2026-04-25T11:34:56.291Z</time></trkpt><trkpt lat="45.4500848" lon="13.9918102"><ele>608.6666666666667</ele><time>2026-04-25T11:34:57.299Z</time></trkpt><trkpt lat="45.4500109" lon="13.9920381"><ele>610.0</ele><time>2026-04-25T11:34:58.298Z</time></trkpt><trkpt lat="45.4499393" lon="13.992273"><ele>611.3333333333334</ele><time>2026-04-25T11:34:59.289Z</time></trkpt><trkpt lat="45.4498683" lon="13.9925227"><ele>612.6666666666666</ele><time>2026-04-25T11:35:00.286Z</time></trkpt><trkpt lat="45.4497915" lon="13.992769"><ele>614.0</ele><time>2026-04-25T11:35:01.292Z</time></trkpt><trkpt lat="45.4497134" lon="13.9930199"><ele>614.0</ele><time>2026-04-25T11:35:02.294Z</time></trkpt><trkpt lat="45.4496364" lon="13.9932701"><ele>614.0</ele><time>2026-04-25T11:35:03.304Z</time></trkpt><trkpt lat="45.4495581" lon="13.9935076"><ele>614.0</ele><time>2026-04-25T11:35:04.303Z</time></trkpt><trkpt lat="45.4494865" lon="13.9937323"><ele>614.75</ele><time>2026-04-25T11:35:05.294Z</time></trkpt><trkpt lat="45.4494212" lon="13.9939438"><ele>615.5</ele><time>2026-04-25T11:35:06.306Z</time></trkpt><trkpt lat="45.4493662" lon="13.9941281"><ele>616.25</ele><time>2026-04-25T11:35:07.3Z</time></trkpt><trkpt lat="45.4493182" lon="13.9942848"><ele>617.0</ele><time>2026-04-25T11:35:08.3Z</time></trkpt><trkpt lat="45.449276" lon="13.994441"><ele>617.8000000000001</ele><time>2026-04-25T11:35:09.306Z</time></trkpt><trkpt lat="45.449236" lon="13.9945854"><ele>618.6</ele><time>2026-04-25T11:35:10.297Z</time></trkpt><trkpt lat="45.4492183" lon="13.9947355"><ele>619.4000000000001</ele><time>2026-04-25T11:35:11.313Z</time></trkpt><trkpt lat="45.4492153" lon="13.9948792"><ele>620.2</ele><time>2026-04-25T11:35:12.301Z</time></trkpt><trkpt lat="45.4492282" lon="13.9950189"><ele>621.0</ele><time>2026-04-25T11:35:13.311Z</time></trkpt><trkpt lat="45.4492601" lon="13.9951529"><ele>622.6</ele><time>2026-04-25T11:35:14.312Z</time></trkpt><trkpt lat="45.4492996" lon="13.9952603"><ele>624.2</ele><time>2026-04-25T11:35:15.302Z</time></trkpt><trkpt lat="45.4493395" lon="13.9953802"><ele>625.8</ele><time>2026-04-25T11:35:16.324Z</time></trkpt><trkpt lat="45.4493564" lon="13.9955134"><ele>627.4</ele><time>2026-04-25T11:35:17.294Z</time></trkpt><trkpt lat="45.4493586" lon="13.9956569"><ele>629.0</ele><time>2026-04-25T11:35:18.307Z</time></trkpt><trkpt lat="45.4493299" lon="13.995794"><ele>629.75</ele><time>2026-04-25T11:35:19.284Z</time></trkpt><trkpt lat="45.4493014" lon="13.9959463"><ele>630.5</ele><time>2026-04-25T11:35:20.314Z</time></trkpt><trkpt lat="45.4492349" lon="13.9961269"><ele>631.25</ele><time>2026-04-25T11:35:21.306Z</time></trkpt><trkpt lat="45.4491778" lon="13.9962828"><ele>632.0</ele><time>2026-04-25T11:35:22.305Z</time></trkpt><trkpt lat="45.4491153" lon="13.9964586"><ele>632.0</ele><time>2026-04-25T11:35:23.309Z</time></trkpt><trkpt lat="45.4490686" lon="13.9966439"><ele>632.0</ele><time>2026-04-25T11:35:24.308Z</time></trkpt><trkpt lat="45.4490396" lon="13.9968248"><ele>632.0</ele><time>2026-04-25T11:35:25.304Z</time></trkpt><trkpt lat="45.449026" lon="13.9969865"><ele>632.0</ele><time>2026-04-25T11:35:26.306Z</time></trkpt><trkpt lat="45.4490049" lon="13.997139"><ele>632.5</ele><time>2026-04-25T11:35:27.299Z</time></trkpt><trkpt lat="45.4489766" lon="13.9972885"><ele>633.0</ele><time>2026-04-25T11:35:28.302Z</time></trkpt><trkpt lat="45.4489342" lon="13.9974352"><ele>633.5</ele><time>2026-04-25T11:35:29.295Z</time></trkpt><trkpt lat="45.4488831" lon="13.9975754"><ele>634.0</ele><time>2026-04-25T11:35:30.301Z</time></trkpt><trkpt lat="45.448814" lon="13.997721"><ele>637.0</ele><time>2026-04-25T11:35:31.296Z</time></trkpt><trkpt lat="45.4487205" lon="13.997879"><ele>640.0</ele><time>2026-04-25T11:35:32.294Z</time></trkpt><trkpt lat="45.4486167" lon="13.9980507"><ele>643.0</ele><time>2026-04-25T11:35:33.294Z</time></trkpt><trkpt lat="45.4485252" lon="13.998215"><ele>643.0</ele><time>2026-04-25T11:35:34.288Z</time></trkpt><trkpt lat="45.4484444" lon="13.9983632"><ele>643.0</ele><time>2026-04-25T11:35:35.291Z</time></trkpt><trkpt lat="45.448372" lon="13.998491"><ele>643.0</ele><time>2026-04-25T11:35:36.293Z</time></trkpt><trkpt lat="45.4483142" lon="13.9986083"><ele>643.0</ele><time>2026-04-25T11:35:37.3Z</time></trkpt><trkpt lat="45.4482796" lon="13.9987339"><ele>643.0</ele><time>2026-04-25T11:35:38.295Z</time></trkpt><trkpt lat="45.4482722" lon="13.9988894"><ele>643.0</ele><time>2026-04-25T11:35:39.292Z</time></trkpt><trkpt lat="45.4482809" lon="13.9990316"><ele>643.0</ele><time>2026-04-25T11:35:40.283Z</time></trkpt><trkpt lat="45.4483203" lon="13.999172"><ele>643.0</ele><time>2026-04-25T11:35:41.293Z</time></trkpt><trkpt lat="45.4483809" lon="13.9993041"><ele>643.0</ele><time>2026-04-25T11:35:42.29Z</time></trkpt><trkpt lat="45.4484603" lon="13.9994022"><ele>643.0</ele><time>2026-04-25T11:35:43.294Z</time></trkpt><trkpt lat="45.4485469" lon="13.9994856"><ele>642.5999999999999</ele><time>2026-04-25T11:35:44.288Z</time></trkpt><trkpt lat="45.4486437" lon="13.9995515"><ele>642.1999999999999</ele><time>2026-04-25T11:35:45.296Z</time></trkpt><trkpt lat="45.4487461" lon="13.9995873"><ele>641.8</ele><time>2026-04-25T11:35:46.305Z</time></trkpt><trkpt lat="45.4488513" lon="13.9996123"><ele>641.4</ele><time>2026-04-25T11:35:47.295Z</time></trkpt><trkpt lat="45.4489701" lon="13.9996439"><ele>641.0</ele><time>2026-04-25T11:35:48.288Z</time></trkpt><trkpt lat="45.4490898" lon="13.9997107"><ele>642.0</ele><time>2026-04-25T11:35:49.3Z</time></trkpt><trkpt lat="45.4491931" lon="13.9998283"><ele>643.0</ele><time>2026-04-25T11:35:50.301Z</time></trkpt><trkpt lat="45.449285" lon="13.9999517"><ele>644.0</ele><time>2026-04-25T11:35:51.296Z</time></trkpt><trkpt lat="45.449362" lon="14.0000687"><ele>645.0</ele><time>2026-04-25T11:35:52.296Z</time></trkpt><trkpt lat="45.4494336" lon="14.0001752"><ele>645.0</ele><time>2026-04-25T11:35:53.306Z</time></trkpt><trkpt lat="45.4495089" lon="14.0002583"><ele>645.0</ele><time>2026-04-25T11:35:54.303Z</time></trkpt><trkpt lat="45.4496047" lon="14.0003039"><ele>645.0</ele><time>2026-04-25T11:35:55.293Z</time></trkpt><trkpt lat="45.4497081" lon="14.0003026"><ele>645.0</ele><time>2026-04-25T11:35:56.291Z</time></trkpt><trkpt lat="45.4497943" lon="14.000263"><ele>645.0</ele><time>2026-04-25T11:35:57.284Z</time></trkpt><trkpt lat="45.449879" lon="14.0001732"><ele>645.8</ele><time>2026-04-25T11:35:58.288Z</time></trkpt><trkpt lat="45.4499597" lon="14.0000552"><ele>646.6</ele><time>2026-04-25T11:35:59.29Z</time></trkpt><trkpt lat="45.4500207" lon="13.9999576"><ele>647.4000000000001</ele><time>2026-04-25T11:36:00.281Z</time></trkpt><trkpt lat="45.4500776" lon="13.9998939"><ele>648.2</ele><time>2026-04-25T11:36:01.299Z</time></trkpt><trkpt lat="45.4501559" lon="13.9998988"><ele>649.0</ele><time>2026-04-25T11:36:02.295Z</time></trkpt><trkpt lat="45.4502333" lon="13.9999929"><ele>649.0</ele><time>2026-04-25T11:36:03.299Z</time></trkpt><trkpt lat="45.4503062" lon="14.0001122"><ele>649.0</ele><time>2026-04-25T11:36:04.286Z</time></trkpt><trkpt lat="45.4503875" lon="14.0002455"><ele>649.0</ele><time>2026-04-25T11:36:05.29Z</time></trkpt><trkpt lat="45.4504602" lon="14.000395"><ele>649.0</ele><time>2026-04-25T11:36:06.284Z</time></trkpt><trkpt lat="45.4505462" lon="14.0005297"><ele>648.25</ele><time>2026-04-25T11:36:07.292Z</time></trkpt><trkpt lat="45.4506443" lon="14.0006672"><ele>647.5</ele><time>2026-04-25T11:36:08.304Z</time></trkpt><trkpt lat="45.4507557" lon="14.0007989"><ele>646.75</ele><time>2026-04-25T11:36:09.287Z</time></trkpt><trkpt lat="45.4508722" lon="14.0009133"><ele>646.0</ele><time>2026-04-25T11:36:10.292Z</time></trkpt><trkpt lat="45.4510035" lon="14.0010226"><ele>645.75</ele><time>2026-04-25T11:36:11.294Z</time></trkpt><trkpt lat="45.4511271" lon="14.0011258"><ele>645.5</ele><time>2026-04-25T11:36:12.293Z</time></trkpt><trkpt lat="45.4512422" lon="14.0012195"><ele>645.25</ele><time>2026-04-25T11:36:13.287Z</time></trkpt><trkpt lat="45.4513372" lon="14.0013147"><ele>645.0</ele><time>2026-04-25T11:36:14.295Z</time></trkpt><trkpt lat="45.4514187" lon="14.0014241"><ele>645.75</ele><time>2026-04-25T11:36:15.302Z</time></trkpt><trkpt lat="45.4514875" lon="14.0015521"><ele>646.5</ele><time>2026-04-25T11:36:16.295Z</time></trkpt><trkpt lat="45.4514889" lon="14.0017204"><ele>647.25</ele><time>2026-04-25T11:36:17.302Z</time></trkpt><trkpt lat="45.4514555" lon="14.0018983"><ele>648.0</ele><time>2026-04-25T11:36:18.291Z</time></trkpt><trkpt lat="45.4514122" lon="14.0020808"><ele>648.25</ele><time>2026-04-25T11:36:19.297Z</time></trkpt><trkpt lat="45.4513677" lon="14.0022474"><ele>648.5</ele><time>2026-04-25T11:36:20.294Z</time></trkpt><trkpt lat="45.4513284" lon="14.0023971"><ele>648.75</ele><time>2026-04-25T11:36:21.299Z</time></trkpt><trkpt lat="45.4512786" lon="14.0025382"><ele>649.0</ele><time>2026-04-25T11:36:22.296Z</time></trkpt><trkpt lat="45.4512104" lon="14.0026483"><ele>648.4000000000001</ele><time>2026-04-25T11:36:23.293Z</time></trkpt><trkpt lat="45.4511226" lon="14.0027459"><ele>647.8</ele><time>2026-04-25T11:36:24.287Z</time></trkpt><trkpt lat="45.4510295" lon="14.0028412"><ele>647.2</ele><time>2026-04-25T11:36:25.299Z</time></trkpt><trkpt lat="45.4509431" lon="14.002943"><ele>646.5999999999999</ele><time>2026-04-25T11:36:26.3Z</time></trkpt><trkpt lat="45.450879" lon="14.0030686"><ele>646.0</ele><time>2026-04-25T11:36:27.298Z</time></trkpt><trkpt lat="45.4508336" lon="14.0032168"><ele>647.25</ele><time>2026-04-25T11:36:28.296Z</time></trkpt><trkpt lat="45.4508037" lon="14.0033749"><ele>648.5</ele><time>2026-04-25T11:36:29.287Z</time></trkpt><trkpt lat="45.4507899" lon="14.003558"><ele>649.75</ele><time>2026-04-25T11:36:30.303Z</time></trkpt><trkpt lat="45.450791" lon="14.0037413"><ele>651.0</ele><time>2026-04-25T11:36:31.289Z</time></trkpt><trkpt lat="45.4508156" lon="14.0039289"><ele>651.0</ele><time>2026-04-25T11:36:32.29Z</time></trkpt><trkpt lat="45.4508498" lon="14.0041033"><ele>651.0</ele><time>2026-04-25T11:36:33.287Z</time></trkpt><trkpt lat="45.450888" lon="14.0042868"><ele>651.0</ele><time>2026-04-25T11:36:34.297Z</time></trkpt><trkpt lat="45.4509202" lon="14.0044904"><ele>651.0</ele><time>2026-04-25T11:36:35.294Z</time></trkpt><trkpt lat="45.4509513" lon="14.0046949"><ele>651.5</ele><time>2026-04-25T11:36:36.289Z</time></trkpt><trkpt lat="45.4509862" lon="14.0049032"><ele>652.0</ele><time>2026-04-25T11:36:37.298Z</time></trkpt><trkpt lat="45.4510198" lon="14.0051027"><ele>652.5</ele><time>2026-04-25T11:36:38.293Z</time></trkpt><trkpt lat="45.451052" lon="14.0052814"><ele>653.0</ele><time>2026-04-25T11:36:39.305Z</time></trkpt><trkpt lat="45.4510744" lon="14.0054361"><ele>653.5999999999999</ele><time>2026-04-25T11:36:40.291Z</time></trkpt><trkpt lat="45.4511022" lon="14.0055695"><ele>654.1999999999999</ele><time>2026-04-25T11:36:41.294Z</time></trkpt><trkpt lat="45.4511271" lon="14.0056878"><ele>654.8</ele><time>2026-04-25T11:36:42.298Z</time></trkpt><trkpt lat="45.4511502" lon="14.0057933"><ele>655.4</ele><time>2026-04-25T11:36:43.283Z</time></trkpt><trkpt lat="45.4511825" lon="14.0058809"><ele>656.0</ele><time>2026-04-25T11:36:44.289Z</time></trkpt><trkpt lat="45.4512942" lon="14.0059745"><ele>656.5999999999999</ele><time>2026-04-25T11:36:46.285Z</time></trkpt><trkpt lat="45.4513722" lon="14.0059621"><ele>657.2</ele><time>2026-04-25T11:36:47.284Z</time></trkpt><trkpt lat="45.4514522" lon="14.0059074"><ele>657.8</ele><time>2026-04-25T11:36:48.289Z</time></trkpt><trkpt lat="45.4515365" lon="14.0058298"><ele>658.4000000000001</ele><time>2026-04-25T11:36:49.289Z</time></trkpt><trkpt lat="45.4516388" lon="14.0057326"><ele>659.0</ele><time>2026-04-25T11:36:50.278Z</time></trkpt><trkpt lat="45.4517589" lon="14.005628"><ele>659.0</ele><time>2026-04-25T11:36:51.287Z</time></trkpt><trkpt lat="45.4518912" lon="14.0055083"><ele>659.0</ele><time>2026-04-25T11:36:52.283Z</time></trkpt><trkpt lat="45.4520241" lon="14.0053823"><ele>659.0</ele><time>2026-04-25T11:36:53.283Z</time></trkpt><trkpt lat="45.4521396" lon="14.0052712"><ele>659.2</ele><time>2026-04-25T11:36:54.281Z</time></trkpt><trkpt lat="45.4522323" lon="14.0051685"><ele>659.4000000000001</ele><time>2026-04-25T11:36:55.276Z</time></trkpt><trkpt lat="45.4523133" lon="14.0050739"><ele>659.6</ele><time>2026-04-25T11:36:56.294Z</time></trkpt><trkpt lat="45.452388" lon="14.0049915"><ele>659.8</ele><time>2026-04-25T11:36:57.28Z</time></trkpt><trkpt lat="45.4524491" lon="14.0049243"><ele>660.0</ele><time>2026-04-25T11:36:58.277Z</time></trkpt><trkpt lat="45.4525136" lon="14.0048889"><ele>660.0</ele><time>2026-04-25T11:36:59.293Z</time></trkpt><trkpt lat="45.4525782" lon="14.0048948"><ele>660.0</ele><time>2026-04-25T11:37:00.279Z</time></trkpt><trkpt lat="45.4526747" lon="14.0050202"><ele>660.0</ele><time>2026-04-25T11:37:02.276Z</time></trkpt><trkpt lat="45.4527196" lon="14.0051431"><ele>660.0</ele><time>2026-04-25T11:37:03.275Z</time></trkpt><trkpt lat="45.452773" lon="14.0052549"><ele>660.0</ele><time>2026-04-25T11:37:04.274Z</time></trkpt><trkpt lat="45.4528468" lon="14.0053416"><ele>661.6</ele><time>2026-04-25T11:37:05.277Z</time></trkpt><trkpt lat="45.4529399" lon="14.0053891"><ele>663.2</ele><time>2026-04-25T11:37:06.278Z</time></trkpt><trkpt lat="45.4530412" lon="14.0053756"><ele>664.8</ele><time>2026-04-25T11:37:07.284Z</time></trkpt><trkpt lat="45.4531412" lon="14.005328"><ele>666.4</ele><time>2026-04-25T11:37:08.271Z</time></trkpt><trkpt lat="45.4532369" lon="14.0052669"><ele>668.0</ele><time>2026-04-25T11:37:09.273Z</time></trkpt><trkpt lat="45.4533142" lon="14.0052228"><ele>669.0</ele><time>2026-04-25T11:37:10.289Z</time></trkpt><trkpt lat="45.4533861" lon="14.005199"><ele>670.0</ele><time>2026-04-25T11:37:11.288Z</time></trkpt><trkpt lat="45.4535012" lon="14.005289"><ele>671.0</ele><time>2026-04-25T11:37:13.284Z</time></trkpt><trkpt lat="45.4535486" lon="14.0053879"><ele>672.0</ele><time>2026-04-25T11:37:14.272Z</time></trkpt><trkpt lat="45.4535638" lon="14.005511"><ele>673.0</ele><time>2026-04-25T11:37:15.281Z</time></trkpt><trkpt lat="45.4535413" lon="14.0056413"><ele>673.0</ele><time>2026-04-25T11:37:16.286Z</time></trkpt><trkpt lat="45.4534925" lon="14.0057673"><ele>673.0</ele><time>2026-04-25T11:37:17.28Z</time></trkpt><trkpt lat="45.453436" lon="14.0058945"><ele>673.0</ele><time>2026-04-25T11:37:18.28Z</time></trkpt><trkpt lat="45.4533827" lon="14.0060309"><ele>673.0</ele><time>2026-04-25T11:37:19.287Z</time></trkpt><trkpt lat="45.4533354" lon="14.0061711"><ele>673.0</ele><time>2026-04-25T11:37:20.283Z</time></trkpt><trkpt lat="45.4533087" lon="14.006294"><ele>674.1666666666667</ele><time>2026-04-25T11:37:21.293Z</time></trkpt><trkpt lat="45.4532841" lon="14.0064024"><ele>675.3333333333334</ele><time>2026-04-25T11:37:22.279Z</time></trkpt><trkpt lat="45.4532686" lon="14.0064993"><ele>676.5</ele><time>2026-04-25T11:37:23.289Z</time></trkpt><trkpt lat="45.4532585" lon="14.0065966"><ele>677.6666666666666</ele><time>2026-04-25T11:37:24.292Z</time></trkpt><trkpt lat="45.4532704" lon="14.006695"><ele>678.8333333333333</ele><time>2026-04-25T11:37:25.291Z</time></trkpt><trkpt lat="45.4533705" lon="14.0067915"><ele>680.0</ele><time>2026-04-25T11:37:27.286Z</time></trkpt><trkpt lat="45.4534575" lon="14.0067924"><ele>680.0</ele><time>2026-04-25T11:37:28.291Z</time></trkpt><trkpt lat="45.4535542" lon="14.0067547"><ele>680.0</ele><time>2026-04-25T11:37:29.282Z</time></trkpt><trkpt lat="45.4536532" lon="14.0066992"><ele>680.0</ele><time>2026-04-25T11:37:30.282Z</time></trkpt><trkpt lat="45.4537536" lon="14.0066269"><ele>680.0</ele><time>2026-04-25T11:37:31.285Z</time></trkpt><trkpt lat="45.4538661" lon="14.0065485"><ele>680.0</ele><time>2026-04-25T11:37:32.291Z</time></trkpt><trkpt lat="45.4539835" lon="14.0064768"><ele>679.0</ele><time>2026-04-25T11:37:33.298Z</time></trkpt><trkpt lat="45.454107" lon="14.0064093"><ele>678.0</ele><time>2026-04-25T11:37:34.293Z</time></trkpt><trkpt lat="45.4542329" lon="14.0063556"><ele>677.0</ele><time>2026-04-25T11:37:35.286Z</time></trkpt><trkpt lat="45.454353" lon="14.006326"><ele>676.0</ele><time>2026-04-25T11:37:36.283Z</time></trkpt><trkpt lat="45.4544551" lon="14.0063035"><ele>676.0</ele><time>2026-04-25T11:37:37.285Z</time></trkpt><trkpt lat="45.4545512" lon="14.0062791"><ele>676.0</ele><time>2026-04-25T11:37:38.297Z</time></trkpt><trkpt lat="45.4546391" lon="14.0062272"><ele>676.0</ele><time>2026-04-25T11:37:39.289Z</time></trkpt><trkpt lat="45.4547213" lon="14.0061452"><ele>676.0</ele><time>2026-04-25T11:37:40.276Z</time></trkpt><trkpt lat="45.4547877" lon="14.0060563"><ele>676.0</ele><time>2026-04-25T11:37:41.28Z</time></trkpt><trkpt lat="45.4548479" lon="14.00596"><ele>676.0</ele><time>2026-04-25T11:37:42.278Z</time></trkpt><trkpt lat="45.4549107" lon="14.0058437"><ele>676.0</ele><time>2026-04-25T11:37:43.286Z</time></trkpt><trkpt lat="45.4549711" lon="14.0057162"><ele>676.0</ele><time>2026-04-25T11:37:44.284Z</time></trkpt><trkpt lat="45.4550386" lon="14.0055926"><ele>676.0</ele><time>2026-04-25T11:37:45.296Z</time></trkpt><trkpt lat="45.4551024" lon="14.0054863"><ele>676.0</ele><time>2026-04-25T11:37:46.287Z</time></trkpt><trkpt lat="45.4551599" lon="14.0053957"><ele>676.0</ele><time>2026-04-25T11:37:47.297Z</time></trkpt><trkpt lat="45.4552444" lon="14.0052876"><ele>676.0</ele><time>2026-04-25T11:37:49.28Z</time></trkpt><trkpt lat="45.4553289" lon="14.0053151"><ele>676.0</ele><time>2026-04-25T11:37:51.284Z</time></trkpt><trkpt lat="45.455372" lon="14.0054702"><ele>676.0</ele><time>2026-04-25T11:37:53.281Z</time></trkpt><trkpt lat="45.4553525" lon="14.0055675"><ele>676.0</ele><time>2026-04-25T11:37:54.278Z</time></trkpt><trkpt lat="45.455315" lon="14.0056742"><ele>676.0</ele><time>2026-04-25T11:37:55.28Z</time></trkpt><trkpt lat="45.4552805" lon="14.005804"><ele>676.0</ele><time>2026-04-25T11:37:56.291Z</time></trkpt><trkpt lat="45.455234" lon="14.0059445"><ele>676.0</ele><time>2026-04-25T11:37:57.292Z</time></trkpt><trkpt lat="45.4551808" lon="14.0060823"><ele>676.0</ele><time>2026-04-25T11:37:58.277Z</time></trkpt><trkpt lat="45.4551162" lon="14.0062128"><ele>676.0</ele><time>2026-04-25T11:37:59.292Z</time></trkpt><trkpt lat="45.4550322" lon="14.0063355"><ele>679.0</ele><time>2026-04-25T11:38:00.286Z</time></trkpt><trkpt lat="45.4549412" lon="14.0064568"><ele>682.0</ele><time>2026-04-25T11:38:01.284Z</time></trkpt><trkpt lat="45.4548494" lon="14.0065909"><ele>685.0</ele><time>2026-04-25T11:38:02.277Z</time></trkpt><trkpt lat="45.4547633" lon="14.0067204"><ele>688.0</ele><time>2026-04-25T11:38:03.276Z</time></trkpt><trkpt lat="45.4546853" lon="14.0068484"><ele>688.4</ele><time>2026-04-25T11:38:04.28Z</time></trkpt><trkpt lat="45.4545982" lon="14.0069643"><ele>688.8</ele><time>2026-04-25T11:38:05.28Z</time></trkpt><trkpt lat="45.4545228" lon="14.0070768"><ele>689.2</ele><time>2026-04-25T11:38:06.273Z</time></trkpt><trkpt lat="45.4544582" lon="14.0071918"><ele>689.6</ele><time>2026-04-25T11:38:07.291Z</time></trkpt><trkpt lat="45.4544127" lon="14.0073338"><ele>690.0</ele><time>2026-04-25T11:38:08.285Z</time></trkpt><trkpt lat="45.4543718" lon="14.0074888"><ele>692.5</ele><time>2026-04-25T11:38:09.286Z</time></trkpt><trkpt lat="45.4543288" lon="14.0076416"><ele>695.0</ele><time>2026-04-25T11:38:10.281Z</time></trkpt><trkpt lat="45.454283" lon="14.0077912"><ele>697.5</ele><time>2026-04-25T11:38:11.285Z</time></trkpt><trkpt lat="45.4542412" lon="14.0079367"><ele>700.0</ele><time>2026-04-25T11:38:12.286Z</time></trkpt><trkpt lat="45.454199" lon="14.0080925"><ele>700.0</ele><time>2026-04-25T11:38:13.293Z</time></trkpt><trkpt lat="45.4541502" lon="14.0082615"><ele>700.0</ele><time>2026-04-25T11:38:14.284Z</time></trkpt><trkpt lat="45.4540994" lon="14.0084277"><ele>700.0</ele><time>2026-04-25T11:38:15.288Z</time></trkpt><trkpt lat="45.4540349" lon="14.0086031"><ele>700.0</ele><time>2026-04-25T11:38:16.289Z</time></trkpt><trkpt lat="45.4539654" lon="14.008772"><ele>700.75</ele><time>2026-04-25T11:38:17.287Z</time></trkpt><trkpt lat="45.4538886" lon="14.008953"><ele>701.5</ele><time>2026-04-25T11:38:18.293Z</time></trkpt><trkpt lat="45.4538127" lon="14.0091439"><ele>702.25</ele><time>2026-04-25T11:38:19.294Z</time></trkpt><trkpt lat="45.4537589" lon="14.0093357"><ele>703.0</ele><time>2026-04-25T11:38:20.277Z</time></trkpt><trkpt lat="45.4537089" lon="14.0095455"><ele>703.3333333333334</ele><time>2026-04-25T11:38:21.283Z</time></trkpt><trkpt lat="45.4536603" lon="14.0097592"><ele>703.6666666666666</ele><time>2026-04-25T11:38:22.287Z</time></trkpt><trkpt lat="45.4536138" lon="14.0099742"><ele>704.0</ele><time>2026-04-25T11:38:23.283Z</time></trkpt><trkpt lat="45.4535696" lon="14.0101942"><ele>704.0</ele><time>2026-04-25T11:38:24.277Z</time></trkpt><trkpt lat="45.4535206" lon="14.0104103"><ele>704.0</ele><time>2026-04-25T11:38:25.285Z</time></trkpt><trkpt lat="45.4534674" lon="14.0106278"><ele>704.0</ele><time>2026-04-25T11:38:26.283Z</time></trkpt><trkpt lat="45.4534079" lon="14.0108343"><ele>706.5</ele><time>2026-04-25T11:38:27.284Z</time></trkpt><trkpt lat="45.4533491" lon="14.0110196"><ele>709.0</ele><time>2026-04-25T11:38:28.287Z</time></trkpt><trkpt lat="45.4532981" lon="14.0111894"><ele>711.5</ele><time>2026-04-25T11:38:29.283Z</time></trkpt><trkpt lat="45.4532508" lon="14.0113521"><ele>714.0</ele><time>2026-04-25T11:38:30.282Z</time></trkpt><trkpt lat="45.4532162" lon="14.0114953"><ele>714.0</ele><time>2026-04-25T11:38:31.283Z</time></trkpt><trkpt lat="45.453172" lon="14.0116125"><ele>714.0</ele><time>2026-04-25T11:38:32.287Z</time></trkpt><trkpt lat="45.4531233" lon="14.0117228"><ele>714.0</ele><time>2026-04-25T11:38:33.28Z</time></trkpt><trkpt lat="45.4530699" lon="14.0118185"><ele>714.0</ele><time>2026-04-25T11:38:34.281Z</time></trkpt><trkpt lat="45.4530056" lon="14.0118993"><ele>714.0</ele><time>2026-04-25T11:38:35.28Z</time></trkpt><trkpt lat="45.4529089" lon="14.0119482"><ele>714.0</ele><time>2026-04-25T11:38:36.282Z</time></trkpt><trkpt lat="45.4528093" lon="14.0120034"><ele>714.0</ele><time>2026-04-25T11:38:37.275Z</time></trkpt><trkpt lat="45.4527142" lon="14.0120648"><ele>714.0</ele><time>2026-04-25T11:38:38.282Z</time></trkpt><trkpt lat="45.452624" lon="14.0121466"><ele>714.0</ele><time>2026-04-25T11:38:39.285Z</time></trkpt><trkpt lat="45.4525408" lon="14.0122723"><ele>714.0</ele><time>2026-04-25T11:38:40.283Z</time></trkpt><trkpt lat="45.4524732" lon="14.012424"><ele>717.75</ele><time>2026-04-25T11:38:41.284Z</time></trkpt><trkpt lat="45.4524057" lon="14.0125919"><ele>721.5</ele><time>2026-04-25T11:38:42.282Z</time></trkpt><trkpt lat="45.4523368" lon="14.012764"><ele>725.25</ele><time>2026-04-25T11:38:43.289Z</time></trkpt><trkpt lat="45.4522771" lon="14.0129492"><ele>729.0</ele><time>2026-04-25T11:38:44.284Z</time></trkpt><trkpt lat="45.452225" lon="14.013129"><ele>729.0</ele><time>2026-04-25T11:38:45.278Z</time></trkpt><trkpt lat="45.45218" lon="14.0132854"><ele>729.0</ele><time>2026-04-25T11:38:46.289Z</time></trkpt><trkpt lat="45.4521473" lon="14.0134166"><ele>729.0</ele><time>2026-04-25T11:38:47.276Z</time></trkpt><trkpt lat="45.4521206" lon="14.0135418"><ele>729.0</ele><time>2026-04-25T11:38:48.283Z</time></trkpt><trkpt lat="45.4520949" lon="14.0136685"><ele>729.0</ele><time>2026-04-25T11:38:49.281Z</time></trkpt><trkpt lat="45.4520888" lon="14.0138224"><ele>728.25</ele><time>2026-04-25T11:38:50.276Z</time></trkpt><trkpt lat="45.4520917" lon="14.0140016"><ele>727.5</ele><time>2026-04-25T11:38:51.277Z</time></trkpt><trkpt lat="45.4520924" lon="14.014185"><ele>726.75</ele><time>2026-04-25T11:38:52.289Z</time></trkpt><trkpt lat="45.45208" lon="14.0143845"><ele>726.0</ele><time>2026-04-25T11:38:53.287Z</time></trkpt><trkpt lat="45.4520531" lon="14.0146009"><ele>726.0</ele><time>2026-04-25T11:38:54.281Z</time></trkpt><trkpt lat="45.4520205" lon="14.0148138"><ele>726.0</ele><time>2026-04-25T11:38:55.282Z</time></trkpt><trkpt lat="45.4519781" lon="14.0150154"><ele>726.0</ele><time>2026-04-25T11:38:56.28Z</time></trkpt><trkpt lat="45.451938" lon="14.0152075"><ele>726.0</ele><time>2026-04-25T11:38:57.274Z</time></trkpt><trkpt lat="45.4519008" lon="14.0153812"><ele>728.5</ele><time>2026-04-25T11:38:58.268Z</time></trkpt><trkpt lat="45.4518653" lon="14.0155446"><ele>731.0</ele><time>2026-04-25T11:38:59.281Z</time></trkpt><trkpt lat="45.4518217" lon="14.0156972"><ele>733.5</ele><time>2026-04-25T11:39:00.277Z</time></trkpt><trkpt lat="45.451762" lon="14.0158346"><ele>736.0</ele><time>2026-04-25T11:39:01.29Z</time></trkpt><trkpt lat="45.4516861" lon="14.0159711"><ele>738.0</ele><time>2026-04-25T11:39:02.287Z</time></trkpt><trkpt lat="45.4515962" lon="14.016093"><ele>740.0</ele><time>2026-04-25T11:39:03.274Z</time></trkpt><trkpt lat="45.4514948" lon="14.0162014"><ele>742.0</ele><time>2026-04-25T11:39:04.277Z</time></trkpt><trkpt lat="45.4513897" lon="14.016311"><ele>744.0</ele><time>2026-04-25T11:39:05.283Z</time></trkpt><trkpt lat="45.4512915" lon="14.0164032"><ele>742.8000000000001</ele><time>2026-04-25T11:39:06.287Z</time></trkpt><trkpt lat="45.4512062" lon="14.0164839"><ele>741.6</ele><time>2026-04-25T11:39:07.281Z</time></trkpt><trkpt lat="45.4511343" lon="14.0165755"><ele>740.4</ele><time>2026-04-25T11:39:08.277Z</time></trkpt><trkpt lat="45.4510786" lon="14.016672"><ele>739.2</ele><time>2026-04-25T11:39:09.279Z</time></trkpt><trkpt lat="45.4510287" lon="14.016772"><ele>738.0</ele><time>2026-04-25T11:39:10.28Z</time></trkpt><trkpt lat="45.4509836" lon="14.0168814"><ele>738.0</ele><time>2026-04-25T11:39:11.279Z</time></trkpt><trkpt lat="45.4509501" lon="14.0170096"><ele>738.0</ele><time>2026-04-25T11:39:12.278Z</time></trkpt><trkpt lat="45.4509148" lon="14.0171587"><ele>738.0</ele><time>2026-04-25T11:39:13.282Z</time></trkpt><trkpt lat="45.4508928" lon="14.017322"><ele>738.0</ele><time>2026-04-25T11:39:14.288Z</time></trkpt><trkpt lat="45.4508821" lon="14.0175033"><ele>741.25</ele><time>2026-04-25T11:39:15.287Z</time></trkpt><trkpt lat="45.4508695" lon="14.0176819"><ele>744.5</ele><time>2026-04-25T11:39:16.282Z</time></trkpt><trkpt lat="45.4508547" lon="14.0178603"><ele>747.75</ele><time>2026-04-25T11:39:17.277Z</time></trkpt><trkpt lat="45.4508384" lon="14.0180314"><ele>751.0</ele><time>2026-04-25T11:39:18.283Z</time></trkpt><trkpt lat="45.4508278" lon="14.0181755"><ele>751.0</ele><time>2026-04-25T11:39:19.288Z</time></trkpt><trkpt lat="45.4508163" lon="14.0183003"><ele>751.0</ele><time>2026-04-25T11:39:20.289Z</time></trkpt><trkpt lat="45.4508205" lon="14.0184001"><ele>751.0</ele><time>2026-04-25T11:39:21.299Z</time></trkpt><trkpt lat="45.4509016" lon="14.0185216"><ele>751.0</ele><time>2026-04-25T11:39:23.277Z</time></trkpt><trkpt lat="45.4509675" lon="14.0185357"><ele>751.0</ele><time>2026-04-25T11:39:24.271Z</time></trkpt><trkpt lat="45.4510409" lon="14.0185188"><ele>751.0</ele><time>2026-04-25T11:39:25.278Z</time></trkpt><trkpt lat="45.4511249" lon="14.0184782"><ele>752.5</ele><time>2026-04-25T11:39:26.278Z</time></trkpt><trkpt lat="45.4512195" lon="14.0184145"><ele>754.0</ele><time>2026-04-25T11:39:27.269Z</time></trkpt><trkpt lat="45.4513372" lon="14.0183515"><ele>755.5</ele><time>2026-04-25T11:39:28.294Z</time></trkpt><trkpt lat="45.4514664" lon="14.0182845"><ele>757.0</ele><time>2026-04-25T11:39:29.284Z</time></trkpt><trkpt lat="45.4516029" lon="14.0182161"><ele>758.5</ele><time>2026-04-25T11:39:30.283Z</time></trkpt><trkpt lat="45.4517472" lon="14.0181406"><ele>760.0</ele><time>2026-04-25T11:39:31.281Z</time></trkpt><trkpt lat="45.4518842" lon="14.018066"><ele>761.5</ele><time>2026-04-25T11:39:32.271Z</time></trkpt><trkpt lat="45.452016" lon="14.0180135"><ele>763.0</ele><time>2026-04-25T11:39:33.288Z</time></trkpt><trkpt lat="45.4521424" lon="14.0179867"><ele>763.6666666666667</ele><time>2026-04-25T11:39:34.287Z</time></trkpt><trkpt lat="45.4522491" lon="14.0180082"><ele>764.3333333333334</ele><time>2026-04-25T11:39:35.279Z</time></trkpt><trkpt lat="45.4523304" lon="14.0180561"><ele>765.0</ele><time>2026-04-25T11:39:36.278Z</time></trkpt><trkpt lat="45.4523974" lon="14.0181068"><ele>765.6666666666666</ele><time>2026-04-25T11:39:37.279Z</time></trkpt><trkpt lat="45.4524579" lon="14.0181917"><ele>766.3333333333333</ele><time>2026-04-25T11:39:38.284Z</time></trkpt><trkpt lat="45.4525036" lon="14.0183015"><ele>767.0</ele><time>2026-04-25T11:39:39.282Z</time></trkpt><trkpt lat="45.4525102" lon="14.0184235"><ele>768.5</ele><time>2026-04-25T11:39:40.279Z</time></trkpt><trkpt lat="45.4524628" lon="14.018557"><ele>770.0</ele><time>2026-04-25T11:39:41.275Z</time></trkpt><trkpt lat="45.4524033" lon="14.0187072"><ele>771.5</ele><time>2026-04-25T11:39:42.284Z</time></trkpt><trkpt lat="45.4523442" lon="14.0188579"><ele>773.0</ele><time>2026-04-25T11:39:43.292Z</time></trkpt><trkpt lat="45.4522876" lon="14.0190165"><ele>773.0</ele><time>2026-04-25T11:39:44.284Z</time></trkpt><trkpt lat="45.4522302" lon="14.0191807"><ele>773.0</ele><time>2026-04-25T11:39:45.283Z</time></trkpt><trkpt lat="45.45217" lon="14.0193527"><ele>773.0</ele><time>2026-04-25T11:39:46.28Z</time></trkpt><trkpt lat="45.4521111" lon="14.0195276"><ele>773.0</ele><time>2026-04-25T11:39:47.282Z</time></trkpt><trkpt lat="45.4520563" lon="14.0197126"><ele>773.0</ele><time>2026-04-25T11:39:48.29Z</time></trkpt><trkpt lat="45.452014" lon="14.0199036"><ele>773.0</ele><time>2026-04-25T11:39:49.277Z</time></trkpt><trkpt lat="45.4519818" lon="14.0200929"><ele>773.0</ele><time>2026-04-25T11:39:50.27Z</time></trkpt><trkpt lat="45.4519445" lon="14.0202842"><ele>773.0</ele><time>2026-04-25T11:39:51.272Z</time></trkpt><trkpt lat="45.4518979" lon="14.0204808"><ele>773.6666666666667</ele><time>2026-04-25T11:39:52.275Z</time></trkpt><trkpt lat="45.4518611" lon="14.0206923"><ele>774.3333333333333</ele><time>2026-04-25T11:39:53.279Z</time></trkpt><trkpt lat="45.4518081" lon="14.0209051"><ele>775.0</ele><time>2026-04-25T11:39:54.271Z</time></trkpt><trkpt lat="45.4517531" lon="14.021106"><ele>776.0</ele><time>2026-04-25T11:39:55.279Z</time></trkpt><trkpt lat="45.4516925" lon="14.021311"><ele>777.0</ele><time>2026-04-25T11:39:56.27Z</time></trkpt><trkpt lat="45.4516318" lon="14.0215213"><ele>778.0</ele><time>2026-04-25T11:39:57.277Z</time></trkpt><trkpt lat="45.4515765" lon="14.021724"><ele>779.0</ele><time>2026-04-25T11:39:58.278Z</time></trkpt><trkpt lat="45.4515235" lon="14.0219282"><ele>780.0</ele><time>2026-04-25T11:39:59.273Z</time></trkpt><trkpt lat="45.4514693" lon="14.0221293"><ele>781.0</ele><time>2026-04-25T11:40:00.274Z</time></trkpt><trkpt lat="45.4514227" lon="14.0223288"><ele>782.0</ele><time>2026-04-25T11:40:01.266Z</time></trkpt><trkpt lat="45.4513838" lon="14.0225103"><ele>783.0</ele><time>2026-04-25T11:40:02.279Z</time></trkpt><trkpt lat="45.4513506" lon="14.0226896"><ele>784.0</ele><time>2026-04-25T11:40:03.272Z</time></trkpt><trkpt lat="45.4513355" lon="14.0228573"><ele>785.0</ele><time>2026-04-25T11:40:04.267Z</time></trkpt><trkpt lat="45.4513496" lon="14.023043"><ele>785.0</ele><time>2026-04-25T11:40:05.277Z</time></trkpt><trkpt lat="45.451383" lon="14.0232372"><ele>785.0</ele><time>2026-04-25T11:40:06.28Z</time></trkpt><trkpt lat="45.4514188" lon="14.0234179"><ele>785.0</ele><time>2026-04-25T11:40:07.272Z</time></trkpt><trkpt lat="45.4514517" lon="14.0235872"><ele>785.0</ele><time>2026-04-25T11:40:08.28Z</time></trkpt><trkpt lat="45.4514824" lon="14.0237774"><ele>785.0</ele><time>2026-04-25T11:40:09.28Z</time></trkpt><trkpt lat="45.4515131" lon="14.0239679"><ele>785.0</ele><time>2026-04-25T11:40:10.286Z</time></trkpt><trkpt lat="45.4515439" lon="14.0241693"><ele>785.0</ele><time>2026-04-25T11:40:11.284Z</time></trkpt><trkpt lat="45.4515679" lon="14.0243697"><ele>785.0</ele><time>2026-04-25T11:40:12.276Z</time></trkpt><trkpt lat="45.4515778" lon="14.0245726"><ele>785.0</ele><time>2026-04-25T11:40:13.276Z</time></trkpt><trkpt lat="45.451582" lon="14.0247668"><ele>785.0</ele><time>2026-04-25T11:40:14.282Z</time></trkpt><trkpt lat="45.4515678" lon="14.0249459"><ele>785.0</ele><time>2026-04-25T11:40:15.278Z</time></trkpt><trkpt lat="45.4515437" lon="14.0251281"><ele>785.0</ele><time>2026-04-25T11:40:16.293Z</time></trkpt><trkpt lat="45.4515146" lon="14.0253144"><ele>785.5</ele><time>2026-04-25T11:40:17.275Z</time></trkpt><trkpt lat="45.4514734" lon="14.0255076"><ele>786.0</ele><time>2026-04-25T11:40:18.273Z</time></trkpt><trkpt lat="45.4514276" lon="14.0256923"><ele>786.5</ele><time>2026-04-25T11:40:19.278Z</time></trkpt><trkpt lat="45.4513889" lon="14.0258669"><ele>787.0</ele><time>2026-04-25T11:40:20.278Z</time></trkpt><trkpt lat="45.4513485" lon="14.0260312"><ele>788.25</ele><time>2026-04-25T11:40:21.278Z</time></trkpt><trkpt lat="45.451325" lon="14.0262016"><ele>789.5</ele><time>2026-04-25T11:40:22.279Z</time></trkpt><trkpt lat="45.4513153" lon="14.0263752"><ele>790.75</ele><time>2026-04-25T11:40:23.272Z</time></trkpt><trkpt lat="45.4513044" lon="14.0265551"><ele>792.0</ele><time>2026-04-25T11:40:24.284Z</time></trkpt><trkpt lat="45.4512858" lon="14.0267415"><ele>786.25</ele><time>2026-04-25T11:40:25.275Z</time></trkpt><trkpt lat="45.4512492" lon="14.0269352"><ele>780.5</ele><time>2026-04-25T11:40:26.293Z</time></trkpt><trkpt lat="45.4511944" lon="14.0271239"><ele>774.75</ele><time>2026-04-25T11:40:27.273Z</time></trkpt><trkpt lat="45.4511423" lon="14.027292"><ele>769.0</ele><time>2026-04-25T11:40:28.272Z</time></trkpt><trkpt lat="45.4510977" lon="14.0274543"><ele>769.75</ele><time>2026-04-25T11:40:29.29Z</time></trkpt><trkpt lat="45.4510638" lon="14.0276278"><ele>770.5</ele><time>2026-04-25T11:40:30.277Z</time></trkpt><trkpt lat="45.4510329" lon="14.0278187"><ele>771.25</ele><time>2026-04-25T11:40:31.28Z</time></trkpt><trkpt lat="45.4510199" lon="14.0280131"><ele>772.0</ele><time>2026-04-25T11:40:32.286Z</time></trkpt><trkpt lat="45.451019" lon="14.0282028"><ele>770.25</ele><time>2026-04-25T11:40:33.279Z</time></trkpt><trkpt lat="45.4510446" lon="14.0283953"><ele>768.5</ele><time>2026-04-25T11:40:34.272Z</time></trkpt><trkpt lat="45.4510888" lon="14.0285875"><ele>766.75</ele><time>2026-04-25T11:40:35.281Z</time></trkpt><trkpt lat="45.4511378" lon="14.0287543"><ele>765.0</ele><time>2026-04-25T11:40:36.28Z</time></trkpt><trkpt lat="45.4511917" lon="14.0289171"><ele>765.0</ele><time>2026-04-25T11:40:37.279Z</time></trkpt><trkpt lat="45.4512627" lon="14.0290768"><ele>765.0</ele><time>2026-04-25T11:40:38.275Z</time></trkpt><trkpt lat="45.451349" lon="14.0292367"><ele>765.0</ele><time>2026-04-25T11:40:39.284Z</time></trkpt><trkpt lat="45.451443" lon="14.0293878"><ele>765.0</ele><time>2026-04-25T11:40:40.282Z</time></trkpt><trkpt lat="45.4515361" lon="14.0295365"><ele>766.25</ele><time>2026-04-25T11:40:41.282Z</time></trkpt><trkpt lat="45.451618" lon="14.0296773"><ele>767.5</ele><time>2026-04-25T11:40:42.285Z</time></trkpt><trkpt lat="45.4516962" lon="14.0298061"><ele>768.75</ele><time>2026-04-25T11:40:43.286Z</time></trkpt><trkpt lat="45.4517753" lon="14.0299283"><ele>770.0</ele><time>2026-04-25T11:40:44.283Z</time></trkpt><trkpt lat="45.4518565" lon="14.0300635"><ele>770.0</ele><time>2026-04-25T11:40:45.284Z</time></trkpt><trkpt lat="45.4519384" lon="14.0302019"><ele>770.0</ele><time>2026-04-25T11:40:46.285Z</time></trkpt><trkpt lat="45.4520027" lon="14.0303458"><ele>770.0</ele><time>2026-04-25T11:40:47.281Z</time></trkpt><trkpt lat="45.4520564" lon="14.03049"><ele>770.0</ele><time>2026-04-25T11:40:48.279Z</time></trkpt><trkpt lat="45.452103" lon="14.0306265"><ele>770.2</ele><time>2026-04-25T11:40:49.282Z</time></trkpt><trkpt lat="45.4521445" lon="14.0307523"><ele>770.4</ele><time>2026-04-25T11:40:50.287Z</time></trkpt><trkpt lat="45.4521922" lon="14.0308764"><ele>770.5999999999999</ele><time>2026-04-25T11:40:51.286Z</time></trkpt><trkpt lat="45.4522608" lon="14.0309909"><ele>770.8</ele><time>2026-04-25T11:40:52.295Z</time></trkpt><trkpt lat="45.4523513" lon="14.0311358"><ele>771.0</ele><time>2026-04-25T11:40:53.278Z</time></trkpt><trkpt lat="45.4524518" lon="14.0312648"><ele>771.0</ele><time>2026-04-25T11:40:54.296Z</time></trkpt><trkpt lat="45.4525393" lon="14.0313928"><ele>771.0</ele><time>2026-04-25T11:40:55.284Z</time></trkpt><trkpt lat="45.4526019" lon="14.0315556"><ele>771.0</ele><time>2026-04-25T11:40:56.282Z</time></trkpt><trkpt lat="45.4526288" lon="14.0317441"><ele>771.0</ele><time>2026-04-25T11:40:57.28Z</time></trkpt><trkpt lat="45.4526497" lon="14.0319579"><ele>768.75</ele><time>2026-04-25T11:40:58.281Z</time></trkpt><trkpt lat="45.4526651" lon="14.0321799"><ele>766.5</ele><time>2026-04-25T11:40:59.278Z</time></trkpt><trkpt lat="45.4526754" lon="14.0323834"><ele>764.25</ele><time>2026-04-25T11:41:00.284Z</time></trkpt><trkpt lat="45.4526861" lon="14.0325769"><ele>762.0</ele><time>2026-04-25T11:41:01.289Z</time></trkpt><trkpt lat="45.4526978" lon="14.0327536"><ele>761.8</ele><time>2026-04-25T11:41:02.284Z</time></trkpt><trkpt lat="45.4526974" lon="14.0329169"><ele>761.6</ele><time>2026-04-25T11:41:03.297Z</time></trkpt><trkpt lat="45.4526771" lon="14.0330654"><ele>761.4</ele><time>2026-04-25T11:41:04.292Z</time></trkpt><trkpt lat="45.4526367" lon="14.0331971"><ele>761.1999999999999</ele><time>2026-04-25T11:41:05.289Z</time></trkpt><trkpt lat="45.4525766" lon="14.0333144"><ele>761.0</ele><time>2026-04-25T11:41:06.284Z</time></trkpt><trkpt lat="45.4524993" lon="14.0333983"><ele>760.6666666666666</ele><time>2026-04-25T11:41:07.291Z</time></trkpt><trkpt lat="45.4524113" lon="14.0334414"><ele>760.3333333333333</ele><time>2026-04-25T11:41:08.285Z</time></trkpt><trkpt lat="45.4523243" lon="14.0334568"><ele>760.0</ele><time>2026-04-25T11:41:09.284Z</time></trkpt><trkpt lat="45.4522437" lon="14.0334746"><ele>759.6666666666666</ele><time>2026-04-25T11:41:10.284Z</time></trkpt><trkpt lat="45.4521804" lon="14.0335066"><ele>759.3333333333334</ele><time>2026-04-25T11:41:11.304Z</time></trkpt><trkpt lat="45.4521388" lon="14.0336406"><ele>759.0</ele><time>2026-04-25T11:41:13.287Z</time></trkpt><trkpt lat="45.4521775" lon="14.033744"><ele>759.0</ele><time>2026-04-25T11:41:14.289Z</time></trkpt><trkpt lat="45.4522418" lon="14.0338118"><ele>759.0</ele><time>2026-04-25T11:41:15.284Z</time></trkpt><trkpt lat="45.4523404" lon="14.0338697"><ele>759.0</ele><time>2026-04-25T11:41:16.291Z</time></trkpt><trkpt lat="45.4524476" lon="14.0339407"><ele>759.0</ele><time>2026-04-25T11:41:17.286Z</time></trkpt><trkpt lat="45.4525571" lon="14.0340249"><ele>759.0</ele><time>2026-04-25T11:41:18.3Z</time></trkpt><trkpt lat="45.4526611" lon="14.0340917"><ele>760.0</ele><time>2026-04-25T11:41:19.303Z</time></trkpt><trkpt lat="45.4527576" lon="14.0341626"><ele>761.0</ele><time>2026-04-25T11:41:20.302Z</time></trkpt><trkpt lat="45.4528497" lon="14.0342381"><ele>762.0</ele><time>2026-04-25T11:41:21.294Z</time></trkpt><trkpt lat="45.4529329" lon="14.0343125"><ele>763.0</ele><time>2026-04-25T11:41:22.301Z</time></trkpt><trkpt lat="45.4529977" lon="14.0344241"><ele>764.0</ele><time>2026-04-25T11:41:23.301Z</time></trkpt><trkpt lat="45.453036" lon="14.0345494"><ele>764.0</ele><time>2026-04-25T11:41:24.277Z</time></trkpt><trkpt lat="45.4530686" lon="14.0347041"><ele>764.0</ele><time>2026-04-25T11:41:25.293Z</time></trkpt><trkpt lat="45.4531038" lon="14.0348418"><ele>764.0</ele><time>2026-04-25T11:41:26.288Z</time></trkpt><trkpt lat="45.4531669" lon="14.0349612"><ele>764.0</ele><time>2026-04-25T11:41:27.299Z</time></trkpt><trkpt lat="45.4532502" lon="14.0350418"><ele>764.0</ele><time>2026-04-25T11:41:28.287Z</time></trkpt><trkpt lat="45.4533339" lon="14.0351115"><ele>761.6</ele><time>2026-04-25T11:41:29.28Z</time></trkpt><trkpt lat="45.4534136" lon="14.0351697"><ele>759.2</ele><time>2026-04-25T11:41:30.28Z</time></trkpt><trkpt lat="45.4534881" lon="14.0352389"><ele>756.8000000000001</ele><time>2026-04-25T11:41:31.292Z</time></trkpt><trkpt lat="45.4535729" lon="14.0353282"><ele>754.4000000000001</ele><time>2026-04-25T11:41:32.292Z</time></trkpt><trkpt lat="45.4536672" lon="14.0354276"><ele>752.0</ele><time>2026-04-25T11:41:33.294Z</time></trkpt><trkpt lat="45.453773" lon="14.0355352"><ele>750.75</ele><time>2026-04-25T11:41:34.282Z</time></trkpt><trkpt lat="45.4538811" lon="14.0356708"><ele>749.5</ele><time>2026-04-25T11:41:35.288Z</time></trkpt><trkpt lat="45.4539883" lon="14.0358217"><ele>748.25</ele><time>2026-04-25T11:41:36.289Z</time></trkpt><trkpt lat="45.4540772" lon="14.0359602"><ele>747.0</ele><time>2026-04-25T11:41:37.289Z</time></trkpt><trkpt lat="45.4541551" lon="14.0360592"><ele>747.0</ele><time>2026-04-25T11:41:38.282Z</time></trkpt><trkpt lat="45.4542292" lon="14.0361156"><ele>747.0</ele><time>2026-04-25T11:41:39.318Z</time></trkpt><trkpt lat="45.4543065" lon="14.0361457"><ele>747.0</ele><time>2026-04-25T11:41:40.293Z</time></trkpt><trkpt lat="45.4543932" lon="14.036116"><ele>747.0</ele><time>2026-04-25T11:41:41.294Z</time></trkpt><trkpt lat="45.4545012" lon="14.0360519"><ele>747.0</ele><time>2026-04-25T11:41:42.296Z</time></trkpt><trkpt lat="45.454617" lon="14.0359601"><ele>747.25</ele><time>2026-04-25T11:41:43.295Z</time></trkpt><trkpt lat="45.454727" lon="14.0358652"><ele>747.5</ele><time>2026-04-25T11:41:44.292Z</time></trkpt><trkpt lat="45.4548371" lon="14.0358001"><ele>747.75</ele><time>2026-04-25T11:41:45.3Z</time></trkpt><trkpt lat="45.4549421" lon="14.035777"><ele>748.0</ele><time>2026-04-25T11:41:46.303Z</time></trkpt><trkpt lat="45.4550381" lon="14.0357909"><ele>748.0</ele><time>2026-04-25T11:41:47.296Z</time></trkpt><trkpt lat="45.4551221" lon="14.0358513"><ele>748.0</ele><time>2026-04-25T11:41:48.29Z</time></trkpt><trkpt lat="45.4551934" lon="14.0359333"><ele>748.0</ele><time>2026-04-25T11:41:49.293Z</time></trkpt><trkpt lat="45.4552575" lon="14.0360496"><ele>748.0</ele><time>2026-04-25T11:41:50.292Z</time></trkpt><trkpt lat="45.4553187" lon="14.0361749"><ele>748.0</ele><time>2026-04-25T11:41:51.292Z</time></trkpt><trkpt lat="45.4553733" lon="14.0362682"><ele>748.0</ele><time>2026-04-25T11:41:52.31Z</time></trkpt><trkpt lat="45.45544" lon="14.0363132"><ele>748.0</ele><time>2026-04-25T11:41:53.296Z</time></trkpt><trkpt lat="45.4555125" lon="14.0363195"><ele>748.0</ele><time>2026-04-25T11:41:54.303Z</time></trkpt><trkpt lat="45.4556033" lon="14.0362629"><ele>748.0</ele><time>2026-04-25T11:41:55.293Z</time></trkpt><trkpt lat="45.4557147" lon="14.0361517"><ele>748.0</ele><time>2026-04-25T11:41:56.287Z</time></trkpt><trkpt lat="45.4558174" lon="14.0360412"><ele>747.8</ele><time>2026-04-25T11:41:57.277Z</time></trkpt><trkpt lat="45.4559185" lon="14.0359279"><ele>747.5999999999999</ele><time>2026-04-25T11:41:58.3Z</time></trkpt><trkpt lat="45.456011" lon="14.0358405"><ele>747.4000000000001</ele><time>2026-04-25T11:41:59.292Z</time></trkpt><trkpt lat="45.4561007" lon="14.0357787"><ele>747.2</ele><time>2026-04-25T11:42:00.285Z</time></trkpt><trkpt lat="45.4562029" lon="14.0357413"><ele>747.0</ele><time>2026-04-25T11:42:01.285Z</time></trkpt><trkpt lat="45.456318" lon="14.0357704"><ele>744.25</ele><time>2026-04-25T11:42:02.278Z</time></trkpt><trkpt lat="45.4564217" lon="14.0358248"><ele>741.5</ele><time>2026-04-25T11:42:03.285Z</time></trkpt><trkpt lat="45.4565333" lon="14.0358839"><ele>738.75</ele><time>2026-04-25T11:42:04.294Z</time></trkpt><trkpt lat="45.4566491" lon="14.0359221"><ele>736.0</ele><time>2026-04-25T11:42:05.286Z</time></trkpt><trkpt lat="45.4567685" lon="14.0359306"><ele>736.0</ele><time>2026-04-25T11:42:06.296Z</time></trkpt><trkpt lat="45.4568868" lon="14.0359223"><ele>736.0</ele><time>2026-04-25T11:42:07.301Z</time></trkpt><trkpt lat="45.4569989" lon="14.035896"><ele>736.0</ele><time>2026-04-25T11:42:08.293Z</time></trkpt><trkpt lat="45.457097" lon="14.0358579"><ele>736.0</ele><time>2026-04-25T11:42:09.302Z</time></trkpt><trkpt lat="45.4571814" lon="14.0357943"><ele>736.0</ele><time>2026-04-25T11:42:10.287Z</time></trkpt><trkpt lat="45.4572516" lon="14.0356785"><ele>735.25</ele><time>2026-04-25T11:42:11.29Z</time></trkpt><trkpt lat="45.4573166" lon="14.0355344"><ele>734.5</ele><time>2026-04-25T11:42:12.284Z</time></trkpt><trkpt lat="45.4573789" lon="14.035388"><ele>733.75</ele><time>2026-04-25T11:42:13.29Z</time></trkpt><trkpt lat="45.4574434" lon="14.0352436"><ele>733.0</ele><time>2026-04-25T11:42:14.294Z</time></trkpt><trkpt lat="45.4575216" lon="14.0350895"><ele>736.0</ele><time>2026-04-25T11:42:15.29Z</time></trkpt><trkpt lat="45.4576145" lon="14.034956"><ele>739.0</ele><time>2026-04-25T11:42:16.298Z</time></trkpt><trkpt lat="45.4577131" lon="14.0348344"><ele>742.0</ele><time>2026-04-25T11:42:17.304Z</time></trkpt><trkpt lat="45.4578115" lon="14.0347098"><ele>745.0</ele><time>2026-04-25T11:42:18.291Z</time></trkpt><trkpt lat="45.4578949" lon="14.0345899"><ele>741.5</ele><time>2026-04-25T11:42:19.298Z</time></trkpt><trkpt lat="45.4579788" lon="14.0344754"><ele>738.0</ele><time>2026-04-25T11:42:20.293Z</time></trkpt><trkpt lat="45.4580651" lon="14.0343576"><ele>734.5</ele><time>2026-04-25T11:42:21.29Z</time></trkpt><trkpt lat="45.4581547" lon="14.0342521"><ele>731.0</ele><time>2026-04-25T11:42:22.288Z</time></trkpt><trkpt lat="45.4582509" lon="14.0341619"><ele>733.8</ele><time>2026-04-25T11:42:23.292Z</time></trkpt><trkpt lat="45.4583517" lon="14.0340784"><ele>736.5999999999999</ele><time>2026-04-25T11:42:24.288Z</time></trkpt><trkpt lat="45.4584494" lon="14.0340233"><ele>739.4</ele><time>2026-04-25T11:42:25.29Z</time></trkpt><trkpt lat="45.4585523" lon="14.0340011"><ele>742.2</ele><time>2026-04-25T11:42:26.283Z</time></trkpt><trkpt lat="45.4586675" lon="14.0340135"><ele>745.0</ele><time>2026-04-25T11:42:27.275Z</time></trkpt><trkpt lat="45.458795" lon="14.0340246"><ele>745.0</ele><time>2026-04-25T11:42:28.292Z</time></trkpt><trkpt lat="45.4589286" lon="14.0340221"><ele>745.0</ele><time>2026-04-25T11:42:29.282Z</time></trkpt><trkpt lat="45.4590655" lon="14.0339889"><ele>745.0</ele><time>2026-04-25T11:42:30.288Z</time></trkpt><trkpt lat="45.4592049" lon="14.0339586"><ele>745.0</ele><time>2026-04-25T11:42:31.278Z</time></trkpt><trkpt lat="45.4593406" lon="14.0339264"><ele>745.0</ele><time>2026-04-25T11:42:32.275Z</time></trkpt><trkpt lat="45.4594712" lon="14.0338937"><ele>745.0</ele><time>2026-04-25T11:42:33.281Z</time></trkpt><trkpt lat="45.459602" lon="14.0338497"><ele>745.0</ele><time>2026-04-25T11:42:34.282Z</time></trkpt><trkpt lat="45.4597281" lon="14.0337972"><ele>745.0</ele><time>2026-04-25T11:42:35.293Z</time></trkpt><trkpt lat="45.4598505" lon="14.0337336"><ele>741.25</ele><time>2026-04-25T11:42:36.288Z</time></trkpt><trkpt lat="45.4599696" lon="14.0336642"><ele>737.5</ele><time>2026-04-25T11:42:37.277Z</time></trkpt><trkpt lat="45.4600832" lon="14.0335934"><ele>733.75</ele><time>2026-04-25T11:42:38.285Z</time></trkpt><trkpt lat="45.4601921" lon="14.0335214"><ele>730.0</ele><time>2026-04-25T11:42:39.288Z</time></trkpt><trkpt lat="45.460283" lon="14.0334597"><ele>730.0</ele><time>2026-04-25T11:42:40.28Z</time></trkpt><trkpt lat="45.4603596" lon="14.033405"><ele>730.0</ele><time>2026-04-25T11:42:41.29Z</time></trkpt><trkpt lat="45.460429" lon="14.0333415"><ele>730.0</ele><time>2026-04-25T11:42:42.284Z</time></trkpt><trkpt lat="45.4604811" lon="14.0332763"><ele>730.0</ele><time>2026-04-25T11:42:43.289Z</time></trkpt><trkpt lat="45.4605452" lon="14.0331866"><ele>730.0</ele><time>2026-04-25T11:42:45.284Z</time></trkpt><trkpt lat="45.4606017" lon="14.0331326"><ele>730.0</ele><time>2026-04-25T11:42:47.283Z</time></trkpt><trkpt lat="45.4606627" lon="14.033164"><ele>730.0</ele><time>2026-04-25T11:42:49.279Z</time></trkpt><trkpt lat="45.4606351" lon="14.0333072"><ele>730.0</ele><time>2026-04-25T11:42:51.278Z</time></trkpt><trkpt lat="45.4605858" lon="14.0333876"><ele>730.0</ele><time>2026-04-25T11:42:52.269Z</time></trkpt><trkpt lat="45.4605099" lon="14.0334866"><ele>730.0</ele><time>2026-04-25T11:42:53.287Z</time></trkpt><trkpt lat="45.4604257" lon="14.0335799"><ele>730.0</ele><time>2026-04-25T11:42:54.28Z</time></trkpt><trkpt lat="45.4603363" lon="14.0336793"><ele>730.0</ele><time>2026-04-25T11:42:55.291Z</time></trkpt><trkpt lat="45.4602385" lon="14.0337857"><ele>730.0</ele><time>2026-04-25T11:42:56.308Z</time></trkpt><trkpt lat="45.4601286" lon="14.0338819"><ele>730.0</ele><time>2026-04-25T11:42:57.282Z</time></trkpt><trkpt lat="45.4600077" lon="14.033981"><ele>730.0</ele><time>2026-04-25T11:42:58.277Z</time></trkpt><trkpt lat="45.4598759" lon="14.0340738"><ele>727.5</ele><time>2026-04-25T11:42:59.287Z</time></trkpt><trkpt lat="45.4597447" lon="14.0341675"><ele>725.0</ele><time>2026-04-25T11:43:00.289Z</time></trkpt><trkpt lat="45.4596176" lon="14.0342578"><ele>722.5</ele><time>2026-04-25T11:43:01.287Z</time></trkpt><trkpt lat="45.4594979" lon="14.0343324"><ele>720.0</ele><time>2026-04-25T11:43:02.282Z</time></trkpt><trkpt lat="45.4593923" lon="14.0344059"><ele>720.0</ele><time>2026-04-25T11:43:03.277Z</time></trkpt><trkpt lat="45.4592961" lon="14.0344851"><ele>720.0</ele><time>2026-04-25T11:43:04.282Z</time></trkpt><trkpt lat="45.4592074" lon="14.0345614"><ele>720.0</ele><time>2026-04-25T11:43:05.276Z</time></trkpt><trkpt lat="45.459122" lon="14.0346382"><ele>720.0</ele><time>2026-04-25T11:43:06.276Z</time></trkpt><trkpt lat="45.4590355" lon="14.03471"><ele>720.0</ele><time>2026-04-25T11:43:07.289Z</time></trkpt><trkpt lat="45.4589474" lon="14.0347726"><ele>720.0</ele><time>2026-04-25T11:43:08.281Z</time></trkpt><trkpt lat="45.4588535" lon="14.0348155"><ele>720.0</ele><time>2026-04-25T11:43:09.292Z</time></trkpt><trkpt lat="45.4587611" lon="14.0348482"><ele>720.0</ele><time>2026-04-25T11:43:10.283Z</time></trkpt><trkpt lat="45.4586691" lon="14.0348946"><ele>720.0</ele><time>2026-04-25T11:43:11.283Z</time></trkpt><trkpt lat="45.4585784" lon="14.0349675"><ele>720.0</ele><time>2026-04-25T11:43:12.301Z</time></trkpt><trkpt lat="45.4585023" lon="14.0350812"><ele>718.75</ele><time>2026-04-25T11:43:13.28Z</time></trkpt><trkpt lat="45.4584464" lon="14.0352443"><ele>717.5</ele><time>2026-04-25T11:43:14.284Z</time></trkpt><trkpt lat="45.4584092" lon="14.0354234"><ele>716.25</ele><time>2026-04-25T11:43:15.285Z</time></trkpt><trkpt lat="45.458393" lon="14.0356036"><ele>715.0</ele><time>2026-04-25T11:43:16.273Z</time></trkpt><trkpt lat="45.4583887" lon="14.0357813"><ele>712.5</ele><time>2026-04-25T11:43:17.27Z</time></trkpt><trkpt lat="45.4583984" lon="14.0359657"><ele>710.0</ele><time>2026-04-25T11:43:18.292Z</time></trkpt><trkpt lat="45.4584132" lon="14.0361371"><ele>707.5</ele><time>2026-04-25T11:43:19.284Z</time></trkpt><trkpt lat="45.4584181" lon="14.0363134"><ele>705.0</ele><time>2026-04-25T11:43:20.284Z</time></trkpt><trkpt lat="45.4584062" lon="14.0364873"><ele>703.5</ele><time>2026-04-25T11:43:21.279Z</time></trkpt><trkpt lat="45.458371" lon="14.0366651"><ele>702.0</ele><time>2026-04-25T11:43:22.289Z</time></trkpt><trkpt lat="45.4583214" lon="14.0368591"><ele>700.5</ele><time>2026-04-25T11:43:23.28Z</time></trkpt><trkpt lat="45.4582666" lon="14.0370419"><ele>699.0</ele><time>2026-04-25T11:43:24.281Z</time></trkpt><trkpt lat="45.4582041" lon="14.0372184"><ele>699.0</ele><time>2026-04-25T11:43:25.291Z</time></trkpt><trkpt lat="45.458133" lon="14.0373964"><ele>699.0</ele><time>2026-04-25T11:43:26.29Z</time></trkpt><trkpt lat="45.458067" lon="14.0375604"><ele>699.0</ele><time>2026-04-25T11:43:27.303Z</time></trkpt><trkpt lat="45.4580024" lon="14.0377095"><ele>699.0</ele><time>2026-04-25T11:43:28.29Z</time></trkpt><trkpt lat="45.4579433" lon="14.0378444"><ele>700.5</ele><time>2026-04-25T11:43:29.275Z</time></trkpt><trkpt lat="45.4578894" lon="14.0379849"><ele>702.0</ele><time>2026-04-25T11:43:30.277Z</time></trkpt><trkpt lat="45.4578379" lon="14.0381365"><ele>703.5</ele><time>2026-04-25T11:43:31.273Z</time></trkpt><trkpt lat="45.4577781" lon="14.0382929"><ele>705.0</ele><time>2026-04-25T11:43:32.279Z</time></trkpt><trkpt lat="45.4577109" lon="14.0384651"><ele>705.0</ele><time>2026-04-25T11:43:33.278Z</time></trkpt><trkpt lat="45.457646" lon="14.0386435"><ele>705.0</ele><time>2026-04-25T11:43:34.282Z</time></trkpt><trkpt lat="45.4575805" lon="14.0388333"><ele>705.0</ele><time>2026-04-25T11:43:35.28Z</time></trkpt><trkpt lat="45.4575166" lon="14.0390275"><ele>705.0</ele><time>2026-04-25T11:43:36.296Z</time></trkpt><trkpt lat="45.4574563" lon="14.0392268"><ele>703.0</ele><time>2026-04-25T11:43:37.279Z</time></trkpt><trkpt lat="45.4574004" lon="14.0394009"><ele>701.0</ele><time>2026-04-25T11:43:38.279Z</time></trkpt><trkpt lat="45.4573579" lon="14.0395518"><ele>699.0</ele><time>2026-04-25T11:43:39.284Z</time></trkpt><trkpt lat="45.457346" lon="14.0397017"><ele>697.0</ele><time>2026-04-25T11:43:40.279Z</time></trkpt><trkpt lat="45.4573655" lon="14.0398549"><ele>696.2</ele><time>2026-04-25T11:43:41.276Z</time></trkpt><trkpt lat="45.45741" lon="14.0400133"><ele>695.4000000000001</ele><time>2026-04-25T11:43:42.286Z</time></trkpt><trkpt lat="45.457441" lon="14.0401718"><ele>694.5999999999999</ele><time>2026-04-25T11:43:43.294Z</time></trkpt><trkpt lat="45.4574706" lon="14.0403211"><ele>693.8</ele><time>2026-04-25T11:43:44.296Z</time></trkpt><trkpt lat="45.4574879" lon="14.0404589"><ele>693.0</ele><time>2026-04-25T11:43:45.282Z</time></trkpt><trkpt lat="45.4574945" lon="14.0406116"><ele>693.0</ele><time>2026-04-25T11:43:46.292Z</time></trkpt><trkpt lat="45.4574542" lon="14.0407778"><ele>693.0</ele><time>2026-04-25T11:43:47.293Z</time></trkpt><trkpt lat="45.4574052" lon="14.0409298"><ele>693.0</ele><time>2026-04-25T11:43:48.274Z</time></trkpt><trkpt lat="45.4573412" lon="14.0410799"><ele>693.0</ele><time>2026-04-25T11:43:49.274Z</time></trkpt><trkpt lat="45.4572617" lon="14.0411992"><ele>693.75</ele><time>2026-04-25T11:43:50.271Z</time></trkpt><trkpt lat="45.4571636" lon="14.0412955"><ele>694.5</ele><time>2026-04-25T11:43:51.273Z</time></trkpt><trkpt lat="45.4570535" lon="14.0413777"><ele>695.25</ele><time>2026-04-25T11:43:52.269Z</time></trkpt><trkpt lat="45.4569337" lon="14.0414504"><ele>696.0</ele><time>2026-04-25T11:43:53.265Z</time></trkpt><trkpt lat="45.4568159" lon="14.0415217"><ele>696.0</ele><time>2026-04-25T11:43:54.267Z</time></trkpt><trkpt lat="45.4566943" lon="14.0415908"><ele>696.0</ele><time>2026-04-25T11:43:55.275Z</time></trkpt><trkpt lat="45.4565884" lon="14.0416687"><ele>696.0</ele><time>2026-04-25T11:43:56.271Z</time></trkpt><trkpt lat="45.4564961" lon="14.0417583"><ele>696.0</ele><time>2026-04-25T11:43:57.276Z</time></trkpt><trkpt lat="45.4564073" lon="14.0418722"><ele>695.75</ele><time>2026-04-25T11:43:58.27Z</time></trkpt><trkpt lat="45.4563407" lon="14.0420124"><ele>695.5</ele><time>2026-04-25T11:43:59.282Z</time></trkpt><trkpt lat="45.4562843" lon="14.0421927"><ele>695.25</ele><time>2026-04-25T11:44:00.272Z</time></trkpt><trkpt lat="45.4562234" lon="14.0423802"><ele>695.0</ele><time>2026-04-25T11:44:01.265Z</time></trkpt><trkpt lat="45.456167" lon="14.0425668"><ele>695.75</ele><time>2026-04-25T11:44:02.268Z</time></trkpt><trkpt lat="45.4561192" lon="14.042728"><ele>696.5</ele><time>2026-04-25T11:44:03.275Z</time></trkpt><trkpt lat="45.4560759" lon="14.0428791"><ele>697.25</ele><time>2026-04-25T11:44:04.271Z</time></trkpt><trkpt lat="45.4560492" lon="14.0430399"><ele>698.0</ele><time>2026-04-25T11:44:05.276Z</time></trkpt><trkpt lat="45.4560386" lon="14.0432244"><ele>698.3333333333333</ele><time>2026-04-25T11:44:06.277Z</time></trkpt><trkpt lat="45.4560453" lon="14.0434396"><ele>698.6666666666666</ele><time>2026-04-25T11:44:07.268Z</time></trkpt><trkpt lat="45.4560541" lon="14.043668"><ele>699.0</ele><time>2026-04-25T11:44:08.276Z</time></trkpt><trkpt lat="45.4560532" lon="14.0439142"><ele>697.3333333333334</ele><time>2026-04-25T11:44:09.274Z</time></trkpt><trkpt lat="45.4560382" lon="14.0441759"><ele>695.6666666666667</ele><time>2026-04-25T11:44:10.272Z</time></trkpt><trkpt lat="45.4560184" lon="14.0444497"><ele>694.0</ele><time>2026-04-25T11:44:11.274Z</time></trkpt><trkpt lat="45.4560032" lon="14.0447287"><ele>694.0</ele><time>2026-04-25T11:44:12.271Z</time></trkpt><trkpt lat="45.4559854" lon="14.0450095"><ele>694.0</ele><time>2026-04-25T11:44:13.281Z</time></trkpt><trkpt lat="45.4559635" lon="14.0452932"><ele>694.0</ele><time>2026-04-25T11:44:14.271Z</time></trkpt><trkpt lat="45.4559374" lon="14.0455761"><ele>694.6666666666667</ele><time>2026-04-25T11:44:15.275Z</time></trkpt><trkpt lat="45.4559124" lon="14.0458534"><ele>695.3333333333334</ele><time>2026-04-25T11:44:16.279Z</time></trkpt><trkpt lat="45.4558834" lon="14.0461184"><ele>696.0</ele><time>2026-04-25T11:44:17.28Z</time></trkpt><trkpt lat="45.4558596" lon="14.0463753"><ele>696.0</ele><time>2026-04-25T11:44:18.285Z</time></trkpt><trkpt lat="45.4558359" lon="14.0466105"><ele>696.0</ele><time>2026-04-25T11:44:19.277Z</time></trkpt><trkpt lat="45.4558108" lon="14.0468334"><ele>696.0</ele><time>2026-04-25T11:44:20.283Z</time></trkpt><trkpt lat="45.455772" lon="14.047066"><ele>697.0</ele><time>2026-04-25T11:44:21.279Z</time></trkpt><trkpt lat="45.4557267" lon="14.0472842"><ele>698.0</ele><time>2026-04-25T11:44:22.279Z</time></trkpt><trkpt lat="45.4556792" lon="14.0474766"><ele>699.0</ele><time>2026-04-25T11:44:23.28Z</time></trkpt><trkpt lat="45.4556279" lon="14.0476366"><ele>700.0</ele><time>2026-04-25T11:44:24.272Z</time></trkpt><trkpt lat="45.4555795" lon="14.0477776"><ele>701.3333333333334</ele><time>2026-04-25T11:44:25.282Z</time></trkpt><trkpt lat="45.4555188" lon="14.0478807"><ele>702.6666666666667</ele><time>2026-04-25T11:44:26.276Z</time></trkpt><trkpt lat="45.4554537" lon="14.0479381"><ele>704.0</ele><time>2026-04-25T11:44:27.281Z</time></trkpt><trkpt lat="45.4553586" lon="14.0479483"><ele>705.3333333333334</ele><time>2026-04-25T11:44:28.27Z</time></trkpt><trkpt lat="45.4552631" lon="14.047936"><ele>706.6666666666666</ele><time>2026-04-25T11:44:29.273Z</time></trkpt><trkpt lat="45.4551804" lon="14.0479421"><ele>708.0</ele><time>2026-04-25T11:44:30.265Z</time></trkpt><trkpt lat="45.4550966" lon="14.0479981"><ele>706.75</ele><time>2026-04-25T11:44:31.28Z</time></trkpt><trkpt lat="45.4550207" lon="14.0481096"><ele>705.5</ele><time>2026-04-25T11:44:32.275Z</time></trkpt><trkpt lat="45.4549564" lon="14.0482654"><ele>704.25</ele><time>2026-04-25T11:44:33.267Z</time></trkpt><trkpt lat="45.454891" lon="14.0484384"><ele>703.0</ele><time>2026-04-25T11:44:34.264Z</time></trkpt><trkpt lat="45.4548292" lon="14.0486251"><ele>703.0</ele><time>2026-04-25T11:44:35.262Z</time></trkpt><trkpt lat="45.4547656" lon="14.0488153"><ele>703.0</ele><time>2026-04-25T11:44:36.284Z</time></trkpt><trkpt lat="45.4546927" lon="14.0489993"><ele>703.0</ele><time>2026-04-25T11:44:37.271Z</time></trkpt><trkpt lat="45.4546137" lon="14.0491728"><ele>703.0</ele><time>2026-04-25T11:44:38.272Z</time></trkpt><trkpt lat="45.4545245" lon="14.0493413"><ele>701.25</ele><time>2026-04-25T11:44:39.273Z</time></trkpt><trkpt lat="45.4544214" lon="14.0494874"><ele>699.5</ele><time>2026-04-25T11:44:40.271Z</time></trkpt><trkpt lat="45.4543076" lon="14.0496085"><ele>697.75</ele><time>2026-04-25T11:44:41.276Z</time></trkpt><trkpt lat="45.4542014" lon="14.0497317"><ele>696.0</ele><time>2026-04-25T11:44:42.268Z</time></trkpt><trkpt lat="45.4541024" lon="14.0498657"><ele>695.25</ele><time>2026-04-25T11:44:43.274Z</time></trkpt><trkpt lat="45.4540047" lon="14.0500121"><ele>694.5</ele><time>2026-04-25T11:44:44.271Z</time></trkpt><trkpt lat="45.4539156" lon="14.0501707"><ele>693.75</ele><time>2026-04-25T11:44:45.286Z</time></trkpt><trkpt lat="45.4538331" lon="14.0503489"><ele>693.0</ele><time>2026-04-25T11:44:46.271Z</time></trkpt><trkpt lat="45.4537785" lon="14.0505202"><ele>693.0</ele><time>2026-04-25T11:44:47.269Z</time></trkpt><trkpt lat="45.4537419" lon="14.0506725"><ele>693.0</ele><time>2026-04-25T11:44:48.277Z</time></trkpt><trkpt lat="45.4537129" lon="14.0508003"><ele>693.0</ele><time>2026-04-25T11:44:49.276Z</time></trkpt><trkpt lat="45.4536803" lon="14.0509127"><ele>693.0</ele><time>2026-04-25T11:44:50.272Z</time></trkpt><trkpt lat="45.453628" lon="14.0510173"><ele>693.0</ele><time>2026-04-25T11:44:51.272Z</time></trkpt><trkpt lat="45.4535488" lon="14.0510968"><ele>694.5999999999999</ele><time>2026-04-25T11:44:52.279Z</time></trkpt><trkpt lat="45.453464" lon="14.0511421"><ele>696.1999999999999</ele><time>2026-04-25T11:44:53.278Z</time></trkpt><trkpt lat="45.4533795" lon="14.0511713"><ele>697.8</ele><time>2026-04-25T11:44:54.264Z</time></trkpt><trkpt lat="45.4533105" lon="14.0512344"><ele>699.4</ele><time>2026-04-25T11:44:55.271Z</time></trkpt><trkpt lat="45.4532738" lon="14.051378"><ele>701.0</ele><time>2026-04-25T11:44:56.277Z</time></trkpt><trkpt lat="45.4532571" lon="14.051541"><ele>703.0</ele><time>2026-04-25T11:44:57.265Z</time></trkpt><trkpt lat="45.4532379" lon="14.051726"><ele>705.0</ele><time>2026-04-25T11:44:58.265Z</time></trkpt><trkpt lat="45.4532194" lon="14.0519091"><ele>707.0</ele><time>2026-04-25T11:44:59.271Z</time></trkpt><trkpt lat="45.4531922" lon="14.0521132"><ele>709.0</ele><time>2026-04-25T11:45:00.27Z</time></trkpt><trkpt lat="45.4531673" lon="14.052306"><ele>709.75</ele><time>2026-04-25T11:45:01.278Z</time></trkpt><trkpt lat="45.4531421" lon="14.0525016"><ele>710.5</ele><time>2026-04-25T11:45:02.279Z</time></trkpt><trkpt lat="45.4531106" lon="14.0526888"><ele>711.25</ele><time>2026-04-25T11:45:03.273Z</time></trkpt><trkpt lat="45.4530697" lon="14.0528634"><ele>712.0</ele><time>2026-04-25T11:45:04.27Z</time></trkpt><trkpt lat="45.4530271" lon="14.0530311"><ele>712.0</ele><time>2026-04-25T11:45:05.268Z</time></trkpt><trkpt lat="45.4529859" lon="14.0531989"><ele>712.0</ele><time>2026-04-25T11:45:06.277Z</time></trkpt><trkpt lat="45.45295" lon="14.0533526"><ele>712.0</ele><time>2026-04-25T11:45:07.275Z</time></trkpt><trkpt lat="45.4529157" lon="14.0534806"><ele>712.0</ele><time>2026-04-25T11:45:08.277Z</time></trkpt><trkpt lat="45.4528764" lon="14.053597"><ele>712.0</ele><time>2026-04-25T11:45:09.283Z</time></trkpt><trkpt lat="45.4528236" lon="14.053691"><ele>707.4000000000001</ele><time>2026-04-25T11:45:10.302Z</time></trkpt><trkpt lat="45.4527503" lon="14.0537728"><ele>702.8000000000001</ele><time>2026-04-25T11:45:11.273Z</time></trkpt><trkpt lat="45.4526832" lon="14.053851"><ele>698.2</ele><time>2026-04-25T11:45:12.285Z</time></trkpt><trkpt lat="45.4526207" lon="14.0539811"><ele>693.6</ele><time>2026-04-25T11:45:13.286Z</time></trkpt><trkpt lat="45.4525722" lon="14.0541401"><ele>689.0</ele><time>2026-04-25T11:45:14.281Z</time></trkpt><trkpt lat="45.452534" lon="14.0543178"><ele>688.75</ele><time>2026-04-25T11:45:15.283Z</time></trkpt><trkpt lat="45.4524881" lon="14.054488"><ele>688.5</ele><time>2026-04-25T11:45:16.286Z</time></trkpt><trkpt lat="45.4524221" lon="14.0546594"><ele>688.25</ele><time>2026-04-25T11:45:17.283Z</time></trkpt><trkpt lat="45.4523545" lon="14.0548215"><ele>688.0</ele><time>2026-04-25T11:45:18.287Z</time></trkpt><trkpt lat="45.4522935" lon="14.0549882"><ele>688.5</ele><time>2026-04-25T11:45:19.286Z</time></trkpt><trkpt lat="45.4522312" lon="14.05514"><ele>689.0</ele><time>2026-04-25T11:45:20.288Z</time></trkpt><trkpt lat="45.4521646" lon="14.0552875"><ele>689.5</ele><time>2026-04-25T11:45:21.286Z</time></trkpt><trkpt lat="45.4520833" lon="14.0554333"><ele>690.0</ele><time>2026-04-25T11:45:22.285Z</time></trkpt><trkpt lat="45.451988" lon="14.0555762"><ele>686.0</ele><time>2026-04-25T11:45:23.28Z</time></trkpt><trkpt lat="45.451888" lon="14.0557309"><ele>682.0</ele><time>2026-04-25T11:45:24.277Z</time></trkpt><trkpt lat="45.4517776" lon="14.0558914"><ele>678.0</ele><time>2026-04-25T11:45:25.297Z</time></trkpt><trkpt lat="45.4516704" lon="14.0560571"><ele>678.0</ele><time>2026-04-25T11:45:26.276Z</time></trkpt><trkpt lat="45.4515679" lon="14.056207"><ele>678.0</ele><time>2026-04-25T11:45:27.284Z</time></trkpt><trkpt lat="45.4514579" lon="14.0563453"><ele>678.0</ele><time>2026-04-25T11:45:28.269Z</time></trkpt><trkpt lat="45.4513349" lon="14.0564613"><ele>678.0</ele><time>2026-04-25T11:45:29.278Z</time></trkpt><trkpt lat="45.4511857" lon="14.0565632"><ele>679.0</ele><time>2026-04-25T11:45:30.267Z</time></trkpt><trkpt lat="45.4510312" lon="14.0566571"><ele>680.0</ele><time>2026-04-25T11:45:31.271Z</time></trkpt><trkpt lat="45.450879" lon="14.0567579"><ele>681.0</ele><time>2026-04-25T11:45:32.27Z</time></trkpt><trkpt lat="45.4507317" lon="14.0568486"><ele>681.0</ele><time>2026-04-25T11:45:33.27Z</time></trkpt><trkpt lat="45.4505967" lon="14.0569338"><ele>681.0</ele><time>2026-04-25T11:45:34.286Z</time></trkpt><trkpt lat="45.4504784" lon="14.0570049"><ele>681.0</ele><time>2026-04-25T11:45:35.279Z</time></trkpt><trkpt lat="45.4503655" lon="14.0570665"><ele>681.0</ele><time>2026-04-25T11:45:36.267Z</time></trkpt><trkpt lat="45.4502697" lon="14.0571383"><ele>680.8333333333334</ele><time>2026-04-25T11:45:37.273Z</time></trkpt><trkpt lat="45.4502041" lon="14.0572326"><ele>680.6666666666666</ele><time>2026-04-25T11:45:38.269Z</time></trkpt><trkpt lat="45.4501411" lon="14.057355"><ele>680.5</ele><time>2026-04-25T11:45:39.272Z</time></trkpt><trkpt lat="45.4500949" lon="14.0574628"><ele>680.3333333333333</ele><time>2026-04-25T11:45:40.272Z</time></trkpt><trkpt lat="45.4500533" lon="14.0575585"><ele>680.1666666666666</ele><time>2026-04-25T11:45:41.275Z</time></trkpt><trkpt lat="45.450003" lon="14.0576479"><ele>680.0</ele><time>2026-04-25T11:45:42.276Z</time></trkpt><trkpt lat="45.4499614" lon="14.0577479"><ele>680.6666666666666</ele><time>2026-04-25T11:45:43.274Z</time></trkpt><trkpt lat="45.4499216" lon="14.0578387"><ele>681.3333333333333</ele><time>2026-04-25T11:45:44.268Z</time></trkpt><trkpt lat="45.4498803" lon="14.0579425"><ele>682.0</ele><time>2026-04-25T11:45:45.279Z</time></trkpt><trkpt lat="45.4498526" lon="14.0580781"><ele>682.6666666666666</ele><time>2026-04-25T11:45:46.274Z</time></trkpt><trkpt lat="45.4498296" lon="14.0581974"><ele>683.3333333333334</ele><time>2026-04-25T11:45:47.273Z</time></trkpt><trkpt lat="45.4497926" lon="14.0583152"><ele>684.0</ele><time>2026-04-25T11:45:48.284Z</time></trkpt><trkpt lat="45.4497474" lon="14.0584308"><ele>684.0</ele><time>2026-04-25T11:45:49.27Z</time></trkpt><trkpt lat="45.449707" lon="14.0585394"><ele>684.0</ele><time>2026-04-25T11:45:50.271Z</time></trkpt><trkpt lat="45.4496778" lon="14.0586419"><ele>684.0</ele><time>2026-04-25T11:45:51.27Z</time></trkpt><trkpt lat="45.4496557" lon="14.0587342"><ele>684.0</ele><time>2026-04-25T11:45:52.273Z</time></trkpt><trkpt lat="45.4496637" lon="14.0589084"><ele>684.0</ele><time>2026-04-25T11:45:54.269Z</time></trkpt><trkpt lat="45.4497182" lon="14.0589802"><ele>684.0</ele><time>2026-04-25T11:45:55.275Z</time></trkpt><trkpt lat="45.4497819" lon="14.0590467"><ele>683.6666666666666</ele><time>2026-04-25T11:45:56.269Z</time></trkpt><trkpt lat="45.4498238" lon="14.0591276"><ele>683.3333333333334</ele><time>2026-04-25T11:45:57.272Z</time></trkpt><trkpt lat="45.4498378" lon="14.0592246"><ele>683.0</ele><time>2026-04-25T11:45:58.275Z</time></trkpt><trkpt lat="45.4498387" lon="14.0593195"><ele>682.6666666666667</ele><time>2026-04-25T11:45:59.28Z</time></trkpt><trkpt lat="45.4498089" lon="14.0594332"><ele>682.3333333333334</ele><time>2026-04-25T11:46:00.267Z</time></trkpt><trkpt lat="45.449758" lon="14.0595436"><ele>682.0</ele><time>2026-04-25T11:46:01.279Z</time></trkpt><trkpt lat="45.44969" lon="14.0596642"><ele>681.0</ele><time>2026-04-25T11:46:02.268Z</time></trkpt><trkpt lat="45.44962" lon="14.0597962"><ele>680.0</ele><time>2026-04-25T11:46:03.27Z</time></trkpt><trkpt lat="45.4495344" lon="14.0599512"><ele>679.0</ele><time>2026-04-25T11:46:04.272Z</time></trkpt><trkpt lat="45.4494403" lon="14.0601179"><ele>678.0</ele><time>2026-04-25T11:46:05.279Z</time></trkpt><trkpt lat="45.4493391" lon="14.060285"><ele>675.0</ele><time>2026-04-25T11:46:06.266Z</time></trkpt><trkpt lat="45.4492382" lon="14.0604361"><ele>672.0</ele><time>2026-04-25T11:46:07.286Z</time></trkpt><trkpt lat="45.4491168" lon="14.0605814"><ele>669.0</ele><time>2026-04-25T11:46:08.278Z</time></trkpt><trkpt lat="45.4489943" lon="14.0607143"><ele>667.75</ele><time>2026-04-25T11:46:09.278Z</time></trkpt><trkpt lat="45.4488696" lon="14.060839"><ele>666.5</ele><time>2026-04-25T11:46:10.281Z</time></trkpt><trkpt lat="45.44875" lon="14.0609564"><ele>665.25</ele><time>2026-04-25T11:46:11.284Z</time></trkpt><trkpt lat="45.4486335" lon="14.0610654"><ele>664.0</ele><time>2026-04-25T11:46:12.282Z</time></trkpt><trkpt lat="45.4485174" lon="14.0611658"><ele>664.0</ele><time>2026-04-25T11:46:13.29Z</time></trkpt><trkpt lat="45.4484021" lon="14.0612581"><ele>664.0</ele><time>2026-04-25T11:46:14.277Z</time></trkpt><trkpt lat="45.4482855" lon="14.0613267"><ele>664.0</ele><time>2026-04-25T11:46:15.278Z</time></trkpt><trkpt lat="45.448155" lon="14.0613871"><ele>664.0</ele><time>2026-04-25T11:46:16.288Z</time></trkpt><trkpt lat="45.4480184" lon="14.0614548"><ele>663.3333333333334</ele><time>2026-04-25T11:46:17.294Z</time></trkpt><trkpt lat="45.4478822" lon="14.0615564"><ele>662.6666666666666</ele><time>2026-04-25T11:46:18.281Z</time></trkpt><trkpt lat="45.4477437" lon="14.0616781"><ele>662.0</ele><time>2026-04-25T11:46:19.289Z</time></trkpt><trkpt lat="45.4475957" lon="14.0618189"><ele>662.0</ele><time>2026-04-25T11:46:20.284Z</time></trkpt><trkpt lat="45.447448" lon="14.0619735"><ele>662.0</ele><time>2026-04-25T11:46:21.291Z</time></trkpt><trkpt lat="45.4472941" lon="14.0621312"><ele>662.0</ele><time>2026-04-25T11:46:22.288Z</time></trkpt><trkpt lat="45.4471407" lon="14.0623053"><ele>661.3333333333333</ele><time>2026-04-25T11:46:23.286Z</time></trkpt><trkpt lat="45.4469878" lon="14.0624787"><ele>660.6666666666666</ele><time>2026-04-25T11:46:24.29Z</time></trkpt><trkpt lat="45.4468418" lon="14.062653"><ele>660.0</ele><time>2026-04-25T11:46:25.284Z</time></trkpt><trkpt lat="45.4467021" lon="14.0628172"><ele>660.0</ele><time>2026-04-25T11:46:26.297Z</time></trkpt><trkpt lat="45.4465663" lon="14.0629759"><ele>660.0</ele><time>2026-04-25T11:46:27.282Z</time></trkpt><trkpt lat="45.4464336" lon="14.0631362"><ele>660.0</ele><time>2026-04-25T11:46:28.28Z</time></trkpt><trkpt lat="45.4463068" lon="14.0632959"><ele>662.0</ele><time>2026-04-25T11:46:29.279Z</time></trkpt><trkpt lat="45.4461781" lon="14.0634549"><ele>664.0</ele><time>2026-04-25T11:46:30.286Z</time></trkpt><trkpt lat="45.4460568" lon="14.0636178"><ele>666.0</ele><time>2026-04-25T11:46:31.28Z</time></trkpt><trkpt lat="45.4459385" lon="14.0637699"><ele>666.0</ele><time>2026-04-25T11:46:32.277Z</time></trkpt><trkpt lat="45.4458273" lon="14.0639305"><ele>666.0</ele><time>2026-04-25T11:46:33.275Z</time></trkpt><trkpt lat="45.4457172" lon="14.0641071"><ele>666.0</ele><time>2026-04-25T11:46:34.279Z</time></trkpt><trkpt lat="45.4456203" lon="14.0643011"><ele>667.6666666666666</ele><time>2026-04-25T11:46:35.284Z</time></trkpt><trkpt lat="45.4455266" lon="14.0644841"><ele>669.3333333333333</ele><time>2026-04-25T11:46:36.276Z</time></trkpt><trkpt lat="45.4454349" lon="14.0646547"><ele>671.0</ele><time>2026-04-25T11:46:37.28Z</time></trkpt><trkpt lat="45.4453458" lon="14.064837"><ele>668.3333333333333</ele><time>2026-04-25T11:46:38.275Z</time></trkpt><trkpt lat="45.4452567" lon="14.065037"><ele>665.6666666666666</ele><time>2026-04-25T11:46:39.271Z</time></trkpt><trkpt lat="45.4451799" lon="14.065246"><ele>663.0</ele><time>2026-04-25T11:46:40.279Z</time></trkpt><trkpt lat="45.4451153" lon="14.0654746"><ele>663.0</ele><time>2026-04-25T11:46:41.27Z</time></trkpt><trkpt lat="45.4450506" lon="14.0657098"><ele>663.0</ele><time>2026-04-25T11:46:42.274Z</time></trkpt><trkpt lat="45.4449854" lon="14.0659467"><ele>663.0</ele><time>2026-04-25T11:46:43.274Z</time></trkpt><trkpt lat="45.4449207" lon="14.0661755"><ele>659.6666666666666</ele><time>2026-04-25T11:46:44.284Z</time></trkpt><trkpt lat="45.4448555" lon="14.0663822"><ele>656.3333333333333</ele><time>2026-04-25T11:46:45.282Z</time></trkpt><trkpt lat="45.4447939" lon="14.0665765"><ele>653.0</ele><time>2026-04-25T11:46:46.272Z</time></trkpt><trkpt lat="45.4447292" lon="14.0667584"><ele>651.5</ele><time>2026-04-25T11:46:47.278Z</time></trkpt><trkpt lat="45.4446766" lon="14.066932"><ele>650.0</ele><time>2026-04-25T11:46:48.275Z</time></trkpt><trkpt lat="45.4446415" lon="14.067108"><ele>648.5</ele><time>2026-04-25T11:46:49.282Z</time></trkpt><trkpt lat="45.4446296" lon="14.0672869"><ele>647.0</ele><time>2026-04-25T11:46:50.273Z</time></trkpt><trkpt lat="45.4446281" lon="14.0674626"><ele>646.5</ele><time>2026-04-25T11:46:51.28Z</time></trkpt><trkpt lat="45.4446335" lon="14.0676232"><ele>646.0</ele><time>2026-04-25T11:46:52.277Z</time></trkpt><trkpt lat="45.4446408" lon="14.0677779"><ele>645.5</ele><time>2026-04-25T11:46:53.28Z</time></trkpt><trkpt lat="45.444629" lon="14.0679413"><ele>645.0</ele><time>2026-04-25T11:46:54.284Z</time></trkpt><trkpt lat="45.4445994" lon="14.0681123"><ele>647.25</ele><time>2026-04-25T11:46:55.284Z</time></trkpt><trkpt lat="45.4445526" lon="14.0683013"><ele>649.5</ele><time>2026-04-25T11:46:56.283Z</time></trkpt><trkpt lat="45.4444956" lon="14.06849"><ele>651.75</ele><time>2026-04-25T11:46:57.285Z</time></trkpt><trkpt lat="45.4444145" lon="14.0686942"><ele>654.0</ele><time>2026-04-25T11:46:58.286Z</time></trkpt><trkpt lat="45.4443326" lon="14.0688982"><ele>653.0</ele><time>2026-04-25T11:46:59.288Z</time></trkpt><trkpt lat="45.4442428" lon="14.0691107"><ele>652.0</ele><time>2026-04-25T11:47:00.287Z</time></trkpt><trkpt lat="45.4441526" lon="14.0693283"><ele>651.0</ele><time>2026-04-25T11:47:01.297Z</time></trkpt><trkpt lat="45.4440498" lon="14.0695472"><ele>651.0</ele><time>2026-04-25T11:47:02.286Z</time></trkpt><trkpt lat="45.4439404" lon="14.0697804"><ele>651.0</ele><time>2026-04-25T11:47:03.291Z</time></trkpt><trkpt lat="45.4438252" lon="14.0700104"><ele>651.0</ele><time>2026-04-25T11:47:04.275Z</time></trkpt><trkpt lat="45.4437066" lon="14.0702341"><ele>652.0</ele><time>2026-04-25T11:47:05.303Z</time></trkpt><trkpt lat="45.4435854" lon="14.0704579"><ele>653.0</ele><time>2026-04-25T11:47:06.285Z</time></trkpt><trkpt lat="45.4434639" lon="14.0706765"><ele>654.0</ele><time>2026-04-25T11:47:07.287Z</time></trkpt><trkpt lat="45.443346" lon="14.0708957"><ele>654.0</ele><time>2026-04-25T11:47:08.284Z</time></trkpt><trkpt lat="45.4432264" lon="14.0711152"><ele>654.0</ele><time>2026-04-25T11:47:09.297Z</time></trkpt><trkpt lat="45.4431099" lon="14.0713368"><ele>654.0</ele><time>2026-04-25T11:47:10.297Z</time></trkpt><trkpt lat="45.4429892" lon="14.0715634"><ele>656.3333333333334</ele><time>2026-04-25T11:47:11.287Z</time></trkpt><trkpt lat="45.4428689" lon="14.0717877"><ele>658.6666666666667</ele><time>2026-04-25T11:47:12.303Z</time></trkpt><trkpt lat="45.4427532" lon="14.0720083"><ele>661.0</ele><time>2026-04-25T11:47:13.281Z</time></trkpt><trkpt lat="45.4426441" lon="14.072226"><ele>661.0</ele><time>2026-04-25T11:47:14.288Z</time></trkpt><trkpt lat="45.4425356" lon="14.0724356"><ele>661.0</ele><time>2026-04-25T11:47:15.287Z</time></trkpt><trkpt lat="45.4424281" lon="14.0726416"><ele>661.0</ele><time>2026-04-25T11:47:16.304Z</time></trkpt><trkpt lat="45.4423179" lon="14.0728482"><ele>661.0</ele><time>2026-04-25T11:47:17.294Z</time></trkpt><trkpt lat="45.4422071" lon="14.0730589"><ele>661.0</ele><time>2026-04-25T11:47:18.293Z</time></trkpt><trkpt lat="45.4420904" lon="14.0732639"><ele>661.0</ele><time>2026-04-25T11:47:19.3Z</time></trkpt><trkpt lat="45.4419744" lon="14.0734803"><ele>662.3333333333334</ele><time>2026-04-25T11:47:20.291Z</time></trkpt><trkpt lat="45.441862" lon="14.073685"><ele>663.6666666666666</ele><time>2026-04-25T11:47:21.289Z</time></trkpt><trkpt lat="45.4417516" lon="14.0738921"><ele>665.0</ele><time>2026-04-25T11:47:22.289Z</time></trkpt><trkpt lat="45.4416494" lon="14.0740856"><ele>665.3333333333333</ele><time>2026-04-25T11:47:23.287Z</time></trkpt><trkpt lat="45.4415531" lon="14.0742678"><ele>665.6666666666666</ele><time>2026-04-25T11:47:24.294Z</time></trkpt><trkpt lat="45.4414614" lon="14.0744394"><ele>666.0</ele><time>2026-04-25T11:47:25.298Z</time></trkpt><trkpt lat="45.4413744" lon="14.0745925"><ele>665.75</ele><time>2026-04-25T11:47:26.295Z</time></trkpt><trkpt lat="45.4412872" lon="14.0747424"><ele>665.5</ele><time>2026-04-25T11:47:27.303Z</time></trkpt><trkpt lat="45.4411988" lon="14.074884"><ele>665.25</ele><time>2026-04-25T11:47:28.292Z</time></trkpt><trkpt lat="45.4411016" lon="14.0750304"><ele>665.0</ele><time>2026-04-25T11:47:29.315Z</time></trkpt><trkpt lat="45.4409953" lon="14.0751689"><ele>666.0</ele><time>2026-04-25T11:47:30.3Z</time></trkpt><trkpt lat="45.4408755" lon="14.0753076"><ele>667.0</ele><time>2026-04-25T11:47:31.309Z</time></trkpt><trkpt lat="45.4407449" lon="14.0754491"><ele>668.0</ele><time>2026-04-25T11:47:32.301Z</time></trkpt><trkpt lat="45.44061" lon="14.0755889"><ele>668.0</ele><time>2026-04-25T11:47:33.31Z</time></trkpt><trkpt lat="45.44047" lon="14.075738"><ele>668.0</ele><time>2026-04-25T11:47:34.288Z</time></trkpt><trkpt lat="45.4403252" lon="14.075887"><ele>668.0</ele><time>2026-04-25T11:47:35.295Z</time></trkpt><trkpt lat="45.4401756" lon="14.0760376"><ele>668.6666666666666</ele><time>2026-04-25T11:47:36.3Z</time></trkpt><trkpt lat="45.4400309" lon="14.0761965"><ele>669.3333333333334</ele><time>2026-04-25T11:47:37.3Z</time></trkpt><trkpt lat="45.4398882" lon="14.0763624"><ele>670.0</ele><time>2026-04-25T11:47:38.288Z</time></trkpt><trkpt lat="45.4397464" lon="14.0765136"><ele>671.0</ele><time>2026-04-25T11:47:39.295Z</time></trkpt><trkpt lat="45.4396075" lon="14.0766526"><ele>672.0</ele><time>2026-04-25T11:47:40.296Z</time></trkpt><trkpt lat="45.4394806" lon="14.0767759"><ele>673.0</ele><time>2026-04-25T11:47:41.292Z</time></trkpt><trkpt lat="45.4393641" lon="14.0768947"><ele>673.0</ele><time>2026-04-25T11:47:42.287Z</time></trkpt><trkpt lat="45.4392472" lon="14.0770068"><ele>673.0</ele><time>2026-04-25T11:47:43.297Z</time></trkpt><trkpt lat="45.4391393" lon="14.0771124"><ele>673.0</ele><time>2026-04-25T11:47:44.282Z</time></trkpt><trkpt lat="45.4390365" lon="14.0772043"><ele>673.0</ele><time>2026-04-25T11:47:45.297Z</time></trkpt><trkpt lat="45.4389406" lon="14.0772773"><ele>673.0</ele><time>2026-04-25T11:47:46.289Z</time></trkpt><trkpt lat="45.4388518" lon="14.0773125"><ele>673.0</ele><time>2026-04-25T11:47:47.293Z</time></trkpt><trkpt lat="45.438755" lon="14.0773162"><ele>673.0</ele><time>2026-04-25T11:47:48.276Z</time></trkpt><trkpt lat="45.4386623" lon="14.0772745"><ele>673.0</ele><time>2026-04-25T11:47:49.277Z</time></trkpt><trkpt lat="45.4385689" lon="14.0772117"><ele>673.0</ele><time>2026-04-25T11:47:50.29Z</time></trkpt><trkpt lat="45.4384626" lon="14.0771332"><ele>673.25</ele><time>2026-04-25T11:47:51.279Z</time></trkpt><trkpt lat="45.4383437" lon="14.0770637"><ele>673.5</ele><time>2026-04-25T11:47:52.295Z</time></trkpt><trkpt lat="45.4382187" lon="14.0769976"><ele>673.75</ele><time>2026-04-25T11:47:53.287Z</time></trkpt><trkpt lat="45.4380902" lon="14.0769327"><ele>674.0</ele><time>2026-04-25T11:47:54.298Z</time></trkpt><trkpt lat="45.4379694" lon="14.0768686"><ele>674.8000000000001</ele><time>2026-04-25T11:47:55.297Z</time></trkpt><trkpt lat="45.4378622" lon="14.0768175"><ele>675.6</ele><time>2026-04-25T11:47:56.292Z</time></trkpt><trkpt lat="45.4377658" lon="14.0767756"><ele>676.4</ele><time>2026-04-25T11:47:57.287Z</time></trkpt><trkpt lat="45.4376658" lon="14.0767661"><ele>677.2</ele><time>2026-04-25T11:47:58.291Z</time></trkpt><trkpt lat="45.4375705" lon="14.0767808"><ele>678.0</ele><time>2026-04-25T11:47:59.283Z</time></trkpt><trkpt lat="45.4374814" lon="14.0768429"><ele>678.0</ele><time>2026-04-25T11:48:00.286Z</time></trkpt><trkpt lat="45.4374235" lon="14.0769797"><ele>678.0</ele><time>2026-04-25T11:48:01.289Z</time></trkpt><trkpt lat="45.4373835" lon="14.0771371"><ele>678.0</ele><time>2026-04-25T11:48:02.282Z</time></trkpt><trkpt lat="45.4373354" lon="14.077294"><ele>678.0</ele><time>2026-04-25T11:48:03.284Z</time></trkpt><trkpt lat="45.4372724" lon="14.0774468"><ele>677.5</ele><time>2026-04-25T11:48:04.303Z</time></trkpt><trkpt lat="45.4371869" lon="14.0775879"><ele>677.0</ele><time>2026-04-25T11:48:05.293Z</time></trkpt><trkpt lat="45.4370926" lon="14.07774"><ele>676.5</ele><time>2026-04-25T11:48:06.284Z</time></trkpt><trkpt lat="45.4369745" lon="14.0779135"><ele>676.0</ele><time>2026-04-25T11:48:07.287Z</time></trkpt><trkpt lat="45.4368534" lon="14.0781008"><ele>677.6666666666667</ele><time>2026-04-25T11:48:08.282Z</time></trkpt><trkpt lat="45.436727" lon="14.0782867"><ele>679.3333333333334</ele><time>2026-04-25T11:48:09.276Z</time></trkpt><trkpt lat="45.436606" lon="14.0784832"><ele>681.0</ele><time>2026-04-25T11:48:10.28Z</time></trkpt><trkpt lat="45.4364818" lon="14.078667"><ele>681.0</ele><time>2026-04-25T11:48:11.287Z</time></trkpt><trkpt lat="45.4363669" lon="14.0788628"><ele>681.0</ele><time>2026-04-25T11:48:12.283Z</time></trkpt><trkpt lat="45.4362441" lon="14.079062"><ele>681.0</ele><time>2026-04-25T11:48:13.303Z</time></trkpt><trkpt lat="45.4361249" lon="14.0792561"><ele>683.6666666666666</ele><time>2026-04-25T11:48:14.274Z</time></trkpt><trkpt lat="45.4359988" lon="14.079452"><ele>686.3333333333333</ele><time>2026-04-25T11:48:15.28Z</time></trkpt><trkpt lat="45.4358702" lon="14.0796493"><ele>689.0</ele><time>2026-04-25T11:48:16.29Z</time></trkpt><trkpt lat="45.4357463" lon="14.079857"><ele>688.6666666666666</ele><time>2026-04-25T11:48:17.288Z</time></trkpt><trkpt lat="45.4356249" lon="14.0800594"><ele>688.3333333333334</ele><time>2026-04-25T11:48:18.291Z</time></trkpt><trkpt lat="45.4355037" lon="14.0802563"><ele>688.0</ele><time>2026-04-25T11:48:19.283Z</time></trkpt><trkpt lat="45.4353861" lon="14.0804546"><ele>688.6666666666667</ele><time>2026-04-25T11:48:20.287Z</time></trkpt><trkpt lat="45.435264" lon="14.0806529"><ele>689.3333333333334</ele><time>2026-04-25T11:48:21.285Z</time></trkpt><trkpt lat="45.4351382" lon="14.0808441"><ele>690.0</ele><time>2026-04-25T11:48:22.291Z</time></trkpt><trkpt lat="45.4350034" lon="14.0810297"><ele>690.0</ele><time>2026-04-25T11:48:23.294Z</time></trkpt><trkpt lat="45.4348611" lon="14.0812168"><ele>690.0</ele><time>2026-04-25T11:48:24.286Z</time></trkpt><trkpt lat="45.4347202" lon="14.0814044"><ele>690.0</ele><time>2026-04-25T11:48:25.29Z</time></trkpt><trkpt lat="45.4345797" lon="14.0815871"><ele>688.6666666666666</ele><time>2026-04-25T11:48:26.285Z</time></trkpt><trkpt lat="45.4344398" lon="14.0817735"><ele>687.3333333333333</ele><time>2026-04-25T11:48:27.311Z</time></trkpt><trkpt lat="45.4343022" lon="14.0819632"><ele>686.0</ele><time>2026-04-25T11:48:28.288Z</time></trkpt><trkpt lat="45.4341651" lon="14.0821483"><ele>686.0</ele><time>2026-04-25T11:48:29.284Z</time></trkpt><trkpt lat="45.4340271" lon="14.0823269"><ele>686.0</ele><time>2026-04-25T11:48:30.287Z</time></trkpt><trkpt lat="45.4338755" lon="14.0824969"><ele>686.0</ele><time>2026-04-25T11:48:31.294Z</time></trkpt><trkpt lat="45.4337149" lon="14.0826648"><ele>686.3333333333333</ele><time>2026-04-25T11:48:32.297Z</time></trkpt><trkpt lat="45.4335522" lon="14.0828532"><ele>686.6666666666666</ele><time>2026-04-25T11:48:33.293Z</time></trkpt><trkpt lat="45.4334014" lon="14.0830594"><ele>687.0</ele><time>2026-04-25T11:48:34.288Z</time></trkpt><trkpt lat="45.4332499" lon="14.0832687"><ele>687.0</ele><time>2026-04-25T11:48:35.288Z</time></trkpt><trkpt lat="45.433108" lon="14.0834791"><ele>687.0</ele><time>2026-04-25T11:48:36.286Z</time></trkpt><trkpt lat="45.4329749" lon="14.0836817"><ele>687.0</ele><time>2026-04-25T11:48:37.285Z</time></trkpt><trkpt lat="45.4328486" lon="14.0838789"><ele>686.3333333333334</ele><time>2026-04-25T11:48:38.285Z</time></trkpt><trkpt lat="45.4327166" lon="14.0840729"><ele>685.6666666666667</ele><time>2026-04-25T11:48:39.288Z</time></trkpt><trkpt lat="45.4325812" lon="14.0842671"><ele>685.0</ele><time>2026-04-25T11:48:40.279Z</time></trkpt><trkpt lat="45.4324376" lon="14.0844585"><ele>685.0</ele><time>2026-04-25T11:48:41.296Z</time></trkpt><trkpt lat="45.4322944" lon="14.0846416"><ele>685.0</ele><time>2026-04-25T11:48:42.28Z</time></trkpt><trkpt lat="45.4321581" lon="14.0848167"><ele>685.0</ele><time>2026-04-25T11:48:43.282Z</time></trkpt><trkpt lat="45.4320308" lon="14.0849943"><ele>686.3333333333334</ele><time>2026-04-25T11:48:44.281Z</time></trkpt><trkpt lat="45.4319127" lon="14.0851847"><ele>687.6666666666666</ele><time>2026-04-25T11:48:45.299Z</time></trkpt><trkpt lat="45.4318168" lon="14.0854038"><ele>689.0</ele><time>2026-04-25T11:48:46.279Z</time></trkpt><trkpt lat="45.4317339" lon="14.0856376"><ele>690.3333333333333</ele><time>2026-04-25T11:48:47.293Z</time></trkpt><trkpt lat="45.4316526" lon="14.0858778"><ele>691.6666666666666</ele><time>2026-04-25T11:48:48.278Z</time></trkpt><trkpt lat="45.4315713" lon="14.0861222"><ele>693.0</ele><time>2026-04-25T11:48:49.289Z</time></trkpt><trkpt lat="45.431487" lon="14.0863696"><ele>692.6666666666666</ele><time>2026-04-25T11:48:50.285Z</time></trkpt><trkpt lat="45.4313996" lon="14.0866164"><ele>692.3333333333333</ele><time>2026-04-25T11:48:51.29Z</time></trkpt><trkpt lat="45.4313148" lon="14.0868653"><ele>692.0</ele><time>2026-04-25T11:48:52.282Z</time></trkpt><trkpt lat="45.4312276" lon="14.0871114"><ele>692.0</ele><time>2026-04-25T11:48:53.283Z</time></trkpt><trkpt lat="45.4311379" lon="14.0873631"><ele>692.0</ele><time>2026-04-25T11:48:54.299Z</time></trkpt><trkpt lat="45.4310491" lon="14.0876196"><ele>692.0</ele><time>2026-04-25T11:48:55.289Z</time></trkpt><trkpt lat="45.4309624" lon="14.0878799"><ele>692.3333333333333</ele><time>2026-04-25T11:48:56.286Z</time></trkpt><trkpt lat="45.4308755" lon="14.0881494"><ele>692.6666666666666</ele><time>2026-04-25T11:48:57.288Z</time></trkpt><trkpt lat="45.4307772" lon="14.0884267"><ele>693.0</ele><time>2026-04-25T11:48:58.288Z</time></trkpt><trkpt lat="45.4306801" lon="14.0887005"><ele>693.0</ele><time>2026-04-25T11:48:59.296Z</time></trkpt><trkpt lat="45.430588" lon="14.0889703"><ele>693.0</ele><time>2026-04-25T11:49:00.284Z</time></trkpt><trkpt lat="45.4304966" lon="14.0892285"><ele>693.0</ele><time>2026-04-25T11:49:01.291Z</time></trkpt><trkpt lat="45.4304123" lon="14.0894841"><ele>692.0</ele><time>2026-04-25T11:49:02.287Z</time></trkpt><trkpt lat="45.430328" lon="14.0897292"><ele>691.0</ele><time>2026-04-25T11:49:03.288Z</time></trkpt><trkpt lat="45.4302438" lon="14.0899765"><ele>690.0</ele><time>2026-04-25T11:49:04.284Z</time></trkpt><trkpt lat="45.4301649" lon="14.090198"><ele>690.0</ele><time>2026-04-25T11:49:05.289Z</time></trkpt><trkpt lat="45.4300979" lon="14.0904122"><ele>690.0</ele><time>2026-04-25T11:49:06.284Z</time></trkpt><trkpt lat="45.4300365" lon="14.0906278"><ele>690.0</ele><time>2026-04-25T11:49:07.294Z</time></trkpt><trkpt lat="45.4299747" lon="14.0908522"><ele>691.3333333333334</ele><time>2026-04-25T11:49:08.276Z</time></trkpt><trkpt lat="45.4299145" lon="14.0910833"><ele>692.6666666666667</ele><time>2026-04-25T11:49:09.283Z</time></trkpt><trkpt lat="45.42986" lon="14.0913408"><ele>694.0</ele><time>2026-04-25T11:49:10.293Z</time></trkpt><trkpt lat="45.4298104" lon="14.0916084"><ele>697.3333333333334</ele><time>2026-04-25T11:49:11.28Z</time></trkpt><trkpt lat="45.4297672" lon="14.0918747"><ele>700.6666666666666</ele><time>2026-04-25T11:49:12.279Z</time></trkpt><trkpt lat="45.4297243" lon="14.0921463"><ele>704.0</ele><time>2026-04-25T11:49:13.289Z</time></trkpt><trkpt lat="45.4296858" lon="14.0924031"><ele>706.3333333333333</ele><time>2026-04-25T11:49:14.279Z</time></trkpt><trkpt lat="45.429645" lon="14.0926528"><ele>708.6666666666666</ele><time>2026-04-25T11:49:15.296Z</time></trkpt><trkpt lat="45.429605" lon="14.0928892"><ele>711.0</ele><time>2026-04-25T11:49:16.283Z</time></trkpt><trkpt lat="45.4295525" lon="14.0930929"><ele>707.0</ele><time>2026-04-25T11:49:17.287Z</time></trkpt><trkpt lat="45.4294876" lon="14.0932791"><ele>703.0</ele><time>2026-04-25T11:49:18.286Z</time></trkpt><trkpt lat="45.4294057" lon="14.0934401"><ele>699.0</ele><time>2026-04-25T11:49:19.279Z</time></trkpt><trkpt lat="45.4293071" lon="14.0935929"><ele>695.0</ele><time>2026-04-25T11:49:20.281Z</time></trkpt><trkpt lat="45.4291822" lon="14.0937381"><ele>695.0</ele><time>2026-04-25T11:49:21.284Z</time></trkpt><trkpt lat="45.4290476" lon="14.0938917"><ele>695.0</ele><time>2026-04-25T11:49:22.293Z</time></trkpt><trkpt lat="45.428923" lon="14.0940465"><ele>695.0</ele><time>2026-04-25T11:49:23.28Z</time></trkpt><trkpt lat="45.428806" lon="14.0941985"><ele>694.0</ele><time>2026-04-25T11:49:24.283Z</time></trkpt><trkpt lat="45.4286912" lon="14.0943453"><ele>693.0</ele><time>2026-04-25T11:49:25.281Z</time></trkpt><trkpt lat="45.4285805" lon="14.0944896"><ele>692.0</ele><time>2026-04-25T11:49:26.281Z</time></trkpt><trkpt lat="45.4284629" lon="14.0946435"><ele>692.0</ele><time>2026-04-25T11:49:27.28Z</time></trkpt><trkpt lat="45.4283519" lon="14.0947909"><ele>692.0</ele><time>2026-04-25T11:49:28.283Z</time></trkpt><trkpt lat="45.4282392" lon="14.0949292"><ele>692.0</ele><time>2026-04-25T11:49:29.272Z</time></trkpt><trkpt lat="45.4281331" lon="14.0950408"><ele>692.0</ele><time>2026-04-25T11:49:30.275Z</time></trkpt><trkpt lat="45.4280355" lon="14.0951509"><ele>691.25</ele><time>2026-04-25T11:49:31.279Z</time></trkpt><trkpt lat="45.4279396" lon="14.0952588"><ele>690.5</ele><time>2026-04-25T11:49:32.277Z</time></trkpt><trkpt lat="45.4278475" lon="14.0953774"><ele>689.75</ele><time>2026-04-25T11:49:33.279Z</time></trkpt><trkpt lat="45.4277515" lon="14.0954871"><ele>689.0</ele><time>2026-04-25T11:49:34.287Z</time></trkpt><trkpt lat="45.4276495" lon="14.095596"><ele>689.0</ele><time>2026-04-25T11:49:35.276Z</time></trkpt><trkpt lat="45.4275341" lon="14.0956638"><ele>689.0</ele><time>2026-04-25T11:49:36.291Z</time></trkpt><trkpt lat="45.427408" lon="14.0956862"><ele>689.0</ele><time>2026-04-25T11:49:37.269Z</time></trkpt><trkpt lat="45.4272678" lon="14.0956867"><ele>689.0</ele><time>2026-04-25T11:49:38.267Z</time></trkpt><trkpt lat="45.4271467" lon="14.095687"><ele>689.2</ele><time>2026-04-25T11:49:39.273Z</time></trkpt><trkpt lat="45.4270416" lon="14.0956944"><ele>689.4000000000001</ele><time>2026-04-25T11:49:40.27Z</time></trkpt><trkpt lat="45.4269469" lon="14.095701"><ele>689.6</ele><time>2026-04-25T11:49:41.283Z</time></trkpt><trkpt lat="45.4268582" lon="14.0957161"><ele>689.8</ele><time>2026-04-25T11:49:42.278Z</time></trkpt><trkpt lat="45.4267765" lon="14.0957352"><ele>690.0</ele><time>2026-04-25T11:49:43.276Z</time></trkpt><trkpt lat="45.4266991" lon="14.0957649"><ele>690.0</ele><time>2026-04-25T11:49:44.28Z</time></trkpt><trkpt lat="45.4266356" lon="14.0957998"><ele>690.0</ele><time>2026-04-25T11:49:45.28Z</time></trkpt><trkpt lat="45.4265344" lon="14.0958874"><ele>690.0</ele><time>2026-04-25T11:49:47.283Z</time></trkpt><trkpt lat="45.4264802" lon="14.0959595"><ele>690.0</ele><time>2026-04-25T11:49:48.281Z</time></trkpt><trkpt lat="45.4264247" lon="14.0960451"><ele>690.0</ele><time>2026-04-25T11:49:49.284Z</time></trkpt><trkpt lat="45.4263697" lon="14.0961531"><ele>690.0</ele><time>2026-04-25T11:49:50.277Z</time></trkpt><trkpt lat="45.4263357" lon="14.0962735"><ele>690.2</ele><time>2026-04-25T11:49:51.287Z</time></trkpt><trkpt lat="45.4262937" lon="14.0963967"><ele>690.4</ele><time>2026-04-25T11:49:52.279Z</time></trkpt><trkpt lat="45.4262532" lon="14.0965293"><ele>690.5999999999999</ele><time>2026-04-25T11:49:53.284Z</time></trkpt><trkpt lat="45.4262081" lon="14.0966704"><ele>690.8</ele><time>2026-04-25T11:49:54.281Z</time></trkpt><trkpt lat="45.4261631" lon="14.0968086"><ele>691.0</ele><time>2026-04-25T11:49:55.295Z</time></trkpt><trkpt lat="45.4261172" lon="14.0969387"><ele>691.0</ele><time>2026-04-25T11:49:56.284Z</time></trkpt><trkpt lat="45.4260695" lon="14.0970541"><ele>691.0</ele><time>2026-04-25T11:49:57.288Z</time></trkpt><trkpt lat="45.4260252" lon="14.0971504"><ele>691.0</ele><time>2026-04-25T11:49:58.285Z</time></trkpt><trkpt lat="45.4259806" lon="14.0972353"><ele>691.0</ele><time>2026-04-25T11:49:59.287Z</time></trkpt><trkpt lat="45.4259341" lon="14.0973147"><ele>691.0</ele><time>2026-04-25T11:50:00.286Z</time></trkpt><trkpt lat="45.4258971" lon="14.0973974"><ele>691.0</ele><time>2026-04-25T11:50:01.283Z</time></trkpt><trkpt lat="45.4258617" lon="14.097481"><ele>691.1666666666667</ele><time>2026-04-25T11:50:02.287Z</time></trkpt><trkpt lat="45.4258338" lon="14.0975782"><ele>691.3333333333334</ele><time>2026-04-25T11:50:03.281Z</time></trkpt><trkpt lat="45.4258104" lon="14.0976752"><ele>691.5</ele><time>2026-04-25T11:50:04.288Z</time></trkpt><trkpt lat="45.4257983" lon="14.0977837"><ele>691.6666666666666</ele><time>2026-04-25T11:50:05.285Z</time></trkpt><trkpt lat="45.4258096" lon="14.0979173"><ele>691.8333333333333</ele><time>2026-04-25T11:50:06.286Z</time></trkpt><trkpt lat="45.4258235" lon="14.0980719"><ele>692.0</ele><time>2026-04-25T11:50:07.298Z</time></trkpt><trkpt lat="45.4258312" lon="14.0982269"><ele>691.8</ele><time>2026-04-25T11:50:08.274Z</time></trkpt><trkpt lat="45.425841" lon="14.0983744"><ele>691.6</ele><time>2026-04-25T11:50:09.286Z</time></trkpt><trkpt lat="45.4258479" lon="14.0985267"><ele>691.4</ele><time>2026-04-25T11:50:10.289Z</time></trkpt><trkpt lat="45.4258487" lon="14.0986693"><ele>691.1999999999999</ele><time>2026-04-25T11:50:11.299Z</time></trkpt><trkpt lat="45.4258523" lon="14.0988133"><ele>691.0</ele><time>2026-04-25T11:50:12.29Z</time></trkpt><trkpt lat="45.4258515" lon="14.0989495"><ele>691.0</ele><time>2026-04-25T11:50:13.301Z</time></trkpt><trkpt lat="45.4258466" lon="14.0990743"><ele>691.0</ele><time>2026-04-25T11:50:14.282Z</time></trkpt><trkpt lat="45.4258452" lon="14.0992023"><ele>691.0</ele><time>2026-04-25T11:50:15.28Z</time></trkpt><trkpt lat="45.4258436" lon="14.0993493"><ele>691.0</ele><time>2026-04-25T11:50:16.284Z</time></trkpt><trkpt lat="45.4258514" lon="14.0995185"><ele>691.0</ele><time>2026-04-25T11:50:17.28Z</time></trkpt><trkpt lat="45.4258581" lon="14.0996879"><ele>691.4</ele><time>2026-04-25T11:50:18.295Z</time></trkpt><trkpt lat="45.4258625" lon="14.0998509"><ele>691.8</ele><time>2026-04-25T11:50:19.276Z</time></trkpt><trkpt lat="45.4258673" lon="14.1000102"><ele>692.1999999999999</ele><time>2026-04-25T11:50:20.268Z</time></trkpt><trkpt lat="45.4258797" lon="14.1001642"><ele>692.5999999999999</ele><time>2026-04-25T11:50:21.289Z</time></trkpt><trkpt lat="45.4258898" lon="14.1003139"><ele>693.0</ele><time>2026-04-25T11:50:22.278Z</time></trkpt><trkpt lat="45.425894" lon="14.1004618"><ele>693.3333333333334</ele><time>2026-04-25T11:50:23.291Z</time></trkpt><trkpt lat="45.4258925" lon="14.1006062"><ele>693.6666666666666</ele><time>2026-04-25T11:50:24.284Z</time></trkpt><trkpt lat="45.4258945" lon="14.100748"><ele>694.0</ele><time>2026-04-25T11:50:25.277Z</time></trkpt><trkpt lat="45.4258868" lon="14.1008653"><ele>694.3333333333333</ele><time>2026-04-25T11:50:26.281Z</time></trkpt><trkpt lat="45.4258824" lon="14.1009674"><ele>694.6666666666666</ele><time>2026-04-25T11:50:27.271Z</time></trkpt><trkpt lat="45.4258781" lon="14.1010591"><ele>695.0</ele><time>2026-04-25T11:50:28.278Z</time></trkpt><trkpt lat="45.4258641" lon="14.1012224"><ele>695.4</ele><time>2026-04-25T11:50:30.271Z</time></trkpt><trkpt lat="45.4258408" lon="14.1013622"><ele>695.8</ele><time>2026-04-25T11:50:32.276Z</time></trkpt><trkpt lat="45.4258044" lon="14.1015033"><ele>696.2</ele><time>2026-04-25T11:50:34.276Z</time></trkpt><trkpt lat="45.4257454" lon="14.1016552"><ele>696.6</ele><time>2026-04-25T11:50:36.286Z</time></trkpt><trkpt lat="45.4256883" lon="14.1017951"><ele>697.0</ele><time>2026-04-25T11:50:38.273Z</time></trkpt><trkpt lat="45.4256422" lon="14.1019065"><ele>696.5</ele><time>2026-04-25T11:50:40.283Z</time></trkpt><trkpt lat="45.4255843" lon="14.10199"><ele>696.0</ele><time>2026-04-25T11:50:42.277Z</time></trkpt><trkpt lat="45.4255067" lon="14.1021068"><ele>695.5</ele><time>2026-04-25T11:50:44.273Z</time></trkpt><trkpt lat="45.4254597" lon="14.1021819"><ele>695.0</ele><time>2026-04-25T11:50:45.274Z</time></trkpt><trkpt lat="45.4254043" lon="14.1022466"><ele>694.5</ele><time>2026-04-25T11:50:46.278Z</time></trkpt><trkpt lat="45.4253453" lon="14.1023202"><ele>694.0</ele><time>2026-04-25T11:50:47.273Z</time></trkpt><trkpt lat="45.4252741" lon="14.1023845"><ele>696.2</ele><time>2026-04-25T11:50:48.273Z</time></trkpt><trkpt lat="45.4251867" lon="14.1024371"><ele>698.4000000000001</ele><time>2026-04-25T11:50:49.267Z</time></trkpt><trkpt lat="45.4251055" lon="14.1024803"><ele>700.6</ele><time>2026-04-25T11:50:50.268Z</time></trkpt><trkpt lat="45.425019" lon="14.1025237"><ele>702.8</ele><time>2026-04-25T11:50:51.271Z</time></trkpt><trkpt lat="45.424932" lon="14.1025684"><ele>705.0</ele><time>2026-04-25T11:50:52.271Z</time></trkpt><trkpt lat="45.4248395" lon="14.102602"><ele>705.0</ele><time>2026-04-25T11:50:53.272Z</time></trkpt><trkpt lat="45.4247559" lon="14.1026279"><ele>705.0</ele><time>2026-04-25T11:50:54.275Z</time></trkpt><trkpt lat="45.4246914" lon="14.1026557"><ele>705.0</ele><time>2026-04-25T11:50:55.264Z</time></trkpt><trkpt lat="45.4246262" lon="14.1026883"><ele>705.0</ele><time>2026-04-25T11:50:56.262Z</time></trkpt><trkpt lat="45.4245551" lon="14.1027186"><ele>705.0</ele><time>2026-04-25T11:50:57.272Z</time></trkpt><trkpt lat="45.4244809" lon="14.1027563"><ele>705.0</ele><time>2026-04-25T11:50:58.266Z</time></trkpt><trkpt lat="45.4244024" lon="14.1027959"><ele>704.8</ele><time>2026-04-25T11:50:59.278Z</time></trkpt><trkpt lat="45.4243266" lon="14.1028427"><ele>704.6</ele><time>2026-04-25T11:51:00.266Z</time></trkpt><trkpt lat="45.424246" lon="14.1028934"><ele>704.4000000000001</ele><time>2026-04-25T11:51:01.277Z</time></trkpt><trkpt lat="45.4241562" lon="14.1029486"><ele>704.2</ele><time>2026-04-25T11:51:02.28Z</time></trkpt><trkpt lat="45.4240615" lon="14.1029983"><ele>704.0</ele><time>2026-04-25T11:51:03.273Z</time></trkpt><trkpt lat="45.4239721" lon="14.103052"><ele>704.0</ele><time>2026-04-25T11:51:04.293Z</time></trkpt><trkpt lat="45.4238877" lon="14.1031126"><ele>704.0</ele><time>2026-04-25T11:51:05.275Z</time></trkpt><trkpt lat="45.4238087" lon="14.1031782"><ele>704.0</ele><time>2026-04-25T11:51:06.274Z</time></trkpt><trkpt lat="45.423737" lon="14.1032519"><ele>704.0</ele><time>2026-04-25T11:51:07.282Z</time></trkpt><trkpt lat="45.4236656" lon="14.1033345"><ele>704.0</ele><time>2026-04-25T11:51:08.277Z</time></trkpt><trkpt lat="45.4235927" lon="14.1034174"><ele>704.8333333333333</ele><time>2026-04-25T11:51:09.272Z</time></trkpt><trkpt lat="45.4235187" lon="14.1034974"><ele>705.6666666666666</ele><time>2026-04-25T11:51:10.272Z</time></trkpt><trkpt lat="45.4234451" lon="14.1035821"><ele>706.5</ele><time>2026-04-25T11:51:11.273Z</time></trkpt><trkpt lat="45.4233747" lon="14.1036706"><ele>707.3333333333334</ele><time>2026-04-25T11:51:12.269Z</time></trkpt><trkpt lat="45.4233085" lon="14.1037463"><ele>708.1666666666667</ele><time>2026-04-25T11:51:13.272Z</time></trkpt><trkpt lat="45.4232536" lon="14.1038118"><ele>709.0</ele><time>2026-04-25T11:51:14.272Z</time></trkpt><trkpt lat="45.423203" lon="14.1038763"><ele>709.0000000000001</ele><time>2026-04-25T11:51:15.283Z</time></trkpt><trkpt lat="45.4231535" lon="14.1039436"><ele>709.0</ele><time>2026-04-25T11:51:16.287Z</time></trkpt><trkpt lat="45.4231054" lon="14.1040101"><ele>709.0</ele><time>2026-04-25T11:51:17.281Z</time></trkpt><trkpt lat="45.4230632" lon="14.1040798"><ele>709.0</ele><time>2026-04-25T11:51:18.275Z</time></trkpt><trkpt lat="45.4230173" lon="14.1041603"><ele>709.0</ele><time>2026-04-25T11:51:19.279Z</time></trkpt><trkpt lat="45.4229716" lon="14.1042388"><ele>709.0000000000001</ele><time>2026-04-25T11:51:20.275Z</time></trkpt><trkpt lat="45.4229289" lon="14.1043182"><ele>709.0</ele><time>2026-04-25T11:51:21.285Z</time></trkpt><trkpt lat="45.4228844" lon="14.1043881"><ele>709.6666666666667</ele><time>2026-04-25T11:51:22.273Z</time></trkpt><trkpt lat="45.4228331" lon="14.1044579"><ele>710.3333333333334</ele><time>2026-04-25T11:51:23.274Z</time></trkpt><trkpt lat="45.4227773" lon="14.1045332"><ele>711.0</ele><time>2026-04-25T11:51:24.272Z</time></trkpt><trkpt lat="45.422711" lon="14.104603"><ele>711.6666666666666</ele><time>2026-04-25T11:51:25.281Z</time></trkpt><trkpt lat="45.4226469" lon="14.1046698"><ele>712.3333333333333</ele><time>2026-04-25T11:51:26.274Z</time></trkpt><trkpt lat="45.4225818" lon="14.1047411"><ele>713.0</ele><time>2026-04-25T11:51:27.28Z</time></trkpt><trkpt lat="45.422517" lon="14.1048214"><ele>715.3333333333333</ele><time>2026-04-25T11:51:28.272Z</time></trkpt><trkpt lat="45.4224607" lon="14.1049206"><ele>717.6666666666666</ele><time>2026-04-25T11:51:29.279Z</time></trkpt><trkpt lat="45.4224071" lon="14.1050179"><ele>720.0</ele><time>2026-04-25T11:51:30.272Z</time></trkpt><trkpt lat="45.4223549" lon="14.105114"><ele>722.3333333333334</ele><time>2026-04-25T11:51:31.272Z</time></trkpt><trkpt lat="45.4222969" lon="14.1052132"><ele>724.6666666666667</ele><time>2026-04-25T11:51:32.271Z</time></trkpt><trkpt lat="45.4222374" lon="14.1053132"><ele>727.0</ele><time>2026-04-25T11:51:33.273Z</time></trkpt><trkpt lat="45.4221766" lon="14.1054153"><ele>726.3333333333334</ele><time>2026-04-25T11:51:34.285Z</time></trkpt><trkpt lat="45.4221155" lon="14.105523"><ele>725.6666666666667</ele><time>2026-04-25T11:51:35.284Z</time></trkpt><trkpt lat="45.4220565" lon="14.1056303"><ele>725.0</ele><time>2026-04-25T11:51:36.279Z</time></trkpt><trkpt lat="45.4220032" lon="14.1057261"><ele>724.3333333333334</ele><time>2026-04-25T11:51:37.286Z</time></trkpt><trkpt lat="45.4219552" lon="14.1058174"><ele>723.6666666666666</ele><time>2026-04-25T11:51:38.271Z</time></trkpt><trkpt lat="45.4219144" lon="14.1059048"><ele>723.0</ele><time>2026-04-25T11:51:39.28Z</time></trkpt><trkpt lat="45.4218827" lon="14.1059928"><ele>723.0</ele><time>2026-04-25T11:51:40.28Z</time></trkpt><trkpt lat="45.4218625" lon="14.1060968"><ele>723.0</ele><time>2026-04-25T11:51:41.279Z</time></trkpt><trkpt lat="45.4218451" lon="14.1062093"><ele>723.0</ele><time>2026-04-25T11:51:42.279Z</time></trkpt><trkpt lat="45.4218439" lon="14.1063393"><ele>723.0</ele><time>2026-04-25T11:51:43.282Z</time></trkpt><trkpt lat="45.4218467" lon="14.1064804"><ele>723.0</ele><time>2026-04-25T11:51:44.276Z</time></trkpt><trkpt lat="45.4218454" lon="14.1066181"><ele>723.0</ele><time>2026-04-25T11:51:45.275Z</time></trkpt><trkpt lat="45.4218295" lon="14.106749"><ele>725.0</ele><time>2026-04-25T11:51:46.28Z</time></trkpt><trkpt lat="45.4218009" lon="14.1068701"><ele>727.0</ele><time>2026-04-25T11:51:47.282Z</time></trkpt><trkpt lat="45.4217573" lon="14.106982"><ele>729.0</ele><time>2026-04-25T11:51:48.275Z</time></trkpt><trkpt lat="45.4217033" lon="14.1070863"><ele>731.0</ele><time>2026-04-25T11:51:49.28Z</time></trkpt><trkpt lat="45.4216442" lon="14.1071875"><ele>733.0</ele><time>2026-04-25T11:51:50.27Z</time></trkpt><trkpt lat="45.4215828" lon="14.1072783"><ele>733.0</ele><time>2026-04-25T11:51:51.269Z</time></trkpt><trkpt lat="45.4215178" lon="14.1073438"><ele>733.0</ele><time>2026-04-25T11:51:52.28Z</time></trkpt><trkpt lat="45.4214511" lon="14.1074028"><ele>733.0</ele><time>2026-04-25T11:51:53.27Z</time></trkpt><trkpt lat="45.4213946" lon="14.1074827"><ele>733.0</ele><time>2026-04-25T11:51:54.273Z</time></trkpt><trkpt lat="45.4213466" lon="14.1075692"><ele>733.0</ele><time>2026-04-25T11:51:55.269Z</time></trkpt><trkpt lat="45.4213019" lon="14.1076681"><ele>733.0</ele><time>2026-04-25T11:51:56.265Z</time></trkpt><trkpt lat="45.4212639" lon="14.1077472"><ele>732.8333333333334</ele><time>2026-04-25T11:51:57.273Z</time></trkpt><trkpt lat="45.4212339" lon="14.107837"><ele>732.6666666666667</ele><time>2026-04-25T11:51:58.266Z</time></trkpt><trkpt lat="45.421196" lon="14.1079263"><ele>732.5</ele><time>2026-04-25T11:51:59.271Z</time></trkpt><trkpt lat="45.4211515" lon="14.108037"><ele>732.3333333333334</ele><time>2026-04-25T11:52:00.282Z</time></trkpt><trkpt lat="45.4211021" lon="14.1081401"><ele>732.1666666666666</ele><time>2026-04-25T11:52:01.264Z</time></trkpt><trkpt lat="45.4210443" lon="14.108239"><ele>732.0</ele><time>2026-04-25T11:52:02.269Z</time></trkpt><trkpt lat="45.4209859" lon="14.1083397"><ele>734.8333333333334</ele><time>2026-04-25T11:52:03.272Z</time></trkpt><trkpt lat="45.4209433" lon="14.1084346"><ele>737.6666666666666</ele><time>2026-04-25T11:52:04.273Z</time></trkpt><trkpt lat="45.4209103" lon="14.1085314"><ele>740.5</ele><time>2026-04-25T11:52:05.269Z</time></trkpt><trkpt lat="45.4208727" lon="14.1086405"><ele>743.3333333333333</ele><time>2026-04-25T11:52:06.275Z</time></trkpt><trkpt lat="45.420826" lon="14.1087613"><ele>746.1666666666666</ele><time>2026-04-25T11:52:07.277Z</time></trkpt><trkpt lat="45.4207788" lon="14.1088808"><ele>749.0</ele><time>2026-04-25T11:52:08.283Z</time></trkpt><trkpt lat="45.4207441" lon="14.109016"><ele>751.5</ele><time>2026-04-25T11:52:09.275Z</time></trkpt><trkpt lat="45.4207154" lon="14.1091474"><ele>754.0</ele><time>2026-04-25T11:52:10.276Z</time></trkpt><trkpt lat="45.4206837" lon="14.1092774"><ele>756.5</ele><time>2026-04-25T11:52:11.278Z</time></trkpt><trkpt lat="45.4206462" lon="14.109384"><ele>759.0</ele><time>2026-04-25T11:52:12.273Z</time></trkpt><trkpt lat="45.4206101" lon="14.1094662"><ele>761.5</ele><time>2026-04-25T11:52:13.279Z</time></trkpt><trkpt lat="45.4205653" lon="14.1095524"><ele>764.0</ele><time>2026-04-25T11:52:14.268Z</time></trkpt><trkpt lat="45.4205316" lon="14.10964"><ele>764.0</ele><time>2026-04-25T11:52:15.28Z</time></trkpt><trkpt lat="45.4204914" lon="14.1097277"><ele>764.0</ele><time>2026-04-25T11:52:16.281Z</time></trkpt><trkpt lat="45.4204454" lon="14.1098106"><ele>764.0</ele><time>2026-04-25T11:52:17.269Z</time></trkpt><trkpt lat="45.4203989" lon="14.1099049"><ele>764.0</ele><time>2026-04-25T11:52:18.292Z</time></trkpt><trkpt lat="45.4203552" lon="14.1100142"><ele>764.0</ele><time>2026-04-25T11:52:19.267Z</time></trkpt><trkpt lat="45.4203165" lon="14.1101409"><ele>764.0</ele><time>2026-04-25T11:52:20.286Z</time></trkpt><trkpt lat="45.420286" lon="14.1102764"><ele>764.0</ele><time>2026-04-25T11:52:21.269Z</time></trkpt><trkpt lat="45.4202634" lon="14.1104162"><ele>764.0</ele><time>2026-04-25T11:52:22.269Z</time></trkpt><trkpt lat="45.420245" lon="14.1105394"><ele>764.0</ele><time>2026-04-25T11:52:23.274Z</time></trkpt><trkpt lat="45.4202333" lon="14.1106426"><ele>764.0</ele><time>2026-04-25T11:52:24.27Z</time></trkpt><trkpt lat="45.4202252" lon="14.1107384"><ele>764.0</ele><time>2026-04-25T11:52:25.283Z</time></trkpt><trkpt lat="45.4202248" lon="14.1108327"><ele>764.0</ele><time>2026-04-25T11:52:26.274Z</time></trkpt><trkpt lat="45.4202249" lon="14.1109279"><ele>764.0</ele><time>2026-04-25T11:52:27.272Z</time></trkpt><trkpt lat="45.4202358" lon="14.111022"><ele>764.0</ele><time>2026-04-25T11:52:28.272Z</time></trkpt><trkpt lat="45.4202505" lon="14.1111242"><ele>764.0</ele><time>2026-04-25T11:52:29.266Z</time></trkpt><trkpt lat="45.4202648" lon="14.1112237"><ele>764.0</ele><time>2026-04-25T11:52:30.282Z</time></trkpt><trkpt lat="45.4202743" lon="14.1113284"><ele>764.0</ele><time>2026-04-25T11:52:31.27Z</time></trkpt><trkpt lat="45.4202874" lon="14.1114361"><ele>764.0</ele><time>2026-04-25T11:52:32.275Z</time></trkpt><trkpt lat="45.4202954" lon="14.1115435"><ele>764.0</ele><time>2026-04-25T11:52:33.277Z</time></trkpt><trkpt lat="45.4203033" lon="14.1116463"><ele>765.0</ele><time>2026-04-25T11:52:34.275Z</time></trkpt><trkpt lat="45.4203222" lon="14.1117592"><ele>766.0</ele><time>2026-04-25T11:52:35.283Z</time></trkpt><trkpt lat="45.4203154" lon="14.1118774"><ele>767.0</ele><time>2026-04-25T11:52:36.27Z</time></trkpt><trkpt lat="45.4203043" lon="14.1120004"><ele>768.0</ele><time>2026-04-25T11:52:37.28Z</time></trkpt><trkpt lat="45.4202871" lon="14.1121189"><ele>769.0000000000001</ele><time>2026-04-25T11:52:38.264Z</time></trkpt><trkpt lat="45.4202671" lon="14.1122282"><ele>770.0</ele><time>2026-04-25T11:52:39.272Z</time></trkpt><trkpt lat="45.4202501" lon="14.1123485"><ele>771.1666666666667</ele><time>2026-04-25T11:52:40.264Z</time></trkpt><trkpt lat="45.4202249" lon="14.1124788"><ele>772.3333333333334</ele><time>2026-04-25T11:52:41.265Z</time></trkpt><trkpt lat="45.4201955" lon="14.1126006"><ele>773.5</ele><time>2026-04-25T11:52:42.275Z</time></trkpt><trkpt lat="45.4201653" lon="14.1127129"><ele>774.6666666666667</ele><time>2026-04-25T11:52:43.269Z</time></trkpt><trkpt lat="45.4201352" lon="14.1128239"><ele>775.8333333333334</ele><time>2026-04-25T11:52:44.276Z</time></trkpt><trkpt lat="45.4201112" lon="14.1129338"><ele>777.0</ele><time>2026-04-25T11:52:45.274Z</time></trkpt><trkpt lat="45.4200981" lon="14.1130465"><ele>777.0</ele><time>2026-04-25T11:52:46.276Z</time></trkpt><trkpt lat="45.4200926" lon="14.1131769"><ele>777.0</ele><time>2026-04-25T11:52:47.274Z</time></trkpt><trkpt lat="45.4200901" lon="14.1133097"><ele>777.0</ele><time>2026-04-25T11:52:48.274Z</time></trkpt><trkpt lat="45.4200854" lon="14.1134418"><ele>777.0</ele><time>2026-04-25T11:52:49.28Z</time></trkpt><trkpt lat="45.4200805" lon="14.11357"><ele>777.0</ele><time>2026-04-25T11:52:50.276Z</time></trkpt><trkpt lat="45.4200729" lon="14.1136898"><ele>778.3333333333334</ele><time>2026-04-25T11:52:51.262Z</time></trkpt><trkpt lat="45.420063" lon="14.1137955"><ele>779.6666666666667</ele><time>2026-04-25T11:52:52.259Z</time></trkpt><trkpt lat="45.4200485" lon="14.1139009"><ele>781.0</ele><time>2026-04-25T11:52:53.271Z</time></trkpt><trkpt lat="45.4200207" lon="14.1140174"><ele>782.3333333333334</ele><time>2026-04-25T11:52:54.262Z</time></trkpt><trkpt lat="45.4199907" lon="14.1141319"><ele>783.6666666666667</ele><time>2026-04-25T11:52:55.269Z</time></trkpt><trkpt lat="45.4199623" lon="14.1142422"><ele>785.0</ele><time>2026-04-25T11:52:56.271Z</time></trkpt><trkpt lat="45.4199328" lon="14.1143536"><ele>787.4</ele><time>2026-04-25T11:52:57.263Z</time></trkpt><trkpt lat="45.4198924" lon="14.1144687"><ele>789.8</ele><time>2026-04-25T11:52:58.27Z</time></trkpt><trkpt lat="45.4198543" lon="14.1145878"><ele>792.2</ele><time>2026-04-25T11:52:59.268Z</time></trkpt><trkpt lat="45.4198162" lon="14.114717"><ele>794.6</ele><time>2026-04-25T11:53:00.26Z</time></trkpt><trkpt lat="45.4197814" lon="14.1148525"><ele>797.0</ele><time>2026-04-25T11:53:01.269Z</time></trkpt><trkpt lat="45.4197489" lon="14.114998"><ele>799.8</ele><time>2026-04-25T11:53:02.278Z</time></trkpt><trkpt lat="45.4197085" lon="14.1151529"><ele>802.6</ele><time>2026-04-25T11:53:03.277Z</time></trkpt><trkpt lat="45.4196671" lon="14.1153004"><ele>805.4</ele><time>2026-04-25T11:53:04.268Z</time></trkpt><trkpt lat="45.4196237" lon="14.1154324"><ele>808.1999999999999</ele><time>2026-04-25T11:53:05.265Z</time></trkpt><trkpt lat="45.4195802" lon="14.1155574"><ele>811.0</ele><time>2026-04-25T11:53:06.273Z</time></trkpt><trkpt lat="45.4195302" lon="14.1156737"><ele>807.1999999999999</ele><time>2026-04-25T11:53:07.27Z</time></trkpt><trkpt lat="45.4194754" lon="14.1157901"><ele>803.4</ele><time>2026-04-25T11:53:08.273Z</time></trkpt><trkpt lat="45.4194191" lon="14.1159076"><ele>799.6</ele><time>2026-04-25T11:53:09.291Z</time></trkpt><trkpt lat="45.4193633" lon="14.1160345"><ele>795.8</ele><time>2026-04-25T11:53:10.282Z</time></trkpt><trkpt lat="45.4192983" lon="14.1161727"><ele>792.0</ele><time>2026-04-25T11:53:11.279Z</time></trkpt><trkpt lat="45.4192371" lon="14.1163259"><ele>792.0</ele><time>2026-04-25T11:53:12.287Z</time></trkpt><trkpt lat="45.4191745" lon="14.1164831"><ele>792.0</ele><time>2026-04-25T11:53:13.276Z</time></trkpt><trkpt lat="45.4191062" lon="14.1166416"><ele>792.0</ele><time>2026-04-25T11:53:14.281Z</time></trkpt><trkpt lat="45.419045" lon="14.1168017"><ele>792.0</ele><time>2026-04-25T11:53:15.273Z</time></trkpt><trkpt lat="45.4189912" lon="14.1169511"><ele>794.5</ele><time>2026-04-25T11:53:16.268Z</time></trkpt><trkpt lat="45.4189372" lon="14.1170968"><ele>797.0</ele><time>2026-04-25T11:53:17.278Z</time></trkpt><trkpt lat="45.418875" lon="14.1172362"><ele>799.5</ele><time>2026-04-25T11:53:18.272Z</time></trkpt><trkpt lat="45.418806" lon="14.117375"><ele>802.0</ele><time>2026-04-25T11:53:19.273Z</time></trkpt><trkpt lat="45.4187372" lon="14.1175083"><ele>802.0</ele><time>2026-04-25T11:53:20.278Z</time></trkpt><trkpt lat="45.4186614" lon="14.1176199"><ele>802.0</ele><time>2026-04-25T11:53:21.272Z</time></trkpt><trkpt lat="45.4185913" lon="14.11772"><ele>802.0</ele><time>2026-04-25T11:53:22.266Z</time></trkpt><trkpt lat="45.4185236" lon="14.1178264"><ele>802.0</ele><time>2026-04-25T11:53:23.266Z</time></trkpt><trkpt lat="45.4184589" lon="14.1179331"><ele>802.0</ele><time>2026-04-25T11:53:24.271Z</time></trkpt><trkpt lat="45.4183958" lon="14.1180245"><ele>801.9999999999999</ele><time>2026-04-25T11:53:25.269Z</time></trkpt><trkpt lat="45.4183368" lon="14.1181033"><ele>802.0</ele><time>2026-04-25T11:53:26.274Z</time></trkpt><trkpt lat="45.4182865" lon="14.1181738"><ele>802.0</ele><time>2026-04-25T11:53:27.279Z</time></trkpt><trkpt lat="45.4182441" lon="14.1182476"><ele>802.0</ele><time>2026-04-25T11:53:28.27Z</time></trkpt><trkpt lat="45.4181956" lon="14.1183385"><ele>801.9999999999999</ele><time>2026-04-25T11:53:29.268Z</time></trkpt><trkpt lat="45.4181461" lon="14.1184267"><ele>802.0</ele><time>2026-04-25T11:53:30.266Z</time></trkpt><trkpt lat="45.4181058" lon="14.1185355"><ele>800.4000000000001</ele><time>2026-04-25T11:53:31.268Z</time></trkpt><trkpt lat="45.4180702" lon="14.1186447"><ele>798.8000000000001</ele><time>2026-04-25T11:53:32.268Z</time></trkpt><trkpt lat="45.4180309" lon="14.118756"><ele>797.2</ele><time>2026-04-25T11:53:33.276Z</time></trkpt><trkpt lat="45.4179774" lon="14.1188627"><ele>795.6</ele><time>2026-04-25T11:53:34.274Z</time></trkpt><trkpt lat="45.4179174" lon="14.1189603"><ele>794.0</ele><time>2026-04-25T11:53:35.27Z</time></trkpt><trkpt lat="45.4178485" lon="14.1190535"><ele>798.8000000000001</ele><time>2026-04-25T11:53:36.265Z</time></trkpt><trkpt lat="45.4177673" lon="14.1191378"><ele>803.6</ele><time>2026-04-25T11:53:37.279Z</time></trkpt><trkpt lat="45.4176948" lon="14.119222"><ele>808.4</ele><time>2026-04-25T11:53:38.273Z</time></trkpt><trkpt lat="45.4176218" lon="14.1193041"><ele>813.2</ele><time>2026-04-25T11:53:39.28Z</time></trkpt><trkpt lat="45.4175452" lon="14.1193974"><ele>818.0</ele><time>2026-04-25T11:53:40.275Z</time></trkpt><trkpt lat="45.4174696" lon="14.1194907"><ele>818.0</ele><time>2026-04-25T11:53:41.268Z</time></trkpt><trkpt lat="45.4174005" lon="14.1196021"><ele>818.0</ele><time>2026-04-25T11:53:42.276Z</time></trkpt><trkpt lat="45.4173452" lon="14.1197289"><ele>818.0</ele><time>2026-04-25T11:53:43.271Z</time></trkpt><trkpt lat="45.4172963" lon="14.1198644"><ele>818.0</ele><time>2026-04-25T11:53:44.278Z</time></trkpt><trkpt lat="45.4172377" lon="14.1199913"><ele>818.0</ele><time>2026-04-25T11:53:45.267Z</time></trkpt><trkpt lat="45.4171844" lon="14.1201113"><ele>819.5000000000001</ele><time>2026-04-25T11:53:46.26Z</time></trkpt><trkpt lat="45.4171406" lon="14.1202167"><ele>821.0</ele><time>2026-04-25T11:53:47.276Z</time></trkpt><trkpt lat="45.417096" lon="14.1203141"><ele>822.5</ele><time>2026-04-25T11:53:48.266Z</time></trkpt><trkpt lat="45.4170536" lon="14.1203934"><ele>824.0</ele><time>2026-04-25T11:53:49.281Z</time></trkpt><trkpt lat="45.4169891" lon="14.1204573"><ele>825.5000000000001</ele><time>2026-04-25T11:53:50.282Z</time></trkpt><trkpt lat="45.4169037" lon="14.1204976"><ele>827.0</ele><time>2026-04-25T11:53:51.276Z</time></trkpt><trkpt lat="45.4168045" lon="14.1205342"><ele>827.0</ele><time>2026-04-25T11:53:52.276Z</time></trkpt><trkpt lat="45.4166951" lon="14.1205691"><ele>827.0</ele><time>2026-04-25T11:53:53.268Z</time></trkpt><trkpt lat="45.4165954" lon="14.1206082"><ele>827.0</ele><time>2026-04-25T11:53:54.281Z</time></trkpt><trkpt lat="45.4164934" lon="14.1206571"><ele>827.0</ele><time>2026-04-25T11:53:55.27Z</time></trkpt><trkpt lat="45.4163886" lon="14.1207163"><ele>827.0</ele><time>2026-04-25T11:53:56.272Z</time></trkpt><trkpt lat="45.4162876" lon="14.1207924"><ele>830.0</ele><time>2026-04-25T11:53:57.273Z</time></trkpt><trkpt lat="45.4161744" lon="14.1208703"><ele>833.0</ele><time>2026-04-25T11:53:58.265Z</time></trkpt><trkpt lat="45.4160628" lon="14.1209504"><ele>836.0</ele><time>2026-04-25T11:53:59.264Z</time></trkpt><trkpt lat="45.4159526" lon="14.1210231"><ele>839.0</ele><time>2026-04-25T11:54:00.266Z</time></trkpt><trkpt lat="45.4158353" lon="14.121098"><ele>839.0</ele><time>2026-04-25T11:54:01.286Z</time></trkpt><trkpt lat="45.4157265" lon="14.1211702"><ele>839.0</ele><time>2026-04-25T11:54:02.265Z</time></trkpt><trkpt lat="45.4156248" lon="14.1212403"><ele>839.0</ele><time>2026-04-25T11:54:03.282Z</time></trkpt><trkpt lat="45.4155301" lon="14.1212985"><ele>839.0</ele><time>2026-04-25T11:54:04.276Z</time></trkpt><trkpt lat="45.415447" lon="14.1213799"><ele>839.0</ele><time>2026-04-25T11:54:05.273Z</time></trkpt><trkpt lat="45.415364" lon="14.1214734"><ele>840.6</ele><time>2026-04-25T11:54:06.275Z</time></trkpt><trkpt lat="45.4152857" lon="14.1215607"><ele>842.2</ele><time>2026-04-25T11:54:07.284Z</time></trkpt><trkpt lat="45.4152094" lon="14.1216513"><ele>843.8000000000001</ele><time>2026-04-25T11:54:08.283Z</time></trkpt><trkpt lat="45.4151412" lon="14.1217372"><ele>845.4000000000001</ele><time>2026-04-25T11:54:09.277Z</time></trkpt><trkpt lat="45.4150809" lon="14.1218328"><ele>847.0</ele><time>2026-04-25T11:54:10.275Z</time></trkpt><trkpt lat="45.4150232" lon="14.12193"><ele>846.9999999999999</ele><time>2026-04-25T11:54:11.276Z</time></trkpt><trkpt lat="45.4149642" lon="14.1220252"><ele>847.0</ele><time>2026-04-25T11:54:12.281Z</time></trkpt><trkpt lat="45.4149047" lon="14.1221253"><ele>847.0</ele><time>2026-04-25T11:54:13.287Z</time></trkpt><trkpt lat="45.414859" lon="14.1222212"><ele>847.0</ele><time>2026-04-25T11:54:14.277Z</time></trkpt><trkpt lat="45.4148206" lon="14.1223176"><ele>846.9999999999999</ele><time>2026-04-25T11:54:15.279Z</time></trkpt><trkpt lat="45.4147866" lon="14.1224216"><ele>847.0</ele><time>2026-04-25T11:54:16.279Z</time></trkpt><trkpt lat="45.4147589" lon="14.1225321"><ele>850.4000000000001</ele><time>2026-04-25T11:54:17.278Z</time></trkpt><trkpt lat="45.4147294" lon="14.1226568"><ele>853.8000000000001</ele><time>2026-04-25T11:54:18.271Z</time></trkpt><trkpt lat="45.4146994" lon="14.1227882"><ele>857.2</ele><time>2026-04-25T11:54:19.277Z</time></trkpt><trkpt lat="45.4146846" lon="14.1229241"><ele>860.6</ele><time>2026-04-25T11:54:20.281Z</time></trkpt><trkpt lat="45.4146727" lon="14.1230669"><ele>864.0</ele><time>2026-04-25T11:54:21.273Z</time></trkpt><trkpt lat="45.4146592" lon="14.1232122"><ele>861.2</ele><time>2026-04-25T11:54:22.283Z</time></trkpt><trkpt lat="45.4146424" lon="14.1233652"><ele>858.4000000000001</ele><time>2026-04-25T11:54:23.268Z</time></trkpt><trkpt lat="45.4146217" lon="14.1235264"><ele>855.6</ele><time>2026-04-25T11:54:24.274Z</time></trkpt><trkpt lat="45.4145897" lon="14.1236836"><ele>852.8</ele><time>2026-04-25T11:54:25.279Z</time></trkpt><trkpt lat="45.4145472" lon="14.1238224"><ele>850.0</ele><time>2026-04-25T11:54:26.271Z</time></trkpt><trkpt lat="45.4145004" lon="14.1239589"><ele>852.0</ele><time>2026-04-25T11:54:27.266Z</time></trkpt><trkpt lat="45.4144564" lon="14.1240991"><ele>854.0</ele><time>2026-04-25T11:54:28.27Z</time></trkpt><trkpt lat="45.4144128" lon="14.1242403"><ele>856.0</ele><time>2026-04-25T11:54:29.277Z</time></trkpt><trkpt lat="45.4143737" lon="14.1243788"><ele>858.0</ele><time>2026-04-25T11:54:30.267Z</time></trkpt><trkpt lat="45.4143463" lon="14.1245216"><ele>860.0</ele><time>2026-04-25T11:54:31.268Z</time></trkpt><trkpt lat="45.4143304" lon="14.1246594"><ele>860.0</ele><time>2026-04-25T11:54:32.27Z</time></trkpt><trkpt lat="45.4143173" lon="14.1247996"><ele>860.0</ele><time>2026-04-25T11:54:33.281Z</time></trkpt><trkpt lat="45.4142932" lon="14.1249307"><ele>860.0</ele><time>2026-04-25T11:54:34.272Z</time></trkpt><trkpt lat="45.4142552" lon="14.1250602"><ele>860.0</ele><time>2026-04-25T11:54:35.271Z</time></trkpt><trkpt lat="45.4142145" lon="14.1251913"><ele>860.0</ele><time>2026-04-25T11:54:36.275Z</time></trkpt><trkpt lat="45.4141661" lon="14.1253204"><ele>863.2</ele><time>2026-04-25T11:54:37.288Z</time></trkpt><trkpt lat="45.4141101" lon="14.1254465"><ele>866.4</ele><time>2026-04-25T11:54:38.268Z</time></trkpt><trkpt lat="45.4140731" lon="14.1255714"><ele>869.5999999999999</ele><time>2026-04-25T11:54:39.277Z</time></trkpt><trkpt lat="45.4140487" lon="14.1257003"><ele>872.8</ele><time>2026-04-25T11:54:40.272Z</time></trkpt><trkpt lat="45.4140272" lon="14.1258268"><ele>876.0</ele><time>2026-04-25T11:54:41.273Z</time></trkpt><trkpt lat="45.4139949" lon="14.1259352"><ele>880.5999999999999</ele><time>2026-04-25T11:54:42.276Z</time></trkpt><trkpt lat="45.4139533" lon="14.1260341"><ele>885.1999999999999</ele><time>2026-04-25T11:54:43.274Z</time></trkpt><trkpt lat="45.4139065" lon="14.1261432"><ele>889.8000000000001</ele><time>2026-04-25T11:54:44.273Z</time></trkpt><trkpt lat="45.4138371" lon="14.1262481"><ele>894.4000000000001</ele><time>2026-04-25T11:54:45.268Z</time></trkpt><trkpt lat="45.4137716" lon="14.126361"><ele>899.0</ele><time>2026-04-25T11:54:46.275Z</time></trkpt><trkpt lat="45.4137024" lon="14.1264667"><ele>892.8000000000001</ele><time>2026-04-25T11:54:47.274Z</time></trkpt><trkpt lat="45.4136361" lon="14.1265774"><ele>886.6000000000001</ele><time>2026-04-25T11:54:48.265Z</time></trkpt><trkpt lat="45.4135735" lon="14.1266802"><ele>880.4</ele><time>2026-04-25T11:54:49.272Z</time></trkpt><trkpt lat="45.4135233" lon="14.1267895"><ele>874.2</ele><time>2026-04-25T11:54:50.285Z</time></trkpt><trkpt lat="45.4134764" lon="14.126902"><ele>868.0</ele><time>2026-04-25T11:54:51.267Z</time></trkpt><trkpt lat="45.4134347" lon="14.1270034"><ele>867.9999999999999</ele><time>2026-04-25T11:54:52.279Z</time></trkpt><trkpt lat="45.4133865" lon="14.1270894"><ele>868.0</ele><time>2026-04-25T11:54:53.273Z</time></trkpt><trkpt lat="45.4133297" lon="14.1271647"><ele>868.0</ele><time>2026-04-25T11:54:54.272Z</time></trkpt><trkpt lat="45.4132805" lon="14.1272407"><ele>868.0</ele><time>2026-04-25T11:54:55.273Z</time></trkpt><trkpt lat="45.4132318" lon="14.12732"><ele>867.9999999999999</ele><time>2026-04-25T11:54:56.285Z</time></trkpt><trkpt lat="45.4131913" lon="14.1274135"><ele>868.0</ele><time>2026-04-25T11:54:57.279Z</time></trkpt><trkpt lat="45.4131534" lon="14.1275272"><ele>868.8</ele><time>2026-04-25T11:54:58.28Z</time></trkpt><trkpt lat="45.4131129" lon="14.1276473"><ele>869.5999999999999</ele><time>2026-04-25T11:54:59.273Z</time></trkpt><trkpt lat="45.413074" lon="14.1277738"><ele>870.4000000000001</ele><time>2026-04-25T11:55:00.271Z</time></trkpt><trkpt lat="45.4130396" lon="14.1279011"><ele>871.2</ele><time>2026-04-25T11:55:01.272Z</time></trkpt><trkpt lat="45.4130061" lon="14.1280275"><ele>872.0</ele><time>2026-04-25T11:55:02.285Z</time></trkpt><trkpt lat="45.412976" lon="14.1281433"><ele>874.0000000000001</ele><time>2026-04-25T11:55:03.282Z</time></trkpt><trkpt lat="45.4129499" lon="14.1282396"><ele>876.0</ele><time>2026-04-25T11:55:04.279Z</time></trkpt><trkpt lat="45.4129252" lon="14.1283322"><ele>878.0</ele><time>2026-04-25T11:55:05.283Z</time></trkpt><trkpt lat="45.4128948" lon="14.1284317"><ele>880.0</ele><time>2026-04-25T11:55:06.277Z</time></trkpt><trkpt lat="45.4128633" lon="14.1285336"><ele>882.0000000000001</ele><time>2026-04-25T11:55:07.279Z</time></trkpt><trkpt lat="45.4128346" lon="14.128649"><ele>884.0</ele><time>2026-04-25T11:55:08.282Z</time></trkpt><trkpt lat="45.4128049" lon="14.1287689"><ele>884.0000000000001</ele><time>2026-04-25T11:55:09.271Z</time></trkpt><trkpt lat="45.4127716" lon="14.1288961"><ele>884.0</ele><time>2026-04-25T11:55:10.277Z</time></trkpt><trkpt lat="45.4127307" lon="14.1290032"><ele>884.0</ele><time>2026-04-25T11:55:11.276Z</time></trkpt><trkpt lat="45.4126824" lon="14.1290868"><ele>884.0</ele><time>2026-04-25T11:55:12.278Z</time></trkpt><trkpt lat="45.4126194" lon="14.1291698"><ele>884.0000000000001</ele><time>2026-04-25T11:55:13.268Z</time></trkpt><trkpt lat="45.412552" lon="14.1292157"><ele>884.0</ele><time>2026-04-25T11:55:14.276Z</time></trkpt><trkpt lat="45.4124628" lon="14.1292542"><ele>885.0</ele><time>2026-04-25T11:55:15.281Z</time></trkpt><trkpt lat="45.4123725" lon="14.129277"><ele>886.0000000000001</ele><time>2026-04-25T11:55:16.269Z</time></trkpt><trkpt lat="45.4122804" lon="14.1292987"><ele>887.0000000000001</ele><time>2026-04-25T11:55:17.281Z</time></trkpt><trkpt lat="45.4121785" lon="14.1293406"><ele>888.0</ele><time>2026-04-25T11:55:18.287Z</time></trkpt><trkpt lat="45.4120812" lon="14.1293869"><ele>889.0</ele><time>2026-04-25T11:55:19.289Z</time></trkpt><trkpt lat="45.4119885" lon="14.1294491"><ele>889.0</ele><time>2026-04-25T11:55:20.267Z</time></trkpt><trkpt lat="45.4119" lon="14.1295211"><ele>889.0000000000001</ele><time>2026-04-25T11:55:21.276Z</time></trkpt><trkpt lat="45.4118248" lon="14.1296002"><ele>889.0000000000001</ele><time>2026-04-25T11:55:22.276Z</time></trkpt><trkpt lat="45.4117456" lon="14.1296881"><ele>889.0</ele><time>2026-04-25T11:55:23.27Z</time></trkpt><trkpt lat="45.4116651" lon="14.1297787"><ele>889.0</ele><time>2026-04-25T11:55:24.281Z</time></trkpt><trkpt lat="45.4115819" lon="14.1298695"><ele>891.6</ele><time>2026-04-25T11:55:25.286Z</time></trkpt><trkpt lat="45.4115031" lon="14.1299541"><ele>894.2</ele><time>2026-04-25T11:55:26.284Z</time></trkpt><trkpt lat="45.4114204" lon="14.1300472"><ele>896.8000000000001</ele><time>2026-04-25T11:55:27.28Z</time></trkpt><trkpt lat="45.4113355" lon="14.1301345"><ele>899.4000000000001</ele><time>2026-04-25T11:55:28.282Z</time></trkpt><trkpt lat="45.411252" lon="14.1302244"><ele>902.0</ele><time>2026-04-25T11:55:29.297Z</time></trkpt><trkpt lat="45.4111706" lon="14.1303121"><ele>902.0</ele><time>2026-04-25T11:55:30.272Z</time></trkpt><trkpt lat="45.4110951" lon="14.1304059"><ele>902.0</ele><time>2026-04-25T11:55:31.283Z</time></trkpt><trkpt lat="45.4110212" lon="14.1305045"><ele>902.0</ele><time>2026-04-25T11:55:32.275Z</time></trkpt><trkpt lat="45.4109549" lon="14.1306108"><ele>902.0</ele><time>2026-04-25T11:55:33.288Z</time></trkpt><trkpt lat="45.410878" lon="14.1307308"><ele>902.0</ele><time>2026-04-25T11:55:34.272Z</time></trkpt><trkpt lat="45.4108049" lon="14.130851"><ele>904.0</ele><time>2026-04-25T11:55:35.293Z</time></trkpt><trkpt lat="45.4107257" lon="14.1309603"><ele>906.0</ele><time>2026-04-25T11:55:36.276Z</time></trkpt><trkpt lat="45.4106448" lon="14.1310449"><ele>908.0</ele><time>2026-04-25T11:55:37.279Z</time></trkpt><trkpt lat="45.4105603" lon="14.1310931"><ele>910.0</ele><time>2026-04-25T11:55:38.28Z</time></trkpt><trkpt lat="45.4104711" lon="14.1311309"><ele>912.0</ele><time>2026-04-25T11:55:39.281Z</time></trkpt><trkpt lat="45.4103728" lon="14.1311599"><ele>913.2</ele><time>2026-04-25T11:55:40.273Z</time></trkpt><trkpt lat="45.4102742" lon="14.131176"><ele>914.4000000000001</ele><time>2026-04-25T11:55:41.277Z</time></trkpt><trkpt lat="45.4101659" lon="14.1311962"><ele>915.5999999999999</ele><time>2026-04-25T11:55:42.281Z</time></trkpt><trkpt lat="45.4100471" lon="14.1312096"><ele>916.8</ele><time>2026-04-25T11:55:43.279Z</time></trkpt><trkpt lat="45.4099376" lon="14.1312471"><ele>918.0</ele><time>2026-04-25T11:55:44.278Z</time></trkpt><trkpt lat="45.4098253" lon="14.1313065"><ele>918.0</ele><time>2026-04-25T11:55:45.286Z</time></trkpt><trkpt lat="45.409725" lon="14.1313687"><ele>918.0</ele><time>2026-04-25T11:55:46.285Z</time></trkpt><trkpt lat="45.4096372" lon="14.1314498"><ele>918.0</ele><time>2026-04-25T11:55:47.277Z</time></trkpt><trkpt lat="45.409552" lon="14.1315358"><ele>918.0</ele><time>2026-04-25T11:55:48.291Z</time></trkpt><trkpt lat="45.4094722" lon="14.1316194"><ele>918.0</ele><time>2026-04-25T11:55:49.278Z</time></trkpt><trkpt lat="45.4093958" lon="14.1317159"><ele>920.8333333333334</ele><time>2026-04-25T11:55:50.282Z</time></trkpt><trkpt lat="45.4093261" lon="14.1318131"><ele>923.6666666666667</ele><time>2026-04-25T11:55:51.273Z</time></trkpt><trkpt lat="45.4092622" lon="14.1319078"><ele>926.5</ele><time>2026-04-25T11:55:52.274Z</time></trkpt><trkpt lat="45.409195" lon="14.1319909"><ele>929.3333333333334</ele><time>2026-04-25T11:55:53.274Z</time></trkpt><trkpt lat="45.4091295" lon="14.1320681"><ele>932.1666666666667</ele><time>2026-04-25T11:55:54.278Z</time></trkpt><trkpt lat="45.4090637" lon="14.1321353"><ele>935.0</ele><time>2026-04-25T11:55:55.284Z</time></trkpt><trkpt lat="45.4089987" lon="14.132201"><ele>935.0</ele><time>2026-04-25T11:55:56.279Z</time></trkpt><trkpt lat="45.4089257" lon="14.132258"><ele>935.0</ele><time>2026-04-25T11:55:57.283Z</time></trkpt><trkpt lat="45.4088403" lon="14.1323171"><ele>935.0</ele><time>2026-04-25T11:55:58.266Z</time></trkpt><trkpt lat="45.4087536" lon="14.1323758"><ele>935.0</ele><time>2026-04-25T11:55:59.271Z</time></trkpt><trkpt lat="45.4086612" lon="14.1324389"><ele>935.0</ele><time>2026-04-25T11:56:00.273Z</time></trkpt><trkpt lat="45.4085635" lon="14.1324977"><ele>933.8</ele><time>2026-04-25T11:56:01.282Z</time></trkpt><trkpt lat="45.408464" lon="14.1325589"><ele>932.6</ele><time>2026-04-25T11:56:02.281Z</time></trkpt><trkpt lat="45.408368" lon="14.1326122"><ele>931.4000000000001</ele><time>2026-04-25T11:56:03.28Z</time></trkpt><trkpt lat="45.4082663" lon="14.1326656"><ele>930.2</ele><time>2026-04-25T11:56:04.283Z</time></trkpt><trkpt lat="45.4081633" lon="14.1327121"><ele>929.0</ele><time>2026-04-25T11:56:05.284Z</time></trkpt><trkpt lat="45.4080675" lon="14.1327554"><ele>931.8000000000001</ele><time>2026-04-25T11:56:06.278Z</time></trkpt><trkpt lat="45.4079792" lon="14.1328062"><ele>934.6000000000001</ele><time>2026-04-25T11:56:07.282Z</time></trkpt><trkpt lat="45.4079072" lon="14.1328641"><ele>937.4</ele><time>2026-04-25T11:56:08.275Z</time></trkpt><trkpt lat="45.407846" lon="14.1329382"><ele>940.2</ele><time>2026-04-25T11:56:09.27Z</time></trkpt><trkpt lat="45.4077813" lon="14.1330382"><ele>943.0</ele><time>2026-04-25T11:56:10.279Z</time></trkpt><trkpt lat="45.4077277" lon="14.1331739"><ele>941.0</ele><time>2026-04-25T11:56:11.281Z</time></trkpt><trkpt lat="45.4077054" lon="14.1333176"><ele>939.0</ele><time>2026-04-25T11:56:12.278Z</time></trkpt><trkpt lat="45.4076908" lon="14.1334779"><ele>937.0</ele><time>2026-04-25T11:56:13.278Z</time></trkpt><trkpt lat="45.4076819" lon="14.1336338"><ele>935.0</ele><time>2026-04-25T11:56:14.274Z</time></trkpt><trkpt lat="45.4076688" lon="14.1337869"><ele>933.0</ele><time>2026-04-25T11:56:15.272Z</time></trkpt><trkpt lat="45.4076562" lon="14.1339281"><ele>933.0</ele><time>2026-04-25T11:56:16.272Z</time></trkpt><trkpt lat="45.4076429" lon="14.1340536"><ele>933.0</ele><time>2026-04-25T11:56:17.274Z</time></trkpt><trkpt lat="45.407614" lon="14.1341565"><ele>933.0</ele><time>2026-04-25T11:56:18.285Z</time></trkpt><trkpt lat="45.4075799" lon="14.134255"><ele>933.0</ele><time>2026-04-25T11:56:19.28Z</time></trkpt><trkpt lat="45.4075384" lon="14.134361"><ele>933.0</ele><time>2026-04-25T11:56:20.285Z</time></trkpt><trkpt lat="45.407483" lon="14.1344735"><ele>933.0</ele><time>2026-04-25T11:56:21.283Z</time></trkpt><trkpt lat="45.4074226" lon="14.134598"><ele>933.2</ele><time>2026-04-25T11:56:22.293Z</time></trkpt><trkpt lat="45.4073545" lon="14.134723"><ele>933.4</ele><time>2026-04-25T11:56:23.282Z</time></trkpt><trkpt lat="45.4072889" lon="14.1348368"><ele>933.6000000000001</ele><time>2026-04-25T11:56:24.289Z</time></trkpt><trkpt lat="45.4072222" lon="14.1349529"><ele>933.8000000000001</ele><time>2026-04-25T11:56:25.291Z</time></trkpt><trkpt lat="45.407154" lon="14.1350688"><ele>934.0</ele><time>2026-04-25T11:56:26.291Z</time></trkpt><trkpt lat="45.4071009" lon="14.1351693"><ele>933.0</ele><time>2026-04-25T11:56:27.28Z</time></trkpt><trkpt lat="45.4070611" lon="14.1352579"><ele>932.0000000000001</ele><time>2026-04-25T11:56:28.289Z</time></trkpt><trkpt lat="45.4069838" lon="14.1353749"><ele>931.0000000000001</ele><time>2026-04-25T11:56:30.279Z</time></trkpt><trkpt lat="45.406871" lon="14.1354567"><ele>930.0</ele><time>2026-04-25T11:56:32.28Z</time></trkpt><trkpt lat="45.4068044" lon="14.1354891"><ele>929.0</ele><time>2026-04-25T11:56:33.271Z</time></trkpt><trkpt lat="45.4067301" lon="14.1355155"><ele>929.0000000000001</ele><time>2026-04-25T11:56:34.276Z</time></trkpt><trkpt lat="45.406654" lon="14.1355466"><ele>929.0</ele><time>2026-04-25T11:56:35.275Z</time></trkpt><trkpt lat="45.4065835" lon="14.1355759"><ele>929.0</ele><time>2026-04-25T11:56:36.275Z</time></trkpt><trkpt lat="45.4065161" lon="14.1356036"><ele>929.0</ele><time>2026-04-25T11:56:37.273Z</time></trkpt><trkpt lat="45.4064496" lon="14.1356262"><ele>929.0000000000001</ele><time>2026-04-25T11:56:38.269Z</time></trkpt><trkpt lat="45.4063826" lon="14.135649"><ele>929.0</ele><time>2026-04-25T11:56:39.274Z</time></trkpt><trkpt lat="45.4062736" lon="14.1357448"><ele>927.6666666666667</ele><time>2026-04-25T11:56:41.281Z</time></trkpt><trkpt lat="45.4062183" lon="14.1358303"><ele>926.3333333333334</ele><time>2026-04-25T11:56:42.276Z</time></trkpt><trkpt lat="45.4061616" lon="14.135924"><ele>925.0</ele><time>2026-04-25T11:56:43.279Z</time></trkpt><trkpt lat="45.40611" lon="14.136029"><ele>923.6666666666667</ele><time>2026-04-25T11:56:44.277Z</time></trkpt><trkpt lat="45.4060665" lon="14.1361257"><ele>922.3333333333334</ele><time>2026-04-25T11:56:45.285Z</time></trkpt><trkpt lat="45.4060302" lon="14.1362167"><ele>921.0</ele><time>2026-04-25T11:56:46.29Z</time></trkpt><trkpt lat="45.4059494" lon="14.1363377"><ele>921.0</ele><time>2026-04-25T11:56:48.283Z</time></trkpt><trkpt lat="45.405831" lon="14.1364229"><ele>920.9999999999999</ele><time>2026-04-25T11:56:50.276Z</time></trkpt><trkpt lat="45.4057587" lon="14.1364376"><ele>920.9999999999999</ele><time>2026-04-25T11:56:51.284Z</time></trkpt><trkpt lat="45.405693" lon="14.1364534"><ele>921.0</ele><time>2026-04-25T11:56:52.276Z</time></trkpt><trkpt lat="45.4056304" lon="14.1364745"><ele>921.0</ele><time>2026-04-25T11:56:53.279Z</time></trkpt><trkpt lat="45.4055064" lon="14.1365534"><ele>920.0</ele><time>2026-04-25T11:56:55.282Z</time></trkpt><trkpt lat="45.4054428" lon="14.136614"><ele>919.0</ele><time>2026-04-25T11:56:56.285Z</time></trkpt><trkpt lat="45.4053788" lon="14.1366913"><ele>918.0</ele><time>2026-04-25T11:56:57.283Z</time></trkpt><trkpt lat="45.4053261" lon="14.136781"><ele>917.0</ele><time>2026-04-25T11:56:58.279Z</time></trkpt><trkpt lat="45.4052753" lon="14.1368718"><ele>916.0</ele><time>2026-04-25T11:56:59.28Z</time></trkpt><trkpt lat="45.4052274" lon="14.1369518"><ele>915.0</ele><time>2026-04-25T11:57:00.28Z</time></trkpt><trkpt lat="45.4051809" lon="14.1370418"><ele>915.0</ele><time>2026-04-25T11:57:01.278Z</time></trkpt><trkpt lat="45.4051294" lon="14.137116"><ele>915.0</ele><time>2026-04-25T11:57:02.275Z</time></trkpt><trkpt lat="45.4050801" lon="14.1371917"><ele>915.0</ele><time>2026-04-25T11:57:03.281Z</time></trkpt><trkpt lat="45.4050197" lon="14.1372658"><ele>915.0</ele><time>2026-04-25T11:57:04.289Z</time></trkpt><trkpt lat="45.4049637" lon="14.1373439"><ele>915.0</ele><time>2026-04-25T11:57:05.287Z</time></trkpt><trkpt lat="45.4049081" lon="14.137409"><ele>915.0</ele><time>2026-04-25T11:57:06.278Z</time></trkpt><trkpt lat="45.4048497" lon="14.1374805"><ele>914.1666666666666</ele><time>2026-04-25T11:57:07.289Z</time></trkpt><trkpt lat="45.4047968" lon="14.1375657"><ele>913.3333333333333</ele><time>2026-04-25T11:57:08.271Z</time></trkpt><trkpt lat="45.4047474" lon="14.1376657"><ele>912.5</ele><time>2026-04-25T11:57:09.288Z</time></trkpt><trkpt lat="45.4046934" lon="14.1377694"><ele>911.6666666666666</ele><time>2026-04-25T11:57:10.275Z</time></trkpt><trkpt lat="45.4046382" lon="14.1378785"><ele>910.8333333333333</ele><time>2026-04-25T11:57:11.293Z</time></trkpt><trkpt lat="45.4045785" lon="14.13799"><ele>910.0</ele><time>2026-04-25T11:57:12.288Z</time></trkpt><trkpt lat="45.4045272" lon="14.138107"><ele>910.3333333333333</ele><time>2026-04-25T11:57:13.29Z</time></trkpt><trkpt lat="45.4044703" lon="14.1382196"><ele>910.6666666666666</ele><time>2026-04-25T11:57:14.272Z</time></trkpt><trkpt lat="45.404421" lon="14.1383271"><ele>911.0</ele><time>2026-04-25T11:57:15.279Z</time></trkpt><trkpt lat="45.4043837" lon="14.1384206"><ele>911.3333333333333</ele><time>2026-04-25T11:57:16.275Z</time></trkpt><trkpt lat="45.4043471" lon="14.1385139"><ele>911.6666666666666</ele><time>2026-04-25T11:57:17.28Z</time></trkpt><trkpt lat="45.4043141" lon="14.1385942"><ele>912.0</ele><time>2026-04-25T11:57:18.283Z</time></trkpt><trkpt lat="45.4042711" lon="14.1386617"><ele>912.0</ele><time>2026-04-25T11:57:19.277Z</time></trkpt><trkpt lat="45.4041991" lon="14.1387861"><ele>912.0</ele><time>2026-04-25T11:57:21.285Z</time></trkpt><trkpt lat="45.4041482" lon="14.1388484"><ele>912.0</ele><time>2026-04-25T11:57:22.276Z</time></trkpt><trkpt lat="45.4040721" lon="14.1388893"><ele>912.0</ele><time>2026-04-25T11:57:23.281Z</time></trkpt><trkpt lat="45.4039801" lon="14.1389326"><ele>912.0</ele><time>2026-04-25T11:57:24.284Z</time></trkpt><trkpt lat="45.4038897" lon="14.1389754"><ele>910.2</ele><time>2026-04-25T11:57:25.278Z</time></trkpt><trkpt lat="45.403796" lon="14.1390245"><ele>908.4000000000001</ele><time>2026-04-25T11:57:26.286Z</time></trkpt><trkpt lat="45.403716" lon="14.1390886"><ele>906.5999999999999</ele><time>2026-04-25T11:57:27.285Z</time></trkpt><trkpt lat="45.4036334" lon="14.1391709"><ele>904.8</ele><time>2026-04-25T11:57:28.286Z</time></trkpt><trkpt lat="45.4035593" lon="14.1392601"><ele>903.0</ele><time>2026-04-25T11:57:29.289Z</time></trkpt><trkpt lat="45.4034957" lon="14.1393522"><ele>902.8333333333334</ele><time>2026-04-25T11:57:30.284Z</time></trkpt><trkpt lat="45.403446" lon="14.1394328"><ele>902.6666666666667</ele><time>2026-04-25T11:57:31.276Z</time></trkpt><trkpt lat="45.4034041" lon="14.1395064"><ele>902.5</ele><time>2026-04-25T11:57:32.277Z</time></trkpt><trkpt lat="45.403357" lon="14.139575"><ele>902.3333333333334</ele><time>2026-04-25T11:57:33.283Z</time></trkpt><trkpt lat="45.4032611" lon="14.1396984"><ele>902.1666666666667</ele><time>2026-04-25T11:57:35.284Z</time></trkpt><trkpt lat="45.403197" lon="14.139758"><ele>902.0</ele><time>2026-04-25T11:57:36.278Z</time></trkpt><trkpt lat="45.4031187" lon="14.1398297"><ele>902.6</ele><time>2026-04-25T11:57:37.288Z</time></trkpt><trkpt lat="45.4030322" lon="14.1399122"><ele>903.2</ele><time>2026-04-25T11:57:38.282Z</time></trkpt><trkpt lat="45.4029517" lon="14.1400013"><ele>903.8</ele><time>2026-04-25T11:57:39.278Z</time></trkpt><trkpt lat="45.4028854" lon="14.1401198"><ele>904.4</ele><time>2026-04-25T11:57:40.279Z</time></trkpt><trkpt lat="45.4028356" lon="14.1402565"><ele>905.0</ele><time>2026-04-25T11:57:41.279Z</time></trkpt><trkpt lat="45.4027945" lon="14.1404077"><ele>905.0</ele><time>2026-04-25T11:57:42.278Z</time></trkpt><trkpt lat="45.4027561" lon="14.1405498"><ele>905.0</ele><time>2026-04-25T11:57:43.282Z</time></trkpt><trkpt lat="45.4027299" lon="14.1406797"><ele>905.0</ele><time>2026-04-25T11:57:44.28Z</time></trkpt><trkpt lat="45.40271" lon="14.1407992"><ele>905.0</ele><time>2026-04-25T11:57:45.279Z</time></trkpt><trkpt lat="45.4027029" lon="14.1409355"><ele>905.0</ele><time>2026-04-25T11:57:46.278Z</time></trkpt><trkpt lat="45.4027101" lon="14.1410767"><ele>905.0000000000001</ele><time>2026-04-25T11:57:47.28Z</time></trkpt><trkpt lat="45.4027185" lon="14.1412064"><ele>905.0</ele><time>2026-04-25T11:57:48.275Z</time></trkpt><trkpt lat="45.4027237" lon="14.1413279"><ele>905.0</ele><time>2026-04-25T11:57:49.289Z</time></trkpt><trkpt lat="45.4027214" lon="14.1414456"><ele>905.0</ele><time>2026-04-25T11:57:50.273Z</time></trkpt><trkpt lat="45.4027087" lon="14.1415538"><ele>905.0000000000001</ele><time>2026-04-25T11:57:51.276Z</time></trkpt><trkpt lat="45.4026857" lon="14.1416701"><ele>905.0</ele><time>2026-04-25T11:57:52.28Z</time></trkpt><trkpt lat="45.4026367" lon="14.1417908"><ele>906.2</ele><time>2026-04-25T11:57:53.285Z</time></trkpt><trkpt lat="45.402583" lon="14.141921"><ele>907.4</ele><time>2026-04-25T11:57:54.284Z</time></trkpt><trkpt lat="45.4025202" lon="14.142046"><ele>908.5999999999999</ele><time>2026-04-25T11:57:55.277Z</time></trkpt><trkpt lat="45.4024539" lon="14.142179"><ele>909.8</ele><time>2026-04-25T11:57:56.28Z</time></trkpt><trkpt lat="45.4023911" lon="14.1423113"><ele>911.0</ele><time>2026-04-25T11:57:57.281Z</time></trkpt><trkpt lat="45.4023359" lon="14.1424313"><ele>911.6666666666667</ele><time>2026-04-25T11:57:58.275Z</time></trkpt><trkpt lat="45.4022975" lon="14.1425432"><ele>912.3333333333334</ele><time>2026-04-25T11:57:59.277Z</time></trkpt><trkpt lat="45.4022582" lon="14.1426487"><ele>913.0</ele><time>2026-04-25T11:58:00.272Z</time></trkpt><trkpt lat="45.4022236" lon="14.1427516"><ele>913.6666666666667</ele><time>2026-04-25T11:58:01.273Z</time></trkpt><trkpt lat="45.4021853" lon="14.1428534"><ele>914.3333333333334</ele><time>2026-04-25T11:58:02.272Z</time></trkpt><trkpt lat="45.4021348" lon="14.1429441"><ele>915.0</ele><time>2026-04-25T11:58:03.272Z</time></trkpt><trkpt lat="45.4020746" lon="14.1430243"><ele>915.0</ele><time>2026-04-25T11:58:04.27Z</time></trkpt><trkpt lat="45.4020203" lon="14.1431032"><ele>915.0000000000001</ele><time>2026-04-25T11:58:05.278Z</time></trkpt><trkpt lat="45.4019649" lon="14.1431675"><ele>915.0</ele><time>2026-04-25T11:58:06.276Z</time></trkpt><trkpt lat="45.4019039" lon="14.143221"><ele>915.0</ele><time>2026-04-25T11:58:07.274Z</time></trkpt><trkpt lat="45.4018392" lon="14.1432707"><ele>915.0000000000001</ele><time>2026-04-25T11:58:08.276Z</time></trkpt><trkpt lat="45.4017856" lon="14.1433253"><ele>915.0</ele><time>2026-04-25T11:58:09.269Z</time></trkpt><trkpt lat="45.4017462" lon="14.1433968"><ele>915.0</ele><time>2026-04-25T11:58:10.269Z</time></trkpt><trkpt lat="45.401723" lon="14.1434828"><ele>917.1666666666666</ele><time>2026-04-25T11:58:11.269Z</time></trkpt><trkpt lat="45.4017161" lon="14.1436101"><ele>919.3333333333333</ele><time>2026-04-25T11:58:13.261Z</time></trkpt><trkpt lat="45.4017463" lon="14.1437662"><ele>921.5</ele><time>2026-04-25T11:58:15.277Z</time></trkpt><trkpt lat="45.4017649" lon="14.1438657"><ele>923.6666666666666</ele><time>2026-04-25T11:58:16.273Z</time></trkpt><trkpt lat="45.4017781" lon="14.1439848"><ele>925.8333333333333</ele><time>2026-04-25T11:58:17.285Z</time></trkpt><trkpt lat="45.4017778" lon="14.1441057"><ele>928.0</ele><time>2026-04-25T11:58:18.267Z</time></trkpt><trkpt lat="45.401757" lon="14.144226"><ele>929.8333333333333</ele><time>2026-04-25T11:58:19.267Z</time></trkpt><trkpt lat="45.4017374" lon="14.1443257"><ele>931.6666666666666</ele><time>2026-04-25T11:58:20.253Z</time></trkpt><trkpt lat="45.4017162" lon="14.1444107"><ele>933.5</ele><time>2026-04-25T11:58:21.269Z</time></trkpt><trkpt lat="45.4016398" lon="14.1445523"><ele>935.3333333333333</ele><time>2026-04-25T11:58:23.26Z</time></trkpt><trkpt lat="45.4015785" lon="14.14461"><ele>937.1666666666666</ele><time>2026-04-25T11:58:24.277Z</time></trkpt><trkpt lat="45.4015071" lon="14.1446569"><ele>939.0</ele><time>2026-04-25T11:58:25.269Z</time></trkpt><trkpt lat="45.4014261" lon="14.144702"><ele>939.0</ele><time>2026-04-25T11:58:26.266Z</time></trkpt><trkpt lat="45.4013386" lon="14.1447371"><ele>939.0</ele><time>2026-04-25T11:58:27.279Z</time></trkpt><trkpt lat="45.4012589" lon="14.1447683"><ele>939.0</ele><time>2026-04-25T11:58:28.278Z</time></trkpt><trkpt lat="45.4011911" lon="14.1447936"><ele>939.0</ele><time>2026-04-25T11:58:29.274Z</time></trkpt><trkpt lat="45.4010843" lon="14.1448912"><ele>939.0</ele><time>2026-04-25T11:58:31.269Z</time></trkpt><trkpt lat="45.4010391" lon="14.1449571"><ele>939.0</ele><time>2026-04-25T11:58:32.272Z</time></trkpt><trkpt lat="45.4010063" lon="14.1450359"><ele>938.2</ele><time>2026-04-25T11:58:33.273Z</time></trkpt><trkpt lat="45.4009761" lon="14.1452124"><ele>937.4000000000001</ele><time>2026-04-25T11:58:35.279Z</time></trkpt><trkpt lat="45.4009778" lon="14.1453232"><ele>936.6</ele><time>2026-04-25T11:58:36.269Z</time></trkpt><trkpt lat="45.4010015" lon="14.1454412"><ele>935.8</ele><time>2026-04-25T11:58:37.279Z</time></trkpt><trkpt lat="45.4010498" lon="14.1455544"><ele>935.0</ele><time>2026-04-25T11:58:38.28Z</time></trkpt><trkpt lat="45.4010987" lon="14.1456602"><ele>933.6</ele><time>2026-04-25T11:58:39.276Z</time></trkpt><trkpt lat="45.4011555" lon="14.1457852"><ele>932.2</ele><time>2026-04-25T11:58:40.291Z</time></trkpt><trkpt lat="45.4012123" lon="14.145907"><ele>930.8</ele><time>2026-04-25T11:58:41.292Z</time></trkpt><trkpt lat="45.4012729" lon="14.1460216"><ele>929.4</ele><time>2026-04-25T11:58:42.282Z</time></trkpt><trkpt lat="45.4013301" lon="14.1461362"><ele>928.0</ele><time>2026-04-25T11:58:43.284Z</time></trkpt><trkpt lat="45.4013905" lon="14.1462463"><ele>929.4</ele><time>2026-04-25T11:58:44.289Z</time></trkpt><trkpt lat="45.4014511" lon="14.1463441"><ele>930.8</ele><time>2026-04-25T11:58:45.283Z</time></trkpt><trkpt lat="45.4015169" lon="14.1464356"><ele>932.2</ele><time>2026-04-25T11:58:46.303Z</time></trkpt><trkpt lat="45.4015914" lon="14.14654"><ele>933.6</ele><time>2026-04-25T11:58:47.284Z</time></trkpt><trkpt lat="45.4016591" lon="14.1466336"><ele>935.0</ele><time>2026-04-25T11:58:48.287Z</time></trkpt><trkpt lat="45.4017197" lon="14.1467289"><ele>935.0000000000001</ele><time>2026-04-25T11:58:49.284Z</time></trkpt><trkpt lat="45.4017742" lon="14.1468199"><ele>935.0</ele><time>2026-04-25T11:58:50.288Z</time></trkpt><trkpt lat="45.4018245" lon="14.1469076"><ele>935.0</ele><time>2026-04-25T11:58:51.288Z</time></trkpt><trkpt lat="45.4018632" lon="14.1469949"><ele>935.0</ele><time>2026-04-25T11:58:52.279Z</time></trkpt><trkpt lat="45.4018982" lon="14.1471128"><ele>935.0000000000001</ele><time>2026-04-25T11:58:53.292Z</time></trkpt><trkpt lat="45.4019301" lon="14.1472287"><ele>935.0</ele><time>2026-04-25T11:58:54.285Z</time></trkpt><trkpt lat="45.4019585" lon="14.1473449"><ele>932.6666666666667</ele><time>2026-04-25T11:58:55.28Z</time></trkpt><trkpt lat="45.4019783" lon="14.1474573"><ele>930.3333333333334</ele><time>2026-04-25T11:58:56.273Z</time></trkpt><trkpt lat="45.4019952" lon="14.1475688"><ele>928.0</ele><time>2026-04-25T11:58:57.279Z</time></trkpt><trkpt lat="45.4020065" lon="14.1476797"><ele>925.6666666666667</ele><time>2026-04-25T11:58:58.282Z</time></trkpt><trkpt lat="45.4020107" lon="14.1477968"><ele>923.3333333333334</ele><time>2026-04-25T11:58:59.292Z</time></trkpt><trkpt lat="45.4020082" lon="14.1479111"><ele>921.0</ele><time>2026-04-25T11:59:00.288Z</time></trkpt><trkpt lat="45.4020045" lon="14.1480186"><ele>921.0</ele><time>2026-04-25T11:59:01.277Z</time></trkpt><trkpt lat="45.4020039" lon="14.1481295"><ele>921.0</ele><time>2026-04-25T11:59:02.281Z</time></trkpt><trkpt lat="45.402005" lon="14.1482343"><ele>921.0</ele><time>2026-04-25T11:59:03.278Z</time></trkpt><trkpt lat="45.4020122" lon="14.1483416"><ele>921.0</ele><time>2026-04-25T11:59:04.28Z</time></trkpt><trkpt lat="45.4020255" lon="14.1484428"><ele>921.0</ele><time>2026-04-25T11:59:05.285Z</time></trkpt><trkpt lat="45.4020553" lon="14.1485573"><ele>921.0</ele><time>2026-04-25T11:59:06.288Z</time></trkpt><trkpt lat="45.4020938" lon="14.148661"><ele>919.5999999999999</ele><time>2026-04-25T11:59:07.293Z</time></trkpt><trkpt lat="45.4021418" lon="14.1487656"><ele>918.1999999999999</ele><time>2026-04-25T11:59:08.287Z</time></trkpt><trkpt lat="45.4022028" lon="14.1488804"><ele>916.8000000000001</ele><time>2026-04-25T11:59:09.281Z</time></trkpt><trkpt lat="45.4022725" lon="14.1490029"><ele>915.4000000000001</ele><time>2026-04-25T11:59:10.292Z</time></trkpt><trkpt lat="45.4023397" lon="14.1491235"><ele>914.0</ele><time>2026-04-25T11:59:11.286Z</time></trkpt><trkpt lat="45.4023982" lon="14.1492335"><ele>916.3333333333334</ele><time>2026-04-25T11:59:12.285Z</time></trkpt><trkpt lat="45.4024542" lon="14.1493397"><ele>918.6666666666667</ele><time>2026-04-25T11:59:13.294Z</time></trkpt><trkpt lat="45.4025062" lon="14.1494432"><ele>921.0</ele><time>2026-04-25T11:59:14.278Z</time></trkpt><trkpt lat="45.4025558" lon="14.149538"><ele>923.3333333333333</ele><time>2026-04-25T11:59:15.286Z</time></trkpt><trkpt lat="45.4026054" lon="14.1496273"><ele>925.6666666666666</ele><time>2026-04-25T11:59:16.282Z</time></trkpt><trkpt lat="45.4026497" lon="14.1497115"><ele>928.0</ele><time>2026-04-25T11:59:17.284Z</time></trkpt><trkpt lat="45.402697" lon="14.1497957"><ele>928.0000000000001</ele><time>2026-04-25T11:59:18.283Z</time></trkpt><trkpt lat="45.4027419" lon="14.1498748"><ele>928.0</ele><time>2026-04-25T11:59:19.281Z</time></trkpt><trkpt lat="45.4027939" lon="14.1499591"><ele>928.0000000000001</ele><time>2026-04-25T11:59:20.29Z</time></trkpt><trkpt lat="45.402853" lon="14.1500394"><ele>928.0000000000001</ele><time>2026-04-25T11:59:21.289Z</time></trkpt><trkpt lat="45.4029081" lon="14.1501099"><ele>928.0</ele><time>2026-04-25T11:59:22.291Z</time></trkpt><trkpt lat="45.4029672" lon="14.1501714"><ele>928.0000000000001</ele><time>2026-04-25T11:59:23.281Z</time></trkpt><trkpt lat="45.4030275" lon="14.1502202"><ele>928.0000000000001</ele><time>2026-04-25T11:59:24.282Z</time></trkpt><trkpt lat="45.4030934" lon="14.1502631"><ele>926.9999999999999</ele><time>2026-04-25T11:59:25.275Z</time></trkpt><trkpt lat="45.4031649" lon="14.1502884"><ele>926.0</ele><time>2026-04-25T11:59:26.283Z</time></trkpt><trkpt lat="45.4032313" lon="14.1503079"><ele>925.0</ele><time>2026-04-25T11:59:27.287Z</time></trkpt><trkpt lat="45.4032964" lon="14.1503226"><ele>924.0</ele><time>2026-04-25T11:59:28.267Z</time></trkpt><trkpt lat="45.4034192" lon="14.1503537"><ele>922.9999999999999</ele><time>2026-04-25T11:59:30.284Z</time></trkpt><trkpt lat="45.4034805" lon="14.1504035"><ele>922.0</ele><time>2026-04-25T11:59:31.271Z</time></trkpt><trkpt lat="45.4035398" lon="14.1504656"><ele>922.0</ele><time>2026-04-25T11:59:32.274Z</time></trkpt><trkpt lat="45.4035861" lon="14.1505333"><ele>922.0000000000001</ele><time>2026-04-25T11:59:33.264Z</time></trkpt><trkpt lat="45.4036296" lon="14.1506073"><ele>922.0</ele><time>2026-04-25T11:59:34.267Z</time></trkpt><trkpt lat="45.4036586" lon="14.1506985"><ele>922.0</ele><time>2026-04-25T11:59:35.269Z</time></trkpt><trkpt lat="45.4036851" lon="14.1507968"><ele>922.0000000000001</ele><time>2026-04-25T11:59:36.275Z</time></trkpt><trkpt lat="45.4037027" lon="14.1508972"><ele>922.0</ele><time>2026-04-25T11:59:37.273Z</time></trkpt><trkpt lat="45.4037209" lon="14.1510063"><ele>922.0</ele><time>2026-04-25T11:59:38.27Z</time></trkpt><trkpt lat="45.4037402" lon="14.1511229"><ele>920.9999999999999</ele><time>2026-04-25T11:59:39.272Z</time></trkpt><trkpt lat="45.4037528" lon="14.1512298"><ele>920.0</ele><time>2026-04-25T11:59:40.267Z</time></trkpt><trkpt lat="45.4037521" lon="14.1513395"><ele>919.0</ele><time>2026-04-25T11:59:41.281Z</time></trkpt><trkpt lat="45.4037473" lon="14.1514415"><ele>918.0</ele><time>2026-04-25T11:59:42.27Z</time></trkpt><trkpt lat="45.4037242" lon="14.1515356"><ele>916.9999999999999</ele><time>2026-04-25T11:59:43.273Z</time></trkpt><trkpt lat="45.4036863" lon="14.1516371"><ele>916.0</ele><time>2026-04-25T11:59:44.272Z</time></trkpt><trkpt lat="45.4036404" lon="14.1517386"><ele>915.4999999999999</ele><time>2026-04-25T11:59:45.266Z</time></trkpt><trkpt lat="45.4035935" lon="14.1518339"><ele>915.0</ele><time>2026-04-25T11:59:46.273Z</time></trkpt><trkpt lat="45.4035578" lon="14.1519301"><ele>914.5</ele><time>2026-04-25T11:59:47.271Z</time></trkpt><trkpt lat="45.4035375" lon="14.1520178"><ele>914.0</ele><time>2026-04-25T11:59:48.276Z</time></trkpt><trkpt lat="45.4035077" lon="14.1521876"><ele>913.4999999999999</ele><time>2026-04-25T11:59:50.27Z</time></trkpt><trkpt lat="45.4035038" lon="14.1522804"><ele>913.0</ele><time>2026-04-25T11:59:51.273Z</time></trkpt><trkpt lat="45.4035163" lon="14.1523825"><ele>912.7142857142856</ele><time>2026-04-25T11:59:52.279Z</time></trkpt><trkpt lat="45.4035307" lon="14.1524911"><ele>912.4285714285713</ele><time>2026-04-25T11:59:53.276Z</time></trkpt><trkpt lat="45.4035526" lon="14.1525851"><ele>912.1428571428571</ele><time>2026-04-25T11:59:54.276Z</time></trkpt><trkpt lat="45.4035755" lon="14.1526894"><ele>911.8571428571428</ele><time>2026-04-25T11:59:55.284Z</time></trkpt><trkpt lat="45.4035985" lon="14.152792"><ele>911.5714285714284</ele><time>2026-04-25T11:59:56.286Z</time></trkpt><trkpt lat="45.4036204" lon="14.152889"><ele>911.2857142857143</ele><time>2026-04-25T11:59:57.289Z</time></trkpt><trkpt lat="45.4036419" lon="14.1529871"><ele>911.0</ele><time>2026-04-25T11:59:58.274Z</time></trkpt><trkpt lat="45.4036528" lon="14.1530871"><ele>911.0000000000001</ele><time>2026-04-25T11:59:59.279Z</time></trkpt><trkpt lat="45.4036445" lon="14.1531989"><ele>911.0</ele><time>2026-04-25T12:00:00.282Z</time></trkpt><trkpt lat="45.4036232" lon="14.1533186"><ele>911.0</ele><time>2026-04-25T12:00:01.27Z</time></trkpt><trkpt lat="45.4035987" lon="14.1534314"><ele>911.0</ele><time>2026-04-25T12:00:02.28Z</time></trkpt><trkpt lat="45.4035681" lon="14.1535438"><ele>911.0000000000001</ele><time>2026-04-25T12:00:03.279Z</time></trkpt><trkpt lat="45.4035346" lon="14.1536459"><ele>911.0</ele><time>2026-04-25T12:00:04.282Z</time></trkpt><trkpt lat="45.4034973" lon="14.153745"><ele>911.0000000000001</ele><time>2026-04-25T12:00:05.279Z</time></trkpt><trkpt lat="45.4034557" lon="14.1538432"><ele>911.0</ele><time>2026-04-25T12:00:06.279Z</time></trkpt><trkpt lat="45.4034179" lon="14.1539444"><ele>911.0</ele><time>2026-04-25T12:00:07.275Z</time></trkpt><trkpt lat="45.4033931" lon="14.1540462"><ele>911.0</ele><time>2026-04-25T12:00:08.278Z</time></trkpt><trkpt lat="45.4033697" lon="14.1541409"><ele>911.0000000000001</ele><time>2026-04-25T12:00:09.285Z</time></trkpt><trkpt lat="45.4033141" lon="14.154274"><ele>911.0</ele><time>2026-04-25T12:00:11.276Z</time></trkpt><trkpt lat="45.4032244" lon="14.1543714"><ele>910.0</ele><time>2026-04-25T12:00:13.281Z</time></trkpt><trkpt lat="45.4031162" lon="14.1544387"><ele>908.9999999999999</ele><time>2026-04-25T12:00:15.281Z</time></trkpt><trkpt lat="45.4029929" lon="14.1544882"><ele>907.9999999999999</ele><time>2026-04-25T12:00:17.279Z</time></trkpt><trkpt lat="45.4029232" lon="14.1545083"><ele>907.0</ele><time>2026-04-25T12:00:18.278Z</time></trkpt><trkpt lat="45.4028454" lon="14.1545158"><ele>906.0</ele><time>2026-04-25T12:00:19.283Z</time></trkpt><trkpt lat="45.402766" lon="14.1545224"><ele>905.7142857142856</ele><time>2026-04-25T12:00:20.287Z</time></trkpt><trkpt lat="45.4026933" lon="14.1545365"><ele>905.4285714285713</ele><time>2026-04-25T12:00:21.286Z</time></trkpt><trkpt lat="45.4026257" lon="14.1545618"><ele>905.1428571428571</ele><time>2026-04-25T12:00:22.284Z</time></trkpt><trkpt lat="45.4025605" lon="14.1545983"><ele>904.8571428571428</ele><time>2026-04-25T12:00:23.28Z</time></trkpt><trkpt lat="45.4024951" lon="14.1546417"><ele>904.5714285714284</ele><time>2026-04-25T12:00:24.283Z</time></trkpt><trkpt lat="45.4024324" lon="14.1546972"><ele>904.2857142857143</ele><time>2026-04-25T12:00:25.289Z</time></trkpt><trkpt lat="45.4023674" lon="14.1547797"><ele>904.0</ele><time>2026-04-25T12:00:26.277Z</time></trkpt><trkpt lat="45.4023022" lon="14.1548709"><ele>901.8000000000001</ele><time>2026-04-25T12:00:27.281Z</time></trkpt><trkpt lat="45.4022387" lon="14.1549598"><ele>899.6000000000001</ele><time>2026-04-25T12:00:28.285Z</time></trkpt><trkpt lat="45.4021805" lon="14.1550506"><ele>897.4</ele><time>2026-04-25T12:00:29.278Z</time></trkpt><trkpt lat="45.4021185" lon="14.1551448"><ele>895.2</ele><time>2026-04-25T12:00:30.284Z</time></trkpt><trkpt lat="45.402049" lon="14.1552488"><ele>893.0</ele><time>2026-04-25T12:00:31.295Z</time></trkpt><trkpt lat="45.4019729" lon="14.1553662"><ele>893.0</ele><time>2026-04-25T12:00:32.287Z</time></trkpt><trkpt lat="45.4018851" lon="14.1554932"><ele>893.0</ele><time>2026-04-25T12:00:33.29Z</time></trkpt><trkpt lat="45.4018022" lon="14.1556107"><ele>893.0</ele><time>2026-04-25T12:00:34.292Z</time></trkpt><trkpt lat="45.4017267" lon="14.1557186"><ele>893.0</ele><time>2026-04-25T12:00:35.281Z</time></trkpt><trkpt lat="45.4016572" lon="14.1558114"><ele>893.0</ele><time>2026-04-25T12:00:36.284Z</time></trkpt><trkpt lat="45.4015924" lon="14.1558966"><ele>892.8333333333334</ele><time>2026-04-25T12:00:37.285Z</time></trkpt><trkpt lat="45.4015358" lon="14.1559751"><ele>892.6666666666667</ele><time>2026-04-25T12:00:38.284Z</time></trkpt><trkpt lat="45.4014795" lon="14.1560447"><ele>892.5</ele><time>2026-04-25T12:00:39.289Z</time></trkpt><trkpt lat="45.4014154" lon="14.1561256"><ele>892.3333333333333</ele><time>2026-04-25T12:00:40.283Z</time></trkpt><trkpt lat="45.4013473" lon="14.1562"><ele>892.1666666666666</ele><time>2026-04-25T12:00:41.274Z</time></trkpt><trkpt lat="45.4012894" lon="14.1562817"><ele>892.0</ele><time>2026-04-25T12:00:42.278Z</time></trkpt><trkpt lat="45.401242" lon="14.1563652"><ele>892.0</ele><time>2026-04-25T12:00:43.283Z</time></trkpt><trkpt lat="45.4012019" lon="14.1564616"><ele>892.0</ele><time>2026-04-25T12:00:44.281Z</time></trkpt><trkpt lat="45.401174" lon="14.1565517"><ele>892.0</ele><time>2026-04-25T12:00:45.288Z</time></trkpt><trkpt lat="45.4011589" lon="14.1566497"><ele>892.0</ele><time>2026-04-25T12:00:46.278Z</time></trkpt><trkpt lat="45.4011544" lon="14.1567526"><ele>892.0</ele><time>2026-04-25T12:00:47.293Z</time></trkpt><trkpt lat="45.4011599" lon="14.156857"><ele>892.0</ele><time>2026-04-25T12:00:48.285Z</time></trkpt><trkpt lat="45.4011803" lon="14.1569725"><ele>892.0</ele><time>2026-04-25T12:00:49.269Z</time></trkpt><trkpt lat="45.4012142" lon="14.1571029"><ele>891.8</ele><time>2026-04-25T12:00:50.272Z</time></trkpt><trkpt lat="45.4012509" lon="14.1572378"><ele>891.6</ele><time>2026-04-25T12:00:51.274Z</time></trkpt><trkpt lat="45.4012883" lon="14.1573904"><ele>891.3999999999999</ele><time>2026-04-25T12:00:52.271Z</time></trkpt><trkpt lat="45.4013233" lon="14.1575481"><ele>891.1999999999999</ele><time>2026-04-25T12:00:53.276Z</time></trkpt><trkpt lat="45.4013541" lon="14.1577032"><ele>891.0</ele><time>2026-04-25T12:00:54.278Z</time></trkpt><trkpt lat="45.4013831" lon="14.1578497"><ele>887.75</ele><time>2026-04-25T12:00:55.273Z</time></trkpt><trkpt lat="45.4014107" lon="14.1580016"><ele>884.5</ele><time>2026-04-25T12:00:56.283Z</time></trkpt><trkpt lat="45.4014435" lon="14.1581569"><ele>881.25</ele><time>2026-04-25T12:00:57.278Z</time></trkpt><trkpt lat="45.4014743" lon="14.1583125"><ele>878.0</ele><time>2026-04-25T12:00:58.278Z</time></trkpt><trkpt lat="45.4014974" lon="14.1584742"><ele>878.0</ele><time>2026-04-25T12:00:59.298Z</time></trkpt><trkpt lat="45.4015189" lon="14.1586148"><ele>878.0</ele><time>2026-04-25T12:01:00.28Z</time></trkpt><trkpt lat="45.4015404" lon="14.1587403"><ele>878.0</ele><time>2026-04-25T12:01:01.281Z</time></trkpt><trkpt lat="45.4015442" lon="14.1588491"><ele>878.0</ele><time>2026-04-25T12:01:02.286Z</time></trkpt><trkpt lat="45.4015426" lon="14.1589542"><ele>878.0</ele><time>2026-04-25T12:01:03.285Z</time></trkpt><trkpt lat="45.4015095" lon="14.159131"><ele>878.8333333333334</ele><time>2026-04-25T12:01:05.293Z</time></trkpt><trkpt lat="45.4014832" lon="14.1592179"><ele>879.6666666666667</ele><time>2026-04-25T12:01:06.298Z</time></trkpt><trkpt lat="45.4014348" lon="14.1593018"><ele>880.5</ele><time>2026-04-25T12:01:07.311Z</time></trkpt><trkpt lat="45.4013732" lon="14.1593806"><ele>881.3333333333333</ele><time>2026-04-25T12:01:08.29Z</time></trkpt><trkpt lat="45.4013007" lon="14.1594672"><ele>882.1666666666666</ele><time>2026-04-25T12:01:09.292Z</time></trkpt><trkpt lat="45.401241" lon="14.1595575"><ele>883.0</ele><time>2026-04-25T12:01:10.284Z</time></trkpt><trkpt lat="45.4011783" lon="14.1596446"><ele>883.5999999999999</ele><time>2026-04-25T12:01:11.283Z</time></trkpt><trkpt lat="45.4011351" lon="14.1597486"><ele>884.1999999999999</ele><time>2026-04-25T12:01:12.279Z</time></trkpt><trkpt lat="45.4010988" lon="14.1598679"><ele>884.8</ele><time>2026-04-25T12:01:13.277Z</time></trkpt><trkpt lat="45.4010747" lon="14.1600064"><ele>885.4</ele><time>2026-04-25T12:01:14.278Z</time></trkpt><trkpt lat="45.4010595" lon="14.1601567"><ele>886.0</ele><time>2026-04-25T12:01:15.28Z</time></trkpt><trkpt lat="45.4010547" lon="14.160322"><ele>883.75</ele><time>2026-04-25T12:01:16.285Z</time></trkpt><trkpt lat="45.4010356" lon="14.1604922"><ele>881.5</ele><time>2026-04-25T12:01:17.289Z</time></trkpt><trkpt lat="45.4010118" lon="14.1606485"><ele>879.25</ele><time>2026-04-25T12:01:18.271Z</time></trkpt><trkpt lat="45.4009842" lon="14.160807"><ele>877.0</ele><time>2026-04-25T12:01:19.283Z</time></trkpt><trkpt lat="45.4009546" lon="14.16097"><ele>877.2</ele><time>2026-04-25T12:01:20.27Z</time></trkpt><trkpt lat="45.4009274" lon="14.1611315"><ele>877.4000000000001</ele><time>2026-04-25T12:01:21.284Z</time></trkpt><trkpt lat="45.4009059" lon="14.161287"><ele>877.5999999999999</ele><time>2026-04-25T12:01:22.273Z</time></trkpt><trkpt lat="45.400884" lon="14.1614414"><ele>877.8</ele><time>2026-04-25T12:01:23.278Z</time></trkpt><trkpt lat="45.4008606" lon="14.1615905"><ele>878.0</ele><time>2026-04-25T12:01:24.273Z</time></trkpt><trkpt lat="45.4008322" lon="14.1617421"><ele>878.0000000000001</ele><time>2026-04-25T12:01:25.278Z</time></trkpt><trkpt lat="45.4008056" lon="14.1618747"><ele>878.0</ele><time>2026-04-25T12:01:26.273Z</time></trkpt><trkpt lat="45.400778" lon="14.1619914"><ele>878.0</ele><time>2026-04-25T12:01:27.288Z</time></trkpt><trkpt lat="45.4007445" lon="14.1620896"><ele>878.0</ele><time>2026-04-25T12:01:28.275Z</time></trkpt><trkpt lat="45.4007086" lon="14.1621813"><ele>878.0000000000001</ele><time>2026-04-25T12:01:29.283Z</time></trkpt><trkpt lat="45.4006646" lon="14.1622666"><ele>878.0</ele><time>2026-04-25T12:01:30.277Z</time></trkpt><trkpt lat="45.4006182" lon="14.1623399"><ele>877.8333333333334</ele><time>2026-04-25T12:01:31.282Z</time></trkpt><trkpt lat="45.4005693" lon="14.1624001"><ele>877.6666666666667</ele><time>2026-04-25T12:01:32.284Z</time></trkpt><trkpt lat="45.4004826" lon="14.1625329"><ele>877.5</ele><time>2026-04-25T12:01:34.282Z</time></trkpt><trkpt lat="45.4004415" lon="14.1626083"><ele>877.3333333333333</ele><time>2026-04-25T12:01:35.284Z</time></trkpt><trkpt lat="45.4004083" lon="14.1627013"><ele>877.1666666666666</ele><time>2026-04-25T12:01:36.275Z</time></trkpt><trkpt lat="45.4003878" lon="14.1628028"><ele>877.0</ele><time>2026-04-25T12:01:37.282Z</time></trkpt><trkpt lat="45.4003651" lon="14.1629108"><ele>876.9999999999999</ele><time>2026-04-25T12:01:38.282Z</time></trkpt><trkpt lat="45.4003395" lon="14.1630247"><ele>877.0</ele><time>2026-04-25T12:01:39.284Z</time></trkpt><trkpt lat="45.4003148" lon="14.1631385"><ele>877.0</ele><time>2026-04-25T12:01:40.282Z</time></trkpt><trkpt lat="45.4002836" lon="14.1632633"><ele>877.0</ele><time>2026-04-25T12:01:41.281Z</time></trkpt><trkpt lat="45.4002563" lon="14.163391"><ele>876.9999999999999</ele><time>2026-04-25T12:01:42.279Z</time></trkpt><trkpt lat="45.4002332" lon="14.1635141"><ele>877.0</ele><time>2026-04-25T12:01:43.272Z</time></trkpt><trkpt lat="45.400208" lon="14.1636313"><ele>878.6</ele><time>2026-04-25T12:01:44.263Z</time></trkpt><trkpt lat="45.4001852" lon="14.1637543"><ele>880.2</ele><time>2026-04-25T12:01:45.269Z</time></trkpt><trkpt lat="45.4001597" lon="14.1638714"><ele>881.8</ele><time>2026-04-25T12:01:46.288Z</time></trkpt><trkpt lat="45.4001151" lon="14.1639919"><ele>883.4</ele><time>2026-04-25T12:01:47.279Z</time></trkpt><trkpt lat="45.4000632" lon="14.1641064"><ele>885.0</ele><time>2026-04-25T12:01:48.276Z</time></trkpt><trkpt lat="45.4000124" lon="14.1642235"><ele>887.8</ele><time>2026-04-25T12:01:49.274Z</time></trkpt><trkpt lat="45.399971" lon="14.1643382"><ele>890.6</ele><time>2026-04-25T12:01:50.269Z</time></trkpt><trkpt lat="45.3999327" lon="14.1644607"><ele>893.4000000000001</ele><time>2026-04-25T12:01:51.273Z</time></trkpt><trkpt lat="45.399889" lon="14.1645945"><ele>896.2</ele><time>2026-04-25T12:01:52.277Z</time></trkpt><trkpt lat="45.3998225" lon="14.1647301"><ele>899.0</ele><time>2026-04-25T12:01:53.262Z</time></trkpt><trkpt lat="45.3997563" lon="14.1648633"><ele>901.25</ele><time>2026-04-25T12:01:54.275Z</time></trkpt><trkpt lat="45.3996807" lon="14.165009"><ele>903.5</ele><time>2026-04-25T12:01:55.266Z</time></trkpt><trkpt lat="45.3996113" lon="14.1651618"><ele>905.75</ele><time>2026-04-25T12:01:56.272Z</time></trkpt><trkpt lat="45.3995446" lon="14.1653052"><ele>908.0</ele><time>2026-04-25T12:01:57.276Z</time></trkpt><trkpt lat="45.3994788" lon="14.1654325"><ele>905.5999999999999</ele><time>2026-04-25T12:01:58.28Z</time></trkpt><trkpt lat="45.3994082" lon="14.1655521"><ele>903.1999999999999</ele><time>2026-04-25T12:01:59.28Z</time></trkpt><trkpt lat="45.399339" lon="14.1656702"><ele>900.8</ele><time>2026-04-25T12:02:00.267Z</time></trkpt><trkpt lat="45.3992707" lon="14.1657883"><ele>898.4</ele><time>2026-04-25T12:02:01.277Z</time></trkpt><trkpt lat="45.3992123" lon="14.1659039"><ele>896.0</ele><time>2026-04-25T12:02:02.285Z</time></trkpt><trkpt lat="45.3991596" lon="14.1660341"><ele>896.0</ele><time>2026-04-25T12:02:03.288Z</time></trkpt><trkpt lat="45.3991212" lon="14.1661658"><ele>895.9999999999999</ele><time>2026-04-25T12:02:04.292Z</time></trkpt><trkpt lat="45.3990946" lon="14.1663001"><ele>895.9999999999999</ele><time>2026-04-25T12:02:05.282Z</time></trkpt><trkpt lat="45.3990855" lon="14.1664307"><ele>896.0</ele><time>2026-04-25T12:02:06.278Z</time></trkpt><trkpt lat="45.3990851" lon="14.166564"><ele>896.0</ele><time>2026-04-25T12:02:07.288Z</time></trkpt><trkpt lat="45.3990905" lon="14.1666989"><ele>897.0000000000001</ele><time>2026-04-25T12:02:08.294Z</time></trkpt><trkpt lat="45.3990949" lon="14.1668249"><ele>898.0</ele><time>2026-04-25T12:02:09.286Z</time></trkpt><trkpt lat="45.3990979" lon="14.166941"><ele>899.0</ele><time>2026-04-25T12:02:10.275Z</time></trkpt><trkpt lat="45.3991008" lon="14.167051"><ele>900.0</ele><time>2026-04-25T12:02:11.278Z</time></trkpt><trkpt lat="45.3991007" lon="14.1671481"><ele>901.0000000000001</ele><time>2026-04-25T12:02:12.286Z</time></trkpt><trkpt lat="45.3990886" lon="14.1672488"><ele>902.0</ele><time>2026-04-25T12:02:13.28Z</time></trkpt><trkpt lat="45.3990759" lon="14.1673517"><ele>900.8</ele><time>2026-04-25T12:02:14.276Z</time></trkpt><trkpt lat="45.3990552" lon="14.1674584"><ele>899.6</ele><time>2026-04-25T12:02:15.291Z</time></trkpt><trkpt lat="45.3990213" lon="14.1675838"><ele>898.3999999999999</ele><time>2026-04-25T12:02:16.275Z</time></trkpt><trkpt lat="45.3989796" lon="14.1677134"><ele>897.1999999999999</ele><time>2026-04-25T12:02:17.277Z</time></trkpt><trkpt lat="45.3989433" lon="14.1678438"><ele>896.0</ele><time>2026-04-25T12:02:18.271Z</time></trkpt><trkpt lat="45.3989073" lon="14.1679684"><ele>896.0000000000001</ele><time>2026-04-25T12:02:19.273Z</time></trkpt><trkpt lat="45.3988679" lon="14.1680877"><ele>896.0</ele><time>2026-04-25T12:02:20.274Z</time></trkpt><trkpt lat="45.3988418" lon="14.16821"><ele>896.0</ele><time>2026-04-25T12:02:21.279Z</time></trkpt><trkpt lat="45.3988312" lon="14.1683404"><ele>896.0</ele><time>2026-04-25T12:02:22.269Z</time></trkpt><trkpt lat="45.3988203" lon="14.1684659"><ele>896.0000000000001</ele><time>2026-04-25T12:02:23.263Z</time></trkpt><trkpt lat="45.398818" lon="14.1685882"><ele>896.0</ele><time>2026-04-25T12:02:24.272Z</time></trkpt><trkpt lat="45.3988256" lon="14.1687121"><ele>895.5000000000001</ele><time>2026-04-25T12:02:25.275Z</time></trkpt><trkpt lat="45.3988457" lon="14.1688373"><ele>895.0</ele><time>2026-04-25T12:02:26.276Z</time></trkpt><trkpt lat="45.3988691" lon="14.1689622"><ele>894.5</ele><time>2026-04-25T12:02:27.281Z</time></trkpt><trkpt lat="45.3989037" lon="14.1690819"><ele>894.0</ele><time>2026-04-25T12:02:28.286Z</time></trkpt><trkpt lat="45.398937" lon="14.1692062"><ele>893.5000000000001</ele><time>2026-04-25T12:02:29.288Z</time></trkpt><trkpt lat="45.3989579" lon="14.169319"><ele>893.0</ele><time>2026-04-25T12:02:30.282Z</time></trkpt><trkpt lat="45.3989746" lon="14.1694268"><ele>893.0000000000001</ele><time>2026-04-25T12:02:31.285Z</time></trkpt><trkpt lat="45.3989816" lon="14.1695288"><ele>893.0</ele><time>2026-04-25T12:02:32.283Z</time></trkpt><trkpt lat="45.3989792" lon="14.1696323"><ele>893.0</ele><time>2026-04-25T12:02:33.277Z</time></trkpt><trkpt lat="45.3989607" lon="14.1697322"><ele>893.0</ele><time>2026-04-25T12:02:34.282Z</time></trkpt><trkpt lat="45.3989336" lon="14.1698289"><ele>893.0000000000001</ele><time>2026-04-25T12:02:35.284Z</time></trkpt><trkpt lat="45.3988998" lon="14.1699266"><ele>893.0</ele><time>2026-04-25T12:02:36.294Z</time></trkpt><trkpt lat="45.3988533" lon="14.1700292"><ele>890.2</ele><time>2026-04-25T12:02:37.293Z</time></trkpt><trkpt lat="45.3988037" lon="14.17015"><ele>887.4</ele><time>2026-04-25T12:02:38.286Z</time></trkpt><trkpt lat="45.3987437" lon="14.1702715"><ele>884.6000000000001</ele><time>2026-04-25T12:02:39.28Z</time></trkpt><trkpt lat="45.3986917" lon="14.1703901"><ele>881.8000000000001</ele><time>2026-04-25T12:02:40.282Z</time></trkpt><trkpt lat="45.3986466" lon="14.1705058"><ele>879.0</ele><time>2026-04-25T12:02:41.288Z</time></trkpt><trkpt lat="45.3986053" lon="14.1706274"><ele>880.3333333333334</ele><time>2026-04-25T12:02:42.272Z</time></trkpt><trkpt lat="45.3985767" lon="14.1707321"><ele>881.6666666666667</ele><time>2026-04-25T12:02:43.278Z</time></trkpt><trkpt lat="45.3985572" lon="14.1708493"><ele>883.0</ele><time>2026-04-25T12:02:44.286Z</time></trkpt><trkpt lat="45.3985509" lon="14.170982"><ele>884.3333333333334</ele><time>2026-04-25T12:02:45.285Z</time></trkpt><trkpt lat="45.3985544" lon="14.1711078"><ele>885.6666666666667</ele><time>2026-04-25T12:02:46.279Z</time></trkpt><trkpt lat="45.398562" lon="14.1712342"><ele>887.0</ele><time>2026-04-25T12:02:47.288Z</time></trkpt><trkpt lat="45.3985725" lon="14.1713703"><ele>887.0</ele><time>2026-04-25T12:02:48.286Z</time></trkpt><trkpt lat="45.3985906" lon="14.1715041"><ele>887.0</ele><time>2026-04-25T12:02:49.284Z</time></trkpt><trkpt lat="45.398607" lon="14.1716382"><ele>887.0</ele><time>2026-04-25T12:02:50.284Z</time></trkpt><trkpt lat="45.3986252" lon="14.1717808"><ele>887.0</ele><time>2026-04-25T12:02:51.283Z</time></trkpt><trkpt lat="45.3986417" lon="14.1719461"><ele>887.0</ele><time>2026-04-25T12:02:52.273Z</time></trkpt><trkpt lat="45.3986555" lon="14.1721181"><ele>888.6</ele><time>2026-04-25T12:02:53.272Z</time></trkpt><trkpt lat="45.3986663" lon="14.1722782"><ele>890.2</ele><time>2026-04-25T12:02:54.264Z</time></trkpt><trkpt lat="45.3986788" lon="14.1724296"><ele>891.8</ele><time>2026-04-25T12:02:55.278Z</time></trkpt><trkpt lat="45.3986872" lon="14.1725712"><ele>893.4</ele><time>2026-04-25T12:02:56.266Z</time></trkpt><trkpt lat="45.3986939" lon="14.1727195"><ele>895.0</ele><time>2026-04-25T12:02:57.281Z</time></trkpt><trkpt lat="45.3987019" lon="14.1728622"><ele>895.8</ele><time>2026-04-25T12:02:58.268Z</time></trkpt><trkpt lat="45.3987172" lon="14.1730003"><ele>896.6</ele><time>2026-04-25T12:02:59.274Z</time></trkpt><trkpt lat="45.3987343" lon="14.1731373"><ele>897.4000000000001</ele><time>2026-04-25T12:03:00.275Z</time></trkpt><trkpt lat="45.398746" lon="14.1732772"><ele>898.2</ele><time>2026-04-25T12:03:01.268Z</time></trkpt><trkpt lat="45.3987605" lon="14.1734097"><ele>899.0</ele><time>2026-04-25T12:03:02.269Z</time></trkpt><trkpt lat="45.3987719" lon="14.1735426"><ele>900.8000000000001</ele><time>2026-04-25T12:03:03.271Z</time></trkpt><trkpt lat="45.3987838" lon="14.1736777"><ele>902.6000000000001</ele><time>2026-04-25T12:03:04.287Z</time></trkpt><trkpt lat="45.3987938" lon="14.1738153"><ele>904.4</ele><time>2026-04-25T12:03:05.274Z</time></trkpt><trkpt lat="45.3988073" lon="14.1739519"><ele>906.2</ele><time>2026-04-25T12:03:06.276Z</time></trkpt><trkpt lat="45.3988155" lon="14.1740903"><ele>908.0</ele><time>2026-04-25T12:03:07.279Z</time></trkpt><trkpt lat="45.3988285" lon="14.1742296"><ele>908.5000000000001</ele><time>2026-04-25T12:03:08.274Z</time></trkpt><trkpt lat="45.3988382" lon="14.1743583"><ele>909.0</ele><time>2026-04-25T12:03:09.28Z</time></trkpt><trkpt lat="45.3988365" lon="14.174474"><ele>909.5</ele><time>2026-04-25T12:03:10.276Z</time></trkpt><trkpt lat="45.3988253" lon="14.1745905"><ele>910.0</ele><time>2026-04-25T12:03:11.268Z</time></trkpt><trkpt lat="45.3988068" lon="14.1746976"><ele>910.5000000000001</ele><time>2026-04-25T12:03:12.271Z</time></trkpt><trkpt lat="45.3987618" lon="14.1748188"><ele>911.0</ele><time>2026-04-25T12:03:13.283Z</time></trkpt><trkpt lat="45.3987092" lon="14.1749289"><ele>911.6666666666667</ele><time>2026-04-25T12:03:14.269Z</time></trkpt><trkpt lat="45.3986595" lon="14.1750212"><ele>912.3333333333334</ele><time>2026-04-25T12:03:15.276Z</time></trkpt><trkpt lat="45.3986148" lon="14.1751368"><ele>913.0</ele><time>2026-04-25T12:03:16.277Z</time></trkpt><trkpt lat="45.3985842" lon="14.1752544"><ele>913.6666666666667</ele><time>2026-04-25T12:03:17.275Z</time></trkpt><trkpt lat="45.3985702" lon="14.1753856"><ele>914.3333333333334</ele><time>2026-04-25T12:03:18.273Z</time></trkpt><trkpt lat="45.3985612" lon="14.175515"><ele>915.0</ele><time>2026-04-25T12:03:19.267Z</time></trkpt><trkpt lat="45.3985691" lon="14.1756587"><ele>915.0</ele><time>2026-04-25T12:03:20.289Z</time></trkpt><trkpt lat="45.3985884" lon="14.1757968"><ele>915.0</ele><time>2026-04-25T12:03:21.262Z</time></trkpt><trkpt lat="45.3986041" lon="14.1759191"><ele>915.0</ele><time>2026-04-25T12:03:22.271Z</time></trkpt><trkpt lat="45.3986214" lon="14.1760263"><ele>915.0</ele><time>2026-04-25T12:03:23.273Z</time></trkpt><trkpt lat="45.3986405" lon="14.1761444"><ele>915.0</ele><time>2026-04-25T12:03:24.261Z</time></trkpt><trkpt lat="45.3986575" lon="14.176274"><ele>915.0</ele><time>2026-04-25T12:03:25.271Z</time></trkpt><trkpt lat="45.3986711" lon="14.1764041"><ele>915.5</ele><time>2026-04-25T12:03:26.275Z</time></trkpt><trkpt lat="45.3986843" lon="14.1765401"><ele>916.0</ele><time>2026-04-25T12:03:27.283Z</time></trkpt><trkpt lat="45.3986842" lon="14.1766758"><ele>916.5</ele><time>2026-04-25T12:03:28.278Z</time></trkpt><trkpt lat="45.3986659" lon="14.1767957"><ele>917.0</ele><time>2026-04-25T12:03:29.279Z</time></trkpt><trkpt lat="45.3986372" lon="14.1769142"><ele>917.5</ele><time>2026-04-25T12:03:30.276Z</time></trkpt><trkpt lat="45.3986138" lon="14.1770282"><ele>918.0</ele><time>2026-04-25T12:03:31.271Z</time></trkpt><trkpt lat="45.3985804" lon="14.1771275"><ele>918.0</ele><time>2026-04-25T12:03:32.277Z</time></trkpt><trkpt lat="45.3985508" lon="14.1772255"><ele>918.0</ele><time>2026-04-25T12:03:33.274Z</time></trkpt><trkpt lat="45.3985203" lon="14.1773232"><ele>918.0</ele><time>2026-04-25T12:03:34.287Z</time></trkpt><trkpt lat="45.3984812" lon="14.1773988"><ele>918.0</ele><time>2026-04-25T12:03:35.279Z</time></trkpt><trkpt lat="45.3984372" lon="14.177476"><ele>918.0</ele><time>2026-04-25T12:03:36.279Z</time></trkpt><trkpt lat="45.398381" lon="14.1775459"><ele>918.0</ele><time>2026-04-25T12:03:37.288Z</time></trkpt><trkpt lat="45.3983259" lon="14.1776207"><ele>918.0</ele><time>2026-04-25T12:03:38.278Z</time></trkpt><trkpt lat="45.398269" lon="14.1777124"><ele>919.6666666666666</ele><time>2026-04-25T12:03:39.281Z</time></trkpt><trkpt lat="45.3982082" lon="14.1778082"><ele>921.3333333333333</ele><time>2026-04-25T12:03:40.275Z</time></trkpt><trkpt lat="45.3981553" lon="14.1778948"><ele>923.0</ele><time>2026-04-25T12:03:41.279Z</time></trkpt><trkpt lat="45.3981089" lon="14.1779878"><ele>924.6666666666666</ele><time>2026-04-25T12:03:42.297Z</time></trkpt><trkpt lat="45.3980668" lon="14.1780926"><ele>926.3333333333333</ele><time>2026-04-25T12:03:43.283Z</time></trkpt><trkpt lat="45.3980284" lon="14.1781952"><ele>928.0</ele><time>2026-04-25T12:03:44.268Z</time></trkpt><trkpt lat="45.3980021" lon="14.1783108"><ele>926.1666666666666</ele><time>2026-04-25T12:03:45.27Z</time></trkpt><trkpt lat="45.3979822" lon="14.1784363"><ele>924.3333333333333</ele><time>2026-04-25T12:03:46.272Z</time></trkpt><trkpt lat="45.3979636" lon="14.1785533"><ele>922.5</ele><time>2026-04-25T12:03:47.291Z</time></trkpt><trkpt lat="45.3979478" lon="14.1786774"><ele>920.6666666666667</ele><time>2026-04-25T12:03:48.272Z</time></trkpt><trkpt lat="45.3979257" lon="14.1787905"><ele>918.8333333333334</ele><time>2026-04-25T12:03:49.264Z</time></trkpt><trkpt lat="45.3979014" lon="14.1789042"><ele>917.0</ele><time>2026-04-25T12:03:50.278Z</time></trkpt><trkpt lat="45.3978697" lon="14.1790081"><ele>917.0000000000001</ele><time>2026-04-25T12:03:51.274Z</time></trkpt><trkpt lat="45.3978261" lon="14.1791024"><ele>917.0</ele><time>2026-04-25T12:03:52.276Z</time></trkpt><trkpt lat="45.3977818" lon="14.1791883"><ele>917.0</ele><time>2026-04-25T12:03:53.275Z</time></trkpt><trkpt lat="45.3977348" lon="14.17926"><ele>917.0</ele><time>2026-04-25T12:03:54.267Z</time></trkpt><trkpt lat="45.3976788" lon="14.1793328"><ele>917.0000000000001</ele><time>2026-04-25T12:03:55.271Z</time></trkpt><trkpt lat="45.3976159" lon="14.1794141"><ele>917.0</ele><time>2026-04-25T12:03:56.271Z</time></trkpt><trkpt lat="45.3975458" lon="14.1794985"><ele>917.0000000000001</ele><time>2026-04-25T12:03:57.278Z</time></trkpt><trkpt lat="45.3974833" lon="14.1795843"><ele>917.0</ele><time>2026-04-25T12:03:58.267Z</time></trkpt><trkpt lat="45.3974167" lon="14.1796712"><ele>917.0</ele><time>2026-04-25T12:03:59.281Z</time></trkpt><trkpt lat="45.3973529" lon="14.1797627"><ele>917.0</ele><time>2026-04-25T12:04:00.276Z</time></trkpt><trkpt lat="45.3972993" lon="14.1798479"><ele>917.0000000000001</ele><time>2026-04-25T12:04:01.268Z</time></trkpt><trkpt lat="45.3972564" lon="14.179939"><ele>917.0</ele><time>2026-04-25T12:04:02.272Z</time></trkpt><trkpt lat="45.3972158" lon="14.1800322"><ele>918.5000000000001</ele><time>2026-04-25T12:04:03.279Z</time></trkpt><trkpt lat="45.3971824" lon="14.1801232"><ele>920.0</ele><time>2026-04-25T12:04:04.275Z</time></trkpt><trkpt lat="45.3971552" lon="14.1802227"><ele>921.5</ele><time>2026-04-25T12:04:05.273Z</time></trkpt><trkpt lat="45.3971327" lon="14.1803232"><ele>923.0</ele><time>2026-04-25T12:04:06.273Z</time></trkpt><trkpt lat="45.3971056" lon="14.1804101"><ele>924.5000000000001</ele><time>2026-04-25T12:04:07.295Z</time></trkpt><trkpt lat="45.3970629" lon="14.1805706"><ele>926.0</ele><time>2026-04-25T12:04:09.281Z</time></trkpt><trkpt lat="45.3970352" lon="14.1806594"><ele>921.0</ele><time>2026-04-25T12:04:10.281Z</time></trkpt><trkpt lat="45.3969964" lon="14.1808148"><ele>915.9999999999999</ele><time>2026-04-25T12:04:12.288Z</time></trkpt><trkpt lat="45.3969733" lon="14.1809935"><ele>910.9999999999999</ele><time>2026-04-25T12:04:14.284Z</time></trkpt><trkpt lat="45.3969728" lon="14.1810998"><ele>906.0</ele><time>2026-04-25T12:04:15.29Z</time></trkpt><trkpt lat="45.396985" lon="14.1812019"><ele>901.0</ele><time>2026-04-25T12:04:16.282Z</time></trkpt><trkpt lat="45.3970124" lon="14.181296"><ele>901.0</ele><time>2026-04-25T12:04:17.285Z</time></trkpt><trkpt lat="45.3970488" lon="14.1814004"><ele>901.0000000000001</ele><time>2026-04-25T12:04:18.277Z</time></trkpt><trkpt lat="45.3970846" lon="14.1815024"><ele>901.0</ele><time>2026-04-25T12:04:19.273Z</time></trkpt><trkpt lat="45.3971182" lon="14.1815977"><ele>901.0</ele><time>2026-04-25T12:04:20.283Z</time></trkpt><trkpt lat="45.3971426" lon="14.1816908"><ele>901.0000000000001</ele><time>2026-04-25T12:04:21.294Z</time></trkpt><trkpt lat="45.3971677" lon="14.1817824"><ele>901.0</ele><time>2026-04-25T12:04:22.291Z</time></trkpt><trkpt lat="45.3971896" lon="14.1818681"><ele>901.0</ele><time>2026-04-25T12:04:23.281Z</time></trkpt><trkpt lat="45.3972088" lon="14.1819579"><ele>902.0</ele><time>2026-04-25T12:04:24.294Z</time></trkpt><trkpt lat="45.3972544" lon="14.1821057"><ele>902.9999999999999</ele><time>2026-04-25T12:04:26.276Z</time></trkpt><trkpt lat="45.3973015" lon="14.1822411"><ele>903.9999999999999</ele><time>2026-04-25T12:04:28.282Z</time></trkpt><trkpt lat="45.3973394" lon="14.1823612"><ele>905.0</ele><time>2026-04-25T12:04:30.276Z</time></trkpt><trkpt lat="45.3973623" lon="14.1824823"><ele>906.0</ele><time>2026-04-25T12:04:32.275Z</time></trkpt><trkpt lat="45.3973994" lon="14.1826078"><ele>906.0</ele><time>2026-04-25T12:04:34.278Z</time></trkpt><trkpt lat="45.397441" lon="14.1827343"><ele>906.0</ele><time>2026-04-25T12:04:36.277Z</time></trkpt><trkpt lat="45.3974734" lon="14.1828542"><ele>906.0</ele><time>2026-04-25T12:04:38.289Z</time></trkpt><trkpt lat="45.3975069" lon="14.182965"><ele>906.0</ele><time>2026-04-25T12:04:40.289Z</time></trkpt><trkpt lat="45.3975498" lon="14.1830782"><ele>906.0</ele><time>2026-04-25T12:04:42.291Z</time></trkpt><trkpt lat="45.3975823" lon="14.1831858"><ele>906.0</ele><time>2026-04-25T12:04:44.274Z</time></trkpt><trkpt lat="45.3975961" lon="14.1833062"><ele>902.0</ele><time>2026-04-25T12:04:46.278Z</time></trkpt><trkpt lat="45.397614" lon="14.1834268"><ele>897.9999999999999</ele><time>2026-04-25T12:04:48.276Z</time></trkpt><trkpt lat="45.3976415" lon="14.1835479"><ele>893.9999999999999</ele><time>2026-04-25T12:04:50.282Z</time></trkpt><trkpt lat="45.3976618" lon="14.1836856"><ele>890.0</ele><time>2026-04-25T12:04:52.28Z</time></trkpt><trkpt lat="45.3976827" lon="14.1838252"><ele>886.0</ele><time>2026-04-25T12:04:54.276Z</time></trkpt><trkpt lat="45.3976962" lon="14.1839735"><ele>884.0</ele><time>2026-04-25T12:04:56.291Z</time></trkpt><trkpt lat="45.3977046" lon="14.184117"><ele>881.9999999999999</ele><time>2026-04-25T12:04:58.279Z</time></trkpt><trkpt lat="45.3977134" lon="14.1842533"><ele>879.9999999999999</ele><time>2026-04-25T12:05:00.273Z</time></trkpt><trkpt lat="45.3977135" lon="14.1844122"><ele>878.0</ele><time>2026-04-25T12:05:02.278Z</time></trkpt><trkpt lat="45.3977115" lon="14.1845132"><ele>876.0</ele><time>2026-04-25T12:05:03.278Z</time></trkpt><trkpt lat="45.3977036" lon="14.1846184"><ele>876.0</ele><time>2026-04-25T12:05:04.28Z</time></trkpt><trkpt lat="45.3976932" lon="14.1847164"><ele>876.0</ele><time>2026-04-25T12:05:05.274Z</time></trkpt><trkpt lat="45.3976804" lon="14.1848156"><ele>876.0</ele><time>2026-04-25T12:05:06.276Z</time></trkpt><trkpt lat="45.3976589" lon="14.1849157"><ele>876.0</ele><time>2026-04-25T12:05:07.273Z</time></trkpt><trkpt lat="45.39764" lon="14.1850086"><ele>876.0</ele><time>2026-04-25T12:05:08.272Z</time></trkpt><trkpt lat="45.3976206" lon="14.1851071"><ele>876.0</ele><time>2026-04-25T12:05:09.283Z</time></trkpt><trkpt lat="45.3975989" lon="14.185193"><ele>876.0</ele><time>2026-04-25T12:05:10.287Z</time></trkpt><trkpt lat="45.3975798" lon="14.1852821"><ele>875.5</ele><time>2026-04-25T12:05:11.3Z</time></trkpt><trkpt lat="45.3975431" lon="14.185446"><ele>875.0</ele><time>2026-04-25T12:05:13.275Z</time></trkpt><trkpt lat="45.3975122" lon="14.1856087"><ele>874.5</ele><time>2026-04-25T12:05:15.278Z</time></trkpt><trkpt lat="45.3974957" lon="14.1856965"><ele>874.0</ele><time>2026-04-25T12:05:16.275Z</time></trkpt><trkpt lat="45.3974779" lon="14.1857993"><ele>873.5</ele><time>2026-04-25T12:05:17.275Z</time></trkpt><trkpt lat="45.3974677" lon="14.1858969"><ele>873.0</ele><time>2026-04-25T12:05:18.28Z</time></trkpt><trkpt lat="45.3974543" lon="14.1859946"><ele>872.6666666666666</ele><time>2026-04-25T12:05:19.277Z</time></trkpt><trkpt lat="45.3974395" lon="14.1861022"><ele>872.3333333333333</ele><time>2026-04-25T12:05:20.277Z</time></trkpt><trkpt lat="45.3974209" lon="14.1862115"><ele>872.0</ele><time>2026-04-25T12:05:21.28Z</time></trkpt><trkpt lat="45.3973973" lon="14.1863096"><ele>871.6666666666666</ele><time>2026-04-25T12:05:22.281Z</time></trkpt><trkpt lat="45.397377" lon="14.1864199"><ele>871.3333333333333</ele><time>2026-04-25T12:05:23.28Z</time></trkpt><trkpt lat="45.3973605" lon="14.1865363"><ele>871.0</ele><time>2026-04-25T12:05:24.271Z</time></trkpt><trkpt lat="45.3973434" lon="14.1866539"><ele>872.1666666666666</ele><time>2026-04-25T12:05:25.274Z</time></trkpt><trkpt lat="45.3973222" lon="14.1867801"><ele>873.3333333333333</ele><time>2026-04-25T12:05:26.273Z</time></trkpt><trkpt lat="45.397307" lon="14.1869059"><ele>874.5</ele><time>2026-04-25T12:05:27.277Z</time></trkpt><trkpt lat="45.3973014" lon="14.1870328"><ele>875.6666666666667</ele><time>2026-04-25T12:05:28.277Z</time></trkpt><trkpt lat="45.3972933" lon="14.1871412"><ele>876.8333333333334</ele><time>2026-04-25T12:05:29.272Z</time></trkpt><trkpt lat="45.3972896" lon="14.1872474"><ele>878.0</ele><time>2026-04-25T12:05:30.267Z</time></trkpt><trkpt lat="45.3972929" lon="14.1873452"><ele>879.5000000000001</ele><time>2026-04-25T12:05:31.28Z</time></trkpt><trkpt lat="45.3972979" lon="14.1874489"><ele>881.0</ele><time>2026-04-25T12:05:32.286Z</time></trkpt><trkpt lat="45.3972997" lon="14.1875595"><ele>882.5</ele><time>2026-04-25T12:05:33.285Z</time></trkpt><trkpt lat="45.3973065" lon="14.1876783"><ele>884.0</ele><time>2026-04-25T12:05:34.275Z</time></trkpt><trkpt lat="45.3973079" lon="14.1878084"><ele>885.5000000000001</ele><time>2026-04-25T12:05:35.277Z</time></trkpt><trkpt lat="45.3973103" lon="14.1879374"><ele>887.0</ele><time>2026-04-25T12:05:36.273Z</time></trkpt><trkpt lat="45.3973079" lon="14.1880516"><ele>887.0000000000001</ele><time>2026-04-25T12:05:37.273Z</time></trkpt><trkpt lat="45.3972933" lon="14.1881546"><ele>887.0</ele><time>2026-04-25T12:05:38.269Z</time></trkpt><trkpt lat="45.3972735" lon="14.1882568"><ele>887.0</ele><time>2026-04-25T12:05:39.283Z</time></trkpt><trkpt lat="45.3972486" lon="14.1883687"><ele>887.0</ele><time>2026-04-25T12:05:40.276Z</time></trkpt><trkpt lat="45.3972142" lon="14.1884637"><ele>887.0000000000001</ele><time>2026-04-25T12:05:41.272Z</time></trkpt><trkpt lat="45.3971687" lon="14.1885502"><ele>887.0</ele><time>2026-04-25T12:05:42.277Z</time></trkpt><trkpt lat="45.3971196" lon="14.1886372"><ele>885.5000000000001</ele><time>2026-04-25T12:05:43.279Z</time></trkpt><trkpt lat="45.3970638" lon="14.1887136"><ele>884.0</ele><time>2026-04-25T12:05:44.284Z</time></trkpt><trkpt lat="45.3969983" lon="14.1887819"><ele>882.5</ele><time>2026-04-25T12:05:45.285Z</time></trkpt><trkpt lat="45.396935" lon="14.1888395"><ele>881.0</ele><time>2026-04-25T12:05:46.277Z</time></trkpt><trkpt lat="45.396869" lon="14.1888968"><ele>879.5000000000001</ele><time>2026-04-25T12:05:47.289Z</time></trkpt><trkpt lat="45.3968029" lon="14.1889446"><ele>878.0</ele><time>2026-04-25T12:05:48.28Z</time></trkpt><trkpt lat="45.3967376" lon="14.1889855"><ele>880.3333333333334</ele><time>2026-04-25T12:05:49.28Z</time></trkpt><trkpt lat="45.3966761" lon="14.1890212"><ele>882.6666666666667</ele><time>2026-04-25T12:05:50.275Z</time></trkpt><trkpt lat="45.3966089" lon="14.1890505"><ele>885.0</ele><time>2026-04-25T12:05:51.282Z</time></trkpt><trkpt lat="45.3965425" lon="14.1890662"><ele>887.3333333333333</ele><time>2026-04-25T12:05:52.27Z</time></trkpt><trkpt lat="45.3964165" lon="14.1890613"><ele>889.6666666666666</ele><time>2026-04-25T12:05:54.27Z</time></trkpt><trkpt lat="45.3963474" lon="14.1890485"><ele>892.0</ele><time>2026-04-25T12:05:55.273Z</time></trkpt><trkpt lat="45.3962759" lon="14.1890299"><ele>891.5714285714286</ele><time>2026-04-25T12:05:56.267Z</time></trkpt><trkpt lat="45.3962054" lon="14.1890138"><ele>891.1428571428571</ele><time>2026-04-25T12:05:57.275Z</time></trkpt><trkpt lat="45.3961374" lon="14.1889918"><ele>890.7142857142858</ele><time>2026-04-25T12:05:58.26Z</time></trkpt><trkpt lat="45.3960658" lon="14.1889693"><ele>890.2857142857142</ele><time>2026-04-25T12:05:59.268Z</time></trkpt><trkpt lat="45.3959947" lon="14.1889456"><ele>889.8571428571429</ele><time>2026-04-25T12:06:00.262Z</time></trkpt><trkpt lat="45.3959202" lon="14.1889206"><ele>889.4285714285714</ele><time>2026-04-25T12:06:01.263Z</time></trkpt><trkpt lat="45.3958438" lon="14.1888987"><ele>889.0</ele><time>2026-04-25T12:06:02.256Z</time></trkpt><trkpt lat="45.3957668" lon="14.1888716"><ele>889.0</ele><time>2026-04-25T12:06:03.272Z</time></trkpt><trkpt lat="45.3956936" lon="14.1888447"><ele>889.0</ele><time>2026-04-25T12:06:04.262Z</time></trkpt><trkpt lat="45.395623" lon="14.1888332"><ele>889.0</ele><time>2026-04-25T12:06:05.263Z</time></trkpt><trkpt lat="45.3955586" lon="14.1888375"><ele>889.0</ele><time>2026-04-25T12:06:06.264Z</time></trkpt><trkpt lat="45.395491" lon="14.1888422"><ele>889.0</ele><time>2026-04-25T12:06:07.268Z</time></trkpt><trkpt lat="45.3954197" lon="14.1888526"><ele>889.0</ele><time>2026-04-25T12:06:08.262Z</time></trkpt><trkpt lat="45.3953441" lon="14.188861"><ele>889.0</ele><time>2026-04-25T12:06:09.269Z</time></trkpt><trkpt lat="45.395268" lon="14.1888709"><ele>887.4999999999999</ele><time>2026-04-25T12:06:10.266Z</time></trkpt><trkpt lat="45.3951979" lon="14.1888911"><ele>886.0</ele><time>2026-04-25T12:06:11.275Z</time></trkpt><trkpt lat="45.3950765" lon="14.1889439"><ele>884.5</ele><time>2026-04-25T12:06:13.274Z</time></trkpt><trkpt lat="45.3950023" lon="14.1889817"><ele>883.0</ele><time>2026-04-25T12:06:14.267Z</time></trkpt><trkpt lat="45.3949283" lon="14.1890259"><ele>881.4999999999999</ele><time>2026-04-25T12:06:15.269Z</time></trkpt><trkpt lat="45.3948613" lon="14.1890665"><ele>880.0</ele><time>2026-04-25T12:06:16.266Z</time></trkpt><trkpt lat="45.3947982" lon="14.189105"><ele>887.0</ele><time>2026-04-25T12:06:17.286Z</time></trkpt><trkpt lat="45.3946897" lon="14.1891742"><ele>894.0</ele><time>2026-04-25T12:06:19.28Z</time></trkpt><trkpt lat="45.3945654" lon="14.1892313"><ele>901.0</ele><time>2026-04-25T12:06:21.265Z</time></trkpt><trkpt lat="45.3944862" lon="14.1892653"><ele>908.0</ele><time>2026-04-25T12:06:22.287Z</time></trkpt><trkpt lat="45.3944051" lon="14.1893074"><ele>915.0</ele><time>2026-04-25T12:06:23.273Z</time></trkpt><trkpt lat="45.3943294" lon="14.1893448"><ele>915.0</ele><time>2026-04-25T12:06:24.266Z</time></trkpt><trkpt lat="45.3942634" lon="14.1893849"><ele>915.0</ele><time>2026-04-25T12:06:25.276Z</time></trkpt><trkpt lat="45.3942038" lon="14.1894167"><ele>915.0</ele><time>2026-04-25T12:06:26.26Z</time></trkpt><trkpt lat="45.3940932" lon="14.1894733"><ele>915.0</ele><time>2026-04-25T12:06:28.272Z</time></trkpt><trkpt lat="45.3940295" lon="14.1894867"><ele>915.0</ele><time>2026-04-25T12:06:29.265Z</time></trkpt><trkpt lat="45.3939559" lon="14.1895036"><ele>915.0</ele><time>2026-04-25T12:06:30.276Z</time></trkpt><trkpt lat="45.3938747" lon="14.1895136"><ele>918.3333333333334</ele><time>2026-04-25T12:06:31.263Z</time></trkpt><trkpt lat="45.3937951" lon="14.1895131"><ele>921.6666666666667</ele><time>2026-04-25T12:06:32.265Z</time></trkpt><trkpt lat="45.3937271" lon="14.1895011"><ele>925.0</ele><time>2026-04-25T12:06:33.264Z</time></trkpt><trkpt lat="45.393651" lon="14.1894733"><ele>928.3333333333334</ele><time>2026-04-25T12:06:34.269Z</time></trkpt><trkpt lat="45.3935751" lon="14.1894303"><ele>931.6666666666667</ele><time>2026-04-25T12:06:35.263Z</time></trkpt><trkpt lat="45.3935013" lon="14.1893812"><ele>935.0</ele><time>2026-04-25T12:06:36.263Z</time></trkpt><trkpt lat="45.393428" lon="14.1893359"><ele>935.0000000000001</ele><time>2026-04-25T12:06:37.269Z</time></trkpt><trkpt lat="45.3933586" lon="14.1892804"><ele>935.0</ele><time>2026-04-25T12:06:38.263Z</time></trkpt><trkpt lat="45.3933043" lon="14.1892147"><ele>935.0</ele><time>2026-04-25T12:06:39.264Z</time></trkpt><trkpt lat="45.3932423" lon="14.1891247"><ele>935.0</ele><time>2026-04-25T12:06:40.264Z</time></trkpt><trkpt lat="45.3931954" lon="14.1890352"><ele>935.0000000000001</ele><time>2026-04-25T12:06:41.271Z</time></trkpt><trkpt lat="45.3931263" lon="14.1888948"><ele>935.0</ele><time>2026-04-25T12:06:42.264Z</time></trkpt><trkpt lat="45.3930573" lon="14.1887509"><ele>934.25</ele><time>2026-04-25T12:06:43.266Z</time></trkpt><trkpt lat="45.3929902" lon="14.188619"><ele>933.5</ele><time>2026-04-25T12:06:44.261Z</time></trkpt><trkpt lat="45.3929301" lon="14.1884858"><ele>932.75</ele><time>2026-04-25T12:06:45.272Z</time></trkpt><trkpt lat="45.3928537" lon="14.1883538"><ele>932.0</ele><time>2026-04-25T12:06:46.267Z</time></trkpt><trkpt lat="45.3927809" lon="14.188244"><ele>930.4000000000001</ele><time>2026-04-25T12:06:47.262Z</time></trkpt><trkpt lat="45.3927062" lon="14.1881335"><ele>928.8000000000001</ele><time>2026-04-25T12:06:48.272Z</time></trkpt><trkpt lat="45.3926195" lon="14.1880246"><ele>927.2</ele><time>2026-04-25T12:06:49.268Z</time></trkpt><trkpt lat="45.392541" lon="14.1879202"><ele>925.6</ele><time>2026-04-25T12:06:50.276Z</time></trkpt><trkpt lat="45.3924612" lon="14.1878196"><ele>924.0</ele><time>2026-04-25T12:06:51.269Z</time></trkpt><trkpt lat="45.392377" lon="14.1877133"><ele>924.0</ele><time>2026-04-25T12:06:52.274Z</time></trkpt><trkpt lat="45.3922882" lon="14.187628"><ele>924.0000000000001</ele><time>2026-04-25T12:06:53.275Z</time></trkpt><trkpt lat="45.3921968" lon="14.1875458"><ele>924.0000000000001</ele><time>2026-04-25T12:06:54.267Z</time></trkpt><trkpt lat="45.3921066" lon="14.1874757"><ele>924.0</ele><time>2026-04-25T12:06:55.279Z</time></trkpt><trkpt lat="45.3920062" lon="14.1874292"><ele>924.0</ele><time>2026-04-25T12:06:56.279Z</time></trkpt><trkpt lat="45.3919096" lon="14.1873854"><ele>919.6</ele><time>2026-04-25T12:06:57.266Z</time></trkpt><trkpt lat="45.3918127" lon="14.1873427"><ele>915.2</ele><time>2026-04-25T12:06:58.277Z</time></trkpt><trkpt lat="45.3917177" lon="14.1873007"><ele>910.8000000000001</ele><time>2026-04-25T12:06:59.278Z</time></trkpt><trkpt lat="45.3916172" lon="14.1872713"><ele>906.4000000000001</ele><time>2026-04-25T12:07:00.281Z</time></trkpt><trkpt lat="45.3915066" lon="14.1872459"><ele>902.0</ele><time>2026-04-25T12:07:01.283Z</time></trkpt><trkpt lat="45.391402" lon="14.1872268"><ele>904.0</ele><time>2026-04-25T12:07:02.273Z</time></trkpt><trkpt lat="45.3912983" lon="14.1872231"><ele>906.0</ele><time>2026-04-25T12:07:03.265Z</time></trkpt><trkpt lat="45.391198" lon="14.1872222"><ele>908.0</ele><time>2026-04-25T12:07:04.282Z</time></trkpt><trkpt lat="45.3910978" lon="14.1872375"><ele>910.0</ele><time>2026-04-25T12:07:05.278Z</time></trkpt><trkpt lat="45.3910018" lon="14.1872622"><ele>912.0</ele><time>2026-04-25T12:07:06.277Z</time></trkpt><trkpt lat="45.390902" lon="14.1872817"><ele>912.0</ele><time>2026-04-25T12:07:07.282Z</time></trkpt><trkpt lat="45.3907963" lon="14.1873049"><ele>912.0</ele><time>2026-04-25T12:07:08.273Z</time></trkpt><trkpt lat="45.3906927" lon="14.1873319"><ele>912.0</ele><time>2026-04-25T12:07:09.274Z</time></trkpt><trkpt lat="45.3905876" lon="14.1873535"><ele>912.0</ele><time>2026-04-25T12:07:10.267Z</time></trkpt><trkpt lat="45.3904804" lon="14.1873683"><ele>912.0</ele><time>2026-04-25T12:07:11.276Z</time></trkpt><trkpt lat="45.3903764" lon="14.1873971"><ele>917.6</ele><time>2026-04-25T12:07:12.268Z</time></trkpt><trkpt lat="45.3902744" lon="14.1874287"><ele>923.2</ele><time>2026-04-25T12:07:13.263Z</time></trkpt><trkpt lat="45.390175" lon="14.1874706"><ele>928.8</ele><time>2026-04-25T12:07:14.27Z</time></trkpt><trkpt lat="45.3900911" lon="14.1875225"><ele>934.4</ele><time>2026-04-25T12:07:15.263Z</time></trkpt><trkpt lat="45.3900125" lon="14.1875902"><ele>940.0</ele><time>2026-04-25T12:07:16.27Z</time></trkpt><trkpt lat="45.3899266" lon="14.1876615"><ele>940.0</ele><time>2026-04-25T12:07:17.274Z</time></trkpt><trkpt lat="45.3898476" lon="14.18775"><ele>940.0</ele><time>2026-04-25T12:07:18.266Z</time></trkpt><trkpt lat="45.3897686" lon="14.1878568"><ele>940.0</ele><time>2026-04-25T12:07:19.28Z</time></trkpt><trkpt lat="45.3896917" lon="14.187962"><ele>940.0</ele><time>2026-04-25T12:07:20.272Z</time></trkpt><trkpt lat="45.3896048" lon="14.1880752"><ele>940.0</ele><time>2026-04-25T12:07:21.266Z</time></trkpt><trkpt lat="45.3895203" lon="14.1881924"><ele>940.5</ele><time>2026-04-25T12:07:22.275Z</time></trkpt><trkpt lat="45.3894306" lon="14.188301"><ele>941.0</ele><time>2026-04-25T12:07:23.277Z</time></trkpt><trkpt lat="45.389341" lon="14.1884019"><ele>941.5</ele><time>2026-04-25T12:07:24.272Z</time></trkpt><trkpt lat="45.3892457" lon="14.1884923"><ele>942.0</ele><time>2026-04-25T12:07:25.269Z</time></trkpt><trkpt lat="45.3891503" lon="14.1885848"><ele>942.0</ele><time>2026-04-25T12:07:26.281Z</time></trkpt><trkpt lat="45.3890517" lon="14.1886627"><ele>942.0</ele><time>2026-04-25T12:07:27.267Z</time></trkpt><trkpt lat="45.3889652" lon="14.188733"><ele>942.0</ele><time>2026-04-25T12:07:28.271Z</time></trkpt><trkpt lat="45.3888881" lon="14.1887841"><ele>942.0</ele><time>2026-04-25T12:07:29.273Z</time></trkpt><trkpt lat="45.3888069" lon="14.1888422"><ele>942.0</ele><time>2026-04-25T12:07:30.264Z</time></trkpt><trkpt lat="45.3887325" lon="14.1888968"><ele>941.0</ele><time>2026-04-25T12:07:31.283Z</time></trkpt><trkpt lat="45.38866" lon="14.1889429"><ele>940.0</ele><time>2026-04-25T12:07:32.269Z</time></trkpt><trkpt lat="45.388565" lon="14.1889852"><ele>939.0</ele><time>2026-04-25T12:07:33.271Z</time></trkpt><trkpt lat="45.3884803" lon="14.1890286"><ele>938.0</ele><time>2026-04-25T12:07:34.275Z</time></trkpt><trkpt lat="45.3883883" lon="14.1890936"><ele>937.0</ele><time>2026-04-25T12:07:35.282Z</time></trkpt><trkpt lat="45.3882916" lon="14.1891694"><ele>937.4000000000001</ele><time>2026-04-25T12:07:36.267Z</time></trkpt><trkpt lat="45.3881996" lon="14.1892469"><ele>937.8000000000001</ele><time>2026-04-25T12:07:37.285Z</time></trkpt><trkpt lat="45.3881187" lon="14.1893199"><ele>938.2</ele><time>2026-04-25T12:07:38.276Z</time></trkpt><trkpt lat="45.3880362" lon="14.1893977"><ele>938.6</ele><time>2026-04-25T12:07:39.284Z</time></trkpt><trkpt lat="45.3879536" lon="14.1894752"><ele>939.0</ele><time>2026-04-25T12:07:40.275Z</time></trkpt><trkpt lat="45.3878678" lon="14.1895637"><ele>939.0</ele><time>2026-04-25T12:07:41.278Z</time></trkpt><trkpt lat="45.3877792" lon="14.1896694"><ele>939.0000000000001</ele><time>2026-04-25T12:07:42.277Z</time></trkpt><trkpt lat="45.3876981" lon="14.1897852"><ele>939.0000000000001</ele><time>2026-04-25T12:07:43.271Z</time></trkpt><trkpt lat="45.387625" lon="14.1898976"><ele>939.0</ele><time>2026-04-25T12:07:44.274Z</time></trkpt><trkpt lat="45.3875532" lon="14.1900157"><ele>939.0</ele><time>2026-04-25T12:07:45.278Z</time></trkpt><trkpt lat="45.387479" lon="14.190127"><ele>940.0</ele><time>2026-04-25T12:07:46.273Z</time></trkpt><trkpt lat="45.3874154" lon="14.190252"><ele>941.0</ele><time>2026-04-25T12:07:47.28Z</time></trkpt><trkpt lat="45.3873526" lon="14.1903896"><ele>942.0</ele><time>2026-04-25T12:07:48.271Z</time></trkpt><trkpt lat="45.3872894" lon="14.190538"><ele>943.0</ele><time>2026-04-25T12:07:49.273Z</time></trkpt><trkpt lat="45.3872286" lon="14.1906945"><ele>942.5</ele><time>2026-04-25T12:07:50.277Z</time></trkpt><trkpt lat="45.3871704" lon="14.1908466"><ele>942.0</ele><time>2026-04-25T12:07:51.287Z</time></trkpt><trkpt lat="45.3871049" lon="14.1910026"><ele>941.5</ele><time>2026-04-25T12:07:52.282Z</time></trkpt><trkpt lat="45.3870416" lon="14.1911629"><ele>941.0</ele><time>2026-04-25T12:07:53.272Z</time></trkpt><trkpt lat="45.3869729" lon="14.191334"><ele>941.0</ele><time>2026-04-25T12:07:54.28Z</time></trkpt><trkpt lat="45.386905" lon="14.1914949"><ele>941.0</ele><time>2026-04-25T12:07:55.265Z</time></trkpt><trkpt lat="45.3868436" lon="14.1916506"><ele>941.0</ele><time>2026-04-25T12:07:56.281Z</time></trkpt><trkpt lat="45.3867842" lon="14.1918065"><ele>941.0</ele><time>2026-04-25T12:07:57.262Z</time></trkpt><trkpt lat="45.3867218" lon="14.191953"><ele>943.5</ele><time>2026-04-25T12:07:58.266Z</time></trkpt><trkpt lat="45.38665" lon="14.1921007"><ele>946.0</ele><time>2026-04-25T12:07:59.261Z</time></trkpt><trkpt lat="45.3865735" lon="14.1922457"><ele>948.5</ele><time>2026-04-25T12:08:00.271Z</time></trkpt><trkpt lat="45.386506" lon="14.1923997"><ele>951.0</ele><time>2026-04-25T12:08:01.271Z</time></trkpt><trkpt lat="45.3864387" lon="14.1925513"><ele>952.0</ele><time>2026-04-25T12:08:02.26Z</time></trkpt><trkpt lat="45.3863678" lon="14.1927091"><ele>953.0</ele><time>2026-04-25T12:08:03.268Z</time></trkpt><trkpt lat="45.3862917" lon="14.1928529"><ele>954.0</ele><time>2026-04-25T12:08:04.272Z</time></trkpt><trkpt lat="45.3862208" lon="14.1929911"><ele>955.0</ele><time>2026-04-25T12:08:05.282Z</time></trkpt><trkpt lat="45.3861506" lon="14.1931314"><ele>953.6</ele><time>2026-04-25T12:08:06.264Z</time></trkpt><trkpt lat="45.3860848" lon="14.1932648"><ele>952.2</ele><time>2026-04-25T12:08:07.273Z</time></trkpt><trkpt lat="45.386026" lon="14.1933877"><ele>950.8</ele><time>2026-04-25T12:08:08.271Z</time></trkpt><trkpt lat="45.3859588" lon="14.1935096"><ele>949.4</ele><time>2026-04-25T12:08:09.27Z</time></trkpt><trkpt lat="45.385885" lon="14.1936319"><ele>948.0</ele><time>2026-04-25T12:08:10.267Z</time></trkpt><trkpt lat="45.3858141" lon="14.1937589"><ele>948.0</ele><time>2026-04-25T12:08:11.269Z</time></trkpt><trkpt lat="45.3857341" lon="14.1938892"><ele>948.0</ele><time>2026-04-25T12:08:12.274Z</time></trkpt><trkpt lat="45.3856504" lon="14.1940097"><ele>948.0</ele><time>2026-04-25T12:08:13.268Z</time></trkpt><trkpt lat="45.3855771" lon="14.1941293"><ele>948.0</ele><time>2026-04-25T12:08:14.272Z</time></trkpt><trkpt lat="45.3855069" lon="14.1942474"><ele>946.4</ele><time>2026-04-25T12:08:15.278Z</time></trkpt><trkpt lat="45.3854397" lon="14.1943575"><ele>944.8</ele><time>2026-04-25T12:08:16.276Z</time></trkpt><trkpt lat="45.3853755" lon="14.1944578"><ele>943.2</ele><time>2026-04-25T12:08:17.271Z</time></trkpt><trkpt lat="45.3853237" lon="14.1945592"><ele>941.6</ele><time>2026-04-25T12:08:18.275Z</time></trkpt><trkpt lat="45.3852625" lon="14.1946601"><ele>940.0</ele><time>2026-04-25T12:08:19.289Z</time></trkpt><trkpt lat="45.3852141" lon="14.1947613"><ele>941.4999999999999</ele><time>2026-04-25T12:08:20.271Z</time></trkpt><trkpt lat="45.3851769" lon="14.194863"><ele>943.0</ele><time>2026-04-25T12:08:21.266Z</time></trkpt><trkpt lat="45.3851515" lon="14.1949611"><ele>944.5</ele><time>2026-04-25T12:08:22.28Z</time></trkpt><trkpt lat="45.3851306" lon="14.1950701"><ele>946.0</ele><time>2026-04-25T12:08:23.276Z</time></trkpt><trkpt lat="45.3851185" lon="14.1951763"><ele>947.4999999999999</ele><time>2026-04-25T12:08:24.27Z</time></trkpt><trkpt lat="45.3851103" lon="14.1952906"><ele>949.0</ele><time>2026-04-25T12:08:25.269Z</time></trkpt><trkpt lat="45.3851219" lon="14.1954234"><ele>949.0</ele><time>2026-04-25T12:08:26.272Z</time></trkpt><trkpt lat="45.3851357" lon="14.1955584"><ele>949.0000000000001</ele><time>2026-04-25T12:08:27.268Z</time></trkpt><trkpt lat="45.3851419" lon="14.195689"><ele>949.0000000000001</ele><time>2026-04-25T12:08:28.273Z</time></trkpt><trkpt lat="45.3851409" lon="14.1958072"><ele>949.0</ele><time>2026-04-25T12:08:29.275Z</time></trkpt><trkpt lat="45.3851283" lon="14.1959332"><ele>949.0</ele><time>2026-04-25T12:08:30.272Z</time></trkpt><trkpt lat="45.3851078" lon="14.1960634"><ele>948.6</ele><time>2026-04-25T12:08:31.276Z</time></trkpt><trkpt lat="45.3850682" lon="14.1962018"><ele>948.2</ele><time>2026-04-25T12:08:32.28Z</time></trkpt><trkpt lat="45.3850193" lon="14.1963279"><ele>947.8000000000001</ele><time>2026-04-25T12:08:33.276Z</time></trkpt><trkpt lat="45.3849656" lon="14.1964463"><ele>947.4000000000001</ele><time>2026-04-25T12:08:34.283Z</time></trkpt><trkpt lat="45.3849074" lon="14.196559"><ele>947.0</ele><time>2026-04-25T12:08:35.278Z</time></trkpt><trkpt lat="45.3848476" lon="14.1966729"><ele>947.0</ele><time>2026-04-25T12:08:36.282Z</time></trkpt><trkpt lat="45.3847801" lon="14.196784"><ele>947.0</ele><time>2026-04-25T12:08:37.301Z</time></trkpt><trkpt lat="45.384705" lon="14.1968953"><ele>947.0</ele><time>2026-04-25T12:08:38.278Z</time></trkpt><trkpt lat="45.3846158" lon="14.1970167"><ele>947.0</ele><time>2026-04-25T12:08:39.275Z</time></trkpt><trkpt lat="45.3845284" lon="14.1971322"><ele>946.0</ele><time>2026-04-25T12:08:40.274Z</time></trkpt><trkpt lat="45.3844327" lon="14.1972509"><ele>945.0</ele><time>2026-04-25T12:08:41.276Z</time></trkpt><trkpt lat="45.3843367" lon="14.1973672"><ele>944.0</ele><time>2026-04-25T12:08:42.277Z</time></trkpt><trkpt lat="45.3842321" lon="14.1974915"><ele>943.0</ele><time>2026-04-25T12:08:43.266Z</time></trkpt><trkpt lat="45.3841324" lon="14.197622"><ele>943.0</ele><time>2026-04-25T12:08:44.273Z</time></trkpt><trkpt lat="45.3840438" lon="14.1977491"><ele>943.0</ele><time>2026-04-25T12:08:45.284Z</time></trkpt><trkpt lat="45.3839525" lon="14.1978728"><ele>943.0</ele><time>2026-04-25T12:08:46.27Z</time></trkpt><trkpt lat="45.3838589" lon="14.1979999"><ele>943.0</ele><time>2026-04-25T12:08:47.285Z</time></trkpt><trkpt lat="45.3837722" lon="14.1981309"><ele>942.8</ele><time>2026-04-25T12:08:48.267Z</time></trkpt><trkpt lat="45.383689" lon="14.1982549"><ele>942.5999999999999</ele><time>2026-04-25T12:08:49.268Z</time></trkpt><trkpt lat="45.3836136" lon="14.1983626"><ele>942.4000000000001</ele><time>2026-04-25T12:08:50.274Z</time></trkpt><trkpt lat="45.3835437" lon="14.1984711"><ele>942.2</ele><time>2026-04-25T12:08:51.269Z</time></trkpt><trkpt lat="45.383475" lon="14.1985864"><ele>942.0</ele><time>2026-04-25T12:08:52.276Z</time></trkpt><trkpt lat="45.3834044" lon="14.198702"><ele>942.0</ele><time>2026-04-25T12:08:53.261Z</time></trkpt><trkpt lat="45.3833327" lon="14.1988188"><ele>942.0</ele><time>2026-04-25T12:08:54.277Z</time></trkpt><trkpt lat="45.3832586" lon="14.1989415"><ele>942.0</ele><time>2026-04-25T12:08:55.275Z</time></trkpt><trkpt lat="45.3831709" lon="14.1990798"><ele>942.0</ele><time>2026-04-25T12:08:56.266Z</time></trkpt><trkpt lat="45.3830748" lon="14.1992303"><ele>940.25</ele><time>2026-04-25T12:08:57.27Z</time></trkpt><trkpt lat="45.3829675" lon="14.1993762"><ele>938.5</ele><time>2026-04-25T12:08:58.274Z</time></trkpt><trkpt lat="45.3828612" lon="14.1995223"><ele>936.75</ele><time>2026-04-25T12:08:59.278Z</time></trkpt><trkpt lat="45.3827786" lon="14.199662"><ele>935.0</ele><time>2026-04-25T12:09:00.272Z</time></trkpt><trkpt lat="45.382699" lon="14.1997869"><ele>936.8</ele><time>2026-04-25T12:09:01.28Z</time></trkpt><trkpt lat="45.3826238" lon="14.1998945"><ele>938.6</ele><time>2026-04-25T12:09:02.28Z</time></trkpt><trkpt lat="45.382551" lon="14.2000098"><ele>940.4000000000001</ele><time>2026-04-25T12:09:03.293Z</time></trkpt><trkpt lat="45.3824831" lon="14.2001282"><ele>942.2</ele><time>2026-04-25T12:09:04.271Z</time></trkpt><trkpt lat="45.3824079" lon="14.2002487"><ele>944.0</ele><time>2026-04-25T12:09:05.282Z</time></trkpt><trkpt lat="45.3823325" lon="14.2003756"><ele>944.0</ele><time>2026-04-25T12:09:06.28Z</time></trkpt><trkpt lat="45.3822597" lon="14.2005074"><ele>944.0</ele><time>2026-04-25T12:09:07.292Z</time></trkpt><trkpt lat="45.3821954" lon="14.200638"><ele>944.0</ele><time>2026-04-25T12:09:08.279Z</time></trkpt><trkpt lat="45.382134" lon="14.2007756"><ele>944.0</ele><time>2026-04-25T12:09:09.28Z</time></trkpt><trkpt lat="45.3820839" lon="14.2009187"><ele>943.3333333333334</ele><time>2026-04-25T12:09:10.269Z</time></trkpt><trkpt lat="45.3820389" lon="14.201041"><ele>942.6666666666667</ele><time>2026-04-25T12:09:11.271Z</time></trkpt><trkpt lat="45.3819984" lon="14.2011481"><ele>942.0</ele><time>2026-04-25T12:09:12.278Z</time></trkpt><trkpt lat="45.3819596" lon="14.2012517"><ele>941.3333333333333</ele><time>2026-04-25T12:09:13.275Z</time></trkpt><trkpt lat="45.381914" lon="14.2013607"><ele>940.6666666666666</ele><time>2026-04-25T12:09:14.283Z</time></trkpt><trkpt lat="45.3818637" lon="14.2014761"><ele>940.0</ele><time>2026-04-25T12:09:15.276Z</time></trkpt><trkpt lat="45.3818199" lon="14.2015991"><ele>942.6</ele><time>2026-04-25T12:09:16.275Z</time></trkpt><trkpt lat="45.3817786" lon="14.2017248"><ele>945.2</ele><time>2026-04-25T12:09:17.276Z</time></trkpt><trkpt lat="45.3817317" lon="14.2018555"><ele>947.8</ele><time>2026-04-25T12:09:18.274Z</time></trkpt><trkpt lat="45.3816875" lon="14.2019897"><ele>950.4</ele><time>2026-04-25T12:09:19.276Z</time></trkpt><trkpt lat="45.3816454" lon="14.2021303"><ele>953.0</ele><time>2026-04-25T12:09:20.269Z</time></trkpt><trkpt lat="45.381611" lon="14.2022712"><ele>955.5999999999999</ele><time>2026-04-25T12:09:21.276Z</time></trkpt><trkpt lat="45.3815838" lon="14.2024251"><ele>958.1999999999999</ele><time>2026-04-25T12:09:22.278Z</time></trkpt><trkpt lat="45.3815636" lon="14.2025784"><ele>960.8</ele><time>2026-04-25T12:09:23.272Z</time></trkpt><trkpt lat="45.3815457" lon="14.2027333"><ele>963.4</ele><time>2026-04-25T12:09:24.281Z</time></trkpt><trkpt lat="45.3815295" lon="14.2028865"><ele>966.0</ele><time>2026-04-25T12:09:25.274Z</time></trkpt><trkpt lat="45.3815043" lon="14.203031"><ele>968.4</ele><time>2026-04-25T12:09:26.28Z</time></trkpt><trkpt lat="45.3814843" lon="14.2031708"><ele>970.8</ele><time>2026-04-25T12:09:27.278Z</time></trkpt><trkpt lat="45.3814702" lon="14.2033028"><ele>973.1999999999999</ele><time>2026-04-25T12:09:28.269Z</time></trkpt><trkpt lat="45.3814591" lon="14.2034411"><ele>975.5999999999999</ele><time>2026-04-25T12:09:29.282Z</time></trkpt><trkpt lat="45.3814424" lon="14.2035855"><ele>978.0</ele><time>2026-04-25T12:09:30.273Z</time></trkpt><trkpt lat="45.3814302" lon="14.2037259"><ele>978.0</ele><time>2026-04-25T12:09:31.288Z</time></trkpt><trkpt lat="45.3814164" lon="14.2038672"><ele>978.0</ele><time>2026-04-25T12:09:32.282Z</time></trkpt><trkpt lat="45.3814017" lon="14.2040076"><ele>978.0</ele><time>2026-04-25T12:09:33.273Z</time></trkpt><trkpt lat="45.3813893" lon="14.2041325"><ele>978.0</ele><time>2026-04-25T12:09:34.274Z</time></trkpt><trkpt lat="45.3813725" lon="14.2042648"><ele>978.0</ele><time>2026-04-25T12:09:35.293Z</time></trkpt><trkpt lat="45.381354" lon="14.204388"><ele>975.6666666666666</ele><time>2026-04-25T12:09:36.285Z</time></trkpt><trkpt lat="45.3813332" lon="14.2045223"><ele>973.3333333333333</ele><time>2026-04-25T12:09:37.283Z</time></trkpt><trkpt lat="45.3813152" lon="14.2046473"><ele>971.0</ele><time>2026-04-25T12:09:38.27Z</time></trkpt><trkpt lat="45.3812962" lon="14.2047579"><ele>968.6666666666666</ele><time>2026-04-25T12:09:39.274Z</time></trkpt><trkpt lat="45.3812743" lon="14.2048598"><ele>966.3333333333333</ele><time>2026-04-25T12:09:40.268Z</time></trkpt><trkpt lat="45.3812571" lon="14.204967"><ele>964.0</ele><time>2026-04-25T12:09:41.275Z</time></trkpt><trkpt lat="45.3812343" lon="14.2050731"><ele>963.9999999999999</ele><time>2026-04-25T12:09:42.27Z</time></trkpt><trkpt lat="45.3812126" lon="14.2051726"><ele>964.0</ele><time>2026-04-25T12:09:43.281Z</time></trkpt><trkpt lat="45.3811974" lon="14.2052765"><ele>964.0</ele><time>2026-04-25T12:09:44.276Z</time></trkpt><trkpt lat="45.3811806" lon="14.2053838"><ele>964.0</ele><time>2026-04-25T12:09:45.271Z</time></trkpt><trkpt lat="45.3811597" lon="14.2054936"><ele>963.9999999999999</ele><time>2026-04-25T12:09:46.269Z</time></trkpt><trkpt lat="45.3811261" lon="14.2055944"><ele>964.0</ele><time>2026-04-25T12:09:47.267Z</time></trkpt><trkpt lat="45.3810895" lon="14.2056964"><ele>967.1666666666666</ele><time>2026-04-25T12:09:48.27Z</time></trkpt><trkpt lat="45.3810508" lon="14.2057977"><ele>970.3333333333333</ele><time>2026-04-25T12:09:49.273Z</time></trkpt><trkpt lat="45.3810124" lon="14.205903"><ele>973.5</ele><time>2026-04-25T12:09:50.279Z</time></trkpt><trkpt lat="45.3809781" lon="14.2060043"><ele>976.6666666666667</ele><time>2026-04-25T12:09:51.263Z</time></trkpt><trkpt lat="45.3809396" lon="14.2061056"><ele>979.8333333333334</ele><time>2026-04-25T12:09:52.264Z</time></trkpt><trkpt lat="45.3808932" lon="14.206214"><ele>983.0</ele><time>2026-04-25T12:09:53.269Z</time></trkpt><trkpt lat="45.3808503" lon="14.2063231"><ele>983.0000000000001</ele><time>2026-04-25T12:09:54.269Z</time></trkpt><trkpt lat="45.3808049" lon="14.2064299"><ele>983.0</ele><time>2026-04-25T12:09:55.273Z</time></trkpt><trkpt lat="45.3807564" lon="14.206534"><ele>983.0</ele><time>2026-04-25T12:09:56.272Z</time></trkpt><trkpt lat="45.3807077" lon="14.2066321"><ele>983.0</ele><time>2026-04-25T12:09:57.266Z</time></trkpt><trkpt lat="45.3806636" lon="14.2067224"><ele>983.0000000000001</ele><time>2026-04-25T12:09:58.26Z</time></trkpt><trkpt lat="45.3806128" lon="14.2068111"><ele>983.0</ele><time>2026-04-25T12:09:59.265Z</time></trkpt><trkpt lat="45.380573" lon="14.2069075"><ele>984.1666666666667</ele><time>2026-04-25T12:10:00.268Z</time></trkpt><trkpt lat="45.3805267" lon="14.2070054"><ele>985.3333333333334</ele><time>2026-04-25T12:10:01.272Z</time></trkpt><trkpt lat="45.380489" lon="14.2071051"><ele>986.5</ele><time>2026-04-25T12:10:02.27Z</time></trkpt><trkpt lat="45.3804498" lon="14.2072136"><ele>987.6666666666667</ele><time>2026-04-25T12:10:03.269Z</time></trkpt><trkpt lat="45.3803963" lon="14.2073199"><ele>988.8333333333334</ele><time>2026-04-25T12:10:04.26Z</time></trkpt><trkpt lat="45.3803365" lon="14.2074252"><ele>990.0</ele><time>2026-04-25T12:10:05.27Z</time></trkpt><trkpt lat="45.3802781" lon="14.2075336"><ele>990.0</ele><time>2026-04-25T12:10:06.267Z</time></trkpt><trkpt lat="45.3802183" lon="14.2076443"><ele>990.0</ele><time>2026-04-25T12:10:07.266Z</time></trkpt><trkpt lat="45.3801551" lon="14.2077507"><ele>990.0</ele><time>2026-04-25T12:10:08.273Z</time></trkpt><trkpt lat="45.38011" lon="14.2078514"><ele>990.0</ele><time>2026-04-25T12:10:09.273Z</time></trkpt><trkpt lat="45.3800883" lon="14.207943"><ele>990.0</ele><time>2026-04-25T12:10:10.268Z</time></trkpt><trkpt lat="45.380076" lon="14.2080503"><ele>990.0</ele><time>2026-04-25T12:10:11.281Z</time></trkpt><trkpt lat="45.380067" lon="14.2081605"><ele>992.1666666666666</ele><time>2026-04-25T12:10:12.282Z</time></trkpt><trkpt lat="45.3800549" lon="14.2082801"><ele>994.3333333333333</ele><time>2026-04-25T12:10:13.289Z</time></trkpt><trkpt lat="45.3800395" lon="14.2084106"><ele>996.5</ele><time>2026-04-25T12:10:14.274Z</time></trkpt><trkpt lat="45.3800296" lon="14.208541"><ele>998.6666666666666</ele><time>2026-04-25T12:10:15.266Z</time></trkpt><trkpt lat="45.3800153" lon="14.208647"><ele>1000.8333333333333</ele><time>2026-04-25T12:10:16.28Z</time></trkpt><trkpt lat="45.3800106" lon="14.2087453"><ele>1003.0</ele><time>2026-04-25T12:10:17.295Z</time></trkpt><trkpt lat="45.3800082" lon="14.2088376"><ele>1003.4</ele><time>2026-04-25T12:10:18.276Z</time></trkpt><trkpt lat="45.380024" lon="14.2090076"><ele>1003.8</ele><time>2026-04-25T12:10:20.27Z</time></trkpt><trkpt lat="45.3800382" lon="14.2091034"><ele>1004.2</ele><time>2026-04-25T12:10:21.288Z</time></trkpt><trkpt lat="45.3800579" lon="14.209197"><ele>1004.6</ele><time>2026-04-25T12:10:22.275Z</time></trkpt><trkpt lat="45.3800829" lon="14.2092996"><ele>1005.0</ele><time>2026-04-25T12:10:23.279Z</time></trkpt><trkpt lat="45.3801245" lon="14.2094683"><ele>1005.0</ele><time>2026-04-25T12:10:25.28Z</time></trkpt><trkpt lat="45.3801486" lon="14.2095597"><ele>1005.0</ele><time>2026-04-25T12:10:26.276Z</time></trkpt><trkpt lat="45.3801731" lon="14.2096648"><ele>1005.0</ele><time>2026-04-25T12:10:27.28Z</time></trkpt><trkpt lat="45.3801988" lon="14.2097745"><ele>1005.0</ele><time>2026-04-25T12:10:28.275Z</time></trkpt><trkpt lat="45.3802268" lon="14.2098912"><ele>1005.0</ele><time>2026-04-25T12:10:29.272Z</time></trkpt><trkpt lat="45.3802631" lon="14.2100138"><ele>1005.0</ele><time>2026-04-25T12:10:30.272Z</time></trkpt><trkpt lat="45.3802947" lon="14.2101283"><ele>1005.5</ele><time>2026-04-25T12:10:31.278Z</time></trkpt><trkpt lat="45.3803217" lon="14.210242"><ele>1006.0</ele><time>2026-04-25T12:10:32.29Z</time></trkpt><trkpt lat="45.3803425" lon="14.2103445"><ele>1006.5</ele><time>2026-04-25T12:10:33.276Z</time></trkpt><trkpt lat="45.3803693" lon="14.2104452"><ele>1007.0</ele><time>2026-04-25T12:10:34.281Z</time></trkpt><trkpt lat="45.3803981" lon="14.2105463"><ele>1007.5</ele><time>2026-04-25T12:10:35.278Z</time></trkpt><trkpt lat="45.3804237" lon="14.2106516"><ele>1008.0</ele><time>2026-04-25T12:10:36.292Z</time></trkpt><trkpt lat="45.3804493" lon="14.2107585"><ele>1008.5</ele><time>2026-04-25T12:10:37.273Z</time></trkpt><trkpt lat="45.3804641" lon="14.2108768"><ele>1009.0</ele><time>2026-04-25T12:10:38.273Z</time></trkpt><trkpt lat="45.3804746" lon="14.2110031"><ele>1009.5</ele><time>2026-04-25T12:10:39.274Z</time></trkpt><trkpt lat="45.3804898" lon="14.2111172"><ele>1010.0</ele><time>2026-04-25T12:10:40.274Z</time></trkpt><trkpt lat="45.3804924" lon="14.2112406"><ele>1010.5</ele><time>2026-04-25T12:10:41.276Z</time></trkpt><trkpt lat="45.3804975" lon="14.2113556"><ele>1011.0</ele><time>2026-04-25T12:10:42.273Z</time></trkpt><trkpt lat="45.3804998" lon="14.2114784"><ele>1012.3333333333334</ele><time>2026-04-25T12:10:43.271Z</time></trkpt><trkpt lat="45.3804971" lon="14.2116176"><ele>1013.6666666666667</ele><time>2026-04-25T12:10:44.274Z</time></trkpt><trkpt lat="45.3804967" lon="14.2117353"><ele>1015.0</ele><time>2026-04-25T12:10:45.288Z</time></trkpt><trkpt lat="45.3804747" lon="14.2118456"><ele>1016.3333333333334</ele><time>2026-04-25T12:10:46.272Z</time></trkpt><trkpt lat="45.3804367" lon="14.2119573"><ele>1017.6666666666667</ele><time>2026-04-25T12:10:47.271Z</time></trkpt><trkpt lat="45.380377" lon="14.2120663"><ele>1019.0</ele><time>2026-04-25T12:10:48.267Z</time></trkpt><trkpt lat="45.3803198" lon="14.2121728"><ele>1019.0</ele><time>2026-04-25T12:10:49.283Z</time></trkpt><trkpt lat="45.380266" lon="14.2122777"><ele>1019.0000000000001</ele><time>2026-04-25T12:10:50.266Z</time></trkpt><trkpt lat="45.3802084" lon="14.2123859"><ele>1019.0000000000001</ele><time>2026-04-25T12:10:51.267Z</time></trkpt><trkpt lat="45.3801496" lon="14.2124957"><ele>1019.0</ele><time>2026-04-25T12:10:52.287Z</time></trkpt><trkpt lat="45.3800944" lon="14.2126066"><ele>1019.0</ele><time>2026-04-25T12:10:53.273Z</time></trkpt><trkpt lat="45.3800491" lon="14.2127232"><ele>1022.0</ele><time>2026-04-25T12:10:54.278Z</time></trkpt><trkpt lat="45.380008" lon="14.2128499"><ele>1025.0</ele><time>2026-04-25T12:10:55.281Z</time></trkpt><trkpt lat="45.3799779" lon="14.2129802"><ele>1028.0</ele><time>2026-04-25T12:10:56.267Z</time></trkpt><trkpt lat="45.3799484" lon="14.2131065"><ele>1031.0</ele><time>2026-04-25T12:10:57.276Z</time></trkpt><trkpt lat="45.3799319" lon="14.2132445"><ele>1034.0</ele><time>2026-04-25T12:10:58.276Z</time></trkpt><trkpt lat="45.3799173" lon="14.2133935"><ele>1036.2</ele><time>2026-04-25T12:10:59.268Z</time></trkpt><trkpt lat="45.3799093" lon="14.2135523"><ele>1038.4</ele><time>2026-04-25T12:11:00.273Z</time></trkpt><trkpt lat="45.3798975" lon="14.2137032"><ele>1040.6</ele><time>2026-04-25T12:11:01.276Z</time></trkpt><trkpt lat="45.3798804" lon="14.2138411"><ele>1042.8</ele><time>2026-04-25T12:11:02.265Z</time></trkpt><trkpt lat="45.379862" lon="14.2139841"><ele>1045.0</ele><time>2026-04-25T12:11:03.266Z</time></trkpt><trkpt lat="45.3798485" lon="14.2141295"><ele>1045.0</ele><time>2026-04-25T12:11:04.274Z</time></trkpt><trkpt lat="45.3798407" lon="14.2142689"><ele>1045.0</ele><time>2026-04-25T12:11:05.265Z</time></trkpt><trkpt lat="45.3798285" lon="14.2144007"><ele>1045.0</ele><time>2026-04-25T12:11:06.263Z</time></trkpt><trkpt lat="45.3798214" lon="14.2145346"><ele>1045.0</ele><time>2026-04-25T12:11:07.271Z</time></trkpt><trkpt lat="45.3798093" lon="14.2146683"><ele>1045.0</ele><time>2026-04-25T12:11:08.262Z</time></trkpt><trkpt lat="45.3797955" lon="14.2148035"><ele>1044.0</ele><time>2026-04-25T12:11:09.278Z</time></trkpt><trkpt lat="45.3797809" lon="14.2149431"><ele>1043.0</ele><time>2026-04-25T12:11:10.276Z</time></trkpt><trkpt lat="45.3797698" lon="14.2150831"><ele>1042.0</ele><time>2026-04-25T12:11:11.267Z</time></trkpt><trkpt lat="45.379758" lon="14.215228"><ele>1041.0</ele><time>2026-04-25T12:11:12.281Z</time></trkpt><trkpt lat="45.3797463" lon="14.2153811"><ele>1040.0</ele><time>2026-04-25T12:11:13.267Z</time></trkpt><trkpt lat="45.3797355" lon="14.2155251"><ele>1039.4</ele><time>2026-04-25T12:11:14.266Z</time></trkpt><trkpt lat="45.3797281" lon="14.2156719"><ele>1038.8</ele><time>2026-04-25T12:11:15.268Z</time></trkpt><trkpt lat="45.3797225" lon="14.2158038"><ele>1038.2</ele><time>2026-04-25T12:11:16.262Z</time></trkpt><trkpt lat="45.3797138" lon="14.2159436"><ele>1037.6</ele><time>2026-04-25T12:11:17.268Z</time></trkpt><trkpt lat="45.3797061" lon="14.2160928"><ele>1037.0</ele><time>2026-04-25T12:11:18.274Z</time></trkpt><trkpt lat="45.3796936" lon="14.2162358"><ele>1034.0</ele><time>2026-04-25T12:11:19.274Z</time></trkpt><trkpt lat="45.3796787" lon="14.2163877"><ele>1031.0</ele><time>2026-04-25T12:11:20.264Z</time></trkpt><trkpt lat="45.379653" lon="14.2165335"><ele>1028.0</ele><time>2026-04-25T12:11:21.272Z</time></trkpt><trkpt lat="45.3796195" lon="14.2166827"><ele>1025.0</ele><time>2026-04-25T12:11:22.269Z</time></trkpt><trkpt lat="45.3795718" lon="14.2168386"><ele>1022.0</ele><time>2026-04-25T12:11:23.264Z</time></trkpt><trkpt lat="45.3795087" lon="14.2169767"><ele>1022.0</ele><time>2026-04-25T12:11:24.276Z</time></trkpt><trkpt lat="45.3794436" lon="14.2171216"><ele>1022.0</ele><time>2026-04-25T12:11:25.269Z</time></trkpt><trkpt lat="45.3793726" lon="14.2172677"><ele>1022.0</ele><time>2026-04-25T12:11:26.273Z</time></trkpt><trkpt lat="45.3793004" lon="14.2174195"><ele>1022.0</ele><time>2026-04-25T12:11:27.262Z</time></trkpt><trkpt lat="45.3792363" lon="14.2175657"><ele>1022.0</ele><time>2026-04-25T12:11:28.279Z</time></trkpt><trkpt lat="45.3791805" lon="14.2176992"><ele>1022.0</ele><time>2026-04-25T12:11:29.268Z</time></trkpt><trkpt lat="45.3791288" lon="14.2178231"><ele>1022.0</ele><time>2026-04-25T12:11:30.271Z</time></trkpt><trkpt lat="45.3790729" lon="14.2179431"><ele>1022.0</ele><time>2026-04-25T12:11:31.28Z</time></trkpt><trkpt lat="45.3790143" lon="14.2180584"><ele>1022.0</ele><time>2026-04-25T12:11:32.277Z</time></trkpt><trkpt lat="45.3789459" lon="14.2181942"><ele>1020.25</ele><time>2026-04-25T12:11:33.288Z</time></trkpt><trkpt lat="45.3788745" lon="14.21833"><ele>1018.5</ele><time>2026-04-25T12:11:34.266Z</time></trkpt><trkpt lat="45.3787996" lon="14.2184637"><ele>1016.75</ele><time>2026-04-25T12:11:35.273Z</time></trkpt><trkpt lat="45.3787228" lon="14.2185838"><ele>1015.0</ele><time>2026-04-25T12:11:36.287Z</time></trkpt><trkpt lat="45.3786363" lon="14.2186979"><ele>1015.0</ele><time>2026-04-25T12:11:37.279Z</time></trkpt><trkpt lat="45.3785517" lon="14.2188073"><ele>1015.0</ele><time>2026-04-25T12:11:38.278Z</time></trkpt><trkpt lat="45.3784651" lon="14.21891"><ele>1015.0</ele><time>2026-04-25T12:11:39.28Z</time></trkpt><trkpt lat="45.3783681" lon="14.2190199"><ele>1015.0</ele><time>2026-04-25T12:11:40.277Z</time></trkpt><trkpt lat="45.3782703" lon="14.2191208"><ele>1016.2</ele><time>2026-04-25T12:11:41.289Z</time></trkpt><trkpt lat="45.378179" lon="14.2192162"><ele>1017.4</ele><time>2026-04-25T12:11:42.278Z</time></trkpt><trkpt lat="45.3780895" lon="14.2192977"><ele>1018.5999999999999</ele><time>2026-04-25T12:11:43.286Z</time></trkpt><trkpt lat="45.3779914" lon="14.2193867"><ele>1019.8</ele><time>2026-04-25T12:11:44.271Z</time></trkpt><trkpt lat="45.3778959" lon="14.2194651"><ele>1021.0</ele><time>2026-04-25T12:11:45.276Z</time></trkpt><trkpt lat="45.3778024" lon="14.2195378"><ele>1021.0</ele><time>2026-04-25T12:11:46.268Z</time></trkpt><trkpt lat="45.3776877" lon="14.2196063"><ele>1021.0</ele><time>2026-04-25T12:11:47.274Z</time></trkpt><trkpt lat="45.3775729" lon="14.219673"><ele>1021.0</ele><time>2026-04-25T12:11:48.271Z</time></trkpt><trkpt lat="45.3774489" lon="14.2197333"><ele>1021.0</ele><time>2026-04-25T12:11:49.273Z</time></trkpt><trkpt lat="45.3773211" lon="14.2197973"><ele>1022.75</ele><time>2026-04-25T12:11:50.272Z</time></trkpt><trkpt lat="45.377189" lon="14.2198577"><ele>1024.5</ele><time>2026-04-25T12:11:51.268Z</time></trkpt><trkpt lat="45.3770592" lon="14.2199169"><ele>1026.25</ele><time>2026-04-25T12:11:52.285Z</time></trkpt><trkpt lat="45.3769342" lon="14.2199748"><ele>1028.0</ele><time>2026-04-25T12:11:53.274Z</time></trkpt><trkpt lat="45.3768183" lon="14.2200478"><ele>1028.0</ele><time>2026-04-25T12:11:54.273Z</time></trkpt><trkpt lat="45.3767051" lon="14.2201259"><ele>1028.0</ele><time>2026-04-25T12:11:55.281Z</time></trkpt><trkpt lat="45.3765954" lon="14.2201982"><ele>1028.0</ele><time>2026-04-25T12:11:56.273Z</time></trkpt><trkpt lat="45.3764807" lon="14.2202554"><ele>1028.0</ele><time>2026-04-25T12:11:57.274Z</time></trkpt><trkpt lat="45.3763641" lon="14.2203095"><ele>1025.75</ele><time>2026-04-25T12:11:58.267Z</time></trkpt><trkpt lat="45.3762399" lon="14.2203633"><ele>1023.5</ele><time>2026-04-25T12:11:59.274Z</time></trkpt><trkpt lat="45.3761243" lon="14.2204158"><ele>1021.25</ele><time>2026-04-25T12:12:00.273Z</time></trkpt><trkpt lat="45.3760178" lon="14.2204746"><ele>1019.0</ele><time>2026-04-25T12:12:01.274Z</time></trkpt><trkpt lat="45.375909" lon="14.220535"><ele>1019.0</ele><time>2026-04-25T12:12:02.274Z</time></trkpt><trkpt lat="45.3757968" lon="14.2206057"><ele>1019.0</ele><time>2026-04-25T12:12:03.272Z</time></trkpt><trkpt lat="45.3756887" lon="14.2206744"><ele>1019.0</ele><time>2026-04-25T12:12:04.275Z</time></trkpt><trkpt lat="45.3755798" lon="14.2207408"><ele>1019.0</ele><time>2026-04-25T12:12:05.269Z</time></trkpt><trkpt lat="45.3754767" lon="14.2208066"><ele>1021.8333333333334</ele><time>2026-04-25T12:12:06.275Z</time></trkpt><trkpt lat="45.3753827" lon="14.2208722"><ele>1024.6666666666667</ele><time>2026-04-25T12:12:07.273Z</time></trkpt><trkpt lat="45.3753003" lon="14.220919"><ele>1027.5</ele><time>2026-04-25T12:12:08.265Z</time></trkpt><trkpt lat="45.3752299" lon="14.2209748"><ele>1030.3333333333333</ele><time>2026-04-25T12:12:09.274Z</time></trkpt><trkpt lat="45.3751612" lon="14.2210298"><ele>1033.1666666666665</ele><time>2026-04-25T12:12:10.265Z</time></trkpt><trkpt lat="45.3750952" lon="14.2210978"><ele>1036.0</ele><time>2026-04-25T12:12:11.28Z</time></trkpt><trkpt lat="45.3750364" lon="14.2211715"><ele>1036.0</ele><time>2026-04-25T12:12:12.271Z</time></trkpt><trkpt lat="45.3749798" lon="14.2212551"><ele>1036.0</ele><time>2026-04-25T12:12:13.282Z</time></trkpt><trkpt lat="45.374931" lon="14.2213421"><ele>1036.0</ele><time>2026-04-25T12:12:14.275Z</time></trkpt><trkpt lat="45.3748916" lon="14.221435"><ele>1036.0</ele><time>2026-04-25T12:12:15.275Z</time></trkpt><trkpt lat="45.3748547" lon="14.2215318"><ele>1036.0</ele><time>2026-04-25T12:12:16.267Z</time></trkpt><trkpt lat="45.374814" lon="14.2216464"><ele>1036.0</ele><time>2026-04-25T12:12:17.28Z</time></trkpt><trkpt lat="45.3747756" lon="14.2217749"><ele>1036.0</ele><time>2026-04-25T12:12:18.263Z</time></trkpt><trkpt lat="45.374736" lon="14.2219242"><ele>1036.0</ele><time>2026-04-25T12:12:19.274Z</time></trkpt><trkpt lat="45.3746998" lon="14.2220855"><ele>1036.0</ele><time>2026-04-25T12:12:20.282Z</time></trkpt><trkpt lat="45.3746596" lon="14.222258"><ele>1036.0</ele><time>2026-04-25T12:12:21.268Z</time></trkpt><trkpt lat="45.3746083" lon="14.2224203"><ele>1035.2</ele><time>2026-04-25T12:12:22.277Z</time></trkpt><trkpt lat="45.3745599" lon="14.2225806"><ele>1034.3999999999999</ele><time>2026-04-25T12:12:23.273Z</time></trkpt><trkpt lat="45.3745147" lon="14.2227231"><ele>1033.6</ele><time>2026-04-25T12:12:24.269Z</time></trkpt><trkpt lat="45.3744692" lon="14.2228446"><ele>1032.8</ele><time>2026-04-25T12:12:25.272Z</time></trkpt><trkpt lat="45.3744342" lon="14.2229574"><ele>1032.0</ele><time>2026-04-25T12:12:26.272Z</time></trkpt><trkpt lat="45.3743992" lon="14.2230706"><ele>1031.8571428571427</ele><time>2026-04-25T12:12:27.281Z</time></trkpt><trkpt lat="45.3743696" lon="14.2231746"><ele>1031.7142857142858</ele><time>2026-04-25T12:12:28.272Z</time></trkpt><trkpt lat="45.3743414" lon="14.2232767"><ele>1031.5714285714284</ele><time>2026-04-25T12:12:29.269Z</time></trkpt><trkpt lat="45.3743033" lon="14.2233765"><ele>1031.4285714285713</ele><time>2026-04-25T12:12:30.266Z</time></trkpt><trkpt lat="45.3742684" lon="14.2234612"><ele>1031.2857142857142</ele><time>2026-04-25T12:12:31.283Z</time></trkpt><trkpt lat="45.3742275" lon="14.223537"><ele>1031.142857142857</ele><time>2026-04-25T12:12:32.273Z</time></trkpt><trkpt lat="45.3741785" lon="14.2236139"><ele>1031.0</ele><time>2026-04-25T12:12:33.27Z</time></trkpt><trkpt lat="45.3741216" lon="14.2236914"><ele>1031.0</ele><time>2026-04-25T12:12:34.283Z</time></trkpt><trkpt lat="45.3740623" lon="14.2237619"><ele>1031.0</ele><time>2026-04-25T12:12:35.274Z</time></trkpt><trkpt lat="45.3740024" lon="14.2238412"><ele>1031.0</ele><time>2026-04-25T12:12:36.289Z</time></trkpt><trkpt lat="45.3739418" lon="14.2239132"><ele>1031.0</ele><time>2026-04-25T12:12:37.27Z</time></trkpt><trkpt lat="45.3738723" lon="14.2239889"><ele>1031.0</ele><time>2026-04-25T12:12:38.275Z</time></trkpt><trkpt lat="45.3737939" lon="14.2240686"><ele>1031.0</ele><time>2026-04-25T12:12:39.276Z</time></trkpt><trkpt lat="45.3737193" lon="14.2241423"><ele>1029.2</ele><time>2026-04-25T12:12:40.27Z</time></trkpt><trkpt lat="45.37364" lon="14.2242297"><ele>1027.3999999999999</ele><time>2026-04-25T12:12:41.273Z</time></trkpt><trkpt lat="45.3735612" lon="14.2243198"><ele>1025.6</ele><time>2026-04-25T12:12:42.273Z</time></trkpt><trkpt lat="45.3734862" lon="14.22441"><ele>1023.8</ele><time>2026-04-25T12:12:43.278Z</time></trkpt><trkpt lat="45.373398" lon="14.2244951"><ele>1022.0</ele><time>2026-04-25T12:12:44.277Z</time></trkpt><trkpt lat="45.3733116" lon="14.2245908"><ele>1022.0</ele><time>2026-04-25T12:12:45.296Z</time></trkpt><trkpt lat="45.373225" lon="14.2246947"><ele>1022.0</ele><time>2026-04-25T12:12:46.273Z</time></trkpt><trkpt lat="45.3731355" lon="14.2248022"><ele>1022.0</ele><time>2026-04-25T12:12:47.276Z</time></trkpt><trkpt lat="45.373043" lon="14.2249013"><ele>1022.0</ele><time>2026-04-25T12:12:48.275Z</time></trkpt><trkpt lat="45.3729609" lon="14.224998"><ele>1021.25</ele><time>2026-04-25T12:12:49.278Z</time></trkpt><trkpt lat="45.3728739" lon="14.2250948"><ele>1020.5</ele><time>2026-04-25T12:12:50.273Z</time></trkpt><trkpt lat="45.3727797" lon="14.2251881"><ele>1019.75</ele><time>2026-04-25T12:12:51.275Z</time></trkpt><trkpt lat="45.3726858" lon="14.2252833"><ele>1019.0</ele><time>2026-04-25T12:12:52.268Z</time></trkpt><trkpt lat="45.3725917" lon="14.2253818"><ele>1019.0</ele><time>2026-04-25T12:12:53.273Z</time></trkpt><trkpt lat="45.3724946" lon="14.2254771"><ele>1019.0</ele><time>2026-04-25T12:12:54.277Z</time></trkpt><trkpt lat="45.3723906" lon="14.2255755"><ele>1019.0</ele><time>2026-04-25T12:12:55.272Z</time></trkpt><trkpt lat="45.3722832" lon="14.2256803"><ele>1019.0</ele><time>2026-04-25T12:12:56.269Z</time></trkpt><trkpt lat="45.3721841" lon="14.2257787"><ele>1017.25</ele><time>2026-04-25T12:12:57.275Z</time></trkpt><trkpt lat="45.3720894" lon="14.2258741"><ele>1015.5</ele><time>2026-04-25T12:12:58.277Z</time></trkpt><trkpt lat="45.3719957" lon="14.2259629"><ele>1013.75</ele><time>2026-04-25T12:12:59.277Z</time></trkpt><trkpt lat="45.3718991" lon="14.2260686"><ele>1012.0</ele><time>2026-04-25T12:13:00.276Z</time></trkpt><trkpt lat="45.3717971" lon="14.2261707"><ele>1012.0</ele><time>2026-04-25T12:13:01.284Z</time></trkpt><trkpt lat="45.371686" lon="14.2262769"><ele>1012.0</ele><time>2026-04-25T12:13:02.288Z</time></trkpt><trkpt lat="45.3715728" lon="14.2263838"><ele>1012.0</ele><time>2026-04-25T12:13:03.265Z</time></trkpt><trkpt lat="45.3714581" lon="14.2265069"><ele>1012.0</ele><time>2026-04-25T12:13:04.275Z</time></trkpt><trkpt lat="45.3713499" lon="14.2266206"><ele>1011.75</ele><time>2026-04-25T12:13:05.279Z</time></trkpt><trkpt lat="45.3712515" lon="14.2267299"><ele>1011.5</ele><time>2026-04-25T12:13:06.276Z</time></trkpt><trkpt lat="45.3711586" lon="14.2268275"><ele>1011.25</ele><time>2026-04-25T12:13:07.267Z</time></trkpt><trkpt lat="45.3710669" lon="14.2269249"><ele>1011.0</ele><time>2026-04-25T12:13:08.264Z</time></trkpt><trkpt lat="45.3709861" lon="14.2270058"><ele>1011.0</ele><time>2026-04-25T12:13:09.269Z</time></trkpt><trkpt lat="45.3709102" lon="14.2270933"><ele>1010.9999999999999</ele><time>2026-04-25T12:13:10.273Z</time></trkpt><trkpt lat="45.3708281" lon="14.2271767"><ele>1010.9999999999999</ele><time>2026-04-25T12:13:11.271Z</time></trkpt><trkpt lat="45.3707393" lon="14.2272733"><ele>1011.0</ele><time>2026-04-25T12:13:12.272Z</time></trkpt><trkpt lat="45.3706387" lon="14.2273738"><ele>1011.0</ele><time>2026-04-25T12:13:13.273Z</time></trkpt><trkpt lat="45.370535" lon="14.2274732"><ele>1011.25</ele><time>2026-04-25T12:13:14.284Z</time></trkpt><trkpt lat="45.3704407" lon="14.2275693"><ele>1011.5</ele><time>2026-04-25T12:13:15.275Z</time></trkpt><trkpt lat="45.3703516" lon="14.22768"><ele>1011.75</ele><time>2026-04-25T12:13:16.272Z</time></trkpt><trkpt lat="45.3702691" lon="14.2277984"><ele>1012.0</ele><time>2026-04-25T12:13:17.276Z</time></trkpt><trkpt lat="45.3701886" lon="14.2279262"><ele>1012.0</ele><time>2026-04-25T12:13:18.274Z</time></trkpt><trkpt lat="45.3700972" lon="14.2280759"><ele>1012.0</ele><time>2026-04-25T12:13:19.272Z</time></trkpt><trkpt lat="45.3700011" lon="14.228244"><ele>1012.0</ele><time>2026-04-25T12:13:20.275Z</time></trkpt><trkpt lat="45.3699119" lon="14.2284126"><ele>1012.0</ele><time>2026-04-25T12:13:21.269Z</time></trkpt><trkpt lat="45.3698177" lon="14.2285777"><ele>1011.3333333333333</ele><time>2026-04-25T12:13:22.262Z</time></trkpt><trkpt lat="45.3697221" lon="14.2287437"><ele>1010.6666666666667</ele><time>2026-04-25T12:13:23.274Z</time></trkpt><trkpt lat="45.3696221" lon="14.2289197"><ele>1010.0</ele><time>2026-04-25T12:13:24.265Z</time></trkpt><trkpt lat="45.3695131" lon="14.2290741"><ele>1011.0</ele><time>2026-04-25T12:13:25.275Z</time></trkpt><trkpt lat="45.3694106" lon="14.2292145"><ele>1012.0</ele><time>2026-04-25T12:13:26.271Z</time></trkpt><trkpt lat="45.3693087" lon="14.2293416"><ele>1013.0</ele><time>2026-04-25T12:13:27.278Z</time></trkpt><trkpt lat="45.3691969" lon="14.2294528"><ele>1014.0</ele><time>2026-04-25T12:13:28.265Z</time></trkpt><trkpt lat="45.3690818" lon="14.2295645"><ele>1014.0</ele><time>2026-04-25T12:13:29.273Z</time></trkpt><trkpt lat="45.36897" lon="14.2296735"><ele>1014.0</ele><time>2026-04-25T12:13:30.277Z</time></trkpt><trkpt lat="45.3688764" lon="14.2297773"><ele>1014.0</ele><time>2026-04-25T12:13:31.279Z</time></trkpt><trkpt lat="45.3687946" lon="14.2298813"><ele>1014.0</ele><time>2026-04-25T12:13:32.273Z</time></trkpt><trkpt lat="45.368722" lon="14.2299904"><ele>1012.5</ele><time>2026-04-25T12:13:33.275Z</time></trkpt><trkpt lat="45.3686653" lon="14.2301266"><ele>1011.0</ele><time>2026-04-25T12:13:34.275Z</time></trkpt><trkpt lat="45.3686265" lon="14.230278"><ele>1009.5</ele><time>2026-04-25T12:13:35.281Z</time></trkpt><trkpt lat="45.3685984" lon="14.2304503"><ele>1008.0</ele><time>2026-04-25T12:13:36.275Z</time></trkpt><trkpt lat="45.3685741" lon="14.2306473"><ele>1007.5</ele><time>2026-04-25T12:13:37.279Z</time></trkpt><trkpt lat="45.3685631" lon="14.2308328"><ele>1007.0</ele><time>2026-04-25T12:13:38.275Z</time></trkpt><trkpt lat="45.3685468" lon="14.2310178"><ele>1006.5</ele><time>2026-04-25T12:13:39.277Z</time></trkpt><trkpt lat="45.3685468" lon="14.2311833"><ele>1006.0</ele><time>2026-04-25T12:13:40.273Z</time></trkpt><trkpt lat="45.3685367" lon="14.231361"><ele>1006.0</ele><time>2026-04-25T12:13:41.29Z</time></trkpt><trkpt lat="45.3685182" lon="14.2315576"><ele>1006.0</ele><time>2026-04-25T12:13:42.279Z</time></trkpt><trkpt lat="45.3685092" lon="14.2317468"><ele>1006.0</ele><time>2026-04-25T12:13:43.272Z</time></trkpt><trkpt lat="45.3685063" lon="14.2319342"><ele>1006.0</ele><time>2026-04-25T12:13:44.278Z</time></trkpt><trkpt lat="45.3685024" lon="14.2321102"><ele>1006.0</ele><time>2026-04-25T12:13:45.279Z</time></trkpt><trkpt lat="45.3684997" lon="14.2322744"><ele>1005.9999999999999</ele><time>2026-04-25T12:13:46.271Z</time></trkpt><trkpt lat="45.368499" lon="14.2324301"><ele>1005.9999999999999</ele><time>2026-04-25T12:13:47.291Z</time></trkpt><trkpt lat="45.3685055" lon="14.2325704"><ele>1006.0</ele><time>2026-04-25T12:13:48.274Z</time></trkpt><trkpt lat="45.368511" lon="14.2327189"><ele>1006.0</ele><time>2026-04-25T12:13:49.271Z</time></trkpt><trkpt lat="45.3685214" lon="14.232874"><ele>1006.0</ele><time>2026-04-25T12:13:50.268Z</time></trkpt><trkpt lat="45.3685413" lon="14.2330317"><ele>1006.0</ele><time>2026-04-25T12:13:51.276Z</time></trkpt><trkpt lat="45.3685773" lon="14.2331976"><ele>1006.0</ele><time>2026-04-25T12:13:52.269Z</time></trkpt><trkpt lat="45.368625" lon="14.2333785"><ele>1006.0</ele><time>2026-04-25T12:13:53.266Z</time></trkpt><trkpt lat="45.3686794" lon="14.2335691"><ele>1006.0</ele><time>2026-04-25T12:13:54.275Z</time></trkpt><trkpt lat="45.36873" lon="14.2337548"><ele>1006.0</ele><time>2026-04-25T12:13:55.276Z</time></trkpt><trkpt lat="45.3687839" lon="14.2339315"><ele>1006.0</ele><time>2026-04-25T12:13:56.276Z</time></trkpt><trkpt lat="45.3688339" lon="14.2340946"><ele>1006.0</ele><time>2026-04-25T12:13:57.278Z</time></trkpt><trkpt lat="45.3688751" lon="14.2342465"><ele>1006.5</ele><time>2026-04-25T12:13:58.282Z</time></trkpt><trkpt lat="45.3689054" lon="14.2344028"><ele>1007.0</ele><time>2026-04-25T12:13:59.266Z</time></trkpt><trkpt lat="45.3689292" lon="14.2345563"><ele>1007.5</ele><time>2026-04-25T12:14:00.27Z</time></trkpt><trkpt lat="45.3689328" lon="14.2347202"><ele>1008.0</ele><time>2026-04-25T12:14:01.272Z</time></trkpt><trkpt lat="45.368935" lon="14.2348901"><ele>1006.5999999999999</ele><time>2026-04-25T12:14:02.288Z</time></trkpt><trkpt lat="45.3689348" lon="14.2350416"><ele>1005.1999999999999</ele><time>2026-04-25T12:14:03.272Z</time></trkpt><trkpt lat="45.3689185" lon="14.2351983"><ele>1003.8</ele><time>2026-04-25T12:14:04.266Z</time></trkpt><trkpt lat="45.368885" lon="14.2353498"><ele>1002.4</ele><time>2026-04-25T12:14:05.275Z</time></trkpt><trkpt lat="45.3688393" lon="14.2355067"><ele>1001.0</ele><time>2026-04-25T12:14:06.277Z</time></trkpt><trkpt lat="45.3687887" lon="14.2356505"><ele>995.5</ele><time>2026-04-25T12:14:07.272Z</time></trkpt><trkpt lat="45.3687183" lon="14.2358002"><ele>990.0</ele><time>2026-04-25T12:14:08.281Z</time></trkpt><trkpt lat="45.3686249" lon="14.2359339"><ele>984.5</ele><time>2026-04-25T12:14:09.28Z</time></trkpt><trkpt lat="45.3685245" lon="14.2360436"><ele>979.0</ele><time>2026-04-25T12:14:10.267Z</time></trkpt><trkpt lat="45.368416" lon="14.2361503"><ele>979.0</ele><time>2026-04-25T12:14:11.275Z</time></trkpt><trkpt lat="45.3683065" lon="14.2362587"><ele>979.0</ele><time>2026-04-25T12:14:12.287Z</time></trkpt><trkpt lat="45.3681981" lon="14.2363667"><ele>979.0</ele><time>2026-04-25T12:14:13.273Z</time></trkpt><trkpt lat="45.3680881" lon="14.2364765"><ele>979.0</ele><time>2026-04-25T12:14:14.27Z</time></trkpt><trkpt lat="45.3679744" lon="14.2365813"><ele>977.75</ele><time>2026-04-25T12:14:15.281Z</time></trkpt><trkpt lat="45.367864" lon="14.2366785"><ele>976.5</ele><time>2026-04-25T12:14:16.284Z</time></trkpt><trkpt lat="45.3677641" lon="14.2367629"><ele>975.25</ele><time>2026-04-25T12:14:17.277Z</time></trkpt><trkpt lat="45.367656" lon="14.2368307"><ele>974.0</ele><time>2026-04-25T12:14:18.28Z</time></trkpt><trkpt lat="45.3675507" lon="14.2368812"><ele>974.0</ele><time>2026-04-25T12:14:19.275Z</time></trkpt><trkpt lat="45.3674437" lon="14.2369412"><ele>974.0000000000001</ele><time>2026-04-25T12:14:20.264Z</time></trkpt><trkpt lat="45.3673396" lon="14.236996"><ele>974.0000000000001</ele><time>2026-04-25T12:14:21.277Z</time></trkpt><trkpt lat="45.3672412" lon="14.2370622"><ele>974.0</ele><time>2026-04-25T12:14:22.265Z</time></trkpt><trkpt lat="45.3671543" lon="14.2371358"><ele>974.0</ele><time>2026-04-25T12:14:23.28Z</time></trkpt><trkpt lat="45.3670738" lon="14.2372037"><ele>971.2</ele><time>2026-04-25T12:14:24.274Z</time></trkpt><trkpt lat="45.3670066" lon="14.2372851"><ele>968.4000000000001</ele><time>2026-04-25T12:14:25.266Z</time></trkpt><trkpt lat="45.3669565" lon="14.2373927"><ele>965.6</ele><time>2026-04-25T12:14:26.272Z</time></trkpt><trkpt lat="45.3669197" lon="14.2375144"><ele>962.8</ele><time>2026-04-25T12:14:27.273Z</time></trkpt><trkpt lat="45.3668895" lon="14.237646"><ele>960.0</ele><time>2026-04-25T12:14:28.292Z</time></trkpt><trkpt lat="45.3668776" lon="14.2377774"><ele>960.0</ele><time>2026-04-25T12:14:29.274Z</time></trkpt><trkpt lat="45.3668839" lon="14.2379153"><ele>960.0</ele><time>2026-04-25T12:14:30.276Z</time></trkpt><trkpt lat="45.3668966" lon="14.2380757"><ele>960.0</ele><time>2026-04-25T12:14:31.286Z</time></trkpt><trkpt lat="45.3669181" lon="14.2382346"><ele>960.0</ele><time>2026-04-25T12:14:32.279Z</time></trkpt><trkpt lat="45.3669422" lon="14.2383962"><ele>960.0</ele><time>2026-04-25T12:14:33.281Z</time></trkpt><trkpt lat="45.366961" lon="14.2385584"><ele>960.0</ele><time>2026-04-25T12:14:34.267Z</time></trkpt><trkpt lat="45.366969" lon="14.2387198"><ele>960.0</ele><time>2026-04-25T12:14:35.294Z</time></trkpt><trkpt lat="45.3669773" lon="14.2388935"><ele>960.0</ele><time>2026-04-25T12:14:36.279Z</time></trkpt><trkpt lat="45.3669702" lon="14.2390762"><ele>960.0</ele><time>2026-04-25T12:14:37.266Z</time></trkpt><trkpt lat="45.3669389" lon="14.2392634"><ele>960.0</ele><time>2026-04-25T12:14:38.279Z</time></trkpt><trkpt lat="45.3668857" lon="14.2394311"><ele>960.0</ele><time>2026-04-25T12:14:39.274Z</time></trkpt><trkpt lat="45.366805" lon="14.2395747"><ele>960.0</ele><time>2026-04-25T12:14:40.274Z</time></trkpt><trkpt lat="45.3667268" lon="14.2397064"><ele>960.0</ele><time>2026-04-25T12:14:41.277Z</time></trkpt><trkpt lat="45.3666398" lon="14.2398222"><ele>960.5</ele><time>2026-04-25T12:14:42.278Z</time></trkpt><trkpt lat="45.3665463" lon="14.2399327"><ele>961.0</ele><time>2026-04-25T12:14:43.274Z</time></trkpt><trkpt lat="45.3664366" lon="14.2400481"><ele>961.5</ele><time>2026-04-25T12:14:44.272Z</time></trkpt><trkpt lat="45.3663234" lon="14.2401794"><ele>962.0</ele><time>2026-04-25T12:14:45.285Z</time></trkpt><trkpt lat="45.3662115" lon="14.240321"><ele>957.6666666666667</ele><time>2026-04-25T12:14:46.282Z</time></trkpt><trkpt lat="45.366097" lon="14.2404592"><ele>953.3333333333333</ele><time>2026-04-25T12:14:47.284Z</time></trkpt><trkpt lat="45.365988" lon="14.2405956"><ele>949.0</ele><time>2026-04-25T12:14:48.271Z</time></trkpt><trkpt lat="45.3658639" lon="14.2407412"><ele>949.0</ele><time>2026-04-25T12:14:49.273Z</time></trkpt><trkpt lat="45.3657408" lon="14.2408833"><ele>949.0</ele><time>2026-04-25T12:14:50.271Z</time></trkpt><trkpt lat="45.365621" lon="14.241027"><ele>949.0</ele><time>2026-04-25T12:14:51.273Z</time></trkpt><trkpt lat="45.3655079" lon="14.2411742"><ele>945.6666666666666</ele><time>2026-04-25T12:14:52.267Z</time></trkpt><trkpt lat="45.3653973" lon="14.2413183"><ele>942.3333333333333</ele><time>2026-04-25T12:14:53.272Z</time></trkpt><trkpt lat="45.3652786" lon="14.2414686"><ele>939.0</ele><time>2026-04-25T12:14:54.269Z</time></trkpt><trkpt lat="45.3651632" lon="14.2416234"><ele>939.0</ele><time>2026-04-25T12:14:55.272Z</time></trkpt><trkpt lat="45.3650445" lon="14.2417865"><ele>939.0</ele><time>2026-04-25T12:14:56.279Z</time></trkpt><trkpt lat="45.3649169" lon="14.241953"><ele>939.0</ele><time>2026-04-25T12:14:57.274Z</time></trkpt><trkpt lat="45.3647837" lon="14.2421192"><ele>937.3333333333333</ele><time>2026-04-25T12:14:58.279Z</time></trkpt><trkpt lat="45.3646536" lon="14.2422882"><ele>935.6666666666666</ele><time>2026-04-25T12:14:59.271Z</time></trkpt><trkpt lat="45.3645244" lon="14.2424594"><ele>934.0</ele><time>2026-04-25T12:15:00.273Z</time></trkpt><trkpt lat="45.3644024" lon="14.2426253"><ele>934.0</ele><time>2026-04-25T12:15:01.28Z</time></trkpt><trkpt lat="45.3642828" lon="14.2427916"><ele>934.0</ele><time>2026-04-25T12:15:02.271Z</time></trkpt><trkpt lat="45.3641628" lon="14.2429476"><ele>934.0</ele><time>2026-04-25T12:15:03.273Z</time></trkpt><trkpt lat="45.3640469" lon="14.2430964"><ele>936.0</ele><time>2026-04-25T12:15:04.266Z</time></trkpt><trkpt lat="45.3639346" lon="14.2432392"><ele>938.0</ele><time>2026-04-25T12:15:05.275Z</time></trkpt><trkpt lat="45.3638283" lon="14.2433729"><ele>940.0</ele><time>2026-04-25T12:15:06.277Z</time></trkpt><trkpt lat="45.363715" lon="14.2435033"><ele>942.0</ele><time>2026-04-25T12:15:07.276Z</time></trkpt><trkpt lat="45.3635986" lon="14.2436447"><ele>941.0</ele><time>2026-04-25T12:15:08.269Z</time></trkpt><trkpt lat="45.3634823" lon="14.2437903"><ele>940.0</ele><time>2026-04-25T12:15:09.276Z</time></trkpt><trkpt lat="45.3633758" lon="14.243933"><ele>939.0</ele><time>2026-04-25T12:15:10.277Z</time></trkpt><trkpt lat="45.3632699" lon="14.24407"><ele>938.0</ele><time>2026-04-25T12:15:11.273Z</time></trkpt><trkpt lat="45.3631634" lon="14.2441927"><ele>938.0</ele><time>2026-04-25T12:15:12.278Z</time></trkpt><trkpt lat="45.3630562" lon="14.2442995"><ele>938.0</ele><time>2026-04-25T12:15:13.275Z</time></trkpt><trkpt lat="45.3629516" lon="14.2443912"><ele>938.0</ele><time>2026-04-25T12:15:14.27Z</time></trkpt><trkpt lat="45.3628535" lon="14.2444597"><ele>938.0</ele><time>2026-04-25T12:15:15.272Z</time></trkpt><trkpt lat="45.3627533" lon="14.2445085"><ele>934.0</ele><time>2026-04-25T12:15:16.271Z</time></trkpt><trkpt lat="45.3626556" lon="14.2445431"><ele>930.0</ele><time>2026-04-25T12:15:17.286Z</time></trkpt><trkpt lat="45.3625461" lon="14.2445723"><ele>926.0</ele><time>2026-04-25T12:15:18.272Z</time></trkpt><trkpt lat="45.3624163" lon="14.2445994"><ele>922.0</ele><time>2026-04-25T12:15:19.271Z</time></trkpt><trkpt lat="45.3622839" lon="14.2446044"><ele>919.6666666666666</ele><time>2026-04-25T12:15:20.268Z</time></trkpt><trkpt lat="45.3621331" lon="14.2445831"><ele>917.3333333333333</ele><time>2026-04-25T12:15:21.282Z</time></trkpt><trkpt lat="45.3619736" lon="14.2445578"><ele>915.0</ele><time>2026-04-25T12:15:22.284Z</time></trkpt><trkpt lat="45.3618231" lon="14.2445349"><ele>915.0</ele><time>2026-04-25T12:15:23.266Z</time></trkpt><trkpt lat="45.3616773" lon="14.2445079"><ele>915.0</ele><time>2026-04-25T12:15:24.273Z</time></trkpt><trkpt lat="45.3615357" lon="14.2444912"><ele>915.0</ele><time>2026-04-25T12:15:25.264Z</time></trkpt><trkpt lat="45.3613902" lon="14.2444728"><ele>915.0</ele><time>2026-04-25T12:15:26.281Z</time></trkpt><trkpt lat="45.3612389" lon="14.2444601"><ele>912.75</ele><time>2026-04-25T12:15:27.264Z</time></trkpt><trkpt lat="45.3610908" lon="14.2444487"><ele>910.5</ele><time>2026-04-25T12:15:28.272Z</time></trkpt><trkpt lat="45.360951" lon="14.2444436"><ele>908.25</ele><time>2026-04-25T12:15:29.262Z</time></trkpt><trkpt lat="45.3608229" lon="14.2444506"><ele>906.0</ele><time>2026-04-25T12:15:30.273Z</time></trkpt><trkpt lat="45.360697" lon="14.2444633"><ele>906.0</ele><time>2026-04-25T12:15:31.272Z</time></trkpt><trkpt lat="45.3605743" lon="14.2444951"><ele>906.0</ele><time>2026-04-25T12:15:32.266Z</time></trkpt><trkpt lat="45.3604471" lon="14.2445418"><ele>906.0</ele><time>2026-04-25T12:15:33.277Z</time></trkpt><trkpt lat="45.3603303" lon="14.2446101"><ele>906.0</ele><time>2026-04-25T12:15:34.272Z</time></trkpt><trkpt lat="45.36023" lon="14.2447059"><ele>902.75</ele><time>2026-04-25T12:15:35.276Z</time></trkpt><trkpt lat="45.3601492" lon="14.2448144"><ele>899.5</ele><time>2026-04-25T12:15:36.284Z</time></trkpt><trkpt lat="45.3600811" lon="14.2449425"><ele>896.25</ele><time>2026-04-25T12:15:37.279Z</time></trkpt><trkpt lat="45.3600309" lon="14.2450835"><ele>893.0</ele><time>2026-04-25T12:15:38.282Z</time></trkpt><trkpt lat="45.3599864" lon="14.2452474"><ele>893.0</ele><time>2026-04-25T12:15:39.281Z</time></trkpt><trkpt lat="45.3599512" lon="14.2454243"><ele>893.0</ele><time>2026-04-25T12:15:40.281Z</time></trkpt><trkpt lat="45.3599019" lon="14.2456086"><ele>893.0</ele><time>2026-04-25T12:15:41.28Z</time></trkpt><trkpt lat="45.359844" lon="14.2457987"><ele>893.0</ele><time>2026-04-25T12:15:42.284Z</time></trkpt><trkpt lat="45.3597912" lon="14.2459898"><ele>893.5</ele><time>2026-04-25T12:15:43.278Z</time></trkpt><trkpt lat="45.3597458" lon="14.2461819"><ele>894.0</ele><time>2026-04-25T12:15:44.273Z</time></trkpt><trkpt lat="45.3597024" lon="14.2463677"><ele>894.5</ele><time>2026-04-25T12:15:45.278Z</time></trkpt><trkpt lat="45.3596503" lon="14.2465341"><ele>895.0</ele><time>2026-04-25T12:15:46.277Z</time></trkpt><trkpt lat="45.3595889" lon="14.2467008"><ele>890.5</ele><time>2026-04-25T12:15:47.288Z</time></trkpt><trkpt lat="45.3595253" lon="14.2468605"><ele>886.0</ele><time>2026-04-25T12:15:48.28Z</time></trkpt><trkpt lat="45.3594475" lon="14.2470014"><ele>881.5</ele><time>2026-04-25T12:15:49.299Z</time></trkpt><trkpt lat="45.3593678" lon="14.2471276"><ele>877.0</ele><time>2026-04-25T12:15:50.287Z</time></trkpt><trkpt lat="45.3592748" lon="14.2472402"><ele>876.75</ele><time>2026-04-25T12:15:51.298Z</time></trkpt><trkpt lat="45.3591802" lon="14.2473481"><ele>876.5</ele><time>2026-04-25T12:15:52.292Z</time></trkpt><trkpt lat="45.3590754" lon="14.2474685"><ele>876.25</ele><time>2026-04-25T12:15:53.281Z</time></trkpt><trkpt lat="45.3589554" lon="14.2475858"><ele>876.0</ele><time>2026-04-25T12:15:54.274Z</time></trkpt><trkpt lat="45.3588282" lon="14.2477051"><ele>876.0</ele><time>2026-04-25T12:15:55.274Z</time></trkpt><trkpt lat="45.3587113" lon="14.2478377"><ele>876.0</ele><time>2026-04-25T12:15:56.281Z</time></trkpt><trkpt lat="45.358587" lon="14.2479759"><ele>876.0</ele><time>2026-04-25T12:15:57.287Z</time></trkpt><trkpt lat="45.358458" lon="14.2481242"><ele>874.0</ele><time>2026-04-25T12:15:58.28Z</time></trkpt><trkpt lat="45.3583181" lon="14.2482639"><ele>872.0</ele><time>2026-04-25T12:15:59.287Z</time></trkpt><trkpt lat="45.3581696" lon="14.2484094"><ele>870.0</ele><time>2026-04-25T12:16:00.273Z</time></trkpt><trkpt lat="45.3580108" lon="14.2485637"><ele>870.0</ele><time>2026-04-25T12:16:01.286Z</time></trkpt><trkpt lat="45.3578542" lon="14.2487214"><ele>870.0</ele><time>2026-04-25T12:16:02.281Z</time></trkpt><trkpt lat="45.3577022" lon="14.2488839"><ele>870.0</ele><time>2026-04-25T12:16:03.277Z</time></trkpt><trkpt lat="45.3575561" lon="14.2490424"><ele>874.0</ele><time>2026-04-25T12:16:04.27Z</time></trkpt><trkpt lat="45.3574117" lon="14.2491979"><ele>878.0</ele><time>2026-04-25T12:16:05.278Z</time></trkpt><trkpt lat="45.3572654" lon="14.2493536"><ele>882.0</ele><time>2026-04-25T12:16:06.284Z</time></trkpt><trkpt lat="45.357127" lon="14.2495089"><ele>882.0</ele><time>2026-04-25T12:16:07.274Z</time></trkpt><trkpt lat="45.3569884" lon="14.2496554"><ele>882.0</ele><time>2026-04-25T12:16:08.293Z</time></trkpt><trkpt lat="45.3568647" lon="14.2497829"><ele>882.0</ele><time>2026-04-25T12:16:09.275Z</time></trkpt><trkpt lat="45.3567476" lon="14.2498935"><ele>882.0</ele><time>2026-04-25T12:16:10.279Z</time></trkpt><trkpt lat="45.3566443" lon="14.2500048"><ele>882.0</ele><time>2026-04-25T12:16:11.286Z</time></trkpt><trkpt lat="45.3565501" lon="14.250116"><ele>882.0</ele><time>2026-04-25T12:16:12.289Z</time></trkpt><trkpt lat="45.3564691" lon="14.2502319"><ele>882.0</ele><time>2026-04-25T12:16:13.279Z</time></trkpt><trkpt lat="45.3563962" lon="14.2503662"><ele>877.25</ele><time>2026-04-25T12:16:14.281Z</time></trkpt><trkpt lat="45.3563339" lon="14.2505175"><ele>872.5</ele><time>2026-04-25T12:16:15.274Z</time></trkpt><trkpt lat="45.3562756" lon="14.250679"><ele>867.75</ele><time>2026-04-25T12:16:16.272Z</time></trkpt><trkpt lat="45.3562191" lon="14.250847"><ele>863.0</ele><time>2026-04-25T12:16:17.274Z</time></trkpt><trkpt lat="45.3561628" lon="14.2510062"><ele>863.0</ele><time>2026-04-25T12:16:18.272Z</time></trkpt><trkpt lat="45.3561049" lon="14.2511621"><ele>863.0</ele><time>2026-04-25T12:16:19.282Z</time></trkpt><trkpt lat="45.3560353" lon="14.2513181"><ele>863.0</ele><time>2026-04-25T12:16:20.27Z</time></trkpt><trkpt lat="45.3559594" lon="14.2514449"><ele>863.0</ele><time>2026-04-25T12:16:21.274Z</time></trkpt><trkpt lat="45.3558747" lon="14.2515596"><ele>865.5</ele><time>2026-04-25T12:16:22.278Z</time></trkpt><trkpt lat="45.3557792" lon="14.2516673"><ele>868.0</ele><time>2026-04-25T12:16:23.274Z</time></trkpt><trkpt lat="45.3556559" lon="14.2517602"><ele>870.5</ele><time>2026-04-25T12:16:24.279Z</time></trkpt><trkpt lat="45.3555242" lon="14.2518367"><ele>873.0</ele><time>2026-04-25T12:16:25.265Z</time></trkpt><trkpt lat="45.3553864" lon="14.2518961"><ele>873.0</ele><time>2026-04-25T12:16:26.269Z</time></trkpt><trkpt lat="45.3552505" lon="14.2519263"><ele>873.0</ele><time>2026-04-25T12:16:27.28Z</time></trkpt><trkpt lat="45.355105" lon="14.2519579"><ele>873.0</ele><time>2026-04-25T12:16:28.276Z</time></trkpt><trkpt lat="45.3549648" lon="14.2519868"><ele>873.0</ele><time>2026-04-25T12:16:29.279Z</time></trkpt><trkpt lat="45.3548109" lon="14.2520194"><ele>871.3333333333333</ele><time>2026-04-25T12:16:30.268Z</time></trkpt><trkpt lat="45.3546551" lon="14.2520662"><ele>869.6666666666666</ele><time>2026-04-25T12:16:31.291Z</time></trkpt><trkpt lat="45.354489" lon="14.2521081"><ele>868.0</ele><time>2026-04-25T12:16:32.277Z</time></trkpt><trkpt lat="45.3543224" lon="14.2521475"><ele>868.0</ele><time>2026-04-25T12:16:33.283Z</time></trkpt><trkpt lat="45.3541617" lon="14.2521843"><ele>868.0</ele><time>2026-04-25T12:16:34.277Z</time></trkpt><trkpt lat="45.354012" lon="14.252224"><ele>868.0</ele><time>2026-04-25T12:16:35.266Z</time></trkpt><trkpt lat="45.3538668" lon="14.2522519"><ele>867.75</ele><time>2026-04-25T12:16:36.281Z</time></trkpt><trkpt lat="45.3537286" lon="14.2522773"><ele>867.5</ele><time>2026-04-25T12:16:37.274Z</time></trkpt><trkpt lat="45.3535902" lon="14.2523067"><ele>867.25</ele><time>2026-04-25T12:16:38.276Z</time></trkpt><trkpt lat="45.3534636" lon="14.2523239"><ele>867.0</ele><time>2026-04-25T12:16:39.281Z</time></trkpt><trkpt lat="45.3533421" lon="14.2523302"><ele>867.0</ele><time>2026-04-25T12:16:40.281Z</time></trkpt><trkpt lat="45.3532354" lon="14.2523305"><ele>867.0</ele><time>2026-04-25T12:16:41.288Z</time></trkpt><trkpt lat="45.3531265" lon="14.2523277"><ele>867.0</ele><time>2026-04-25T12:16:42.275Z</time></trkpt><trkpt lat="45.3530008" lon="14.2523088"><ele>867.0</ele><time>2026-04-25T12:16:43.278Z</time></trkpt><trkpt lat="45.3528746" lon="14.2522603"><ele>867.0</ele><time>2026-04-25T12:16:44.266Z</time></trkpt><trkpt lat="45.3527575" lon="14.2521921"><ele>867.0</ele><time>2026-04-25T12:16:45.276Z</time></trkpt><trkpt lat="45.3526366" lon="14.2521187"><ele>867.0</ele><time>2026-04-25T12:16:46.277Z</time></trkpt><trkpt lat="45.3525222" lon="14.2520379"><ele>867.0</ele><time>2026-04-25T12:16:47.276Z</time></trkpt><trkpt lat="45.3524098" lon="14.2519373"><ele>867.0</ele><time>2026-04-25T12:16:48.274Z</time></trkpt><trkpt lat="45.3523037" lon="14.2518053"><ele>867.0</ele><time>2026-04-25T12:16:49.283Z</time></trkpt><trkpt lat="45.352216" lon="14.2516455"><ele>867.0</ele><time>2026-04-25T12:16:50.272Z</time></trkpt><trkpt lat="45.3521403" lon="14.2514832"><ele>867.0</ele><time>2026-04-25T12:16:51.266Z</time></trkpt><trkpt lat="45.3520764" lon="14.2513051"><ele>866.3333333333333</ele><time>2026-04-25T12:16:52.272Z</time></trkpt><trkpt lat="45.3520295" lon="14.2511018"><ele>865.6666666666666</ele><time>2026-04-25T12:16:53.277Z</time></trkpt><trkpt lat="45.3519811" lon="14.250887"><ele>865.0</ele><time>2026-04-25T12:16:54.293Z</time></trkpt><trkpt lat="45.3519287" lon="14.2506797"><ele>863.0</ele><time>2026-04-25T12:16:55.275Z</time></trkpt><trkpt lat="45.3518775" lon="14.2504896"><ele>861.0</ele><time>2026-04-25T12:16:56.272Z</time></trkpt><trkpt lat="45.3518253" lon="14.2503035"><ele>859.0</ele><time>2026-04-25T12:16:57.276Z</time></trkpt><trkpt lat="45.3517718" lon="14.2501094"><ele>857.0</ele><time>2026-04-25T12:16:58.278Z</time></trkpt><trkpt lat="45.3517205" lon="14.2499172"><ele>855.25</ele><time>2026-04-25T12:16:59.28Z</time></trkpt><trkpt lat="45.3516699" lon="14.249728"><ele>853.5</ele><time>2026-04-25T12:17:00.278Z</time></trkpt><trkpt lat="45.3516164" lon="14.249552"><ele>851.75</ele><time>2026-04-25T12:17:01.271Z</time></trkpt><trkpt lat="45.351549" lon="14.2493741"><ele>850.0</ele><time>2026-04-25T12:17:02.273Z</time></trkpt><trkpt lat="45.3514745" lon="14.2492149"><ele>850.0</ele><time>2026-04-25T12:17:03.292Z</time></trkpt><trkpt lat="45.3513967" lon="14.2490781"><ele>850.0</ele><time>2026-04-25T12:17:04.278Z</time></trkpt><trkpt lat="45.3513194" lon="14.2489868"><ele>850.0</ele><time>2026-04-25T12:17:05.283Z</time></trkpt><trkpt lat="45.3512412" lon="14.2489191"><ele>850.0</ele><time>2026-04-25T12:17:06.271Z</time></trkpt><trkpt lat="45.3511507" lon="14.2488708"><ele>850.0</ele><time>2026-04-25T12:17:07.289Z</time></trkpt><trkpt lat="45.3510699" lon="14.2488322"><ele>848.2</ele><time>2026-04-25T12:17:08.275Z</time></trkpt><trkpt lat="45.3509882" lon="14.2487917"><ele>846.4</ele><time>2026-04-25T12:17:09.272Z</time></trkpt><trkpt lat="45.3508984" lon="14.2487745"><ele>844.5999999999999</ele><time>2026-04-25T12:17:10.269Z</time></trkpt><trkpt lat="45.3507999" lon="14.2487588"><ele>842.8</ele><time>2026-04-25T12:17:11.277Z</time></trkpt><trkpt lat="45.3507084" lon="14.2487614"><ele>841.0</ele><time>2026-04-25T12:17:12.266Z</time></trkpt><trkpt lat="45.3506056" lon="14.2487746"><ele>841.5999999999999</ele><time>2026-04-25T12:17:13.278Z</time></trkpt><trkpt lat="45.3505019" lon="14.2488063"><ele>842.2</ele><time>2026-04-25T12:17:14.274Z</time></trkpt><trkpt lat="45.3504081" lon="14.2488417"><ele>842.8</ele><time>2026-04-25T12:17:15.274Z</time></trkpt><trkpt lat="45.3503213" lon="14.2488891"><ele>843.4000000000001</ele><time>2026-04-25T12:17:16.279Z</time></trkpt><trkpt lat="45.3502294" lon="14.2489554"><ele>844.0</ele><time>2026-04-25T12:17:17.276Z</time></trkpt><trkpt lat="45.350133" lon="14.2490481"><ele>844.0</ele><time>2026-04-25T12:17:18.277Z</time></trkpt><trkpt lat="45.3500324" lon="14.2491351"><ele>844.0</ele><time>2026-04-25T12:17:19.268Z</time></trkpt><trkpt lat="45.3499333" lon="14.2492398"><ele>844.0</ele><time>2026-04-25T12:17:20.279Z</time></trkpt><trkpt lat="45.3498304" lon="14.2493357"><ele>844.0</ele><time>2026-04-25T12:17:21.268Z</time></trkpt><trkpt lat="45.3497281" lon="14.2494242"><ele>840.75</ele><time>2026-04-25T12:17:22.281Z</time></trkpt><trkpt lat="45.3496291" lon="14.2495148"><ele>837.5</ele><time>2026-04-25T12:17:23.272Z</time></trkpt><trkpt lat="45.3495287" lon="14.2496012"><ele>834.25</ele><time>2026-04-25T12:17:24.272Z</time></trkpt><trkpt lat="45.3494311" lon="14.2496953"><ele>831.0</ele><time>2026-04-25T12:17:25.268Z</time></trkpt><trkpt lat="45.3493323" lon="14.2497855"><ele>835.75</ele><time>2026-04-25T12:17:26.282Z</time></trkpt><trkpt lat="45.3492309" lon="14.2498725"><ele>840.5</ele><time>2026-04-25T12:17:27.279Z</time></trkpt><trkpt lat="45.3491314" lon="14.2499661"><ele>845.25</ele><time>2026-04-25T12:17:28.274Z</time></trkpt><trkpt lat="45.3490255" lon="14.2500578"><ele>850.0</ele><time>2026-04-25T12:17:29.271Z</time></trkpt><trkpt lat="45.348917" lon="14.2501429"><ele>845.75</ele><time>2026-04-25T12:17:30.27Z</time></trkpt><trkpt lat="45.3488013" lon="14.2502275"><ele>841.5</ele><time>2026-04-25T12:17:31.269Z</time></trkpt><trkpt lat="45.3486963" lon="14.2503226"><ele>837.25</ele><time>2026-04-25T12:17:32.28Z</time></trkpt><trkpt lat="45.3485878" lon="14.250427"><ele>833.0</ele><time>2026-04-25T12:17:33.282Z</time></trkpt><trkpt lat="45.3484742" lon="14.2505299"><ele>836.5</ele><time>2026-04-25T12:17:34.277Z</time></trkpt><trkpt lat="45.3483638" lon="14.2506337"><ele>840.0</ele><time>2026-04-25T12:17:35.276Z</time></trkpt><trkpt lat="45.3482618" lon="14.2507343"><ele>843.5</ele><time>2026-04-25T12:17:36.282Z</time></trkpt><trkpt lat="45.3481631" lon="14.2508339"><ele>847.0</ele><time>2026-04-25T12:17:37.278Z</time></trkpt><trkpt lat="45.3480648" lon="14.250922"><ele>843.5</ele><time>2026-04-25T12:17:38.275Z</time></trkpt><trkpt lat="45.3479623" lon="14.2510138"><ele>840.0</ele><time>2026-04-25T12:17:39.278Z</time></trkpt><trkpt lat="45.3478524" lon="14.2511144"><ele>836.5</ele><time>2026-04-25T12:17:40.273Z</time></trkpt><trkpt lat="45.3477389" lon="14.2512065"><ele>833.0</ele><time>2026-04-25T12:17:41.279Z</time></trkpt><trkpt lat="45.3476243" lon="14.2513087"><ele>833.0</ele><time>2026-04-25T12:17:42.272Z</time></trkpt><trkpt lat="45.3475137" lon="14.2514045"><ele>833.0</ele><time>2026-04-25T12:17:43.275Z</time></trkpt><trkpt lat="45.3474063" lon="14.2514904"><ele>833.0</ele><time>2026-04-25T12:17:44.277Z</time></trkpt><trkpt lat="45.3473052" lon="14.2515775"><ele>833.0</ele><time>2026-04-25T12:17:45.273Z</time></trkpt><trkpt lat="45.3472059" lon="14.2516635"><ele>833.5999999999999</ele><time>2026-04-25T12:17:46.263Z</time></trkpt><trkpt lat="45.3471074" lon="14.2517459"><ele>834.1999999999999</ele><time>2026-04-25T12:17:47.274Z</time></trkpt><trkpt lat="45.3470199" lon="14.251825"><ele>834.8</ele><time>2026-04-25T12:17:48.264Z</time></trkpt><trkpt lat="45.3469456" lon="14.2518987"><ele>835.4</ele><time>2026-04-25T12:17:49.275Z</time></trkpt><trkpt lat="45.3468711" lon="14.2519614"><ele>836.0</ele><time>2026-04-25T12:17:50.277Z</time></trkpt><trkpt lat="45.3467921" lon="14.2520284"><ele>836.0000000000001</ele><time>2026-04-25T12:17:51.271Z</time></trkpt><trkpt lat="45.3467183" lon="14.2520977"><ele>836.0</ele><time>2026-04-25T12:17:52.267Z</time></trkpt><trkpt lat="45.3466415" lon="14.2521586"><ele>836.0</ele><time>2026-04-25T12:17:53.279Z</time></trkpt><trkpt lat="45.3465648" lon="14.2522119"><ele>836.0</ele><time>2026-04-25T12:17:54.282Z</time></trkpt><trkpt lat="45.3464843" lon="14.2522605"><ele>836.0000000000001</ele><time>2026-04-25T12:17:55.29Z</time></trkpt><trkpt lat="45.3463997" lon="14.2523018"><ele>836.0</ele><time>2026-04-25T12:17:56.283Z</time></trkpt><trkpt lat="45.346321" lon="14.2523424"><ele>835.4</ele><time>2026-04-25T12:17:57.287Z</time></trkpt><trkpt lat="45.346232" lon="14.2523761"><ele>834.8</ele><time>2026-04-25T12:17:58.284Z</time></trkpt><trkpt lat="45.3461399" lon="14.2523991"><ele>834.1999999999999</ele><time>2026-04-25T12:17:59.287Z</time></trkpt><trkpt lat="45.3460457" lon="14.252398"><ele>833.5999999999999</ele><time>2026-04-25T12:18:00.292Z</time></trkpt><trkpt lat="45.3459453" lon="14.2523847"><ele>833.0</ele><time>2026-04-25T12:18:01.28Z</time></trkpt><trkpt lat="45.3458447" lon="14.252364"><ele>833.0</ele><time>2026-04-25T12:18:02.278Z</time></trkpt><trkpt lat="45.3457541" lon="14.2523301"><ele>833.0</ele><time>2026-04-25T12:18:03.282Z</time></trkpt><trkpt lat="45.3456588" lon="14.2522814"><ele>833.0</ele><time>2026-04-25T12:18:04.279Z</time></trkpt><trkpt lat="45.3455735" lon="14.252209"><ele>833.0</ele><time>2026-04-25T12:18:05.293Z</time></trkpt><trkpt lat="45.3454918" lon="14.2521262"><ele>833.0</ele><time>2026-04-25T12:18:06.278Z</time></trkpt><trkpt lat="45.3454134" lon="14.2520335"><ele>832.25</ele><time>2026-04-25T12:18:07.285Z</time></trkpt><trkpt lat="45.3453353" lon="14.2519248"><ele>831.5</ele><time>2026-04-25T12:18:08.279Z</time></trkpt><trkpt lat="45.3452549" lon="14.2518035"><ele>830.75</ele><time>2026-04-25T12:18:09.29Z</time></trkpt><trkpt lat="45.3451683" lon="14.251677"><ele>830.0</ele><time>2026-04-25T12:18:10.295Z</time></trkpt><trkpt lat="45.3450855" lon="14.2515474"><ele>832.25</ele><time>2026-04-25T12:18:11.288Z</time></trkpt><trkpt lat="45.3450026" lon="14.2514232"><ele>834.5</ele><time>2026-04-25T12:18:12.291Z</time></trkpt><trkpt lat="45.3449167" lon="14.2513091"><ele>836.75</ele><time>2026-04-25T12:18:13.297Z</time></trkpt><trkpt lat="45.3448382" lon="14.2511864"><ele>839.0</ele><time>2026-04-25T12:18:14.307Z</time></trkpt><trkpt lat="45.344756" lon="14.2510735"><ele>837.2</ele><time>2026-04-25T12:18:15.288Z</time></trkpt><trkpt lat="45.3446788" lon="14.2509751"><ele>835.4000000000001</ele><time>2026-04-25T12:18:16.286Z</time></trkpt><trkpt lat="45.3446074" lon="14.250873"><ele>833.6</ele><time>2026-04-25T12:18:17.292Z</time></trkpt><trkpt lat="45.3445321" lon="14.2507705"><ele>831.8</ele><time>2026-04-25T12:18:18.283Z</time></trkpt><trkpt lat="45.3444619" lon="14.2506617"><ele>830.0</ele><time>2026-04-25T12:18:19.285Z</time></trkpt><trkpt lat="45.3443819" lon="14.2505482"><ele>830.0</ele><time>2026-04-25T12:18:20.283Z</time></trkpt><trkpt lat="45.3442958" lon="14.2504383"><ele>830.0</ele><time>2026-04-25T12:18:21.316Z</time></trkpt><trkpt lat="45.3442013" lon="14.2503323"><ele>830.0</ele><time>2026-04-25T12:18:22.278Z</time></trkpt><trkpt lat="45.344106" lon="14.2502257"><ele>830.0</ele><time>2026-04-25T12:18:23.287Z</time></trkpt><trkpt lat="45.3440122" lon="14.2501239"><ele>830.0</ele><time>2026-04-25T12:18:24.294Z</time></trkpt><trkpt lat="45.343916" lon="14.2500276"><ele>830.0</ele><time>2026-04-25T12:18:25.288Z</time></trkpt><trkpt lat="45.343811" lon="14.2499539"><ele>830.0</ele><time>2026-04-25T12:18:26.288Z</time></trkpt><trkpt lat="45.343706" lon="14.2498937"><ele>830.0</ele><time>2026-04-25T12:18:27.299Z</time></trkpt><trkpt lat="45.3435993" lon="14.2498375"><ele>833.0</ele><time>2026-04-25T12:18:28.3Z</time></trkpt><trkpt lat="45.3434845" lon="14.2497853"><ele>836.0</ele><time>2026-04-25T12:18:29.284Z</time></trkpt><trkpt lat="45.3433659" lon="14.2497374"><ele>839.0</ele><time>2026-04-25T12:18:30.281Z</time></trkpt><trkpt lat="45.343251" lon="14.2496917"><ele>842.0</ele><time>2026-04-25T12:18:31.283Z</time></trkpt><trkpt lat="45.3431423" lon="14.2496479"><ele>840.0</ele><time>2026-04-25T12:18:32.278Z</time></trkpt><trkpt lat="45.3430366" lon="14.2496073"><ele>838.0</ele><time>2026-04-25T12:18:33.279Z</time></trkpt><trkpt lat="45.3429373" lon="14.2495671"><ele>836.0</ele><time>2026-04-25T12:18:34.277Z</time></trkpt><trkpt lat="45.3428348" lon="14.2495267"><ele>834.0</ele><time>2026-04-25T12:18:35.278Z</time></trkpt><trkpt lat="45.3427318" lon="14.2494926"><ele>832.0</ele><time>2026-04-25T12:18:36.279Z</time></trkpt><trkpt lat="45.3426314" lon="14.2494626"><ele>832.0</ele><time>2026-04-25T12:18:37.276Z</time></trkpt><trkpt lat="45.3425259" lon="14.2494331"><ele>832.0</ele><time>2026-04-25T12:18:38.285Z</time></trkpt><trkpt lat="45.3424134" lon="14.249394"><ele>832.0</ele><time>2026-04-25T12:18:39.274Z</time></trkpt><trkpt lat="45.3422903" lon="14.249352"><ele>832.0</ele><time>2026-04-25T12:18:40.28Z</time></trkpt><trkpt lat="45.3421676" lon="14.249307"><ele>828.75</ele><time>2026-04-25T12:18:41.275Z</time></trkpt><trkpt lat="45.342046" lon="14.2492653"><ele>825.5</ele><time>2026-04-25T12:18:42.291Z</time></trkpt><trkpt lat="45.3419262" lon="14.2492228"><ele>822.25</ele><time>2026-04-25T12:18:43.284Z</time></trkpt><trkpt lat="45.3417988" lon="14.2491823"><ele>819.0</ele><time>2026-04-25T12:18:44.272Z</time></trkpt><trkpt lat="45.3416721" lon="14.2491389"><ele>819.0</ele><time>2026-04-25T12:18:45.288Z</time></trkpt><trkpt lat="45.3415503" lon="14.2490973"><ele>819.0</ele><time>2026-04-25T12:18:46.282Z</time></trkpt><trkpt lat="45.3414357" lon="14.2490586"><ele>819.0</ele><time>2026-04-25T12:18:47.296Z</time></trkpt><trkpt lat="45.3413184" lon="14.2490206"><ele>819.0</ele><time>2026-04-25T12:18:48.286Z</time></trkpt><trkpt lat="45.3412024" lon="14.2489886"><ele>820.0</ele><time>2026-04-25T12:18:49.287Z</time></trkpt><trkpt lat="45.3410886" lon="14.2489441"><ele>821.0</ele><time>2026-04-25T12:18:50.282Z</time></trkpt><trkpt lat="45.3409784" lon="14.2488971"><ele>822.0</ele><time>2026-04-25T12:18:51.286Z</time></trkpt><trkpt lat="45.3408753" lon="14.2488588"><ele>823.0</ele><time>2026-04-25T12:18:52.279Z</time></trkpt><trkpt lat="45.3407748" lon="14.2488288"><ele>824.0</ele><time>2026-04-25T12:18:53.277Z</time></trkpt><trkpt lat="45.34067" lon="14.2488006"><ele>824.0</ele><time>2026-04-25T12:18:54.281Z</time></trkpt><trkpt lat="45.3405726" lon="14.2487593"><ele>824.0</ele><time>2026-04-25T12:18:55.279Z</time></trkpt><trkpt lat="45.3404825" lon="14.248718"><ele>824.0</ele><time>2026-04-25T12:18:56.292Z</time></trkpt><trkpt lat="45.3403997" lon="14.2486789"><ele>824.0</ele><time>2026-04-25T12:18:57.289Z</time></trkpt><trkpt lat="45.3403199" lon="14.2486412"><ele>824.0</ele><time>2026-04-25T12:18:58.275Z</time></trkpt><trkpt lat="45.3402386" lon="14.2485893"><ele>822.3333333333334</ele><time>2026-04-25T12:18:59.276Z</time></trkpt><trkpt lat="45.340173" lon="14.2485068"><ele>820.6666666666667</ele><time>2026-04-25T12:19:00.279Z</time></trkpt><trkpt lat="45.3401175" lon="14.2484273"><ele>819.0</ele><time>2026-04-25T12:19:01.285Z</time></trkpt><trkpt lat="45.3400667" lon="14.248339"><ele>817.3333333333333</ele><time>2026-04-25T12:19:02.287Z</time></trkpt><trkpt lat="45.3400201" lon="14.2482397"><ele>815.6666666666666</ele><time>2026-04-25T12:19:03.284Z</time></trkpt><trkpt lat="45.3399743" lon="14.2481216"><ele>814.0</ele><time>2026-04-25T12:19:04.288Z</time></trkpt><trkpt lat="45.3399399" lon="14.2479993"><ele>813.8000000000001</ele><time>2026-04-25T12:19:05.281Z</time></trkpt><trkpt lat="45.3399072" lon="14.2478513"><ele>813.6</ele><time>2026-04-25T12:19:06.282Z</time></trkpt><trkpt lat="45.3398823" lon="14.2477054"><ele>813.4</ele><time>2026-04-25T12:19:07.286Z</time></trkpt><trkpt lat="45.3398606" lon="14.2475621"><ele>813.2</ele><time>2026-04-25T12:19:08.281Z</time></trkpt><trkpt lat="45.3398439" lon="14.2474242"><ele>813.0</ele><time>2026-04-25T12:19:09.281Z</time></trkpt><trkpt lat="45.339828" lon="14.2472848"><ele>813.0</ele><time>2026-04-25T12:19:10.281Z</time></trkpt><trkpt lat="45.339812" lon="14.247148"><ele>813.0</ele><time>2026-04-25T12:19:11.279Z</time></trkpt><trkpt lat="45.339793" lon="14.2470138"><ele>813.0</ele><time>2026-04-25T12:19:12.272Z</time></trkpt><trkpt lat="45.3397669" lon="14.2468909"><ele>813.0</ele><time>2026-04-25T12:19:13.281Z</time></trkpt><trkpt lat="45.3397417" lon="14.2467633"><ele>813.0</ele><time>2026-04-25T12:19:14.273Z</time></trkpt><trkpt lat="45.3397235" lon="14.2466279"><ele>810.5999999999999</ele><time>2026-04-25T12:19:15.272Z</time></trkpt><trkpt lat="45.3396968" lon="14.246503"><ele>808.1999999999999</ele><time>2026-04-25T12:19:16.277Z</time></trkpt><trkpt lat="45.3396596" lon="14.2463843"><ele>805.8</ele><time>2026-04-25T12:19:17.278Z</time></trkpt><trkpt lat="45.3396072" lon="14.2462739"><ele>803.4</ele><time>2026-04-25T12:19:18.287Z</time></trkpt><trkpt lat="45.339532" lon="14.2461784"><ele>801.0</ele><time>2026-04-25T12:19:19.275Z</time></trkpt><trkpt lat="45.3394431" lon="14.2460881"><ele>801.0</ele><time>2026-04-25T12:19:20.269Z</time></trkpt><trkpt lat="45.3393481" lon="14.2460109"><ele>801.0</ele><time>2026-04-25T12:19:21.272Z</time></trkpt><trkpt lat="45.3392527" lon="14.2459356"><ele>801.0</ele><time>2026-04-25T12:19:22.277Z</time></trkpt><trkpt lat="45.3391537" lon="14.2458787"><ele>801.0</ele><time>2026-04-25T12:19:23.28Z</time></trkpt><trkpt lat="45.3390377" lon="14.2458276"><ele>801.0</ele><time>2026-04-25T12:19:24.282Z</time></trkpt><trkpt lat="45.338911" lon="14.2457936"><ele>799.0</ele><time>2026-04-25T12:19:25.271Z</time></trkpt><trkpt lat="45.3387787" lon="14.2457636"><ele>797.0</ele><time>2026-04-25T12:19:26.276Z</time></trkpt><trkpt lat="45.3386337" lon="14.2457311"><ele>795.0</ele><time>2026-04-25T12:19:27.28Z</time></trkpt><trkpt lat="45.3384906" lon="14.2457046"><ele>793.0</ele><time>2026-04-25T12:19:28.281Z</time></trkpt><trkpt lat="45.3383478" lon="14.2456746"><ele>793.0</ele><time>2026-04-25T12:19:29.278Z</time></trkpt><trkpt lat="45.3382072" lon="14.2456361"><ele>793.0</ele><time>2026-04-25T12:19:30.27Z</time></trkpt><trkpt lat="45.3380629" lon="14.2455941"><ele>793.0</ele><time>2026-04-25T12:19:31.268Z</time></trkpt><trkpt lat="45.337913" lon="14.2455625"><ele>793.0</ele><time>2026-04-25T12:19:32.273Z</time></trkpt><trkpt lat="45.3377641" lon="14.2455273"><ele>793.25</ele><time>2026-04-25T12:19:33.28Z</time></trkpt><trkpt lat="45.3376135" lon="14.2454896"><ele>793.5</ele><time>2026-04-25T12:19:34.281Z</time></trkpt><trkpt lat="45.3374683" lon="14.2454521"><ele>793.75</ele><time>2026-04-25T12:19:35.277Z</time></trkpt><trkpt lat="45.3373334" lon="14.2454157"><ele>794.0</ele><time>2026-04-25T12:19:36.271Z</time></trkpt><trkpt lat="45.337203" lon="14.2453837"><ele>789.75</ele><time>2026-04-25T12:19:37.285Z</time></trkpt><trkpt lat="45.3370798" lon="14.2453406"><ele>785.5</ele><time>2026-04-25T12:19:38.293Z</time></trkpt><trkpt lat="45.3369551" lon="14.2452931"><ele>781.25</ele><time>2026-04-25T12:19:39.284Z</time></trkpt><trkpt lat="45.3368366" lon="14.245235"><ele>777.0</ele><time>2026-04-25T12:19:40.273Z</time></trkpt><trkpt lat="45.3367355" lon="14.2451719"><ele>777.0</ele><time>2026-04-25T12:19:41.28Z</time></trkpt><trkpt lat="45.3366426" lon="14.245111"><ele>777.0</ele><time>2026-04-25T12:19:42.293Z</time></trkpt><trkpt lat="45.336548" lon="14.2450387"><ele>777.0</ele><time>2026-04-25T12:19:43.279Z</time></trkpt><trkpt lat="45.3364636" lon="14.2449584"><ele>777.0</ele><time>2026-04-25T12:19:44.281Z</time></trkpt><trkpt lat="45.3363777" lon="14.2448828"><ele>777.0</ele><time>2026-04-25T12:19:45.273Z</time></trkpt><trkpt lat="45.3362937" lon="14.244805"><ele>778.2</ele><time>2026-04-25T12:19:46.272Z</time></trkpt><trkpt lat="45.3362089" lon="14.2447296"><ele>779.4000000000001</ele><time>2026-04-25T12:19:47.274Z</time></trkpt><trkpt lat="45.3361196" lon="14.2446486"><ele>780.5999999999999</ele><time>2026-04-25T12:19:48.28Z</time></trkpt><trkpt lat="45.336031" lon="14.2445626"><ele>781.8</ele><time>2026-04-25T12:19:49.277Z</time></trkpt><trkpt lat="45.335953" lon="14.2444732"><ele>783.0</ele><time>2026-04-25T12:19:50.274Z</time></trkpt><trkpt lat="45.3358842" lon="14.2443814"><ele>783.0</ele><time>2026-04-25T12:19:51.283Z</time></trkpt><trkpt lat="45.3358128" lon="14.2442834"><ele>783.0</ele><time>2026-04-25T12:19:52.276Z</time></trkpt><trkpt lat="45.335736" lon="14.244199"><ele>783.0</ele><time>2026-04-25T12:19:53.274Z</time></trkpt><trkpt lat="45.3356668" lon="14.2441087"><ele>783.0</ele><time>2026-04-25T12:19:54.275Z</time></trkpt><trkpt lat="45.3356059" lon="14.2440257"><ele>783.0</ele><time>2026-04-25T12:19:55.276Z</time></trkpt><trkpt lat="45.3355509" lon="14.2439403"><ele>780.6666666666666</ele><time>2026-04-25T12:19:56.276Z</time></trkpt><trkpt lat="45.33549" lon="14.2438667"><ele>778.3333333333333</ele><time>2026-04-25T12:19:57.284Z</time></trkpt><trkpt lat="45.3354174" lon="14.2438031"><ele>776.0</ele><time>2026-04-25T12:19:58.277Z</time></trkpt><trkpt lat="45.3353474" lon="14.2437426"><ele>773.6666666666666</ele><time>2026-04-25T12:19:59.281Z</time></trkpt><trkpt lat="45.3352728" lon="14.243673"><ele>771.3333333333333</ele><time>2026-04-25T12:20:00.275Z</time></trkpt><trkpt lat="45.3351917" lon="14.2435904"><ele>769.0</ele><time>2026-04-25T12:20:01.279Z</time></trkpt><trkpt lat="45.3351006" lon="14.2434927"><ele>769.0</ele><time>2026-04-25T12:20:02.278Z</time></trkpt><trkpt lat="45.3350052" lon="14.243393"><ele>769.0</ele><time>2026-04-25T12:20:03.273Z</time></trkpt><trkpt lat="45.3349009" lon="14.2432896"><ele>769.0</ele><time>2026-04-25T12:20:04.279Z</time></trkpt><trkpt lat="45.3347952" lon="14.2431807"><ele>769.0</ele><time>2026-04-25T12:20:05.28Z</time></trkpt><trkpt lat="45.3346993" lon="14.2430698"><ele>766.75</ele><time>2026-04-25T12:20:06.283Z</time></trkpt><trkpt lat="45.3346088" lon="14.2429688"><ele>764.5</ele><time>2026-04-25T12:20:07.288Z</time></trkpt><trkpt lat="45.3345235" lon="14.2428743"><ele>762.25</ele><time>2026-04-25T12:20:08.279Z</time></trkpt><trkpt lat="45.3344359" lon="14.2427733"><ele>760.0</ele><time>2026-04-25T12:20:09.273Z</time></trkpt><trkpt lat="45.3343467" lon="14.242666"><ele>760.0</ele><time>2026-04-25T12:20:10.284Z</time></trkpt><trkpt lat="45.3342571" lon="14.2425626"><ele>760.0</ele><time>2026-04-25T12:20:11.28Z</time></trkpt><trkpt lat="45.3341697" lon="14.2424685"><ele>760.0</ele><time>2026-04-25T12:20:12.287Z</time></trkpt><trkpt lat="45.3340832" lon="14.2423858"><ele>760.0</ele><time>2026-04-25T12:20:13.273Z</time></trkpt><trkpt lat="45.3339908" lon="14.2422953"><ele>760.0</ele><time>2026-04-25T12:20:14.27Z</time></trkpt><trkpt lat="45.3339075" lon="14.2421978"><ele>757.6</ele><time>2026-04-25T12:20:15.267Z</time></trkpt><trkpt lat="45.3338253" lon="14.2420953"><ele>755.2</ele><time>2026-04-25T12:20:16.277Z</time></trkpt><trkpt lat="45.3337447" lon="14.2420033"><ele>752.8</ele><time>2026-04-25T12:20:17.265Z</time></trkpt><trkpt lat="45.3336736" lon="14.2419071"><ele>750.4</ele><time>2026-04-25T12:20:18.274Z</time></trkpt><trkpt lat="45.3336018" lon="14.2418186"><ele>748.0</ele><time>2026-04-25T12:20:19.278Z</time></trkpt><trkpt lat="45.3335349" lon="14.2417414"><ele>748.0</ele><time>2026-04-25T12:20:20.269Z</time></trkpt><trkpt lat="45.3334681" lon="14.2416705"><ele>748.0</ele><time>2026-04-25T12:20:21.267Z</time></trkpt><trkpt lat="45.3333927" lon="14.2416094"><ele>748.0</ele><time>2026-04-25T12:20:22.271Z</time></trkpt><trkpt lat="45.3333106" lon="14.2415356"><ele>748.0</ele><time>2026-04-25T12:20:23.266Z</time></trkpt><trkpt lat="45.3332132" lon="14.2414623"><ele>748.0</ele><time>2026-04-25T12:20:24.268Z</time></trkpt><trkpt lat="45.3331179" lon="14.2414002"><ele>749.4</ele><time>2026-04-25T12:20:25.273Z</time></trkpt><trkpt lat="45.3330327" lon="14.2413366"><ele>750.8</ele><time>2026-04-25T12:20:26.269Z</time></trkpt><trkpt lat="45.332944" lon="14.2412781"><ele>752.2</ele><time>2026-04-25T12:20:27.273Z</time></trkpt><trkpt lat="45.3328522" lon="14.2412218"><ele>753.6</ele><time>2026-04-25T12:20:28.269Z</time></trkpt><trkpt lat="45.3327489" lon="14.2411771"><ele>755.0</ele><time>2026-04-25T12:20:29.284Z</time></trkpt><trkpt lat="45.3326376" lon="14.2411458"><ele>755.0</ele><time>2026-04-25T12:20:30.273Z</time></trkpt><trkpt lat="45.332529" lon="14.2411273"><ele>755.0</ele><time>2026-04-25T12:20:31.274Z</time></trkpt><trkpt lat="45.3324267" lon="14.2411173"><ele>755.0</ele><time>2026-04-25T12:20:32.272Z</time></trkpt><trkpt lat="45.3323342" lon="14.2411197"><ele>755.0</ele><time>2026-04-25T12:20:33.278Z</time></trkpt><trkpt lat="45.3322438" lon="14.2411386"><ele>755.0</ele><time>2026-04-25T12:20:34.27Z</time></trkpt><trkpt lat="45.332161" lon="14.2411586"><ele>754.0</ele><time>2026-04-25T12:20:35.28Z</time></trkpt><trkpt lat="45.3320681" lon="14.241184"><ele>753.0</ele><time>2026-04-25T12:20:36.267Z</time></trkpt><trkpt lat="45.331975" lon="14.2411959"><ele>752.0</ele><time>2026-04-25T12:20:37.276Z</time></trkpt><trkpt lat="45.3318678" lon="14.2412175"><ele>751.0</ele><time>2026-04-25T12:20:38.27Z</time></trkpt><trkpt lat="45.3317539" lon="14.2412464"><ele>750.0</ele><time>2026-04-25T12:20:39.273Z</time></trkpt><trkpt lat="45.3316463" lon="14.2412745"><ele>750.0</ele><time>2026-04-25T12:20:40.279Z</time></trkpt><trkpt lat="45.331538" lon="14.2413126"><ele>750.0</ele><time>2026-04-25T12:20:41.278Z</time></trkpt><trkpt lat="45.3314398" lon="14.2413579"><ele>750.0</ele><time>2026-04-25T12:20:42.271Z</time></trkpt><trkpt lat="45.3313464" lon="14.2414141"><ele>750.0</ele><time>2026-04-25T12:20:43.277Z</time></trkpt><trkpt lat="45.3312608" lon="14.2414796"><ele>750.0</ele><time>2026-04-25T12:20:44.273Z</time></trkpt><trkpt lat="45.3311774" lon="14.2415489"><ele>746.4</ele><time>2026-04-25T12:20:45.284Z</time></trkpt><trkpt lat="45.3310975" lon="14.24163"><ele>742.8</ele><time>2026-04-25T12:20:46.271Z</time></trkpt><trkpt lat="45.3310191" lon="14.2417118"><ele>739.2</ele><time>2026-04-25T12:20:47.271Z</time></trkpt><trkpt lat="45.3309406" lon="14.241798"><ele>735.6</ele><time>2026-04-25T12:20:48.275Z</time></trkpt><trkpt lat="45.3308603" lon="14.2418913"><ele>732.0</ele><time>2026-04-25T12:20:49.285Z</time></trkpt><trkpt lat="45.3307807" lon="14.2419845"><ele>732.0</ele><time>2026-04-25T12:20:50.271Z</time></trkpt><trkpt lat="45.3307038" lon="14.2420866"><ele>732.0</ele><time>2026-04-25T12:20:51.273Z</time></trkpt><trkpt lat="45.3306219" lon="14.2422085"><ele>732.0</ele><time>2026-04-25T12:20:52.267Z</time></trkpt><trkpt lat="45.330544" lon="14.242323"><ele>732.0</ele><time>2026-04-25T12:20:53.278Z</time></trkpt><trkpt lat="45.3304671" lon="14.2424311"><ele>732.0</ele><time>2026-04-25T12:20:54.279Z</time></trkpt><trkpt lat="45.3303852" lon="14.2425492"><ele>735.0</ele><time>2026-04-25T12:20:55.266Z</time></trkpt><trkpt lat="45.3303081" lon="14.242667"><ele>738.0</ele><time>2026-04-25T12:20:56.272Z</time></trkpt><trkpt lat="45.3302329" lon="14.242791"><ele>741.0</ele><time>2026-04-25T12:20:57.28Z</time></trkpt><trkpt lat="45.3301598" lon="14.2429112"><ele>744.0</ele><time>2026-04-25T12:20:58.289Z</time></trkpt><trkpt lat="45.3300829" lon="14.2430387"><ele>738.0</ele><time>2026-04-25T12:20:59.276Z</time></trkpt><trkpt lat="45.3300036" lon="14.2431665"><ele>732.0</ele><time>2026-04-25T12:21:00.277Z</time></trkpt><trkpt lat="45.3299248" lon="14.243294"><ele>726.0</ele><time>2026-04-25T12:21:01.269Z</time></trkpt><trkpt lat="45.3298522" lon="14.2434091"><ele>720.0</ele><time>2026-04-25T12:21:02.278Z</time></trkpt><trkpt lat="45.3297748" lon="14.2435309"><ele>721.0</ele><time>2026-04-25T12:21:03.266Z</time></trkpt><trkpt lat="45.3297022" lon="14.2436341"><ele>722.0</ele><time>2026-04-25T12:21:04.267Z</time></trkpt><trkpt lat="45.3296353" lon="14.2437256"><ele>723.0</ele><time>2026-04-25T12:21:05.266Z</time></trkpt><trkpt lat="45.3295776" lon="14.2438144"><ele>724.0</ele><time>2026-04-25T12:21:06.276Z</time></trkpt><trkpt lat="45.3295201" lon="14.2439067"><ele>725.0</ele><time>2026-04-25T12:21:07.266Z</time></trkpt><trkpt lat="45.3294701" lon="14.2439935"><ele>726.0</ele><time>2026-04-25T12:21:08.269Z</time></trkpt><trkpt lat="45.3294144" lon="14.2440791"><ele>726.0</ele><time>2026-04-25T12:21:09.266Z</time></trkpt><trkpt lat="45.3293541" lon="14.2441565"><ele>726.0</ele><time>2026-04-25T12:21:10.274Z</time></trkpt><trkpt lat="45.3292962" lon="14.2442397"><ele>726.0</ele><time>2026-04-25T12:21:11.278Z</time></trkpt><trkpt lat="45.3292352" lon="14.244327"><ele>726.0</ele><time>2026-04-25T12:21:12.278Z</time></trkpt><trkpt lat="45.3291732" lon="14.2444151"><ele>726.0</ele><time>2026-04-25T12:21:13.282Z</time></trkpt><trkpt lat="45.3291176" lon="14.2445104"><ele>726.0</ele><time>2026-04-25T12:21:14.277Z</time></trkpt><trkpt lat="45.3290739" lon="14.2446236"><ele>726.0</ele><time>2026-04-25T12:21:15.271Z</time></trkpt><trkpt lat="45.3290347" lon="14.2447485"><ele>726.0</ele><time>2026-04-25T12:21:16.269Z</time></trkpt><trkpt lat="45.3289972" lon="14.24487"><ele>726.0</ele><time>2026-04-25T12:21:17.274Z</time></trkpt><trkpt lat="45.3289607" lon="14.2449936"><ele>726.0</ele><time>2026-04-25T12:21:18.276Z</time></trkpt><trkpt lat="45.3289295" lon="14.2451251"><ele>726.0</ele><time>2026-04-25T12:21:19.276Z</time></trkpt><trkpt lat="45.3288985" lon="14.2452467"><ele>727.0</ele><time>2026-04-25T12:21:20.272Z</time></trkpt><trkpt lat="45.3288648" lon="14.2453608"><ele>728.0</ele><time>2026-04-25T12:21:21.284Z</time></trkpt><trkpt lat="45.3288304" lon="14.2454678"><ele>729.0</ele><time>2026-04-25T12:21:22.268Z</time></trkpt><trkpt lat="45.3287956" lon="14.2455744"><ele>730.0</ele><time>2026-04-25T12:21:23.273Z</time></trkpt><trkpt lat="45.3287431" lon="14.2456828"><ele>731.0</ele><time>2026-04-25T12:21:24.269Z</time></trkpt><trkpt lat="45.328685" lon="14.2457857"><ele>732.0</ele><time>2026-04-25T12:21:25.273Z</time></trkpt><trkpt lat="45.328622" lon="14.2458733"><ele>726.8333333333334</ele><time>2026-04-25T12:21:26.283Z</time></trkpt><trkpt lat="45.3285559" lon="14.2459583"><ele>721.6666666666666</ele><time>2026-04-25T12:21:27.268Z</time></trkpt><trkpt lat="45.328489" lon="14.2460377"><ele>716.5</ele><time>2026-04-25T12:21:28.282Z</time></trkpt><trkpt lat="45.3284232" lon="14.2461042"><ele>711.3333333333333</ele><time>2026-04-25T12:21:29.269Z</time></trkpt><trkpt lat="45.3283533" lon="14.2461597"><ele>706.1666666666666</ele><time>2026-04-25T12:21:30.275Z</time></trkpt><trkpt lat="45.3282787" lon="14.2461964"><ele>701.0</ele><time>2026-04-25T12:21:31.282Z</time></trkpt><trkpt lat="45.3281994" lon="14.2462379"><ele>701.0</ele><time>2026-04-25T12:21:32.28Z</time></trkpt><trkpt lat="45.3281119" lon="14.2462824"><ele>701.0</ele><time>2026-04-25T12:21:33.281Z</time></trkpt><trkpt lat="45.3280191" lon="14.2463209"><ele>701.0</ele><time>2026-04-25T12:21:34.278Z</time></trkpt><trkpt lat="45.3279166" lon="14.2463539"><ele>701.0</ele><time>2026-04-25T12:21:35.278Z</time></trkpt><trkpt lat="45.327815" lon="14.2463893"><ele>701.0</ele><time>2026-04-25T12:21:36.273Z</time></trkpt><trkpt lat="45.3277074" lon="14.2464347"><ele>698.1999999999999</ele><time>2026-04-25T12:21:37.282Z</time></trkpt><trkpt lat="45.3275973" lon="14.2464725"><ele>695.4</ele><time>2026-04-25T12:21:38.276Z</time></trkpt><trkpt lat="45.3274919" lon="14.246502"><ele>692.6</ele><time>2026-04-25T12:21:39.281Z</time></trkpt><trkpt lat="45.3273886" lon="14.2465314"><ele>689.8</ele><time>2026-04-25T12:21:40.289Z</time></trkpt><trkpt lat="45.3272973" lon="14.246552"><ele>687.0</ele><time>2026-04-25T12:21:41.283Z</time></trkpt><trkpt lat="45.3272064" lon="14.2465748"><ele>687.0</ele><time>2026-04-25T12:21:42.279Z</time></trkpt><trkpt lat="45.3271163" lon="14.2466021"><ele>687.0</ele><time>2026-04-25T12:21:43.287Z</time></trkpt><trkpt lat="45.3270145" lon="14.2466414"><ele>687.0</ele><time>2026-04-25T12:21:44.283Z</time></trkpt><trkpt lat="45.3269063" lon="14.2466696"><ele>687.0</ele><time>2026-04-25T12:21:45.274Z</time></trkpt><trkpt lat="45.3268033" lon="14.2467012"><ele>687.0</ele><time>2026-04-25T12:21:46.273Z</time></trkpt><trkpt lat="45.3267027" lon="14.2467334"><ele>687.0</ele><time>2026-04-25T12:21:47.283Z</time></trkpt><trkpt lat="45.3266076" lon="14.2467624"><ele>687.0</ele><time>2026-04-25T12:21:48.268Z</time></trkpt><trkpt lat="45.3265203" lon="14.2467877"><ele>687.0</ele><time>2026-04-25T12:21:49.281Z</time></trkpt><trkpt lat="45.3264383" lon="14.2467999"><ele>687.0</ele><time>2026-04-25T12:21:50.27Z</time></trkpt><trkpt lat="45.3263532" lon="14.2468198"><ele>687.0</ele><time>2026-04-25T12:21:51.282Z</time></trkpt><trkpt lat="45.3262666" lon="14.2468469"><ele>687.0</ele><time>2026-04-25T12:21:52.285Z</time></trkpt><trkpt lat="45.326178" lon="14.2468829"><ele>685.6666666666666</ele><time>2026-04-25T12:21:53.281Z</time></trkpt><trkpt lat="45.3260884" lon="14.2469002"><ele>684.3333333333334</ele><time>2026-04-25T12:21:54.287Z</time></trkpt><trkpt lat="45.3259983" lon="14.2469198"><ele>683.0</ele><time>2026-04-25T12:21:55.278Z</time></trkpt><trkpt lat="45.3259095" lon="14.2469286"><ele>681.6666666666667</ele><time>2026-04-25T12:21:56.288Z</time></trkpt><trkpt lat="45.3258228" lon="14.2469274"><ele>680.3333333333334</ele><time>2026-04-25T12:21:57.278Z</time></trkpt><trkpt lat="45.3257389" lon="14.2469092"><ele>679.0</ele><time>2026-04-25T12:21:58.275Z</time></trkpt><trkpt lat="45.325645" lon="14.2468838"><ele>677.0</ele><time>2026-04-25T12:21:59.279Z</time></trkpt><trkpt lat="45.3255482" lon="14.2468631"><ele>675.0</ele><time>2026-04-25T12:22:00.287Z</time></trkpt><trkpt lat="45.3254529" lon="14.2468397"><ele>673.0</ele><time>2026-04-25T12:22:01.274Z</time></trkpt><trkpt lat="45.3253694" lon="14.2468157"><ele>671.0</ele><time>2026-04-25T12:22:02.275Z</time></trkpt><trkpt lat="45.3252949" lon="14.2467891"><ele>669.0</ele><time>2026-04-25T12:22:03.284Z</time></trkpt><trkpt lat="45.325222" lon="14.2467492"><ele>667.0</ele><time>2026-04-25T12:22:04.285Z</time></trkpt><trkpt lat="45.3251504" lon="14.2466945"><ele>667.0</ele><time>2026-04-25T12:22:05.279Z</time></trkpt><trkpt lat="45.3250813" lon="14.246624"><ele>667.0</ele><time>2026-04-25T12:22:06.271Z</time></trkpt><trkpt lat="45.3250199" lon="14.2465295"><ele>667.0</ele><time>2026-04-25T12:22:07.279Z</time></trkpt><trkpt lat="45.324958" lon="14.2464257"><ele>667.0</ele><time>2026-04-25T12:22:08.277Z</time></trkpt><trkpt lat="45.3248925" lon="14.2463184"><ele>667.0</ele><time>2026-04-25T12:22:09.275Z</time></trkpt><trkpt lat="45.3248303" lon="14.2462156"><ele>667.1666666666667</ele><time>2026-04-25T12:22:10.271Z</time></trkpt><trkpt lat="45.3247707" lon="14.2461171"><ele>667.3333333333334</ele><time>2026-04-25T12:22:11.28Z</time></trkpt><trkpt lat="45.3247056" lon="14.2460252"><ele>667.5</ele><time>2026-04-25T12:22:12.283Z</time></trkpt><trkpt lat="45.3246466" lon="14.2459437"><ele>667.6666666666666</ele><time>2026-04-25T12:22:13.273Z</time></trkpt><trkpt lat="45.3245928" lon="14.2458653"><ele>667.8333333333333</ele><time>2026-04-25T12:22:14.27Z</time></trkpt><trkpt lat="45.3245428" lon="14.2457933"><ele>668.0</ele><time>2026-04-25T12:22:15.279Z</time></trkpt><trkpt lat="45.3244883" lon="14.2457327"><ele>668.0</ele><time>2026-04-25T12:22:16.271Z</time></trkpt><trkpt lat="45.3244361" lon="14.2456736"><ele>668.0</ele><time>2026-04-25T12:22:17.267Z</time></trkpt><trkpt lat="45.3243505" lon="14.2456054"><ele>668.0</ele><time>2026-04-25T12:22:19.271Z</time></trkpt><trkpt lat="45.3242821" lon="14.2455825"><ele>668.0</ele><time>2026-04-25T12:22:21.272Z</time></trkpt><trkpt lat="45.3242449" lon="14.245678"><ele>668.0</ele><time>2026-04-25T12:22:24.268Z</time></trkpt><trkpt lat="45.3242479" lon="14.2458227"><ele>668.0</ele><time>2026-04-25T12:22:29.277Z</time></trkpt><trkpt lat="45.3242673" lon="14.2459207"><ele>668.0</ele><time>2026-04-25T12:22:30.271Z</time></trkpt><trkpt lat="45.3243111" lon="14.2460059"><ele>668.0</ele><time>2026-04-25T12:22:31.277Z</time></trkpt><trkpt lat="45.3243657" lon="14.2460876"><ele>668.0</ele><time>2026-04-25T12:22:32.281Z</time></trkpt><trkpt lat="45.3244404" lon="14.246172"><ele>668.0</ele><time>2026-04-25T12:22:33.286Z</time></trkpt><trkpt lat="45.3245247" lon="14.2462619"><ele>668.0</ele><time>2026-04-25T12:22:34.278Z</time></trkpt><trkpt lat="45.3245997" lon="14.2463684"><ele>667.8</ele><time>2026-04-25T12:22:35.288Z</time></trkpt><trkpt lat="45.324646" lon="14.2464913"><ele>667.5999999999999</ele><time>2026-04-25T12:22:36.27Z</time></trkpt><trkpt lat="45.3246766" lon="14.2466393"><ele>667.4000000000001</ele><time>2026-04-25T12:22:37.273Z</time></trkpt><trkpt lat="45.3247023" lon="14.246806"><ele>667.2</ele><time>2026-04-25T12:22:38.278Z</time></trkpt><trkpt lat="45.324725" lon="14.2469694"><ele>667.0</ele><time>2026-04-25T12:22:39.274Z</time></trkpt><trkpt lat="45.3247646" lon="14.2471056"><ele>667.0</ele><time>2026-04-25T12:22:40.283Z</time></trkpt><trkpt lat="45.3248272" lon="14.2472269"><ele>667.0</ele><time>2026-04-25T12:22:41.271Z</time></trkpt><trkpt lat="45.3249069" lon="14.2473183"><ele>667.0</ele><time>2026-04-25T12:22:42.271Z</time></trkpt><trkpt lat="45.3250113" lon="14.2473801"><ele>667.0</ele><time>2026-04-25T12:22:43.271Z</time></trkpt><trkpt lat="45.3251249" lon="14.2474091"><ele>667.0</ele><time>2026-04-25T12:22:44.272Z</time></trkpt><trkpt lat="45.3252341" lon="14.2474125"><ele>662.5</ele><time>2026-04-25T12:22:45.267Z</time></trkpt><trkpt lat="45.3253434" lon="14.2474038"><ele>658.0</ele><time>2026-04-25T12:22:46.27Z</time></trkpt><trkpt lat="45.3254608" lon="14.2474283"><ele>653.5</ele><time>2026-04-25T12:22:47.288Z</time></trkpt><trkpt lat="45.3255912" lon="14.2474767"><ele>649.0</ele><time>2026-04-25T12:22:48.272Z</time></trkpt><trkpt lat="45.3257129" lon="14.2475391"><ele>649.0</ele><time>2026-04-25T12:22:49.275Z</time></trkpt><trkpt lat="45.3258189" lon="14.2476212"><ele>649.0</ele><time>2026-04-25T12:22:50.269Z</time></trkpt><trkpt lat="45.3259132" lon="14.2477122"><ele>649.0</ele><time>2026-04-25T12:22:51.274Z</time></trkpt><trkpt lat="45.3260081" lon="14.2477982"><ele>649.0</ele><time>2026-04-25T12:22:52.276Z</time></trkpt><trkpt lat="45.3261136" lon="14.2478484"><ele>649.0</ele><time>2026-04-25T12:22:53.297Z</time></trkpt><trkpt lat="45.326241" lon="14.2478445"><ele>649.0</ele><time>2026-04-25T12:22:54.272Z</time></trkpt><trkpt lat="45.3263724" lon="14.2478403"><ele>649.0</ele><time>2026-04-25T12:22:55.277Z</time></trkpt><trkpt lat="45.3265219" lon="14.2478263"><ele>649.0</ele><time>2026-04-25T12:22:56.281Z</time></trkpt><trkpt lat="45.3266746" lon="14.2478115"><ele>650.0</ele><time>2026-04-25T12:22:57.28Z</time></trkpt><trkpt lat="45.3268318" lon="14.2478165"><ele>651.0</ele><time>2026-04-25T12:22:58.282Z</time></trkpt><trkpt lat="45.3269951" lon="14.2478209"><ele>652.0</ele><time>2026-04-25T12:22:59.271Z</time></trkpt><trkpt lat="45.3271531" lon="14.2478212"><ele>651.0</ele><time>2026-04-25T12:23:00.284Z</time></trkpt><trkpt lat="45.3273118" lon="14.2478021"><ele>650.0</ele><time>2026-04-25T12:23:01.273Z</time></trkpt><trkpt lat="45.3274599" lon="14.2477857"><ele>649.0</ele><time>2026-04-25T12:23:02.276Z</time></trkpt><trkpt lat="45.3276045" lon="14.2477694"><ele>649.0</ele><time>2026-04-25T12:23:03.281Z</time></trkpt><trkpt lat="45.3277498" lon="14.2477584"><ele>649.0</ele><time>2026-04-25T12:23:04.274Z</time></trkpt><trkpt lat="45.3278943" lon="14.2477588"><ele>649.0</ele><time>2026-04-25T12:23:05.281Z</time></trkpt><trkpt lat="45.3280332" lon="14.2478003"><ele>649.0</ele><time>2026-04-25T12:23:06.266Z</time></trkpt><trkpt lat="45.3281831" lon="14.247869"><ele>649.25</ele><time>2026-04-25T12:23:07.267Z</time></trkpt><trkpt lat="45.3283271" lon="14.2479482"><ele>649.5</ele><time>2026-04-25T12:23:08.276Z</time></trkpt><trkpt lat="45.3284712" lon="14.2480259"><ele>649.75</ele><time>2026-04-25T12:23:09.272Z</time></trkpt><trkpt lat="45.3285983" lon="14.248095"><ele>650.0</ele><time>2026-04-25T12:23:10.272Z</time></trkpt><trkpt lat="45.3287227" lon="14.2481551"><ele>643.25</ele><time>2026-04-25T12:23:11.277Z</time></trkpt><trkpt lat="45.3288335" lon="14.2481989"><ele>636.5</ele><time>2026-04-25T12:23:12.285Z</time></trkpt><trkpt lat="45.3289478" lon="14.2482291"><ele>629.75</ele><time>2026-04-25T12:23:13.272Z</time></trkpt><trkpt lat="45.3290618" lon="14.2482559"><ele>623.0</ele><time>2026-04-25T12:23:14.274Z</time></trkpt><trkpt lat="45.3291663" lon="14.2482956"><ele>623.0</ele><time>2026-04-25T12:23:15.284Z</time></trkpt><trkpt lat="45.3292725" lon="14.2483746"><ele>623.0</ele><time>2026-04-25T12:23:16.27Z</time></trkpt><trkpt lat="45.3293861" lon="14.2484905"><ele>623.0</ele><time>2026-04-25T12:23:17.282Z</time></trkpt><trkpt lat="45.3294969" lon="14.2486192"><ele>623.0</ele><time>2026-04-25T12:23:18.274Z</time></trkpt><trkpt lat="45.329602" lon="14.2487457"><ele>623.0</ele><time>2026-04-25T12:23:19.269Z</time></trkpt><trkpt lat="45.3296932" lon="14.2488689"><ele>623.0</ele><time>2026-04-25T12:23:20.268Z</time></trkpt><trkpt lat="45.3297882" lon="14.2489854"><ele>623.0</ele><time>2026-04-25T12:23:21.285Z</time></trkpt><trkpt lat="45.329892" lon="14.2490963"><ele>623.0</ele><time>2026-04-25T12:23:22.276Z</time></trkpt><trkpt lat="45.3299969" lon="14.2491846"><ele>617.75</ele><time>2026-04-25T12:23:23.28Z</time></trkpt><trkpt lat="45.330103" lon="14.2492365"><ele>612.5</ele><time>2026-04-25T12:23:24.283Z</time></trkpt><trkpt lat="45.3302228" lon="14.2492107"><ele>607.25</ele><time>2026-04-25T12:23:25.28Z</time></trkpt><trkpt lat="45.3303291" lon="14.249151"><ele>602.0</ele><time>2026-04-25T12:23:26.285Z</time></trkpt><trkpt lat="45.3304336" lon="14.2490908"><ele>602.0</ele><time>2026-04-25T12:23:27.268Z</time></trkpt><trkpt lat="45.3305326" lon="14.2490423"><ele>602.0</ele><time>2026-04-25T12:23:28.279Z</time></trkpt><trkpt lat="45.3306256" lon="14.2490067"><ele>602.0</ele><time>2026-04-25T12:23:29.275Z</time></trkpt><trkpt lat="45.3307158" lon="14.2490084"><ele>602.0</ele><time>2026-04-25T12:23:30.272Z</time></trkpt><trkpt lat="45.3307912" lon="14.2490641"><ele>602.0</ele><time>2026-04-25T12:23:31.273Z</time></trkpt><trkpt lat="45.3308412" lon="14.2491593"><ele>603.25</ele><time>2026-04-25T12:23:32.268Z</time></trkpt><trkpt lat="45.3308665" lon="14.2493008"><ele>604.5</ele><time>2026-04-25T12:23:33.276Z</time></trkpt><trkpt lat="45.3308741" lon="14.2494772"><ele>605.75</ele><time>2026-04-25T12:23:34.269Z</time></trkpt><trkpt lat="45.3308812" lon="14.2496786"><ele>607.0</ele><time>2026-04-25T12:23:35.27Z</time></trkpt><trkpt lat="45.3308993" lon="14.2498834"><ele>602.75</ele><time>2026-04-25T12:23:36.275Z</time></trkpt><trkpt lat="45.3309451" lon="14.250068"><ele>598.5</ele><time>2026-04-25T12:23:37.278Z</time></trkpt><trkpt lat="45.3310198" lon="14.2502456"><ele>594.25</ele><time>2026-04-25T12:23:38.275Z</time></trkpt><trkpt lat="45.331112" lon="14.2504259"><ele>590.0</ele><time>2026-04-25T12:23:39.279Z</time></trkpt><trkpt lat="45.3312057" lon="14.2505844"><ele>592.25</ele><time>2026-04-25T12:23:40.28Z</time></trkpt><trkpt lat="45.331292" lon="14.2507266"><ele>594.5</ele><time>2026-04-25T12:23:41.277Z</time></trkpt><trkpt lat="45.3313728" lon="14.2508772"><ele>596.75</ele><time>2026-04-25T12:23:42.274Z</time></trkpt><trkpt lat="45.3314471" lon="14.2510198"><ele>599.0</ele><time>2026-04-25T12:23:43.28Z</time></trkpt><trkpt lat="45.331516" lon="14.2511587"><ele>599.0</ele><time>2026-04-25T12:23:44.275Z</time></trkpt><trkpt lat="45.3315758" lon="14.2512803"><ele>599.0</ele><time>2026-04-25T12:23:45.276Z</time></trkpt><trkpt lat="45.3316364" lon="14.2514094"><ele>599.0</ele><time>2026-04-25T12:23:46.279Z</time></trkpt><trkpt lat="45.3316953" lon="14.2515305"><ele>599.0</ele><time>2026-04-25T12:23:47.272Z</time></trkpt><trkpt lat="45.3317564" lon="14.2516648"><ele>599.0</ele><time>2026-04-25T12:23:48.296Z</time></trkpt><trkpt lat="45.3318274" lon="14.2517927"><ele>595.2</ele><time>2026-04-25T12:23:49.272Z</time></trkpt><trkpt lat="45.3318943" lon="14.2519251"><ele>591.4</ele><time>2026-04-25T12:23:50.276Z</time></trkpt><trkpt lat="45.3319623" lon="14.2520551"><ele>587.6</ele><time>2026-04-25T12:23:51.274Z</time></trkpt><trkpt lat="45.332026" lon="14.2521796"><ele>583.8</ele><time>2026-04-25T12:23:52.276Z</time></trkpt><trkpt lat="45.3320899" lon="14.2522928"><ele>580.0</ele><time>2026-04-25T12:23:53.29Z</time></trkpt><trkpt lat="45.3321519" lon="14.2524034"><ele>582.0</ele><time>2026-04-25T12:23:54.28Z</time></trkpt><trkpt lat="45.332214" lon="14.2525156"><ele>584.0</ele><time>2026-04-25T12:23:55.284Z</time></trkpt><trkpt lat="45.332285" lon="14.2526366"><ele>586.0</ele><time>2026-04-25T12:23:56.284Z</time></trkpt><trkpt lat="45.3323643" lon="14.2527747"><ele>588.0</ele><time>2026-04-25T12:23:57.296Z</time></trkpt><trkpt lat="45.3324502" lon="14.2529215"><ele>588.0</ele><time>2026-04-25T12:23:58.283Z</time></trkpt><trkpt lat="45.3325443" lon="14.253072"><ele>588.0</ele><time>2026-04-25T12:23:59.296Z</time></trkpt><trkpt lat="45.3326497" lon="14.2532117"><ele>588.0</ele><time>2026-04-25T12:24:00.286Z</time></trkpt><trkpt lat="45.3327655" lon="14.2533285"><ele>588.0</ele><time>2026-04-25T12:24:01.282Z</time></trkpt><trkpt lat="45.3328712" lon="14.2534237"><ele>590.0</ele><time>2026-04-25T12:24:02.282Z</time></trkpt><trkpt lat="45.3329841" lon="14.2535189"><ele>592.0</ele><time>2026-04-25T12:24:03.288Z</time></trkpt><trkpt lat="45.3330812" lon="14.2536278"><ele>594.0</ele><time>2026-04-25T12:24:04.28Z</time></trkpt><trkpt lat="45.3331525" lon="14.2537646"><ele>596.0</ele><time>2026-04-25T12:24:05.278Z</time></trkpt><trkpt lat="45.3332057" lon="14.2539085"><ele>592.4</ele><time>2026-04-25T12:24:06.272Z</time></trkpt><trkpt lat="45.3332476" lon="14.2540464"><ele>588.8</ele><time>2026-04-25T12:24:07.287Z</time></trkpt><trkpt lat="45.3332858" lon="14.2541712"><ele>585.1999999999999</ele><time>2026-04-25T12:24:08.279Z</time></trkpt><trkpt lat="45.3333247" lon="14.2542924"><ele>581.6</ele><time>2026-04-25T12:24:09.289Z</time></trkpt><trkpt lat="45.3333669" lon="14.2544135"><ele>578.0</ele><time>2026-04-25T12:24:10.289Z</time></trkpt><trkpt lat="45.333402" lon="14.2545394"><ele>578.0</ele><time>2026-04-25T12:24:11.284Z</time></trkpt><trkpt lat="45.3334254" lon="14.2546721"><ele>578.0</ele><time>2026-04-25T12:24:12.271Z</time></trkpt><trkpt lat="45.3334324" lon="14.2548067"><ele>578.0</ele><time>2026-04-25T12:24:13.274Z</time></trkpt><trkpt lat="45.3334335" lon="14.2549296"><ele>578.0</ele><time>2026-04-25T12:24:14.289Z</time></trkpt><trkpt lat="45.3334309" lon="14.2550685"><ele>578.0</ele><time>2026-04-25T12:24:15.29Z</time></trkpt><trkpt lat="45.3334316" lon="14.2552035"><ele>576.1999999999999</ele><time>2026-04-25T12:24:16.287Z</time></trkpt><trkpt lat="45.3334594" lon="14.2553372"><ele>574.4</ele><time>2026-04-25T12:24:17.271Z</time></trkpt><trkpt lat="45.3335123" lon="14.2554689"><ele>572.5999999999999</ele><time>2026-04-25T12:24:18.272Z</time></trkpt><trkpt lat="45.3335813" lon="14.2556034"><ele>570.8</ele><time>2026-04-25T12:24:19.28Z</time></trkpt><trkpt lat="45.3336511" lon="14.2557471"><ele>569.0</ele><time>2026-04-25T12:24:20.28Z</time></trkpt><trkpt lat="45.333723" lon="14.2559019"><ele>567.5</ele><time>2026-04-25T12:24:21.278Z</time></trkpt><trkpt lat="45.3338" lon="14.2560521"><ele>566.0</ele><time>2026-04-25T12:24:22.281Z</time></trkpt><trkpt lat="45.3338783" lon="14.2561735"><ele>564.5</ele><time>2026-04-25T12:24:23.271Z</time></trkpt><trkpt lat="45.3339751" lon="14.2562694"><ele>563.0</ele><time>2026-04-25T12:24:24.283Z</time></trkpt><trkpt lat="45.3340757" lon="14.2563605"><ele>563.5</ele><time>2026-04-25T12:24:25.284Z</time></trkpt><trkpt lat="45.3341545" lon="14.2564794"><ele>564.0</ele><time>2026-04-25T12:24:26.281Z</time></trkpt><trkpt lat="45.3342038" lon="14.2566404"><ele>564.5</ele><time>2026-04-25T12:24:27.283Z</time></trkpt><trkpt lat="45.3342306" lon="14.2568232"><ele>565.0</ele><time>2026-04-25T12:24:28.285Z</time></trkpt><trkpt lat="45.3342462" lon="14.2570026"><ele>565.0</ele><time>2026-04-25T12:24:29.281Z</time></trkpt><trkpt lat="45.3342808" lon="14.2571786"><ele>565.0</ele><time>2026-04-25T12:24:30.285Z</time></trkpt><trkpt lat="45.3343401" lon="14.2573362"><ele>565.0</ele><time>2026-04-25T12:24:31.286Z</time></trkpt><trkpt lat="45.3344238" lon="14.2574936"><ele>565.0</ele><time>2026-04-25T12:24:32.29Z</time></trkpt><trkpt lat="45.3345282" lon="14.2576596"><ele>563.6666666666667</ele><time>2026-04-25T12:24:33.285Z</time></trkpt><trkpt lat="45.3346407" lon="14.2578176"><ele>562.3333333333334</ele><time>2026-04-25T12:24:34.279Z</time></trkpt><trkpt lat="45.3347449" lon="14.2579853"><ele>561.0</ele><time>2026-04-25T12:24:35.293Z</time></trkpt><trkpt lat="45.3348374" lon="14.2581619"><ele>561.0</ele><time>2026-04-25T12:24:36.284Z</time></trkpt><trkpt lat="45.3349082" lon="14.2583543"><ele>561.0</ele><time>2026-04-25T12:24:37.286Z</time></trkpt><trkpt lat="45.3349632" lon="14.2585691"><ele>561.0</ele><time>2026-04-25T12:24:38.284Z</time></trkpt><trkpt lat="45.3350028" lon="14.2587995"><ele>559.0</ele><time>2026-04-25T12:24:39.282Z</time></trkpt><trkpt lat="45.3350386" lon="14.2590006"><ele>557.0</ele><time>2026-04-25T12:24:40.285Z</time></trkpt><trkpt lat="45.3350786" lon="14.2591852"><ele>555.0</ele><time>2026-04-25T12:24:41.292Z</time></trkpt><trkpt lat="45.3351413" lon="14.259338"><ele>553.0</ele><time>2026-04-25T12:24:42.29Z</time></trkpt><trkpt lat="45.3352294" lon="14.2594423"><ele>553.0</ele><time>2026-04-25T12:24:43.284Z</time></trkpt><trkpt lat="45.3353424" lon="14.259507"><ele>553.0</ele><time>2026-04-25T12:24:44.277Z</time></trkpt><trkpt lat="45.3354661" lon="14.2595445"><ele>553.0</ele><time>2026-04-25T12:24:45.275Z</time></trkpt><trkpt lat="45.3355772" lon="14.2595544"><ele>553.0</ele><time>2026-04-25T12:24:46.286Z</time></trkpt><trkpt lat="45.3356801" lon="14.2595687"><ele>553.1999999999999</ele><time>2026-04-25T12:24:47.281Z</time></trkpt><trkpt lat="45.3357654" lon="14.2596135"><ele>553.4</ele><time>2026-04-25T12:24:48.284Z</time></trkpt><trkpt lat="45.3358035" lon="14.2597316"><ele>553.5999999999999</ele><time>2026-04-25T12:24:49.275Z</time></trkpt><trkpt lat="45.3358056" lon="14.2598763"><ele>553.8</ele><time>2026-04-25T12:24:50.285Z</time></trkpt><trkpt lat="45.335769" lon="14.2600207"><ele>554.0</ele><time>2026-04-25T12:24:51.27Z</time></trkpt><trkpt lat="45.3357227" lon="14.2602016"><ele>554.0</ele><time>2026-04-25T12:24:52.28Z</time></trkpt><trkpt lat="45.3357152" lon="14.2603889"><ele>554.0</ele><time>2026-04-25T12:24:53.276Z</time></trkpt><trkpt lat="45.3357611" lon="14.2605797"><ele>554.0</ele><time>2026-04-25T12:24:54.274Z</time></trkpt><trkpt lat="45.3358391" lon="14.2607599"><ele>554.0</ele><time>2026-04-25T12:24:55.28Z</time></trkpt><trkpt lat="45.3359402" lon="14.2608975"><ele>551.25</ele><time>2026-04-25T12:24:56.279Z</time></trkpt><trkpt lat="45.336075" lon="14.2609971"><ele>548.5</ele><time>2026-04-25T12:24:57.284Z</time></trkpt><trkpt lat="45.3362026" lon="14.2610688"><ele>545.75</ele><time>2026-04-25T12:24:58.279Z</time></trkpt><trkpt lat="45.3363242" lon="14.2611082"><ele>543.0</ele><time>2026-04-25T12:24:59.297Z</time></trkpt><trkpt lat="45.3364408" lon="14.2611343"><ele>545.8</ele><time>2026-04-25T12:25:00.286Z</time></trkpt><trkpt lat="45.3365494" lon="14.2611707"><ele>548.5999999999999</ele><time>2026-04-25T12:25:01.29Z</time></trkpt><trkpt lat="45.3366252" lon="14.2612308"><ele>551.4000000000001</ele><time>2026-04-25T12:25:02.283Z</time></trkpt><trkpt lat="45.3366603" lon="14.2613513"><ele>554.2</ele><time>2026-04-25T12:25:03.284Z</time></trkpt><trkpt lat="45.3366595" lon="14.2614912"><ele>557.0</ele><time>2026-04-25T12:25:04.271Z</time></trkpt><trkpt lat="45.3366145" lon="14.2616374"><ele>557.0</ele><time>2026-04-25T12:25:05.276Z</time></trkpt><trkpt lat="45.3365314" lon="14.261763"><ele>557.0</ele><time>2026-04-25T12:25:06.291Z</time></trkpt><trkpt lat="45.3364379" lon="14.2618927"><ele>557.0</ele><time>2026-04-25T12:25:07.273Z</time></trkpt><trkpt lat="45.3363346" lon="14.2620216"><ele>557.0</ele><time>2026-04-25T12:25:08.277Z</time></trkpt><trkpt lat="45.3362264" lon="14.262164"><ele>553.0</ele><time>2026-04-25T12:25:09.281Z</time></trkpt><trkpt lat="45.3361116" lon="14.2623086"><ele>549.0</ele><time>2026-04-25T12:25:10.284Z</time></trkpt><trkpt lat="45.3359884" lon="14.2624682"><ele>545.0</ele><time>2026-04-25T12:25:11.275Z</time></trkpt><trkpt lat="45.3358701" lon="14.2626195"><ele>545.0</ele><time>2026-04-25T12:25:12.285Z</time></trkpt><trkpt lat="45.3357508" lon="14.2627635"><ele>545.0</ele><time>2026-04-25T12:25:13.293Z</time></trkpt><trkpt lat="45.3356365" lon="14.2629071"><ele>545.0</ele><time>2026-04-25T12:25:14.287Z</time></trkpt><trkpt lat="45.3355429" lon="14.2630782"><ele>542.3333333333333</ele><time>2026-04-25T12:25:15.294Z</time></trkpt><trkpt lat="45.3354638" lon="14.2632939"><ele>539.6666666666666</ele><time>2026-04-25T12:25:16.29Z</time></trkpt><trkpt lat="45.3353925" lon="14.2635421"><ele>537.0</ele><time>2026-04-25T12:25:17.298Z</time></trkpt><trkpt lat="45.3353182" lon="14.263786"><ele>537.3333333333334</ele><time>2026-04-25T12:25:18.28Z</time></trkpt><trkpt lat="45.335242" lon="14.2640184"><ele>537.6666666666667</ele><time>2026-04-25T12:25:19.287Z</time></trkpt><trkpt lat="45.3351663" lon="14.264247"><ele>538.0</ele><time>2026-04-25T12:25:20.279Z</time></trkpt><trkpt lat="45.3350964" lon="14.2644663"><ele>538.0</ele><time>2026-04-25T12:25:21.29Z</time></trkpt><trkpt lat="45.3350216" lon="14.2646657"><ele>538.0</ele><time>2026-04-25T12:25:22.287Z</time></trkpt><trkpt lat="45.3349407" lon="14.264846"><ele>538.0</ele><time>2026-04-25T12:25:23.277Z</time></trkpt><trkpt lat="45.3348591" lon="14.2650091"><ele>538.0</ele><time>2026-04-25T12:25:24.284Z</time></trkpt><trkpt lat="45.3347818" lon="14.2651684"><ele>538.0</ele><time>2026-04-25T12:25:25.288Z</time></trkpt><trkpt lat="45.3347163" lon="14.2653296"><ele>538.0</ele><time>2026-04-25T12:25:26.286Z</time></trkpt><trkpt lat="45.3346878" lon="14.2654929"><ele>538.0</ele><time>2026-04-25T12:25:27.284Z</time></trkpt><trkpt lat="45.3347077" lon="14.2656789"><ele>537.6666666666667</ele><time>2026-04-25T12:25:28.283Z</time></trkpt><trkpt lat="45.3347573" lon="14.2658769"><ele>537.3333333333334</ele><time>2026-04-25T12:25:29.29Z</time></trkpt><trkpt lat="45.3348226" lon="14.2660676"><ele>537.0</ele><time>2026-04-25T12:25:30.283Z</time></trkpt><trkpt lat="45.3348878" lon="14.2662831"><ele>533.3333333333334</ele><time>2026-04-25T12:25:31.282Z</time></trkpt><trkpt lat="45.334947" lon="14.2665097"><ele>529.6666666666667</ele><time>2026-04-25T12:25:32.283Z</time></trkpt><trkpt lat="45.3350157" lon="14.2667304"><ele>526.0</ele><time>2026-04-25T12:25:33.274Z</time></trkpt><trkpt lat="45.3350884" lon="14.2669367"><ele>526.0</ele><time>2026-04-25T12:25:34.293Z</time></trkpt><trkpt lat="45.335174" lon="14.2671362"><ele>526.0</ele><time>2026-04-25T12:25:35.298Z</time></trkpt><trkpt lat="45.3352623" lon="14.2673264"><ele>526.0</ele><time>2026-04-25T12:25:36.278Z</time></trkpt><trkpt lat="45.3353476" lon="14.267499"><ele>525.75</ele><time>2026-04-25T12:25:37.297Z</time></trkpt><trkpt lat="45.3354449" lon="14.2676497"><ele>525.5</ele><time>2026-04-25T12:25:38.284Z</time></trkpt><trkpt lat="45.3355514" lon="14.2677721"><ele>525.25</ele><time>2026-04-25T12:25:39.284Z</time></trkpt><trkpt lat="45.3356634" lon="14.2678627"><ele>525.0</ele><time>2026-04-25T12:25:40.282Z</time></trkpt><trkpt lat="45.3357683" lon="14.2679441"><ele>525.0</ele><time>2026-04-25T12:25:41.281Z</time></trkpt><trkpt lat="45.335844" lon="14.2680508"><ele>525.0</ele><time>2026-04-25T12:25:42.28Z</time></trkpt><trkpt lat="45.3358753" lon="14.2682025"><ele>525.0</ele><time>2026-04-25T12:25:43.29Z</time></trkpt><trkpt lat="45.3358744" lon="14.2683734"><ele>525.0</ele><time>2026-04-25T12:25:44.281Z</time></trkpt><trkpt lat="45.3358444" lon="14.268566"><ele>523.25</ele><time>2026-04-25T12:25:45.287Z</time></trkpt><trkpt lat="45.3358147" lon="14.2687641"><ele>521.5</ele><time>2026-04-25T12:25:46.28Z</time></trkpt><trkpt lat="45.3357892" lon="14.268957"><ele>519.75</ele><time>2026-04-25T12:25:47.301Z</time></trkpt><trkpt lat="45.3357713" lon="14.269133"><ele>518.0</ele><time>2026-04-25T12:25:48.293Z</time></trkpt><trkpt lat="45.3357579" lon="14.26931"><ele>517.0</ele><time>2026-04-25T12:25:49.3Z</time></trkpt><trkpt lat="45.3357708" lon="14.2694801"><ele>516.0</ele><time>2026-04-25T12:25:50.285Z</time></trkpt><trkpt lat="45.3358119" lon="14.2696348"><ele>515.0</ele><time>2026-04-25T12:25:51.287Z</time></trkpt><trkpt lat="45.3358677" lon="14.2697839"><ele>514.0</ele><time>2026-04-25T12:25:52.29Z</time></trkpt><trkpt lat="45.3359253" lon="14.2699433"><ele>513.25</ele><time>2026-04-25T12:25:53.3Z</time></trkpt><trkpt lat="45.3359757" lon="14.2701267"><ele>512.5</ele><time>2026-04-25T12:25:54.287Z</time></trkpt><trkpt lat="45.3360031" lon="14.2703155"><ele>511.75</ele><time>2026-04-25T12:25:55.288Z</time></trkpt><trkpt lat="45.3360127" lon="14.2704868"><ele>511.0</ele><time>2026-04-25T12:25:56.284Z</time></trkpt><trkpt lat="45.3360175" lon="14.2706456"><ele>510.4</ele><time>2026-04-25T12:25:57.283Z</time></trkpt><trkpt lat="45.3360196" lon="14.270783"><ele>509.8</ele><time>2026-04-25T12:25:58.305Z</time></trkpt><trkpt lat="45.3360293" lon="14.2709029"><ele>509.19999999999993</ele><time>2026-04-25T12:25:59.297Z</time></trkpt><trkpt lat="45.3360364" lon="14.2710298"><ele>508.59999999999997</ele><time>2026-04-25T12:26:00.295Z</time></trkpt><trkpt lat="45.3360371" lon="14.2711744"><ele>508.0</ele><time>2026-04-25T12:26:01.301Z</time></trkpt><trkpt lat="45.3360385" lon="14.2713254"><ele>506.2</ele><time>2026-04-25T12:26:02.283Z</time></trkpt><trkpt lat="45.3360346" lon="14.2714657"><ele>504.4</ele><time>2026-04-25T12:26:03.294Z</time></trkpt><trkpt lat="45.3360207" lon="14.2715973"><ele>502.59999999999997</ele><time>2026-04-25T12:26:04.286Z</time></trkpt><trkpt lat="45.3359932" lon="14.271731"><ele>500.79999999999995</ele><time>2026-04-25T12:26:05.315Z</time></trkpt><trkpt lat="45.33597" lon="14.2718527"><ele>499.0</ele><time>2026-04-25T12:26:06.3Z</time></trkpt><trkpt lat="45.3359643" lon="14.2719833"><ele>499.0</ele><time>2026-04-25T12:26:07.297Z</time></trkpt><trkpt lat="45.3359981" lon="14.2720956"><ele>499.0</ele><time>2026-04-25T12:26:08.301Z</time></trkpt><trkpt lat="45.3360727" lon="14.272183"><ele>499.0</ele><time>2026-04-25T12:26:09.285Z</time></trkpt><trkpt lat="45.3361658" lon="14.2722606"><ele>499.0</ele><time>2026-04-25T12:26:10.286Z</time></trkpt><trkpt lat="45.336267" lon="14.2723058"><ele>499.0</ele><time>2026-04-25T12:26:11.287Z</time></trkpt><trkpt lat="45.3363606" lon="14.2723762"><ele>498.6</ele><time>2026-04-25T12:26:12.282Z</time></trkpt><trkpt lat="45.3364556" lon="14.2724462"><ele>498.2</ele><time>2026-04-25T12:26:13.289Z</time></trkpt><trkpt lat="45.3365517" lon="14.2725137"><ele>497.80000000000007</ele><time>2026-04-25T12:26:14.283Z</time></trkpt><trkpt lat="45.3366443" lon="14.2725736"><ele>497.40000000000003</ele><time>2026-04-25T12:26:15.281Z</time></trkpt><trkpt lat="45.3367036" lon="14.2726715"><ele>497.0</ele><time>2026-04-25T12:26:16.272Z</time></trkpt><trkpt lat="45.3367368" lon="14.2727977"><ele>497.0</ele><time>2026-04-25T12:26:17.278Z</time></trkpt><trkpt lat="45.3367455" lon="14.272942"><ele>497.00000000000006</ele><time>2026-04-25T12:26:18.28Z</time></trkpt><trkpt lat="45.3367349" lon="14.2730806"><ele>497.00000000000006</ele><time>2026-04-25T12:26:19.278Z</time></trkpt><trkpt lat="45.3366931" lon="14.2731882"><ele>497.0</ele><time>2026-04-25T12:26:20.281Z</time></trkpt><trkpt lat="45.3366268" lon="14.2732729"><ele>497.0</ele><time>2026-04-25T12:26:21.278Z</time></trkpt><trkpt lat="45.3365368" lon="14.2733491"><ele>494.0</ele><time>2026-04-25T12:26:22.278Z</time></trkpt><trkpt lat="45.3364362" lon="14.2734308"><ele>491.0</ele><time>2026-04-25T12:26:23.289Z</time></trkpt><trkpt lat="45.336333" lon="14.273524"><ele>488.0</ele><time>2026-04-25T12:26:24.285Z</time></trkpt><trkpt lat="45.3362343" lon="14.2736137"><ele>485.0</ele><time>2026-04-25T12:26:25.288Z</time></trkpt><trkpt lat="45.3361394" lon="14.273704"><ele>484.6</ele><time>2026-04-25T12:26:26.272Z</time></trkpt><trkpt lat="45.336049" lon="14.2737957"><ele>484.2</ele><time>2026-04-25T12:26:27.291Z</time></trkpt><trkpt lat="45.3359623" lon="14.273895"><ele>483.79999999999995</ele><time>2026-04-25T12:26:28.295Z</time></trkpt><trkpt lat="45.3358948" lon="14.2740098"><ele>483.4</ele><time>2026-04-25T12:26:29.284Z</time></trkpt><trkpt lat="45.3358468" lon="14.2741583"><ele>483.0</ele><time>2026-04-25T12:26:30.286Z</time></trkpt><trkpt lat="45.3358166" lon="14.2743113"><ele>481.5</ele><time>2026-04-25T12:26:31.289Z</time></trkpt><trkpt lat="45.3357907" lon="14.2744856"><ele>480.0</ele><time>2026-04-25T12:26:32.285Z</time></trkpt><trkpt lat="45.3357521" lon="14.2746366"><ele>478.5</ele><time>2026-04-25T12:26:33.293Z</time></trkpt><trkpt lat="45.3356909" lon="14.2747777"><ele>477.0</ele><time>2026-04-25T12:26:34.287Z</time></trkpt><trkpt lat="45.3356185" lon="14.2749073"><ele>475.75</ele><time>2026-04-25T12:26:35.3Z</time></trkpt><trkpt lat="45.3355314" lon="14.2750227"><ele>474.5</ele><time>2026-04-25T12:26:36.289Z</time></trkpt><trkpt lat="45.3354398" lon="14.2751453"><ele>473.25</ele><time>2026-04-25T12:26:37.291Z</time></trkpt><trkpt lat="45.3353454" lon="14.275263"><ele>472.0</ele><time>2026-04-25T12:26:38.287Z</time></trkpt><trkpt lat="45.3352587" lon="14.2753681"><ele>472.0</ele><time>2026-04-25T12:26:39.285Z</time></trkpt><trkpt lat="45.3351855" lon="14.2754629"><ele>472.00000000000006</ele><time>2026-04-25T12:26:40.284Z</time></trkpt><trkpt lat="45.3351328" lon="14.2755822"><ele>472.00000000000006</ele><time>2026-04-25T12:26:41.297Z</time></trkpt><trkpt lat="45.3351077" lon="14.275736"><ele>472.0</ele><time>2026-04-25T12:26:42.291Z</time></trkpt><trkpt lat="45.3351049" lon="14.2758831"><ele>472.0</ele><time>2026-04-25T12:26:43.283Z</time></trkpt><trkpt lat="45.3351292" lon="14.2760074"><ele>470.83333333333337</ele><time>2026-04-25T12:26:44.296Z</time></trkpt><trkpt lat="45.3351765" lon="14.2760949"><ele>469.6666666666667</ele><time>2026-04-25T12:26:45.281Z</time></trkpt><trkpt lat="45.335246" lon="14.2761529"><ele>468.5</ele><time>2026-04-25T12:26:46.285Z</time></trkpt><trkpt lat="45.3353312" lon="14.2761571"><ele>467.33333333333337</ele><time>2026-04-25T12:26:47.278Z</time></trkpt><trkpt lat="45.3354231" lon="14.2761212"><ele>466.1666666666667</ele><time>2026-04-25T12:26:48.28Z</time></trkpt><trkpt lat="45.3355148" lon="14.2760646"><ele>465.0</ele><time>2026-04-25T12:26:49.28Z</time></trkpt><trkpt lat="45.3356013" lon="14.2759811"><ele>465.0</ele><time>2026-04-25T12:26:50.281Z</time></trkpt><trkpt lat="45.3356889" lon="14.2758986"><ele>465.0</ele><time>2026-04-25T12:26:51.282Z</time></trkpt><trkpt lat="45.3357775" lon="14.2758084"><ele>465.0</ele><time>2026-04-25T12:26:52.284Z</time></trkpt><trkpt lat="45.3358823" lon="14.2757189"><ele>465.0</ele><time>2026-04-25T12:26:53.281Z</time></trkpt><trkpt lat="45.3359927" lon="14.2756274"><ele>464.75</ele><time>2026-04-25T12:26:54.287Z</time></trkpt><trkpt lat="45.3361064" lon="14.2755197"><ele>464.5</ele><time>2026-04-25T12:26:55.286Z</time></trkpt><trkpt lat="45.336219" lon="14.2754107"><ele>464.25</ele><time>2026-04-25T12:26:56.275Z</time></trkpt><trkpt lat="45.336328" lon="14.2753096"><ele>464.0</ele><time>2026-04-25T12:26:57.273Z</time></trkpt><trkpt lat="45.3364391" lon="14.2752326"><ele>464.0</ele><time>2026-04-25T12:26:58.281Z</time></trkpt><trkpt lat="45.3365556" lon="14.2752112"><ele>464.0</ele><time>2026-04-25T12:26:59.292Z</time></trkpt><trkpt lat="45.3366764" lon="14.2752791"><ele>464.0</ele><time>2026-04-25T12:27:00.291Z</time></trkpt><trkpt lat="45.3367901" lon="14.2753606"><ele>464.0</ele><time>2026-04-25T12:27:01.277Z</time></trkpt><trkpt lat="45.3369152" lon="14.2754521"><ele>464.0</ele><time>2026-04-25T12:27:02.274Z</time></trkpt><trkpt lat="45.3370526" lon="14.2755194"><ele>464.0</ele><time>2026-04-25T12:27:03.282Z</time></trkpt><trkpt lat="45.3371973" lon="14.2755452"><ele>464.0</ele><time>2026-04-25T12:27:04.281Z</time></trkpt><trkpt lat="45.337346" lon="14.2755713"><ele>464.0</ele><time>2026-04-25T12:27:05.277Z</time></trkpt><trkpt lat="45.3374904" lon="14.2756111"><ele>463.75</ele><time>2026-04-25T12:27:06.28Z</time></trkpt><trkpt lat="45.3376224" lon="14.2756802"><ele>463.5</ele><time>2026-04-25T12:27:07.284Z</time></trkpt><trkpt lat="45.3377438" lon="14.2757759"><ele>463.25</ele><time>2026-04-25T12:27:08.281Z</time></trkpt><trkpt lat="45.3378514" lon="14.275882"><ele>463.0</ele><time>2026-04-25T12:27:09.275Z</time></trkpt><trkpt lat="45.3379586" lon="14.2759447"><ele>462.75</ele><time>2026-04-25T12:27:10.279Z</time></trkpt><trkpt lat="45.3380792" lon="14.2759516"><ele>462.5</ele><time>2026-04-25T12:27:11.288Z</time></trkpt><trkpt lat="45.3382" lon="14.2759047"><ele>462.25</ele><time>2026-04-25T12:27:12.278Z</time></trkpt><trkpt lat="45.3383234" lon="14.2758292"><ele>462.0</ele><time>2026-04-25T12:27:13.279Z</time></trkpt><trkpt lat="45.3384543" lon="14.2757477"><ele>462.0</ele><time>2026-04-25T12:27:14.28Z</time></trkpt><trkpt lat="45.3386027" lon="14.2756788"><ele>462.0</ele><time>2026-04-25T12:27:15.289Z</time></trkpt><trkpt lat="45.338738" lon="14.2756117"><ele>462.0</ele><time>2026-04-25T12:27:16.291Z</time></trkpt><trkpt lat="45.3388847" lon="14.2755527"><ele>463.0</ele><time>2026-04-25T12:27:17.277Z</time></trkpt><trkpt lat="45.3390148" lon="14.2754755"><ele>464.00000000000006</ele><time>2026-04-25T12:27:18.284Z</time></trkpt><trkpt lat="45.3391106" lon="14.2753793"><ele>465.00000000000006</ele><time>2026-04-25T12:27:19.28Z</time></trkpt><trkpt lat="45.3391921" lon="14.2752945"><ele>466.0</ele><time>2026-04-25T12:27:20.275Z</time></trkpt><trkpt lat="45.3392735" lon="14.2752562"><ele>467.0</ele><time>2026-04-25T12:27:21.275Z</time></trkpt><trkpt lat="45.3393723" lon="14.2752767"><ele>467.0</ele><time>2026-04-25T12:27:22.267Z</time></trkpt><trkpt lat="45.3395081" lon="14.2753702"><ele>467.0</ele><time>2026-04-25T12:27:23.277Z</time></trkpt><trkpt lat="45.3396368" lon="14.2754604"><ele>467.0</ele><time>2026-04-25T12:27:24.263Z</time></trkpt><trkpt lat="45.3397443" lon="14.2755583"><ele>467.0</ele><time>2026-04-25T12:27:25.276Z</time></trkpt><trkpt lat="45.3398295" lon="14.2756991"><ele>436.0</ele><time>2026-04-25T12:27:26.27Z</time></trkpt><trkpt lat="45.3399453" lon="14.2771148"><ele>436.0</ele><time>2026-04-25T12:27:36.246Z</time></trkpt><trkpt lat="45.340061" lon="14.2771548"><ele>436.0</ele><time>2026-04-25T12:27:37.262Z</time></trkpt><trkpt lat="45.3401884" lon="14.2772741"><ele>436.0</ele><time>2026-04-25T12:27:39.269Z</time></trkpt><trkpt lat="45.3402993" lon="14.2773633"><ele>436.0</ele><time>2026-04-25T12:27:40.268Z</time></trkpt><trkpt lat="45.3404145" lon="14.2774716"><ele>437.75</ele><time>2026-04-25T12:27:41.268Z</time></trkpt><trkpt lat="45.3405146" lon="14.2776094"><ele>439.5</ele><time>2026-04-25T12:27:42.275Z</time></trkpt><trkpt lat="45.3406" lon="14.277779"><ele>441.25</ele><time>2026-04-25T12:27:43.271Z</time></trkpt><trkpt lat="45.3406488" lon="14.2779577"><ele>443.0</ele><time>2026-04-25T12:27:44.268Z</time></trkpt><trkpt lat="45.3406618" lon="14.2781313"><ele>439.2</ele><time>2026-04-25T12:27:45.274Z</time></trkpt><trkpt lat="45.3406602" lon="14.2783037"><ele>435.4</ele><time>2026-04-25T12:27:46.279Z</time></trkpt><trkpt lat="45.3406682" lon="14.2784617"><ele>431.59999999999997</ele><time>2026-04-25T12:27:47.265Z</time></trkpt><trkpt lat="45.3406959" lon="14.2786073"><ele>427.79999999999995</ele><time>2026-04-25T12:27:48.272Z</time></trkpt><trkpt lat="45.3407717" lon="14.2787161"><ele>424.0</ele><time>2026-04-25T12:27:49.258Z</time></trkpt><trkpt lat="45.3408643" lon="14.2788019"><ele>424.0</ele><time>2026-04-25T12:27:50.272Z</time></trkpt><trkpt lat="45.3409758" lon="14.2788659"><ele>424.0</ele><time>2026-04-25T12:27:51.264Z</time></trkpt><trkpt lat="45.3410913" lon="14.2789406"><ele>424.0</ele><time>2026-04-25T12:27:52.273Z</time></trkpt><trkpt lat="45.3412018" lon="14.2790349"><ele>424.0</ele><time>2026-04-25T12:27:53.282Z</time></trkpt><trkpt lat="45.341302" lon="14.2791443"><ele>424.0</ele><time>2026-04-25T12:27:54.276Z</time></trkpt><trkpt lat="45.3413799" lon="14.2792784"><ele>424.0</ele><time>2026-04-25T12:27:55.27Z</time></trkpt><trkpt lat="45.341452" lon="14.2794511"><ele>424.0</ele><time>2026-04-25T12:27:56.274Z</time></trkpt><trkpt lat="45.3415014" lon="14.2796443"><ele>424.0</ele><time>2026-04-25T12:27:57.269Z</time></trkpt><trkpt lat="45.341534" lon="14.2798376"><ele>421.0</ele><time>2026-04-25T12:27:58.273Z</time></trkpt><trkpt lat="45.3415606" lon="14.2800159"><ele>418.0</ele><time>2026-04-25T12:27:59.281Z</time></trkpt><trkpt lat="45.3415876" lon="14.2801918"><ele>415.0</ele><time>2026-04-25T12:28:00.272Z</time></trkpt><trkpt lat="45.3416115" lon="14.2803809"><ele>412.0</ele><time>2026-04-25T12:28:01.284Z</time></trkpt><trkpt lat="45.3416358" lon="14.2805722"><ele>412.0</ele><time>2026-04-25T12:28:02.267Z</time></trkpt><trkpt lat="45.3416415" lon="14.2807705"><ele>412.0</ele><time>2026-04-25T12:28:03.285Z</time></trkpt><trkpt lat="45.3416097" lon="14.2809781"><ele>412.0</ele><time>2026-04-25T12:28:04.288Z</time></trkpt><trkpt lat="45.3415583" lon="14.281188"><ele>412.0</ele><time>2026-04-25T12:28:05.283Z</time></trkpt><trkpt lat="45.341515" lon="14.2813915"><ele>412.25</ele><time>2026-04-25T12:28:06.289Z</time></trkpt><trkpt lat="45.3414745" lon="14.2815893"><ele>412.5</ele><time>2026-04-25T12:28:07.288Z</time></trkpt><trkpt lat="45.3414408" lon="14.2817789"><ele>412.75</ele><time>2026-04-25T12:28:08.291Z</time></trkpt><trkpt lat="45.3414186" lon="14.2819671"><ele>413.0</ele><time>2026-04-25T12:28:09.291Z</time></trkpt><trkpt lat="45.3414176" lon="14.2821443"><ele>410.75</ele><time>2026-04-25T12:28:10.299Z</time></trkpt><trkpt lat="45.3414435" lon="14.2823152"><ele>408.5</ele><time>2026-04-25T12:28:11.293Z</time></trkpt><trkpt lat="45.3414848" lon="14.2824904"><ele>406.25</ele><time>2026-04-25T12:28:12.293Z</time></trkpt><trkpt lat="45.3415463" lon="14.2826555"><ele>404.0</ele><time>2026-04-25T12:28:13.296Z</time></trkpt><trkpt lat="45.3416108" lon="14.2828093"><ele>404.0</ele><time>2026-04-25T12:28:14.301Z</time></trkpt><trkpt lat="45.3416793" lon="14.2829522"><ele>404.0</ele><time>2026-04-25T12:28:15.301Z</time></trkpt><trkpt lat="45.3417522" lon="14.2830902"><ele>404.0</ele><time>2026-04-25T12:28:16.301Z</time></trkpt><trkpt lat="45.3418273" lon="14.2832319"><ele>404.0</ele><time>2026-04-25T12:28:17.299Z</time></trkpt><trkpt lat="45.3418919" lon="14.2833695"><ele>401.5</ele><time>2026-04-25T12:28:18.301Z</time></trkpt><trkpt lat="45.3419392" lon="14.283524"><ele>399.0</ele><time>2026-04-25T12:28:19.288Z</time></trkpt><trkpt lat="45.3419724" lon="14.2836848"><ele>396.5</ele><time>2026-04-25T12:28:20.295Z</time></trkpt><trkpt lat="45.3420162" lon="14.2838496"><ele>394.0</ele><time>2026-04-25T12:28:21.286Z</time></trkpt><trkpt lat="45.3420754" lon="14.2840214"><ele>394.5</ele><time>2026-04-25T12:28:22.297Z</time></trkpt><trkpt lat="45.3421423" lon="14.2841989"><ele>395.0</ele><time>2026-04-25T12:28:23.282Z</time></trkpt><trkpt lat="45.3422077" lon="14.2843852"><ele>395.5</ele><time>2026-04-25T12:28:24.286Z</time></trkpt><trkpt lat="45.3422785" lon="14.2845744"><ele>396.0</ele><time>2026-04-25T12:28:25.276Z</time></trkpt><trkpt lat="45.3423508" lon="14.2847614"><ele>393.5</ele><time>2026-04-25T12:28:26.282Z</time></trkpt><trkpt lat="45.3424194" lon="14.2849373"><ele>391.0</ele><time>2026-04-25T12:28:27.284Z</time></trkpt><trkpt lat="45.3424869" lon="14.2850994"><ele>388.5</ele><time>2026-04-25T12:28:28.289Z</time></trkpt><trkpt lat="45.3425548" lon="14.2852596"><ele>386.0</ele><time>2026-04-25T12:28:29.287Z</time></trkpt><trkpt lat="45.3426215" lon="14.2853986"><ele>386.0</ele><time>2026-04-25T12:28:30.287Z</time></trkpt><trkpt lat="45.3427012" lon="14.2855289"><ele>386.0</ele><time>2026-04-25T12:28:31.287Z</time></trkpt><trkpt lat="45.3427854" lon="14.2856455"><ele>386.0</ele><time>2026-04-25T12:28:32.289Z</time></trkpt><trkpt lat="45.3428723" lon="14.2857631"><ele>386.0</ele><time>2026-04-25T12:28:33.286Z</time></trkpt><trkpt lat="45.3429667" lon="14.2858811"><ele>384.75</ele><time>2026-04-25T12:28:34.283Z</time></trkpt><trkpt lat="45.3430573" lon="14.2860056"><ele>383.5</ele><time>2026-04-25T12:28:35.28Z</time></trkpt><trkpt lat="45.3431537" lon="14.2861307"><ele>382.25</ele><time>2026-04-25T12:28:36.296Z</time></trkpt><trkpt lat="45.3432494" lon="14.2862345"><ele>381.0</ele><time>2026-04-25T12:28:37.282Z</time></trkpt><trkpt lat="45.343355" lon="14.2863353"><ele>377.75</ele><time>2026-04-25T12:28:38.291Z</time></trkpt><trkpt lat="45.3434556" lon="14.2864325"><ele>374.5</ele><time>2026-04-25T12:28:39.281Z</time></trkpt><trkpt lat="45.3435657" lon="14.2865077"><ele>371.25</ele><time>2026-04-25T12:28:40.287Z</time></trkpt><trkpt lat="45.3436823" lon="14.2865637"><ele>368.0</ele><time>2026-04-25T12:28:41.278Z</time></trkpt><trkpt lat="45.3438094" lon="14.2865909"><ele>368.75</ele><time>2026-04-25T12:28:42.279Z</time></trkpt><trkpt lat="45.3439335" lon="14.28659"><ele>369.5</ele><time>2026-04-25T12:28:43.274Z</time></trkpt><trkpt lat="45.3440521" lon="14.2865821"><ele>370.25</ele><time>2026-04-25T12:28:44.291Z</time></trkpt><trkpt lat="45.3441609" lon="14.2865639"><ele>371.0</ele><time>2026-04-25T12:28:45.293Z</time></trkpt><trkpt lat="45.3442553" lon="14.2865162"><ele>371.0</ele><time>2026-04-25T12:28:46.29Z</time></trkpt><trkpt lat="45.3443399" lon="14.2864676"><ele>371.0</ele><time>2026-04-25T12:28:47.287Z</time></trkpt><trkpt lat="45.3444371" lon="14.2864675"><ele>371.0</ele><time>2026-04-25T12:28:48.283Z</time></trkpt><trkpt lat="45.3445322" lon="14.2865017"><ele>371.0</ele><time>2026-04-25T12:28:49.278Z</time></trkpt><trkpt lat="45.3445933" lon="14.2865676"><ele>371.0</ele><time>2026-04-25T12:28:50.278Z</time></trkpt><trkpt lat="45.3446273" lon="14.2866616"><ele>371.0</ele><time>2026-04-25T12:28:51.28Z</time></trkpt><trkpt lat="45.3445332" lon="14.2868123"><ele>371.0</ele><time>2026-04-25T12:28:53.267Z</time></trkpt><trkpt lat="45.3444584" lon="14.286853"><ele>371.0</ele><time>2026-04-25T12:28:54.282Z</time></trkpt><trkpt lat="45.3443779" lon="14.2868786"><ele>371.0</ele><time>2026-04-25T12:28:55.283Z</time></trkpt><trkpt lat="45.3443268" lon="14.2869389"><ele>371.0</ele><time>2026-04-25T12:28:56.278Z</time></trkpt><trkpt lat="45.34431" lon="14.2870347"><ele>371.0</ele><time>2026-04-25T12:28:57.272Z</time></trkpt><trkpt lat="45.344394" lon="14.2871384"><ele>371.0</ele><time>2026-04-25T12:28:59.274Z</time></trkpt><trkpt lat="45.3444699" lon="14.2871216"><ele>371.0</ele><time>2026-04-25T12:29:00.298Z</time></trkpt><trkpt lat="45.3445524" lon="14.2870686"><ele>371.0</ele><time>2026-04-25T12:29:01.279Z</time></trkpt><trkpt lat="45.344651" lon="14.2869847"><ele>371.0</ele><time>2026-04-25T12:29:02.269Z</time></trkpt><trkpt lat="45.344753" lon="14.2869155"><ele>371.0</ele><time>2026-04-25T12:29:03.278Z</time></trkpt><trkpt lat="45.344852" lon="14.2868389"><ele>371.0</ele><time>2026-04-25T12:29:04.283Z</time></trkpt><trkpt lat="45.3449432" lon="14.286762"><ele>370.0</ele><time>2026-04-25T12:29:05.288Z</time></trkpt><trkpt lat="45.3450302" lon="14.286681"><ele>369.0</ele><time>2026-04-25T12:29:06.275Z</time></trkpt><trkpt lat="45.3451068" lon="14.2865969"><ele>368.0</ele><time>2026-04-25T12:29:07.27Z</time></trkpt><trkpt lat="45.3451807" lon="14.2865261"><ele>367.0</ele><time>2026-04-25T12:29:08.269Z</time></trkpt><trkpt lat="45.3452449" lon="14.2864753"><ele>366.0</ele><time>2026-04-25T12:29:09.285Z</time></trkpt><trkpt lat="45.3453581" lon="14.2865547"><ele>366.0</ele><time>2026-04-25T12:29:11.277Z</time></trkpt><trkpt lat="45.3453994" lon="14.2866572"><ele>366.0</ele><time>2026-04-25T12:29:12.271Z</time></trkpt><trkpt lat="45.3454112" lon="14.286795"><ele>366.0</ele><time>2026-04-25T12:29:13.273Z</time></trkpt><trkpt lat="45.3454119" lon="14.2869567"><ele>366.0</ele><time>2026-04-25T12:29:14.27Z</time></trkpt><trkpt lat="45.3454033" lon="14.2871379"><ele>366.0</ele><time>2026-04-25T12:29:15.281Z</time></trkpt><trkpt lat="45.3453863" lon="14.2873202"><ele>363.5</ele><time>2026-04-25T12:29:16.282Z</time></trkpt><trkpt lat="45.3453581" lon="14.287505"><ele>361.0</ele><time>2026-04-25T12:29:17.279Z</time></trkpt><trkpt lat="45.3453161" lon="14.2876922"><ele>358.5</ele><time>2026-04-25T12:29:18.292Z</time></trkpt><trkpt lat="45.3452504" lon="14.2878893"><ele>356.0</ele><time>2026-04-25T12:29:19.28Z</time></trkpt><trkpt lat="45.3451615" lon="14.2880757"><ele>356.0</ele><time>2026-04-25T12:29:20.29Z</time></trkpt><trkpt lat="45.345066" lon="14.288268"><ele>356.0</ele><time>2026-04-25T12:29:21.292Z</time></trkpt><trkpt lat="45.3449814" lon="14.2884693"><ele>356.0</ele><time>2026-04-25T12:29:22.295Z</time></trkpt><trkpt lat="45.3449031" lon="14.2886902"><ele>356.0</ele><time>2026-04-25T12:29:23.287Z</time></trkpt><trkpt lat="45.3448368" lon="14.2888956"><ele>356.0</ele><time>2026-04-25T12:29:24.283Z</time></trkpt><trkpt lat="45.3447725" lon="14.2890887"><ele>356.0</ele><time>2026-04-25T12:29:25.281Z</time></trkpt><trkpt lat="45.3447251" lon="14.289282"><ele>351.6666666666667</ele><time>2026-04-25T12:29:26.285Z</time></trkpt><trkpt lat="45.344704" lon="14.2894902"><ele>347.3333333333333</ele><time>2026-04-25T12:29:27.282Z</time></trkpt><trkpt lat="45.3446997" lon="14.2897305"><ele>343.0</ele><time>2026-04-25T12:29:28.286Z</time></trkpt><trkpt lat="45.3447017" lon="14.2899385"><ele>343.0</ele><time>2026-04-25T12:29:29.277Z</time></trkpt><trkpt lat="45.3447045" lon="14.2901268"><ele>343.0</ele><time>2026-04-25T12:29:30.283Z</time></trkpt><trkpt lat="45.344704" lon="14.2902957"><ele>343.0</ele><time>2026-04-25T12:29:31.293Z</time></trkpt><trkpt lat="45.3446959" lon="14.2904484"><ele>343.0</ele><time>2026-04-25T12:29:32.285Z</time></trkpt><trkpt lat="45.3446702" lon="14.2905893"><ele>345.0</ele><time>2026-04-25T12:29:33.289Z</time></trkpt><trkpt lat="45.3446081" lon="14.2907186"><ele>347.0</ele><time>2026-04-25T12:29:34.282Z</time></trkpt><trkpt lat="45.3444265" lon="14.2909444"><ele>349.0</ele><time>2026-04-25T12:29:36.29Z</time></trkpt><trkpt lat="45.3443515" lon="14.2910768"><ele>349.0</ele><time>2026-04-25T12:29:37.289Z</time></trkpt><trkpt lat="45.3442734" lon="14.2912429"><ele>349.0</ele><time>2026-04-25T12:29:38.286Z</time></trkpt><trkpt lat="45.3441998" lon="14.2914156"><ele>349.0</ele><time>2026-04-25T12:29:39.293Z</time></trkpt><trkpt lat="45.344136" lon="14.2915736"><ele>349.0</ele><time>2026-04-25T12:29:40.283Z</time></trkpt><trkpt lat="45.3440733" lon="14.291727"><ele>350.25</ele><time>2026-04-25T12:29:41.299Z</time></trkpt><trkpt lat="45.3440181" lon="14.2918848"><ele>351.5</ele><time>2026-04-25T12:29:42.286Z</time></trkpt><trkpt lat="45.3439763" lon="14.2920538"><ele>352.75</ele><time>2026-04-25T12:29:43.288Z</time></trkpt><trkpt lat="45.3439617" lon="14.2922395"><ele>354.0</ele><time>2026-04-25T12:29:44.288Z</time></trkpt><trkpt lat="45.343968" lon="14.2924165"><ele>354.0</ele><time>2026-04-25T12:29:45.283Z</time></trkpt><trkpt lat="45.3439859" lon="14.2925839"><ele>354.0</ele><time>2026-04-25T12:29:46.286Z</time></trkpt><trkpt lat="45.3439999" lon="14.2927437"><ele>354.0</ele><time>2026-04-25T12:29:47.276Z</time></trkpt><trkpt lat="45.3439988" lon="14.2928953"><ele>354.0</ele><time>2026-04-25T12:29:48.287Z</time></trkpt><trkpt lat="45.3439615" lon="14.2930337"><ele>354.0</ele><time>2026-04-25T12:29:49.298Z</time></trkpt><trkpt lat="45.3438818" lon="14.2931529"><ele>352.25</ele><time>2026-04-25T12:29:50.282Z</time></trkpt><trkpt lat="45.343771" lon="14.2932414"><ele>350.5</ele><time>2026-04-25T12:29:51.276Z</time></trkpt><trkpt lat="45.3436647" lon="14.293329"><ele>348.75</ele><time>2026-04-25T12:29:52.28Z</time></trkpt><trkpt lat="45.3435632" lon="14.2934146"><ele>347.0</ele><time>2026-04-25T12:29:53.275Z</time></trkpt><trkpt lat="45.3434705" lon="14.293512"><ele>347.0</ele><time>2026-04-25T12:29:54.291Z</time></trkpt><trkpt lat="45.3433939" lon="14.293618"><ele>347.0</ele><time>2026-04-25T12:29:55.285Z</time></trkpt><trkpt lat="45.3433191" lon="14.2937379"><ele>347.0</ele><time>2026-04-25T12:29:56.287Z</time></trkpt><trkpt lat="45.3432471" lon="14.2938649"><ele>347.0</ele><time>2026-04-25T12:29:57.275Z</time></trkpt><trkpt lat="45.3431966" lon="14.2939953"><ele>347.0</ele><time>2026-04-25T12:29:58.286Z</time></trkpt><trkpt lat="45.3431721" lon="14.2941241"><ele>347.20000000000005</ele><time>2026-04-25T12:29:59.285Z</time></trkpt><trkpt lat="45.3431783" lon="14.2942563"><ele>347.4</ele><time>2026-04-25T12:30:00.28Z</time></trkpt><trkpt lat="45.3432166" lon="14.2943861"><ele>347.6</ele><time>2026-04-25T12:30:01.279Z</time></trkpt><trkpt lat="45.3432769" lon="14.2944997"><ele>347.79999999999995</ele><time>2026-04-25T12:30:02.279Z</time></trkpt><trkpt lat="45.3433662" lon="14.2946179"><ele>348.0</ele><time>2026-04-25T12:30:03.29Z</time></trkpt><trkpt lat="45.3434711" lon="14.2947488"><ele>346.5</ele><time>2026-04-25T12:30:04.278Z</time></trkpt><trkpt lat="45.3435731" lon="14.2948837"><ele>345.0</ele><time>2026-04-25T12:30:05.282Z</time></trkpt><trkpt lat="45.3436637" lon="14.2950103"><ele>343.5</ele><time>2026-04-25T12:30:06.294Z</time></trkpt><trkpt lat="45.3437422" lon="14.2951444"><ele>342.0</ele><time>2026-04-25T12:30:07.281Z</time></trkpt><trkpt lat="45.3437843" lon="14.295313"><ele>342.0</ele><time>2026-04-25T12:30:08.277Z</time></trkpt><trkpt lat="45.3437885" lon="14.2954903"><ele>342.0</ele><time>2026-04-25T12:30:09.269Z</time></trkpt><trkpt lat="45.3437896" lon="14.2956551"><ele>342.0</ele><time>2026-04-25T12:30:10.282Z</time></trkpt><trkpt lat="45.3438187" lon="14.295792"><ele>342.0</ele><time>2026-04-25T12:30:11.292Z</time></trkpt><trkpt lat="45.3438882" lon="14.2958814"><ele>342.0</ele><time>2026-04-25T12:30:12.293Z</time></trkpt><trkpt lat="45.3439871" lon="14.2959397"><ele>342.0</ele><time>2026-04-25T12:30:13.282Z</time></trkpt><trkpt lat="45.3441117" lon="14.2959829"><ele>342.0</ele><time>2026-04-25T12:30:14.283Z</time></trkpt><trkpt lat="45.3442463" lon="14.2960169"><ele>342.0</ele><time>2026-04-25T12:30:15.272Z</time></trkpt><trkpt lat="45.3443912" lon="14.2960572"><ele>342.0</ele><time>2026-04-25T12:30:16.278Z</time></trkpt><trkpt lat="45.3445591" lon="14.296103"><ele>343.3333333333333</ele><time>2026-04-25T12:30:17.281Z</time></trkpt><trkpt lat="45.3447369" lon="14.2961471"><ele>344.66666666666663</ele><time>2026-04-25T12:30:18.279Z</time></trkpt><trkpt lat="45.3449232" lon="14.2961966"><ele>346.0</ele><time>2026-04-25T12:30:19.277Z</time></trkpt><trkpt lat="45.3450905" lon="14.296241"><ele>346.0</ele><time>2026-04-25T12:30:20.282Z</time></trkpt><trkpt lat="45.3452488" lon="14.2962833"><ele>346.0</ele><time>2026-04-25T12:30:21.278Z</time></trkpt><trkpt lat="45.3453979" lon="14.2963263"><ele>346.0</ele><time>2026-04-25T12:30:22.28Z</time></trkpt><trkpt lat="45.3455439" lon="14.2963716"><ele>347.75</ele><time>2026-04-25T12:30:23.29Z</time></trkpt><trkpt lat="45.3456833" lon="14.2964176"><ele>349.5</ele><time>2026-04-25T12:30:24.296Z</time></trkpt><trkpt lat="45.3458255" lon="14.296454"><ele>351.25</ele><time>2026-04-25T12:30:25.285Z</time></trkpt><trkpt lat="45.345946" lon="14.2964859"><ele>353.0</ele><time>2026-04-25T12:30:26.277Z</time></trkpt><trkpt lat="45.3460638" lon="14.2965065"><ele>349.4</ele><time>2026-04-25T12:30:27.279Z</time></trkpt><trkpt lat="45.3461775" lon="14.2964933"><ele>345.79999999999995</ele><time>2026-04-25T12:30:28.281Z</time></trkpt><trkpt lat="45.3462776" lon="14.2964596"><ele>342.2</ele><time>2026-04-25T12:30:29.285Z</time></trkpt><trkpt lat="45.3463641" lon="14.2964462"><ele>338.6</ele><time>2026-04-25T12:30:30.283Z</time></trkpt><trkpt lat="45.346455" lon="14.2964964"><ele>335.0</ele><time>2026-04-25T12:30:31.282Z</time></trkpt><trkpt lat="45.3465305" lon="14.2965877"><ele>335.0</ele><time>2026-04-25T12:30:32.273Z</time></trkpt><trkpt lat="45.3465925" lon="14.296701"><ele>335.0</ele><time>2026-04-25T12:30:33.278Z</time></trkpt><trkpt lat="45.3466753" lon="14.2968174"><ele>335.0</ele><time>2026-04-25T12:30:34.271Z</time></trkpt><trkpt lat="45.3467907" lon="14.2969164"><ele>335.0</ele><time>2026-04-25T12:30:35.28Z</time></trkpt><trkpt lat="45.3469241" lon="14.2969935"><ele>335.0</ele><time>2026-04-25T12:30:36.28Z</time></trkpt><trkpt lat="45.3470541" lon="14.2970703"><ele>335.0</ele><time>2026-04-25T12:30:37.279Z</time></trkpt><trkpt lat="45.3471713" lon="14.2971445"><ele>335.0</ele><time>2026-04-25T12:30:38.274Z</time></trkpt><trkpt lat="45.3472858" lon="14.297206"><ele>335.0</ele><time>2026-04-25T12:30:39.281Z</time></trkpt><trkpt lat="45.3473938" lon="14.2972627"><ele>333.2</ele><time>2026-04-25T12:30:40.277Z</time></trkpt><trkpt lat="45.3474914" lon="14.2973169"><ele>331.4</ele><time>2026-04-25T12:30:41.28Z</time></trkpt><trkpt lat="45.3475821" lon="14.2973794"><ele>329.6</ele><time>2026-04-25T12:30:42.278Z</time></trkpt><trkpt lat="45.3476606" lon="14.2974796"><ele>327.8</ele><time>2026-04-25T12:30:43.279Z</time></trkpt><trkpt lat="45.3477299" lon="14.2976146"><ele>326.0</ele><time>2026-04-25T12:30:44.274Z</time></trkpt><trkpt lat="45.3478018" lon="14.2977612"><ele>326.0</ele><time>2026-04-25T12:30:45.28Z</time></trkpt><trkpt lat="45.3478898" lon="14.2979003"><ele>326.0</ele><time>2026-04-25T12:30:46.28Z</time></trkpt><trkpt lat="45.3479872" lon="14.2980207"><ele>326.0</ele><time>2026-04-25T12:30:47.276Z</time></trkpt><trkpt lat="45.3480827" lon="14.2981258"><ele>326.0</ele><time>2026-04-25T12:30:48.278Z</time></trkpt><trkpt lat="45.348174" lon="14.2982174"><ele>325.8</ele><time>2026-04-25T12:30:49.277Z</time></trkpt><trkpt lat="45.348263" lon="14.2983088"><ele>325.6</ele><time>2026-04-25T12:30:50.279Z</time></trkpt><trkpt lat="45.3483515" lon="14.2983999"><ele>325.4</ele><time>2026-04-25T12:30:51.278Z</time></trkpt><trkpt lat="45.3484402" lon="14.2984757"><ele>325.2</ele><time>2026-04-25T12:30:52.27Z</time></trkpt><trkpt lat="45.3485239" lon="14.2985564"><ele>325.0</ele><time>2026-04-25T12:30:53.266Z</time></trkpt><trkpt lat="45.3485859" lon="14.2986556"><ele>325.0</ele><time>2026-04-25T12:30:54.284Z</time></trkpt><trkpt lat="45.348623" lon="14.2987993"><ele>325.0</ele><time>2026-04-25T12:30:55.277Z</time></trkpt><trkpt lat="45.3486472" lon="14.2989366"><ele>325.0</ele><time>2026-04-25T12:30:56.269Z</time></trkpt><trkpt lat="45.3486441" lon="14.2990834"><ele>325.0</ele><time>2026-04-25T12:30:57.271Z</time></trkpt><trkpt lat="45.348616" lon="14.2992229"><ele>325.0</ele><time>2026-04-25T12:30:58.286Z</time></trkpt><trkpt lat="45.3485596" lon="14.2993423"><ele>323.0</ele><time>2026-04-25T12:30:59.275Z</time></trkpt><trkpt lat="45.3484781" lon="14.2994344"><ele>321.0</ele><time>2026-04-25T12:31:00.277Z</time></trkpt><trkpt lat="45.3483917" lon="14.2995126"><ele>319.0</ele><time>2026-04-25T12:31:01.274Z</time></trkpt><trkpt lat="45.3483048" lon="14.2995789"><ele>317.0</ele><time>2026-04-25T12:31:02.281Z</time></trkpt><trkpt lat="45.3482248" lon="14.2996714"><ele>315.0</ele><time>2026-04-25T12:31:03.282Z</time></trkpt><trkpt lat="45.3481748" lon="14.2998076"><ele>314.5</ele><time>2026-04-25T12:31:04.283Z</time></trkpt><trkpt lat="45.3481619" lon="14.2999659"><ele>314.0</ele><time>2026-04-25T12:31:05.283Z</time></trkpt><trkpt lat="45.3481703" lon="14.3001415"><ele>313.5</ele><time>2026-04-25T12:31:06.287Z</time></trkpt><trkpt lat="45.3481869" lon="14.3003385"><ele>313.0</ele><time>2026-04-25T12:31:07.289Z</time></trkpt><trkpt lat="45.3481987" lon="14.3005372"><ele>312.25</ele><time>2026-04-25T12:31:08.288Z</time></trkpt><trkpt lat="45.348207" lon="14.3007354"><ele>311.5</ele><time>2026-04-25T12:31:09.286Z</time></trkpt><trkpt lat="45.3482151" lon="14.3009255"><ele>310.75</ele><time>2026-04-25T12:31:10.286Z</time></trkpt><trkpt lat="45.3482132" lon="14.3011159"><ele>310.0</ele><time>2026-04-25T12:31:11.289Z</time></trkpt><trkpt lat="45.3482068" lon="14.3013049"><ele>308.25</ele><time>2026-04-25T12:31:12.283Z</time></trkpt><trkpt lat="45.3482002" lon="14.3014859"><ele>306.5</ele><time>2026-04-25T12:31:13.288Z</time></trkpt><trkpt lat="45.3481835" lon="14.3016653"><ele>304.75</ele><time>2026-04-25T12:31:14.283Z</time></trkpt><trkpt lat="45.3481644" lon="14.3018374"><ele>303.0</ele><time>2026-04-25T12:31:15.284Z</time></trkpt><trkpt lat="45.3481532" lon="14.3020222"><ele>303.0</ele><time>2026-04-25T12:31:16.285Z</time></trkpt><trkpt lat="45.348156" lon="14.3022191"><ele>303.0</ele><time>2026-04-25T12:31:17.289Z</time></trkpt><trkpt lat="45.3481753" lon="14.3024304"><ele>303.0</ele><time>2026-04-25T12:31:18.294Z</time></trkpt><trkpt lat="45.3482093" lon="14.3026464"><ele>303.0</ele><time>2026-04-25T12:31:19.288Z</time></trkpt><trkpt lat="45.3482506" lon="14.3028431"><ele>300.5</ele><time>2026-04-25T12:31:20.287Z</time></trkpt><trkpt lat="45.3482916" lon="14.3030352"><ele>298.0</ele><time>2026-04-25T12:31:21.287Z</time></trkpt><trkpt lat="45.3483343" lon="14.3032197"><ele>295.5</ele><time>2026-04-25T12:31:22.283Z</time></trkpt><trkpt lat="45.3483808" lon="14.303407"><ele>293.0</ele><time>2026-04-25T12:31:23.29Z</time></trkpt><trkpt lat="45.3484342" lon="14.3036094"><ele>290.75</ele><time>2026-04-25T12:31:24.286Z</time></trkpt><trkpt lat="45.3484984" lon="14.3038003"><ele>288.5</ele><time>2026-04-25T12:31:25.296Z</time></trkpt><trkpt lat="45.3485693" lon="14.3039796"><ele>286.25</ele><time>2026-04-25T12:31:26.29Z</time></trkpt><trkpt lat="45.3486421" lon="14.3041509"><ele>284.0</ele><time>2026-04-25T12:31:27.302Z</time></trkpt><trkpt lat="45.3487113" lon="14.3043128"><ele>284.75</ele><time>2026-04-25T12:31:28.288Z</time></trkpt><trkpt lat="45.3487723" lon="14.3044621"><ele>285.5</ele><time>2026-04-25T12:31:29.286Z</time></trkpt><trkpt lat="45.3488418" lon="14.3045866"><ele>286.25</ele><time>2026-04-25T12:31:30.288Z</time></trkpt><trkpt lat="45.3489318" lon="14.3046799"><ele>287.0</ele><time>2026-04-25T12:31:31.295Z</time></trkpt><trkpt lat="45.3490475" lon="14.3047534"><ele>282.75</ele><time>2026-04-25T12:31:32.28Z</time></trkpt><trkpt lat="45.3491711" lon="14.3048124"><ele>278.5</ele><time>2026-04-25T12:31:33.285Z</time></trkpt><trkpt lat="45.3492977" lon="14.304862"><ele>274.25</ele><time>2026-04-25T12:31:34.285Z</time></trkpt><trkpt lat="45.3494191" lon="14.3049106"><ele>270.0</ele><time>2026-04-25T12:31:35.281Z</time></trkpt><trkpt lat="45.349536" lon="14.3049662"><ele>270.0</ele><time>2026-04-25T12:31:36.292Z</time></trkpt><trkpt lat="45.3496526" lon="14.3050091"><ele>270.0</ele><time>2026-04-25T12:31:37.285Z</time></trkpt><trkpt lat="45.3497549" lon="14.3050364"><ele>270.0</ele><time>2026-04-25T12:31:38.295Z</time></trkpt><trkpt lat="45.3498471" lon="14.3050166"><ele>270.0</ele><time>2026-04-25T12:31:39.286Z</time></trkpt><trkpt lat="45.3499223" lon="14.3049509"><ele>270.0</ele><time>2026-04-25T12:31:40.278Z</time></trkpt><trkpt lat="45.3499796" lon="14.3048389"><ele>273.0</ele><time>2026-04-25T12:31:41.279Z</time></trkpt><trkpt lat="45.3500197" lon="14.3046978"><ele>276.0</ele><time>2026-04-25T12:31:42.283Z</time></trkpt><trkpt lat="45.3500632" lon="14.3045506"><ele>279.0</ele><time>2026-04-25T12:31:43.278Z</time></trkpt><trkpt lat="45.3501177" lon="14.3043923"><ele>282.0</ele><time>2026-04-25T12:31:44.267Z</time></trkpt><trkpt lat="45.3501699" lon="14.3042411"><ele>282.0</ele><time>2026-04-25T12:31:45.287Z</time></trkpt><trkpt lat="45.3502337" lon="14.3041193"><ele>282.0</ele><time>2026-04-25T12:31:46.28Z</time></trkpt><trkpt lat="45.3503114" lon="14.3040325"><ele>282.0</ele><time>2026-04-25T12:31:47.277Z</time></trkpt><trkpt lat="45.3504065" lon="14.3039775"><ele>282.0</ele><time>2026-04-25T12:31:48.282Z</time></trkpt><trkpt lat="45.3505184" lon="14.3039492"><ele>282.0</ele><time>2026-04-25T12:31:49.283Z</time></trkpt><trkpt lat="45.3506419" lon="14.3039313"><ele>282.5</ele><time>2026-04-25T12:31:50.281Z</time></trkpt><trkpt lat="45.3507782" lon="14.3039121"><ele>283.0</ele><time>2026-04-25T12:31:51.29Z</time></trkpt><trkpt lat="45.350916" lon="14.3038831"><ele>283.5</ele><time>2026-04-25T12:31:52.283Z</time></trkpt><trkpt lat="45.3510463" lon="14.3038442"><ele>284.0</ele><time>2026-04-25T12:31:53.286Z</time></trkpt><trkpt lat="45.3511648" lon="14.3037594"><ele>284.0</ele><time>2026-04-25T12:31:54.278Z</time></trkpt><trkpt lat="45.3512627" lon="14.3036486"><ele>284.0</ele><time>2026-04-25T12:31:55.281Z</time></trkpt><trkpt lat="45.3513192" lon="14.3035137"><ele>284.0</ele><time>2026-04-25T12:31:56.272Z</time></trkpt><trkpt lat="45.3513511" lon="14.3033633"><ele>284.0</ele><time>2026-04-25T12:31:57.273Z</time></trkpt><trkpt lat="45.3513554" lon="14.3032071"><ele>283.8</ele><time>2026-04-25T12:31:58.282Z</time></trkpt><trkpt lat="45.3513567" lon="14.3030718"><ele>283.59999999999997</ele><time>2026-04-25T12:31:59.28Z</time></trkpt><trkpt lat="45.3513712" lon="14.3029597"><ele>283.4</ele><time>2026-04-25T12:32:00.276Z</time></trkpt><trkpt lat="45.3514017" lon="14.3028775"><ele>283.2</ele><time>2026-04-25T12:32:01.288Z</time></trkpt><trkpt lat="45.3515198" lon="14.3028372"><ele>283.0</ele><time>2026-04-25T12:32:03.285Z</time></trkpt><trkpt lat="45.3515926" lon="14.3029225"><ele>283.0</ele><time>2026-04-25T12:32:04.28Z</time></trkpt><trkpt lat="45.351653" lon="14.3030407"><ele>283.0</ele><time>2026-04-25T12:32:05.268Z</time></trkpt><trkpt lat="45.351702" lon="14.3031733"><ele>283.0</ele><time>2026-04-25T12:32:06.279Z</time></trkpt><trkpt lat="45.3517505" lon="14.3033326"><ele>283.0</ele><time>2026-04-25T12:32:07.275Z</time></trkpt><trkpt lat="45.3518051" lon="14.3035214"><ele>279.0</ele><time>2026-04-25T12:32:08.276Z</time></trkpt><trkpt lat="45.3518548" lon="14.3037308"><ele>275.0</ele><time>2026-04-25T12:32:09.281Z</time></trkpt><trkpt lat="45.3518937" lon="14.3039551"><ele>271.0</ele><time>2026-04-25T12:32:10.277Z</time></trkpt><trkpt lat="45.3519322" lon="14.3041577"><ele>267.75</ele><time>2026-04-25T12:32:11.281Z</time></trkpt><trkpt lat="45.3519754" lon="14.304347"><ele>264.5</ele><time>2026-04-25T12:32:12.277Z</time></trkpt><trkpt lat="45.3520274" lon="14.3045207"><ele>261.25</ele><time>2026-04-25T12:32:13.271Z</time></trkpt><trkpt lat="45.3521036" lon="14.3046659"><ele>258.0</ele><time>2026-04-25T12:32:14.284Z</time></trkpt><trkpt lat="45.3521966" lon="14.3047905"><ele>257.0</ele><time>2026-04-25T12:32:15.275Z</time></trkpt><trkpt lat="45.352311" lon="14.304873"><ele>256.0</ele><time>2026-04-25T12:32:16.278Z</time></trkpt><trkpt lat="45.3524356" lon="14.3049252"><ele>255.0</ele><time>2026-04-25T12:32:17.279Z</time></trkpt><trkpt lat="45.3525665" lon="14.3049528"><ele>254.0</ele><time>2026-04-25T12:32:18.281Z</time></trkpt><trkpt lat="45.3526929" lon="14.3049676"><ele>254.0</ele><time>2026-04-25T12:32:19.287Z</time></trkpt><trkpt lat="45.3528108" lon="14.30502"><ele>254.0</ele><time>2026-04-25T12:32:20.278Z</time></trkpt><trkpt lat="45.3529186" lon="14.3051036"><ele>254.0</ele><time>2026-04-25T12:32:21.276Z</time></trkpt><trkpt lat="45.3530233" lon="14.3052038"><ele>254.0</ele><time>2026-04-25T12:32:22.282Z</time></trkpt><trkpt lat="45.3531213" lon="14.3053029"><ele>252.79999999999998</ele><time>2026-04-25T12:32:23.279Z</time></trkpt><trkpt lat="45.3532234" lon="14.3053822"><ele>251.59999999999997</ele><time>2026-04-25T12:32:24.281Z</time></trkpt><trkpt lat="45.3533293" lon="14.3054267"><ele>250.4</ele><time>2026-04-25T12:32:25.282Z</time></trkpt><trkpt lat="45.3534385" lon="14.3054137"><ele>249.2</ele><time>2026-04-25T12:32:26.279Z</time></trkpt><trkpt lat="45.3535337" lon="14.3053412"><ele>248.0</ele><time>2026-04-25T12:32:27.279Z</time></trkpt><trkpt lat="45.3536206" lon="14.3052251"><ele>248.0</ele><time>2026-04-25T12:32:28.276Z</time></trkpt><trkpt lat="45.3536946" lon="14.3050965"><ele>248.0</ele><time>2026-04-25T12:32:29.282Z</time></trkpt><trkpt lat="45.3537577" lon="14.3049788"><ele>248.0</ele><time>2026-04-25T12:32:30.284Z</time></trkpt><trkpt lat="45.3538229" lon="14.3048831"><ele>248.0</ele><time>2026-04-25T12:32:31.279Z</time></trkpt><trkpt lat="45.353899" lon="14.3048221"><ele>248.0</ele><time>2026-04-25T12:32:32.291Z</time></trkpt><trkpt lat="45.3539825" lon="14.3048201"><ele>246.4</ele><time>2026-04-25T12:32:33.276Z</time></trkpt><trkpt lat="45.3540689" lon="14.3048857"><ele>244.8</ele><time>2026-04-25T12:32:34.279Z</time></trkpt><trkpt lat="45.3541368" lon="14.3049802"><ele>243.2</ele><time>2026-04-25T12:32:35.267Z</time></trkpt><trkpt lat="45.354208" lon="14.3050995"><ele>241.6</ele><time>2026-04-25T12:32:36.274Z</time></trkpt><trkpt lat="45.3542772" lon="14.3052107"><ele>240.0</ele><time>2026-04-25T12:32:37.277Z</time></trkpt><trkpt lat="45.3543471" lon="14.3053117"><ele>240.0</ele><time>2026-04-25T12:32:38.284Z</time></trkpt><trkpt lat="45.3544255" lon="14.3053972"><ele>240.0</ele><time>2026-04-25T12:32:39.287Z</time></trkpt><trkpt lat="45.3545209" lon="14.3054687"><ele>240.0</ele><time>2026-04-25T12:32:40.283Z</time></trkpt><trkpt lat="45.3546322" lon="14.3055122"><ele>240.0</ele><time>2026-04-25T12:32:41.282Z</time></trkpt><trkpt lat="45.354749" lon="14.3055143"><ele>240.0</ele><time>2026-04-25T12:32:42.279Z</time></trkpt><trkpt lat="45.3548477" lon="14.3054739"><ele>239.5</ele><time>2026-04-25T12:32:43.271Z</time></trkpt><trkpt lat="45.3549298" lon="14.305405"><ele>239.0</ele><time>2026-04-25T12:32:44.276Z</time></trkpt><trkpt lat="45.3550036" lon="14.3053092"><ele>238.5</ele><time>2026-04-25T12:32:45.275Z</time></trkpt><trkpt lat="45.3550627" lon="14.3052133"><ele>238.0</ele><time>2026-04-25T12:32:46.272Z</time></trkpt><trkpt lat="45.3551198" lon="14.305131"><ele>237.5</ele><time>2026-04-25T12:32:47.279Z</time></trkpt><trkpt lat="45.3551886" lon="14.305088"><ele>237.0</ele><time>2026-04-25T12:32:48.28Z</time></trkpt><trkpt lat="45.3552709" lon="14.3050892"><ele>237.0</ele><time>2026-04-25T12:32:49.28Z</time></trkpt><trkpt lat="45.3553641" lon="14.3051226"><ele>237.0</ele><time>2026-04-25T12:32:50.283Z</time></trkpt><trkpt lat="45.3554586" lon="14.3051631"><ele>237.0</ele><time>2026-04-25T12:32:51.276Z</time></trkpt><trkpt lat="45.355552" lon="14.305209"><ele>237.0</ele><time>2026-04-25T12:32:52.281Z</time></trkpt><trkpt lat="45.3556576" lon="14.3052117"><ele>237.0</ele><time>2026-04-25T12:32:53.274Z</time></trkpt><trkpt lat="45.3557443" lon="14.3051754"><ele>235.0</ele><time>2026-04-25T12:32:54.274Z</time></trkpt><trkpt lat="45.3558247" lon="14.3050937"><ele>233.0</ele><time>2026-04-25T12:32:55.296Z</time></trkpt><trkpt lat="45.3558951" lon="14.3050136"><ele>231.0</ele><time>2026-04-25T12:32:56.271Z</time></trkpt><trkpt lat="45.3559599" lon="14.3049639"><ele>229.0</ele><time>2026-04-25T12:32:57.276Z</time></trkpt><trkpt lat="45.3560334" lon="14.3049733"><ele>227.0</ele><time>2026-04-25T12:32:58.282Z</time></trkpt><trkpt lat="45.3561079" lon="14.3050151"><ele>225.0</ele><time>2026-04-25T12:32:59.272Z</time></trkpt><trkpt lat="45.3561758" lon="14.3050988"><ele>225.0</ele><time>2026-04-25T12:33:00.285Z</time></trkpt><trkpt lat="45.3562541" lon="14.3051801"><ele>225.0</ele><time>2026-04-25T12:33:01.268Z</time></trkpt><trkpt lat="45.3563329" lon="14.3052443"><ele>225.0</ele><time>2026-04-25T12:33:02.282Z</time></trkpt><trkpt lat="45.356406" lon="14.3052864"><ele>225.0</ele><time>2026-04-25T12:33:03.28Z</time></trkpt><trkpt lat="45.3564813" lon="14.3053102"><ele>225.0</ele><time>2026-04-25T12:33:04.285Z</time></trkpt><trkpt lat="45.3565766" lon="14.3053226"><ele>225.0</ele><time>2026-04-25T12:33:05.274Z</time></trkpt><trkpt lat="45.3566896" lon="14.3053327"><ele>224.5</ele><time>2026-04-25T12:33:06.282Z</time></trkpt><trkpt lat="45.3568107" lon="14.3053513"><ele>224.0</ele><time>2026-04-25T12:33:07.287Z</time></trkpt><trkpt lat="45.356936" lon="14.3053634"><ele>223.5</ele><time>2026-04-25T12:33:08.29Z</time></trkpt><trkpt lat="45.3570646" lon="14.3053727"><ele>223.0</ele><time>2026-04-25T12:33:09.281Z</time></trkpt><trkpt lat="45.3572035" lon="14.3053954"><ele>223.0</ele><time>2026-04-25T12:33:10.278Z</time></trkpt><trkpt lat="45.3573476" lon="14.3054541"><ele>223.0</ele><time>2026-04-25T12:33:11.276Z</time></trkpt><trkpt lat="45.3574929" lon="14.3055366"><ele>223.0</ele><time>2026-04-25T12:33:12.281Z</time></trkpt><trkpt lat="45.3576258" lon="14.3056299"><ele>221.5</ele><time>2026-04-25T12:33:13.278Z</time></trkpt><trkpt lat="45.3577519" lon="14.3057115"><ele>220.0</ele><time>2026-04-25T12:33:14.282Z</time></trkpt><trkpt lat="45.3578673" lon="14.3057799"><ele>218.5</ele><time>2026-04-25T12:33:15.271Z</time></trkpt><trkpt lat="45.3579695" lon="14.3058449"><ele>217.0</ele><time>2026-04-25T12:33:16.269Z</time></trkpt><trkpt lat="45.3580703" lon="14.3059038"><ele>217.0</ele><time>2026-04-25T12:33:17.283Z</time></trkpt><trkpt lat="45.358159" lon="14.3059607"><ele>217.0</ele><time>2026-04-25T12:33:18.269Z</time></trkpt><trkpt lat="45.3582416" lon="14.3060265"><ele>217.0</ele><time>2026-04-25T12:33:19.273Z</time></trkpt><trkpt lat="45.358307" lon="14.3061281"><ele>217.0</ele><time>2026-04-25T12:33:20.272Z</time></trkpt><trkpt lat="45.3583494" lon="14.3062783"><ele>217.0</ele><time>2026-04-25T12:33:21.276Z</time></trkpt><trkpt lat="45.3583852" lon="14.306427"><ele>215.2</ele><time>2026-04-25T12:33:22.281Z</time></trkpt><trkpt lat="45.3584175" lon="14.3065835"><ele>213.39999999999998</ele><time>2026-04-25T12:33:23.283Z</time></trkpt><trkpt lat="45.3584465" lon="14.3067246"><ele>211.60000000000002</ele><time>2026-04-25T12:33:24.28Z</time></trkpt><trkpt lat="45.3584669" lon="14.3068621"><ele>209.8</ele><time>2026-04-25T12:33:25.283Z</time></trkpt><trkpt lat="45.3584895" lon="14.3070166"><ele>208.0</ele><time>2026-04-25T12:33:26.277Z</time></trkpt><trkpt lat="45.3585124" lon="14.3071683"><ele>206.60000000000002</ele><time>2026-04-25T12:33:27.275Z</time></trkpt><trkpt lat="45.35854" lon="14.3073166"><ele>205.20000000000002</ele><time>2026-04-25T12:33:28.279Z</time></trkpt><trkpt lat="45.3585709" lon="14.3074736"><ele>203.8</ele><time>2026-04-25T12:33:29.278Z</time></trkpt><trkpt lat="45.3586014" lon="14.3076338"><ele>202.4</ele><time>2026-04-25T12:33:30.282Z</time></trkpt><trkpt lat="45.3586302" lon="14.3077778"><ele>201.0</ele><time>2026-04-25T12:33:31.282Z</time></trkpt><trkpt lat="45.3586513" lon="14.307911"><ele>201.0</ele><time>2026-04-25T12:33:32.279Z</time></trkpt><trkpt lat="45.3586758" lon="14.308027"><ele>201.0</ele><time>2026-04-25T12:33:33.283Z</time></trkpt><trkpt lat="45.3586946" lon="14.3081372"><ele>201.0</ele><time>2026-04-25T12:33:34.28Z</time></trkpt><trkpt lat="45.3587121" lon="14.3082492"><ele>201.0</ele><time>2026-04-25T12:33:35.284Z</time></trkpt><trkpt lat="45.3587242" lon="14.3083624"><ele>201.0</ele><time>2026-04-25T12:33:36.291Z</time></trkpt><trkpt lat="45.3587157" lon="14.3084723"><ele>201.0</ele><time>2026-04-25T12:33:37.291Z</time></trkpt><trkpt lat="45.3586889" lon="14.3085959"><ele>200.66666666666666</ele><time>2026-04-25T12:33:38.286Z</time></trkpt><trkpt lat="45.3586565" lon="14.308725"><ele>200.33333333333331</ele><time>2026-04-25T12:33:39.291Z</time></trkpt><trkpt lat="45.358635" lon="14.3088427"><ele>200.0</ele><time>2026-04-25T12:33:40.3Z</time></trkpt><trkpt lat="45.3586149" lon="14.3089542"><ele>199.66666666666666</ele><time>2026-04-25T12:33:41.298Z</time></trkpt><trkpt lat="45.3585873" lon="14.3090749"><ele>199.33333333333331</ele><time>2026-04-25T12:33:42.284Z</time></trkpt><trkpt lat="45.3585668" lon="14.3091911"><ele>199.0</ele><time>2026-04-25T12:33:43.29Z</time></trkpt><trkpt lat="45.3585421" lon="14.3092985"><ele>198.99999999999997</ele><time>2026-04-25T12:33:44.281Z</time></trkpt><trkpt lat="45.3585033" lon="14.3093988"><ele>199.0</ele><time>2026-04-25T12:33:45.293Z</time></trkpt><trkpt lat="45.3584485" lon="14.309467"><ele>199.0</ele><time>2026-04-25T12:33:46.288Z</time></trkpt><trkpt lat="45.3583731" lon="14.3094927"><ele>199.0</ele><time>2026-04-25T12:33:47.283Z</time></trkpt><trkpt lat="45.3582715" lon="14.3094903"><ele>198.99999999999997</ele><time>2026-04-25T12:33:48.279Z</time></trkpt><trkpt lat="45.3581595" lon="14.3094688"><ele>199.0</ele><time>2026-04-25T12:33:49.271Z</time></trkpt><trkpt lat="45.3580558" lon="14.3094767"><ele>198.83333333333331</ele><time>2026-04-25T12:33:50.294Z</time></trkpt><trkpt lat="45.357956" lon="14.3094777"><ele>198.66666666666666</ele><time>2026-04-25T12:33:51.287Z</time></trkpt><trkpt lat="45.3578651" lon="14.3095051"><ele>198.5</ele><time>2026-04-25T12:33:52.287Z</time></trkpt><trkpt lat="45.3577836" lon="14.309528"><ele>198.33333333333331</ele><time>2026-04-25T12:33:53.288Z</time></trkpt><trkpt lat="45.3577164" lon="14.3095901"><ele>198.16666666666666</ele><time>2026-04-25T12:33:54.287Z</time></trkpt><trkpt lat="45.3576616" lon="14.309684"><ele>198.0</ele><time>2026-04-25T12:33:55.278Z</time></trkpt><trkpt lat="45.3576226" lon="14.3097831"><ele>196.2</ele><time>2026-04-25T12:33:56.29Z</time></trkpt><trkpt lat="45.3575957" lon="14.3098826"><ele>194.4</ele><time>2026-04-25T12:33:57.287Z</time></trkpt><trkpt lat="45.3575684" lon="14.3099769"><ele>192.6</ele><time>2026-04-25T12:33:58.299Z</time></trkpt><trkpt lat="45.3575377" lon="14.3100728"><ele>190.79999999999998</ele><time>2026-04-25T12:33:59.296Z</time></trkpt><trkpt lat="45.3574782" lon="14.3102919"><ele>189.0</ele><time>2026-04-25T12:34:01.294Z</time></trkpt><trkpt lat="45.3574435" lon="14.3104245"><ele>189.0</ele><time>2026-04-25T12:34:02.299Z</time></trkpt><trkpt lat="45.3574049" lon="14.3105677"><ele>189.0</ele><time>2026-04-25T12:34:03.285Z</time></trkpt><trkpt lat="45.3573709" lon="14.3107182"><ele>189.0</ele><time>2026-04-25T12:34:04.293Z</time></trkpt><trkpt lat="45.3573441" lon="14.3108602"><ele>189.0</ele><time>2026-04-25T12:34:05.277Z</time></trkpt><trkpt lat="45.3573149" lon="14.3110028"><ele>189.0</ele><time>2026-04-25T12:34:06.284Z</time></trkpt><trkpt lat="45.3572881" lon="14.3111438"><ele>188.16666666666666</ele><time>2026-04-25T12:34:07.295Z</time></trkpt><trkpt lat="45.3572575" lon="14.3112755"><ele>187.33333333333334</ele><time>2026-04-25T12:34:08.284Z</time></trkpt><trkpt lat="45.3572197" lon="14.3113945"><ele>186.5</ele><time>2026-04-25T12:34:09.287Z</time></trkpt><trkpt lat="45.3571657" lon="14.3114937"><ele>185.66666666666669</ele><time>2026-04-25T12:34:10.296Z</time></trkpt><trkpt lat="45.3570999" lon="14.3115716"><ele>184.83333333333334</ele><time>2026-04-25T12:34:11.294Z</time></trkpt><trkpt lat="45.3570219" lon="14.3116231"><ele>184.0</ele><time>2026-04-25T12:34:12.284Z</time></trkpt><trkpt lat="45.3569348" lon="14.311657"><ele>182.6</ele><time>2026-04-25T12:34:13.286Z</time></trkpt><trkpt lat="45.3568501" lon="14.3116918"><ele>181.2</ele><time>2026-04-25T12:34:14.295Z</time></trkpt><trkpt lat="45.3567558" lon="14.3116954"><ele>179.79999999999998</ele><time>2026-04-25T12:34:15.287Z</time></trkpt><trkpt lat="45.3566524" lon="14.3116625"><ele>178.39999999999998</ele><time>2026-04-25T12:34:16.278Z</time></trkpt><trkpt lat="45.356543" lon="14.3116206"><ele>177.0</ele><time>2026-04-25T12:34:17.279Z</time></trkpt><trkpt lat="45.3564374" lon="14.3115936"><ele>176.5</ele><time>2026-04-25T12:34:18.287Z</time></trkpt><trkpt lat="45.3563435" lon="14.311571"><ele>176.0</ele><time>2026-04-25T12:34:19.281Z</time></trkpt><trkpt lat="45.3562494" lon="14.31156"><ele>175.5</ele><time>2026-04-25T12:34:20.276Z</time></trkpt><trkpt lat="45.3561648" lon="14.3115615"><ele>175.0</ele><time>2026-04-25T12:34:21.288Z</time></trkpt><trkpt lat="45.3560863" lon="14.3115901"><ele>174.5</ele><time>2026-04-25T12:34:22.305Z</time></trkpt><trkpt lat="45.3560223" lon="14.3116523"><ele>174.0</ele><time>2026-04-25T12:34:23.281Z</time></trkpt><trkpt lat="45.3559752" lon="14.3117254"><ele>174.0</ele><time>2026-04-25T12:34:24.281Z</time></trkpt><trkpt lat="45.3559518" lon="14.3118153"><ele>174.0</ele><time>2026-04-25T12:34:25.289Z</time></trkpt><trkpt lat="45.3559582" lon="14.3119236"><ele>174.0</ele><time>2026-04-25T12:34:26.299Z</time></trkpt><trkpt lat="45.3559708" lon="14.3120234"><ele>174.0</ele><time>2026-04-25T12:34:27.293Z</time></trkpt><trkpt lat="45.3559812" lon="14.3121321"><ele>174.0</ele><time>2026-04-25T12:34:28.291Z</time></trkpt><trkpt lat="45.3559917" lon="14.3122432"><ele>174.0</ele><time>2026-04-25T12:34:29.291Z</time></trkpt><trkpt lat="45.3559912" lon="14.3123576"><ele>173.16666666666666</ele><time>2026-04-25T12:34:30.293Z</time></trkpt><trkpt lat="45.3559684" lon="14.3124665"><ele>172.33333333333334</ele><time>2026-04-25T12:34:31.291Z</time></trkpt><trkpt lat="45.3559306" lon="14.3125596"><ele>171.5</ele><time>2026-04-25T12:34:32.28Z</time></trkpt><trkpt lat="45.3558685" lon="14.3126511"><ele>170.66666666666669</ele><time>2026-04-25T12:34:33.286Z</time></trkpt><trkpt lat="45.3558035" lon="14.3126894"><ele>169.83333333333334</ele><time>2026-04-25T12:34:34.282Z</time></trkpt><trkpt lat="45.3557266" lon="14.3127089"><ele>169.0</ele><time>2026-04-25T12:34:35.271Z</time></trkpt><trkpt lat="45.3556592" lon="14.3126519"><ele>169.0</ele><time>2026-04-25T12:34:36.281Z</time></trkpt><trkpt lat="45.3556001" lon="14.3125532"><ele>169.0</ele><time>2026-04-25T12:34:37.286Z</time></trkpt><trkpt lat="45.3555256" lon="14.3124362"><ele>169.0</ele><time>2026-04-25T12:34:38.286Z</time></trkpt><trkpt lat="45.3554572" lon="14.3123442"><ele>169.0</ele><time>2026-04-25T12:34:39.289Z</time></trkpt><trkpt lat="45.3554041" lon="14.312251"><ele>169.0</ele><time>2026-04-25T12:34:40.291Z</time></trkpt><trkpt lat="45.3553372" lon="14.3121569"><ele>169.2</ele><time>2026-04-25T12:34:41.291Z</time></trkpt><trkpt lat="45.355247" lon="14.3120822"><ele>169.39999999999998</ele><time>2026-04-25T12:34:42.285Z</time></trkpt><trkpt lat="45.3551469" lon="14.3120383"><ele>169.6</ele><time>2026-04-25T12:34:43.293Z</time></trkpt><trkpt lat="45.3550419" lon="14.312014"><ele>169.8</ele><time>2026-04-25T12:34:44.276Z</time></trkpt><trkpt lat="45.354945" lon="14.3120135"><ele>170.0</ele><time>2026-04-25T12:34:45.283Z</time></trkpt><trkpt lat="45.3548588" lon="14.3120299"><ele>170.0</ele><time>2026-04-25T12:34:46.273Z</time></trkpt><trkpt lat="45.3547628" lon="14.3120747"><ele>170.0</ele><time>2026-04-25T12:34:47.284Z</time></trkpt><trkpt lat="45.3546797" lon="14.3121364"><ele>170.0</ele><time>2026-04-25T12:34:48.279Z</time></trkpt><trkpt lat="45.3546125" lon="14.3122205"><ele>170.0</ele><time>2026-04-25T12:34:49.28Z</time></trkpt><trkpt lat="45.354556" lon="14.312334"><ele>170.0</ele><time>2026-04-25T12:34:50.292Z</time></trkpt><trkpt lat="45.3545003" lon="14.3124597"><ele>169.6</ele><time>2026-04-25T12:34:51.278Z</time></trkpt><trkpt lat="45.3544461" lon="14.312597"><ele>169.2</ele><time>2026-04-25T12:34:52.3Z</time></trkpt><trkpt lat="45.3543843" lon="14.3127198"><ele>168.8</ele><time>2026-04-25T12:34:53.281Z</time></trkpt><trkpt lat="45.3543106" lon="14.3128201"><ele>168.4</ele><time>2026-04-25T12:34:54.274Z</time></trkpt><trkpt lat="45.3542261" lon="14.3129099"><ele>168.0</ele><time>2026-04-25T12:34:55.277Z</time></trkpt><trkpt lat="45.3541422" lon="14.3129967"><ele>165.4</ele><time>2026-04-25T12:34:56.274Z</time></trkpt><trkpt lat="45.3540654" lon="14.3130951"><ele>162.8</ele><time>2026-04-25T12:34:57.28Z</time></trkpt><trkpt lat="45.3540097" lon="14.3132058"><ele>160.2</ele><time>2026-04-25T12:34:58.279Z</time></trkpt><trkpt lat="45.3539654" lon="14.3133297"><ele>157.6</ele><time>2026-04-25T12:34:59.277Z</time></trkpt><trkpt lat="45.3539274" lon="14.3134549"><ele>155.0</ele><time>2026-04-25T12:35:00.283Z</time></trkpt><trkpt lat="45.3538725" lon="14.3135657"><ele>156.4</ele><time>2026-04-25T12:35:01.285Z</time></trkpt><trkpt lat="45.3538045" lon="14.313659"><ele>157.8</ele><time>2026-04-25T12:35:02.278Z</time></trkpt><trkpt lat="45.3537316" lon="14.31375"><ele>159.2</ele><time>2026-04-25T12:35:03.284Z</time></trkpt><trkpt lat="45.3536498" lon="14.3138123"><ele>160.6</ele><time>2026-04-25T12:35:04.276Z</time></trkpt><trkpt lat="45.353558" lon="14.3138563"><ele>162.0</ele><time>2026-04-25T12:35:05.277Z</time></trkpt><trkpt lat="45.3534624" lon="14.3138975"><ele>162.0</ele><time>2026-04-25T12:35:06.272Z</time></trkpt><trkpt lat="45.3533553" lon="14.3139153"><ele>162.0</ele><time>2026-04-25T12:35:07.275Z</time></trkpt><trkpt lat="45.3532377" lon="14.3139029"><ele>162.0</ele><time>2026-04-25T12:35:08.276Z</time></trkpt><trkpt lat="45.3531235" lon="14.3138729"><ele>162.0</ele><time>2026-04-25T12:35:09.271Z</time></trkpt><trkpt lat="45.3530124" lon="14.3138492"><ele>160.4</ele><time>2026-04-25T12:35:10.277Z</time></trkpt><trkpt lat="45.3529098" lon="14.3138258"><ele>158.79999999999998</ele><time>2026-04-25T12:35:11.274Z</time></trkpt><trkpt lat="45.3528034" lon="14.3137935"><ele>157.2</ele><time>2026-04-25T12:35:12.282Z</time></trkpt><trkpt lat="45.3527031" lon="14.3137566"><ele>155.6</ele><time>2026-04-25T12:35:13.277Z</time></trkpt><trkpt lat="45.3526127" lon="14.3137139"><ele>154.0</ele><time>2026-04-25T12:35:14.286Z</time></trkpt><trkpt lat="45.3525219" lon="14.3136753"><ele>154.0</ele><time>2026-04-25T12:35:15.283Z</time></trkpt><trkpt lat="45.3524389" lon="14.3136447"><ele>154.0</ele><time>2026-04-25T12:35:16.288Z</time></trkpt><trkpt lat="45.352357" lon="14.3136228"><ele>154.0</ele><time>2026-04-25T12:35:17.279Z</time></trkpt><trkpt lat="45.3522766" lon="14.3136064"><ele>154.0</ele><time>2026-04-25T12:35:18.285Z</time></trkpt><trkpt lat="45.3521901" lon="14.3136017"><ele>154.0</ele><time>2026-04-25T12:35:19.286Z</time></trkpt><trkpt lat="45.3520979" lon="14.3136001"><ele>154.0</ele><time>2026-04-25T12:35:20.275Z</time></trkpt><trkpt lat="45.352002" lon="14.3135829"><ele>153.2</ele><time>2026-04-25T12:35:21.27Z</time></trkpt><trkpt lat="45.3519079" lon="14.3135535"><ele>152.4</ele><time>2026-04-25T12:35:22.289Z</time></trkpt><trkpt lat="45.3518244" lon="14.313525"><ele>151.6</ele><time>2026-04-25T12:35:23.272Z</time></trkpt><trkpt lat="45.3517413" lon="14.3135025"><ele>150.8</ele><time>2026-04-25T12:35:24.283Z</time></trkpt><trkpt lat="45.351647" lon="14.3134957"><ele>150.0</ele><time>2026-04-25T12:35:25.272Z</time></trkpt><trkpt lat="45.3515477" lon="14.3135041"><ele>150.0</ele><time>2026-04-25T12:35:26.282Z</time></trkpt><trkpt lat="45.3514448" lon="14.3135184"><ele>150.0</ele><time>2026-04-25T12:35:27.266Z</time></trkpt><trkpt lat="45.3513496" lon="14.3135351"><ele>150.0</ele><time>2026-04-25T12:35:28.274Z</time></trkpt><trkpt lat="45.351258" lon="14.3135496"><ele>150.0</ele><time>2026-04-25T12:35:29.274Z</time></trkpt><trkpt lat="45.3511673" lon="14.3135715"><ele>150.0</ele><time>2026-04-25T12:35:30.266Z</time></trkpt><trkpt lat="45.3510852" lon="14.3135888"><ele>149.0</ele><time>2026-04-25T12:35:31.272Z</time></trkpt><trkpt lat="45.3510007" lon="14.3135831"><ele>148.0</ele><time>2026-04-25T12:35:32.291Z</time></trkpt><trkpt lat="45.350923" lon="14.3135436"><ele>147.0</ele><time>2026-04-25T12:35:33.28Z</time></trkpt><trkpt lat="45.350843" lon="14.3134624"><ele>146.0</ele><time>2026-04-25T12:35:34.282Z</time></trkpt><trkpt lat="45.3507551" lon="14.3133872"><ele>145.0</ele><time>2026-04-25T12:35:35.274Z</time></trkpt><trkpt lat="45.3506587" lon="14.3133238"><ele>145.0</ele><time>2026-04-25T12:35:36.278Z</time></trkpt><trkpt lat="45.3505718" lon="14.3132675"><ele>145.0</ele><time>2026-04-25T12:35:37.288Z</time></trkpt><trkpt lat="45.3504832" lon="14.3132213"><ele>145.0</ele><time>2026-04-25T12:35:38.273Z</time></trkpt><trkpt lat="45.3503941" lon="14.3131927"><ele>145.0</ele><time>2026-04-25T12:35:39.275Z</time></trkpt><trkpt lat="45.3503092" lon="14.3131922"><ele>145.0</ele><time>2026-04-25T12:35:40.275Z</time></trkpt><trkpt lat="45.350219" lon="14.3131892"><ele>143.8</ele><time>2026-04-25T12:35:41.274Z</time></trkpt><trkpt lat="45.3501356" lon="14.3131675"><ele>142.6</ele><time>2026-04-25T12:35:42.282Z</time></trkpt><trkpt lat="45.3500612" lon="14.3131145"><ele>141.4</ele><time>2026-04-25T12:35:43.27Z</time></trkpt><trkpt lat="45.3499911" lon="14.3130251"><ele>140.2</ele><time>2026-04-25T12:35:44.264Z</time></trkpt><trkpt lat="45.3499201" lon="14.3129063"><ele>139.0</ele><time>2026-04-25T12:35:45.273Z</time></trkpt><trkpt lat="45.3498463" lon="14.3127802"><ele>139.0</ele><time>2026-04-25T12:35:46.275Z</time></trkpt><trkpt lat="45.3497691" lon="14.3126708"><ele>139.0</ele><time>2026-04-25T12:35:47.281Z</time></trkpt><trkpt lat="45.3497002" lon="14.3125699"><ele>139.0</ele><time>2026-04-25T12:35:48.275Z</time></trkpt><trkpt lat="45.3496299" lon="14.3124742"><ele>139.0</ele><time>2026-04-25T12:35:49.28Z</time></trkpt><trkpt lat="45.3495573" lon="14.3123632"><ele>139.0</ele><time>2026-04-25T12:35:50.282Z</time></trkpt><trkpt lat="45.349484" lon="14.312243"><ele>136.5</ele><time>2026-04-25T12:35:51.278Z</time></trkpt><trkpt lat="45.3494166" lon="14.3121324"><ele>134.0</ele><time>2026-04-25T12:35:52.274Z</time></trkpt><trkpt lat="45.3493531" lon="14.3120336"><ele>131.5</ele><time>2026-04-25T12:35:53.287Z</time></trkpt><trkpt lat="45.3492935" lon="14.311945"><ele>129.0</ele><time>2026-04-25T12:35:54.276Z</time></trkpt><trkpt lat="45.3492487" lon="14.3118523"><ele>126.50000000000001</ele><time>2026-04-25T12:35:55.299Z</time></trkpt><trkpt lat="45.3492354" lon="14.3117377"><ele>124.0</ele><time>2026-04-25T12:35:56.271Z</time></trkpt><trkpt lat="45.34924" lon="14.3115976"><ele>124.0</ele><time>2026-04-25T12:35:57.282Z</time></trkpt><trkpt lat="45.3492474" lon="14.3114378"><ele>124.0</ele><time>2026-04-25T12:35:58.279Z</time></trkpt><trkpt lat="45.3492514" lon="14.31129"><ele>124.0</ele><time>2026-04-25T12:35:59.278Z</time></trkpt><trkpt lat="45.3492584" lon="14.3111464"><ele>124.0</ele><time>2026-04-25T12:36:00.279Z</time></trkpt><trkpt lat="45.3492608" lon="14.3110144"><ele>124.0</ele><time>2026-04-25T12:36:01.281Z</time></trkpt><trkpt lat="45.349267" lon="14.310884"><ele>125.66666666666667</ele><time>2026-04-25T12:36:02.275Z</time></trkpt><trkpt lat="45.3492662" lon="14.3107589"><ele>127.33333333333334</ele><time>2026-04-25T12:36:03.278Z</time></trkpt><trkpt lat="45.3492528" lon="14.3106472"><ele>129.0</ele><time>2026-04-25T12:36:04.28Z</time></trkpt><trkpt lat="45.3492098" lon="14.3105502"><ele>130.66666666666666</ele><time>2026-04-25T12:36:05.282Z</time></trkpt><trkpt lat="45.3491343" lon="14.3104994"><ele>132.33333333333331</ele><time>2026-04-25T12:36:06.282Z</time></trkpt><trkpt lat="45.3490513" lon="14.3104905"><ele>134.0</ele><time>2026-04-25T12:36:07.273Z</time></trkpt><trkpt lat="45.3489714" lon="14.3105282"><ele>134.0</ele><time>2026-04-25T12:36:08.275Z</time></trkpt><trkpt lat="45.3489004" lon="14.3106079"><ele>134.0</ele><time>2026-04-25T12:36:09.274Z</time></trkpt><trkpt lat="45.3488251" lon="14.3107264"><ele>134.0</ele><time>2026-04-25T12:36:10.278Z</time></trkpt><trkpt lat="45.3487466" lon="14.3108612"><ele>134.0</ele><time>2026-04-25T12:36:11.269Z</time></trkpt><trkpt lat="45.3486591" lon="14.3109936"><ele>131.5</ele><time>2026-04-25T12:36:12.267Z</time></trkpt><trkpt lat="45.3485648" lon="14.3111098"><ele>129.0</ele><time>2026-04-25T12:36:13.272Z</time></trkpt><trkpt lat="45.3484666" lon="14.3112258"><ele>126.5</ele><time>2026-04-25T12:36:14.271Z</time></trkpt><trkpt lat="45.3483694" lon="14.3113144"><ele>124.0</ele><time>2026-04-25T12:36:15.285Z</time></trkpt><trkpt lat="45.3482657" lon="14.3113681"><ele>124.0</ele><time>2026-04-25T12:36:16.271Z</time></trkpt><trkpt lat="45.3481594" lon="14.3113765"><ele>124.0</ele><time>2026-04-25T12:36:17.272Z</time></trkpt><trkpt lat="45.3480546" lon="14.3113187"><ele>124.0</ele><time>2026-04-25T12:36:18.281Z</time></trkpt><trkpt lat="45.3479599" lon="14.3112399"><ele>124.0</ele><time>2026-04-25T12:36:19.274Z</time></trkpt><trkpt lat="45.3478676" lon="14.3111244"><ele>121.0</ele><time>2026-04-25T12:36:20.272Z</time></trkpt><trkpt lat="45.3477845" lon="14.3110001"><ele>118.0</ele><time>2026-04-25T12:36:21.272Z</time></trkpt><trkpt lat="45.3477209" lon="14.3108772"><ele>115.0</ele><time>2026-04-25T12:36:22.272Z</time></trkpt><trkpt lat="45.3476534" lon="14.3107752"><ele>112.0</ele><time>2026-04-25T12:36:23.284Z</time></trkpt><trkpt lat="45.347563" lon="14.3107089"><ele>109.0</ele><time>2026-04-25T12:36:24.277Z</time></trkpt><trkpt lat="45.3474643" lon="14.3106674"><ele>109.0</ele><time>2026-04-25T12:36:25.273Z</time></trkpt><trkpt lat="45.3473539" lon="14.310658"><ele>109.0</ele><time>2026-04-25T12:36:26.269Z</time></trkpt><trkpt lat="45.3472374" lon="14.3106616"><ele>109.0</ele><time>2026-04-25T12:36:27.274Z</time></trkpt><trkpt lat="45.3471247" lon="14.3106668"><ele>109.0</ele><time>2026-04-25T12:36:28.274Z</time></trkpt><trkpt lat="45.347015" lon="14.3106595"><ele>109.6</ele><time>2026-04-25T12:36:29.276Z</time></trkpt><trkpt lat="45.3469169" lon="14.3106286"><ele>110.2</ele><time>2026-04-25T12:36:30.269Z</time></trkpt><trkpt lat="45.3468142" lon="14.3105911"><ele>110.79999999999998</ele><time>2026-04-25T12:36:31.282Z</time></trkpt><trkpt lat="45.3467091" lon="14.3105511"><ele>111.39999999999999</ele><time>2026-04-25T12:36:32.271Z</time></trkpt><trkpt lat="45.346595" lon="14.3105198"><ele>112.0</ele><time>2026-04-25T12:36:33.27Z</time></trkpt><trkpt lat="45.3464812" lon="14.3104768"><ele>107.75</ele><time>2026-04-25T12:36:34.278Z</time></trkpt><trkpt lat="45.3463598" lon="14.3104223"><ele>103.5</ele><time>2026-04-25T12:36:35.276Z</time></trkpt><trkpt lat="45.3462522" lon="14.3103278"><ele>99.25</ele><time>2026-04-25T12:36:36.276Z</time></trkpt><trkpt lat="45.3461437" lon="14.3102207"><ele>95.0</ele><time>2026-04-25T12:36:37.273Z</time></trkpt><trkpt lat="45.3460384" lon="14.3101"><ele>95.0</ele><time>2026-04-25T12:36:38.283Z</time></trkpt><trkpt lat="45.3459355" lon="14.3099832"><ele>95.0</ele><time>2026-04-25T12:36:39.279Z</time></trkpt><trkpt lat="45.3458368" lon="14.309878"><ele>95.0</ele><time>2026-04-25T12:36:40.276Z</time></trkpt><trkpt lat="45.3457372" lon="14.3097767"><ele>95.0</ele><time>2026-04-25T12:36:41.285Z</time></trkpt><trkpt lat="45.3456466" lon="14.3096815"><ele>96.4</ele><time>2026-04-25T12:36:42.269Z</time></trkpt><trkpt lat="45.3455542" lon="14.3095801"><ele>97.8</ele><time>2026-04-25T12:36:43.267Z</time></trkpt><trkpt lat="45.3454671" lon="14.309484"><ele>99.19999999999999</ele><time>2026-04-25T12:36:44.267Z</time></trkpt><trkpt lat="45.3453779" lon="14.3093919"><ele>100.6</ele><time>2026-04-25T12:36:45.273Z</time></trkpt><trkpt lat="45.345284" lon="14.3093165"><ele>102.0</ele><time>2026-04-25T12:36:46.276Z</time></trkpt><trkpt lat="45.3451976" lon="14.3092951"><ele>99.33333333333333</ele><time>2026-04-25T12:36:47.286Z</time></trkpt><trkpt lat="45.3451135" lon="14.3093308"><ele>96.66666666666667</ele><time>2026-04-25T12:36:48.276Z</time></trkpt><trkpt lat="45.3450537" lon="14.3094113"><ele>94.0</ele><time>2026-04-25T12:36:49.272Z</time></trkpt><trkpt lat="45.3450232" lon="14.3095128"><ele>91.33333333333334</ele><time>2026-04-25T12:36:50.267Z</time></trkpt><trkpt lat="45.3450058" lon="14.3096429"><ele>88.66666666666667</ele><time>2026-04-25T12:36:51.285Z</time></trkpt><trkpt lat="45.3450146" lon="14.3097899"><ele>86.0</ele><time>2026-04-25T12:36:52.273Z</time></trkpt><trkpt lat="45.3450291" lon="14.3099459"><ele>84.6</ele><time>2026-04-25T12:36:53.269Z</time></trkpt><trkpt lat="45.345034" lon="14.3100974"><ele>83.19999999999999</ele><time>2026-04-25T12:36:54.279Z</time></trkpt><trkpt lat="45.34504" lon="14.3102426"><ele>81.80000000000001</ele><time>2026-04-25T12:36:55.279Z</time></trkpt><trkpt lat="45.345058" lon="14.3103684"><ele>80.4</ele><time>2026-04-25T12:36:56.277Z</time></trkpt><trkpt lat="45.3450787" lon="14.3104812"><ele>79.0</ele><time>2026-04-25T12:36:57.277Z</time></trkpt><trkpt lat="45.3451021" lon="14.3105804"><ele>78.0</ele><time>2026-04-25T12:36:58.275Z</time></trkpt><trkpt lat="45.3451361" lon="14.310668"><ele>77.0</ele><time>2026-04-25T12:36:59.282Z</time></trkpt><trkpt lat="45.3451697" lon="14.3108175"><ele>76.0</ele><time>2026-04-25T12:37:01.282Z</time></trkpt><trkpt lat="45.3451226" lon="14.3108864"><ele>75.0</ele><time>2026-04-25T12:37:03.281Z</time></trkpt><trkpt lat="45.3450042" lon="14.3108123"><ele>74.0</ele><time>2026-04-25T12:37:05.271Z</time></trkpt><trkpt lat="45.344937" lon="14.3107452"><ele>74.0</ele><time>2026-04-25T12:37:06.274Z</time></trkpt><trkpt lat="45.3448591" lon="14.3106657"><ele>74.0</ele><time>2026-04-25T12:37:07.277Z</time></trkpt><trkpt lat="45.3447753" lon="14.3105783"><ele>74.0</ele><time>2026-04-25T12:37:08.278Z</time></trkpt><trkpt lat="45.3446838" lon="14.3105017"><ele>74.0</ele><time>2026-04-25T12:37:09.283Z</time></trkpt><trkpt lat="45.3445861" lon="14.3104372"><ele>74.0</ele><time>2026-04-25T12:37:10.273Z</time></trkpt><trkpt lat="45.3444715" lon="14.3103758"><ele>72.25</ele><time>2026-04-25T12:37:11.275Z</time></trkpt><trkpt lat="45.3443473" lon="14.3103188"><ele>70.5</ele><time>2026-04-25T12:37:12.288Z</time></trkpt><trkpt lat="45.3442324" lon="14.3102644"><ele>68.75</ele><time>2026-04-25T12:37:13.271Z</time></trkpt><trkpt lat="45.3441242" lon="14.3102178"><ele>67.0</ele><time>2026-04-25T12:37:14.28Z</time></trkpt><trkpt lat="45.3440231" lon="14.3101698"><ele>67.0</ele><time>2026-04-25T12:37:15.274Z</time></trkpt><trkpt lat="45.3439208" lon="14.3101306"><ele>67.0</ele><time>2026-04-25T12:37:16.275Z</time></trkpt><trkpt lat="45.3438323" lon="14.31008"><ele>67.0</ele><time>2026-04-25T12:37:17.273Z</time></trkpt><trkpt lat="45.3437446" lon="14.3100275"><ele>67.0</ele><time>2026-04-25T12:37:18.272Z</time></trkpt><trkpt lat="45.343658" lon="14.3099839"><ele>67.0</ele><time>2026-04-25T12:37:19.281Z</time></trkpt><trkpt lat="45.3435743" lon="14.3099481"><ele>65.33333333333333</ele><time>2026-04-25T12:37:20.276Z</time></trkpt><trkpt lat="45.3434957" lon="14.3099309"><ele>63.666666666666664</ele><time>2026-04-25T12:37:21.276Z</time></trkpt><trkpt lat="45.3434308" lon="14.3099362"><ele>62.0</ele><time>2026-04-25T12:37:22.286Z</time></trkpt><trkpt lat="45.3433401" lon="14.3099691"><ele>60.33333333333333</ele><time>2026-04-25T12:37:24.293Z</time></trkpt><trkpt lat="45.3432728" lon="14.3099978"><ele>58.666666666666664</ele><time>2026-04-25T12:37:27.285Z</time></trkpt><trkpt lat="45.3432001" lon="14.3100159"><ele>57.0</ele><time>2026-04-25T12:37:30.287Z</time></trkpt><trkpt lat="45.343074" lon="14.3100489"><ele>55.400000000000006</ele><time>2026-04-25T12:37:32.292Z</time></trkpt><trkpt lat="45.3429959" lon="14.3100816"><ele>53.800000000000004</ele><time>2026-04-25T12:37:33.286Z</time></trkpt><trkpt lat="45.3429104" lon="14.3101325"><ele>52.2</ele><time>2026-04-25T12:37:34.288Z</time></trkpt><trkpt lat="45.3428183" lon="14.3101764"><ele>50.6</ele><time>2026-04-25T12:37:35.286Z</time></trkpt><trkpt lat="45.3427335" lon="14.3102161"><ele>49.0</ele><time>2026-04-25T12:37:36.286Z</time></trkpt><trkpt lat="45.3426365" lon="14.3102612"><ele>49.0</ele><time>2026-04-25T12:37:37.288Z</time></trkpt><trkpt lat="45.342538" lon="14.3103064"><ele>49.0</ele><time>2026-04-25T12:37:38.268Z</time></trkpt><trkpt lat="45.3424486" lon="14.3103522"><ele>49.0</ele><time>2026-04-25T12:37:39.274Z</time></trkpt><trkpt lat="45.3423542" lon="14.3104033"><ele>49.0</ele><time>2026-04-25T12:37:40.269Z</time></trkpt><trkpt lat="45.3422694" lon="14.3104568"><ele>49.0</ele><time>2026-04-25T12:37:41.28Z</time></trkpt><trkpt lat="45.3421922" lon="14.3105088"><ele>46.99999999999999</ele><time>2026-04-25T12:37:42.269Z</time></trkpt><trkpt lat="45.3421219" lon="14.3105582"><ele>45.0</ele><time>2026-04-25T12:37:43.275Z</time></trkpt><trkpt lat="45.3420519" lon="14.3106022"><ele>43.0</ele><time>2026-04-25T12:37:44.27Z</time></trkpt><trkpt lat="45.3419732" lon="14.3106198"><ele>41.0</ele><time>2026-04-25T12:37:45.268Z</time></trkpt><trkpt lat="45.3418866" lon="14.3106056"><ele>39.0</ele><time>2026-04-25T12:37:46.27Z</time></trkpt><trkpt lat="45.3417872" lon="14.3105605"><ele>37.0</ele><time>2026-04-25T12:37:47.269Z</time></trkpt><trkpt lat="45.3416955" lon="14.3105074"><ele>37.0</ele><time>2026-04-25T12:37:48.268Z</time></trkpt><trkpt lat="45.3416131" lon="14.3104396"><ele>37.0</ele><time>2026-04-25T12:37:49.265Z</time></trkpt><trkpt lat="45.3415285" lon="14.3103711"><ele>37.0</ele><time>2026-04-25T12:37:50.267Z</time></trkpt><trkpt lat="45.3414458" lon="14.3102971"><ele>37.0</ele><time>2026-04-25T12:37:51.27Z</time></trkpt><trkpt lat="45.3413724" lon="14.3102196"><ele>37.0</ele><time>2026-04-25T12:37:52.268Z</time></trkpt><trkpt lat="45.3412992" lon="14.3101515"><ele>35.16666666666667</ele><time>2026-04-25T12:37:53.264Z</time></trkpt><trkpt lat="45.3412373" lon="14.3100772"><ele>33.333333333333336</ele><time>2026-04-25T12:37:54.272Z</time></trkpt><trkpt lat="45.3411792" lon="14.3100044"><ele>31.5</ele><time>2026-04-25T12:37:55.274Z</time></trkpt><trkpt lat="45.3411233" lon="14.3099334"><ele>29.666666666666664</ele><time>2026-04-25T12:37:56.266Z</time></trkpt><trkpt lat="45.3410633" lon="14.3098725"><ele>27.833333333333332</ele><time>2026-04-25T12:37:57.272Z</time></trkpt><trkpt lat="45.3410008" lon="14.3098199"><ele>26.0</ele><time>2026-04-25T12:37:58.27Z</time></trkpt><trkpt lat="45.3409293" lon="14.3097691"><ele>26.499999999999996</ele><time>2026-04-25T12:37:59.269Z</time></trkpt><trkpt lat="45.340854" lon="14.3097354"><ele>27.0</ele><time>2026-04-25T12:38:00.274Z</time></trkpt><trkpt lat="45.3407832" lon="14.309697"><ele>27.5</ele><time>2026-04-25T12:38:01.282Z</time></trkpt><trkpt lat="45.3407146" lon="14.3096568"><ele>28.0</ele><time>2026-04-25T12:38:02.274Z</time></trkpt><trkpt lat="45.3406582" lon="14.3096139"><ele>28.499999999999996</ele><time>2026-04-25T12:38:03.278Z</time></trkpt><trkpt lat="45.340563" lon="14.3095568"><ele>29.0</ele><time>2026-04-25T12:38:05.281Z</time></trkpt><trkpt lat="45.340493" lon="14.3095891"><ele>27.799999999999997</ele><time>2026-04-25T12:38:08.274Z</time></trkpt><trkpt lat="45.3404246" lon="14.309686"><ele>26.599999999999998</ele><time>2026-04-25T12:38:21.276Z</time></trkpt><trkpt lat="45.3403891" lon="14.3098321"><ele>25.4</ele><time>2026-04-25T12:38:23.291Z</time></trkpt><trkpt lat="45.3403741" lon="14.3099266"><ele>24.2</ele><time>2026-04-25T12:38:24.274Z</time></trkpt><trkpt lat="45.3403589" lon="14.3100277"><ele>23.0</ele><time>2026-04-25T12:38:25.282Z</time></trkpt><trkpt lat="45.3403259" lon="14.3101839"><ele>22.0</ele><time>2026-04-25T12:38:27.292Z</time></trkpt><trkpt lat="45.3402915" lon="14.3103193"><ele>21.0</ele><time>2026-04-25T12:38:29.282Z</time></trkpt><trkpt lat="45.3402465" lon="14.3104149"><ele>20.0</ele><time>2026-04-25T12:38:31.284Z</time></trkpt><trkpt lat="45.3402626" lon="14.3105208"><ele>19.0</ele><time>2026-04-25T12:38:46.269Z</time></trkpt><trkpt lat="45.3402565" lon="14.3106693"><ele>18.0</ele><time>2026-04-25T12:38:48.279Z</time></trkpt><trkpt lat="45.3402536" lon="14.3108446"><ele>17.4</ele><time>2026-04-25T12:38:50.272Z</time></trkpt><trkpt lat="45.3402512" lon="14.3109819"><ele>16.8</ele><time>2026-04-25T12:38:52.277Z</time></trkpt><trkpt lat="45.3402603" lon="14.3111242"><ele>16.2</ele><time>2026-04-25T12:38:54.269Z</time></trkpt><trkpt lat="45.3402727" lon="14.311294"><ele>15.6</ele><time>2026-04-25T12:38:56.282Z</time></trkpt><trkpt lat="45.3402849" lon="14.3114434"><ele>15.0</ele><time>2026-04-25T12:38:58.272Z</time></trkpt><trkpt lat="45.3402833" lon="14.3115659"><ele>14.0</ele><time>2026-04-25T12:39:00.287Z</time></trkpt><trkpt lat="45.3402913" lon="14.3116804"><ele>13.0</ele><time>2026-04-25T12:39:02.281Z</time></trkpt><trkpt lat="45.3403029" lon="14.3118026"><ele>12.0</ele><time>2026-04-25T12:39:04.273Z</time></trkpt><trkpt lat="45.3403389" lon="14.3118837"><ele>11.0</ele><time>2026-04-25T12:39:06.277Z</time></trkpt><trkpt lat="45.3404636" lon="14.3118954"><ele>10.0</ele><time>2026-04-25T12:39:08.271Z</time></trkpt><trkpt lat="45.3405552" lon="14.3118888"><ele>12.2</ele><time>2026-04-25T12:39:09.265Z</time></trkpt><trkpt lat="45.3406283" lon="14.3118765"><ele>14.4</ele><time>2026-04-25T12:39:10.289Z</time></trkpt><trkpt lat="45.3407448" lon="14.3118729"><ele>16.6</ele><time>2026-04-25T12:39:12.288Z</time></trkpt><trkpt lat="45.3408744" lon="14.3118347"><ele>18.8</ele><time>2026-04-25T12:39:14.284Z</time></trkpt><trkpt lat="45.3409395" lon="14.3117961"><ele>21.0</ele><time>2026-04-25T12:39:15.269Z</time></trkpt><trkpt lat="45.3409986" lon="14.3117385"><ele>21.0</ele><time>2026-04-25T12:39:16.28Z</time></trkpt><trkpt lat="45.3410506" lon="14.3116745"><ele>21.0</ele><time>2026-04-25T12:39:17.285Z</time></trkpt><trkpt lat="45.3411014" lon="14.311593"><ele>21.0</ele><time>2026-04-25T12:39:18.276Z</time></trkpt><trkpt lat="45.3411416" lon="14.3115077"><ele>21.0</ele><time>2026-04-25T12:39:19.279Z</time></trkpt><trkpt lat="45.3411738" lon="14.3114305"><ele>21.0</ele><time>2026-04-25T12:39:20.284Z</time></trkpt><trkpt lat="45.3412319" lon="14.3113342"><ele>21.0</ele><time>2026-04-25T12:39:22.287Z</time></trkpt><trkpt lat="45.3412924" lon="14.3112645"><ele>21.0</ele><time>2026-04-25T12:39:24.278Z</time></trkpt><trkpt lat="45.3413377" lon="14.3111832"><ele>21.833333333333332</ele><time>2026-04-25T12:39:30.279Z</time></trkpt><trkpt lat="45.3413425" lon="14.3110366"><ele>22.666666666666664</ele><time>2026-04-25T12:39:32.277Z</time></trkpt><trkpt lat="45.3413275" lon="14.3109472"><ele>23.5</ele><time>2026-04-25T12:39:33.264Z</time></trkpt><trkpt lat="45.341297" lon="14.3108468"><ele>24.333333333333332</ele><time>2026-04-25T12:39:34.275Z</time></trkpt><trkpt lat="45.3412427" lon="14.3107505"><ele>25.166666666666664</ele><time>2026-04-25T12:39:35.261Z</time></trkpt><trkpt lat="45.3411682" lon="14.3106776"><ele>26.0</ele><time>2026-04-25T12:39:36.272Z</time></trkpt><trkpt lat="45.3410847" lon="14.3106187"><ele>26.0</ele><time>2026-04-25T12:39:37.272Z</time></trkpt><trkpt lat="45.340993" lon="14.3105691"><ele>26.0</ele><time>2026-04-25T12:39:38.28Z</time></trkpt><trkpt lat="45.3409114" lon="14.3105214"><ele>26.0</ele><time>2026-04-25T12:39:39.272Z</time></trkpt><trkpt lat="45.3407879" lon="14.3103351"><ele>26.0</ele><time>2026-04-25T12:39:41.26Z</time></trkpt><trkpt lat="45.3407493" lon="14.3102252"><ele>25.999999999999996</ele><time>2026-04-25T12:39:42.27Z</time></trkpt><trkpt lat="45.340706" lon="14.3101299"><ele>26.0</ele><time>2026-04-25T12:39:43.271Z</time></trkpt><trkpt lat="45.3406664" lon="14.3100418"><ele>26.0</ele><time>2026-04-25T12:39:44.278Z</time></trkpt><trkpt lat="45.3406283" lon="14.3099497"><ele>26.0</ele><time>2026-04-25T12:39:45.276Z</time></trkpt><trkpt lat="45.3405887" lon="14.3098526"><ele>25.999999999999996</ele><time>2026-04-25T12:39:46.269Z</time></trkpt><trkpt lat="45.3405512" lon="14.3097499"><ele>26.0</ele><time>2026-04-25T12:39:47.266Z</time></trkpt><trkpt lat="45.3405007" lon="14.3096635"><ele>25.4</ele><time>2026-04-25T12:39:48.271Z</time></trkpt><trkpt lat="45.3404501" lon="14.3096032"><ele>24.8</ele><time>2026-04-25T12:39:49.272Z</time></trkpt><trkpt lat="45.3403489" lon="14.3095364"><ele>24.2</ele><time>2026-04-25T12:39:51.273Z</time></trkpt><trkpt lat="45.3402691" lon="14.3095315"><ele>23.599999999999998</ele><time>2026-04-25T12:39:53.267Z</time></trkpt><trkpt lat="45.3401827" lon="14.309536"><ele>23.0</ele><time>2026-04-25T12:39:56.273Z</time></trkpt><trkpt lat="45.3400746" lon="14.3095543"><ele>23.0</ele><time>2026-04-25T12:39:58.277Z</time></trkpt><trkpt lat="45.3400065" lon="14.309549"><ele>23.0</ele><time>2026-04-25T12:39:59.284Z</time></trkpt><trkpt lat="45.3398716" lon="14.3095538"><ele>23.0</ele><time>2026-04-25T12:40:01.284Z</time></trkpt><trkpt lat="45.3397958" lon="14.3095529"><ele>23.0</ele><time>2026-04-25T12:40:02.29Z</time></trkpt><trkpt lat="45.3397193" lon="14.3095603"><ele>23.0</ele><time>2026-04-25T12:40:03.276Z</time></trkpt><trkpt lat="45.3396376" lon="14.3095497"><ele>23.0</ele><time>2026-04-25T12:40:04.276Z</time></trkpt><trkpt lat="45.3395533" lon="14.3095386"><ele>23.333333333333336</ele><time>2026-04-25T12:40:05.293Z</time></trkpt><trkpt lat="45.3394648" lon="14.3095409"><ele>23.666666666666668</ele><time>2026-04-25T12:40:06.282Z</time></trkpt><trkpt lat="45.3393732" lon="14.309535"><ele>24.0</ele><time>2026-04-25T12:40:07.283Z</time></trkpt><trkpt lat="45.3392906" lon="14.3095273"><ele>24.333333333333336</ele><time>2026-04-25T12:40:08.283Z</time></trkpt><trkpt lat="45.3392135" lon="14.3095221"><ele>24.666666666666668</ele><time>2026-04-25T12:40:09.282Z</time></trkpt><trkpt lat="45.3391403" lon="14.3095158"><ele>25.0</ele><time>2026-04-25T12:40:10.281Z</time></trkpt><trkpt lat="45.3390627" lon="14.3095139"><ele>25.0</ele><time>2026-04-25T12:40:11.286Z</time></trkpt><trkpt lat="45.3389807" lon="14.3095014"><ele>25.0</ele><time>2026-04-25T12:40:12.287Z</time></trkpt><trkpt lat="45.3388956" lon="14.3094722"><ele>25.0</ele><time>2026-04-25T12:40:13.27Z</time></trkpt><trkpt lat="45.3388059" lon="14.3094306"><ele>25.0</ele><time>2026-04-25T12:40:14.273Z</time></trkpt><trkpt lat="45.3387117" lon="14.3093813"><ele>25.0</ele><time>2026-04-25T12:40:15.278Z</time></trkpt><trkpt lat="45.3386197" lon="14.3093195"><ele>25.166666666666668</ele><time>2026-04-25T12:40:16.291Z</time></trkpt><trkpt lat="45.3385415" lon="14.3092511"><ele>25.333333333333336</ele><time>2026-04-25T12:40:17.288Z</time></trkpt><trkpt lat="45.3384713" lon="14.3091916"><ele>25.5</ele><time>2026-04-25T12:40:18.287Z</time></trkpt><trkpt lat="45.3384104" lon="14.3091379"><ele>25.666666666666664</ele><time>2026-04-25T12:40:19.285Z</time></trkpt><trkpt lat="45.3383411" lon="14.3090925"><ele>25.833333333333332</ele><time>2026-04-25T12:40:20.286Z</time></trkpt><trkpt lat="45.3382689" lon="14.3090443"><ele>26.0</ele><time>2026-04-25T12:40:21.289Z</time></trkpt><trkpt lat="45.3381885" lon="14.3089917"><ele>26.0</ele><time>2026-04-25T12:40:22.287Z</time></trkpt><trkpt lat="45.3381032" lon="14.3089419"><ele>26.0</ele><time>2026-04-25T12:40:23.297Z</time></trkpt><trkpt lat="45.3380189" lon="14.3088841"><ele>26.0</ele><time>2026-04-25T12:40:24.282Z</time></trkpt><trkpt lat="45.3379379" lon="14.3088095"><ele>26.0</ele><time>2026-04-25T12:40:25.276Z</time></trkpt><trkpt lat="45.3378551" lon="14.3087265"><ele>26.0</ele><time>2026-04-25T12:40:26.27Z</time></trkpt><trkpt lat="45.33778" lon="14.3086457"><ele>26.333333333333332</ele><time>2026-04-25T12:40:27.281Z</time></trkpt><trkpt lat="45.3377161" lon="14.3085631"><ele>26.666666666666664</ele><time>2026-04-25T12:40:28.277Z</time></trkpt><trkpt lat="45.3376504" lon="14.3084804"><ele>27.0</ele><time>2026-04-25T12:40:29.293Z</time></trkpt><trkpt lat="45.3375927" lon="14.308396"><ele>27.333333333333336</ele><time>2026-04-25T12:40:30.278Z</time></trkpt><trkpt lat="45.3375283" lon="14.3083144"><ele>27.666666666666668</ele><time>2026-04-25T12:40:31.281Z</time></trkpt><trkpt lat="45.3374552" lon="14.3082451"><ele>28.0</ele><time>2026-04-25T12:40:32.283Z</time></trkpt><trkpt lat="45.3373768" lon="14.3081839"><ele>28.0</ele><time>2026-04-25T12:40:33.288Z</time></trkpt><trkpt lat="45.3372849" lon="14.3081386"><ele>27.999999999999996</ele><time>2026-04-25T12:40:34.274Z</time></trkpt><trkpt lat="45.337199" lon="14.3080903"><ele>27.999999999999996</ele><time>2026-04-25T12:40:35.276Z</time></trkpt><trkpt lat="45.3371135" lon="14.3080527"><ele>28.0</ele><time>2026-04-25T12:40:36.284Z</time></trkpt><trkpt lat="45.3370259" lon="14.3080104"><ele>28.0</ele><time>2026-04-25T12:40:37.281Z</time></trkpt><trkpt lat="45.3369345" lon="14.3079772"><ele>28.799999999999997</ele><time>2026-04-25T12:40:38.281Z</time></trkpt><trkpt lat="45.3368388" lon="14.3079298"><ele>29.599999999999998</ele><time>2026-04-25T12:40:39.289Z</time></trkpt><trkpt lat="45.3367471" lon="14.3078979"><ele>30.400000000000002</ele><time>2026-04-25T12:40:40.293Z</time></trkpt><trkpt lat="45.3366608" lon="14.3078569"><ele>31.200000000000003</ele><time>2026-04-25T12:40:41.281Z</time></trkpt><trkpt lat="45.3365723" lon="14.3078112"><ele>32.0</ele><time>2026-04-25T12:40:42.285Z</time></trkpt><trkpt lat="45.3364911" lon="14.3077739"><ele>32.0</ele><time>2026-04-25T12:40:43.279Z</time></trkpt><trkpt lat="45.3364029" lon="14.3077367"><ele>32.0</ele><time>2026-04-25T12:40:44.27Z</time></trkpt><trkpt lat="45.3363191" lon="14.3076991"><ele>32.0</ele><time>2026-04-25T12:40:45.273Z</time></trkpt><trkpt lat="45.336219" lon="14.3076566"><ele>32.0</ele><time>2026-04-25T12:40:46.278Z</time></trkpt><trkpt lat="45.33612" lon="14.3076138"><ele>32.0</ele><time>2026-04-25T12:40:47.278Z</time></trkpt><trkpt lat="45.3360295" lon="14.3075723"><ele>30.200000000000003</ele><time>2026-04-25T12:40:48.269Z</time></trkpt><trkpt lat="45.3359496" lon="14.3075403"><ele>28.400000000000002</ele><time>2026-04-25T12:40:49.279Z</time></trkpt><trkpt lat="45.3358747" lon="14.3075056"><ele>26.6</ele><time>2026-04-25T12:40:50.287Z</time></trkpt><trkpt lat="45.3358024" lon="14.3074745"><ele>24.799999999999997</ele><time>2026-04-25T12:40:51.287Z</time></trkpt><trkpt lat="45.3357285" lon="14.3074439"><ele>23.0</ele><time>2026-04-25T12:40:52.275Z</time></trkpt><trkpt lat="45.3355972" lon="14.3073841"><ele>22.28571428571429</ele><time>2026-04-25T12:40:54.297Z</time></trkpt><trkpt lat="45.3355318" lon="14.3073557"><ele>21.57142857142857</ele><time>2026-04-25T12:40:55.271Z</time></trkpt><trkpt lat="45.3354705" lon="14.3073289"><ele>20.857142857142858</ele><time>2026-04-25T12:40:56.272Z</time></trkpt><trkpt lat="45.3354021" lon="14.307295"><ele>20.142857142857146</ele><time>2026-04-25T12:40:57.272Z</time></trkpt><trkpt lat="45.3353397" lon="14.3072603"><ele>19.42857142857143</ele><time>2026-04-25T12:40:58.278Z</time></trkpt><trkpt lat="45.3352741" lon="14.3072139"><ele>18.714285714285715</ele><time>2026-04-25T12:40:59.275Z</time></trkpt><trkpt lat="45.3352075" lon="14.3071705"><ele>18.0</ele><time>2026-04-25T12:41:00.273Z</time></trkpt><trkpt lat="45.3351468" lon="14.3071197"><ele>18.000000000000004</ele><time>2026-04-25T12:41:01.273Z</time></trkpt><trkpt lat="45.335086" lon="14.3070706"><ele>18.0</ele><time>2026-04-25T12:41:02.274Z</time></trkpt><trkpt lat="45.3350227" lon="14.3070201"><ele>18.0</ele><time>2026-04-25T12:41:03.275Z</time></trkpt><trkpt lat="45.3349704" lon="14.3069612"><ele>18.0</ele><time>2026-04-25T12:41:04.299Z</time></trkpt><trkpt lat="45.334919" lon="14.3068932"><ele>18.0</ele><time>2026-04-25T12:41:05.281Z</time></trkpt><trkpt lat="45.3348689" lon="14.306829"><ele>18.000000000000004</ele><time>2026-04-25T12:41:06.281Z</time></trkpt><trkpt lat="45.334827" lon="14.3067475"><ele>18.0</ele><time>2026-04-25T12:41:07.278Z</time></trkpt><trkpt lat="45.334788" lon="14.3066669"><ele>18.000000000000004</ele><time>2026-04-25T12:41:08.271Z</time></trkpt><trkpt lat="45.3347469" lon="14.3065929"><ele>18.0</ele><time>2026-04-25T12:41:09.279Z</time></trkpt><trkpt lat="45.3346985" lon="14.3064897"><ele>18.0</ele><time>2026-04-25T12:41:10.271Z</time></trkpt><trkpt lat="45.3346514" lon="14.3063961"><ele>18.0</ele><time>2026-04-25T12:41:11.278Z</time></trkpt><trkpt lat="45.3346095" lon="14.3063149"><ele>18.0</ele><time>2026-04-25T12:41:12.275Z</time></trkpt><trkpt lat="45.334563" lon="14.3062457"><ele>18.000000000000004</ele><time>2026-04-25T12:41:13.273Z</time></trkpt><trkpt lat="45.3345182" lon="14.3061825"><ele>18.0</ele><time>2026-04-25T12:41:14.274Z</time></trkpt><trkpt lat="45.334434" lon="14.3060722"><ele>17.42857142857143</ele><time>2026-04-25T12:41:16.273Z</time></trkpt><trkpt lat="45.3343849" lon="14.3060109"><ele>16.857142857142858</ele><time>2026-04-25T12:41:17.274Z</time></trkpt><trkpt lat="45.3343299" lon="14.3059375"><ele>16.285714285714285</ele><time>2026-04-25T12:41:18.277Z</time></trkpt><trkpt lat="45.3342708" lon="14.3058735"><ele>15.714285714285715</ele><time>2026-04-25T12:41:19.277Z</time></trkpt><trkpt lat="45.3342172" lon="14.3058126"><ele>15.142857142857142</ele><time>2026-04-25T12:41:20.281Z</time></trkpt><trkpt lat="45.3341623" lon="14.3057398"><ele>14.571428571428571</ele><time>2026-04-25T12:41:21.274Z</time></trkpt><trkpt lat="45.3341069" lon="14.305676"><ele>14.0</ele><time>2026-04-25T12:41:22.299Z</time></trkpt><trkpt lat="45.3340524" lon="14.3056144"><ele>14.000000000000002</ele><time>2026-04-25T12:41:23.267Z</time></trkpt><trkpt lat="45.3339756" lon="14.3054995"><ele>14.0</ele><time>2026-04-25T12:41:25.276Z</time></trkpt><trkpt lat="45.3338977" lon="14.3053818"><ele>14.0</ele><time>2026-04-25T12:41:27.27Z</time></trkpt><trkpt lat="45.3338484" lon="14.3053216"><ele>14.0</ele><time>2026-04-25T12:41:28.268Z</time></trkpt><trkpt lat="45.3338023" lon="14.3052491"><ele>14.000000000000002</ele><time>2026-04-25T12:41:29.271Z</time></trkpt><trkpt lat="45.3337534" lon="14.305175"><ele>14.0</ele><time>2026-04-25T12:41:30.281Z</time></trkpt><trkpt lat="45.3337065" lon="14.3051035"><ele>13.000000000000002</ele><time>2026-04-25T12:41:31.285Z</time></trkpt><trkpt lat="45.3336596" lon="14.3050339"><ele>12.0</ele><time>2026-04-25T12:41:32.276Z</time></trkpt><trkpt lat="45.3336145" lon="14.3049658"><ele>11.0</ele><time>2026-04-25T12:41:33.272Z</time></trkpt><trkpt lat="45.3335728" lon="14.3048911"><ele>10.0</ele><time>2026-04-25T12:41:34.28Z</time></trkpt><trkpt lat="45.3334874" lon="14.3047533"><ele>9.0</ele><time>2026-04-25T12:41:36.274Z</time></trkpt><trkpt lat="45.3334392" lon="14.3046826"><ele>8.0</ele><time>2026-04-25T12:41:37.277Z</time></trkpt><trkpt lat="45.3333897" lon="14.3045956"><ele>7.999999999999999</ele><time>2026-04-25T12:41:38.274Z</time></trkpt><trkpt lat="45.3333371" lon="14.3045048"><ele>8.0</ele><time>2026-04-25T12:41:39.271Z</time></trkpt><trkpt lat="45.3332872" lon="14.3044197"><ele>8.0</ele><time>2026-04-25T12:41:40.277Z</time></trkpt><trkpt lat="45.3332274" lon="14.3043346"><ele>8.0</ele><time>2026-04-25T12:41:41.276Z</time></trkpt><trkpt lat="45.3331673" lon="14.3042312"><ele>7.999999999999999</ele><time>2026-04-25T12:41:42.275Z</time></trkpt><trkpt lat="45.3331105" lon="14.3041199"><ele>8.0</ele><time>2026-04-25T12:41:43.285Z</time></trkpt><trkpt lat="45.3330646" lon="14.3040055"><ele>7.666666666666666</ele><time>2026-04-25T12:41:44.275Z</time></trkpt><trkpt lat="45.3330336" lon="14.3039015"><ele>7.333333333333333</ele><time>2026-04-25T12:41:45.269Z</time></trkpt><trkpt lat="45.3330031" lon="14.3037957"><ele>7.0</ele><time>2026-04-25T12:41:46.282Z</time></trkpt><trkpt lat="45.3329761" lon="14.3036999"><ele>6.666666666666666</ele><time>2026-04-25T12:41:47.268Z</time></trkpt><trkpt lat="45.3329434" lon="14.3035598"><ele>6.333333333333333</ele><time>2026-04-25T12:41:49.277Z</time></trkpt><trkpt lat="45.3328973" lon="14.3034468"><ele>6.0</ele><time>2026-04-25T12:41:51.286Z</time></trkpt><trkpt lat="45.332871" lon="14.3033569"><ele>6.0</ele><time>2026-04-25T12:41:53.277Z</time></trkpt><trkpt lat="45.3329093" lon="14.3032655"><ele>6.0</ele><time>2026-04-25T12:41:56.269Z</time></trkpt><trkpt lat="45.3329632" lon="14.303177"><ele>6.0</ele><time>2026-04-25T12:41:59.273Z</time></trkpt><trkpt lat="45.3330276" lon="14.3031092"><ele>6.0</ele><time>2026-04-25T12:42:02.267Z</time></trkpt><trkpt lat="45.3330818" lon="14.3030242"><ele>6.0</ele><time>2026-04-25T12:42:05.284Z</time></trkpt><trkpt lat="45.3331398" lon="14.3029604"><ele>6.0</ele><time>2026-04-25T12:42:08.276Z</time></trkpt><trkpt lat="45.3331952" lon="14.3029062"><ele>6.428571428571428</ele><time>2026-04-25T12:42:23.279Z</time></trkpt><trkpt lat="45.3331466" lon="14.3028449"><ele>6.857142857142858</ele><time>2026-04-25T12:42:28.273Z</time></trkpt><trkpt lat="45.3331501" lon="14.3027485"><ele>7.2857142857142865</ele><time>2026-04-25T12:42:39.262Z</time></trkpt><trkpt lat="45.3331043" lon="14.3026864"><ele>7.714285714285714</ele><time>2026-04-25T12:42:40.271Z</time></trkpt><trkpt lat="45.3330637" lon="14.3026004"><ele>8.142857142857142</ele><time>2026-04-25T12:42:41.27Z</time></trkpt><trkpt lat="45.3330237" lon="14.3025245"><ele>8.571428571428573</ele><time>2026-04-25T12:42:42.282Z</time></trkpt><trkpt lat="45.3329572" lon="14.3024016"><ele>9.0</ele><time>2026-04-25T12:42:44.279Z</time></trkpt><trkpt lat="45.33291" lon="14.3023263"><ele>9.8</ele><time>2026-04-25T12:42:46.28Z</time></trkpt><trkpt lat="45.3328557" lon="14.3022617"><ele>10.600000000000001</ele><time>2026-04-25T12:42:49.273Z</time></trkpt><trkpt lat="45.3327718" lon="14.3022643"><ele>11.4</ele><time>2026-04-25T12:42:51.272Z</time></trkpt><trkpt lat="45.3326576" lon="14.3023353"><ele>12.200000000000001</ele><time>2026-04-25T12:42:53.273Z</time></trkpt><trkpt lat="45.332561" lon="14.3024214"><ele>13.0</ele><time>2026-04-25T12:42:55.27Z</time></trkpt><trkpt lat="45.3324903" lon="14.3025074"><ele>12.999999999999998</ele><time>2026-04-25T12:42:57.272Z</time></trkpt><trkpt lat="45.3324334" lon="14.3025675"><ele>13.0</ele><time>2026-04-25T12:42:59.284Z</time></trkpt><trkpt lat="45.3323853" lon="14.3026378"><ele>13.0</ele><time>2026-04-25T12:43:01.265Z</time></trkpt><trkpt lat="45.332321" lon="14.3027149"><ele>13.0</ele><time>2026-04-25T12:43:04.265Z</time></trkpt><trkpt lat="45.3322565" lon="14.3027106"><ele>12.999999999999998</ele><time>2026-04-25T12:43:06.265Z</time></trkpt><trkpt lat="45.3321926" lon="14.3026304"><ele>13.0</ele><time>2026-04-25T12:43:08.27Z</time></trkpt><trkpt lat="45.3321311" lon="14.30253"><ele>12.833333333333332</ele><time>2026-04-25T12:43:10.274Z</time></trkpt><trkpt lat="45.3320777" lon="14.3024377"><ele>12.666666666666666</ele><time>2026-04-25T12:43:12.27Z</time></trkpt><trkpt lat="45.3320341" lon="14.3023589"><ele>12.5</ele><time>2026-04-25T12:43:14.27Z</time></trkpt><trkpt lat="45.3319823" lon="14.3022935"><ele>12.333333333333332</ele><time>2026-04-25T12:43:17.275Z</time></trkpt><trkpt lat="45.3319208" lon="14.3022736"><ele>12.166666666666666</ele><time>2026-04-25T12:43:21.275Z</time></trkpt><trkpt lat="45.331842" lon="14.3022475"><ele>12.0</ele><time>2026-04-25T12:43:29.271Z</time></trkpt><trkpt lat="45.3317481" lon="14.3022654"><ele>12.0</ele><time>2026-04-25T12:43:31.282Z</time></trkpt><trkpt lat="45.3316411" lon="14.3023"><ele>12.0</ele><time>2026-04-25T12:43:33.279Z</time></trkpt><trkpt lat="45.3315712" lon="14.3023256"><ele>12.0</ele><time>2026-04-25T12:43:35.27Z</time></trkpt><trkpt lat="45.3314817" lon="14.3023496"><ele>12.0</ele><time>2026-04-25T12:43:37.266Z</time></trkpt><trkpt lat="45.3313701" lon="14.302376"><ele>12.0</ele><time>2026-04-25T12:43:39.272Z</time></trkpt><trkpt lat="45.3312831" lon="14.3023896"><ele>11.8</ele><time>2026-04-25T12:43:41.294Z</time></trkpt><trkpt lat="45.3312122" lon="14.3023767"><ele>11.6</ele><time>2026-04-25T12:43:43.262Z</time></trkpt><trkpt lat="45.3311416" lon="14.3023539"><ele>11.4</ele><time>2026-04-25T12:43:45.278Z</time></trkpt><trkpt lat="45.331054" lon="14.3023017"><ele>11.200000000000001</ele><time>2026-04-25T12:43:47.266Z</time></trkpt><trkpt lat="45.3309564" lon="14.3022295"><ele>11.0</ele><time>2026-04-25T12:43:49.277Z</time></trkpt><trkpt lat="45.3308669" lon="14.3021483"><ele>11.833333333333332</ele><time>2026-04-25T12:43:51.273Z</time></trkpt><trkpt lat="45.3307766" lon="14.302052"><ele>12.666666666666666</ele><time>2026-04-25T12:43:53.271Z</time></trkpt><trkpt lat="45.3307223" lon="14.3020028"><ele>13.5</ele><time>2026-04-25T12:43:54.279Z</time></trkpt><trkpt lat="45.3306691" lon="14.301951"><ele>14.333333333333332</ele><time>2026-04-25T12:43:55.271Z</time></trkpt><trkpt lat="45.330574" lon="14.3018877"><ele>15.166666666666666</ele><time>2026-04-25T12:43:57.287Z</time></trkpt><trkpt lat="45.3304977" lon="14.3018492"><ele>16.0</ele><time>2026-04-25T12:43:59.284Z</time></trkpt><trkpt lat="45.330425" lon="14.3018219"><ele>16.0</ele><time>2026-04-25T12:44:01.292Z</time></trkpt><trkpt lat="45.3303157" lon="14.3017953"><ele>16.0</ele><time>2026-04-25T12:44:03.274Z</time></trkpt><trkpt lat="45.3302544" lon="14.3017736"><ele>16.0</ele><time>2026-04-25T12:44:04.275Z</time></trkpt><trkpt lat="45.3301531" lon="14.301725"><ele>16.0</ele><time>2026-04-25T12:44:06.281Z</time></trkpt><trkpt lat="45.3300755" lon="14.3016748"><ele>16.0</ele><time>2026-04-25T12:44:08.29Z</time></trkpt><trkpt lat="45.3299908" lon="14.3016023"><ele>16.0</ele><time>2026-04-25T12:44:10.272Z</time></trkpt><trkpt lat="45.3299216" lon="14.3014655"><ele>16.0</ele><time>2026-04-25T12:44:12.275Z</time></trkpt><trkpt lat="45.3298788" lon="14.3013516"><ele>16.0</ele><time>2026-04-25T12:44:14.276Z</time></trkpt><trkpt lat="45.329789" lon="14.3012388"><ele>16.0</ele><time>2026-04-25T12:44:16.274Z</time></trkpt><trkpt lat="45.3297245" lon="14.3011908"><ele>16.0</ele><time>2026-04-25T12:44:17.278Z</time></trkpt><trkpt lat="45.329653" lon="14.3011506"><ele>17.0</ele><time>2026-04-25T12:44:18.281Z</time></trkpt><trkpt lat="45.3295851" lon="14.3011257"><ele>18.0</ele><time>2026-04-25T12:44:19.287Z</time></trkpt><trkpt lat="45.3295177" lon="14.3011126"><ele>19.0</ele><time>2026-04-25T12:44:20.277Z</time></trkpt><trkpt lat="45.3294446" lon="14.3010912"><ele>20.0</ele><time>2026-04-25T12:44:21.283Z</time></trkpt><trkpt lat="45.3293641" lon="14.3010566"><ele>21.0</ele><time>2026-04-25T12:44:22.276Z</time></trkpt><trkpt lat="45.3292853" lon="14.3010277"><ele>22.0</ele><time>2026-04-25T12:44:23.294Z</time></trkpt><trkpt lat="45.329209" lon="14.3010057"><ele>22.0</ele><time>2026-04-25T12:44:24.279Z</time></trkpt><trkpt lat="45.32914" lon="14.3009816"><ele>22.0</ele><time>2026-04-25T12:44:25.272Z</time></trkpt><trkpt lat="45.329077" lon="14.3009628"><ele>22.0</ele><time>2026-04-25T12:44:26.274Z</time></trkpt><trkpt lat="45.3290131" lon="14.3009412"><ele>22.0</ele><time>2026-04-25T12:44:27.282Z</time></trkpt><trkpt lat="45.3289038" lon="14.3008708"><ele>22.0</ele><time>2026-04-25T12:44:29.277Z</time></trkpt><trkpt lat="45.3288171" lon="14.3007895"><ele>22.0</ele><time>2026-04-25T12:44:31.28Z</time></trkpt><trkpt lat="45.3287175" lon="14.3006912"><ele>22.166666666666664</ele><time>2026-04-25T12:44:33.275Z</time></trkpt><trkpt lat="45.3286652" lon="14.3006118"><ele>22.333333333333332</ele><time>2026-04-25T12:44:34.286Z</time></trkpt><trkpt lat="45.32861" lon="14.30053"><ele>22.5</ele><time>2026-04-25T12:44:35.272Z</time></trkpt><trkpt lat="45.3285498" lon="14.3004399"><ele>22.666666666666668</ele><time>2026-04-25T12:44:36.273Z</time></trkpt><trkpt lat="45.3284931" lon="14.3003509"><ele>22.833333333333336</ele><time>2026-04-25T12:44:37.273Z</time></trkpt><trkpt lat="45.3284429" lon="14.3002654"><ele>23.0</ele><time>2026-04-25T12:44:38.279Z</time></trkpt><trkpt lat="45.3283967" lon="14.3001845"><ele>23.0</ele><time>2026-04-25T12:44:39.269Z</time></trkpt><trkpt lat="45.3283137" lon="14.3000616"><ele>23.0</ele><time>2026-04-25T12:44:41.28Z</time></trkpt><trkpt lat="45.3282474" lon="14.2999456"><ele>23.0</ele><time>2026-04-25T12:44:43.272Z</time></trkpt><trkpt lat="45.3281665" lon="14.2998053"><ele>23.0</ele><time>2026-04-25T12:44:45.286Z</time></trkpt><trkpt lat="45.3281008" lon="14.2996653"><ele>31.0</ele><time>2026-04-25T12:44:47.279Z</time></trkpt><trkpt lat="45.3280164" lon="14.2995525"><ele>26.0</ele><time>2026-04-25T12:44:49.272Z</time></trkpt><trkpt lat="45.3279216" lon="14.2994576"><ele>26.0</ele><time>2026-04-25T12:44:51.273Z</time></trkpt><trkpt lat="45.3278546" lon="14.2994049"><ele>26.0</ele><time>2026-04-25T12:44:53.283Z</time></trkpt></trkseg></trk></gpx>